<?xml version='1.0' encoding='UTF-8'?><gpx version="1.1" creator="JPX - https://github.com/jenetics/jpx" xmlns="http://www.topografix.com/GPX/1/1"><trk><trkseg><trkpt lat="46.202896104982585" lon="13.119381513514409"><ele>176.0</ele><time>2026-05-01T07:25:28Z</time></trkpt><trkpt lat="46.20293287610042" lon="13.119476522781785"><ele>176.0</ele><time>2026-05-01T07:25:31Z</time></trkpt><trkpt lat="46.202970639232014" lon="13.119554532500327"><ele>176.0</ele><time>2026-05-01T07:25:33Z</time></trkpt><trkpt lat="46.20300611578242" lon="13.119661963385946"><ele>176.0</ele><time>2026-05-01T07:25:36Z</time></trkpt><trkpt lat="46.20300569154075" lon="13.119763358112495"><ele>176.0</ele><time>2026-05-01T07:25:39Z</time></trkpt><trkpt lat="46.20292935022335" lon="13.119753890030402"><ele>176.0</ele><time>2026-05-01T07:25:42Z</time></trkpt><trkpt lat="46.20286588213552" lon="13.119589431344428"><ele>176.0</ele><time>2026-05-01T07:25:44Z</time></trkpt><trkpt lat="46.20281812342583" lon="13.119500796561153"><ele>176.0</ele><time>2026-05-01T07:25:45Z</time></trkpt><trkpt lat="46.20278084941368" lon="13.119422162563978"><ele>176.0</ele><time>2026-05-01T07:25:46Z</time></trkpt><trkpt lat="46.202733539059025" lon="13.11930570324973"><ele>176.0</ele><time>2026-05-01T07:25:48Z</time></trkpt><trkpt lat="46.202716714741626" lon="13.119139940143066"><ele>176.0</ele><time>2026-05-01T07:25:50Z</time></trkpt><trkpt lat="46.20271532378853" lon="13.119036319334983"><ele>176.0</ele><time>2026-05-01T07:25:51Z</time></trkpt><trkpt lat="46.202682568829495" lon="13.118879104728567"><ele>176.0</ele><time>2026-05-01T07:25:52.999Z</time></trkpt><trkpt lat="46.20259207475871" lon="13.118772267418075"><ele>176.0</ele><time>2026-05-01T07:25:54.999Z</time></trkpt><trkpt lat="46.20252995211834" lon="13.118740541615123"><ele>176.0</ele><time>2026-05-01T07:25:55.999Z</time></trkpt><trkpt lat="46.202471641659514" lon="13.118704252906351"><ele>176.0</ele><time>2026-05-01T07:25:56.999Z</time></trkpt><trkpt lat="46.202393088056425" lon="13.118612740573752"><ele>176.0</ele><time>2026-05-01T07:25:58.999Z</time></trkpt><trkpt lat="46.20234188685372" lon="13.118530112285567"><ele>176.0</ele><time>2026-05-01T07:26:00.999Z</time></trkpt><trkpt lat="46.20228623549817" lon="13.118423840583192"><ele>175.66666666666666</ele><time>2026-05-01T07:26:02.999Z</time></trkpt><trkpt lat="46.20223778235813" lon="13.118303570142078"><ele>175.33333333333331</ele><time>2026-05-01T07:26:04.999Z</time></trkpt><trkpt lat="46.20219143766767" lon="13.118195934891983"><ele>175.0</ele><time>2026-05-01T07:26:06.999Z</time></trkpt><trkpt lat="46.20214817935848" lon="13.118094031383782"><ele>174.66666666666666</ele><time>2026-05-01T07:26:08.999Z</time></trkpt><trkpt lat="46.20209720508819" lon="13.117976540131716"><ele>174.33333333333334</ele><time>2026-05-01T07:26:11.999Z</time></trkpt><trkpt lat="46.202055215975975" lon="13.117875177232175"><ele>174.0</ele><time>2026-05-01T07:26:13.999Z</time></trkpt><trkpt lat="46.20199985113899" lon="13.117775735956107"><ele>174.0</ele><time>2026-05-01T07:26:15.999Z</time></trkpt><trkpt lat="46.20194699203614" lon="13.117660546671013"><ele>174.0</ele><time>2026-05-01T07:26:18Z</time></trkpt><trkpt lat="46.20189701445074" lon="13.117543978767646"><ele>174.0</ele><time>2026-05-01T07:26:20Z</time></trkpt><trkpt lat="46.20183394173396" lon="13.117416635043867"><ele>174.0</ele><time>2026-05-01T07:26:22Z</time></trkpt><trkpt lat="46.20179598248368" lon="13.117340810922533"><ele>174.0</ele><time>2026-05-01T07:26:23Z</time></trkpt><trkpt lat="46.20175031568462" lon="13.117260163175485"><ele>174.0</ele><time>2026-05-01T07:26:24Z</time></trkpt><trkpt lat="46.20169863648362" lon="13.117178339900073"><ele>174.0</ele><time>2026-05-01T07:26:25Z</time></trkpt><trkpt lat="46.20163687486372" lon="13.11710296145262"><ele>174.0</ele><time>2026-05-01T07:26:26Z</time></trkpt><trkpt lat="46.20157112322238" lon="13.117024216329689"><ele>174.0</ele><time>2026-05-01T07:26:27Z</time></trkpt><trkpt lat="46.20148889534633" lon="13.11693632206096"><ele>174.0</ele><time>2026-05-01T07:26:28Z</time></trkpt><trkpt lat="46.201396021199756" lon="13.116832532268486"><ele>174.0</ele><time>2026-05-01T07:26:29Z</time></trkpt><trkpt lat="46.20129479118469" lon="13.11672037196127"><ele>174.0</ele><time>2026-05-01T07:26:30Z</time></trkpt><trkpt lat="46.201190328920966" lon="13.116610648455453"><ele>174.0</ele><time>2026-05-01T07:26:31Z</time></trkpt><trkpt lat="46.2010885995288" lon="13.116506951179998"><ele>174.0</ele><time>2026-05-01T07:26:32Z</time></trkpt><trkpt lat="46.20098095176622" lon="13.116394363865076"><ele>174.0</ele><time>2026-05-01T07:26:33Z</time></trkpt><trkpt lat="46.20087126798967" lon="13.116275075801788"><ele>174.0</ele><time>2026-05-01T07:26:34Z</time></trkpt><trkpt lat="46.20075978805352" lon="13.116156685297904"><ele>174.0</ele><time>2026-05-01T07:26:35Z</time></trkpt><trkpt lat="46.20065310355527" lon="13.116039926899653"><ele>174.0</ele><time>2026-05-01T07:26:36Z</time></trkpt><trkpt lat="46.20055181979194" lon="13.115926996101697"><ele>174.0</ele><time>2026-05-01T07:26:37Z</time></trkpt><trkpt lat="46.200449453650116" lon="13.115819165466812"><ele>173.5</ele><time>2026-05-01T07:26:38Z</time></trkpt><trkpt lat="46.20034642131556" lon="13.115708475597268"><ele>173.0</ele><time>2026-05-01T07:26:39Z</time></trkpt><trkpt lat="46.200241699349974" lon="13.115595288639266"><ele>172.5</ele><time>2026-05-01T07:26:40Z</time></trkpt><trkpt lat="46.200132307028106" lon="13.115478270899766"><ele>172.0</ele><time>2026-05-01T07:26:41Z</time></trkpt><trkpt lat="46.20001645021087" lon="13.115353661038037"><ele>172.0</ele><time>2026-05-01T07:26:42Z</time></trkpt><trkpt lat="46.19989605822641" lon="13.115220654564757"><ele>172.0</ele><time>2026-05-01T07:26:43Z</time></trkpt><trkpt lat="46.19976617010618" lon="13.11507788504728"><ele>172.0</ele><time>2026-05-01T07:26:44Z</time></trkpt><trkpt lat="46.19963150648589" lon="13.114925329738337"><ele>172.0</ele><time>2026-05-01T07:26:45Z</time></trkpt><trkpt lat="46.19949923534756" lon="13.11476452504454"><ele>172.0</ele><time>2026-05-01T07:26:46Z</time></trkpt><trkpt lat="46.19938360026681" lon="13.114588588577712"><ele>172.0</ele><time>2026-05-01T07:26:47Z</time></trkpt><trkpt lat="46.19927382049693" lon="13.114407195517456"><ele>172.0</ele><time>2026-05-01T07:26:48Z</time></trkpt><trkpt lat="46.19917530199832" lon="13.114213896326412"><ele>172.0</ele><time>2026-05-01T07:26:49Z</time></trkpt><trkpt lat="46.199082232468086" lon="13.114027437749824"><ele>172.0</ele><time>2026-05-01T07:26:50Z</time></trkpt><trkpt lat="46.19899256825189" lon="13.113840899229578"><ele>172.0</ele><time>2026-05-01T07:26:51Z</time></trkpt><trkpt lat="46.19890371493409" lon="13.113657580307414"><ele>172.0</ele><time>2026-05-01T07:26:52Z</time></trkpt><trkpt lat="46.198813606203196" lon="13.113479217229829"><ele>172.0</ele><time>2026-05-01T07:26:53Z</time></trkpt><trkpt lat="46.198726388205515" lon="13.113301579928386"><ele>172.25</ele><time>2026-05-01T07:26:54Z</time></trkpt><trkpt lat="46.198640679611124" lon="13.113124217434427"><ele>172.5</ele><time>2026-05-01T07:26:55Z</time></trkpt><trkpt lat="46.19856022664784" lon="13.112957905148036"><ele>172.75</ele><time>2026-05-01T07:26:56Z</time></trkpt><trkpt lat="46.198483264145864" lon="13.1127985501234"><ele>173.0</ele><time>2026-05-01T07:26:57Z</time></trkpt><trkpt lat="46.19839810598935" lon="13.112629450595009"><ele>173.0</ele><time>2026-05-01T07:26:58Z</time></trkpt><trkpt lat="46.19831021897117" lon="13.112451633244778"><ele>173.0</ele><time>2026-05-01T07:26:59Z</time></trkpt><trkpt lat="46.19821893317884" lon="13.112268383934834"><ele>173.0</ele><time>2026-05-01T07:27:00Z</time></trkpt><trkpt lat="46.19812730060322" lon="13.112081406842853"><ele>172.75</ele><time>2026-05-01T07:27:01Z</time></trkpt><trkpt lat="46.198038895645254" lon="13.111900150065964"><ele>172.5</ele><time>2026-05-01T07:27:02Z</time></trkpt><trkpt lat="46.19795267507566" lon="13.111725509106735"><ele>172.25</ele><time>2026-05-01T07:27:03Z</time></trkpt><trkpt lat="46.197869882658075" lon="13.11155939914439"><ele>172.0</ele><time>2026-05-01T07:27:04Z</time></trkpt><trkpt lat="46.19778602800175" lon="13.111398911535009"><ele>171.75</ele><time>2026-05-01T07:27:05Z</time></trkpt><trkpt lat="46.19769992888561" lon="13.111236626393843"><ele>171.5</ele><time>2026-05-01T07:27:06Z</time></trkpt><trkpt lat="46.19761095853357" lon="13.111070666547702"><ele>171.25</ele><time>2026-05-01T07:27:07Z</time></trkpt><trkpt lat="46.19751985948025" lon="13.110903222005918"><ele>171.0</ele><time>2026-05-01T07:27:08Z</time></trkpt><trkpt lat="46.19742839718029" lon="13.110733319217058"><ele>171.0</ele><time>2026-05-01T07:27:09Z</time></trkpt><trkpt lat="46.19733428459048" lon="13.110561493342347"><ele>171.0</ele><time>2026-05-01T07:27:10Z</time></trkpt><trkpt lat="46.197237993304206" lon="13.110389509749469"><ele>171.0</ele><time>2026-05-01T07:27:11Z</time></trkpt><trkpt lat="46.197140363297855" lon="13.110213825091746"><ele>171.0</ele><time>2026-05-01T07:27:12Z</time></trkpt><trkpt lat="46.19704146872086" lon="13.110037308476594"><ele>171.0</ele><time>2026-05-01T07:27:13Z</time></trkpt><trkpt lat="46.19694020004693" lon="13.109860848087786"><ele>171.0</ele><time>2026-05-01T07:27:14Z</time></trkpt><trkpt lat="46.19684159588646" lon="13.10968283621496"><ele>170.33333333333334</ele><time>2026-05-01T07:27:15Z</time></trkpt><trkpt lat="46.19674298827344" lon="13.10950379703367"><ele>169.66666666666669</ele><time>2026-05-01T07:27:16Z</time></trkpt><trkpt lat="46.196642574960464" lon="13.109321108997138"><ele>169.0</ele><time>2026-05-01T07:27:17Z</time></trkpt><trkpt lat="46.19654571194778" lon="13.109126648329623"><ele>170.33333333333334</ele><time>2026-05-01T07:27:18Z</time></trkpt><trkpt lat="46.19646100207944" lon="13.108909206540767"><ele>171.66666666666666</ele><time>2026-05-01T07:27:19Z</time></trkpt><trkpt lat="46.19640291920777" lon="13.108668154458986"><ele>173.0</ele><time>2026-05-01T07:27:20Z</time></trkpt><trkpt lat="46.19637049916049" lon="13.108401222881648"><ele>172.33333333333331</ele><time>2026-05-01T07:27:21Z</time></trkpt><trkpt lat="46.196362650154676" lon="13.108113032820615"><ele>171.66666666666666</ele><time>2026-05-01T07:27:22Z</time></trkpt><trkpt lat="46.19636135083652" lon="13.107821217325371"><ele>171.0</ele><time>2026-05-01T07:27:23Z</time></trkpt><trkpt lat="46.196361288136046" lon="13.107542586892743"><ele>170.66666666666666</ele><time>2026-05-01T07:27:24Z</time></trkpt><trkpt lat="46.19636294167271" lon="13.107279952977871"><ele>170.33333333333331</ele><time>2026-05-01T07:27:25Z</time></trkpt><trkpt lat="46.196364095351285" lon="13.107028850929623"><ele>170.0</ele><time>2026-05-01T07:27:26Z</time></trkpt><trkpt lat="46.19636408956834" lon="13.10678505945795"><ele>169.75</ele><time>2026-05-01T07:27:27Z</time></trkpt><trkpt lat="46.196362972349746" lon="13.10655488045714"><ele>169.5</ele><time>2026-05-01T07:27:28Z</time></trkpt><trkpt lat="46.196360082692955" lon="13.106353882075407"><ele>169.25</ele><time>2026-05-01T07:27:29Z</time></trkpt><trkpt lat="46.196357205557845" lon="13.106159218587786"><ele>169.0</ele><time>2026-05-01T07:27:30Z</time></trkpt><trkpt lat="46.1963561070749" lon="13.105960912951904"><ele>169.0</ele><time>2026-05-01T07:27:31Z</time></trkpt><trkpt lat="46.196353044702285" lon="13.105758587020192"><ele>169.0</ele><time>2026-05-01T07:27:32Z</time></trkpt><trkpt lat="46.1963488854524" lon="13.105546929243133"><ele>169.0</ele><time>2026-05-01T07:27:33Z</time></trkpt><trkpt lat="46.19634857337322" lon="13.105327446201866"><ele>169.0</ele><time>2026-05-01T07:27:34Z</time></trkpt><trkpt lat="46.19634807893333" lon="13.10510116434484"><ele>168.0</ele><time>2026-05-01T07:27:35Z</time></trkpt><trkpt lat="46.19634813084593" lon="13.104863662526949"><ele>167.0</ele><time>2026-05-01T07:27:36Z</time></trkpt><trkpt lat="46.19634644452944" lon="13.104604336083062"><ele>166.0</ele><time>2026-05-01T07:27:37Z</time></trkpt><trkpt lat="46.19634408589222" lon="13.10433382849358"><ele>166.33333333333334</ele><time>2026-05-01T07:27:38Z</time></trkpt><trkpt lat="46.196341874032285" lon="13.10405009031714"><ele>166.66666666666666</ele><time>2026-05-01T07:27:39Z</time></trkpt><trkpt lat="46.19634052036994" lon="13.103761280292046"><ele>167.0</ele><time>2026-05-01T07:27:40Z</time></trkpt><trkpt lat="46.19634100827376" lon="13.103468528792073"><ele>166.33333333333331</ele><time>2026-05-01T07:27:41Z</time></trkpt><trkpt lat="46.19634995979817" lon="13.103175564482845"><ele>165.66666666666666</ele><time>2026-05-01T07:27:42Z</time></trkpt><trkpt lat="46.196372950711364" lon="13.102870859567986"><ele>165.0</ele><time>2026-05-01T07:27:43Z</time></trkpt><trkpt lat="46.19641220148975" lon="13.102560131691972"><ele>165.0</ele><time>2026-05-01T07:27:44Z</time></trkpt><trkpt lat="46.19646181925437" lon="13.102253915351596"><ele>165.0</ele><time>2026-05-01T07:27:45Z</time></trkpt><trkpt lat="46.19652214924712" lon="13.101950712376235"><ele>165.0</ele><time>2026-05-01T07:27:46Z</time></trkpt><trkpt lat="46.19658661442972" lon="13.101651885966653"><ele>166.0</ele><time>2026-05-01T07:27:47Z</time></trkpt><trkpt lat="46.19664937989863" lon="13.101352115224142"><ele>167.0</ele><time>2026-05-01T07:27:48Z</time></trkpt><trkpt lat="46.19670942036711" lon="13.101065253001364"><ele>168.0</ele><time>2026-05-01T07:27:49Z</time></trkpt><trkpt lat="46.1967639537744" lon="13.100800983174729"><ele>168.0</ele><time>2026-05-01T07:27:50Z</time></trkpt><trkpt lat="46.19681712677215" lon="13.100545274229594"><ele>168.0</ele><time>2026-05-01T07:27:51Z</time></trkpt><trkpt lat="46.196870394988444" lon="13.100296108314634"><ele>168.0</ele><time>2026-05-01T07:27:52Z</time></trkpt><trkpt lat="46.19692114531801" lon="13.100053757052697"><ele>168.0</ele><time>2026-05-01T07:27:53Z</time></trkpt><trkpt lat="46.196972028717724" lon="13.09981225538904"><ele>168.0</ele><time>2026-05-01T07:27:53.999Z</time></trkpt><trkpt lat="46.19702231777217" lon="13.099572615936182"><ele>168.0</ele><time>2026-05-01T07:27:54.999Z</time></trkpt><trkpt lat="46.19707281090276" lon="13.099330849096846"><ele>168.0</ele><time>2026-05-01T07:27:55.999Z</time></trkpt><trkpt lat="46.19712647303957" lon="13.09908432034835"><ele>168.0</ele><time>2026-05-01T07:27:56.999Z</time></trkpt><trkpt lat="46.19718080255944" lon="13.098828512549856"><ele>168.0</ele><time>2026-05-01T07:27:57.999Z</time></trkpt><trkpt lat="46.19723458238616" lon="13.098566990174948"><ele>167.33333333333334</ele><time>2026-05-01T07:27:58.999Z</time></trkpt><trkpt lat="46.19728712772394" lon="13.098305133452575"><ele>166.66666666666669</ele><time>2026-05-01T07:27:59.999Z</time></trkpt><trkpt lat="46.197341232609155" lon="13.098048397850828"><ele>166.0</ele><time>2026-05-01T07:28:00.999Z</time></trkpt><trkpt lat="46.197396117223455" lon="13.097791815490014"><ele>166.0</ele><time>2026-05-01T07:28:01.999Z</time></trkpt><trkpt lat="46.19745085388605" lon="13.097535175813626"><ele>166.0</ele><time>2026-05-01T07:28:02.999Z</time></trkpt><trkpt lat="46.19750560891406" lon="13.097275463407035"><ele>166.0</ele><time>2026-05-01T07:28:03.999Z</time></trkpt><trkpt lat="46.19756023500604" lon="13.097011872906421"><ele>166.0</ele><time>2026-05-01T07:28:04.999Z</time></trkpt><trkpt lat="46.19761518530772" lon="13.096744735950763"><ele>166.0</ele><time>2026-05-01T07:28:05.999Z</time></trkpt><trkpt lat="46.19767039075049" lon="13.096477476296263"><ele>166.0</ele><time>2026-05-01T07:28:06.999Z</time></trkpt><trkpt lat="46.19772477206187" lon="13.096209796396188"><ele>166.66666666666669</ele><time>2026-05-01T07:28:07.999Z</time></trkpt><trkpt lat="46.19777592252158" lon="13.09593990929956"><ele>167.33333333333334</ele><time>2026-05-01T07:28:08.999Z</time></trkpt><trkpt lat="46.197816705587606" lon="13.09565876603028"><ele>168.0</ele><time>2026-05-01T07:28:09.999Z</time></trkpt><trkpt lat="46.19783685944442" lon="13.095371567958606"><ele>168.0</ele><time>2026-05-01T07:28:10.999Z</time></trkpt><trkpt lat="46.197837522209" lon="13.09508063742125"><ele>168.0</ele><time>2026-05-01T07:28:11.999Z</time></trkpt><trkpt lat="46.19781925612348" lon="13.094786953740176"><ele>168.0</ele><time>2026-05-01T07:28:12.999Z</time></trkpt><trkpt lat="46.19778019253885" lon="13.094496305709242"><ele>167.0</ele><time>2026-05-01T07:28:13.999Z</time></trkpt><trkpt lat="46.197720987389204" lon="13.09420569728625"><ele>166.0</ele><time>2026-05-01T07:28:14.999Z</time></trkpt><trkpt lat="46.19764708586242" lon="13.09391564853086"><ele>165.0</ele><time>2026-05-01T07:28:15.999Z</time></trkpt><trkpt lat="46.19757513355684" lon="13.093619333917495"><ele>164.66666666666666</ele><time>2026-05-01T07:28:16.999Z</time></trkpt><trkpt lat="46.19750258971647" lon="13.09332360122074"><ele>164.33333333333331</ele><time>2026-05-01T07:28:17.999Z</time></trkpt><trkpt lat="46.197430199528874" lon="13.093031152906475"><ele>164.0</ele><time>2026-05-01T07:28:18.999Z</time></trkpt><trkpt lat="46.19736135584463" lon="13.092746226125792"><ele>164.33333333333331</ele><time>2026-05-01T07:28:19.999Z</time></trkpt><trkpt lat="46.19729832775221" lon="13.092479509753602"><ele>164.66666666666666</ele><time>2026-05-01T07:28:20.999Z</time></trkpt><trkpt lat="46.19724052417821" lon="13.092237409029732"><ele>165.0</ele><time>2026-05-01T07:28:21.999Z</time></trkpt><trkpt lat="46.197184380389366" lon="13.092005602936014"><ele>164.33333333333334</ele><time>2026-05-01T07:28:22.999Z</time></trkpt><trkpt lat="46.19712305819493" lon="13.09176385026987"><ele>163.66666666666669</ele><time>2026-05-01T07:28:24Z</time></trkpt><trkpt lat="46.19706361781945" lon="13.0915235158494"><ele>163.0</ele><time>2026-05-01T07:28:25Z</time></trkpt><trkpt lat="46.19700547151186" lon="13.091283816765733"><ele>163.0</ele><time>2026-05-01T07:28:26Z</time></trkpt><trkpt lat="46.19694692272636" lon="13.09104380300251"><ele>163.0</ele><time>2026-05-01T07:28:27Z</time></trkpt><trkpt lat="46.196888519831354" lon="13.090803364059497"><ele>163.0</ele><time>2026-05-01T07:28:28Z</time></trkpt><trkpt lat="46.19682906608355" lon="13.090566420503068"><ele>162.66666666666669</ele><time>2026-05-01T07:28:29Z</time></trkpt><trkpt lat="46.19677085704245" lon="13.09032797748097"><ele>162.33333333333334</ele><time>2026-05-01T07:28:30Z</time></trkpt><trkpt lat="46.19671400535911" lon="13.090089228864938"><ele>162.0</ele><time>2026-05-01T07:28:31Z</time></trkpt><trkpt lat="46.19665566681862" lon="13.089848203366186"><ele>162.0</ele><time>2026-05-01T07:28:32Z</time></trkpt><trkpt lat="46.196594617578825" lon="13.08960630889347"><ele>162.0</ele><time>2026-05-01T07:28:33Z</time></trkpt><trkpt lat="46.19653538231301" lon="13.089367762088415"><ele>162.0</ele><time>2026-05-01T07:28:34Z</time></trkpt><trkpt lat="46.196477550005426" lon="13.089137735343275"><ele>162.33333333333334</ele><time>2026-05-01T07:28:35Z</time></trkpt><trkpt lat="46.19642343014695" lon="13.088918489156255"><ele>162.66666666666669</ele><time>2026-05-01T07:28:36Z</time></trkpt><trkpt lat="46.19637044442302" lon="13.088703034851733"><ele>163.0</ele><time>2026-05-01T07:28:37Z</time></trkpt><trkpt lat="46.19631569567506" lon="13.088484706852013"><ele>163.0</ele><time>2026-05-01T07:28:38Z</time></trkpt><trkpt lat="46.19625943908347" lon="13.088266358075037"><ele>163.0</ele><time>2026-05-01T07:28:39Z</time></trkpt><trkpt lat="46.196192384230145" lon="13.088042759132328"><ele>163.0</ele><time>2026-05-01T07:28:40Z</time></trkpt><trkpt lat="46.19611080496096" lon="13.087817303529969"><ele>163.0</ele><time>2026-05-01T07:28:41Z</time></trkpt><trkpt lat="46.19601653576949" lon="13.08760063869281"><ele>163.0</ele><time>2026-05-01T07:28:42Z</time></trkpt><trkpt lat="46.195909295514674" lon="13.087397173339285"><ele>163.0</ele><time>2026-05-01T07:28:43Z</time></trkpt><trkpt lat="46.195797087701656" lon="13.087216254707807"><ele>163.5</ele><time>2026-05-01T07:28:44Z</time></trkpt><trkpt lat="46.195697059785815" lon="13.087058901628552"><ele>164.0</ele><time>2026-05-01T07:28:45Z</time></trkpt><trkpt lat="46.195607001396844" lon="13.086908302839387"><ele>164.5</ele><time>2026-05-01T07:28:46Z</time></trkpt><trkpt lat="46.195524477617596" lon="13.086749901016043"><ele>165.0</ele><time>2026-05-01T07:28:47Z</time></trkpt><trkpt lat="46.1954478901138" lon="13.08657853805952"><ele>165.25</ele><time>2026-05-01T07:28:48Z</time></trkpt><trkpt lat="46.19539029322568" lon="13.0863881418884"><ele>165.5</ele><time>2026-05-01T07:28:49Z</time></trkpt><trkpt lat="46.195355453366325" lon="13.086176995611723"><ele>165.75</ele><time>2026-05-01T07:28:50Z</time></trkpt><trkpt lat="46.195330235615394" lon="13.085955860538295"><ele>166.0</ele><time>2026-05-01T07:28:51Z</time></trkpt><trkpt lat="46.19530675900797" lon="13.085744419034482"><ele>166.25</ele><time>2026-05-01T07:28:52Z</time></trkpt><trkpt lat="46.19528599215465" lon="13.085546744434934"><ele>166.5</ele><time>2026-05-01T07:28:53Z</time></trkpt><trkpt lat="46.19526411901555" lon="13.0853646021099"><ele>166.75</ele><time>2026-05-01T07:28:54Z</time></trkpt><trkpt lat="46.195237536832" lon="13.085176239985543"><ele>167.0</ele><time>2026-05-01T07:28:55Z</time></trkpt><trkpt lat="46.19520515966862" lon="13.084982004762441"><ele>167.5</ele><time>2026-05-01T07:28:56Z</time></trkpt><trkpt lat="46.19516932028754" lon="13.084793127470121"><ele>168.0</ele><time>2026-05-01T07:28:57Z</time></trkpt><trkpt lat="46.19513248144456" lon="13.084608705860722"><ele>168.5</ele><time>2026-05-01T07:28:58Z</time></trkpt><trkpt lat="46.19509416076541" lon="13.084429440362255"><ele>169.0</ele><time>2026-05-01T07:28:59Z</time></trkpt><trkpt lat="46.19505219893991" lon="13.084255639775831"><ele>169.2</ele><time>2026-05-01T07:29:00Z</time></trkpt><trkpt lat="46.1950127910624" lon="13.084095784055917"><ele>169.39999999999998</ele><time>2026-05-01T07:29:01Z</time></trkpt><trkpt lat="46.19497649840188" lon="13.083944453897205"><ele>169.6</ele><time>2026-05-01T07:29:02Z</time></trkpt><trkpt lat="46.19494573369861" lon="13.083807014470322"><ele>169.8</ele><time>2026-05-01T07:29:03Z</time></trkpt><trkpt lat="46.194922440758646" lon="13.08367174943909"><ele>170.0</ele><time>2026-05-01T07:29:04Z</time></trkpt><trkpt lat="46.1949032023759" lon="13.083532930180235"><ele>170.0</ele><time>2026-05-01T07:29:05Z</time></trkpt><trkpt lat="46.19488655671863" lon="13.083388636410792"><ele>170.0</ele><time>2026-05-01T07:29:06Z</time></trkpt><trkpt lat="46.19486788517975" lon="13.083237901188317"><ele>170.0</ele><time>2026-05-01T07:29:07Z</time></trkpt><trkpt lat="46.19485195091632" lon="13.083089523086047"><ele>170.0</ele><time>2026-05-01T07:29:08Z</time></trkpt><trkpt lat="46.19483518647509" lon="13.082948592752496"><ele>170.0</ele><time>2026-05-01T07:29:09Z</time></trkpt><trkpt lat="46.19481986582184" lon="13.082805294646366"><ele>170.0</ele><time>2026-05-01T07:29:10Z</time></trkpt><trkpt lat="46.19480420259933" lon="13.082658730503642"><ele>170.0</ele><time>2026-05-01T07:29:11Z</time></trkpt><trkpt lat="46.1947806725348" lon="13.08251011113095"><ele>170.0</ele><time>2026-05-01T07:29:12Z</time></trkpt><trkpt lat="46.194728453925016" lon="13.082366015998495"><ele>170.0</ele><time>2026-05-01T07:29:13Z</time></trkpt><trkpt lat="46.19463805089034" lon="13.08224105692261"><ele>170.0</ele><time>2026-05-01T07:29:14Z</time></trkpt><trkpt lat="46.19453968643327" lon="13.08212861580272"><ele>170.0</ele><time>2026-05-01T07:29:15Z</time></trkpt><trkpt lat="46.194452982356616" lon="13.082033762301934"><ele>170.0</ele><time>2026-05-01T07:29:16Z</time></trkpt><trkpt lat="46.19437463517107" lon="13.081950617653453"><ele>170.0</ele><time>2026-05-01T07:29:17Z</time></trkpt><trkpt lat="46.19429821980945" lon="13.081867718976472"><ele>170.0</ele><time>2026-05-01T07:29:18Z</time></trkpt><trkpt lat="46.19422231822178" lon="13.081775051135013"><ele>170.0</ele><time>2026-05-01T07:29:19Z</time></trkpt><trkpt lat="46.194153944006885" lon="13.081665146390721"><ele>170.0</ele><time>2026-05-01T07:29:20Z</time></trkpt><trkpt lat="46.194089097641395" lon="13.081539980872686"><ele>170.0</ele><time>2026-05-01T07:29:21Z</time></trkpt><trkpt lat="46.19402566388367" lon="13.08140379434466"><ele>170.0</ele><time>2026-05-01T07:29:22Z</time></trkpt><trkpt lat="46.19395899148832" lon="13.081254291669778"><ele>170.0</ele><time>2026-05-01T07:29:23Z</time></trkpt><trkpt lat="46.19389444437986" lon="13.081107419559755"><ele>169.0</ele><time>2026-05-01T07:29:24Z</time></trkpt><trkpt lat="46.19383209064016" lon="13.080968954342032"><ele>168.0</ele><time>2026-05-01T07:29:25Z</time></trkpt><trkpt lat="46.193769951995776" lon="13.080827356958613"><ele>167.0</ele><time>2026-05-01T07:29:26Z</time></trkpt><trkpt lat="46.19371321517837" lon="13.080673972412633"><ele>166.0</ele><time>2026-05-01T07:29:27Z</time></trkpt><trkpt lat="46.193664478818135" lon="13.080509182418284"><ele>166.0</ele><time>2026-05-01T07:29:28Z</time></trkpt><trkpt lat="46.19362155657693" lon="13.080337845793984"><ele>166.0</ele><time>2026-05-01T07:29:29Z</time></trkpt><trkpt lat="46.1935755497969" lon="13.080159335340246"><ele>166.0</ele><time>2026-05-01T07:29:30Z</time></trkpt><trkpt lat="46.19354358076141" lon="13.079962373699207"><ele>166.0</ele><time>2026-05-01T07:29:31Z</time></trkpt><trkpt lat="46.193493134067175" lon="13.079759073823832"><ele>166.33333333333334</ele><time>2026-05-01T07:29:32Z</time></trkpt><trkpt lat="46.193440746412534" lon="13.079547952288214"><ele>166.66666666666666</ele><time>2026-05-01T07:29:33Z</time></trkpt><trkpt lat="46.193386817273485" lon="13.079330617405066"><ele>167.0</ele><time>2026-05-01T07:29:34Z</time></trkpt><trkpt lat="46.19332013309389" lon="13.079113841962284"><ele>167.66666666666666</ele><time>2026-05-01T07:29:35Z</time></trkpt><trkpt lat="46.19326750420958" lon="13.078887052398722"><ele>168.33333333333334</ele><time>2026-05-01T07:29:36Z</time></trkpt><trkpt lat="46.193214434467485" lon="13.07866681778195"><ele>169.0</ele><time>2026-05-01T07:29:37Z</time></trkpt><trkpt lat="46.193163196292375" lon="13.078459791282645"><ele>168.75</ele><time>2026-05-01T07:29:38Z</time></trkpt><trkpt lat="46.193113150196695" lon="13.07825670189739"><ele>168.5</ele><time>2026-05-01T07:29:39Z</time></trkpt><trkpt lat="46.19306392235292" lon="13.078059641852695"><ele>168.25</ele><time>2026-05-01T07:29:40Z</time></trkpt><trkpt lat="46.19301192733491" lon="13.077867343180023"><ele>168.0</ele><time>2026-05-01T07:29:41Z</time></trkpt><trkpt lat="46.192961717242156" lon="13.077674851711235"><ele>168.0</ele><time>2026-05-01T07:29:42Z</time></trkpt><trkpt lat="46.1929126994314" lon="13.077481202984591"><ele>168.0</ele><time>2026-05-01T07:29:43Z</time></trkpt><trkpt lat="46.1928601612615" lon="13.077284370515466"><ele>168.0</ele><time>2026-05-01T07:29:44Z</time></trkpt><trkpt lat="46.192800014327105" lon="13.077085937924581"><ele>168.0</ele><time>2026-05-01T07:29:45Z</time></trkpt><trkpt lat="46.1927316638084" lon="13.07688806869391"><ele>167.66666666666666</ele><time>2026-05-01T07:29:46Z</time></trkpt><trkpt lat="46.19266403733628" lon="13.076687252752743"><ele>167.33333333333331</ele><time>2026-05-01T07:29:47Z</time></trkpt><trkpt lat="46.19260296184995" lon="13.076473866097018"><ele>167.0</ele><time>2026-05-01T07:29:48Z</time></trkpt><trkpt lat="46.192560953151606" lon="13.076248225975815"><ele>167.0</ele><time>2026-05-01T07:29:49Z</time></trkpt><trkpt lat="46.192538136640074" lon="13.076016109793219"><ele>167.0</ele><time>2026-05-01T07:29:50Z</time></trkpt><trkpt lat="46.19251708571539" lon="13.0757811916324"><ele>167.0</ele><time>2026-05-01T07:29:51Z</time></trkpt><trkpt lat="46.19249746199987" lon="13.075548878433235"><ele>168.0</ele><time>2026-05-01T07:29:52Z</time></trkpt><trkpt lat="46.192480151204" lon="13.075324078198797"><ele>169.0</ele><time>2026-05-01T07:29:53Z</time></trkpt><trkpt lat="46.19246352504437" lon="13.075108340482311"><ele>170.0</ele><time>2026-05-01T07:29:54Z</time></trkpt><trkpt lat="46.19244676585046" lon="13.074898324065058"><ele>170.25</ele><time>2026-05-01T07:29:54.999Z</time></trkpt><trkpt lat="46.192429144694124" lon="13.074690941818735"><ele>170.5</ele><time>2026-05-01T07:29:55.999Z</time></trkpt><trkpt lat="46.19241010996453" lon="13.074486573685434"><ele>170.75</ele><time>2026-05-01T07:29:56.999Z</time></trkpt><trkpt lat="46.192385900237646" lon="13.074283415517069"><ele>171.0</ele><time>2026-05-01T07:29:57.999Z</time></trkpt><trkpt lat="46.192350143236965" lon="13.074079530910105"><ele>171.25</ele><time>2026-05-01T07:29:58.999Z</time></trkpt><trkpt lat="46.19229795065304" lon="13.073883127334122"><ele>171.5</ele><time>2026-05-01T07:29:59.999Z</time></trkpt><trkpt lat="46.192230278726164" lon="13.073699870296608"><ele>171.75</ele><time>2026-05-01T07:30:00.999Z</time></trkpt><trkpt lat="46.19215042222458" lon="13.073522346655485"><ele>172.0</ele><time>2026-05-01T07:30:01.999Z</time></trkpt><trkpt lat="46.192076857333305" lon="13.073372235878649"><ele>171.8</ele><time>2026-05-01T07:30:02.999Z</time></trkpt><trkpt lat="46.19200766577673" lon="13.073228123697785"><ele>171.6</ele><time>2026-05-01T07:30:03.999Z</time></trkpt><trkpt lat="46.19194467447196" lon="13.073092152090537"><ele>171.4</ele><time>2026-05-01T07:30:04.999Z</time></trkpt><trkpt lat="46.19189135010083" lon="13.072980659879734"><ele>171.20000000000002</ele><time>2026-05-01T07:30:05.999Z</time></trkpt><trkpt lat="46.191832400445215" lon="13.072867674178676"><ele>171.0</ele><time>2026-05-01T07:30:06.999Z</time></trkpt><trkpt lat="46.19176178473197" lon="13.072737174079059"><ele>171.0</ele><time>2026-05-01T07:30:07.999Z</time></trkpt><trkpt lat="46.19168310988914" lon="13.072606682830013"><ele>171.0</ele><time>2026-05-01T07:30:08.999Z</time></trkpt><trkpt lat="46.19159939451813" lon="13.072477252547719"><ele>171.0</ele><time>2026-05-01T07:30:09.999Z</time></trkpt><trkpt lat="46.191511741258246" lon="13.07234227405096"><ele>171.0</ele><time>2026-05-01T07:30:10.999Z</time></trkpt><trkpt lat="46.1914178978451" lon="13.072206771850293"><ele>170.66666666666666</ele><time>2026-05-01T07:30:11.999Z</time></trkpt><trkpt lat="46.1913178204487" lon="13.072064059947389"><ele>170.33333333333331</ele><time>2026-05-01T07:30:12.999Z</time></trkpt><trkpt lat="46.19120860263278" lon="13.071901976330674"><ele>170.0</ele><time>2026-05-01T07:30:13.999Z</time></trkpt><trkpt lat="46.191093898787855" lon="13.07173731951434"><ele>169.66666666666666</ele><time>2026-05-01T07:30:14.999Z</time></trkpt><trkpt lat="46.190983078943994" lon="13.07157826691751"><ele>169.33333333333334</ele><time>2026-05-01T07:30:15.999Z</time></trkpt><trkpt lat="46.190875192600274" lon="13.071418441523154"><ele>169.0</ele><time>2026-05-01T07:30:16.999Z</time></trkpt><trkpt lat="46.190770179101655" lon="13.071260585138663"><ele>169.25</ele><time>2026-05-01T07:30:17.999Z</time></trkpt><trkpt lat="46.19066951666197" lon="13.071106443551317"><ele>169.5</ele><time>2026-05-01T07:30:18.999Z</time></trkpt><trkpt lat="46.19057149484991" lon="13.07095583814616"><ele>169.75</ele><time>2026-05-01T07:30:19.999Z</time></trkpt><trkpt lat="46.19047419552284" lon="13.070806463801373"><ele>170.0</ele><time>2026-05-01T07:30:20.999Z</time></trkpt><trkpt lat="46.190375759003466" lon="13.070658141759907"><ele>170.0</ele><time>2026-05-01T07:30:21.999Z</time></trkpt><trkpt lat="46.19027947949336" lon="13.070513132125805"><ele>170.0</ele><time>2026-05-01T07:30:22.999Z</time></trkpt><trkpt lat="46.19018521720675" lon="13.070374455491754"><ele>170.0</ele><time>2026-05-01T07:30:23.999Z</time></trkpt><trkpt lat="46.190096469638355" lon="13.070242074233471"><ele>170.0</ele><time>2026-05-01T07:30:24.999Z</time></trkpt><trkpt lat="46.19001217381108" lon="13.070117075024898"><ele>170.0</ele><time>2026-05-01T07:30:25.999Z</time></trkpt><trkpt lat="46.18993438447858" lon="13.070002393131729"><ele>170.0</ele><time>2026-05-01T07:30:26.999Z</time></trkpt><trkpt lat="46.18985461162423" lon="13.06988418294319"><ele>170.0</ele><time>2026-05-01T07:30:27.999Z</time></trkpt><trkpt lat="46.18977954681977" lon="13.069771040958189"><ele>170.0</ele><time>2026-05-01T07:30:28.999Z</time></trkpt><trkpt lat="46.189713489086806" lon="13.069671485083285"><ele>170.0</ele><time>2026-05-01T07:30:30Z</time></trkpt><trkpt lat="46.18965043214141" lon="13.069577940988008"><ele>170.33333333333331</ele><time>2026-05-01T07:30:31Z</time></trkpt><trkpt lat="46.18959031050571" lon="13.069487512095973"><ele>170.66666666666666</ele><time>2026-05-01T07:30:32Z</time></trkpt><trkpt lat="46.189531353035775" lon="13.06939779520744"><ele>171.0</ele><time>2026-05-01T07:30:33Z</time></trkpt><trkpt lat="46.18947420079543" lon="13.069311522066108"><ele>171.33333333333334</ele><time>2026-05-01T07:30:34Z</time></trkpt><trkpt lat="46.18941586070796" lon="13.06922425065812"><ele>171.66666666666669</ele><time>2026-05-01T07:30:35Z</time></trkpt><trkpt lat="46.189360027581706" lon="13.069138546823595"><ele>172.0</ele><time>2026-05-01T07:30:36Z</time></trkpt><trkpt lat="46.189305947723604" lon="13.069049937313817"><ele>172.0</ele><time>2026-05-01T07:30:37Z</time></trkpt><trkpt lat="46.189257775028736" lon="13.06894704606074"><ele>172.0</ele><time>2026-05-01T07:30:38Z</time></trkpt><trkpt lat="46.189224587445466" lon="13.068818360544629"><ele>172.0</ele><time>2026-05-01T07:30:39Z</time></trkpt><trkpt lat="46.189161226827785" lon="13.068706700637462"><ele>172.0</ele><time>2026-05-01T07:30:40Z</time></trkpt><trkpt lat="46.18906060310241" lon="13.068582463219332"><ele>172.0</ele><time>2026-05-01T07:30:41Z</time></trkpt><trkpt lat="46.18897671487771" lon="13.068468100730962"><ele>172.39999999999998</ele><time>2026-05-01T07:30:42Z</time></trkpt><trkpt lat="46.18891405393797" lon="13.068342561110239"><ele>172.79999999999998</ele><time>2026-05-01T07:30:43Z</time></trkpt><trkpt lat="46.18885049428748" lon="13.068215941013552"><ele>173.2</ele><time>2026-05-01T07:30:44Z</time></trkpt><trkpt lat="46.188792748384046" lon="13.068081466657496"><ele>173.6</ele><time>2026-05-01T07:30:45Z</time></trkpt><trkpt lat="46.188749811527266" lon="13.067945915850919"><ele>174.0</ele><time>2026-05-01T07:30:46Z</time></trkpt><trkpt lat="46.18871464380733" lon="13.067816158633013"><ele>173.6</ele><time>2026-05-01T07:30:47Z</time></trkpt><trkpt lat="46.18867921474481" lon="13.067678341630602"><ele>173.2</ele><time>2026-05-01T07:30:48Z</time></trkpt><trkpt lat="46.188644455568294" lon="13.067540291828198"><ele>172.79999999999998</ele><time>2026-05-01T07:30:49Z</time></trkpt><trkpt lat="46.18861062311187" lon="13.067411630440523"><ele>172.39999999999998</ele><time>2026-05-01T07:30:50Z</time></trkpt><trkpt lat="46.188580739300505" lon="13.067298004854354"><ele>172.0</ele><time>2026-05-01T07:30:51Z</time></trkpt><trkpt lat="46.1885468375491" lon="13.067172693624702"><ele>172.0</ele><time>2026-05-01T07:30:52Z</time></trkpt><trkpt lat="46.18850887798919" lon="13.067028792482274"><ele>172.0</ele><time>2026-05-01T07:30:53Z</time></trkpt><trkpt lat="46.188446623404786" lon="13.066879677786098"><ele>172.0</ele><time>2026-05-01T07:30:54Z</time></trkpt><trkpt lat="46.18843216915492" lon="13.066669838843444"><ele>172.0</ele><time>2026-05-01T07:30:55Z</time></trkpt><trkpt lat="46.18839821139632" lon="13.066478290777479"><ele>171.5</ele><time>2026-05-01T07:30:56Z</time></trkpt><trkpt lat="46.18836353244999" lon="13.06626417679791"><ele>171.0</ele><time>2026-05-01T07:30:57Z</time></trkpt><trkpt lat="46.188335224770185" lon="13.066052991809446"><ele>170.5</ele><time>2026-05-01T07:30:58Z</time></trkpt><trkpt lat="46.18830392877419" lon="13.065847428117243"><ele>170.0</ele><time>2026-05-01T07:30:59Z</time></trkpt><trkpt lat="46.188269976047394" lon="13.065649682041053"><ele>170.0</ele><time>2026-05-01T07:31:00Z</time></trkpt><trkpt lat="46.1882332757515" lon="13.065459164764512"><ele>170.0</ele><time>2026-05-01T07:31:01Z</time></trkpt><trkpt lat="46.188198500278304" lon="13.065279868790203"><ele>170.0</ele><time>2026-05-01T07:31:02Z</time></trkpt><trkpt lat="46.188160511832514" lon="13.065098984668325"><ele>170.0</ele><time>2026-05-01T07:31:03Z</time></trkpt><trkpt lat="46.18812682974183" lon="13.064915358903637"><ele>171.0</ele><time>2026-05-01T07:31:04Z</time></trkpt><trkpt lat="46.1880894893982" lon="13.06472773879499"><ele>172.0</ele><time>2026-05-01T07:31:05Z</time></trkpt><trkpt lat="46.18805350708554" lon="13.064549451566418"><ele>173.0</ele><time>2026-05-01T07:31:06Z</time></trkpt><trkpt lat="46.188020891599535" lon="13.064378183857773"><ele>174.0</ele><time>2026-05-01T07:31:07Z</time></trkpt><trkpt lat="46.18799149330376" lon="13.06422078002463"><ele>173.79999999999998</ele><time>2026-05-01T07:31:08Z</time></trkpt><trkpt lat="46.18796005385124" lon="13.064064552065888"><ele>173.6</ele><time>2026-05-01T07:31:09Z</time></trkpt><trkpt lat="46.187932704780096" lon="13.06392216378872"><ele>173.4</ele><time>2026-05-01T07:31:10Z</time></trkpt><trkpt lat="46.18790902652471" lon="13.06379352498328"><ele>173.2</ele><time>2026-05-01T07:31:11Z</time></trkpt><trkpt lat="46.18787987358731" lon="13.063649145524323"><ele>173.0</ele><time>2026-05-01T07:31:12Z</time></trkpt><trkpt lat="46.187847346270566" lon="13.063489070951913"><ele>173.0</ele><time>2026-05-01T07:31:13Z</time></trkpt><trkpt lat="46.18781342348258" lon="13.063320456296273"><ele>173.0</ele><time>2026-05-01T07:31:14Z</time></trkpt><trkpt lat="46.18777856958089" lon="13.06315101573953"><ele>173.0</ele><time>2026-05-01T07:31:15Z</time></trkpt><trkpt lat="46.18774351446115" lon="13.062976651819236"><ele>173.0</ele><time>2026-05-01T07:31:16Z</time></trkpt><trkpt lat="46.18770645469029" lon="13.062783069260206"><ele>171.66666666666666</ele><time>2026-05-01T07:31:17Z</time></trkpt><trkpt lat="46.18766738593003" lon="13.062582832871396"><ele>170.33333333333334</ele><time>2026-05-01T07:31:18Z</time></trkpt><trkpt lat="46.187626393975044" lon="13.062375474681383"><ele>169.0</ele><time>2026-05-01T07:31:19Z</time></trkpt><trkpt lat="46.18758276977622" lon="13.062158705798383"><ele>168.66666666666669</ele><time>2026-05-01T07:31:20Z</time></trkpt><trkpt lat="46.18753974033838" lon="13.061934518872945"><ele>168.33333333333334</ele><time>2026-05-01T07:31:21Z</time></trkpt><trkpt lat="46.18749646902574" lon="13.061709488653902"><ele>168.0</ele><time>2026-05-01T07:31:22Z</time></trkpt><trkpt lat="46.18745447077066" lon="13.061495637623835"><ele>168.0</ele><time>2026-05-01T07:31:23Z</time></trkpt><trkpt lat="46.18741210754797" lon="13.061290615391249"><ele>168.0</ele><time>2026-05-01T07:31:24Z</time></trkpt><trkpt lat="46.187369199779035" lon="13.061105721323845"><ele>168.0</ele><time>2026-05-01T07:31:25Z</time></trkpt><trkpt lat="46.187328356604304" lon="13.0609503646679"><ele>168.0</ele><time>2026-05-01T07:31:26Z</time></trkpt><trkpt lat="46.18729289425539" lon="13.060821921227214"><ele>167.66666666666666</ele><time>2026-05-01T07:31:27Z</time></trkpt><trkpt lat="46.187265311764406" lon="13.0607249141729"><ele>167.33333333333334</ele><time>2026-05-01T07:31:28Z</time></trkpt><trkpt lat="46.18723517687081" lon="13.060631810232206"><ele>167.0</ele><time>2026-05-01T07:31:29Z</time></trkpt><trkpt lat="46.187199747212055" lon="13.0605370391274"><ele>166.66666666666669</ele><time>2026-05-01T07:31:30Z</time></trkpt><trkpt lat="46.1871565726505" lon="13.06045080454056"><ele>166.33333333333334</ele><time>2026-05-01T07:31:31Z</time></trkpt><trkpt lat="46.18703528337363" lon="13.060367092807248"><ele>166.0</ele><time>2026-05-01T07:31:33Z</time></trkpt><trkpt lat="46.18695462637044" lon="13.060372205885367"><ele>166.0</ele><time>2026-05-01T07:31:34Z</time></trkpt><trkpt lat="46.186856633048244" lon="13.060381691220515"><ele>166.0</ele><time>2026-05-01T07:31:35Z</time></trkpt><trkpt lat="46.18674594317225" lon="13.060374948071017"><ele>166.0</ele><time>2026-05-01T07:31:36Z</time></trkpt><trkpt lat="46.18664050939477" lon="13.060361354855734"><ele>166.0</ele><time>2026-05-01T07:31:37Z</time></trkpt><trkpt lat="46.18653033790592" lon="13.060337121532"><ele>166.0</ele><time>2026-05-01T07:31:38Z</time></trkpt><trkpt lat="46.18641971890114" lon="13.060306206687054"><ele>166.4</ele><time>2026-05-01T07:31:39Z</time></trkpt><trkpt lat="46.186322101619204" lon="13.060279566305372"><ele>166.8</ele><time>2026-05-01T07:31:40Z</time></trkpt><trkpt lat="46.18622675265965" lon="13.06025237756735"><ele>167.20000000000002</ele><time>2026-05-01T07:31:41Z</time></trkpt><trkpt lat="46.18613330290758" lon="13.060223199100811"><ele>167.60000000000002</ele><time>2026-05-01T07:31:42Z</time></trkpt><trkpt lat="46.18604357820509" lon="13.060196535913798"><ele>168.0</ele><time>2026-05-01T07:31:43Z</time></trkpt><trkpt lat="46.185964320583025" lon="13.060170910709312"><ele>168.0</ele><time>2026-05-01T07:31:44Z</time></trkpt><trkpt lat="46.18589251729992" lon="13.06014503300816"><ele>168.0</ele><time>2026-05-01T07:31:45Z</time></trkpt><trkpt lat="46.18579001386348" lon="13.060091597832693"><ele>168.0</ele><time>2026-05-01T07:31:47Z</time></trkpt><trkpt lat="46.1857302793275" lon="13.060037414171887"><ele>168.0</ele><time>2026-05-01T07:31:49Z</time></trkpt><trkpt lat="46.18567171582043" lon="13.059931892946455"><ele>168.0</ele><time>2026-05-01T07:32:03.999Z</time></trkpt><trkpt lat="46.18566739625301" lon="13.059739700787528"><ele>168.0</ele><time>2026-05-01T07:32:05.999Z</time></trkpt><trkpt lat="46.185688080482734" lon="13.059602134414607"><ele>168.0</ele><time>2026-05-01T07:32:06.999Z</time></trkpt><trkpt lat="46.18570987292036" lon="13.059456191224966"><ele>168.0</ele><time>2026-05-01T07:32:07.999Z</time></trkpt><trkpt lat="46.18573216774037" lon="13.059312586524017"><ele>168.0</ele><time>2026-05-01T07:32:08.999Z</time></trkpt><trkpt lat="46.18575484377089" lon="13.059179779541887"><ele>168.0</ele><time>2026-05-01T07:32:09.999Z</time></trkpt><trkpt lat="46.185775690583505" lon="13.05905264883769"><ele>168.0</ele><time>2026-05-01T07:32:10.999Z</time></trkpt><trkpt lat="46.185796196893975" lon="13.058912556896795"><ele>168.0</ele><time>2026-05-01T07:32:11.999Z</time></trkpt><trkpt lat="46.18581659545461" lon="13.058763144998867"><ele>168.0</ele><time>2026-05-01T07:32:12.999Z</time></trkpt><trkpt lat="46.18584321497148" lon="13.058603208304998"><ele>168.0</ele><time>2026-05-01T07:32:13.999Z</time></trkpt><trkpt lat="46.185869435209035" lon="13.058435794941317"><ele>168.0</ele><time>2026-05-01T07:32:14.999Z</time></trkpt><trkpt lat="46.18589573206327" lon="13.05827060294239"><ele>167.75</ele><time>2026-05-01T07:32:15.999Z</time></trkpt><trkpt lat="46.185920465972515" lon="13.058099404890344"><ele>167.5</ele><time>2026-05-01T07:32:16.999Z</time></trkpt><trkpt lat="46.18594739460522" lon="13.05791469163561"><ele>167.25</ele><time>2026-05-01T07:32:17.999Z</time></trkpt><trkpt lat="46.1859770126551" lon="13.057719203329892"><ele>167.0</ele><time>2026-05-01T07:32:18.999Z</time></trkpt><trkpt lat="46.18600533309839" lon="13.05752827299246"><ele>166.75</ele><time>2026-05-01T07:32:19.999Z</time></trkpt><trkpt lat="46.1860297537371" lon="13.05736039804798"><ele>166.5</ele><time>2026-05-01T07:32:20.999Z</time></trkpt><trkpt lat="46.18605467831727" lon="13.057192410013217"><ele>166.25</ele><time>2026-05-01T07:32:21.999Z</time></trkpt><trkpt lat="46.18607952175556" lon="13.057023790575881"><ele>166.0</ele><time>2026-05-01T07:32:22.999Z</time></trkpt><trkpt lat="46.186105842714674" lon="13.056848039664082"><ele>166.0</ele><time>2026-05-01T07:32:23.999Z</time></trkpt><trkpt lat="46.18613315328929" lon="13.056668329131494"><ele>166.0</ele><time>2026-05-01T07:32:24.999Z</time></trkpt><trkpt lat="46.186158665088094" lon="13.056484122813481"><ele>166.0</ele><time>2026-05-01T07:32:25.999Z</time></trkpt><trkpt lat="46.18618415330906" lon="13.056295201274308"><ele>166.0</ele><time>2026-05-01T07:32:26.999Z</time></trkpt><trkpt lat="46.18620755038629" lon="13.05609565103441"><ele>166.25</ele><time>2026-05-01T07:32:27.999Z</time></trkpt><trkpt lat="46.186234882492066" lon="13.055890578105734"><ele>166.5</ele><time>2026-05-01T07:32:28.999Z</time></trkpt><trkpt lat="46.186274737309276" lon="13.055679576661175"><ele>166.75</ele><time>2026-05-01T07:32:29.999Z</time></trkpt><trkpt lat="46.18630723616406" lon="13.055463677108927"><ele>167.0</ele><time>2026-05-01T07:32:30.999Z</time></trkpt><trkpt lat="46.186334864762756" lon="13.055253474135013"><ele>167.5</ele><time>2026-05-01T07:32:31.999Z</time></trkpt><trkpt lat="46.18636534380923" lon="13.055062276066412"><ele>168.0</ele><time>2026-05-01T07:32:32.999Z</time></trkpt><trkpt lat="46.186387596113384" lon="13.05489300396648"><ele>168.5</ele><time>2026-05-01T07:32:33.999Z</time></trkpt><trkpt lat="46.18640346269318" lon="13.054731908559885"><ele>169.0</ele><time>2026-05-01T07:32:34.999Z</time></trkpt><trkpt lat="46.18641033607069" lon="13.054582605471328"><ele>169.16666666666669</ele><time>2026-05-01T07:32:36Z</time></trkpt><trkpt lat="46.18640629090619" lon="13.054446731203699"><ele>169.33333333333334</ele><time>2026-05-01T07:32:37Z</time></trkpt><trkpt lat="46.18641109068954" lon="13.054327127508992"><ele>169.5</ele><time>2026-05-01T07:32:38Z</time></trkpt><trkpt lat="46.18644344416473" lon="13.054229335570902"><ele>169.66666666666666</ele><time>2026-05-01T07:32:39Z</time></trkpt><trkpt lat="46.186459106340465" lon="13.054131151581448"><ele>169.83333333333331</ele><time>2026-05-01T07:32:40Z</time></trkpt><trkpt lat="46.186519129828866" lon="13.054058799043979"><ele>170.0</ele><time>2026-05-01T07:32:41Z</time></trkpt><trkpt lat="46.186522800373254" lon="13.053958453776948"><ele>170.2</ele><time>2026-05-01T07:32:42Z</time></trkpt><trkpt lat="46.186435677091524" lon="13.053820073830213"><ele>170.4</ele><time>2026-05-01T07:32:44Z</time></trkpt><trkpt lat="46.18636567269178" lon="13.05380509461443"><ele>170.60000000000002</ele><time>2026-05-01T07:32:45Z</time></trkpt><trkpt lat="46.18624723107365" lon="13.053805467217455"><ele>170.8</ele><time>2026-05-01T07:32:47Z</time></trkpt><trkpt lat="46.18618441930059" lon="13.053791183238355"><ele>171.0</ele><time>2026-05-01T07:32:48Z</time></trkpt><trkpt lat="46.18611384039103" lon="13.05375589114785"><ele>171.0</ele><time>2026-05-01T07:32:49Z</time></trkpt><trkpt lat="46.1860322065682" lon="13.05371300997152"><ele>171.0</ele><time>2026-05-01T07:32:50Z</time></trkpt><trkpt lat="46.18594453860773" lon="13.05367136405639"><ele>171.0</ele><time>2026-05-01T07:32:51Z</time></trkpt><trkpt lat="46.1858504629757" lon="13.053616435307092"><ele>171.0</ele><time>2026-05-01T07:32:52Z</time></trkpt><trkpt lat="46.18574939420558" lon="13.05355828470023"><ele>171.0</ele><time>2026-05-01T07:32:53Z</time></trkpt><trkpt lat="46.18564600954596" lon="13.053487099324533"><ele>170.8</ele><time>2026-05-01T07:32:54Z</time></trkpt><trkpt lat="46.18555325177005" lon="13.053415182505045"><ele>170.60000000000002</ele><time>2026-05-01T07:32:55Z</time></trkpt><trkpt lat="46.18545959075767" lon="13.053354694300946"><ele>170.4</ele><time>2026-05-01T07:32:56Z</time></trkpt><trkpt lat="46.18536341355221" lon="13.053294955141748"><ele>170.2</ele><time>2026-05-01T07:32:57Z</time></trkpt><trkpt lat="46.18526485961305" lon="13.053232388243591"><ele>170.0</ele><time>2026-05-01T07:32:58Z</time></trkpt><trkpt lat="46.185158728205785" lon="13.053164126548284"><ele>169.75</ele><time>2026-05-01T07:32:59Z</time></trkpt><trkpt lat="46.18503866946441" lon="13.053091070533494"><ele>169.5</ele><time>2026-05-01T07:33:00Z</time></trkpt><trkpt lat="46.18490593616034" lon="13.05300648089548"><ele>169.25</ele><time>2026-05-01T07:33:01Z</time></trkpt><trkpt lat="46.18476884159076" lon="13.052918312762836"><ele>169.0</ele><time>2026-05-01T07:33:02Z</time></trkpt><trkpt lat="46.18463392335987" lon="13.052833751417722"><ele>169.0</ele><time>2026-05-01T07:33:03Z</time></trkpt><trkpt lat="46.184498446082145" lon="13.052742441425908"><ele>169.0</ele><time>2026-05-01T07:33:04Z</time></trkpt><trkpt lat="46.184364412872064" lon="13.052649527194655"><ele>169.0</ele><time>2026-05-01T07:33:05Z</time></trkpt><trkpt lat="46.18423670613589" lon="13.052558109741073"><ele>169.0</ele><time>2026-05-01T07:33:06Z</time></trkpt><trkpt lat="46.18411251857508" lon="13.052466987651279"><ele>170.0</ele><time>2026-05-01T07:33:07Z</time></trkpt><trkpt lat="46.183988969573676" lon="13.052372742252327"><ele>171.0</ele><time>2026-05-01T07:33:08Z</time></trkpt><trkpt lat="46.18386380730083" lon="13.052270128142537"><ele>172.0</ele><time>2026-05-01T07:33:09Z</time></trkpt><trkpt lat="46.183746800524936" lon="13.052163727971946"><ele>173.0</ele><time>2026-05-01T07:33:10Z</time></trkpt><trkpt lat="46.183633037402416" lon="13.052053756679216"><ele>173.0</ele><time>2026-05-01T07:33:11Z</time></trkpt><trkpt lat="46.183516443652245" lon="13.051949963474424"><ele>173.0</ele><time>2026-05-01T07:33:12Z</time></trkpt><trkpt lat="46.18340658538974" lon="13.051846460752149"><ele>173.0</ele><time>2026-05-01T07:33:13Z</time></trkpt><trkpt lat="46.183303218506744" lon="13.05174936634418"><ele>173.0</ele><time>2026-05-01T07:33:14Z</time></trkpt><trkpt lat="46.18321492257879" lon="13.05166580690514"><ele>173.25</ele><time>2026-05-01T07:33:15Z</time></trkpt><trkpt lat="46.183115673488" lon="13.051558801164072"><ele>173.5</ele><time>2026-05-01T07:33:16Z</time></trkpt><trkpt lat="46.18302423212724" lon="13.05143052861476"><ele>173.75</ele><time>2026-05-01T07:33:17Z</time></trkpt><trkpt lat="46.182939543700364" lon="13.051285219540189"><ele>174.0</ele><time>2026-05-01T07:33:18Z</time></trkpt><trkpt lat="46.18285821697436" lon="13.051119443717772"><ele>174.0</ele><time>2026-05-01T07:33:19Z</time></trkpt><trkpt lat="46.18278700660174" lon="13.050940793051623"><ele>174.0</ele><time>2026-05-01T07:33:20Z</time></trkpt><trkpt lat="46.182714566994264" lon="13.050751259283333"><ele>174.0</ele><time>2026-05-01T07:33:21Z</time></trkpt><trkpt lat="46.18263077591541" lon="13.050569029057584"><ele>174.0</ele><time>2026-05-01T07:33:22Z</time></trkpt><trkpt lat="46.18254035391522" lon="13.050401730491112"><ele>174.75</ele><time>2026-05-01T07:33:23Z</time></trkpt><trkpt lat="46.182446672912704" lon="13.050245485453496"><ele>175.5</ele><time>2026-05-01T07:33:24Z</time></trkpt><trkpt lat="46.18235277177249" lon="13.050090334888617"><ele>176.25</ele><time>2026-05-01T07:33:25Z</time></trkpt><trkpt lat="46.182274115564425" lon="13.049933008551909"><ele>177.0</ele><time>2026-05-01T07:33:26Z</time></trkpt><trkpt lat="46.18221905416167" lon="13.04976015115763"><ele>176.33333333333334</ele><time>2026-05-01T07:33:27Z</time></trkpt><trkpt lat="46.18217903229169" lon="13.049548762472423"><ele>175.66666666666669</ele><time>2026-05-01T07:33:28Z</time></trkpt><trkpt lat="46.18214942228883" lon="13.049323152305899"><ele>175.0</ele><time>2026-05-01T07:33:29Z</time></trkpt><trkpt lat="46.18212634084206" lon="13.049091065487056"><ele>175.0</ele><time>2026-05-01T07:33:30Z</time></trkpt><trkpt lat="46.182081638222776" lon="13.048862861063133"><ele>175.0</ele><time>2026-05-01T07:33:31Z</time></trkpt><trkpt lat="46.18201392478732" lon="13.048650262912801"><ele>175.0</ele><time>2026-05-01T07:33:32Z</time></trkpt><trkpt lat="46.18192859505559" lon="13.048442491415067"><ele>177.33333333333334</ele><time>2026-05-01T07:33:33Z</time></trkpt><trkpt lat="46.18183434094842" lon="13.048237556447454"><ele>179.66666666666666</ele><time>2026-05-01T07:33:34Z</time></trkpt><trkpt lat="46.1817416946866" lon="13.048032477122447"><ele>182.0</ele><time>2026-05-01T07:33:35Z</time></trkpt><trkpt lat="46.181648873580144" lon="13.04782444443493"><ele>182.0</ele><time>2026-05-01T07:33:36Z</time></trkpt><trkpt lat="46.18155710252866" lon="13.047617797227657"><ele>182.0</ele><time>2026-05-01T07:33:37Z</time></trkpt><trkpt lat="46.18146773730473" lon="13.047418167488862"><ele>182.0</ele><time>2026-05-01T07:33:38Z</time></trkpt><trkpt lat="46.18137867423435" lon="13.04721896204576"><ele>180.66666666666666</ele><time>2026-05-01T07:33:39Z</time></trkpt><trkpt lat="46.18128627172803" lon="13.0470043340701"><ele>179.33333333333334</ele><time>2026-05-01T07:33:40Z</time></trkpt><trkpt lat="46.18119088975631" lon="13.0467870136854"><ele>178.0</ele><time>2026-05-01T07:33:41Z</time></trkpt><trkpt lat="46.181096396074516" lon="13.04657622965561"><ele>178.0</ele><time>2026-05-01T07:33:42Z</time></trkpt><trkpt lat="46.181000283402675" lon="13.046376968601757"><ele>178.0</ele><time>2026-05-01T07:33:43Z</time></trkpt><trkpt lat="46.18089419283907" lon="13.0461857423781"><ele>178.0</ele><time>2026-05-01T07:33:44Z</time></trkpt><trkpt lat="46.18078130886653" lon="13.046001253521382"><ele>177.0</ele><time>2026-05-01T07:33:45Z</time></trkpt><trkpt lat="46.180669347086514" lon="13.045819640263176"><ele>176.0</ele><time>2026-05-01T07:33:46Z</time></trkpt><trkpt lat="46.180565499704" lon="13.045644908731884"><ele>175.0</ele><time>2026-05-01T07:33:47Z</time></trkpt><trkpt lat="46.18046195620077" lon="13.045474940625075"><ele>175.0</ele><time>2026-05-01T07:33:48Z</time></trkpt><trkpt lat="46.18035955653811" lon="13.045304934073851"><ele>175.0</ele><time>2026-05-01T07:33:49Z</time></trkpt><trkpt lat="46.180254804481116" lon="13.045131616560901"><ele>175.0</ele><time>2026-05-01T07:33:50Z</time></trkpt><trkpt lat="46.18014877736373" lon="13.044957363873705"><ele>175.0</ele><time>2026-05-01T07:33:51Z</time></trkpt><trkpt lat="46.18004130237809" lon="13.044782114319883"><ele>175.0</ele><time>2026-05-01T07:33:52Z</time></trkpt><trkpt lat="46.17993481613329" lon="13.044606606553513"><ele>175.0</ele><time>2026-05-01T07:33:53Z</time></trkpt><trkpt lat="46.17982919088503" lon="13.044434367104289"><ele>175.0</ele><time>2026-05-01T07:33:54Z</time></trkpt><trkpt lat="46.17972465195807" lon="13.04426398465975"><ele>175.0</ele><time>2026-05-01T07:33:55Z</time></trkpt><trkpt lat="46.179620525819274" lon="13.044095976077152"><ele>175.0</ele><time>2026-05-01T07:33:56Z</time></trkpt><trkpt lat="46.17951692859804" lon="13.043927592870428"><ele>176.66666666666669</ele><time>2026-05-01T07:33:57Z</time></trkpt><trkpt lat="46.179413255873975" lon="13.043759036156676"><ele>178.33333333333334</ele><time>2026-05-01T07:33:58Z</time></trkpt><trkpt lat="46.17931116980364" lon="13.043589476657413"><ele>180.0</ele><time>2026-05-01T07:33:59Z</time></trkpt><trkpt lat="46.17921113006708" lon="13.043422742269904"><ele>180.33333333333334</ele><time>2026-05-01T07:34:00Z</time></trkpt><trkpt lat="46.17911194479146" lon="13.043258393512515"><ele>180.66666666666669</ele><time>2026-05-01T07:34:01Z</time></trkpt><trkpt lat="46.17901127142349" lon="13.043096331235622"><ele>181.0</ele><time>2026-05-01T07:34:01.999Z</time></trkpt><trkpt lat="46.17890845017325" lon="13.042928682940424"><ele>181.0</ele><time>2026-05-01T07:34:02.999Z</time></trkpt><trkpt lat="46.178803311636784" lon="13.042759085057604"><ele>181.0</ele><time>2026-05-01T07:34:03.999Z</time></trkpt><trkpt lat="46.178695921406394" lon="13.042586208419312"><ele>181.0</ele><time>2026-05-01T07:34:04.999Z</time></trkpt><trkpt lat="46.17858837853828" lon="13.042407544308292"><ele>183.33333333333334</ele><time>2026-05-01T07:34:05.999Z</time></trkpt><trkpt lat="46.178479979540064" lon="13.042227891457332"><ele>185.66666666666666</ele><time>2026-05-01T07:34:06.999Z</time></trkpt><trkpt lat="46.178368424381624" lon="13.042045495979588"><ele>188.0</ele><time>2026-05-01T07:34:07.999Z</time></trkpt><trkpt lat="46.178253740422285" lon="13.04185599866475"><ele>186.33333333333331</ele><time>2026-05-01T07:34:08.999Z</time></trkpt><trkpt lat="46.17813593989151" lon="13.04166099207224"><ele>184.66666666666666</ele><time>2026-05-01T07:34:09.999Z</time></trkpt><trkpt lat="46.17801473502045" lon="13.041464641200957"><ele>183.0</ele><time>2026-05-01T07:34:10.999Z</time></trkpt><trkpt lat="46.17789567866637" lon="13.041269945316373"><ele>183.0</ele><time>2026-05-01T07:34:11.999Z</time></trkpt><trkpt lat="46.177779211799354" lon="13.04107967084459"><ele>183.0</ele><time>2026-05-01T07:34:12.999Z</time></trkpt><trkpt lat="46.17766531393706" lon="13.040885357445326"><ele>183.0</ele><time>2026-05-01T07:34:13.999Z</time></trkpt><trkpt lat="46.17755162681243" lon="13.04069101564007"><ele>183.66666666666666</ele><time>2026-05-01T07:34:14.999Z</time></trkpt><trkpt lat="46.1774404676662" lon="13.040501526450841"><ele>184.33333333333331</ele><time>2026-05-01T07:34:15.999Z</time></trkpt><trkpt lat="46.17732958598493" lon="13.040317157919452"><ele>185.0</ele><time>2026-05-01T07:34:16.999Z</time></trkpt><trkpt lat="46.177221511941816" lon="13.040143059396014"><ele>185.0</ele><time>2026-05-01T07:34:17.999Z</time></trkpt><trkpt lat="46.177120251681345" lon="13.039975287478569"><ele>185.0</ele><time>2026-05-01T07:34:18.999Z</time></trkpt><trkpt lat="46.177020975075884" lon="13.039809659619282"><ele>185.0</ele><time>2026-05-01T07:34:19.999Z</time></trkpt><trkpt lat="46.17692103001513" lon="13.039645069211698"><ele>185.0</ele><time>2026-05-01T07:34:20.999Z</time></trkpt><trkpt lat="46.17681680264" lon="13.039474353452345"><ele>185.0</ele><time>2026-05-01T07:34:21.999Z</time></trkpt><trkpt lat="46.176710060950064" lon="13.039298566991603"><ele>185.0</ele><time>2026-05-01T07:34:22.999Z</time></trkpt><trkpt lat="46.17659893780695" lon="13.03911715805423"><ele>184.66666666666666</ele><time>2026-05-01T07:34:23.999Z</time></trkpt><trkpt lat="46.17649284771213" lon="13.038920663947891"><ele>184.33333333333334</ele><time>2026-05-01T07:34:24.999Z</time></trkpt><trkpt lat="46.17639258044227" lon="13.038701579263297"><ele>184.0</ele><time>2026-05-01T07:34:25.999Z</time></trkpt><trkpt lat="46.176300576967286" lon="13.038462197230901"><ele>184.33333333333334</ele><time>2026-05-01T07:34:26.999Z</time></trkpt><trkpt lat="46.176216931028534" lon="13.038201987563449"><ele>184.66666666666666</ele><time>2026-05-01T07:34:27.999Z</time></trkpt><trkpt lat="46.17614016291324" lon="13.037923860969157"><ele>185.0</ele><time>2026-05-01T07:34:28.999Z</time></trkpt><trkpt lat="46.17607032362867" lon="13.03764158726809"><ele>184.0</ele><time>2026-05-01T07:34:29.999Z</time></trkpt><trkpt lat="46.17600823584895" lon="13.03737819859294"><ele>183.0</ele><time>2026-05-01T07:34:30.999Z</time></trkpt><trkpt lat="46.175948765576734" lon="13.037134188784675"><ele>182.0</ele><time>2026-05-01T07:34:31.999Z</time></trkpt><trkpt lat="46.175892674046054" lon="13.036896752337478"><ele>182.0</ele><time>2026-05-01T07:34:32.999Z</time></trkpt><trkpt lat="46.175836647341676" lon="13.036656948189405"><ele>182.0</ele><time>2026-05-01T07:34:33.999Z</time></trkpt><trkpt lat="46.1757818692739" lon="13.036424021439993"><ele>182.0</ele><time>2026-05-01T07:34:34.999Z</time></trkpt><trkpt lat="46.17572787962211" lon="13.036195376419881"><ele>181.66666666666666</ele><time>2026-05-01T07:34:35.999Z</time></trkpt><trkpt lat="46.17567300197627" lon="13.035965022787197"><ele>181.33333333333334</ele><time>2026-05-01T07:34:36.999Z</time></trkpt><trkpt lat="46.175616221465326" lon="13.035727984409924"><ele>181.0</ele><time>2026-05-01T07:34:37.999Z</time></trkpt><trkpt lat="46.175558176922245" lon="13.035484784710105"><ele>180.0</ele><time>2026-05-01T07:34:38.999Z</time></trkpt><trkpt lat="46.17550209446374" lon="13.035246383559526"><ele>179.0</ele><time>2026-05-01T07:34:39.999Z</time></trkpt><trkpt lat="46.17544531208355" lon="13.03500484649002"><ele>178.0</ele><time>2026-05-01T07:34:40.999Z</time></trkpt><trkpt lat="46.175384445518155" lon="13.03475955763066"><ele>178.33333333333334</ele><time>2026-05-01T07:34:42Z</time></trkpt><trkpt lat="46.175325637060254" lon="13.034514157246427"><ele>178.66666666666666</ele><time>2026-05-01T07:34:43Z</time></trkpt><trkpt lat="46.17526707988613" lon="13.03426964890853"><ele>179.0</ele><time>2026-05-01T07:34:44Z</time></trkpt><trkpt lat="46.175205955294466" lon="13.034019985184655"><ele>179.0</ele><time>2026-05-01T07:34:45Z</time></trkpt><trkpt lat="46.1751458969922" lon="13.033769996115618"><ele>179.0</ele><time>2026-05-01T07:34:46Z</time></trkpt><trkpt lat="46.175085857713135" lon="13.033522362923861"><ele>179.0</ele><time>2026-05-01T07:34:47Z</time></trkpt><trkpt lat="46.175025452265515" lon="13.033276829754843"><ele>179.0</ele><time>2026-05-01T07:34:48Z</time></trkpt><trkpt lat="46.174965316376124" lon="13.033031066492759"><ele>179.0</ele><time>2026-05-01T07:34:49Z</time></trkpt><trkpt lat="46.17490497344433" lon="13.032781438669026"><ele>179.0</ele><time>2026-05-01T07:34:50Z</time></trkpt><trkpt lat="46.1748433131165" lon="13.032523418756549"><ele>178.33333333333331</ele><time>2026-05-01T07:34:51Z</time></trkpt><trkpt lat="46.17477950780668" lon="13.032258862681434"><ele>177.66666666666666</ele><time>2026-05-01T07:34:52Z</time></trkpt><trkpt lat="46.17471552086627" lon="13.031992359976432"><ele>177.0</ele><time>2026-05-01T07:34:53Z</time></trkpt><trkpt lat="46.17465227863683" lon="13.031726860329954"><ele>176.33333333333334</ele><time>2026-05-01T07:34:54Z</time></trkpt><trkpt lat="46.174588619804645" lon="13.031455943896647"><ele>175.66666666666669</ele><time>2026-05-01T07:34:55Z</time></trkpt><trkpt lat="46.174522667098934" lon="13.031177181906349"><ele>175.0</ele><time>2026-05-01T07:34:56Z</time></trkpt><trkpt lat="46.17445481254514" lon="13.030891785726501"><ele>175.0</ele><time>2026-05-01T07:34:57Z</time></trkpt><trkpt lat="46.174386831353715" lon="13.03060207676728"><ele>175.0</ele><time>2026-05-01T07:34:58Z</time></trkpt><trkpt lat="46.174319012970486" lon="13.030319949516416"><ele>175.0</ele><time>2026-05-01T07:34:59Z</time></trkpt><trkpt lat="46.174253442151034" lon="13.030048575356718"><ele>175.33333333333334</ele><time>2026-05-01T07:35:00Z</time></trkpt><trkpt lat="46.17419127895979" lon="13.029782766641176"><ele>175.66666666666666</ele><time>2026-05-01T07:35:01Z</time></trkpt><trkpt lat="46.17412868689175" lon="13.029520302177486"><ele>176.0</ele><time>2026-05-01T07:35:02Z</time></trkpt><trkpt lat="46.1740648879005" lon="13.029260248254351"><ele>175.66666666666666</ele><time>2026-05-01T07:35:03Z</time></trkpt><trkpt lat="46.17400269322785" lon="13.02900188070033"><ele>175.33333333333334</ele><time>2026-05-01T07:35:04Z</time></trkpt><trkpt lat="46.17394087349557" lon="13.028743216189971"><ele>175.0</ele><time>2026-05-01T07:35:05Z</time></trkpt><trkpt lat="46.17387874667164" lon="13.028483091567677"><ele>175.0</ele><time>2026-05-01T07:35:06Z</time></trkpt><trkpt lat="46.1738150812612" lon="13.028218204609018"><ele>175.0</ele><time>2026-05-01T07:35:07Z</time></trkpt><trkpt lat="46.17374970869139" lon="13.027944379470474"><ele>175.0</ele><time>2026-05-01T07:35:08Z</time></trkpt><trkpt lat="46.17368269750309" lon="13.027666786380694"><ele>175.33333333333334</ele><time>2026-05-01T07:35:09Z</time></trkpt><trkpt lat="46.1736165011152" lon="13.027393759885635"><ele>175.66666666666666</ele><time>2026-05-01T07:35:10Z</time></trkpt><trkpt lat="46.17355104289547" lon="13.027121559207748"><ele>176.0</ele><time>2026-05-01T07:35:11Z</time></trkpt><trkpt lat="46.17348693596992" lon="13.02684671729555"><ele>176.33333333333331</ele><time>2026-05-01T07:35:12Z</time></trkpt><trkpt lat="46.173423659978404" lon="13.026579918300115"><ele>176.66666666666666</ele><time>2026-05-01T07:35:13Z</time></trkpt><trkpt lat="46.1733602260699" lon="13.026317538543672"><ele>177.0</ele><time>2026-05-01T07:35:14Z</time></trkpt><trkpt lat="46.17329843554933" lon="13.026055805507914"><ele>175.66666666666666</ele><time>2026-05-01T07:35:15Z</time></trkpt><trkpt lat="46.173236648511" lon="13.02580217612881"><ele>174.33333333333331</ele><time>2026-05-01T07:35:16Z</time></trkpt><trkpt lat="46.17317616254696" lon="13.025553227447002"><ele>173.0</ele><time>2026-05-01T07:35:17Z</time></trkpt><trkpt lat="46.17311675859565" lon="13.025303656403105"><ele>173.0</ele><time>2026-05-01T07:35:18Z</time></trkpt><trkpt lat="46.17305549651928" lon="13.025050674429648"><ele>173.0</ele><time>2026-05-01T07:35:19Z</time></trkpt><trkpt lat="46.1729948041337" lon="13.024796828572489"><ele>173.0</ele><time>2026-05-01T07:35:20Z</time></trkpt><trkpt lat="46.172934481483715" lon="13.02454330446803"><ele>173.33333333333331</ele><time>2026-05-01T07:35:21Z</time></trkpt><trkpt lat="46.17287310280536" lon="13.024287722822425"><ele>173.66666666666666</ele><time>2026-05-01T07:35:22Z</time></trkpt><trkpt lat="46.172808837109706" lon="13.024028765940917"><ele>174.0</ele><time>2026-05-01T07:35:23Z</time></trkpt><trkpt lat="46.17274714371022" lon="13.023771720153453"><ele>174.0</ele><time>2026-05-01T07:35:24Z</time></trkpt><trkpt lat="46.172687749902494" lon="13.023516037991964"><ele>174.0</ele><time>2026-05-01T07:35:25Z</time></trkpt><trkpt lat="46.17262592986225" lon="13.02325501779296"><ele>174.0</ele><time>2026-05-01T07:35:26Z</time></trkpt><trkpt lat="46.17256221018908" lon="13.022989297893528"><ele>174.0</ele><time>2026-05-01T07:35:27Z</time></trkpt><trkpt lat="46.17249725262414" lon="13.022715603106034"><ele>174.0</ele><time>2026-05-01T07:35:28Z</time></trkpt><trkpt lat="46.1724292048042" lon="13.022429367788652"><ele>174.0</ele><time>2026-05-01T07:35:29Z</time></trkpt><trkpt lat="46.1723573127055" lon="13.022128138657235"><ele>174.0</ele><time>2026-05-01T07:35:30Z</time></trkpt><trkpt lat="46.172283385744365" lon="13.021817993082395"><ele>174.0</ele><time>2026-05-01T07:35:31Z</time></trkpt><trkpt lat="46.17220787425952" lon="13.021506506286457"><ele>175.33333333333334</ele><time>2026-05-01T07:35:32Z</time></trkpt><trkpt lat="46.17213484028196" lon="13.021198853606839"><ele>176.66666666666669</ele><time>2026-05-01T07:35:33Z</time></trkpt><trkpt lat="46.17206101286943" lon="13.020893725135108"><ele>178.0</ele><time>2026-05-01T07:35:34Z</time></trkpt><trkpt lat="46.1719884348271" lon="13.020589859697864"><ele>179.66666666666669</ele><time>2026-05-01T07:35:35Z</time></trkpt><trkpt lat="46.17191591567233" lon="13.02028405322741"><ele>181.33333333333334</ele><time>2026-05-01T07:35:36Z</time></trkpt><trkpt lat="46.17184415774338" lon="13.019976452020979"><ele>183.0</ele><time>2026-05-01T07:35:37Z</time></trkpt><trkpt lat="46.17177140023475" lon="13.01967347499184"><ele>184.0</ele><time>2026-05-01T07:35:38Z</time></trkpt><trkpt lat="46.17170028606205" lon="13.019372113098457"><ele>185.0</ele><time>2026-05-01T07:35:39Z</time></trkpt><trkpt lat="46.17162806129924" lon="13.019072513597092"><ele>186.0</ele><time>2026-05-01T07:35:40Z</time></trkpt><trkpt lat="46.171557519572076" lon="13.018779805759591"><ele>185.33333333333334</ele><time>2026-05-01T07:35:41Z</time></trkpt><trkpt lat="46.17148761122552" lon="13.018495178502794"><ele>184.66666666666669</ele><time>2026-05-01T07:35:42Z</time></trkpt><trkpt lat="46.171417671396604" lon="13.018210845465088"><ele>184.0</ele><time>2026-05-01T07:35:43Z</time></trkpt><trkpt lat="46.17135125443208" lon="13.017925267037654"><ele>184.0</ele><time>2026-05-01T07:35:44Z</time></trkpt><trkpt lat="46.17128339943977" lon="13.01764884469164"><ele>184.0</ele><time>2026-05-01T07:35:45Z</time></trkpt><trkpt lat="46.171216579457585" lon="13.01737386918638"><ele>184.0</ele><time>2026-05-01T07:35:46Z</time></trkpt><trkpt lat="46.171153723173106" lon="13.017090924693909"><ele>185.0</ele><time>2026-05-01T07:35:47Z</time></trkpt><trkpt lat="46.17108458095532" lon="13.016810277390203"><ele>186.0</ele><time>2026-05-01T07:35:48Z</time></trkpt><trkpt lat="46.17101012113397" lon="13.016527639247363"><ele>187.0</ele><time>2026-05-01T07:35:49Z</time></trkpt><trkpt lat="46.17092605474579" lon="13.016249896863767"><ele>188.0</ele><time>2026-05-01T07:35:50Z</time></trkpt><trkpt lat="46.17083226955295" lon="13.01597911646273"><ele>189.0</ele><time>2026-05-01T07:35:51Z</time></trkpt><trkpt lat="46.1707299041331" lon="13.01571387389924"><ele>190.0</ele><time>2026-05-01T07:35:52Z</time></trkpt><trkpt lat="46.17061959501973" lon="13.015457798993715"><ele>190.0</ele><time>2026-05-01T07:35:53Z</time></trkpt><trkpt lat="46.17050389920649" lon="13.015209573773001"><ele>190.0</ele><time>2026-05-01T07:35:54Z</time></trkpt><trkpt lat="46.170384922233126" lon="13.014959887870042"><ele>190.0</ele><time>2026-05-01T07:35:55Z</time></trkpt><trkpt lat="46.17026921536495" lon="13.014714893632075"><ele>190.33333333333334</ele><time>2026-05-01T07:35:56Z</time></trkpt><trkpt lat="46.170154677485414" lon="13.014473634120199"><ele>190.66666666666666</ele><time>2026-05-01T07:35:57Z</time></trkpt><trkpt lat="46.17003741389425" lon="13.014228289513493"><ele>191.0</ele><time>2026-05-01T07:35:58Z</time></trkpt><trkpt lat="46.169919378209684" lon="13.013980530482034"><ele>191.0</ele><time>2026-05-01T07:35:59Z</time></trkpt><trkpt lat="46.16980385735345" lon="13.013738493162428"><ele>191.0</ele><time>2026-05-01T07:36:00Z</time></trkpt><trkpt lat="46.16969057239627" lon="13.013502348747354"><ele>191.0</ele><time>2026-05-01T07:36:01Z</time></trkpt><trkpt lat="46.16958903756094" lon="13.013293786976348"><ele>191.0</ele><time>2026-05-01T07:36:02Z</time></trkpt><trkpt lat="46.169488605670445" lon="13.013088222756277"><ele>191.0</ele><time>2026-05-01T07:36:03Z</time></trkpt><trkpt lat="46.16938215525862" lon="13.012864671842586"><ele>191.0</ele><time>2026-05-01T07:36:03.999Z</time></trkpt><trkpt lat="46.16927651104037" lon="13.012641286494526"><ele>190.66666666666666</ele><time>2026-05-01T07:36:04.999Z</time></trkpt><trkpt lat="46.16916549662158" lon="13.01241940061363"><ele>190.33333333333334</ele><time>2026-05-01T07:36:05.999Z</time></trkpt><trkpt lat="46.169045365321935" lon="13.012197010106247"><ele>190.0</ele><time>2026-05-01T07:36:06.999Z</time></trkpt><trkpt lat="46.16891375607116" lon="13.011984206166144"><ele>190.66666666666669</ele><time>2026-05-01T07:36:07.999Z</time></trkpt><trkpt lat="46.16877342224907" lon="13.011784349407682"><ele>191.33333333333334</ele><time>2026-05-01T07:36:08.999Z</time></trkpt><trkpt lat="46.16861730961758" lon="13.011605892102454"><ele>192.0</ele><time>2026-05-01T07:36:09.999Z</time></trkpt><trkpt lat="46.16846308599896" lon="13.011461571088493"><ele>192.0</ele><time>2026-05-01T07:36:10.999Z</time></trkpt><trkpt lat="46.16830609000279" lon="13.011331910709576"><ele>192.0</ele><time>2026-05-01T07:36:11.999Z</time></trkpt><trkpt lat="46.16815291611405" lon="13.011210354706307"><ele>192.0</ele><time>2026-05-01T07:36:12.999Z</time></trkpt><trkpt lat="46.16800077840192" lon="13.011088913876112"><ele>192.33333333333331</ele><time>2026-05-01T07:36:13.999Z</time></trkpt><trkpt lat="46.16784145846296" lon="13.010962343296894"><ele>192.66666666666666</ele><time>2026-05-01T07:36:14.999Z</time></trkpt><trkpt lat="46.167673588513246" lon="13.01083029520022"><ele>193.0</ele><time>2026-05-01T07:36:15.999Z</time></trkpt><trkpt lat="46.16750098825037" lon="13.010692665637125"><ele>193.66666666666666</ele><time>2026-05-01T07:36:16.999Z</time></trkpt><trkpt lat="46.16732327053811" lon="13.010551102923623"><ele>194.33333333333331</ele><time>2026-05-01T07:36:17.999Z</time></trkpt><trkpt lat="46.16714334863352" lon="13.010404145278574"><ele>195.0</ele><time>2026-05-01T07:36:18.999Z</time></trkpt><trkpt lat="46.16696450094274" lon="13.010259125347895"><ele>195.0</ele><time>2026-05-01T07:36:19.999Z</time></trkpt><trkpt lat="46.166786537786066" lon="13.010116585891149"><ele>195.0</ele><time>2026-05-01T07:36:20.999Z</time></trkpt><trkpt lat="46.166615016865414" lon="13.009979320350453"><ele>195.0</ele><time>2026-05-01T07:36:21.999Z</time></trkpt><trkpt lat="46.16644841961956" lon="13.009846248782374"><ele>195.66666666666669</ele><time>2026-05-01T07:36:22.999Z</time></trkpt><trkpt lat="46.16628638418826" lon="13.009717413606682"><ele>196.33333333333334</ele><time>2026-05-01T07:36:23.999Z</time></trkpt><trkpt lat="46.1661435227938" lon="13.009599579782398"><ele>197.0</ele><time>2026-05-01T07:36:24.999Z</time></trkpt><trkpt lat="46.1660134631997" lon="13.009492024672243"><ele>197.0</ele><time>2026-05-01T07:36:25.999Z</time></trkpt><trkpt lat="46.165883038332325" lon="13.009389535406637"><ele>197.0</ele><time>2026-05-01T07:36:26.999Z</time></trkpt><trkpt lat="46.16575294206039" lon="13.009284540210881"><ele>197.0</ele><time>2026-05-01T07:36:27.999Z</time></trkpt><trkpt lat="46.16562619626522" lon="13.009183133376586"><ele>197.0</ele><time>2026-05-01T07:36:28.999Z</time></trkpt><trkpt lat="46.16550500498987" lon="13.009086573926034"><ele>197.25</ele><time>2026-05-01T07:36:29.999Z</time></trkpt><trkpt lat="46.16538100490121" lon="13.00898766262336"><ele>197.5</ele><time>2026-05-01T07:36:30.999Z</time></trkpt><trkpt lat="46.165258300479614" lon="13.008890300368586"><ele>197.75</ele><time>2026-05-01T07:36:31.999Z</time></trkpt><trkpt lat="46.165134503410904" lon="13.008793289264386"><ele>198.0</ele><time>2026-05-01T07:36:32.999Z</time></trkpt><trkpt lat="46.16501010927292" lon="13.008691920510355"><ele>198.0</ele><time>2026-05-01T07:36:33.999Z</time></trkpt><trkpt lat="46.164881330366235" lon="13.008589725409745"><ele>198.0</ele><time>2026-05-01T07:36:34.999Z</time></trkpt><trkpt lat="46.16475162722138" lon="13.008488282387178"><ele>198.0</ele><time>2026-05-01T07:36:35.999Z</time></trkpt><trkpt lat="46.16462615153394" lon="13.008386758511863"><ele>198.0</ele><time>2026-05-01T07:36:36.999Z</time></trkpt><trkpt lat="46.16450657246247" lon="13.008290320074964"><ele>199.0</ele><time>2026-05-01T07:36:37.999Z</time></trkpt><trkpt lat="46.16439448907739" lon="13.008201196172223"><ele>200.0</ele><time>2026-05-01T07:36:38.999Z</time></trkpt><trkpt lat="46.16428172171028" lon="13.008108932118036"><ele>201.0</ele><time>2026-05-01T07:36:39.999Z</time></trkpt><trkpt lat="46.164168729167756" lon="13.008009118969799"><ele>202.0</ele><time>2026-05-01T07:36:40.999Z</time></trkpt><trkpt lat="46.16405954840824" lon="13.007902685385941"><ele>201.5</ele><time>2026-05-01T07:36:41.999Z</time></trkpt><trkpt lat="46.16395419279969" lon="13.007786151630663"><ele>201.0</ele><time>2026-05-01T07:36:42.999Z</time></trkpt><trkpt lat="46.16385003797641" lon="13.007653610844843"><ele>200.5</ele><time>2026-05-01T07:36:43.999Z</time></trkpt><trkpt lat="46.16374718363952" lon="13.007510563932193"><ele>200.0</ele><time>2026-05-01T07:36:44.999Z</time></trkpt><trkpt lat="46.163646722719214" lon="13.007356394843422"><ele>200.0</ele><time>2026-05-01T07:36:45.999Z</time></trkpt><trkpt lat="46.16355246497231" lon="13.007191892555742"><ele>200.0</ele><time>2026-05-01T07:36:46.999Z</time></trkpt><trkpt lat="46.163465413298134" lon="13.007019686486593"><ele>200.0</ele><time>2026-05-01T07:36:48Z</time></trkpt><trkpt lat="46.16338828207316" lon="13.006847495846618"><ele>200.0</ele><time>2026-05-01T07:36:49Z</time></trkpt><trkpt lat="46.163320555625454" lon="13.006678763583237"><ele>200.25</ele><time>2026-05-01T07:36:50Z</time></trkpt><trkpt lat="46.163255859274884" lon="13.006506471546965"><ele>200.5</ele><time>2026-05-01T07:36:51Z</time></trkpt><trkpt lat="46.16319249639492" lon="13.006331536145256"><ele>200.75</ele><time>2026-05-01T07:36:52Z</time></trkpt><trkpt lat="46.163130238293505" lon="13.006159526288622"><ele>201.0</ele><time>2026-05-01T07:36:53Z</time></trkpt><trkpt lat="46.163070463170975" lon="13.005992238553835"><ele>201.0</ele><time>2026-05-01T07:36:54Z</time></trkpt><trkpt lat="46.16301517883352" lon="13.005836763446611"><ele>201.0</ele><time>2026-05-01T07:36:55Z</time></trkpt><trkpt lat="46.16296389794479" lon="13.005688539434331"><ele>201.0</ele><time>2026-05-01T07:36:56Z</time></trkpt><trkpt lat="46.162907777504756" lon="13.005533138289328"><ele>201.0</ele><time>2026-05-01T07:36:57Z</time></trkpt><trkpt lat="46.16285440739968" lon="13.00538130725527"><ele>201.0</ele><time>2026-05-01T07:36:58Z</time></trkpt><trkpt lat="46.16280215799452" lon="13.005230002577386"><ele>201.0</ele><time>2026-05-01T07:36:59Z</time></trkpt><trkpt lat="46.162745537816136" lon="13.005073061503023"><ele>201.0</ele><time>2026-05-01T07:37:00Z</time></trkpt><trkpt lat="46.16269398599886" lon="13.004920483868103"><ele>201.0</ele><time>2026-05-01T07:37:01Z</time></trkpt><trkpt lat="46.16265024071259" lon="13.004782138125938"><ele>201.20000000000002</ele><time>2026-05-01T07:37:02Z</time></trkpt><trkpt lat="46.16261034097795" lon="13.004650320658001"><ele>201.4</ele><time>2026-05-01T07:37:03Z</time></trkpt><trkpt lat="46.1625727394978" lon="13.004525062631867"><ele>201.6</ele><time>2026-05-01T07:37:04Z</time></trkpt><trkpt lat="46.16254055017218" lon="13.004417866910051"><ele>201.8</ele><time>2026-05-01T07:37:05Z</time></trkpt><trkpt lat="46.16251512731121" lon="13.004326889073274"><ele>202.0</ele><time>2026-05-01T07:37:06Z</time></trkpt><trkpt lat="46.16249387684295" lon="13.00416684165511"><ele>202.2</ele><time>2026-05-01T07:37:08Z</time></trkpt><trkpt lat="46.16250510487618" lon="13.004065065202987"><ele>202.39999999999998</ele><time>2026-05-01T07:37:09Z</time></trkpt><trkpt lat="46.16251376011327" lon="13.003943259100351"><ele>202.60000000000002</ele><time>2026-05-01T07:37:10Z</time></trkpt><trkpt lat="46.16249912161124" lon="13.003807576175392"><ele>202.8</ele><time>2026-05-01T07:37:11Z</time></trkpt><trkpt lat="46.162446195556804" lon="13.003688038158367"><ele>203.0</ele><time>2026-05-01T07:37:12Z</time></trkpt><trkpt lat="46.16236170840438" lon="13.003607456105605"><ele>203.00000000000003</ele><time>2026-05-01T07:37:13Z</time></trkpt><trkpt lat="46.16225980155291" lon="13.003580483132115"><ele>203.0</ele><time>2026-05-01T07:37:14Z</time></trkpt><trkpt lat="46.162174215080995" lon="13.003589454164898"><ele>203.0</ele><time>2026-05-01T07:37:15Z</time></trkpt><trkpt lat="46.16209745606696" lon="13.003583394379913"><ele>203.0</ele><time>2026-05-01T07:37:16Z</time></trkpt><trkpt lat="46.16201812532988" lon="13.003557514376434"><ele>203.00000000000003</ele><time>2026-05-01T07:37:17Z</time></trkpt><trkpt lat="46.16193231004741" lon="13.00351495196815"><ele>203.0</ele><time>2026-05-01T07:37:18Z</time></trkpt><trkpt lat="46.16184284920706" lon="13.003459792791368"><ele>203.0</ele><time>2026-05-01T07:37:19Z</time></trkpt><trkpt lat="46.16175005434305" lon="13.003401170053397"><ele>203.0</ele><time>2026-05-01T07:37:20Z</time></trkpt><trkpt lat="46.161654119270274" lon="13.003344536374971"><ele>203.0</ele><time>2026-05-01T07:37:21Z</time></trkpt><trkpt lat="46.16155574114727" lon="13.003298095542936"><ele>203.0</ele><time>2026-05-01T07:37:22Z</time></trkpt><trkpt lat="46.161466531447246" lon="13.003260700472126"><ele>203.0</ele><time>2026-05-01T07:37:23Z</time></trkpt><trkpt lat="46.16137150300139" lon="13.003227969834525"><ele>203.60000000000002</ele><time>2026-05-01T07:37:24Z</time></trkpt><trkpt lat="46.16127957735352" lon="13.003201844871086"><ele>204.20000000000002</ele><time>2026-05-01T07:37:25Z</time></trkpt><trkpt lat="46.161186638387655" lon="13.003173026137167"><ele>204.8</ele><time>2026-05-01T07:37:26Z</time></trkpt><trkpt lat="46.16108767039771" lon="13.003140986103118"><ele>205.4</ele><time>2026-05-01T07:37:27Z</time></trkpt><trkpt lat="46.16097931377498" lon="13.00310932860311"><ele>206.0</ele><time>2026-05-01T07:37:28Z</time></trkpt><trkpt lat="46.16085811837326" lon="13.003075005603867"><ele>206.0</ele><time>2026-05-01T07:37:29Z</time></trkpt><trkpt lat="46.160727815170254" lon="13.003040289025396"><ele>206.0</ele><time>2026-05-01T07:37:30Z</time></trkpt><trkpt lat="46.1605842622965" lon="13.003001996950065"><ele>206.0</ele><time>2026-05-01T07:37:31Z</time></trkpt><trkpt lat="46.16043150184528" lon="13.002959894519558"><ele>206.0</ele><time>2026-05-01T07:37:32Z</time></trkpt><trkpt lat="46.16027115206797" lon="13.002913245742253"><ele>205.5</ele><time>2026-05-01T07:37:33Z</time></trkpt><trkpt lat="46.160126370837396" lon="13.002870339564222"><ele>205.0</ele><time>2026-05-01T07:37:34Z</time></trkpt><trkpt lat="46.15998954875293" lon="13.002831781989935"><ele>204.5</ele><time>2026-05-01T07:37:35Z</time></trkpt><trkpt lat="46.159852271254124" lon="13.002793203950759"><ele>204.0</ele><time>2026-05-01T07:37:36Z</time></trkpt><trkpt lat="46.15971470973092" lon="13.002752431245844"><ele>202.5</ele><time>2026-05-01T07:37:37Z</time></trkpt><trkpt lat="46.159583473877696" lon="13.002710517096924"><ele>201.0</ele><time>2026-05-01T07:37:38Z</time></trkpt><trkpt lat="46.159458291249564" lon="13.002672342680134"><ele>199.5</ele><time>2026-05-01T07:37:39Z</time></trkpt><trkpt lat="46.1593400450409" lon="13.002631852313742"><ele>198.0</ele><time>2026-05-01T07:37:40Z</time></trkpt><trkpt lat="46.159224222753366" lon="13.002580044224832"><ele>198.0</ele><time>2026-05-01T07:37:41Z</time></trkpt><trkpt lat="46.15910421759788" lon="13.002510730612071"><ele>198.0</ele><time>2026-05-01T07:37:42Z</time></trkpt><trkpt lat="46.1589776680663" lon="13.00241876839965"><ele>198.0</ele><time>2026-05-01T07:37:43Z</time></trkpt><trkpt lat="46.15885157551196" lon="13.002303032393515"><ele>198.0</ele><time>2026-05-01T07:37:44Z</time></trkpt><trkpt lat="46.15872744892458" lon="13.002175719243024"><ele>198.0</ele><time>2026-05-01T07:37:45Z</time></trkpt><trkpt lat="46.15861801731424" lon="13.002025131049047"><ele>198.0</ele><time>2026-05-01T07:37:46Z</time></trkpt><trkpt lat="46.158514099086524" lon="13.001864742447918"><ele>198.0</ele><time>2026-05-01T07:37:47Z</time></trkpt><trkpt lat="46.158420996521734" lon="13.001691391389462"><ele>198.0</ele><time>2026-05-01T07:37:48Z</time></trkpt><trkpt lat="46.1583326527763" lon="13.001508457039062"><ele>198.0</ele><time>2026-05-01T07:37:49Z</time></trkpt><trkpt lat="46.15824418965605" lon="13.001318345875779"><ele>198.0</ele><time>2026-05-01T07:37:50Z</time></trkpt><trkpt lat="46.15814712105306" lon="13.001110180179163"><ele>196.66666666666669</ele><time>2026-05-01T07:37:51Z</time></trkpt><trkpt lat="46.15804554074698" lon="13.000900682388794"><ele>195.33333333333334</ele><time>2026-05-01T07:37:52Z</time></trkpt><trkpt lat="46.157941255521564" lon="13.00070863744038"><ele>194.0</ele><time>2026-05-01T07:37:53Z</time></trkpt><trkpt lat="46.15783355979563" lon="13.000539225398839"><ele>194.0</ele><time>2026-05-01T07:37:54Z</time></trkpt><trkpt lat="46.157729725782744" lon="13.000396193221102"><ele>194.0</ele><time>2026-05-01T07:37:55Z</time></trkpt><trkpt lat="46.15762094049079" lon="13.000270414965744"><ele>194.0</ele><time>2026-05-01T07:37:56Z</time></trkpt><trkpt lat="46.15751061756104" lon="13.000155850266644"><ele>194.0</ele><time>2026-05-01T07:37:57Z</time></trkpt><trkpt lat="46.15740023784445" lon="13.000047114426941"><ele>193.39999999999998</ele><time>2026-05-01T07:37:58Z</time></trkpt><trkpt lat="46.157294707341386" lon="12.999946710890395"><ele>192.8</ele><time>2026-05-01T07:37:59Z</time></trkpt><trkpt lat="46.15719751603802" lon="12.999856947498834"><ele>192.2</ele><time>2026-05-01T07:38:00Z</time></trkpt><trkpt lat="46.157104448052124" lon="12.999772033332405"><ele>191.60000000000002</ele><time>2026-05-01T07:38:01Z</time></trkpt><trkpt lat="46.157023218292885" lon="12.99969945301012"><ele>191.0</ele><time>2026-05-01T07:38:02Z</time></trkpt><trkpt lat="46.15694656522543" lon="12.999631178481145"><ele>191.0</ele><time>2026-05-01T07:38:03Z</time></trkpt><trkpt lat="46.156877687825705" lon="12.999567991157344"><ele>191.0</ele><time>2026-05-01T07:38:04Z</time></trkpt><trkpt lat="46.15681261861761" lon="12.99951012588653"><ele>191.0</ele><time>2026-05-01T07:38:05Z</time></trkpt><trkpt lat="46.1567523325069" lon="12.999456349927499"><ele>191.0</ele><time>2026-05-01T07:38:06Z</time></trkpt><trkpt lat="46.1566973844258" lon="12.999403715731273"><ele>191.0</ele><time>2026-05-01T07:38:07Z</time></trkpt><trkpt lat="46.15659865238956" lon="12.999306754015512"><ele>191.0</ele><time>2026-05-01T07:38:08.999Z</time></trkpt><trkpt lat="46.15653647378195" lon="12.999249762372694"><ele>191.20000000000002</ele><time>2026-05-01T07:38:09.999Z</time></trkpt><trkpt lat="46.156457210632894" lon="12.999180095873866"><ele>191.4</ele><time>2026-05-01T07:38:10.999Z</time></trkpt><trkpt lat="46.156361417560404" lon="12.99909869411566"><ele>191.6</ele><time>2026-05-01T07:38:11.999Z</time></trkpt><trkpt lat="46.156258635872035" lon="12.999006919514521"><ele>191.8</ele><time>2026-05-01T07:38:12.999Z</time></trkpt><trkpt lat="46.15615699016406" lon="12.998912341988369"><ele>192.0</ele><time>2026-05-01T07:38:13.999Z</time></trkpt><trkpt lat="46.156055268173866" lon="12.998820109020258"><ele>192.0</ele><time>2026-05-01T07:38:14.999Z</time></trkpt><trkpt lat="46.15594915957276" lon="12.99872300291531"><ele>192.0</ele><time>2026-05-01T07:38:15.999Z</time></trkpt><trkpt lat="46.15583995933719" lon="12.998621294111091"><ele>192.0</ele><time>2026-05-01T07:38:16.999Z</time></trkpt><trkpt lat="46.15572475702194" lon="12.998515981265784"><ele>192.0</ele><time>2026-05-01T07:38:17.999Z</time></trkpt><trkpt lat="46.15560602272086" lon="12.998408217182671"><ele>192.0</ele><time>2026-05-01T07:38:18.999Z</time></trkpt><trkpt lat="46.15547813652598" lon="12.99829358406457"><ele>192.0</ele><time>2026-05-01T07:38:19.999Z</time></trkpt><trkpt lat="46.15535339139" lon="12.998184174638805"><ele>192.0</ele><time>2026-05-01T07:38:20.999Z</time></trkpt><trkpt lat="46.15522439766695" lon="12.998076596631725"><ele>192.0</ele><time>2026-05-01T07:38:21.999Z</time></trkpt><trkpt lat="46.15509165996729" lon="12.997968545014594"><ele>192.0</ele><time>2026-05-01T07:38:22.999Z</time></trkpt><trkpt lat="46.154952923843254" lon="12.99786326171015"><ele>192.0</ele><time>2026-05-01T07:38:23.999Z</time></trkpt><trkpt lat="46.15480755251213" lon="12.997758067429684"><ele>192.0</ele><time>2026-05-01T07:38:24.999Z</time></trkpt><trkpt lat="46.154648611550705" lon="12.997649841281053"><ele>191.66666666666666</ele><time>2026-05-01T07:38:25.999Z</time></trkpt><trkpt lat="46.15447982488981" lon="12.997539178626088"><ele>191.33333333333331</ele><time>2026-05-01T07:38:26.999Z</time></trkpt><trkpt lat="46.154306675697484" lon="12.997426335260313"><ele>191.0</ele><time>2026-05-01T07:38:27.999Z</time></trkpt><trkpt lat="46.154134317193424" lon="12.997313676108226"><ele>189.0</ele><time>2026-05-01T07:38:28.999Z</time></trkpt><trkpt lat="46.15396228855171" lon="12.997200794168009"><ele>187.0</ele><time>2026-05-01T07:38:29.999Z</time></trkpt><trkpt lat="46.15379303160129" lon="12.997090911608424"><ele>185.0</ele><time>2026-05-01T07:38:30.999Z</time></trkpt><trkpt lat="46.15362919521944" lon="12.996985367869238"><ele>185.0</ele><time>2026-05-01T07:38:31.999Z</time></trkpt><trkpt lat="46.15347112756735" lon="12.996882420590016"><ele>185.0</ele><time>2026-05-01T07:38:32.999Z</time></trkpt><trkpt lat="46.15331547197511" lon="12.996784076621054"><ele>185.0</ele><time>2026-05-01T07:38:33.999Z</time></trkpt><trkpt lat="46.1531621129465" lon="12.996687365810143"><ele>184.33333333333331</ele><time>2026-05-01T07:38:34.999Z</time></trkpt><trkpt lat="46.1530081199776" lon="12.996589800013165"><ele>183.66666666666666</ele><time>2026-05-01T07:38:35.999Z</time></trkpt><trkpt lat="46.152853330510965" lon="12.996491242303495"><ele>183.0</ele><time>2026-05-01T07:38:36.999Z</time></trkpt><trkpt lat="46.152697280934724" lon="12.99639177579963"><ele>183.0</ele><time>2026-05-01T07:38:37.999Z</time></trkpt><trkpt lat="46.152540166101495" lon="12.996284669759627"><ele>183.0</ele><time>2026-05-01T07:38:38.999Z</time></trkpt><trkpt lat="46.15238582285003" lon="12.996168866602071"><ele>183.0</ele><time>2026-05-01T07:38:39.999Z</time></trkpt><trkpt lat="46.15223608492559" lon="12.996037849165337"><ele>182.33333333333334</ele><time>2026-05-01T07:38:40.999Z</time></trkpt><trkpt lat="46.15209226430917" lon="12.995896885131163"><ele>181.66666666666669</ele><time>2026-05-01T07:38:41.999Z</time></trkpt><trkpt lat="46.151951729057394" lon="12.995751589120674"><ele>181.0</ele><time>2026-05-01T07:38:42.999Z</time></trkpt><trkpt lat="46.15181286000237" lon="12.995602000015861"><ele>180.66666666666669</ele><time>2026-05-01T07:38:43.999Z</time></trkpt><trkpt lat="46.15167750453375" lon="12.995458450596123"><ele>180.33333333333334</ele><time>2026-05-01T07:38:44.999Z</time></trkpt><trkpt lat="46.15154657744384" lon="12.995321376740996"><ele>180.0</ele><time>2026-05-01T07:38:45.999Z</time></trkpt><trkpt lat="46.15141937651042" lon="12.995183932266716"><ele>179.66666666666666</ele><time>2026-05-01T07:38:46.999Z</time></trkpt><trkpt lat="46.15129372352364" lon="12.9950432966197"><ele>179.33333333333331</ele><time>2026-05-01T07:38:47.999Z</time></trkpt><trkpt lat="46.15117050116934" lon="12.994892493877373"><ele>179.0</ele><time>2026-05-01T07:38:48.999Z</time></trkpt><trkpt lat="46.15105067931866" lon="12.994727315876307"><ele>179.0</ele><time>2026-05-01T07:38:49.999Z</time></trkpt><trkpt lat="46.15093753838211" lon="12.994550220346415"><ele>179.0</ele><time>2026-05-01T07:38:50.999Z</time></trkpt><trkpt lat="46.15084053440839" lon="12.994339989435375"><ele>179.0</ele><time>2026-05-01T07:38:51.999Z</time></trkpt><trkpt lat="46.15076279060321" lon="12.994102487858495"><ele>179.66666666666666</ele><time>2026-05-01T07:38:52.999Z</time></trkpt><trkpt lat="46.15070815271876" lon="12.993854091266615"><ele>180.33333333333334</ele><time>2026-05-01T07:38:54Z</time></trkpt><trkpt lat="46.15067445136475" lon="12.993601283820006"><ele>181.0</ele><time>2026-05-01T07:38:55Z</time></trkpt><trkpt lat="46.15064916378625" lon="12.993370082450088"><ele>180.5</ele><time>2026-05-01T07:38:56Z</time></trkpt><trkpt lat="46.15062114701214" lon="12.99315896469373"><ele>180.0</ele><time>2026-05-01T07:38:57Z</time></trkpt><trkpt lat="46.15058561888376" lon="12.992962735574018"><ele>179.5</ele><time>2026-05-01T07:38:58Z</time></trkpt><trkpt lat="46.150539021744954" lon="12.99275692901756"><ele>179.0</ele><time>2026-05-01T07:38:59Z</time></trkpt><trkpt lat="46.15047562181302" lon="12.992553399457078"><ele>178.66666666666666</ele><time>2026-05-01T07:39:00Z</time></trkpt><trkpt lat="46.15040382938751" lon="12.992352343614828"><ele>178.33333333333334</ele><time>2026-05-01T07:39:01Z</time></trkpt><trkpt lat="46.15033210414072" lon="12.992150562453052"><ele>178.0</ele><time>2026-05-01T07:39:02Z</time></trkpt><trkpt lat="46.15025903191707" lon="12.99194869295129"><ele>178.0</ele><time>2026-05-01T07:39:03Z</time></trkpt><trkpt lat="46.150183619266485" lon="12.9917444138439"><ele>178.0</ele><time>2026-05-01T07:39:04Z</time></trkpt><trkpt lat="46.150107219829486" lon="12.991535542337141"><ele>178.0</ele><time>2026-05-01T07:39:05Z</time></trkpt><trkpt lat="46.15003095436506" lon="12.99132481093394"><ele>178.0</ele><time>2026-05-01T07:39:06Z</time></trkpt><trkpt lat="46.14995359518852" lon="12.991113620761219"><ele>178.0</ele><time>2026-05-01T07:39:07Z</time></trkpt><trkpt lat="46.14987411040384" lon="12.990902973125644"><ele>178.0</ele><time>2026-05-01T07:39:08Z</time></trkpt><trkpt lat="46.149794785912746" lon="12.990691367949495"><ele>177.0</ele><time>2026-05-01T07:39:09Z</time></trkpt><trkpt lat="46.149715799870904" lon="12.990479092965405"><ele>176.0</ele><time>2026-05-01T07:39:10Z</time></trkpt><trkpt lat="46.14963720980764" lon="12.990267951253772"><ele>175.0</ele><time>2026-05-01T07:39:11Z</time></trkpt><trkpt lat="46.149554567334256" lon="12.99006030327237"><ele>175.0</ele><time>2026-05-01T07:39:12Z</time></trkpt><trkpt lat="46.149468399876746" lon="12.989853879817296"><ele>175.0</ele><time>2026-05-01T07:39:13Z</time></trkpt><trkpt lat="46.14938037980578" lon="12.989650998320936"><ele>175.0</ele><time>2026-05-01T07:39:14Z</time></trkpt><trkpt lat="46.14928993735197" lon="12.989445868932641"><ele>175.0</ele><time>2026-05-01T07:39:15Z</time></trkpt><trkpt lat="46.149193017187315" lon="12.989234981776157"><ele>175.0</ele><time>2026-05-01T07:39:16Z</time></trkpt><trkpt lat="46.14909808173537" lon="12.989028437770084"><ele>175.0</ele><time>2026-05-01T07:39:17Z</time></trkpt><trkpt lat="46.14900283532109" lon="12.988826738923356"><ele>174.0</ele><time>2026-05-01T07:39:18Z</time></trkpt><trkpt lat="46.14890547829385" lon="12.988632150272172"><ele>173.0</ele><time>2026-05-01T07:39:19Z</time></trkpt><trkpt lat="46.148806436190824" lon="12.988444055009769"><ele>172.0</ele><time>2026-05-01T07:39:20Z</time></trkpt><trkpt lat="46.14870645846231" lon="12.988259216673983"><ele>171.66666666666669</ele><time>2026-05-01T07:39:21Z</time></trkpt><trkpt lat="46.148605849825316" lon="12.988075419125474"><ele>171.33333333333334</ele><time>2026-05-01T07:39:22Z</time></trkpt><trkpt lat="46.14850286498387" lon="12.987886290204315"><ele>171.0</ele><time>2026-05-01T07:39:23Z</time></trkpt><trkpt lat="46.14839404938991" lon="12.98768800799986"><ele>171.33333333333334</ele><time>2026-05-01T07:39:24Z</time></trkpt><trkpt lat="46.14827817072483" lon="12.987482574259937"><ele>171.66666666666669</ele><time>2026-05-01T07:39:25Z</time></trkpt><trkpt lat="46.148160325644184" lon="12.987271530139353"><ele>172.0</ele><time>2026-05-01T07:39:26Z</time></trkpt><trkpt lat="46.14804319376916" lon="12.987057197474192"><ele>171.0</ele><time>2026-05-01T07:39:27Z</time></trkpt><trkpt lat="46.14792465110385" lon="12.986846804033773"><ele>170.0</ele><time>2026-05-01T07:39:28Z</time></trkpt><trkpt lat="46.14780210988751" lon="12.986644148345166"><ele>169.0</ele><time>2026-05-01T07:39:29Z</time></trkpt><trkpt lat="46.14767090475796" lon="12.986449328234924"><ele>168.66666666666669</ele><time>2026-05-01T07:39:30Z</time></trkpt><trkpt lat="46.14751811722982" lon="12.986274103567688"><ele>168.33333333333334</ele><time>2026-05-01T07:39:31Z</time></trkpt><trkpt lat="46.147351033013315" lon="12.986120432743968"><ele>168.0</ele><time>2026-05-01T07:39:32Z</time></trkpt><trkpt lat="46.147182293389804" lon="12.985981242906224"><ele>167.33333333333334</ele><time>2026-05-01T07:39:33Z</time></trkpt><trkpt lat="46.14701080212336" lon="12.985848337667278"><ele>166.66666666666669</ele><time>2026-05-01T07:39:34Z</time></trkpt><trkpt lat="46.14683941012601" lon="12.985715360732605"><ele>166.0</ele><time>2026-05-01T07:39:35Z</time></trkpt><trkpt lat="46.146671644456426" lon="12.985577540893559"><ele>165.33333333333334</ele><time>2026-05-01T07:39:36Z</time></trkpt><trkpt lat="46.14650574839286" lon="12.985433137450892"><ele>164.66666666666666</ele><time>2026-05-01T07:39:37Z</time></trkpt><trkpt lat="46.14634718136989" lon="12.985272472968608"><ele>164.0</ele><time>2026-05-01T07:39:38Z</time></trkpt><trkpt lat="46.1462019110034" lon="12.985089092655388"><ele>164.66666666666666</ele><time>2026-05-01T07:39:39Z</time></trkpt><trkpt lat="46.14606772866924" lon="12.984894041069962"><ele>165.33333333333334</ele><time>2026-05-01T07:39:40Z</time></trkpt><trkpt lat="46.145947156178956" lon="12.984686590459102"><ele>166.0</ele><time>2026-05-01T07:39:41Z</time></trkpt><trkpt lat="46.14583786344135" lon="12.98446619276959"><ele>166.0</ele><time>2026-05-01T07:39:42Z</time></trkpt><trkpt lat="46.14574214021957" lon="12.984232379307304"><ele>166.0</ele><time>2026-05-01T07:39:43Z</time></trkpt><trkpt lat="46.145660067470764" lon="12.98398776457178"><ele>166.0</ele><time>2026-05-01T07:39:44Z</time></trkpt><trkpt lat="46.14559123498383" lon="12.983737137082914"><ele>165.66666666666669</ele><time>2026-05-01T07:39:45Z</time></trkpt><trkpt lat="46.14553098692607" lon="12.983480588697573"><ele>165.33333333333334</ele><time>2026-05-01T07:39:46Z</time></trkpt><trkpt lat="46.14547732301756" lon="12.983224055191293"><ele>165.0</ele><time>2026-05-01T07:39:47Z</time></trkpt><trkpt lat="46.14542426394328" lon="12.982973459351317"><ele>165.0</ele><time>2026-05-01T07:39:48Z</time></trkpt><trkpt lat="46.14536993745248" lon="12.98272842732634"><ele>165.0</ele><time>2026-05-01T07:39:49Z</time></trkpt><trkpt lat="46.14531655394951" lon="12.982483767831072"><ele>165.0</ele><time>2026-05-01T07:39:50Z</time></trkpt><trkpt lat="46.14526277953896" lon="12.982237142951428"><ele>165.0</ele><time>2026-05-01T07:39:51Z</time></trkpt><trkpt lat="46.145205445420984" lon="12.98199158380273"><ele>165.0</ele><time>2026-05-01T07:39:52Z</time></trkpt><trkpt lat="46.145140082287604" lon="12.981745452038403"><ele>165.0</ele><time>2026-05-01T07:39:53Z</time></trkpt><trkpt lat="46.14506902531261" lon="12.981495436072805"><ele>165.0</ele><time>2026-05-01T07:39:54Z</time></trkpt><trkpt lat="46.144989244112274" lon="12.981245252504037"><ele>165.0</ele><time>2026-05-01T07:39:55Z</time></trkpt><trkpt lat="46.144902382872225" lon="12.980993643848437"><ele>165.0</ele><time>2026-05-01T07:39:56Z</time></trkpt><trkpt lat="46.14481079405617" lon="12.980741781612583"><ele>163.66666666666666</ele><time>2026-05-01T07:39:57Z</time></trkpt><trkpt lat="46.144716724949475" lon="12.98049381065146"><ele>162.33333333333331</ele><time>2026-05-01T07:39:58Z</time></trkpt><trkpt lat="46.14462174984748" lon="12.98025304121484"><ele>161.0</ele><time>2026-05-01T07:39:59Z</time></trkpt><trkpt lat="46.14452347590301" lon="12.980018030828514"><ele>161.0</ele><time>2026-05-01T07:40:00Z</time></trkpt><trkpt lat="46.144419729793576" lon="12.979791607583955"><ele>161.0</ele><time>2026-05-01T07:40:01Z</time></trkpt><trkpt lat="46.14431341067074" lon="12.979570371657411"><ele>161.0</ele><time>2026-05-01T07:40:02Z</time></trkpt><trkpt lat="46.144205625636594" lon="12.979350947714925"><ele>160.66666666666666</ele><time>2026-05-01T07:40:03Z</time></trkpt><trkpt lat="46.14409658941924" lon="12.979131710772098"><ele>160.33333333333334</ele><time>2026-05-01T07:40:04Z</time></trkpt><trkpt lat="46.143984131176644" lon="12.97891123033452"><ele>160.0</ele><time>2026-05-01T07:40:05Z</time></trkpt><trkpt lat="46.14386574938635" lon="12.978701928148444"><ele>160.0</ele><time>2026-05-01T07:40:06Z</time></trkpt><trkpt lat="46.14373855112195" lon="12.978515537019355"><ele>160.0</ele><time>2026-05-01T07:40:06.999Z</time></trkpt><trkpt lat="46.14360289528576" lon="12.978350208934762"><ele>160.0</ele><time>2026-05-01T07:40:07.999Z</time></trkpt><trkpt lat="46.1434598512842" lon="12.978205258082387"><ele>160.0</ele><time>2026-05-01T07:40:08.999Z</time></trkpt><trkpt lat="46.14330880643766" lon="12.978070752223717"><ele>160.0</ele><time>2026-05-01T07:40:09.999Z</time></trkpt><trkpt lat="46.1431506623812" lon="12.977939851966516"><ele>160.0</ele><time>2026-05-01T07:40:10.999Z</time></trkpt><trkpt lat="46.14298595888978" lon="12.977810120711712"><ele>160.0</ele><time>2026-05-01T07:40:11.999Z</time></trkpt><trkpt lat="46.14282221097491" lon="12.977678861461962"><ele>160.0</ele><time>2026-05-01T07:40:12.999Z</time></trkpt><trkpt lat="46.14265972866658" lon="12.977548291737584"><ele>160.0</ele><time>2026-05-01T07:40:13.999Z</time></trkpt><trkpt lat="46.142491795180405" lon="12.977411696945392"><ele>159.33333333333334</ele><time>2026-05-01T07:40:14.999Z</time></trkpt><trkpt lat="46.14232428370792" lon="12.977272672490724"><ele>158.66666666666666</ele><time>2026-05-01T07:40:15.999Z</time></trkpt><trkpt lat="46.14215668190125" lon="12.977129261748615"><ele>158.0</ele><time>2026-05-01T07:40:16.999Z</time></trkpt><trkpt lat="46.141995404853255" lon="12.976987534549314"><ele>158.0</ele><time>2026-05-01T07:40:17.999Z</time></trkpt><trkpt lat="46.14184228318553" lon="12.976852861781108"><ele>158.0</ele><time>2026-05-01T07:40:18.999Z</time></trkpt><trkpt lat="46.14169522692329" lon="12.976727598202206"><ele>158.0</ele><time>2026-05-01T07:40:19.999Z</time></trkpt><trkpt lat="46.14154588178463" lon="12.976605590391095"><ele>158.33333333333331</ele><time>2026-05-01T07:40:20.999Z</time></trkpt><trkpt lat="46.141395716356904" lon="12.976483275340039"><ele>158.66666666666666</ele><time>2026-05-01T07:40:21.999Z</time></trkpt><trkpt lat="46.14124606917897" lon="12.976361949648247"><ele>159.0</ele><time>2026-05-01T07:40:22.999Z</time></trkpt><trkpt lat="46.14109286893605" lon="12.97623962977157"><ele>159.0</ele><time>2026-05-01T07:40:23.999Z</time></trkpt><trkpt lat="46.140934723252656" lon="12.97611604311373"><ele>159.0</ele><time>2026-05-01T07:40:24.999Z</time></trkpt><trkpt lat="46.14077815798752" lon="12.975990390782513"><ele>159.0</ele><time>2026-05-01T07:40:25.999Z</time></trkpt><trkpt lat="46.14062583327595" lon="12.975859022732417"><ele>158.0</ele><time>2026-05-01T07:40:26.999Z</time></trkpt><trkpt lat="46.14047380017284" lon="12.975720139790605"><ele>157.0</ele><time>2026-05-01T07:40:27.999Z</time></trkpt><trkpt lat="46.14032272285931" lon="12.975573577448214"><ele>156.0</ele><time>2026-05-01T07:40:28.999Z</time></trkpt><trkpt lat="46.140169507281584" lon="12.975422871463403"><ele>156.0</ele><time>2026-05-01T07:40:29.999Z</time></trkpt><trkpt lat="46.140014775915745" lon="12.975269365052396"><ele>156.0</ele><time>2026-05-01T07:40:30.999Z</time></trkpt><trkpt lat="46.13985302213972" lon="12.975112153439156"><ele>156.0</ele><time>2026-05-01T07:40:31.999Z</time></trkpt><trkpt lat="46.13968576703411" lon="12.97494905451015"><ele>156.0</ele><time>2026-05-01T07:40:32.999Z</time></trkpt><trkpt lat="46.13951375330799" lon="12.974780801051217"><ele>156.0</ele><time>2026-05-01T07:40:33.999Z</time></trkpt><trkpt lat="46.13934176340582" lon="12.974608474973186"><ele>156.0</ele><time>2026-05-01T07:40:34.999Z</time></trkpt><trkpt lat="46.139171124467616" lon="12.974438983358336"><ele>155.33333333333334</ele><time>2026-05-01T07:40:35.999Z</time></trkpt><trkpt lat="46.139000080235164" lon="12.974270138247135"><ele>154.66666666666669</ele><time>2026-05-01T07:40:36.999Z</time></trkpt><trkpt lat="46.13883038817103" lon="12.974100862457641"><ele>154.0</ele><time>2026-05-01T07:40:37.999Z</time></trkpt><trkpt lat="46.138661532696865" lon="12.97393539180943"><ele>153.66666666666669</ele><time>2026-05-01T07:40:38.999Z</time></trkpt><trkpt lat="46.13849233851838" lon="12.973774293161343"><ele>153.33333333333334</ele><time>2026-05-01T07:40:39.999Z</time></trkpt><trkpt lat="46.13832069205473" lon="12.97362199397804"><ele>153.0</ele><time>2026-05-01T07:40:40.999Z</time></trkpt><trkpt lat="46.13814176046036" lon="12.973484228732074"><ele>153.0</ele><time>2026-05-01T07:40:41.999Z</time></trkpt><trkpt lat="46.13796223137607" lon="12.973357341899758"><ele>153.0</ele><time>2026-05-01T07:40:42.999Z</time></trkpt><trkpt lat="46.13778123978402" lon="12.973237209238155"><ele>153.0</ele><time>2026-05-01T07:40:43.999Z</time></trkpt><trkpt lat="46.137604286153824" lon="12.97311960565644"><ele>153.66666666666666</ele><time>2026-05-01T07:40:44.999Z</time></trkpt><trkpt lat="46.13742385548491" lon="12.973000146077402"><ele>154.33333333333331</ele><time>2026-05-01T07:40:45.999Z</time></trkpt><trkpt lat="46.1372440283016" lon="12.972881842336127"><ele>155.0</ele><time>2026-05-01T07:40:46.999Z</time></trkpt><trkpt lat="46.13706573411194" lon="12.972767412750155"><ele>155.0</ele><time>2026-05-01T07:40:47.999Z</time></trkpt><trkpt lat="46.136890087861005" lon="12.97265791611233"><ele>155.0</ele><time>2026-05-01T07:40:48.999Z</time></trkpt><trkpt lat="46.136720182246364" lon="12.972549644327957"><ele>155.0</ele><time>2026-05-01T07:40:49.999Z</time></trkpt><trkpt lat="46.136554154005545" lon="12.97244562802968"><ele>155.33333333333331</ele><time>2026-05-01T07:40:50.999Z</time></trkpt><trkpt lat="46.13639084836716" lon="12.972344516282991"><ele>155.66666666666666</ele><time>2026-05-01T07:40:51.999Z</time></trkpt><trkpt lat="46.13622957350637" lon="12.972244600007357"><ele>156.0</ele><time>2026-05-01T07:40:52.999Z</time></trkpt><trkpt lat="46.136068865583496" lon="12.9721479837816"><ele>156.0</ele><time>2026-05-01T07:40:53.999Z</time></trkpt><trkpt lat="46.13590892927263" lon="12.972052922756706"><ele>156.0</ele><time>2026-05-01T07:40:54.999Z</time></trkpt><trkpt lat="46.13574990369964" lon="12.971961975420438"><ele>156.0</ele><time>2026-05-01T07:40:55.999Z</time></trkpt><trkpt lat="46.135591169798296" lon="12.971872974023963"><ele>155.33333333333334</ele><time>2026-05-01T07:40:56.999Z</time></trkpt><trkpt lat="46.13543022187018" lon="12.971783589443659"><ele>154.66666666666669</ele><time>2026-05-01T07:40:57.999Z</time></trkpt><trkpt lat="46.13526880762767" lon="12.9716954854407"><ele>154.0</ele><time>2026-05-01T07:40:58.999Z</time></trkpt><trkpt lat="46.135105899338384" lon="12.97160786304641"><ele>154.0</ele><time>2026-05-01T07:41:00Z</time></trkpt><trkpt lat="46.13494466955452" lon="12.971519755311279"><ele>154.0</ele><time>2026-05-01T07:41:01Z</time></trkpt><trkpt lat="46.1347840938219" lon="12.971437679026474"><ele>154.0</ele><time>2026-05-01T07:41:02Z</time></trkpt><trkpt lat="46.134628557647176" lon="12.971358854927912"><ele>153.33333333333334</ele><time>2026-05-01T07:41:03Z</time></trkpt><trkpt lat="46.13447989037334" lon="12.971283836021446"><ele>152.66666666666666</ele><time>2026-05-01T07:41:04Z</time></trkpt><trkpt lat="46.134334264966355" lon="12.971211743861023"><ele>152.0</ele><time>2026-05-01T07:41:05Z</time></trkpt><trkpt lat="46.13419175246782" lon="12.971141571618414"><ele>152.0</ele><time>2026-05-01T07:41:06Z</time></trkpt><trkpt lat="46.13405866280228" lon="12.971078514044496"><ele>152.0</ele><time>2026-05-01T07:41:07Z</time></trkpt><trkpt lat="46.133926855654636" lon="12.971016193638174"><ele>152.0</ele><time>2026-05-01T07:41:08Z</time></trkpt><trkpt lat="46.133793046963916" lon="12.970951739498677"><ele>152.0</ele><time>2026-05-01T07:41:09Z</time></trkpt><trkpt lat="46.13365796512558" lon="12.970887241666357"><ele>152.33333333333331</ele><time>2026-05-01T07:41:10Z</time></trkpt><trkpt lat="46.13352003321051" lon="12.970819694445535"><ele>152.66666666666666</ele><time>2026-05-01T07:41:11Z</time></trkpt><trkpt lat="46.133378550530175" lon="12.970752234388794"><ele>153.0</ele><time>2026-05-01T07:41:12Z</time></trkpt><trkpt lat="46.13321736626135" lon="12.970677437232192"><ele>153.0</ele><time>2026-05-01T07:41:13Z</time></trkpt><trkpt lat="46.133054379840374" lon="12.970600518470809"><ele>153.0</ele><time>2026-05-01T07:41:14Z</time></trkpt><trkpt lat="46.13290072959876" lon="12.970529268460224"><ele>153.0</ele><time>2026-05-01T07:41:15Z</time></trkpt><trkpt lat="46.13274812184292" lon="12.970455548350214"><ele>153.0</ele><time>2026-05-01T07:41:16Z</time></trkpt><trkpt lat="46.13259443077644" lon="12.970373034622709"><ele>153.0</ele><time>2026-05-01T07:41:17Z</time></trkpt><trkpt lat="46.13244281735243" lon="12.970286353943424"><ele>153.0</ele><time>2026-05-01T07:41:18Z</time></trkpt><trkpt lat="46.13228864656174" lon="12.970194027663428"><ele>153.0</ele><time>2026-05-01T07:41:19Z</time></trkpt><trkpt lat="46.13213356451966" lon="12.970100932917086"><ele>153.0</ele><time>2026-05-01T07:41:20Z</time></trkpt><trkpt lat="46.13197696698777" lon="12.970009362137025"><ele>153.0</ele><time>2026-05-01T07:41:21Z</time></trkpt><trkpt lat="46.13181519810197" lon="12.969914859622381"><ele>153.0</ele><time>2026-05-01T07:41:22Z</time></trkpt><trkpt lat="46.1316504644843" lon="12.969820817800372"><ele>153.0</ele><time>2026-05-01T07:41:23Z</time></trkpt><trkpt lat="46.13148492981536" lon="12.969722571931019"><ele>153.0</ele><time>2026-05-01T07:41:24Z</time></trkpt><trkpt lat="46.13132103478491" lon="12.96962527539445"><ele>151.66666666666666</ele><time>2026-05-01T07:41:25Z</time></trkpt><trkpt lat="46.13115970830417" lon="12.969529225826873"><ele>150.33333333333331</ele><time>2026-05-01T07:41:26Z</time></trkpt><trkpt lat="46.13099573523931" lon="12.96943095887502"><ele>149.0</ele><time>2026-05-01T07:41:27Z</time></trkpt><trkpt lat="46.130832547158825" lon="12.96933140647299"><ele>149.0</ele><time>2026-05-01T07:41:28Z</time></trkpt><trkpt lat="46.13066988779587" lon="12.969229847140207"><ele>149.0</ele><time>2026-05-01T07:41:29Z</time></trkpt><trkpt lat="46.1305144769347" lon="12.969130733259687"><ele>149.0</ele><time>2026-05-01T07:41:30Z</time></trkpt><trkpt lat="46.130362184402536" lon="12.969033236807057"><ele>149.66666666666666</ele><time>2026-05-01T07:41:31Z</time></trkpt><trkpt lat="46.13020766648805" lon="12.96893756988877"><ele>150.33333333333334</ele><time>2026-05-01T07:41:32Z</time></trkpt><trkpt lat="46.130052414269656" lon="12.968840517451786"><ele>151.0</ele><time>2026-05-01T07:41:33Z</time></trkpt><trkpt lat="46.12989401273522" lon="12.968740440408805"><ele>150.33333333333334</ele><time>2026-05-01T07:41:34Z</time></trkpt><trkpt lat="46.12973281795866" lon="12.96863869348441"><ele>149.66666666666666</ele><time>2026-05-01T07:41:35Z</time></trkpt><trkpt lat="46.129568111795976" lon="12.968536996704396"><ele>149.0</ele><time>2026-05-01T07:41:36Z</time></trkpt><trkpt lat="46.129404741892415" lon="12.968436070343433"><ele>149.33333333333331</ele><time>2026-05-01T07:41:37Z</time></trkpt><trkpt lat="46.12924048582561" lon="12.968334039031621"><ele>149.66666666666666</ele><time>2026-05-01T07:41:38Z</time></trkpt><trkpt lat="46.129074688135894" lon="12.968230900094664"><ele>150.0</ele><time>2026-05-01T07:41:39Z</time></trkpt><trkpt lat="46.12890959299641" lon="12.96812681159116"><ele>150.0</ele><time>2026-05-01T07:41:40Z</time></trkpt><trkpt lat="46.12875141697927" lon="12.96802813445036"><ele>150.0</ele><time>2026-05-01T07:41:41Z</time></trkpt><trkpt lat="46.12859798351652" lon="12.967933441181442"><ele>150.0</ele><time>2026-05-01T07:41:42Z</time></trkpt><trkpt lat="46.12844774506523" lon="12.967842224704466"><ele>150.0</ele><time>2026-05-01T07:41:43Z</time></trkpt><trkpt lat="46.12830195959833" lon="12.967754462774558"><ele>150.0</ele><time>2026-05-01T07:41:44Z</time></trkpt><trkpt lat="46.12816057718773" lon="12.9676716572257"><ele>150.0</ele><time>2026-05-01T07:41:45Z</time></trkpt><trkpt lat="46.12802346406559" lon="12.967591870989926"><ele>149.25</ele><time>2026-05-01T07:41:46Z</time></trkpt><trkpt lat="46.12789002018539" lon="12.96751703092873"><ele>148.5</ele><time>2026-05-01T07:41:47Z</time></trkpt><trkpt lat="46.1277595164066" lon="12.967446739066501"><ele>147.75</ele><time>2026-05-01T07:41:48Z</time></trkpt><trkpt lat="46.127633002327194" lon="12.967377717278287"><ele>147.0</ele><time>2026-05-01T07:41:49Z</time></trkpt><trkpt lat="46.12751452489058" lon="12.967313431669972"><ele>147.0</ele><time>2026-05-01T07:41:50Z</time></trkpt><trkpt lat="46.12740655017881" lon="12.96725440652826"><ele>147.0</ele><time>2026-05-01T07:41:51Z</time></trkpt><trkpt lat="46.12730365067562" lon="12.967197580278707"><ele>147.0</ele><time>2026-05-01T07:41:52Z</time></trkpt><trkpt lat="46.127199817919305" lon="12.967139411701217"><ele>147.0</ele><time>2026-05-01T07:41:53Z</time></trkpt><trkpt lat="46.12709262590104" lon="12.967082250266106"><ele>147.5</ele><time>2026-05-01T07:41:54Z</time></trkpt><trkpt lat="46.12698077836823" lon="12.967022373463722"><ele>148.0</ele><time>2026-05-01T07:41:55Z</time></trkpt><trkpt lat="46.126870027422285" lon="12.966959185344626"><ele>148.5</ele><time>2026-05-01T07:41:56Z</time></trkpt><trkpt lat="46.12675554720436" lon="12.966898125539021"><ele>149.0</ele><time>2026-05-01T07:41:57Z</time></trkpt><trkpt lat="46.12663510278816" lon="12.966832606978254"><ele>148.25</ele><time>2026-05-01T07:41:58Z</time></trkpt><trkpt lat="46.126511268456085" lon="12.966768683028963"><ele>147.5</ele><time>2026-05-01T07:41:59Z</time></trkpt><trkpt lat="46.12638957456456" lon="12.966702418609644"><ele>146.75</ele><time>2026-05-01T07:42:00Z</time></trkpt><trkpt lat="46.126268489894365" lon="12.966635296719959"><ele>146.0</ele><time>2026-05-01T07:42:01Z</time></trkpt><trkpt lat="46.12614895493355" lon="12.966567090523698"><ele>146.0</ele><time>2026-05-01T07:42:02Z</time></trkpt><trkpt lat="46.126030635161044" lon="12.966491987098815"><ele>146.0</ele><time>2026-05-01T07:42:03Z</time></trkpt><trkpt lat="46.12591545486651" lon="12.966413791128724"><ele>146.0</ele><time>2026-05-01T07:42:04Z</time></trkpt><trkpt lat="46.125798638492014" lon="12.966331003289566"><ele>146.0</ele><time>2026-05-01T07:42:05Z</time></trkpt><trkpt lat="46.125679244335" lon="12.96624070036683"><ele>145.5</ele><time>2026-05-01T07:42:06Z</time></trkpt><trkpt lat="46.12555917635837" lon="12.966140975050973"><ele>145.0</ele><time>2026-05-01T07:42:07Z</time></trkpt><trkpt lat="46.12545136486336" lon="12.966033184592954"><ele>144.5</ele><time>2026-05-01T07:42:08Z</time></trkpt><trkpt lat="46.125355996753804" lon="12.965921211392413"><ele>144.0</ele><time>2026-05-01T07:42:09Z</time></trkpt><trkpt lat="46.12526940158047" lon="12.965815504845592"><ele>144.0</ele><time>2026-05-01T07:42:10Z</time></trkpt><trkpt lat="46.125185500931316" lon="12.965712100533008"><ele>144.0</ele><time>2026-05-01T07:42:11Z</time></trkpt><trkpt lat="46.12510515118898" lon="12.965607828573226"><ele>144.0</ele><time>2026-05-01T07:42:12Z</time></trkpt><trkpt lat="46.1250263087028" lon="12.965498271423003"><ele>144.0</ele><time>2026-05-01T07:42:13Z</time></trkpt><trkpt lat="46.12494875024367" lon="12.965389203142884"><ele>144.0</ele><time>2026-05-01T07:42:13.999Z</time></trkpt><trkpt lat="46.12487254739007" lon="12.965279348640731"><ele>143.8</ele><time>2026-05-01T07:42:14.999Z</time></trkpt><trkpt lat="46.12480139543819" lon="12.965174757327008"><ele>143.60000000000002</ele><time>2026-05-01T07:42:15.999Z</time></trkpt><trkpt lat="46.12473538141971" lon="12.96507971792171"><ele>143.4</ele><time>2026-05-01T07:42:16.999Z</time></trkpt><trkpt lat="46.12466727126718" lon="12.964984206301478"><ele>143.20000000000002</ele><time>2026-05-01T07:42:17.999Z</time></trkpt><trkpt lat="46.12459672449328" lon="12.964881522382083"><ele>143.0</ele><time>2026-05-01T07:42:18.999Z</time></trkpt><trkpt lat="46.124523821509875" lon="12.964774992405689"><ele>143.0</ele><time>2026-05-01T07:42:19.999Z</time></trkpt><trkpt lat="46.124445014855844" lon="12.964660000915535"><ele>143.0</ele><time>2026-05-01T07:42:20.999Z</time></trkpt><trkpt lat="46.12436098918837" lon="12.96453774495955"><ele>143.0</ele><time>2026-05-01T07:42:21.999Z</time></trkpt><trkpt lat="46.12427819336655" lon="12.96441936827327"><ele>143.0</ele><time>2026-05-01T07:42:22.999Z</time></trkpt><trkpt lat="46.12419788398848" lon="12.964305034437338"><ele>143.0</ele><time>2026-05-01T07:42:23.999Z</time></trkpt><trkpt lat="46.12412019534769" lon="12.964196823082876"><ele>143.0</ele><time>2026-05-01T07:42:24.999Z</time></trkpt><trkpt lat="46.12404347104515" lon="12.964090005374914"><ele>143.0</ele><time>2026-05-01T07:42:25.999Z</time></trkpt><trkpt lat="46.12396526688559" lon="12.963986962515865"><ele>143.0</ele><time>2026-05-01T07:42:26.999Z</time></trkpt><trkpt lat="46.12388669823412" lon="12.963892247372984"><ele>143.0</ele><time>2026-05-01T07:42:27.999Z</time></trkpt><trkpt lat="46.123807829902916" lon="12.963800982152607"><ele>143.4</ele><time>2026-05-01T07:42:28.999Z</time></trkpt><trkpt lat="46.123722867733946" lon="12.963713648436254"><ele>143.8</ele><time>2026-05-01T07:42:29.999Z</time></trkpt><trkpt lat="46.12363148908582" lon="12.963626610933263"><ele>144.2</ele><time>2026-05-01T07:42:30.999Z</time></trkpt><trkpt lat="46.12353511700809" lon="12.963544184934818"><ele>144.6</ele><time>2026-05-01T07:42:31.999Z</time></trkpt><trkpt lat="46.12343398338036" lon="12.963468056900707"><ele>145.0</ele><time>2026-05-01T07:42:32.999Z</time></trkpt><trkpt lat="46.12333372667629" lon="12.963398750447707"><ele>145.0</ele><time>2026-05-01T07:42:33.999Z</time></trkpt><trkpt lat="46.123234248464584" lon="12.963334496071118"><ele>145.0</ele><time>2026-05-01T07:42:34.999Z</time></trkpt><trkpt lat="46.12313675897033" lon="12.963274607240994"><ele>145.0</ele><time>2026-05-01T07:42:35.999Z</time></trkpt><trkpt lat="46.123041144629" lon="12.96321656102635"><ele>145.0</ele><time>2026-05-01T07:42:36.999Z</time></trkpt><trkpt lat="46.12294530093433" lon="12.963159627586554"><ele>145.0</ele><time>2026-05-01T07:42:37.999Z</time></trkpt><trkpt lat="46.122855141045655" lon="12.96310751050566"><ele>145.0</ele><time>2026-05-01T07:42:38.999Z</time></trkpt><trkpt lat="46.122767736750596" lon="12.963057486405805"><ele>145.0</ele><time>2026-05-01T07:42:39.999Z</time></trkpt><trkpt lat="46.122686119156384" lon="12.963009841350306"><ele>145.0</ele><time>2026-05-01T07:42:40.999Z</time></trkpt><trkpt lat="46.12259970449838" lon="12.962959428577536"><ele>145.0</ele><time>2026-05-01T07:42:41.999Z</time></trkpt><trkpt lat="46.122509970174804" lon="12.962908231231467"><ele>145.0</ele><time>2026-05-01T07:42:42.999Z</time></trkpt><trkpt lat="46.12241918978654" lon="12.962856149327"><ele>144.6</ele><time>2026-05-01T07:42:43.999Z</time></trkpt><trkpt lat="46.122326376614836" lon="12.962798941567032"><ele>144.2</ele><time>2026-05-01T07:42:44.999Z</time></trkpt><trkpt lat="46.122228382885474" lon="12.962744063005973"><ele>143.8</ele><time>2026-05-01T07:42:45.999Z</time></trkpt><trkpt lat="46.12212444229946" lon="12.962686789087531"><ele>143.4</ele><time>2026-05-01T07:42:46.999Z</time></trkpt><trkpt lat="46.122023695777706" lon="12.962628224978461"><ele>143.0</ele><time>2026-05-01T07:42:47.999Z</time></trkpt><trkpt lat="46.12192398776506" lon="12.962570627452228"><ele>143.20000000000002</ele><time>2026-05-01T07:42:48.999Z</time></trkpt><trkpt lat="46.121825513333924" lon="12.962512079835701"><ele>143.4</ele><time>2026-05-01T07:42:49.999Z</time></trkpt><trkpt lat="46.12172735034604" lon="12.96245460423427"><ele>143.60000000000002</ele><time>2026-05-01T07:42:50.999Z</time></trkpt><trkpt lat="46.12162819919771" lon="12.962397834777576"><ele>143.8</ele><time>2026-05-01T07:42:51.999Z</time></trkpt><trkpt lat="46.12152795459789" lon="12.96234126136792"><ele>144.0</ele><time>2026-05-01T07:42:52.999Z</time></trkpt><trkpt lat="46.1214271991163" lon="12.962284341618691"><ele>143.6</ele><time>2026-05-01T07:42:53.999Z</time></trkpt><trkpt lat="46.12132752646536" lon="12.962228297910066"><ele>143.2</ele><time>2026-05-01T07:42:54.999Z</time></trkpt><trkpt lat="46.12123273005457" lon="12.962172009253164"><ele>142.79999999999998</ele><time>2026-05-01T07:42:55.999Z</time></trkpt><trkpt lat="46.12114566502834" lon="12.962122205208958"><ele>142.4</ele><time>2026-05-01T07:42:56.999Z</time></trkpt><trkpt lat="46.12106053022869" lon="12.962073702247338"><ele>142.0</ele><time>2026-05-01T07:42:57.999Z</time></trkpt><trkpt lat="46.12097578219565" lon="12.962024044794468"><ele>142.0</ele><time>2026-05-01T07:42:58.999Z</time></trkpt><trkpt lat="46.12089782026684" lon="12.961977920956947"><ele>142.0</ele><time>2026-05-01T07:42:59.999Z</time></trkpt><trkpt lat="46.120817595847754" lon="12.961931554714333"><ele>142.0</ele><time>2026-05-01T07:43:00.999Z</time></trkpt><trkpt lat="46.12073557329905" lon="12.961885580900772"><ele>142.0</ele><time>2026-05-01T07:43:01.999Z</time></trkpt><trkpt lat="46.12065317843909" lon="12.961836311725818"><ele>142.0</ele><time>2026-05-01T07:43:02.999Z</time></trkpt><trkpt lat="46.120570947180454" lon="12.961786663972699"><ele>142.0</ele><time>2026-05-01T07:43:03.999Z</time></trkpt><trkpt lat="46.12049120877509" lon="12.961739165809037"><ele>141.6</ele><time>2026-05-01T07:43:04.999Z</time></trkpt><trkpt lat="46.12041962850015" lon="12.961695806736909"><ele>141.2</ele><time>2026-05-01T07:43:06Z</time></trkpt><trkpt lat="46.12035344226228" lon="12.961656679570478"><ele>140.8</ele><time>2026-05-01T07:43:07Z</time></trkpt><trkpt lat="46.120246153735685" lon="12.961594127439065"><ele>140.4</ele><time>2026-05-01T07:43:09Z</time></trkpt><trkpt lat="46.120152511130684" lon="12.961539984573658"><ele>140.0</ele><time>2026-05-01T07:43:11Z</time></trkpt><trkpt lat="46.12007359472127" lon="12.961491293215838"><ele>140.0</ele><time>2026-05-01T07:43:13Z</time></trkpt><trkpt lat="46.119997239240405" lon="12.961446161502975"><ele>140.0</ele><time>2026-05-01T07:43:15Z</time></trkpt><trkpt lat="46.11991382033006" lon="12.961400122432101"><ele>140.0</ele><time>2026-05-01T07:43:17Z</time></trkpt><trkpt lat="46.11982896215119" lon="12.961350191209531"><ele>140.0</ele><time>2026-05-01T07:43:19Z</time></trkpt><trkpt lat="46.119739142053106" lon="12.961295397079398"><ele>140.0</ele><time>2026-05-01T07:43:21Z</time></trkpt><trkpt lat="46.11964446552013" lon="12.961225759311793"><ele>140.2</ele><time>2026-05-01T07:43:23Z</time></trkpt><trkpt lat="46.11958266278434" lon="12.961173022018627"><ele>140.4</ele><time>2026-05-01T07:43:25Z</time></trkpt><trkpt lat="46.11952150205843" lon="12.961084630814483"><ele>140.6</ele><time>2026-05-01T07:43:29Z</time></trkpt><trkpt lat="46.11944327522403" lon="12.960948627140855"><ele>140.8</ele><time>2026-05-01T07:43:31Z</time></trkpt><trkpt lat="46.119357083641496" lon="12.960912263478123"><ele>141.0</ele><time>2026-05-01T07:43:32Z</time></trkpt><trkpt lat="46.11924047032079" lon="12.960908933691655"><ele>141.0</ele><time>2026-05-01T07:43:33Z</time></trkpt><trkpt lat="46.11910365886238" lon="12.96087759512204"><ele>141.0</ele><time>2026-05-01T07:43:34Z</time></trkpt><trkpt lat="46.118962796654806" lon="12.960782622384674"><ele>141.0</ele><time>2026-05-01T07:43:35Z</time></trkpt><trkpt lat="46.11882189555312" lon="12.960679136490871"><ele>140.5</ele><time>2026-05-01T07:43:36Z</time></trkpt><trkpt lat="46.118688681448525" lon="12.960576594392178"><ele>140.0</ele><time>2026-05-01T07:43:37Z</time></trkpt><trkpt lat="46.11856483356096" lon="12.960475220108485"><ele>139.5</ele><time>2026-05-01T07:43:38Z</time></trkpt><trkpt lat="46.118447008284704" lon="12.960377948218687"><ele>139.0</ele><time>2026-05-01T07:43:39Z</time></trkpt><trkpt lat="46.118333605739174" lon="12.960280883028508"><ele>138.75</ele><time>2026-05-01T07:43:40Z</time></trkpt><trkpt lat="46.11822394274242" lon="12.96018919245405"><ele>138.5</ele><time>2026-05-01T07:43:41Z</time></trkpt><trkpt lat="46.118112379427515" lon="12.96009726981699"><ele>138.25</ele><time>2026-05-01T07:43:42Z</time></trkpt><trkpt lat="46.11799798296476" lon="12.960003861606816"><ele>138.0</ele><time>2026-05-01T07:43:43Z</time></trkpt><trkpt lat="46.11787900803524" lon="12.95990787285823"><ele>138.0</ele><time>2026-05-01T07:43:44Z</time></trkpt><trkpt lat="46.11775636299843" lon="12.959805703441795"><ele>138.0</ele><time>2026-05-01T07:43:45Z</time></trkpt><trkpt lat="46.11763002477711" lon="12.959700455442938"><ele>138.0</ele><time>2026-05-01T07:43:46Z</time></trkpt><trkpt lat="46.11750518018989" lon="12.959597811733117"><ele>138.0</ele><time>2026-05-01T07:43:47Z</time></trkpt><trkpt lat="46.11738234025542" lon="12.959494071205091"><ele>138.0</ele><time>2026-05-01T07:43:48Z</time></trkpt><trkpt lat="46.117253405106034" lon="12.959385572037856"><ele>138.0</ele><time>2026-05-01T07:43:49Z</time></trkpt><trkpt lat="46.11712120094603" lon="12.959278320402088"><ele>138.0</ele><time>2026-05-01T07:43:50Z</time></trkpt><trkpt lat="46.116985557438746" lon="12.95916653708663"><ele>138.0</ele><time>2026-05-01T07:43:51Z</time></trkpt><trkpt lat="46.116846265901174" lon="12.959053182449045"><ele>138.0</ele><time>2026-05-01T07:43:52Z</time></trkpt><trkpt lat="46.11670464141521" lon="12.958938458865955"><ele>138.0</ele><time>2026-05-01T07:43:53Z</time></trkpt><trkpt lat="46.11656003828833" lon="12.958820679190685"><ele>138.0</ele><time>2026-05-01T07:43:54Z</time></trkpt><trkpt lat="46.116412700677216" lon="12.958700316499412"><ele>138.0</ele><time>2026-05-01T07:43:55Z</time></trkpt><trkpt lat="46.11626142740394" lon="12.95857911419322"><ele>138.0</ele><time>2026-05-01T07:43:56Z</time></trkpt><trkpt lat="46.11610596622177" lon="12.958452171470555"><ele>137.33333333333334</ele><time>2026-05-01T07:43:57Z</time></trkpt><trkpt lat="46.11594959959296" lon="12.958323016555314"><ele>136.66666666666669</ele><time>2026-05-01T07:43:58Z</time></trkpt><trkpt lat="46.115794109207656" lon="12.958195493630457"><ele>136.0</ele><time>2026-05-01T07:43:59Z</time></trkpt><trkpt lat="46.11564317871423" lon="12.958069943908272"><ele>136.0</ele><time>2026-05-01T07:44:00Z</time></trkpt><trkpt lat="46.11549284884186" lon="12.957945780604215"><ele>136.0</ele><time>2026-05-01T07:44:01Z</time></trkpt><trkpt lat="46.11534016551347" lon="12.95781956726924"><ele>136.0</ele><time>2026-05-01T07:44:02Z</time></trkpt><trkpt lat="46.115182930401424" lon="12.957689879103897"><ele>136.0</ele><time>2026-05-01T07:44:03Z</time></trkpt><trkpt lat="46.11502016750837" lon="12.957555491994677"><ele>136.0</ele><time>2026-05-01T07:44:04Z</time></trkpt><trkpt lat="46.114857321173794" lon="12.957419134921913"><ele>136.0</ele><time>2026-05-01T07:44:05Z</time></trkpt><trkpt lat="46.114694336264776" lon="12.957285147172362"><ele>136.33333333333334</ele><time>2026-05-01T07:44:06Z</time></trkpt><trkpt lat="46.11453275139367" lon="12.957153046001725"><ele>136.66666666666666</ele><time>2026-05-01T07:44:07Z</time></trkpt><trkpt lat="46.11437371302057" lon="12.957022540148342"><ele>137.0</ele><time>2026-05-01T07:44:08Z</time></trkpt><trkpt lat="46.114215853678715" lon="12.956893145591208"><ele>137.0</ele><time>2026-05-01T07:44:09Z</time></trkpt><trkpt lat="46.11405529588671" lon="12.956763670361974"><ele>137.0</ele><time>2026-05-01T07:44:10Z</time></trkpt><trkpt lat="46.11389459136918" lon="12.956631731529496"><ele>137.0</ele><time>2026-05-01T07:44:11Z</time></trkpt><trkpt lat="46.11373050028281" lon="12.956497882936585"><ele>137.0</ele><time>2026-05-01T07:44:12Z</time></trkpt><trkpt lat="46.11356006022789" lon="12.956358829525456"><ele>137.0</ele><time>2026-05-01T07:44:13Z</time></trkpt><trkpt lat="46.113390169804354" lon="12.956219459899767"><ele>137.0</ele><time>2026-05-01T07:44:14Z</time></trkpt><trkpt lat="46.11321422566433" lon="12.95607540503059"><ele>136.66666666666666</ele><time>2026-05-01T07:44:15Z</time></trkpt><trkpt lat="46.11303081774738" lon="12.95592481414505"><ele>136.33333333333334</ele><time>2026-05-01T07:44:15.999Z</time></trkpt><trkpt lat="46.11283914220195" lon="12.955766498131487"><ele>136.0</ele><time>2026-05-01T07:44:16.999Z</time></trkpt><trkpt lat="46.11264388755778" lon="12.955606859883064"><ele>136.0</ele><time>2026-05-01T07:44:17.999Z</time></trkpt><trkpt lat="46.11245530619651" lon="12.955448939375644"><ele>136.0</ele><time>2026-05-01T07:44:18.999Z</time></trkpt><trkpt lat="46.112266601481025" lon="12.955294420285918"><ele>136.0</ele><time>2026-05-01T07:44:19.999Z</time></trkpt><trkpt lat="46.112080328067194" lon="12.955144523254395"><ele>135.33333333333334</ele><time>2026-05-01T07:44:20.999Z</time></trkpt><trkpt lat="46.11189360673223" lon="12.955000655621848"><ele>134.66666666666666</ele><time>2026-05-01T07:44:21.999Z</time></trkpt><trkpt lat="46.111704183671286" lon="12.95486451368737"><ele>134.0</ele><time>2026-05-01T07:44:22.999Z</time></trkpt><trkpt lat="46.11151118354236" lon="12.954734270929364"><ele>133.33333333333331</ele><time>2026-05-01T07:44:23.999Z</time></trkpt><trkpt lat="46.11131963735466" lon="12.954611283125855"><ele>132.66666666666666</ele><time>2026-05-01T07:44:24.999Z</time></trkpt><trkpt lat="46.11112754173487" lon="12.95449245163745"><ele>132.0</ele><time>2026-05-01T07:44:25.999Z</time></trkpt><trkpt lat="46.11093487827896" lon="12.954377404587143"><ele>132.33333333333334</ele><time>2026-05-01T07:44:26.999Z</time></trkpt><trkpt lat="46.1107401360308" lon="12.954267593992943"><ele>132.66666666666669</ele><time>2026-05-01T07:44:27.999Z</time></trkpt><trkpt lat="46.11054267910766" lon="12.954163754727322"><ele>133.0</ele><time>2026-05-01T07:44:28.999Z</time></trkpt><trkpt lat="46.110343316273415" lon="12.954065283505754"><ele>132.66666666666669</ele><time>2026-05-01T07:44:29.999Z</time></trkpt><trkpt lat="46.110143353457026" lon="12.953974981231548"><ele>132.33333333333334</ele><time>2026-05-01T07:44:30.999Z</time></trkpt><trkpt lat="46.10994085801606" lon="12.953892089648441"><ele>132.0</ele><time>2026-05-01T07:44:31.999Z</time></trkpt><trkpt lat="46.10973607395699" lon="12.953815277395295"><ele>132.0</ele><time>2026-05-01T07:44:32.999Z</time></trkpt><trkpt lat="46.109537880033386" lon="12.953716346752651"><ele>132.0</ele><time>2026-05-01T07:44:33.999Z</time></trkpt><trkpt lat="46.109335065604235" lon="12.95363553807583"><ele>132.0</ele><time>2026-05-01T07:44:34.999Z</time></trkpt><trkpt lat="46.10913187534664" lon="12.95355457958726"><ele>132.0</ele><time>2026-05-01T07:44:35.999Z</time></trkpt><trkpt lat="46.10893250314936" lon="12.953476480858065"><ele>132.0</ele><time>2026-05-01T07:44:36.999Z</time></trkpt><trkpt lat="46.10873313068838" lon="12.953419795789133"><ele>132.0</ele><time>2026-05-01T07:44:37.999Z</time></trkpt><trkpt lat="46.10854724406781" lon="12.953338529304567"><ele>132.0</ele><time>2026-05-01T07:44:38.999Z</time></trkpt><trkpt lat="46.10836500404187" lon="12.953262774020622"><ele>132.0</ele><time>2026-05-01T07:44:39.999Z</time></trkpt><trkpt lat="46.10818625736974" lon="12.953193212864234"><ele>132.0</ele><time>2026-05-01T07:44:40.999Z</time></trkpt><trkpt lat="46.10801046108838" lon="12.953129038841235"><ele>132.33333333333334</ele><time>2026-05-01T07:44:41.999Z</time></trkpt><trkpt lat="46.10783338801909" lon="12.953065936459582"><ele>132.66666666666669</ele><time>2026-05-01T07:44:42.999Z</time></trkpt><trkpt lat="46.10765117001372" lon="12.953002145791546"><ele>133.0</ele><time>2026-05-01T07:44:43.999Z</time></trkpt><trkpt lat="46.10747197714021" lon="12.952939104405093"><ele>132.33333333333334</ele><time>2026-05-01T07:44:44.999Z</time></trkpt><trkpt lat="46.10729875513822" lon="12.95288133659585"><ele>131.66666666666666</ele><time>2026-05-01T07:44:45.999Z</time></trkpt><trkpt lat="46.10713269395903" lon="12.952824474060431"><ele>131.0</ele><time>2026-05-01T07:44:46.999Z</time></trkpt><trkpt lat="46.106970488155554" lon="12.952765831678338"><ele>131.0</ele><time>2026-05-01T07:44:47.999Z</time></trkpt><trkpt lat="46.106811791351234" lon="12.952701196718444"><ele>131.0</ele><time>2026-05-01T07:44:48.999Z</time></trkpt><trkpt lat="46.10665724565006" lon="12.95262150972268"><ele>131.0</ele><time>2026-05-01T07:44:49.999Z</time></trkpt><trkpt lat="46.10650467639276" lon="12.95252903717798"><ele>130.66666666666666</ele><time>2026-05-01T07:44:50.999Z</time></trkpt><trkpt lat="46.10635102367985" lon="12.952423431399286"><ele>130.33333333333334</ele><time>2026-05-01T07:44:51.999Z</time></trkpt><trkpt lat="46.10619758664086" lon="12.952305154357548"><ele>130.0</ele><time>2026-05-01T07:44:52.999Z</time></trkpt><trkpt lat="46.10604110993822" lon="12.952173073037567"><ele>130.0</ele><time>2026-05-01T07:44:53.999Z</time></trkpt><trkpt lat="46.10588952280375" lon="12.952030747596622"><ele>130.0</ele><time>2026-05-01T07:44:54.999Z</time></trkpt><trkpt lat="46.105752969843365" lon="12.951886536074394"><ele>130.0</ele><time>2026-05-01T07:44:55.999Z</time></trkpt><trkpt lat="46.105634472568056" lon="12.95175079343716"><ele>129.5</ele><time>2026-05-01T07:44:56.999Z</time></trkpt><trkpt lat="46.105528577913056" lon="12.951622870469"><ele>129.0</ele><time>2026-05-01T07:44:57.999Z</time></trkpt><trkpt lat="46.10543164089003" lon="12.951490934952583"><ele>128.5</ele><time>2026-05-01T07:44:58.999Z</time></trkpt><trkpt lat="46.10532614570139" lon="12.951336963202571"><ele>128.0</ele><time>2026-05-01T07:44:59.999Z</time></trkpt><trkpt lat="46.105219506390156" lon="12.95118396809843"><ele>128.0</ele><time>2026-05-01T07:45:00.999Z</time></trkpt><trkpt lat="46.10511392662695" lon="12.951021199592251"><ele>128.0</ele><time>2026-05-01T07:45:01.999Z</time></trkpt><trkpt lat="46.10501460471451" lon="12.950857332305763"><ele>128.0</ele><time>2026-05-01T07:45:02.999Z</time></trkpt><trkpt lat="46.10491762773904" lon="12.950702153392495"><ele>127.66666666666666</ele><time>2026-05-01T07:45:03.999Z</time></trkpt><trkpt lat="46.104815828374214" lon="12.950537217770732"><ele>127.33333333333334</ele><time>2026-05-01T07:45:04.999Z</time></trkpt><trkpt lat="46.104718534957705" lon="12.950377126637234"><ele>127.0</ele><time>2026-05-01T07:45:05.999Z</time></trkpt><trkpt lat="46.10461742320211" lon="12.95021953017964"><ele>127.0</ele><time>2026-05-01T07:45:06.999Z</time></trkpt><trkpt lat="46.104516089085834" lon="12.950061372491149"><ele>127.0</ele><time>2026-05-01T07:45:07.999Z</time></trkpt><trkpt lat="46.1044083150657" lon="12.949908620114133"><ele>127.0</ele><time>2026-05-01T07:45:08.999Z</time></trkpt><trkpt lat="46.104291577581925" lon="12.949771394658349"><ele>126.66666666666667</ele><time>2026-05-01T07:45:09.999Z</time></trkpt><trkpt lat="46.10416418483777" lon="12.949650550267531"><ele>126.33333333333334</ele><time>2026-05-01T07:45:10.999Z</time></trkpt><trkpt lat="46.10402690131863" lon="12.949547199947714"><ele>126.0</ele><time>2026-05-01T07:45:12Z</time></trkpt><trkpt lat="46.10388121208956" lon="12.949456783306326"><ele>125.66666666666666</ele><time>2026-05-01T07:45:13Z</time></trkpt><trkpt lat="46.1037324291679" lon="12.949371602048963"><ele>125.33333333333333</ele><time>2026-05-01T07:45:14Z</time></trkpt><trkpt lat="46.10357540008363" lon="12.949290227927593"><ele>125.0</ele><time>2026-05-01T07:45:15Z</time></trkpt><trkpt lat="46.103416178578804" lon="12.949203869479115"><ele>125.0</ele><time>2026-05-01T07:45:16Z</time></trkpt><trkpt lat="46.10325397273602" lon="12.949122149523113"><ele>125.0</ele><time>2026-05-01T07:45:17Z</time></trkpt><trkpt lat="46.10309170797545" lon="12.949033152596531"><ele>125.0</ele><time>2026-05-01T07:45:18Z</time></trkpt><trkpt lat="46.10292618410965" lon="12.948944395520954"><ele>125.33333333333333</ele><time>2026-05-01T07:45:19Z</time></trkpt><trkpt lat="46.102763105040125" lon="12.94885825046079"><ele>125.66666666666666</ele><time>2026-05-01T07:45:20Z</time></trkpt><trkpt lat="46.10260119623046" lon="12.948776636133108"><ele>126.0</ele><time>2026-05-01T07:45:21Z</time></trkpt><trkpt lat="46.102442624091566" lon="12.948694203347355"><ele>126.0</ele><time>2026-05-01T07:45:22Z</time></trkpt><trkpt lat="46.10228584767676" lon="12.94861226199125"><ele>126.0</ele><time>2026-05-01T07:45:23Z</time></trkpt><trkpt lat="46.10213235785594" lon="12.948534583908817"><ele>126.0</ele><time>2026-05-01T07:45:24Z</time></trkpt><trkpt lat="46.10197865088227" lon="12.948462462295133"><ele>126.0</ele><time>2026-05-01T07:45:25Z</time></trkpt><trkpt lat="46.10182018584928" lon="12.948405061457088"><ele>126.0</ele><time>2026-05-01T07:45:26Z</time></trkpt><trkpt lat="46.101660332355735" lon="12.948370446084816"><ele>126.0</ele><time>2026-05-01T07:45:27Z</time></trkpt><trkpt lat="46.10150048086304" lon="12.948349195476466"><ele>124.66666666666666</ele><time>2026-05-01T07:45:28Z</time></trkpt><trkpt lat="46.10134049049687" lon="12.948342219083521"><ele>123.33333333333333</ele><time>2026-05-01T07:45:29Z</time></trkpt><trkpt lat="46.101183339253886" lon="12.948338282670056"><ele>122.0</ele><time>2026-05-01T07:45:30Z</time></trkpt><trkpt lat="46.10102624095292" lon="12.948336238427945"><ele>122.0</ele><time>2026-05-01T07:45:31Z</time></trkpt><trkpt lat="46.10086859086363" lon="12.948332997806279"><ele>122.0</ele><time>2026-05-01T07:45:32Z</time></trkpt><trkpt lat="46.10070975789291" lon="12.94833122046656"><ele>122.0</ele><time>2026-05-01T07:45:33Z</time></trkpt><trkpt lat="46.10054840569277" lon="12.948329704768554"><ele>121.66666666666666</ele><time>2026-05-01T07:45:34Z</time></trkpt><trkpt lat="46.100385484266475" lon="12.948331323599875"><ele>121.33333333333334</ele><time>2026-05-01T07:45:35Z</time></trkpt><trkpt lat="46.10022247258428" lon="12.94833264192552"><ele>121.0</ele><time>2026-05-01T07:45:36Z</time></trkpt><trkpt lat="46.100061549723044" lon="12.948331303906043"><ele>120.66666666666667</ele><time>2026-05-01T07:45:37Z</time></trkpt><trkpt lat="46.09990341834987" lon="12.948321977020473"><ele>120.33333333333334</ele><time>2026-05-01T07:45:38Z</time></trkpt><trkpt lat="46.09975300155886" lon="12.948297532470274"><ele>120.0</ele><time>2026-05-01T07:45:39Z</time></trkpt><trkpt lat="46.09959956196581" lon="12.948263060274007"><ele>120.0</ele><time>2026-05-01T07:45:40Z</time></trkpt><trkpt lat="46.09944455659575" lon="12.948227126593496"><ele>120.0</ele><time>2026-05-01T07:45:41Z</time></trkpt><trkpt lat="46.09928887143042" lon="12.948189009743276"><ele>120.0</ele><time>2026-05-01T07:45:42Z</time></trkpt><trkpt lat="46.099134111118566" lon="12.948153336412929"><ele>120.0</ele><time>2026-05-01T07:45:43Z</time></trkpt><trkpt lat="46.09898321636251" lon="12.94811441238527"><ele>120.0</ele><time>2026-05-01T07:45:44Z</time></trkpt><trkpt lat="46.09883646420403" lon="12.948073815390725"><ele>120.0</ele><time>2026-05-01T07:45:45Z</time></trkpt><trkpt lat="46.098691177793334" lon="12.94802334974762"><ele>120.0</ele><time>2026-05-01T07:45:46Z</time></trkpt><trkpt lat="46.09855615977602" lon="12.947956911663669"><ele>120.0</ele><time>2026-05-01T07:45:47Z</time></trkpt><trkpt lat="46.09843455795755" lon="12.947876764963512"><ele>120.0</ele><time>2026-05-01T07:45:48Z</time></trkpt><trkpt lat="46.09831634790786" lon="12.947788845958497"><ele>120.0</ele><time>2026-05-01T07:45:49Z</time></trkpt><trkpt lat="46.098207026585094" lon="12.947705176582682"><ele>120.0</ele><time>2026-05-01T07:45:50Z</time></trkpt><trkpt lat="46.0981007301059" lon="12.947623752752262"><ele>120.0</ele><time>2026-05-01T07:45:51Z</time></trkpt><trkpt lat="46.09799440990301" lon="12.947540073306918"><ele>120.0</ele><time>2026-05-01T07:45:52Z</time></trkpt><trkpt lat="46.097887807819454" lon="12.947454671223369"><ele>120.0</ele><time>2026-05-01T07:45:53Z</time></trkpt><trkpt lat="46.0977768359344" lon="12.947368517566154"><ele>120.0</ele><time>2026-05-01T07:45:54Z</time></trkpt><trkpt lat="46.097662794481714" lon="12.947277838912061"><ele>120.0</ele><time>2026-05-01T07:45:55Z</time></trkpt><trkpt lat="46.0975467249794" lon="12.947187080180639"><ele>120.0</ele><time>2026-05-01T07:45:56Z</time></trkpt><trkpt lat="46.097426411794956" lon="12.947092506643195"><ele>120.0</ele><time>2026-05-01T07:45:57Z</time></trkpt><trkpt lat="46.09731238968961" lon="12.94700158423011"><ele>120.0</ele><time>2026-05-01T07:45:58Z</time></trkpt><trkpt lat="46.09720718877211" lon="12.946918889196239"><ele>120.0</ele><time>2026-05-01T07:45:59Z</time></trkpt><trkpt lat="46.09710944652598" lon="12.946843148408874"><ele>120.0</ele><time>2026-05-01T07:46:00Z</time></trkpt><trkpt lat="46.097017089554626" lon="12.946770953328764"><ele>120.0</ele><time>2026-05-01T07:46:01Z</time></trkpt><trkpt lat="46.09693498879058" lon="12.946705436279657"><ele>120.0</ele><time>2026-05-01T07:46:02Z</time></trkpt><trkpt lat="46.096851415941686" lon="12.946643745343094"><ele>119.75</ele><time>2026-05-01T07:46:03Z</time></trkpt><trkpt lat="46.096759648405126" lon="12.946571129433046"><ele>119.5</ele><time>2026-05-01T07:46:04Z</time></trkpt><trkpt lat="46.09665652089651" lon="12.946496655914327"><ele>119.25</ele><time>2026-05-01T07:46:05Z</time></trkpt><trkpt lat="46.09653641119266" lon="12.946407538206628"><ele>119.0</ele><time>2026-05-01T07:46:06Z</time></trkpt><trkpt lat="46.09640392655083" lon="12.946302569754536"><ele>119.0</ele><time>2026-05-01T07:46:07Z</time></trkpt><trkpt lat="46.09627641326261" lon="12.946204310927461"><ele>119.0</ele><time>2026-05-01T07:46:08Z</time></trkpt><trkpt lat="46.09614307795349" lon="12.946101085040288"><ele>119.0</ele><time>2026-05-01T07:46:09Z</time></trkpt><trkpt lat="46.0960038840196" lon="12.945994184422512"><ele>119.0</ele><time>2026-05-01T07:46:10Z</time></trkpt><trkpt lat="46.095862115648394" lon="12.945885040571577"><ele>119.0</ele><time>2026-05-01T07:46:11Z</time></trkpt><trkpt lat="46.095715193165375" lon="12.945771380944745"><ele>119.0</ele><time>2026-05-01T07:46:12Z</time></trkpt><trkpt lat="46.09556539674026" lon="12.945653980333542"><ele>119.0</ele><time>2026-05-01T07:46:13Z</time></trkpt><trkpt lat="46.09541387492118" lon="12.945536498081895"><ele>119.0</ele><time>2026-05-01T07:46:14Z</time></trkpt><trkpt lat="46.09525726373548" lon="12.945412288176101"><ele>119.0</ele><time>2026-05-01T07:46:15Z</time></trkpt><trkpt lat="46.09509909658733" lon="12.945280701648699"><ele>119.0</ele><time>2026-05-01T07:46:16Z</time></trkpt><trkpt lat="46.09494201270902" lon="12.945136196967209"><ele>119.0</ele><time>2026-05-01T07:46:17Z</time></trkpt><trkpt lat="46.09478109943018" lon="12.944979437701692"><ele>119.0</ele><time>2026-05-01T07:46:18Z</time></trkpt><trkpt lat="46.094619269824975" lon="12.944808343701945"><ele>118.33333333333333</ele><time>2026-05-01T07:46:19Z</time></trkpt><trkpt lat="46.09446728458732" lon="12.944636876641736"><ele>117.66666666666666</ele><time>2026-05-01T07:46:20Z</time></trkpt><trkpt lat="46.09431763262019" lon="12.944460135613316"><ele>117.0</ele><time>2026-05-01T07:46:21Z</time></trkpt><trkpt lat="46.094173978512565" lon="12.944280271564606"><ele>116.66666666666666</ele><time>2026-05-01T07:46:21.999Z</time></trkpt><trkpt lat="46.09402973792672" lon="12.944102506919156"><ele>116.33333333333333</ele><time>2026-05-01T07:46:22.999Z</time></trkpt><trkpt lat="46.093890179040486" lon="12.943930075200003"><ele>116.0</ele><time>2026-05-01T07:46:23.999Z</time></trkpt><trkpt lat="46.09375069025047" lon="12.943751138641057"><ele>116.0</ele><time>2026-05-01T07:46:24.999Z</time></trkpt><trkpt lat="46.09360588301674" lon="12.943580004379843"><ele>116.0</ele><time>2026-05-01T07:46:25.999Z</time></trkpt><trkpt lat="46.09348101059337" lon="12.943424735739185"><ele>116.0</ele><time>2026-05-01T07:46:26.999Z</time></trkpt><trkpt lat="46.093351848205565" lon="12.943267320174419"><ele>115.66666666666666</ele><time>2026-05-01T07:46:27.999Z</time></trkpt><trkpt lat="46.093220141146716" lon="12.943107195869397"><ele>115.33333333333334</ele><time>2026-05-01T07:46:28.999Z</time></trkpt><trkpt lat="46.09308403059482" lon="12.942939756048608"><ele>115.0</ele><time>2026-05-01T07:46:29.999Z</time></trkpt><trkpt lat="46.09295252369974" lon="12.942777783806697"><ele>115.0</ele><time>2026-05-01T07:46:30.999Z</time></trkpt><trkpt lat="46.092819114154615" lon="12.942615796962015"><ele>115.0</ele><time>2026-05-01T07:46:31.999Z</time></trkpt><trkpt lat="46.09268570142246" lon="12.942453403889154"><ele>115.0</ele><time>2026-05-01T07:46:32.999Z</time></trkpt><trkpt lat="46.09255258676357" lon="12.942292161132963"><ele>115.0</ele><time>2026-05-01T07:46:33.999Z</time></trkpt><trkpt lat="46.09242077894847" lon="12.942132068562898"><ele>115.0</ele><time>2026-05-01T07:46:34.999Z</time></trkpt><trkpt lat="46.09228934480198" lon="12.941973215240571"><ele>115.0</ele><time>2026-05-01T07:46:35.999Z</time></trkpt><trkpt lat="46.09215500609489" lon="12.941807556066479"><ele>114.66666666666667</ele><time>2026-05-01T07:46:36.999Z</time></trkpt><trkpt lat="46.09201818534316" lon="12.941640670009821"><ele>114.33333333333334</ele><time>2026-05-01T07:46:37.999Z</time></trkpt><trkpt lat="46.09188091254946" lon="12.941473691552062"><ele>114.0</ele><time>2026-05-01T07:46:38.999Z</time></trkpt><trkpt lat="46.09174154257627" lon="12.941307251428466"><ele>114.0</ele><time>2026-05-01T07:46:39.999Z</time></trkpt><trkpt lat="46.09159674306719" lon="12.9411383754339"><ele>114.0</ele><time>2026-05-01T07:46:40.999Z</time></trkpt><trkpt lat="46.09145164572945" lon="12.940971091053173"><ele>114.0</ele><time>2026-05-01T07:46:41.999Z</time></trkpt><trkpt lat="46.09130573144877" lon="12.940809519126836"><ele>113.66666666666666</ele><time>2026-05-01T07:46:42.999Z</time></trkpt><trkpt lat="46.09116279061082" lon="12.940652921710287"><ele>113.33333333333333</ele><time>2026-05-01T07:46:43.999Z</time></trkpt><trkpt lat="46.09102892520849" lon="12.940508755131843"><ele>113.0</ele><time>2026-05-01T07:46:44.999Z</time></trkpt><trkpt lat="46.09090591331241" lon="12.940376783600811"><ele>113.0</ele><time>2026-05-01T07:46:45.999Z</time></trkpt><trkpt lat="46.09078507390623" lon="12.94025407434801"><ele>113.0</ele><time>2026-05-01T07:46:46.999Z</time></trkpt><trkpt lat="46.09066774769963" lon="12.940146511784473"><ele>113.0</ele><time>2026-05-01T07:46:47.999Z</time></trkpt><trkpt lat="46.09054573393259" lon="12.94005387828857"><ele>113.0</ele><time>2026-05-01T07:46:48.999Z</time></trkpt><trkpt lat="46.090419276071984" lon="12.939972337030298"><ele>113.0</ele><time>2026-05-01T07:46:49.999Z</time></trkpt><trkpt lat="46.09029489039346" lon="12.9398941636683"><ele>113.0</ele><time>2026-05-01T07:46:50.999Z</time></trkpt><trkpt lat="46.09017735493238" lon="12.93982137000585"><ele>113.0</ele><time>2026-05-01T07:46:51.999Z</time></trkpt><trkpt lat="46.090061904294245" lon="12.939746353230298"><ele>113.0</ele><time>2026-05-01T07:46:52.999Z</time></trkpt><trkpt lat="46.08994512835371" lon="12.93967075897845"><ele>112.75</ele><time>2026-05-01T07:46:53.999Z</time></trkpt><trkpt lat="46.08982744301396" lon="12.939593522818228"><ele>112.5</ele><time>2026-05-01T07:46:54.999Z</time></trkpt><trkpt lat="46.089714272130756" lon="12.939520827106245"><ele>112.25</ele><time>2026-05-01T07:46:55.999Z</time></trkpt><trkpt lat="46.089595795724996" lon="12.939455734578615"><ele>112.0</ele><time>2026-05-01T07:46:56.999Z</time></trkpt><trkpt lat="46.08948484981073" lon="12.939397933048458"><ele>112.0</ele><time>2026-05-01T07:46:57.999Z</time></trkpt><trkpt lat="46.089382668587035" lon="12.939347885916359"><ele>111.99999999999999</ele><time>2026-05-01T07:46:58.999Z</time></trkpt><trkpt lat="46.08928879780853" lon="12.939300469650382"><ele>111.99999999999999</ele><time>2026-05-01T07:46:59.999Z</time></trkpt><trkpt lat="46.08919979695371" lon="12.939255999204912"><ele>112.0</ele><time>2026-05-01T07:47:00.999Z</time></trkpt><trkpt lat="46.08911379067483" lon="12.939209051704216"><ele>112.0</ele><time>2026-05-01T07:47:01.999Z</time></trkpt><trkpt lat="46.08902280688189" lon="12.939161721354118"><ele>111.83333333333334</ele><time>2026-05-01T07:47:02.999Z</time></trkpt><trkpt lat="46.088933046129334" lon="12.939119005115828"><ele>111.66666666666667</ele><time>2026-05-01T07:47:03.999Z</time></trkpt><trkpt lat="46.088849776416865" lon="12.939083985405397"><ele>111.5</ele><time>2026-05-01T07:47:04.999Z</time></trkpt><trkpt lat="46.08876763999416" lon="12.939053957913377"><ele>111.33333333333334</ele><time>2026-05-01T07:47:05.999Z</time></trkpt><trkpt lat="46.088685490033484" lon="12.939030182683522"><ele>111.16666666666667</ele><time>2026-05-01T07:47:06.999Z</time></trkpt><trkpt lat="46.08860226977882" lon="12.93900583661597"><ele>111.0</ele><time>2026-05-01T07:47:07.999Z</time></trkpt><trkpt lat="46.088522471542795" lon="12.93898537160254"><ele>111.0</ele><time>2026-05-01T07:47:08.999Z</time></trkpt><trkpt lat="46.08844462265158" lon="12.938966454938443"><ele>111.0</ele><time>2026-05-01T07:47:09.999Z</time></trkpt><trkpt lat="46.088366878415854" lon="12.938944476194433"><ele>111.0</ele><time>2026-05-01T07:47:10.999Z</time></trkpt><trkpt lat="46.08828637495557" lon="12.938919697812356"><ele>111.0</ele><time>2026-05-01T07:47:11.999Z</time></trkpt><trkpt lat="46.08820176193209" lon="12.938894609729548"><ele>111.0</ele><time>2026-05-01T07:47:12.999Z</time></trkpt><trkpt lat="46.088116778873605" lon="12.938865341705592"><ele>111.0</ele><time>2026-05-01T07:47:13.999Z</time></trkpt><trkpt lat="46.08802825654573" lon="12.93883301429047"><ele>111.19999999999999</ele><time>2026-05-01T07:47:14.999Z</time></trkpt><trkpt lat="46.08793298076872" lon="12.93879493954052"><ele>111.39999999999999</ele><time>2026-05-01T07:47:15.999Z</time></trkpt><trkpt lat="46.08783252051045" lon="12.938744456679974"><ele>111.6</ele><time>2026-05-01T07:47:16.999Z</time></trkpt><trkpt lat="46.08772994565582" lon="12.938684085115426"><ele>111.8</ele><time>2026-05-01T07:47:18Z</time></trkpt><trkpt lat="46.087640473070856" lon="12.938617755084495"><ele>112.0</ele><time>2026-05-01T07:47:19Z</time></trkpt><trkpt lat="46.08756197954283" lon="12.938540721230304"><ele>112.00000000000001</ele><time>2026-05-01T07:47:20Z</time></trkpt><trkpt lat="46.08748628410395" lon="12.938465844291013"><ele>112.0</ele><time>2026-05-01T07:47:21Z</time></trkpt><trkpt lat="46.08741526822068" lon="12.938401179883392"><ele>112.0</ele><time>2026-05-01T07:47:22Z</time></trkpt><trkpt lat="46.08735592046363" lon="12.938344242905519"><ele>112.0</ele><time>2026-05-01T07:47:23Z</time></trkpt><trkpt lat="46.08730255803519" lon="12.938292186771244"><ele>112.00000000000001</ele><time>2026-05-01T07:47:24Z</time></trkpt><trkpt lat="46.08720018090545" lon="12.938198957669337"><ele>112.0</ele><time>2026-05-01T07:47:26Z</time></trkpt><trkpt lat="46.087104419164724" lon="12.938127105508123"><ele>112.16666666666667</ele><time>2026-05-01T07:47:28Z</time></trkpt><trkpt lat="46.08704209787416" lon="12.938086879909163"><ele>112.33333333333334</ele><time>2026-05-01T07:47:29Z</time></trkpt><trkpt lat="46.08696996117664" lon="12.93804734668346"><ele>112.5</ele><time>2026-05-01T07:47:30Z</time></trkpt><trkpt lat="46.08688934383996" lon="12.938007340396139"><ele>112.66666666666666</ele><time>2026-05-01T07:47:31Z</time></trkpt><trkpt lat="46.08680448910239" lon="12.93796745135911"><ele>112.83333333333333</ele><time>2026-05-01T07:47:32Z</time></trkpt><trkpt lat="46.086717047106085" lon="12.937930905370202"><ele>113.0</ele><time>2026-05-01T07:47:33Z</time></trkpt><trkpt lat="46.08662521761852" lon="12.937882276776993"><ele>113.0</ele><time>2026-05-01T07:47:34Z</time></trkpt><trkpt lat="46.086533233947534" lon="12.937837099855427"><ele>113.00000000000001</ele><time>2026-05-01T07:47:35Z</time></trkpt><trkpt lat="46.08643340265877" lon="12.937789729722287"><ele>113.00000000000001</ele><time>2026-05-01T07:47:36Z</time></trkpt><trkpt lat="46.086340846674545" lon="12.93774437760062"><ele>113.0</ele><time>2026-05-01T07:47:37Z</time></trkpt><trkpt lat="46.086255944743606" lon="12.937712561984936"><ele>113.0</ele><time>2026-05-01T07:47:38Z</time></trkpt><trkpt lat="46.0861702146725" lon="12.937692645868852"><ele>112.99999999999999</ele><time>2026-05-01T07:47:39Z</time></trkpt><trkpt lat="46.08608321391989" lon="12.937674364666002"><ele>113.0</ele><time>2026-05-01T07:47:40Z</time></trkpt><trkpt lat="46.08599788695491" lon="12.93765463081337"><ele>113.0</ele><time>2026-05-01T07:47:41Z</time></trkpt><trkpt lat="46.08591449765534" lon="12.937628564290714"><ele>113.0</ele><time>2026-05-01T07:47:42Z</time></trkpt><trkpt lat="46.08583007060745" lon="12.937617312281523"><ele>112.99999999999999</ele><time>2026-05-01T07:47:43Z</time></trkpt><trkpt lat="46.085751933453594" lon="12.937609325983813"><ele>113.0</ele><time>2026-05-01T07:47:44Z</time></trkpt><trkpt lat="46.08568181917613" lon="12.937610231913139"><ele>113.0</ele><time>2026-05-01T07:47:45Z</time></trkpt><trkpt lat="46.08561278501579" lon="12.937625782464098"><ele>113.00000000000001</ele><time>2026-05-01T07:47:46Z</time></trkpt><trkpt lat="46.08551613460081" lon="12.937725892088734"><ele>113.00000000000001</ele><time>2026-05-01T07:47:48Z</time></trkpt><trkpt lat="46.08544321404253" lon="12.937845807509362"><ele>113.0</ele><time>2026-05-01T07:47:50Z</time></trkpt><trkpt lat="46.08537686459819" lon="12.937935501948822"><ele>113.0</ele><time>2026-05-01T07:47:52Z</time></trkpt><trkpt lat="46.08530307965266" lon="12.937997772204543"><ele>113.0</ele><time>2026-05-01T07:47:54Z</time></trkpt><trkpt lat="46.08521727968234" lon="12.93804207749252"><ele>113.00000000000001</ele><time>2026-05-01T07:47:56Z</time></trkpt><trkpt lat="46.08513080822742" lon="12.938076829817772"><ele>113.00000000000001</ele><time>2026-05-01T07:47:58Z</time></trkpt><trkpt lat="46.08506238633598" lon="12.938083189286807"><ele>113.0</ele><time>2026-05-01T07:48:00Z</time></trkpt><trkpt lat="46.085024847701895" lon="12.937890843697112"><ele>113.0</ele><time>2026-05-01T07:48:02Z</time></trkpt><trkpt lat="46.085031103544324" lon="12.93771591669147"><ele>112.99999999999999</ele><time>2026-05-01T07:48:04Z</time></trkpt><trkpt lat="46.08502746348487" lon="12.937608766011238"><ele>113.0</ele><time>2026-05-01T07:48:05Z</time></trkpt><trkpt lat="46.08502412790362" lon="12.93749871642425"><ele>113.0</ele><time>2026-05-01T07:48:06Z</time></trkpt><trkpt lat="46.085026510867664" lon="12.937395369908696"><ele>113.0</ele><time>2026-05-01T07:48:07Z</time></trkpt><trkpt lat="46.08502985001636" lon="12.937279689360446"><ele>112.99999999999999</ele><time>2026-05-01T07:48:08Z</time></trkpt><trkpt lat="46.0850306386897" lon="12.937166275884868"><ele>113.0</ele><time>2026-05-01T07:48:09Z</time></trkpt><trkpt lat="46.085028187926746" lon="12.93705661399202"><ele>113.0</ele><time>2026-05-01T07:48:10Z</time></trkpt><trkpt lat="46.085010552214385" lon="12.936943512716619"><ele>113.00000000000001</ele><time>2026-05-01T07:48:11Z</time></trkpt><trkpt lat="46.084973566672524" lon="12.936834292948008"><ele>113.00000000000001</ele><time>2026-05-01T07:48:12Z</time></trkpt><trkpt lat="46.08492727254421" lon="12.936727908147665"><ele>113.0</ele><time>2026-05-01T07:48:13Z</time></trkpt><trkpt lat="46.08487140089344" lon="12.93662123943622"><ele>113.0</ele><time>2026-05-01T07:48:14Z</time></trkpt><trkpt lat="46.08480644259158" lon="12.936494880678502"><ele>112.25</ele><time>2026-05-01T07:48:15Z</time></trkpt><trkpt lat="46.0847339936716" lon="12.93635769806465"><ele>111.5</ele><time>2026-05-01T07:48:16Z</time></trkpt><trkpt lat="46.08465403923259" lon="12.936203039468523"><ele>110.75</ele><time>2026-05-01T07:48:17Z</time></trkpt><trkpt lat="46.084549887291764" lon="12.936005868266344"><ele>110.0</ele><time>2026-05-01T07:48:18Z</time></trkpt><trkpt lat="46.08442436094748" lon="12.935764861946062"><ele>108.0</ele><time>2026-05-01T07:48:19Z</time></trkpt><trkpt lat="46.08431926241507" lon="12.935550571563878"><ele>106.0</ele><time>2026-05-01T07:48:20Z</time></trkpt><trkpt lat="46.08421881411296" lon="12.935350390142025"><ele>104.0</ele><time>2026-05-01T07:48:21Z</time></trkpt><trkpt lat="46.08412382181488" lon="12.935147273862864"><ele>102.33333333333333</ele><time>2026-05-01T07:48:22Z</time></trkpt><trkpt lat="46.08404362992879" lon="12.934944068820533"><ele>100.66666666666666</ele><time>2026-05-01T07:48:23Z</time></trkpt><trkpt lat="46.08397634365259" lon="12.934732748844805"><ele>99.0</ele><time>2026-05-01T07:48:24Z</time></trkpt><trkpt lat="46.08392669789525" lon="12.93451607315994"><ele>99.0</ele><time>2026-05-01T07:48:25Z</time></trkpt><trkpt lat="46.083891693178494" lon="12.934295518879155"><ele>99.0</ele><time>2026-05-01T07:48:25.999Z</time></trkpt><trkpt lat="46.08386599386297" lon="12.934072160659804"><ele>99.0</ele><time>2026-05-01T07:48:26.999Z</time></trkpt><trkpt lat="46.083855927768866" lon="12.933848746180734"><ele>98.0</ele><time>2026-05-01T07:48:27.999Z</time></trkpt><trkpt lat="46.08386411979539" lon="12.933639876117166"><ele>97.0</ele><time>2026-05-01T07:48:28.999Z</time></trkpt><trkpt lat="46.08387632255326" lon="12.933452783591706"><ele>96.0</ele><time>2026-05-01T07:48:29.999Z</time></trkpt><trkpt lat="46.08389066042951" lon="12.933290848318373"><ele>95.0</ele><time>2026-05-01T07:48:30.999Z</time></trkpt><trkpt lat="46.08390502517475" lon="12.933141354516266"><ele>94.83333333333334</ele><time>2026-05-01T07:48:31.999Z</time></trkpt><trkpt lat="46.08391911016358" lon="12.933004846457978"><ele>94.66666666666667</ele><time>2026-05-01T07:48:32.999Z</time></trkpt><trkpt lat="46.083932966269266" lon="12.932879722276189"><ele>94.5</ele><time>2026-05-01T07:48:33.999Z</time></trkpt><trkpt lat="46.08395329667498" lon="12.932752715890272"><ele>94.33333333333333</ele><time>2026-05-01T07:48:34.999Z</time></trkpt><trkpt lat="46.08398030614491" lon="12.932635095362278"><ele>94.16666666666666</ele><time>2026-05-01T07:48:35.999Z</time></trkpt><trkpt lat="46.08401786183774" lon="12.932519675318977"><ele>94.0</ele><time>2026-05-01T07:48:36.999Z</time></trkpt><trkpt lat="46.08406531587036" lon="12.932399525388343"><ele>94.25</ele><time>2026-05-01T07:48:37.999Z</time></trkpt><trkpt lat="46.08410564182702" lon="12.932261866386986"><ele>94.5</ele><time>2026-05-01T07:48:38.999Z</time></trkpt><trkpt lat="46.08413428392249" lon="12.932103074656887"><ele>94.75</ele><time>2026-05-01T07:48:39.999Z</time></trkpt><trkpt lat="46.08417546904869" lon="12.931923459807235"><ele>95.0</ele><time>2026-05-01T07:48:40.999Z</time></trkpt><trkpt lat="46.08419490850493" lon="12.931728926936893"><ele>95.33333333333334</ele><time>2026-05-01T07:48:41.999Z</time></trkpt><trkpt lat="46.08430652365424" lon="12.931558318082851"><ele>95.66666666666667</ele><time>2026-05-01T07:48:42.999Z</time></trkpt><trkpt lat="46.08437937843069" lon="12.931361978790118"><ele>96.0</ele><time>2026-05-01T07:48:43.999Z</time></trkpt><trkpt lat="46.084455920241865" lon="12.931161414933342"><ele>96.0</ele><time>2026-05-01T07:48:44.999Z</time></trkpt><trkpt lat="46.084530025410295" lon="12.930955154189263"><ele>96.0</ele><time>2026-05-01T07:48:45.999Z</time></trkpt><trkpt lat="46.08459467380565" lon="12.930752898136381"><ele>96.0</ele><time>2026-05-01T07:48:46.999Z</time></trkpt><trkpt lat="46.084650959222586" lon="12.930554427883537"><ele>95.75</ele><time>2026-05-01T07:48:47.999Z</time></trkpt><trkpt lat="46.08470786590754" lon="12.930357892825299"><ele>95.5</ele><time>2026-05-01T07:48:48.999Z</time></trkpt><trkpt lat="46.08476353112795" lon="12.930169350015369"><ele>95.25</ele><time>2026-05-01T07:48:49.999Z</time></trkpt><trkpt lat="46.08481781852938" lon="12.92998493684577"><ele>95.0</ele><time>2026-05-01T07:48:50.999Z</time></trkpt><trkpt lat="46.084868924758666" lon="12.92980921157239"><ele>94.75</ele><time>2026-05-01T07:48:51.999Z</time></trkpt><trkpt lat="46.08491636274775" lon="12.929641221479669"><ele>94.5</ele><time>2026-05-01T07:48:52.999Z</time></trkpt><trkpt lat="46.08496134698737" lon="12.929485244482418"><ele>94.25</ele><time>2026-05-01T07:48:53.999Z</time></trkpt><trkpt lat="46.08500198794095" lon="12.929329862510137"><ele>94.0</ele><time>2026-05-01T07:48:54.999Z</time></trkpt><trkpt lat="46.085044379228954" lon="12.929176857501432"><ele>93.25</ele><time>2026-05-01T07:48:55.999Z</time></trkpt><trkpt lat="46.08508795981778" lon="12.929027256336479"><ele>92.5</ele><time>2026-05-01T07:48:56.999Z</time></trkpt><trkpt lat="46.08513178284122" lon="12.928875652450023"><ele>91.75</ele><time>2026-05-01T07:48:57.999Z</time></trkpt><trkpt lat="46.08517768736259" lon="12.928714425306378"><ele>91.0</ele><time>2026-05-01T07:48:58.999Z</time></trkpt><trkpt lat="46.08522581553392" lon="12.928548259232391"><ele>90.75</ele><time>2026-05-01T07:48:59.999Z</time></trkpt><trkpt lat="46.08527803026704" lon="12.92836765625241"><ele>90.5</ele><time>2026-05-01T07:49:00.999Z</time></trkpt><trkpt lat="46.08533185416119" lon="12.928175362424803"><ele>90.25</ele><time>2026-05-01T07:49:01.999Z</time></trkpt><trkpt lat="46.08538693076707" lon="12.927978344654699"><ele>90.0</ele><time>2026-05-01T07:49:02.999Z</time></trkpt><trkpt lat="46.08544548086745" lon="12.927780817366093"><ele>90.0</ele><time>2026-05-01T07:49:03.999Z</time></trkpt><trkpt lat="46.085501188337886" lon="12.927582237446607"><ele>90.0</ele><time>2026-05-01T07:49:04.999Z</time></trkpt><trkpt lat="46.08555535579133" lon="12.927387295318388"><ele>90.0</ele><time>2026-05-01T07:49:05.999Z</time></trkpt><trkpt lat="46.08560893109013" lon="12.927196689071272"><ele>90.0</ele><time>2026-05-01T07:49:06.999Z</time></trkpt><trkpt lat="46.085661417912135" lon="12.927011283420164"><ele>90.0</ele><time>2026-05-01T07:49:07.999Z</time></trkpt><trkpt lat="46.08571357861221" lon="12.926827398566063"><ele>90.0</ele><time>2026-05-01T07:49:08.999Z</time></trkpt><trkpt lat="46.085764281913534" lon="12.926643140602982"><ele>90.0</ele><time>2026-05-01T07:49:09.999Z</time></trkpt><trkpt lat="46.085817127007346" lon="12.926458743997477"><ele>90.0</ele><time>2026-05-01T07:49:10.999Z</time></trkpt><trkpt lat="46.0858719471591" lon="12.926271127686837"><ele>90.0</ele><time>2026-05-01T07:49:11.999Z</time></trkpt><trkpt lat="46.085928224289894" lon="12.926075855680823"><ele>90.0</ele><time>2026-05-01T07:49:12.999Z</time></trkpt><trkpt lat="46.08598662749357" lon="12.92587806497992"><ele>90.0</ele><time>2026-05-01T07:49:13.999Z</time></trkpt><trkpt lat="46.08604303980039" lon="12.925676632702915"><ele>90.0</ele><time>2026-05-01T07:49:14.999Z</time></trkpt><trkpt lat="46.086100103519655" lon="12.925472733418939"><ele>90.0</ele><time>2026-05-01T07:49:15.999Z</time></trkpt><trkpt lat="46.086158749546186" lon="12.925271288914866"><ele>90.0</ele><time>2026-05-01T07:49:16.999Z</time></trkpt><trkpt lat="46.08621591014851" lon="12.925071864436632"><ele>90.0</ele><time>2026-05-01T07:49:17.999Z</time></trkpt><trkpt lat="46.086271816831605" lon="12.924875222315217"><ele>90.0</ele><time>2026-05-01T07:49:18.999Z</time></trkpt><trkpt lat="46.086325622436625" lon="12.924687129987394"><ele>90.75</ele><time>2026-05-01T07:49:19.999Z</time></trkpt><trkpt lat="46.08637740259745" lon="12.92450269139336"><ele>91.5</ele><time>2026-05-01T07:49:20.999Z</time></trkpt><trkpt lat="46.08642961118433" lon="12.924320520266106"><ele>92.25</ele><time>2026-05-01T07:49:21.999Z</time></trkpt><trkpt lat="46.086483078899114" lon="12.924131158954644"><ele>93.0</ele><time>2026-05-01T07:49:22.999Z</time></trkpt><trkpt lat="46.086536513035654" lon="12.923941032167992"><ele>93.0</ele><time>2026-05-01T07:49:24Z</time></trkpt><trkpt lat="46.08659201265353" lon="12.923746158267313"><ele>93.0</ele><time>2026-05-01T07:49:25Z</time></trkpt><trkpt lat="46.08664942513193" lon="12.92354417227134"><ele>93.0</ele><time>2026-05-01T07:49:26Z</time></trkpt><trkpt lat="46.08670742997949" lon="12.92334255027591"><ele>93.0</ele><time>2026-05-01T07:49:27Z</time></trkpt><trkpt lat="46.086762108901716" lon="12.92314624938376"><ele>92.75</ele><time>2026-05-01T07:49:28Z</time></trkpt><trkpt lat="46.08681637472932" lon="12.92295613906998"><ele>92.5</ele><time>2026-05-01T07:49:29Z</time></trkpt><trkpt lat="46.08686981644132" lon="12.922770615997605"><ele>92.25</ele><time>2026-05-01T07:49:30Z</time></trkpt><trkpt lat="46.08692358810908" lon="12.922581040506369"><ele>92.0</ele><time>2026-05-01T07:49:31Z</time></trkpt><trkpt lat="46.08697849599531" lon="12.922385536486495"><ele>92.66666666666667</ele><time>2026-05-01T07:49:32Z</time></trkpt><trkpt lat="46.087036917311714" lon="12.92218590453585"><ele>93.33333333333333</ele><time>2026-05-01T07:49:33Z</time></trkpt><trkpt lat="46.08709716780936" lon="12.921982302951225"><ele>94.0</ele><time>2026-05-01T07:49:34Z</time></trkpt><trkpt lat="46.0871556730538" lon="12.921776841491942"><ele>93.66666666666666</ele><time>2026-05-01T07:49:35Z</time></trkpt><trkpt lat="46.087212215112814" lon="12.921569267887913"><ele>93.33333333333333</ele><time>2026-05-01T07:49:36Z</time></trkpt><trkpt lat="46.087273260119176" lon="12.921359547142547"><ele>93.0</ele><time>2026-05-01T07:49:37Z</time></trkpt><trkpt lat="46.087336875064665" lon="12.921143250895401"><ele>93.0</ele><time>2026-05-01T07:49:38Z</time></trkpt><trkpt lat="46.08739773985798" lon="12.920926570928515"><ele>93.0</ele><time>2026-05-01T07:49:39Z</time></trkpt><trkpt lat="46.08745826953554" lon="12.920711634803265"><ele>93.0</ele><time>2026-05-01T07:49:40Z</time></trkpt><trkpt lat="46.08751977531809" lon="12.920495232899706"><ele>92.66666666666667</ele><time>2026-05-01T07:49:41Z</time></trkpt><trkpt lat="46.08758317537485" lon="12.920277045833327"><ele>92.33333333333334</ele><time>2026-05-01T07:49:42Z</time></trkpt><trkpt lat="46.08764787597479" lon="12.920055862165224"><ele>92.0</ele><time>2026-05-01T07:49:43Z</time></trkpt><trkpt lat="46.08771015298629" lon="12.919830749720125"><ele>92.0</ele><time>2026-05-01T07:49:44Z</time></trkpt><trkpt lat="46.08777489417928" lon="12.919604763257222"><ele>92.0</ele><time>2026-05-01T07:49:45Z</time></trkpt><trkpt lat="46.08784146119392" lon="12.919373723682636"><ele>92.0</ele><time>2026-05-01T07:49:46Z</time></trkpt><trkpt lat="46.08790801453917" lon="12.919138964926415"><ele>92.66666666666667</ele><time>2026-05-01T07:49:47Z</time></trkpt><trkpt lat="46.087974476358255" lon="12.918905413161621"><ele>93.33333333333333</ele><time>2026-05-01T07:49:48Z</time></trkpt><trkpt lat="46.088039733314375" lon="12.918674535404886"><ele>94.0</ele><time>2026-05-01T07:49:49Z</time></trkpt><trkpt lat="46.08810501543653" lon="12.918446639668746"><ele>94.33333333333333</ele><time>2026-05-01T07:49:50Z</time></trkpt><trkpt lat="46.088169258484236" lon="12.918220388730159"><ele>94.66666666666667</ele><time>2026-05-01T07:49:51Z</time></trkpt><trkpt lat="46.08823517530441" lon="12.917989969562377"><ele>95.0</ele><time>2026-05-01T07:49:52Z</time></trkpt><trkpt lat="46.08830101982151" lon="12.91776361989997"><ele>95.0</ele><time>2026-05-01T07:49:53Z</time></trkpt><trkpt lat="46.08836616090751" lon="12.917537817761245"><ele>95.0</ele><time>2026-05-01T07:49:54Z</time></trkpt><trkpt lat="46.08842938427072" lon="12.917310039381137"><ele>95.0</ele><time>2026-05-01T07:49:55Z</time></trkpt><trkpt lat="46.08849432446563" lon="12.917082157437305"><ele>95.0</ele><time>2026-05-01T07:49:56Z</time></trkpt><trkpt lat="46.08855958848556" lon="12.916846585731095"><ele>95.0</ele><time>2026-05-01T07:49:57Z</time></trkpt><trkpt lat="46.08862773269441" lon="12.9166034399515"><ele>95.0</ele><time>2026-05-01T07:49:58Z</time></trkpt><trkpt lat="46.08869594398533" lon="12.916365708082951"><ele>94.33333333333334</ele><time>2026-05-01T07:49:59Z</time></trkpt><trkpt lat="46.088762918321684" lon="12.91613236276878"><ele>93.66666666666667</ele><time>2026-05-01T07:50:00Z</time></trkpt><trkpt lat="46.088829035238156" lon="12.915897885070496"><ele>93.0</ele><time>2026-05-01T07:50:01Z</time></trkpt><trkpt lat="46.08889523849303" lon="12.915662854391822"><ele>93.0</ele><time>2026-05-01T07:50:02Z</time></trkpt><trkpt lat="46.088962299117554" lon="12.915425017248804"><ele>93.0</ele><time>2026-05-01T07:50:03Z</time></trkpt><trkpt lat="46.08903288470663" lon="12.91518867373734"><ele>93.0</ele><time>2026-05-01T07:50:04Z</time></trkpt><trkpt lat="46.08910166289301" lon="12.914942469651713"><ele>93.66666666666667</ele><time>2026-05-01T07:50:05Z</time></trkpt><trkpt lat="46.08917467619197" lon="12.914688092288932"><ele>94.33333333333334</ele><time>2026-05-01T07:50:06Z</time></trkpt><trkpt lat="46.08924500901792" lon="12.914441944858316"><ele>95.0</ele><time>2026-05-01T07:50:07Z</time></trkpt><trkpt lat="46.08931546983464" lon="12.914189676745455"><ele>95.0</ele><time>2026-05-01T07:50:08Z</time></trkpt><trkpt lat="46.089386777554104" lon="12.913936183519198"><ele>95.0</ele><time>2026-05-01T07:50:09Z</time></trkpt><trkpt lat="46.089458482462604" lon="12.91369516920259"><ele>95.0</ele><time>2026-05-01T07:50:10Z</time></trkpt><trkpt lat="46.089526410121415" lon="12.913448532028006"><ele>95.0</ele><time>2026-05-01T07:50:11Z</time></trkpt><trkpt lat="46.08959105040376" lon="12.913200972699045"><ele>95.0</ele><time>2026-05-01T07:50:12Z</time></trkpt><trkpt lat="46.08966231079045" lon="12.912956351274477"><ele>95.0</ele><time>2026-05-01T07:50:13Z</time></trkpt><trkpt lat="46.08973139206138" lon="12.91271122025671"><ele>94.66666666666667</ele><time>2026-05-01T07:50:14Z</time></trkpt><trkpt lat="46.08980022641134" lon="12.912464554856012"><ele>94.33333333333333</ele><time>2026-05-01T07:50:15Z</time></trkpt><trkpt lat="46.08986909102884" lon="12.9122160864151"><ele>94.0</ele><time>2026-05-01T07:50:16Z</time></trkpt><trkpt lat="46.08993934238279" lon="12.911969003149387"><ele>93.66666666666666</ele><time>2026-05-01T07:50:17Z</time></trkpt><trkpt lat="46.0900101755752" lon="12.911725213712005"><ele>93.33333333333333</ele><time>2026-05-01T07:50:18Z</time></trkpt><trkpt lat="46.09008305181703" lon="12.911475022214308"><ele>93.0</ele><time>2026-05-01T07:50:19Z</time></trkpt><trkpt lat="46.09015200818431" lon="12.911228502488036"><ele>93.0</ele><time>2026-05-01T07:50:20Z</time></trkpt><trkpt lat="46.090227530911" lon="12.91097348955022"><ele>93.0</ele><time>2026-05-01T07:50:21Z</time></trkpt><trkpt lat="46.09031184510334" lon="12.910734168732903"><ele>93.0</ele><time>2026-05-01T07:50:22Z</time></trkpt><trkpt lat="46.090415196097034" lon="12.910491819857539"><ele>92.66666666666667</ele><time>2026-05-01T07:50:23Z</time></trkpt><trkpt lat="46.090527811376255" lon="12.910265364299962"><ele>92.33333333333334</ele><time>2026-05-01T07:50:24Z</time></trkpt><trkpt lat="46.09064366314333" lon="12.910066821574068"><ele>92.0</ele><time>2026-05-01T07:50:25Z</time></trkpt><trkpt lat="46.09076431545132" lon="12.909879679753132"><ele>93.66666666666667</ele><time>2026-05-01T07:50:26Z</time></trkpt><trkpt lat="46.090887102135675" lon="12.909710771598142"><ele>95.33333333333334</ele><time>2026-05-01T07:50:26.999Z</time></trkpt><trkpt lat="46.09101874392266" lon="12.909548920265854"><ele>97.0</ele><time>2026-05-01T07:50:27.999Z</time></trkpt><trkpt lat="46.0911515617343" lon="12.909412589554421"><ele>97.0</ele><time>2026-05-01T07:50:28.999Z</time></trkpt><trkpt lat="46.09127749595977" lon="12.90930629034957"><ele>97.0</ele><time>2026-05-01T07:50:29.999Z</time></trkpt><trkpt lat="46.09139975315364" lon="12.90920599980953"><ele>97.0</ele><time>2026-05-01T07:50:30.999Z</time></trkpt><trkpt lat="46.09151663706891" lon="12.90912684743946"><ele>97.0</ele><time>2026-05-01T07:50:31.999Z</time></trkpt><trkpt lat="46.091630340080975" lon="12.909052241976752"><ele>98.0</ele><time>2026-05-01T07:50:32.999Z</time></trkpt><trkpt lat="46.091743475184124" lon="12.908987550260793"><ele>99.0</ele><time>2026-05-01T07:50:33.999Z</time></trkpt><trkpt lat="46.09186373357299" lon="12.90892746480475"><ele>100.0</ele><time>2026-05-01T07:50:34.999Z</time></trkpt><trkpt lat="46.09199317886154" lon="12.908871211476693"><ele>101.0</ele><time>2026-05-01T07:50:35.999Z</time></trkpt><trkpt lat="46.09212558074964" lon="12.908805475562708"><ele>101.0</ele><time>2026-05-01T07:50:36.999Z</time></trkpt><trkpt lat="46.092270206899265" lon="12.90877951353046"><ele>101.0</ele><time>2026-05-01T07:50:37.999Z</time></trkpt><trkpt lat="46.092419704754775" lon="12.908765807029871"><ele>101.0</ele><time>2026-05-01T07:50:38.999Z</time></trkpt><trkpt lat="46.09257133642046" lon="12.908764233723998"><ele>101.0</ele><time>2026-05-01T07:50:39.999Z</time></trkpt><trkpt lat="46.09272246794145" lon="12.908766594013956"><ele>100.75</ele><time>2026-05-01T07:50:40.999Z</time></trkpt><trkpt lat="46.09287175604196" lon="12.908769923102547"><ele>100.5</ele><time>2026-05-01T07:50:41.999Z</time></trkpt><trkpt lat="46.0930147057777" lon="12.908770948624527"><ele>100.25</ele><time>2026-05-01T07:50:42.999Z</time></trkpt><trkpt lat="46.09315329646302" lon="12.908760746746545"><ele>100.0</ele><time>2026-05-01T07:50:43.999Z</time></trkpt><trkpt lat="46.093285919313935" lon="12.908737499422328"><ele>100.0</ele><time>2026-05-01T07:50:44.999Z</time></trkpt><trkpt lat="46.09341334591448" lon="12.908704181274793"><ele>100.0</ele><time>2026-05-01T07:50:45.999Z</time></trkpt><trkpt lat="46.09353863534789" lon="12.908654292461282"><ele>100.0</ele><time>2026-05-01T07:50:46.999Z</time></trkpt><trkpt lat="46.093662237412126" lon="12.908589987487327"><ele>100.0</ele><time>2026-05-01T07:50:47.999Z</time></trkpt><trkpt lat="46.09378691099305" lon="12.908510159146969"><ele>100.0</ele><time>2026-05-01T07:50:48.999Z</time></trkpt><trkpt lat="46.093912759576575" lon="12.908427163781475"><ele>100.0</ele><time>2026-05-01T07:50:49.999Z</time></trkpt><trkpt lat="46.09404034807619" lon="12.908344537593532"><ele>100.0</ele><time>2026-05-01T07:50:50.999Z</time></trkpt><trkpt lat="46.094169587207396" lon="12.908269408100912"><ele>100.0</ele><time>2026-05-01T07:50:51.999Z</time></trkpt><trkpt lat="46.094303567413256" lon="12.908199483489017"><ele>103.33333333333334</ele><time>2026-05-01T07:50:52.999Z</time></trkpt><trkpt lat="46.09444137253548" lon="12.90813804125196"><ele>106.66666666666666</ele><time>2026-05-01T07:50:53.999Z</time></trkpt><trkpt lat="46.0945893715803" lon="12.908088477369269"><ele>110.0</ele><time>2026-05-01T07:50:54.999Z</time></trkpt><trkpt lat="46.09474349048047" lon="12.908045293490655"><ele>110.0</ele><time>2026-05-01T07:50:55.999Z</time></trkpt><trkpt lat="46.09490017718208" lon="12.907999186369596"><ele>110.0</ele><time>2026-05-01T07:50:56.999Z</time></trkpt><trkpt lat="46.09505504388086" lon="12.907946823031756"><ele>110.0</ele><time>2026-05-01T07:50:57.999Z</time></trkpt><trkpt lat="46.09521080760639" lon="12.90787990354436"><ele>107.66666666666666</ele><time>2026-05-01T07:50:58.999Z</time></trkpt><trkpt lat="46.09536518657501" lon="12.907804815300533"><ele>105.33333333333334</ele><time>2026-05-01T07:50:59.999Z</time></trkpt><trkpt lat="46.09551593638064" lon="12.907715732131239"><ele>103.0</ele><time>2026-05-01T07:51:00.999Z</time></trkpt><trkpt lat="46.09565953675649" lon="12.907609455104481"><ele>106.33333333333334</ele><time>2026-05-01T07:51:01.999Z</time></trkpt><trkpt lat="46.09579508374464" lon="12.907489370882201"><ele>109.66666666666666</ele><time>2026-05-01T07:51:02.999Z</time></trkpt><trkpt lat="46.09592677662951" lon="12.90736443066916"><ele>113.0</ele><time>2026-05-01T07:51:03.999Z</time></trkpt><trkpt lat="46.096054465741936" lon="12.907248730167483"><ele>113.0</ele><time>2026-05-01T07:51:04.999Z</time></trkpt><trkpt lat="46.09617721671595" lon="12.907143216970628"><ele>113.0</ele><time>2026-05-01T07:51:05.999Z</time></trkpt><trkpt lat="46.096298006670835" lon="12.907042580692655"><ele>113.0</ele><time>2026-05-01T07:51:06.999Z</time></trkpt><trkpt lat="46.096421171360895" lon="12.90695419765562"><ele>113.0</ele><time>2026-05-01T07:51:07.999Z</time></trkpt><trkpt lat="46.09654573668226" lon="12.90687612404986"><ele>113.75</ele><time>2026-05-01T07:51:08.999Z</time></trkpt><trkpt lat="46.09667294500301" lon="12.906807622027348"><ele>114.5</ele><time>2026-05-01T07:51:09.999Z</time></trkpt><trkpt lat="46.09680476523514" lon="12.906746612117352"><ele>115.25</ele><time>2026-05-01T07:51:10.999Z</time></trkpt><trkpt lat="46.0969424540595" lon="12.906694351700798"><ele>116.0</ele><time>2026-05-01T07:51:11.999Z</time></trkpt><trkpt lat="46.097085047249706" lon="12.90665226561216"><ele>116.0</ele><time>2026-05-01T07:51:12.999Z</time></trkpt><trkpt lat="46.09723128973958" lon="12.90661864417045"><ele>116.0</ele><time>2026-05-01T07:51:13.999Z</time></trkpt><trkpt lat="46.097383272232015" lon="12.906588816152954"><ele>116.0</ele><time>2026-05-01T07:51:14.999Z</time></trkpt><trkpt lat="46.09754240174161" lon="12.906565613946714"><ele>115.33333333333333</ele><time>2026-05-01T07:51:15.999Z</time></trkpt><trkpt lat="46.09770460860695" lon="12.9065463773568"><ele>114.66666666666666</ele><time>2026-05-01T07:51:16.999Z</time></trkpt><trkpt lat="46.09786464065562" lon="12.906527797472728"><ele>114.0</ele><time>2026-05-01T07:51:17.999Z</time></trkpt><trkpt lat="46.09801918625683" lon="12.906515876794801"><ele>114.0</ele><time>2026-05-01T07:51:18.999Z</time></trkpt><trkpt lat="46.09816429666115" lon="12.906515018397657"><ele>114.0</ele><time>2026-05-01T07:51:19.999Z</time></trkpt><trkpt lat="46.0983030995689" lon="12.906527638471271"><ele>114.0</ele><time>2026-05-01T07:51:20.999Z</time></trkpt><trkpt lat="46.09843717751925" lon="12.906540815271056"><ele>114.0</ele><time>2026-05-01T07:51:21.999Z</time></trkpt><trkpt lat="46.09856704613836" lon="12.906553256106077"><ele>114.5</ele><time>2026-05-01T07:51:22.999Z</time></trkpt><trkpt lat="46.09869420433752" lon="12.906566453196444"><ele>115.0</ele><time>2026-05-01T07:51:23.999Z</time></trkpt><trkpt lat="46.098817405056266" lon="12.906580419648451"><ele>115.5</ele><time>2026-05-01T07:51:24.999Z</time></trkpt><trkpt lat="46.0989409283798" lon="12.906587814811374"><ele>116.0</ele><time>2026-05-01T07:51:25.999Z</time></trkpt><trkpt lat="46.09906622716728" lon="12.906592012094334"><ele>116.5</ele><time>2026-05-01T07:51:26.999Z</time></trkpt><trkpt lat="46.09919251712965" lon="12.90659167856373"><ele>117.0</ele><time>2026-05-01T07:51:27.999Z</time></trkpt><trkpt lat="46.0993192420015" lon="12.906591500234677"><ele>117.5</ele><time>2026-05-01T07:51:28.999Z</time></trkpt><trkpt lat="46.09944874650666" lon="12.90659363869579"><ele>118.0</ele><time>2026-05-01T07:51:30Z</time></trkpt><trkpt lat="46.0995831557551" lon="12.906591615997048"><ele>118.0</ele><time>2026-05-01T07:51:31Z</time></trkpt><trkpt lat="46.099720293930325" lon="12.906594506165927"><ele>118.0</ele><time>2026-05-01T07:51:32Z</time></trkpt><trkpt lat="46.09986029508029" lon="12.90659496981743"><ele>118.0</ele><time>2026-05-01T07:51:33Z</time></trkpt><trkpt lat="46.100002574368425" lon="12.90659767641318"><ele>118.0</ele><time>2026-05-01T07:51:34Z</time></trkpt><trkpt lat="46.10014716651986" lon="12.90660326048504"><ele>118.75</ele><time>2026-05-01T07:51:35Z</time></trkpt><trkpt lat="46.10028582475953" lon="12.906613046671476"><ele>119.5</ele><time>2026-05-01T07:51:36Z</time></trkpt><trkpt lat="46.10043577859834" lon="12.906626864254093"><ele>120.25</ele><time>2026-05-01T07:51:37Z</time></trkpt><trkpt lat="46.10059140776703" lon="12.906641043482413"><ele>121.0</ele><time>2026-05-01T07:51:38Z</time></trkpt><trkpt lat="46.100743842748464" lon="12.906666667525387"><ele>121.25</ele><time>2026-05-01T07:51:39Z</time></trkpt><trkpt lat="46.10089900048306" lon="12.906671973000801"><ele>121.5</ele><time>2026-05-01T07:51:40Z</time></trkpt><trkpt lat="46.101047388271475" lon="12.906680604098064"><ele>121.75</ele><time>2026-05-01T07:51:41Z</time></trkpt><trkpt lat="46.10119080023425" lon="12.906684407257377"><ele>122.0</ele><time>2026-05-01T07:51:42Z</time></trkpt><trkpt lat="46.10133310312768" lon="12.90668172390115"><ele>122.0</ele><time>2026-05-01T07:51:43Z</time></trkpt><trkpt lat="46.10147141331268" lon="12.906675093466127"><ele>122.0</ele><time>2026-05-01T07:51:44Z</time></trkpt><trkpt lat="46.10160436961608" lon="12.906656033045358"><ele>122.0</ele><time>2026-05-01T07:51:45Z</time></trkpt><trkpt lat="46.101725423115056" lon="12.906628709172304"><ele>122.0</ele><time>2026-05-01T07:51:46Z</time></trkpt><trkpt lat="46.101836265828624" lon="12.906592766501785"><ele>122.33333333333333</ele><time>2026-05-01T07:51:47Z</time></trkpt><trkpt lat="46.101934216667296" lon="12.906555280573162"><ele>122.66666666666666</ele><time>2026-05-01T07:51:48Z</time></trkpt><trkpt lat="46.10201903447662" lon="12.906518468296335"><ele>123.0</ele><time>2026-05-01T07:51:49Z</time></trkpt><trkpt lat="46.102092691121534" lon="12.906487881442954"><ele>123.33333333333334</ele><time>2026-05-01T07:51:50Z</time></trkpt><trkpt lat="46.102159649095135" lon="12.906465852946296"><ele>123.66666666666667</ele><time>2026-05-01T07:51:51Z</time></trkpt><trkpt lat="46.102243263048244" lon="12.906457250692062"><ele>124.0</ele><time>2026-05-01T07:51:52Z</time></trkpt><trkpt lat="46.10233260845774" lon="12.906474635439185"><ele>124.2</ele><time>2026-05-01T07:51:53Z</time></trkpt><trkpt lat="46.102425365803214" lon="12.90650757998442"><ele>124.4</ele><time>2026-05-01T07:51:54Z</time></trkpt><trkpt lat="46.102514451647515" lon="12.906506880006125"><ele>124.6</ele><time>2026-05-01T07:51:55Z</time></trkpt><trkpt lat="46.102596742420616" lon="12.906447151694582"><ele>124.8</ele><time>2026-05-01T07:51:56Z</time></trkpt><trkpt lat="46.1026605052719" lon="12.906345988145384"><ele>125.0</ele><time>2026-05-01T07:51:57Z</time></trkpt><trkpt lat="46.10268884602691" lon="12.906219151817947"><ele>124.99999999999999</ele><time>2026-05-01T07:51:58Z</time></trkpt><trkpt lat="46.10268011148059" lon="12.906086352898315"><ele>125.0</ele><time>2026-05-01T07:51:59Z</time></trkpt><trkpt lat="46.10263657169501" lon="12.905970626232014"><ele>125.0</ele><time>2026-05-01T07:52:00Z</time></trkpt><trkpt lat="46.102572162142565" lon="12.905883665295779"><ele>125.0</ele><time>2026-05-01T07:52:01Z</time></trkpt><trkpt lat="46.10250122344347" lon="12.905824302666081"><ele>124.99999999999999</ele><time>2026-05-01T07:52:02Z</time></trkpt><trkpt lat="46.102430412092865" lon="12.905782124845713"><ele>125.0</ele><time>2026-05-01T07:52:03Z</time></trkpt><trkpt lat="46.10237104594281" lon="12.905729500149704"><ele>124.6</ele><time>2026-05-01T07:52:04Z</time></trkpt><trkpt lat="46.10232714291626" lon="12.90565932247114"><ele>124.2</ele><time>2026-05-01T07:52:05Z</time></trkpt><trkpt lat="46.10228744985229" lon="12.905586054072007"><ele>123.80000000000001</ele><time>2026-05-01T07:52:06Z</time></trkpt><trkpt lat="46.102251496047394" lon="12.905503685731603"><ele>123.4</ele><time>2026-05-01T07:52:07Z</time></trkpt><trkpt lat="46.10218070941639" lon="12.905385896804988"><ele>123.0</ele><time>2026-05-01T07:52:09Z</time></trkpt><trkpt lat="46.10200411210782" lon="12.90542682911848"><ele>123.0</ele><time>2026-05-01T07:52:13Z</time></trkpt><trkpt lat="46.101922790767695" lon="12.905492220291341"><ele>123.0</ele><time>2026-05-01T07:52:15Z</time></trkpt><trkpt lat="46.10183804248712" lon="12.905557641887262"><ele>123.0</ele><time>2026-05-01T07:52:18Z</time></trkpt><trkpt lat="46.1017746360701" lon="12.905589774166685"><ele>123.0</ele><time>2026-05-01T07:52:20Z</time></trkpt><trkpt lat="46.101718106982595" lon="12.90563455180146"><ele>123.0</ele><time>2026-05-01T07:52:22Z</time></trkpt><trkpt lat="46.10165938370569" lon="12.905680644931792"><ele>123.0</ele><time>2026-05-01T07:52:26Z</time></trkpt><trkpt lat="46.10159398929624" lon="12.905704692191824"><ele>123.2</ele><time>2026-05-01T07:52:31Z</time></trkpt><trkpt lat="46.10153214059429" lon="12.905680831095665"><ele>123.4</ele><time>2026-05-01T07:54:47.999Z</time></trkpt><trkpt lat="46.10150612984848" lon="12.905840283954417"><ele>123.60000000000001</ele><time>2026-05-01T08:07:30.999Z</time></trkpt><trkpt lat="46.101405468108375" lon="12.905898893272647"><ele>123.80000000000001</ele><time>2026-05-01T08:07:32.999Z</time></trkpt><trkpt lat="46.101334460582834" lon="12.90599554912533"><ele>124.0</ele><time>2026-05-01T08:07:34.999Z</time></trkpt><trkpt lat="46.101338764717184" lon="12.906115254824687"><ele>124.00000000000001</ele><time>2026-05-01T08:07:36.999Z</time></trkpt><trkpt lat="46.101419930645044" lon="12.90612883847025"><ele>124.0</ele><time>2026-05-01T08:07:39.999Z</time></trkpt><trkpt lat="46.10147330799949" lon="12.906062861302557"><ele>124.0</ele><time>2026-05-01T08:11:44.999Z</time></trkpt><trkpt lat="46.101588223572215" lon="12.905981117022915"><ele>124.0</ele><time>2026-05-01T08:11:46.999Z</time></trkpt><trkpt lat="46.10165720014172" lon="12.90593011049737"><ele>124.00000000000001</ele><time>2026-05-01T08:11:47.999Z</time></trkpt><trkpt lat="46.10172076323709" lon="12.905880196677117"><ele>124.0</ele><time>2026-05-01T08:11:48.999Z</time></trkpt><trkpt lat="46.101781403923205" lon="12.905837967182647"><ele>123.83333333333334</ele><time>2026-05-01T08:11:49.999Z</time></trkpt><trkpt lat="46.10184087567752" lon="12.90579749727856"><ele>123.66666666666667</ele><time>2026-05-01T08:11:50.999Z</time></trkpt><trkpt lat="46.101899305347686" lon="12.905759426249094"><ele>123.5</ele><time>2026-05-01T08:11:51.999Z</time></trkpt><trkpt lat="46.10195886944965" lon="12.905720625898496"><ele>123.33333333333334</ele><time>2026-05-01T08:11:52.999Z</time></trkpt><trkpt lat="46.102016635683235" lon="12.905678679129624"><ele>123.16666666666667</ele><time>2026-05-01T08:11:53.999Z</time></trkpt><trkpt lat="46.10212020244666" lon="12.905603307738085"><ele>123.0</ele><time>2026-05-01T08:11:55.999Z</time></trkpt><trkpt lat="46.10219705163942" lon="12.905591505418222"><ele>123.0</ele><time>2026-05-01T08:11:57.999Z</time></trkpt><trkpt lat="46.10225008698758" lon="12.90567992515349"><ele>123.0</ele><time>2026-05-01T08:11:59.999Z</time></trkpt><trkpt lat="46.102255545901045" lon="12.905789722675024"><ele>123.0</ele><time>2026-05-01T08:12:02.999Z</time></trkpt><trkpt lat="46.10225876779441" lon="12.905885772219538"><ele>123.0</ele><time>2026-05-01T08:12:29Z</time></trkpt><trkpt lat="46.10224346290414" lon="12.90604866471956"><ele>123.0</ele><time>2026-05-01T08:12:31Z</time></trkpt><trkpt lat="46.10223837115928" lon="12.906174649386225"><ele>123.0</ele><time>2026-05-01T08:12:32Z</time></trkpt><trkpt lat="46.102256437162644" lon="12.906304972092812"><ele>123.16666666666667</ele><time>2026-05-01T08:12:33Z</time></trkpt><trkpt lat="46.10230617567833" lon="12.90640923866399"><ele>123.33333333333334</ele><time>2026-05-01T08:12:34Z</time></trkpt><trkpt lat="46.1023769955026" lon="12.90649070638713"><ele>123.5</ele><time>2026-05-01T08:12:35Z</time></trkpt><trkpt lat="46.10245991423706" lon="12.906516707152619"><ele>123.66666666666667</ele><time>2026-05-01T08:12:36Z</time></trkpt><trkpt lat="46.102536320680215" lon="12.906488271073547"><ele>123.83333333333334</ele><time>2026-05-01T08:12:37Z</time></trkpt><trkpt lat="46.10259905176846" lon="12.906424920171716"><ele>124.0</ele><time>2026-05-01T08:12:38Z</time></trkpt><trkpt lat="46.10265731671482" lon="12.906336375299107"><ele>124.0</ele><time>2026-05-01T08:12:39Z</time></trkpt><trkpt lat="46.10269470154749" lon="12.906215060748888"><ele>124.0</ele><time>2026-05-01T08:12:40Z</time></trkpt><trkpt lat="46.102727643234175" lon="12.906082979148524"><ele>124.0</ele><time>2026-05-01T08:12:41Z</time></trkpt><trkpt lat="46.10277587952598" lon="12.905964770649986"><ele>124.0</ele><time>2026-05-01T08:12:42Z</time></trkpt><trkpt lat="46.102847435598484" lon="12.905867799125872"><ele>124.0</ele><time>2026-05-01T08:12:43Z</time></trkpt><trkpt lat="46.102935220362184" lon="12.9057805247657"><ele>124.0</ele><time>2026-05-01T08:12:44Z</time></trkpt><trkpt lat="46.10302228675337" lon="12.905684939795993"><ele>124.0</ele><time>2026-05-01T08:12:45Z</time></trkpt><trkpt lat="46.10310410400516" lon="12.905586667949885"><ele>124.0</ele><time>2026-05-01T08:12:46Z</time></trkpt><trkpt lat="46.10317230924262" lon="12.905500122398626"><ele>124.0</ele><time>2026-05-01T08:12:47Z</time></trkpt><trkpt lat="46.10323634262259" lon="12.905405591485481"><ele>124.0</ele><time>2026-05-01T08:12:48Z</time></trkpt><trkpt lat="46.10330625175055" lon="12.905302829502283"><ele>124.0</ele><time>2026-05-01T08:12:49Z</time></trkpt><trkpt lat="46.103374958539845" lon="12.905192453423663"><ele>124.0</ele><time>2026-05-01T08:12:50Z</time></trkpt><trkpt lat="46.103437825464965" lon="12.90508800490055"><ele>124.0</ele><time>2026-05-01T08:12:51Z</time></trkpt><trkpt lat="46.10349198739561" lon="12.904991696813719"><ele>124.0</ele><time>2026-05-01T08:12:52Z</time></trkpt><trkpt lat="46.10354573014851" lon="12.904888635433343"><ele>124.0</ele><time>2026-05-01T08:12:53Z</time></trkpt><trkpt lat="46.103594084659214" lon="12.904785405147091"><ele>124.00000000000001</ele><time>2026-05-01T08:12:54Z</time></trkpt><trkpt lat="46.103635105652494" lon="12.904692887243709"><ele>124.0</ele><time>2026-05-01T08:12:55Z</time></trkpt><trkpt lat="46.103670379360075" lon="12.904604139340341"><ele>124.0</ele><time>2026-05-01T08:12:56Z</time></trkpt><trkpt lat="46.10370222126313" lon="12.904501647209353"><ele>124.0</ele><time>2026-05-01T08:12:57Z</time></trkpt><trkpt lat="46.103730631178834" lon="12.904400102898167"><ele>124.00000000000001</ele><time>2026-05-01T08:12:58Z</time></trkpt><trkpt lat="46.1037602145752" lon="12.90429140880998"><ele>124.0</ele><time>2026-05-01T08:12:59Z</time></trkpt><trkpt lat="46.103787514423786" lon="12.904168026732073"><ele>124.0</ele><time>2026-05-01T08:13:00Z</time></trkpt><trkpt lat="46.1038101814401" lon="12.904027196910787"><ele>124.0</ele><time>2026-05-01T08:13:01Z</time></trkpt><trkpt lat="46.10382836761363" lon="12.903867166477369"><ele>124.0</ele><time>2026-05-01T08:13:02Z</time></trkpt><trkpt lat="46.103838564936524" lon="12.903679821965646"><ele>124.0</ele><time>2026-05-01T08:13:03Z</time></trkpt><trkpt lat="46.10384505173426" lon="12.90349849854447"><ele>124.0</ele><time>2026-05-01T08:13:03.999Z</time></trkpt><trkpt lat="46.10385046126001" lon="12.903331855545478"><ele>124.0</ele><time>2026-05-01T08:13:04.999Z</time></trkpt><trkpt lat="46.10385661848412" lon="12.903174053476576"><ele>124.0</ele><time>2026-05-01T08:13:05.999Z</time></trkpt><trkpt lat="46.10386167920258" lon="12.903015046815897"><ele>124.0</ele><time>2026-05-01T08:13:06.999Z</time></trkpt><trkpt lat="46.103866601267896" lon="12.902866205337178"><ele>124.0</ele><time>2026-05-01T08:13:07.999Z</time></trkpt><trkpt lat="46.10387196798307" lon="12.902713573845153"><ele>124.0</ele><time>2026-05-01T08:13:08.999Z</time></trkpt><trkpt lat="46.103877021713004" lon="12.902565156681224"><ele>124.0</ele><time>2026-05-01T08:13:09.999Z</time></trkpt><trkpt lat="46.10388306254547" lon="12.90242709532655"><ele>124.0</ele><time>2026-05-01T08:13:10.999Z</time></trkpt><trkpt lat="46.10388718726549" lon="12.902283237171043"><ele>124.0</ele><time>2026-05-01T08:13:11.999Z</time></trkpt><trkpt lat="46.10388884412589" lon="12.902137497755728"><ele>124.0</ele><time>2026-05-01T08:13:12.999Z</time></trkpt><trkpt lat="46.103891684772776" lon="12.901995869234119"><ele>124.00000000000001</ele><time>2026-05-01T08:13:13.999Z</time></trkpt><trkpt lat="46.10389362164629" lon="12.901863120121174"><ele>124.0</ele><time>2026-05-01T08:13:14.999Z</time></trkpt><trkpt lat="46.1038969222272" lon="12.901736589980029"><ele>124.0</ele><time>2026-05-01T08:13:15.999Z</time></trkpt><trkpt lat="46.103904207069874" lon="12.901609678223503"><ele>124.0</ele><time>2026-05-01T08:13:16.999Z</time></trkpt><trkpt lat="46.10391272183241" lon="12.901481532602709"><ele>124.00000000000001</ele><time>2026-05-01T08:13:17.999Z</time></trkpt><trkpt lat="46.10392070660516" lon="12.901349233787213"><ele>124.0</ele><time>2026-05-01T08:13:18.999Z</time></trkpt><trkpt lat="46.10392885141434" lon="12.901213609612693"><ele>124.0</ele><time>2026-05-01T08:13:19.999Z</time></trkpt><trkpt lat="46.10393766731925" lon="12.901073806119742"><ele>124.0</ele><time>2026-05-01T08:13:20.999Z</time></trkpt><trkpt lat="46.10394985584165" lon="12.900930751431623"><ele>124.0</ele><time>2026-05-01T08:13:21.999Z</time></trkpt><trkpt lat="46.10396143091869" lon="12.900795597481222"><ele>124.0</ele><time>2026-05-01T08:13:22.999Z</time></trkpt><trkpt lat="46.10396762835384" lon="12.900659187734162"><ele>124.0</ele><time>2026-05-01T08:13:23.999Z</time></trkpt><trkpt lat="46.10397217080227" lon="12.900518730552463"><ele>124.0</ele><time>2026-05-01T08:13:24.999Z</time></trkpt><trkpt lat="46.10397657295908" lon="12.900377508654284"><ele>124.0</ele><time>2026-05-01T08:13:25.999Z</time></trkpt><trkpt lat="46.10398180465675" lon="12.900235972041447"><ele>124.0</ele><time>2026-05-01T08:13:26.999Z</time></trkpt><trkpt lat="46.10398702572962" lon="12.90008501595693"><ele>124.0</ele><time>2026-05-01T08:13:27.999Z</time></trkpt><trkpt lat="46.10399285978249" lon="12.899925933474849"><ele>124.0</ele><time>2026-05-01T08:13:28.999Z</time></trkpt><trkpt lat="46.10399935525422" lon="12.899766267404665"><ele>124.0</ele><time>2026-05-01T08:13:29.999Z</time></trkpt><trkpt lat="46.104005649524574" lon="12.899612498930678"><ele>124.0</ele><time>2026-05-01T08:13:30.999Z</time></trkpt><trkpt lat="46.10400927873595" lon="12.89946423369072"><ele>124.0</ele><time>2026-05-01T08:13:31.999Z</time></trkpt><trkpt lat="46.10401680220289" lon="12.899314967298535"><ele>124.0</ele><time>2026-05-01T08:13:32.999Z</time></trkpt><trkpt lat="46.10402269057592" lon="12.89916449500404"><ele>124.0</ele><time>2026-05-01T08:13:33.999Z</time></trkpt><trkpt lat="46.10403033783794" lon="12.899002983541875"><ele>124.0</ele><time>2026-05-01T08:13:34.999Z</time></trkpt><trkpt lat="46.104041543196495" lon="12.898818907309735"><ele>124.0</ele><time>2026-05-01T08:13:35.999Z</time></trkpt><trkpt lat="46.10405341020752" lon="12.898621316559442"><ele>124.0</ele><time>2026-05-01T08:13:36.999Z</time></trkpt><trkpt lat="46.10406640526873" lon="12.898436787453246"><ele>124.0</ele><time>2026-05-01T08:13:37.999Z</time></trkpt><trkpt lat="46.10408428566719" lon="12.898258756451575"><ele>124.0</ele><time>2026-05-01T08:13:38.999Z</time></trkpt><trkpt lat="46.10410597599469" lon="12.898086117598664"><ele>124.0</ele><time>2026-05-01T08:13:39.999Z</time></trkpt><trkpt lat="46.10412750013702" lon="12.897918646361093"><ele>124.0</ele><time>2026-05-01T08:13:40.999Z</time></trkpt><trkpt lat="46.10415431453091" lon="12.8977511619529"><ele>124.0</ele><time>2026-05-01T08:13:41.999Z</time></trkpt><trkpt lat="46.104187844666356" lon="12.897588713930949"><ele>124.0</ele><time>2026-05-01T08:13:42.999Z</time></trkpt><trkpt lat="46.10422381168859" lon="12.89742788203997"><ele>124.0</ele><time>2026-05-01T08:13:43.999Z</time></trkpt><trkpt lat="46.10426214184828" lon="12.897272123930433"><ele>124.0</ele><time>2026-05-01T08:13:44.999Z</time></trkpt><trkpt lat="46.104301251873586" lon="12.897120398707994"><ele>124.0</ele><time>2026-05-01T08:13:45.999Z</time></trkpt><trkpt lat="46.10434386768511" lon="12.89697108243762"><ele>124.0</ele><time>2026-05-01T08:13:46.999Z</time></trkpt><trkpt lat="46.10439083404918" lon="12.89682171419173"><ele>124.0</ele><time>2026-05-01T08:13:47.999Z</time></trkpt><trkpt lat="46.104438711730836" lon="12.89667510342166"><ele>124.0</ele><time>2026-05-01T08:13:48.999Z</time></trkpt><trkpt lat="46.10448863404687" lon="12.896524016053387"><ele>124.0</ele><time>2026-05-01T08:13:49.999Z</time></trkpt><trkpt lat="46.10453951154617" lon="12.89637267948859"><ele>124.0</ele><time>2026-05-01T08:13:50.999Z</time></trkpt><trkpt lat="46.10459175650077" lon="12.89621941669027"><ele>124.0</ele><time>2026-05-01T08:13:51.999Z</time></trkpt><trkpt lat="46.10464431862976" lon="12.896063774679714"><ele>124.0</ele><time>2026-05-01T08:13:52.999Z</time></trkpt><trkpt lat="46.104696997400936" lon="12.895907057016963"><ele>124.0</ele><time>2026-05-01T08:13:53.999Z</time></trkpt><trkpt lat="46.104751325894455" lon="12.89574888415567"><ele>124.25</ele><time>2026-05-01T08:13:54.999Z</time></trkpt><trkpt lat="46.10480611282337" lon="12.895590446519693"><ele>124.5</ele><time>2026-05-01T08:13:55.999Z</time></trkpt><trkpt lat="46.104860528797715" lon="12.895428500944588"><ele>124.75</ele><time>2026-05-01T08:13:56.999Z</time></trkpt><trkpt lat="46.10491515952262" lon="12.895269105054169"><ele>125.0</ele><time>2026-05-01T08:13:57.999Z</time></trkpt><trkpt lat="46.104967841003514" lon="12.895112256493272"><ele>124.75</ele><time>2026-05-01T08:13:58.999Z</time></trkpt><trkpt lat="46.10501836656442" lon="12.894960734019511"><ele>124.5</ele><time>2026-05-01T08:13:59.999Z</time></trkpt><trkpt lat="46.105069192435735" lon="12.894810790150258"><ele>124.25</ele><time>2026-05-01T08:14:00.999Z</time></trkpt><trkpt lat="46.105120287034474" lon="12.894662506755923"><ele>124.0</ele><time>2026-05-01T08:14:01.999Z</time></trkpt><trkpt lat="46.10516994993945" lon="12.894515871118921"><ele>124.0</ele><time>2026-05-01T08:14:02.999Z</time></trkpt><trkpt lat="46.10521778306012" lon="12.894366983795232"><ele>124.0</ele><time>2026-05-01T08:14:03.999Z</time></trkpt><trkpt lat="46.105261754707676" lon="12.89423078005653"><ele>124.0</ele><time>2026-05-01T08:14:04.999Z</time></trkpt><trkpt lat="46.105302058713534" lon="12.894103835497793"><ele>124.0</ele><time>2026-05-01T08:14:05.999Z</time></trkpt><trkpt lat="46.10533476292779" lon="12.893992480145759"><ele>124.0</ele><time>2026-05-01T08:14:06.999Z</time></trkpt><trkpt lat="46.10536727127424" lon="12.89388825164434"><ele>123.83333333333334</ele><time>2026-05-01T08:14:07.999Z</time></trkpt><trkpt lat="46.105400046417955" lon="12.89378597558158"><ele>123.66666666666667</ele><time>2026-05-01T08:14:08.999Z</time></trkpt><trkpt lat="46.105438492525955" lon="12.893699389106416"><ele>123.5</ele><time>2026-05-01T08:14:09.999Z</time></trkpt><trkpt lat="46.10549931780334" lon="12.893630972100906"><ele>123.33333333333334</ele><time>2026-05-01T08:14:10.999Z</time></trkpt><trkpt lat="46.10557096637068" lon="12.893578351971732"><ele>123.16666666666667</ele><time>2026-05-01T08:14:11.999Z</time></trkpt><trkpt lat="46.10564277489754" lon="12.893507216479255"><ele>123.0</ele><time>2026-05-01T08:14:12.999Z</time></trkpt><trkpt lat="46.105688239053684" lon="12.893385702328471"><ele>123.0</ele><time>2026-05-01T08:14:13.999Z</time></trkpt><trkpt lat="46.10569090059457" lon="12.89324486592934"><ele>123.00000000000001</ele><time>2026-05-01T08:14:14.999Z</time></trkpt><trkpt lat="46.10563908373308" lon="12.893118877426515"><ele>123.00000000000001</ele><time>2026-05-01T08:14:15.999Z</time></trkpt><trkpt lat="46.105548197250705" lon="12.893035233893317"><ele>123.0</ele><time>2026-05-01T08:14:16.999Z</time></trkpt><trkpt lat="46.10542560161729" lon="12.89302255336918"><ele>123.0</ele><time>2026-05-01T08:14:17.999Z</time></trkpt><trkpt lat="46.10530267601428" lon="12.892998101034689"><ele>123.0</ele><time>2026-05-01T08:14:18.999Z</time></trkpt><trkpt lat="46.105187534613314" lon="12.892900462183015"><ele>123.0</ele><time>2026-05-01T08:14:19.999Z</time></trkpt><trkpt lat="46.105066587084984" lon="12.892834832488619"><ele>123.0</ele><time>2026-05-01T08:14:20.999Z</time></trkpt><trkpt lat="46.10498908744529" lon="12.892666396755452"><ele>123.0</ele><time>2026-05-01T08:14:21.999Z</time></trkpt><trkpt lat="46.104909639850774" lon="12.892569283368227"><ele>123.4</ele><time>2026-05-01T08:14:22.999Z</time></trkpt><trkpt lat="46.10483291934959" lon="12.892481255232394"><ele>123.80000000000001</ele><time>2026-05-01T08:14:23.999Z</time></trkpt><trkpt lat="46.1047466300648" lon="12.892396268565594"><ele>124.2</ele><time>2026-05-01T08:14:24.999Z</time></trkpt><trkpt lat="46.104656053492654" lon="12.892317343785134"><ele>124.6</ele><time>2026-05-01T08:14:25.999Z</time></trkpt><trkpt lat="46.10456725546545" lon="12.89224167740442"><ele>125.0</ele><time>2026-05-01T08:14:26.999Z</time></trkpt><trkpt lat="46.10447629787204" lon="12.892178292917272"><ele>125.0</ele><time>2026-05-01T08:14:27.999Z</time></trkpt><trkpt lat="46.10438597468159" lon="12.892120792798641"><ele>125.0</ele><time>2026-05-01T08:14:28.999Z</time></trkpt><trkpt lat="46.10429529568147" lon="12.892068841697872"><ele>125.0</ele><time>2026-05-01T08:14:29.999Z</time></trkpt><trkpt lat="46.10420133039691" lon="12.892019588113277"><ele>125.0</ele><time>2026-05-01T08:14:30.999Z</time></trkpt><trkpt lat="46.104101515950795" lon="12.891969555161426"><ele>125.0</ele><time>2026-05-01T08:14:31.999Z</time></trkpt><trkpt lat="46.10399408894148" lon="12.891912908452019"><ele>124.5</ele><time>2026-05-01T08:14:32.999Z</time></trkpt><trkpt lat="46.10388213853918" lon="12.891855362365858"><ele>124.0</ele><time>2026-05-01T08:14:33.999Z</time></trkpt><trkpt lat="46.10377292194663" lon="12.891797363064278"><ele>123.5</ele><time>2026-05-01T08:14:35Z</time></trkpt><trkpt lat="46.103661876608626" lon="12.891738588077263"><ele>123.0</ele><time>2026-05-01T08:14:36Z</time></trkpt><trkpt lat="46.10354890752437" lon="12.89168023341159"><ele>123.0</ele><time>2026-05-01T08:14:37Z</time></trkpt><trkpt lat="46.10344180584857" lon="12.891625651824775"><ele>123.00000000000001</ele><time>2026-05-01T08:14:38Z</time></trkpt><trkpt lat="46.10334280136525" lon="12.891575374828456"><ele>123.00000000000001</ele><time>2026-05-01T08:14:39Z</time></trkpt><trkpt lat="46.10324707227191" lon="12.891522279693817"><ele>123.0</ele><time>2026-05-01T08:14:40Z</time></trkpt><trkpt lat="46.10314633516964" lon="12.891473341309979"><ele>123.0</ele><time>2026-05-01T08:14:41Z</time></trkpt><trkpt lat="46.10304028873078" lon="12.891436728575464"><ele>122.75</ele><time>2026-05-01T08:14:42Z</time></trkpt><trkpt lat="46.102928848905755" lon="12.89141964233208"><ele>122.5</ele><time>2026-05-01T08:14:43Z</time></trkpt><trkpt lat="46.10281303357384" lon="12.891419088201074"><ele>122.25</ele><time>2026-05-01T08:14:44Z</time></trkpt><trkpt lat="46.10268396012511" lon="12.891421142599922"><ele>122.0</ele><time>2026-05-01T08:14:45Z</time></trkpt><trkpt lat="46.10254441843808" lon="12.891422304619924"><ele>122.0</ele><time>2026-05-01T08:14:46Z</time></trkpt><trkpt lat="46.102392226207314" lon="12.891423182229746"><ele>122.0</ele><time>2026-05-01T08:14:47Z</time></trkpt><trkpt lat="46.10222931547291" lon="12.891424730820734"><ele>122.0</ele><time>2026-05-01T08:14:48Z</time></trkpt><trkpt lat="46.10206697792475" lon="12.89141965131991"><ele>122.0</ele><time>2026-05-01T08:14:49Z</time></trkpt><trkpt lat="46.101906004548574" lon="12.891402441250108"><ele>122.0</ele><time>2026-05-01T08:14:50Z</time></trkpt><trkpt lat="46.101744486851665" lon="12.891379916730216"><ele>122.0</ele><time>2026-05-01T08:14:51Z</time></trkpt><trkpt lat="46.1015888141144" lon="12.891350274231419"><ele>122.0</ele><time>2026-05-01T08:14:52Z</time></trkpt><trkpt lat="46.10145154667585" lon="12.891324885754221"><ele>122.0</ele><time>2026-05-01T08:14:53Z</time></trkpt><trkpt lat="46.10132382242771" lon="12.891303845491947"><ele>122.0</ele><time>2026-05-01T08:14:54Z</time></trkpt><trkpt lat="46.10119726942694" lon="12.891279886666062"><ele>122.0</ele><time>2026-05-01T08:14:55Z</time></trkpt><trkpt lat="46.101068693983976" lon="12.891254834723348"><ele>122.0</ele><time>2026-05-01T08:14:56Z</time></trkpt><trkpt lat="46.100937706091365" lon="12.89122617573179"><ele>122.0</ele><time>2026-05-01T08:14:57Z</time></trkpt><trkpt lat="46.10080355682206" lon="12.891176344395765"><ele>122.0</ele><time>2026-05-01T08:14:58Z</time></trkpt><trkpt lat="46.10066710122197" lon="12.89110057049059"><ele>122.0</ele><time>2026-05-01T08:14:59Z</time></trkpt><trkpt lat="46.10053383819213" lon="12.890972670967379"><ele>121.33333333333333</ele><time>2026-05-01T08:15:00Z</time></trkpt><trkpt lat="46.10040748307547" lon="12.890802342177754"><ele>120.66666666666666</ele><time>2026-05-01T08:15:01Z</time></trkpt><trkpt lat="46.10028600873427" lon="12.890577869378436"><ele>120.0</ele><time>2026-05-01T08:15:02Z</time></trkpt><trkpt lat="46.10015284821795" lon="12.890340377044721"><ele>120.0</ele><time>2026-05-01T08:15:03Z</time></trkpt><trkpt lat="46.1000189101133" lon="12.890101680066573"><ele>120.0</ele><time>2026-05-01T08:15:04Z</time></trkpt><trkpt lat="46.0998895287427" lon="12.889879650746767"><ele>120.0</ele><time>2026-05-01T08:15:05Z</time></trkpt><trkpt lat="46.0997662512766" lon="12.889674536788489"><ele>119.33333333333334</ele><time>2026-05-01T08:15:06Z</time></trkpt><trkpt lat="46.09963461668396" lon="12.889490172688042"><ele>118.66666666666667</ele><time>2026-05-01T08:15:07Z</time></trkpt><trkpt lat="46.09948428535514" lon="12.88931708383774"><ele>118.0</ele><time>2026-05-01T08:15:08Z</time></trkpt><trkpt lat="46.09932167794102" lon="12.889157809698437"><ele>118.0</ele><time>2026-05-01T08:15:09Z</time></trkpt><trkpt lat="46.09915751576327" lon="12.889008280634847"><ele>118.0</ele><time>2026-05-01T08:15:09.999Z</time></trkpt><trkpt lat="46.09899442773563" lon="12.888863479409851"><ele>118.0</ele><time>2026-05-01T08:15:10.999Z</time></trkpt><trkpt lat="46.0988328029369" lon="12.888716692806492"><ele>117.66666666666667</ele><time>2026-05-01T08:15:11.999Z</time></trkpt><trkpt lat="46.09867088021524" lon="12.888567540190149"><ele>117.33333333333334</ele><time>2026-05-01T08:15:12.999Z</time></trkpt><trkpt lat="46.098520649511705" lon="12.88843008927217"><ele>117.0</ele><time>2026-05-01T08:15:13.999Z</time></trkpt><trkpt lat="46.09838083598933" lon="12.88830265958937"><ele>116.66666666666666</ele><time>2026-05-01T08:15:14.999Z</time></trkpt><trkpt lat="46.09824185909067" lon="12.888175223078635"><ele>116.33333333333333</ele><time>2026-05-01T08:15:15.999Z</time></trkpt><trkpt lat="46.09810050722403" lon="12.888046233993881"><ele>116.0</ele><time>2026-05-01T08:15:16.999Z</time></trkpt><trkpt lat="46.09795705804128" lon="12.887916975188025"><ele>116.0</ele><time>2026-05-01T08:15:17.999Z</time></trkpt><trkpt lat="46.09781862106134" lon="12.887787494365536"><ele>116.0</ele><time>2026-05-01T08:15:18.999Z</time></trkpt><trkpt lat="46.097689230577565" lon="12.887651303651767"><ele>116.0</ele><time>2026-05-01T08:15:19.999Z</time></trkpt><trkpt lat="46.097568423814636" lon="12.887497196495492"><ele>116.0</ele><time>2026-05-01T08:15:20.999Z</time></trkpt><trkpt lat="46.09745005396876" lon="12.88732678246827"><ele>116.0</ele><time>2026-05-01T08:15:21.999Z</time></trkpt><trkpt lat="46.097329678412144" lon="12.887146055030726"><ele>116.0</ele><time>2026-05-01T08:15:22.999Z</time></trkpt><trkpt lat="46.09720964835202" lon="12.886959918933734"><ele>116.33333333333333</ele><time>2026-05-01T08:15:23.999Z</time></trkpt><trkpt lat="46.097088281077745" lon="12.88677218115657"><ele>116.66666666666666</ele><time>2026-05-01T08:15:24.999Z</time></trkpt><trkpt lat="46.096968283960884" lon="12.88658953328367"><ele>117.0</ele><time>2026-05-01T08:15:25.999Z</time></trkpt><trkpt lat="46.09684785864071" lon="12.88640895685162"><ele>117.0</ele><time>2026-05-01T08:15:26.999Z</time></trkpt><trkpt lat="46.09672864720671" lon="12.88622801925077"><ele>117.0</ele><time>2026-05-01T08:15:27.999Z</time></trkpt><trkpt lat="46.096609572210575" lon="12.886048335155705"><ele>117.0</ele><time>2026-05-01T08:15:28.999Z</time></trkpt><trkpt lat="46.096491548912034" lon="12.88586939751005"><ele>117.0</ele><time>2026-05-01T08:15:29.999Z</time></trkpt><trkpt lat="46.09637375992576" lon="12.885689931794314"><ele>117.0</ele><time>2026-05-01T08:15:30.999Z</time></trkpt><trkpt lat="46.096253456567744" lon="12.885508984545005"><ele>117.0</ele><time>2026-05-01T08:15:31.999Z</time></trkpt><trkpt lat="46.09613305648235" lon="12.885326105793226"><ele>117.0</ele><time>2026-05-01T08:15:32.999Z</time></trkpt><trkpt lat="46.09601234689702" lon="12.885140784003264"><ele>117.0</ele><time>2026-05-01T08:15:33.999Z</time></trkpt><trkpt lat="46.09589263250445" lon="12.884956063549367"><ele>117.0</ele><time>2026-05-01T08:15:34.999Z</time></trkpt><trkpt lat="46.095775280854866" lon="12.884777467195184"><ele>116.33333333333334</ele><time>2026-05-01T08:15:35.999Z</time></trkpt><trkpt lat="46.095660663782596" lon="12.88460620361723"><ele>115.66666666666667</ele><time>2026-05-01T08:15:36.999Z</time></trkpt><trkpt lat="46.0955557105907" lon="12.884446713047431"><ele>115.0</ele><time>2026-05-01T08:15:37.999Z</time></trkpt><trkpt lat="46.095459734514336" lon="12.884299161067407"><ele>115.0</ele><time>2026-05-01T08:15:38.999Z</time></trkpt><trkpt lat="46.09536168431509" lon="12.884150383388677"><ele>115.0</ele><time>2026-05-01T08:15:39.999Z</time></trkpt><trkpt lat="46.09526352033668" lon="12.88400209300122"><ele>115.0</ele><time>2026-05-01T08:15:40.999Z</time></trkpt><trkpt lat="46.09517448687617" lon="12.883866111793301"><ele>115.0</ele><time>2026-05-01T08:15:41.999Z</time></trkpt><trkpt lat="46.09509265710002" lon="12.883739893562772"><ele>115.0</ele><time>2026-05-01T08:15:42.999Z</time></trkpt><trkpt lat="46.09502051546288" lon="12.883615535724742"><ele>115.0</ele><time>2026-05-01T08:15:43.999Z</time></trkpt><trkpt lat="46.094961954990985" lon="12.883483242323564"><ele>115.0</ele><time>2026-05-01T08:15:44.999Z</time></trkpt><trkpt lat="46.09492197883704" lon="12.883329742005682"><ele>115.0</ele><time>2026-05-01T08:15:45.999Z</time></trkpt><trkpt lat="46.094907756493384" lon="12.883160053711968"><ele>114.66666666666667</ele><time>2026-05-01T08:15:46.999Z</time></trkpt><trkpt lat="46.09491824043163" lon="12.882969868672644"><ele>114.33333333333334</ele><time>2026-05-01T08:15:47.999Z</time></trkpt><trkpt lat="46.0949400143038" lon="12.882739070496884"><ele>114.0</ele><time>2026-05-01T08:15:48.999Z</time></trkpt><trkpt lat="46.09499348842508" lon="12.88250190816679"><ele>114.33333333333334</ele><time>2026-05-01T08:15:49.999Z</time></trkpt><trkpt lat="46.095075659595196" lon="12.88226038576303"><ele>114.66666666666667</ele><time>2026-05-01T08:15:50.999Z</time></trkpt><trkpt lat="46.09512292684623" lon="12.881992415089897"><ele>115.0</ele><time>2026-05-01T08:15:51.999Z</time></trkpt><trkpt lat="46.095187632580824" lon="12.881645244394951"><ele>115.0</ele><time>2026-05-01T08:15:52.999Z</time></trkpt><trkpt lat="46.09524631368174" lon="12.88134606605048"><ele>115.0</ele><time>2026-05-01T08:15:53.999Z</time></trkpt><trkpt lat="46.09529474317241" lon="12.88109247828771"><ele>115.0</ele><time>2026-05-01T08:15:54.999Z</time></trkpt><trkpt lat="46.09534277655779" lon="12.880843360104025"><ele>114.33333333333334</ele><time>2026-05-01T08:15:55.999Z</time></trkpt><trkpt lat="46.095388364163945" lon="12.880599419006785"><ele>113.66666666666666</ele><time>2026-05-01T08:15:56.999Z</time></trkpt><trkpt lat="46.0954325060593" lon="12.880355154262116"><ele>113.0</ele><time>2026-05-01T08:15:57.999Z</time></trkpt><trkpt lat="46.09547756761588" lon="12.880113371989916"><ele>113.33333333333333</ele><time>2026-05-01T08:15:58.999Z</time></trkpt><trkpt lat="46.09552128092932" lon="12.879881810856197"><ele>113.66666666666666</ele><time>2026-05-01T08:15:59.999Z</time></trkpt><trkpt lat="46.09556243231651" lon="12.879660316313466"><ele>114.0</ele><time>2026-05-01T08:16:00.999Z</time></trkpt><trkpt lat="46.09560411784417" lon="12.879437740977846"><ele>113.66666666666666</ele><time>2026-05-01T08:16:01.999Z</time></trkpt><trkpt lat="46.095645173093345" lon="12.8792223062478"><ele>113.33333333333333</ele><time>2026-05-01T08:16:02.999Z</time></trkpt><trkpt lat="46.09568573310265" lon="12.879009213364187"><ele>113.0</ele><time>2026-05-01T08:16:03.999Z</time></trkpt><trkpt lat="46.09572443739036" lon="12.878797264729132"><ele>113.0</ele><time>2026-05-01T08:16:04.999Z</time></trkpt><trkpt lat="46.09576506815221" lon="12.87857386177489"><ele>113.0</ele><time>2026-05-01T08:16:05.999Z</time></trkpt><trkpt lat="46.09580649672195" lon="12.878344088969238"><ele>113.0</ele><time>2026-05-01T08:16:06.999Z</time></trkpt><trkpt lat="46.095852160465576" lon="12.878104806925174"><ele>113.33333333333333</ele><time>2026-05-01T08:16:07.999Z</time></trkpt><trkpt lat="46.09589902678742" lon="12.87785759688307"><ele>113.66666666666666</ele><time>2026-05-01T08:16:08.999Z</time></trkpt><trkpt lat="46.09594692808128" lon="12.87760104132101"><ele>114.0</ele><time>2026-05-01T08:16:09.999Z</time></trkpt><trkpt lat="46.09599706022433" lon="12.877331092882189"><ele>114.0</ele><time>2026-05-01T08:16:10.999Z</time></trkpt><trkpt lat="46.096048964252674" lon="12.877050648904104"><ele>114.0</ele><time>2026-05-01T08:16:11.999Z</time></trkpt><trkpt lat="46.09610334745924" lon="12.87676723780861"><ele>114.0</ele><time>2026-05-01T08:16:12.999Z</time></trkpt><trkpt lat="46.09615520842484" lon="12.876492935677698"><ele>113.66666666666666</ele><time>2026-05-01T08:16:13.999Z</time></trkpt><trkpt lat="46.09620490683137" lon="12.876222475193634"><ele>113.33333333333333</ele><time>2026-05-01T08:16:14.999Z</time></trkpt><trkpt lat="46.096253586660936" lon="12.875962294302003"><ele>113.0</ele><time>2026-05-01T08:16:15.999Z</time></trkpt><trkpt lat="46.09629894421775" lon="12.875719117534635"><ele>112.66666666666666</ele><time>2026-05-01T08:16:16.999Z</time></trkpt><trkpt lat="46.096345282446734" lon="12.875473333294973"><ele>112.33333333333334</ele><time>2026-05-01T08:16:17.999Z</time></trkpt><trkpt lat="46.0963899463101" lon="12.875225003726765"><ele>112.0</ele><time>2026-05-01T08:16:18.999Z</time></trkpt><trkpt lat="46.096436341489394" lon="12.874973894408306"><ele>111.66666666666667</ele><time>2026-05-01T08:16:19.999Z</time></trkpt><trkpt lat="46.096484493726365" lon="12.874720840533032"><ele>111.33333333333334</ele><time>2026-05-01T08:16:20.999Z</time></trkpt><trkpt lat="46.09653117862758" lon="12.874467125793718"><ele>111.0</ele><time>2026-05-01T08:16:21.999Z</time></trkpt><trkpt lat="46.09657762950646" lon="12.874214177739562"><ele>111.0</ele><time>2026-05-01T08:16:22.999Z</time></trkpt><trkpt lat="46.09662583342203" lon="12.8739518110302"><ele>111.0</ele><time>2026-05-01T08:16:23.999Z</time></trkpt><trkpt lat="46.096678199945444" lon="12.873678668401224"><ele>111.0</ele><time>2026-05-01T08:16:24.999Z</time></trkpt><trkpt lat="46.09673179955895" lon="12.873391291062351"><ele>112.0</ele><time>2026-05-01T08:16:25.999Z</time></trkpt><trkpt lat="46.09678599964271" lon="12.873102287297932"><ele>113.0</ele><time>2026-05-01T08:16:26.999Z</time></trkpt><trkpt lat="46.09683999679651" lon="12.872809556887566"><ele>114.0</ele><time>2026-05-01T08:16:27.999Z</time></trkpt><trkpt lat="46.09689376473554" lon="12.872520938329263"><ele>114.33333333333334</ele><time>2026-05-01T08:16:28.999Z</time></trkpt><trkpt lat="46.09694690655423" lon="12.872242055845296"><ele>114.66666666666667</ele><time>2026-05-01T08:16:29.999Z</time></trkpt><trkpt lat="46.096997851043774" lon="12.871968593368235"><ele>115.0</ele><time>2026-05-01T08:16:30.999Z</time></trkpt><trkpt lat="46.0970489566965" lon="12.871694308473772"><ele>116.0</ele><time>2026-05-01T08:16:31.999Z</time></trkpt><trkpt lat="46.09710363522539" lon="12.871413500562795"><ele>117.0</ele><time>2026-05-01T08:16:32.999Z</time></trkpt><trkpt lat="46.097162682537295" lon="12.871121948955611"><ele>118.0</ele><time>2026-05-01T08:16:33.999Z</time></trkpt><trkpt lat="46.09722255941351" lon="12.870825205771045"><ele>118.33333333333334</ele><time>2026-05-01T08:16:34.999Z</time></trkpt><trkpt lat="46.097282342670375" lon="12.870525789329188"><ele>118.66666666666666</ele><time>2026-05-01T08:16:35.999Z</time></trkpt><trkpt lat="46.097340955645436" lon="12.870224278353582"><ele>119.0</ele><time>2026-05-01T08:16:36.999Z</time></trkpt><trkpt lat="46.097396105269034" lon="12.869924218175818"><ele>119.33333333333333</ele><time>2026-05-01T08:16:37.999Z</time></trkpt><trkpt lat="46.09745117595714" lon="12.869627079570872"><ele>119.66666666666666</ele><time>2026-05-01T08:16:38.999Z</time></trkpt><trkpt lat="46.09750551476036" lon="12.869335484882853"><ele>120.0</ele><time>2026-05-01T08:16:39.999Z</time></trkpt><trkpt lat="46.097560264712115" lon="12.869044094522229"><ele>120.0</ele><time>2026-05-01T08:16:41Z</time></trkpt><trkpt lat="46.0976153012631" lon="12.868756744743493"><ele>120.0</ele><time>2026-05-01T08:16:42Z</time></trkpt><trkpt lat="46.097667622027814" lon="12.868464995515415"><ele>120.0</ele><time>2026-05-01T08:16:43Z</time></trkpt><trkpt lat="46.097718694040694" lon="12.86817486804772"><ele>120.0</ele><time>2026-05-01T08:16:44Z</time></trkpt><trkpt lat="46.09777151705215" lon="12.86788311767676"><ele>120.0</ele><time>2026-05-01T08:16:45Z</time></trkpt><trkpt lat="46.09782647810613" lon="12.867584404069083"><ele>120.0</ele><time>2026-05-01T08:16:46Z</time></trkpt><trkpt lat="46.097882675600516" lon="12.867286514049605"><ele>120.0</ele><time>2026-05-01T08:16:47Z</time></trkpt><trkpt lat="46.09794099117525" lon="12.866991170607834"><ele>120.0</ele><time>2026-05-01T08:16:48Z</time></trkpt><trkpt lat="46.097992061272485" lon="12.86669651513605"><ele>120.0</ele><time>2026-05-01T08:16:49Z</time></trkpt><trkpt lat="46.098047162300034" lon="12.86639740252821"><ele>120.33333333333334</ele><time>2026-05-01T08:16:50Z</time></trkpt><trkpt lat="46.098105493632076" lon="12.866096612625658"><ele>120.66666666666667</ele><time>2026-05-01T08:16:51Z</time></trkpt><trkpt lat="46.09816347267405" lon="12.86578734133218"><ele>121.0</ele><time>2026-05-01T08:16:52Z</time></trkpt><trkpt lat="46.098223958713035" lon="12.865470264573537"><ele>122.0</ele><time>2026-05-01T08:16:53Z</time></trkpt><trkpt lat="46.098285938371795" lon="12.865148078144287"><ele>123.0</ele><time>2026-05-01T08:16:54Z</time></trkpt><trkpt lat="46.09834800086974" lon="12.864826573176463"><ele>123.33333333333334</ele><time>2026-05-01T08:16:55Z</time></trkpt><trkpt lat="46.098407442716635" lon="12.864510068315466"><ele>123.66666666666667</ele><time>2026-05-01T08:16:56Z</time></trkpt><trkpt lat="46.09846272871038" lon="12.864203675936176"><ele>124.0</ele><time>2026-05-01T08:16:57Z</time></trkpt><trkpt lat="46.09851293962361" lon="12.863921237718028"><ele>124.33333333333334</ele><time>2026-05-01T08:16:58Z</time></trkpt><trkpt lat="46.098563264854555" lon="12.863649182568695"><ele>124.66666666666666</ele><time>2026-05-01T08:16:59Z</time></trkpt><trkpt lat="46.09861021045084" lon="12.863379055900257"><ele>125.0</ele><time>2026-05-01T08:17:00Z</time></trkpt><trkpt lat="46.09865361710121" lon="12.86310203130343"><ele>125.33333333333333</ele><time>2026-05-01T08:17:01Z</time></trkpt><trkpt lat="46.09869176875665" lon="12.862815490239765"><ele>125.66666666666666</ele><time>2026-05-01T08:17:02Z</time></trkpt><trkpt lat="46.09872503683135" lon="12.862525644409223"><ele>126.0</ele><time>2026-05-01T08:17:03Z</time></trkpt><trkpt lat="46.09875351072819" lon="12.862228404936726"><ele>126.33333333333334</ele><time>2026-05-01T08:17:04Z</time></trkpt><trkpt lat="46.098777604722315" lon="12.861927063871217"><ele>126.66666666666667</ele><time>2026-05-01T08:17:05Z</time></trkpt><trkpt lat="46.09879800717548" lon="12.861623138706646"><ele>127.0</ele><time>2026-05-01T08:17:06Z</time></trkpt><trkpt lat="46.09881526910926" lon="12.861317121085373"><ele>127.0</ele><time>2026-05-01T08:17:07Z</time></trkpt><trkpt lat="46.098824700250894" lon="12.861006895219983"><ele>127.0</ele><time>2026-05-01T08:17:08Z</time></trkpt><trkpt lat="46.09883058360114" lon="12.860692671515476"><ele>127.0</ele><time>2026-05-01T08:17:09Z</time></trkpt><trkpt lat="46.098833219278895" lon="12.860376754212307"><ele>127.0</ele><time>2026-05-01T08:17:10Z</time></trkpt><trkpt lat="46.09882957777139" lon="12.860051823208593"><ele>127.0</ele><time>2026-05-01T08:17:11Z</time></trkpt><trkpt lat="46.098824544053656" lon="12.859715983676606"><ele>127.0</ele><time>2026-05-01T08:17:11.999Z</time></trkpt><trkpt lat="46.09881717268494" lon="12.859373897278976"><ele>127.0</ele><time>2026-05-01T08:17:12.999Z</time></trkpt><trkpt lat="46.09880596891284" lon="12.859027035930904"><ele>127.0</ele><time>2026-05-01T08:17:13.999Z</time></trkpt><trkpt lat="46.09880148807762" lon="12.85867234516456"><ele>127.0</ele><time>2026-05-01T08:17:14.999Z</time></trkpt><trkpt lat="46.098801027640086" lon="12.858317518134701"><ele>128.0</ele><time>2026-05-01T08:17:15.999Z</time></trkpt><trkpt lat="46.0987948354427" lon="12.857965723933276"><ele>129.0</ele><time>2026-05-01T08:17:16.999Z</time></trkpt><trkpt lat="46.098790752081264" lon="12.857621834513193"><ele>129.5</ele><time>2026-05-01T08:17:17.999Z</time></trkpt><trkpt lat="46.09878724518501" lon="12.857281722528487"><ele>130.0</ele><time>2026-05-01T08:17:18.999Z</time></trkpt><trkpt lat="46.098782693489184" lon="12.85694363272942"><ele>129.0</ele><time>2026-05-01T08:17:19.999Z</time></trkpt><trkpt lat="46.09877753047315" lon="12.856604498006243"><ele>128.0</ele><time>2026-05-01T08:17:20.999Z</time></trkpt><trkpt lat="46.09877165340332" lon="12.856267268046633"><ele>128.0</ele><time>2026-05-01T08:17:21.999Z</time></trkpt><trkpt lat="46.0987664861185" lon="12.855936418160068"><ele>128.0</ele><time>2026-05-01T08:17:22.999Z</time></trkpt><trkpt lat="46.09876155784163" lon="12.85561387490215"><ele>128.0</ele><time>2026-05-01T08:17:23.999Z</time></trkpt><trkpt lat="46.09875617167439" lon="12.855298636899397"><ele>128.0</ele><time>2026-05-01T08:17:24.999Z</time></trkpt><trkpt lat="46.098752063506176" lon="12.854990669534134"><ele>128.0</ele><time>2026-05-01T08:17:25.999Z</time></trkpt><trkpt lat="46.09874702875008" lon="12.854685241100581"><ele>128.0</ele><time>2026-05-01T08:17:26.999Z</time></trkpt><trkpt lat="46.098742321218474" lon="12.854378713657931"><ele>128.0</ele><time>2026-05-01T08:17:27.999Z</time></trkpt><trkpt lat="46.09873744681784" lon="12.85407401929375"><ele>128.0</ele><time>2026-05-01T08:17:28.999Z</time></trkpt><trkpt lat="46.09860390951487" lon="12.853776513473198"><ele>128.33333333333331</ele><time>2026-05-01T08:17:29.999Z</time></trkpt><trkpt lat="46.09859931009258" lon="12.853476436151706"><ele>128.66666666666666</ele><time>2026-05-01T08:17:30.999Z</time></trkpt><trkpt lat="46.09859461265887" lon="12.853169964343834"><ele>129.0</ele><time>2026-05-01T08:17:31.999Z</time></trkpt><trkpt lat="46.09859575322576" lon="12.852860421240356"><ele>129.0</ele><time>2026-05-01T08:17:32.999Z</time></trkpt><trkpt lat="46.09869176699737" lon="12.852552934775106"><ele>129.0</ele><time>2026-05-01T08:17:33.999Z</time></trkpt><trkpt lat="46.09867027948892" lon="12.85225281215515"><ele>129.0</ele><time>2026-05-01T08:17:34.999Z</time></trkpt><trkpt lat="46.098643201312555" lon="12.85197287171071"><ele>129.66666666666666</ele><time>2026-05-01T08:17:35.999Z</time></trkpt><trkpt lat="46.09861376163883" lon="12.851704570209623"><ele>130.33333333333331</ele><time>2026-05-01T08:17:36.999Z</time></trkpt><trkpt lat="46.09858546085066" lon="12.851441472037378"><ele>131.0</ele><time>2026-05-01T08:17:37.999Z</time></trkpt><trkpt lat="46.09855102922312" lon="12.851175700889213"><ele>131.0</ele><time>2026-05-01T08:17:38.999Z</time></trkpt><trkpt lat="46.09851441720882" lon="12.85091914841604"><ele>131.0</ele><time>2026-05-01T08:17:39.999Z</time></trkpt><trkpt lat="46.09847683877882" lon="12.850663453629688"><ele>131.0</ele><time>2026-05-01T08:17:40.999Z</time></trkpt><trkpt lat="46.09844035681154" lon="12.85041307959265"><ele>131.0</ele><time>2026-05-01T08:17:41.999Z</time></trkpt><trkpt lat="46.0984045134189" lon="12.850168455914917"><ele>131.0</ele><time>2026-05-01T08:17:42.999Z</time></trkpt><trkpt lat="46.09836872717405" lon="12.849930173230158"><ele>131.0</ele><time>2026-05-01T08:17:43.999Z</time></trkpt><trkpt lat="46.09833457440079" lon="12.849697219938854"><ele>131.0</ele><time>2026-05-01T08:17:44.999Z</time></trkpt><trkpt lat="46.09829910088635" lon="12.849461893051238"><ele>131.0</ele><time>2026-05-01T08:17:45.999Z</time></trkpt><trkpt lat="46.09826312991523" lon="12.849220937290655"><ele>131.0</ele><time>2026-05-01T08:17:46.999Z</time></trkpt><trkpt lat="46.098226528346736" lon="12.848974518932867"><ele>130.66666666666666</ele><time>2026-05-01T08:17:47.999Z</time></trkpt><trkpt lat="46.09818887619734" lon="12.848722656132265"><ele>130.33333333333334</ele><time>2026-05-01T08:17:48.999Z</time></trkpt><trkpt lat="46.098150864222035" lon="12.848466532473044"><ele>130.0</ele><time>2026-05-01T08:17:49.999Z</time></trkpt><trkpt lat="46.098112168804064" lon="12.848204770754082"><ele>130.66666666666669</ele><time>2026-05-01T08:17:50.999Z</time></trkpt><trkpt lat="46.09807231182028" lon="12.847937911160145"><ele>131.33333333333334</ele><time>2026-05-01T08:17:51.999Z</time></trkpt><trkpt lat="46.09803080115452" lon="12.847666557126793"><ele>132.0</ele><time>2026-05-01T08:17:52.999Z</time></trkpt><trkpt lat="46.097993830193154" lon="12.847398142982884"><ele>132.0</ele><time>2026-05-01T08:17:53.999Z</time></trkpt><trkpt lat="46.097956391106315" lon="12.847135981244435"><ele>132.0</ele><time>2026-05-01T08:17:54.999Z</time></trkpt><trkpt lat="46.097918699263325" lon="12.84687648749469"><ele>132.0</ele><time>2026-05-01T08:17:55.999Z</time></trkpt><trkpt lat="46.09788027764008" lon="12.846614462583934"><ele>132.0</ele><time>2026-05-01T08:17:56.999Z</time></trkpt><trkpt lat="46.09784122386405" lon="12.846346930246078"><ele>132.0</ele><time>2026-05-01T08:17:57.999Z</time></trkpt><trkpt lat="46.09780224894677" lon="12.846074587644038"><ele>132.0</ele><time>2026-05-01T08:17:58.999Z</time></trkpt><trkpt lat="46.0977627255407" lon="12.845801475253142"><ele>132.33333333333334</ele><time>2026-05-01T08:17:59.999Z</time></trkpt><trkpt lat="46.09772323776521" lon="12.845523056110297"><ele>132.66666666666669</ele><time>2026-05-01T08:18:00.999Z</time></trkpt><trkpt lat="46.09768571095798" lon="12.845243563555893"><ele>133.0</ele><time>2026-05-01T08:18:01.999Z</time></trkpt><trkpt lat="46.09765014823188" lon="12.84496314396667"><ele>133.0</ele><time>2026-05-01T08:18:02.999Z</time></trkpt><trkpt lat="46.09761360231276" lon="12.844684649691642"><ele>133.0</ele><time>2026-05-01T08:18:03.999Z</time></trkpt><trkpt lat="46.097576564706486" lon="12.844405253726038"><ele>133.0</ele><time>2026-05-01T08:18:04.999Z</time></trkpt><trkpt lat="46.097537834590575" lon="12.844123356189863"><ele>133.66666666666669</ele><time>2026-05-01T08:18:05.999Z</time></trkpt><trkpt lat="46.09749756027866" lon="12.843842080149129"><ele>134.33333333333334</ele><time>2026-05-01T08:18:06.999Z</time></trkpt><trkpt lat="46.097455684644586" lon="12.843562156075848"><ele>135.0</ele><time>2026-05-01T08:18:07.999Z</time></trkpt><trkpt lat="46.0974161240356" lon="12.843284987089204"><ele>135.0</ele><time>2026-05-01T08:18:08.999Z</time></trkpt><trkpt lat="46.097377892147286" lon="12.84301509278468"><ele>135.0</ele><time>2026-05-01T08:18:09.999Z</time></trkpt><trkpt lat="46.097338811797385" lon="12.842750508354364"><ele>135.0</ele><time>2026-05-01T08:18:10.999Z</time></trkpt><trkpt lat="46.09729902692841" lon="12.842491608758175"><ele>134.66666666666666</ele><time>2026-05-01T08:18:11.999Z</time></trkpt><trkpt lat="46.097257925816315" lon="12.842236241099794"><ele>134.33333333333331</ele><time>2026-05-01T08:18:12.999Z</time></trkpt><trkpt lat="46.0972107522096" lon="12.841993249727594"><ele>134.0</ele><time>2026-05-01T08:18:13.999Z</time></trkpt><trkpt lat="46.09716983010235" lon="12.841750467035737"><ele>133.66666666666666</ele><time>2026-05-01T08:18:14.999Z</time></trkpt><trkpt lat="46.09713089899604" lon="12.841514510605293"><ele>133.33333333333334</ele><time>2026-05-01T08:18:15.999Z</time></trkpt><trkpt lat="46.09709673647324" lon="12.841290508777307"><ele>133.0</ele><time>2026-05-01T08:18:16.999Z</time></trkpt><trkpt lat="46.097064917826856" lon="12.841064223245793"><ele>133.66666666666669</ele><time>2026-05-01T08:18:17.999Z</time></trkpt><trkpt lat="46.097033833582" lon="12.840844534800677"><ele>134.33333333333334</ele><time>2026-05-01T08:18:18.999Z</time></trkpt><trkpt lat="46.09700188594195" lon="12.840620798622645"><ele>135.0</ele><time>2026-05-01T08:18:19.999Z</time></trkpt><trkpt lat="46.09696927814755" lon="12.840377345664107"><ele>135.33333333333334</ele><time>2026-05-01T08:18:20.999Z</time></trkpt><trkpt lat="46.096930045574105" lon="12.840127393656262"><ele>135.66666666666669</ele><time>2026-05-01T08:18:21.999Z</time></trkpt><trkpt lat="46.096892957170475" lon="12.839866383838444"><ele>136.0</ele><time>2026-05-01T08:18:22.999Z</time></trkpt><trkpt lat="46.0968570986622" lon="12.839601001606216"><ele>136.0</ele><time>2026-05-01T08:18:23.999Z</time></trkpt><trkpt lat="46.096818129186204" lon="12.839335979822312"><ele>136.0</ele><time>2026-05-01T08:18:24.999Z</time></trkpt><trkpt lat="46.09678086656554" lon="12.83907858988354"><ele>136.0</ele><time>2026-05-01T08:18:25.999Z</time></trkpt><trkpt lat="46.09674453942551" lon="12.8388093742217"><ele>135.66666666666669</ele><time>2026-05-01T08:18:26.999Z</time></trkpt><trkpt lat="46.09670410068084" lon="12.838525933084838"><ele>135.33333333333334</ele><time>2026-05-01T08:18:27.999Z</time></trkpt><trkpt lat="46.09665769059094" lon="12.838232146821696"><ele>135.0</ele><time>2026-05-01T08:18:28.999Z</time></trkpt><trkpt lat="46.096621928081596" lon="12.83794773718519"><ele>134.66666666666666</ele><time>2026-05-01T08:18:29.999Z</time></trkpt><trkpt lat="46.09659103684951" lon="12.837675334418899"><ele>134.33333333333331</ele><time>2026-05-01T08:18:30.999Z</time></trkpt><trkpt lat="46.09656936787333" lon="12.837410261512959"><ele>134.0</ele><time>2026-05-01T08:18:31.999Z</time></trkpt><trkpt lat="46.09655560141359" lon="12.837136338330314"><ele>134.0</ele><time>2026-05-01T08:18:32.999Z</time></trkpt><trkpt lat="46.09654232510383" lon="12.836852870828627"><ele>134.0</ele><time>2026-05-01T08:18:33.999Z</time></trkpt><trkpt lat="46.09653022548634" lon="12.836555835792234"><ele>134.0</ele><time>2026-05-01T08:18:34.999Z</time></trkpt><trkpt lat="46.09652842154257" lon="12.836253247442265"><ele>134.66666666666666</ele><time>2026-05-01T08:18:35.999Z</time></trkpt><trkpt lat="46.09652793310856" lon="12.835955603768817"><ele>135.33333333333334</ele><time>2026-05-01T08:18:36.999Z</time></trkpt><trkpt lat="46.09652631396689" lon="12.835662003045051"><ele>136.0</ele><time>2026-05-01T08:18:37.999Z</time></trkpt><trkpt lat="46.09652625574697" lon="12.835367884166187"><ele>136.33333333333334</ele><time>2026-05-01T08:18:38.999Z</time></trkpt><trkpt lat="46.096529692535526" lon="12.835083856576215"><ele>136.66666666666666</ele><time>2026-05-01T08:18:39.999Z</time></trkpt><trkpt lat="46.09653258193249" lon="12.834795301939696"><ele>137.0</ele><time>2026-05-01T08:18:40.999Z</time></trkpt><trkpt lat="46.09653344475548" lon="12.834502701488548"><ele>137.0</ele><time>2026-05-01T08:18:41.999Z</time></trkpt><trkpt lat="46.09653566585097" lon="12.834209597457763"><ele>137.0</ele><time>2026-05-01T08:18:42.999Z</time></trkpt><trkpt lat="46.09653728011202" lon="12.833918796216246"><ele>137.0</ele><time>2026-05-01T08:18:43.999Z</time></trkpt><trkpt lat="46.09653817984354" lon="12.833634741781571"><ele>136.66666666666666</ele><time>2026-05-01T08:18:44.999Z</time></trkpt><trkpt lat="46.096540347854955" lon="12.83335333766655"><ele>136.33333333333334</ele><time>2026-05-01T08:18:45.999Z</time></trkpt><trkpt lat="46.09654036014776" lon="12.833071991164998"><ele>136.0</ele><time>2026-05-01T08:18:47Z</time></trkpt><trkpt lat="46.09653840402308" lon="12.8327952403886"><ele>136.33333333333334</ele><time>2026-05-01T08:18:48Z</time></trkpt><trkpt lat="46.09653333719871" lon="12.83251975361067"><ele>136.66666666666666</ele><time>2026-05-01T08:18:49Z</time></trkpt><trkpt lat="46.09652140481364" lon="12.8322352325848"><ele>137.0</ele><time>2026-05-01T08:18:50Z</time></trkpt><trkpt lat="46.09650389977838" lon="12.831953800051007"><ele>137.0</ele><time>2026-05-01T08:18:51Z</time></trkpt><trkpt lat="46.09648488283833" lon="12.83167547267578"><ele>137.0</ele><time>2026-05-01T08:18:52Z</time></trkpt><trkpt lat="46.09646232298508" lon="12.831396222952096"><ele>137.0</ele><time>2026-05-01T08:18:53Z</time></trkpt><trkpt lat="46.09643544903722" lon="12.831119009302068"><ele>137.0</ele><time>2026-05-01T08:18:54Z</time></trkpt><trkpt lat="46.09640773296411" lon="12.83084690212887"><ele>137.0</ele><time>2026-05-01T08:18:55Z</time></trkpt><trkpt lat="46.096378851584085" lon="12.830578941923804"><ele>137.0</ele><time>2026-05-01T08:18:56Z</time></trkpt><trkpt lat="46.096350733440694" lon="12.830319188997432"><ele>137.33333333333331</ele><time>2026-05-01T08:18:57Z</time></trkpt><trkpt lat="46.096321700911226" lon="12.830057115978118"><ele>137.66666666666666</ele><time>2026-05-01T08:18:58Z</time></trkpt><trkpt lat="46.096293335484496" lon="12.82979566548718"><ele>138.0</ele><time>2026-05-01T08:18:59Z</time></trkpt><trkpt lat="46.09626628442624" lon="12.829535620275932"><ele>137.66666666666666</ele><time>2026-05-01T08:19:00Z</time></trkpt><trkpt lat="46.09623640162671" lon="12.829278285128908"><ele>137.33333333333331</ele><time>2026-05-01T08:19:01Z</time></trkpt><trkpt lat="46.09620557436257" lon="12.829021883019841"><ele>137.0</ele><time>2026-05-01T08:19:02Z</time></trkpt><trkpt lat="46.09617677849201" lon="12.828772830024997"><ele>137.0</ele><time>2026-05-01T08:19:03Z</time></trkpt><trkpt lat="46.096147847960694" lon="12.828531082910052"><ele>137.0</ele><time>2026-05-01T08:19:04Z</time></trkpt><trkpt lat="46.09611994895725" lon="12.828311383504175"><ele>137.0</ele><time>2026-05-01T08:19:05Z</time></trkpt><trkpt lat="46.09608535115941" lon="12.828121217038401"><ele>137.0</ele><time>2026-05-01T08:19:06Z</time></trkpt><trkpt lat="46.096048824692275" lon="12.827958386886436"><ele>137.0</ele><time>2026-05-01T08:19:07Z</time></trkpt><trkpt lat="46.09601678006446" lon="12.827828001799887"><ele>137.0</ele><time>2026-05-01T08:19:08Z</time></trkpt><trkpt lat="46.09598829559546" lon="12.8277055375685"><ele>137.0</ele><time>2026-05-01T08:19:09Z</time></trkpt><trkpt lat="46.0959734969679" lon="12.827567987369271"><ele>137.0</ele><time>2026-05-01T08:19:10Z</time></trkpt><trkpt lat="46.0959787504979" lon="12.82743126616205"><ele>137.0</ele><time>2026-05-01T08:19:11Z</time></trkpt><trkpt lat="46.09597936954488" lon="12.82729201493292"><ele>137.0</ele><time>2026-05-01T08:19:12Z</time></trkpt><trkpt lat="46.0959651992905" lon="12.827157721302349"><ele>137.0</ele><time>2026-05-01T08:19:13Z</time></trkpt><trkpt lat="46.095902693284685" lon="12.827059606982813"><ele>137.0</ele><time>2026-05-01T08:19:14Z</time></trkpt><trkpt lat="46.095810405885516" lon="12.827004131956713"><ele>137.0</ele><time>2026-05-01T08:19:15Z</time></trkpt><trkpt lat="46.09570757866884" lon="12.82701682276657"><ele>137.33333333333331</ele><time>2026-05-01T08:19:16Z</time></trkpt><trkpt lat="46.09562806391258" lon="12.827069829878745"><ele>137.66666666666666</ele><time>2026-05-01T08:19:16.999Z</time></trkpt><trkpt lat="46.095547951657664" lon="12.827092739150135"><ele>138.0</ele><time>2026-05-01T08:19:17.999Z</time></trkpt><trkpt lat="46.09546354147252" lon="12.827077106302848"><ele>138.33333333333334</ele><time>2026-05-01T08:19:18.999Z</time></trkpt><trkpt lat="46.095387251497314" lon="12.827019740903037"><ele>138.66666666666669</ele><time>2026-05-01T08:19:19.999Z</time></trkpt><trkpt lat="46.09531318319563" lon="12.826971193138217"><ele>139.0</ele><time>2026-05-01T08:19:20.999Z</time></trkpt><trkpt lat="46.095290890155326" lon="12.826811918522631"><ele>139.2</ele><time>2026-05-01T08:19:21.999Z</time></trkpt><trkpt lat="46.095291915026564" lon="12.826680809523053"><ele>139.4</ele><time>2026-05-01T08:19:22.999Z</time></trkpt><trkpt lat="46.09531263364675" lon="12.826543739437179"><ele>139.6</ele><time>2026-05-01T08:19:23.999Z</time></trkpt><trkpt lat="46.09534977568463" lon="12.826392264534318"><ele>139.8</ele><time>2026-05-01T08:19:24.999Z</time></trkpt><trkpt lat="46.095390214727836" lon="12.826232292816115"><ele>140.0</ele><time>2026-05-01T08:19:25.999Z</time></trkpt><trkpt lat="46.09541442173803" lon="12.826075075263129"><ele>140.0</ele><time>2026-05-01T08:19:26.999Z</time></trkpt><trkpt lat="46.09543105039327" lon="12.825910761272187"><ele>140.0</ele><time>2026-05-01T08:19:27.999Z</time></trkpt><trkpt lat="46.09544402588587" lon="12.825752691601405"><ele>140.0</ele><time>2026-05-01T08:19:28.999Z</time></trkpt><trkpt lat="46.09544623328193" lon="12.825595056135162"><ele>140.0</ele><time>2026-05-01T08:19:29.999Z</time></trkpt><trkpt lat="46.09543849346162" lon="12.825436502781198"><ele>140.0</ele><time>2026-05-01T08:19:30.999Z</time></trkpt><trkpt lat="46.095424637183" lon="12.825277012836095"><ele>140.0</ele><time>2026-05-01T08:19:31.999Z</time></trkpt><trkpt lat="46.09540425421554" lon="12.825112769595545"><ele>140.0</ele><time>2026-05-01T08:19:32.999Z</time></trkpt><trkpt lat="46.09538391215751" lon="12.824949060886798"><ele>140.0</ele><time>2026-05-01T08:19:33.999Z</time></trkpt><trkpt lat="46.09536200660877" lon="12.8247977950406"><ele>140.0</ele><time>2026-05-01T08:19:34.999Z</time></trkpt><trkpt lat="46.09532884463633" lon="12.824648859079801"><ele>140.0</ele><time>2026-05-01T08:19:35.999Z</time></trkpt><trkpt lat="46.09528413876468" lon="12.82450348410168"><ele>140.0</ele><time>2026-05-01T08:19:36.999Z</time></trkpt><trkpt lat="46.095232475242575" lon="12.824353500110156"><ele>140.0</ele><time>2026-05-01T08:19:37.999Z</time></trkpt><trkpt lat="46.095172955816615" lon="12.824188330243727"><ele>140.0</ele><time>2026-05-01T08:19:38.999Z</time></trkpt><trkpt lat="46.095108382806" lon="12.824008938745477"><ele>140.0</ele><time>2026-05-01T08:19:39.999Z</time></trkpt><trkpt lat="46.095041464976006" lon="12.823818051478568"><ele>140.0</ele><time>2026-05-01T08:19:40.999Z</time></trkpt><trkpt lat="46.09498118836075" lon="12.823640366844323"><ele>140.0</ele><time>2026-05-01T08:19:41.999Z</time></trkpt><trkpt lat="46.09492180788082" lon="12.823467800146053"><ele>140.0</ele><time>2026-05-01T08:19:42.999Z</time></trkpt><trkpt lat="46.09486280407646" lon="12.82330152564785"><ele>140.0</ele><time>2026-05-01T08:19:43.999Z</time></trkpt><trkpt lat="46.09481098353375" lon="12.823143557326809"><ele>139.75</ele><time>2026-05-01T08:19:44.999Z</time></trkpt><trkpt lat="46.09475769592479" lon="12.822992625009782"><ele>139.5</ele><time>2026-05-01T08:19:45.999Z</time></trkpt><trkpt lat="46.094704980459944" lon="12.822844870580795"><ele>139.25</ele><time>2026-05-01T08:19:46.999Z</time></trkpt><trkpt lat="46.09465569609244" lon="12.822693007969665"><ele>139.0</ele><time>2026-05-01T08:19:47.999Z</time></trkpt><trkpt lat="46.09460433728608" lon="12.822539920214666"><ele>138.5</ele><time>2026-05-01T08:19:48.999Z</time></trkpt><trkpt lat="46.09454688692778" lon="12.822380226346304"><ele>138.0</ele><time>2026-05-01T08:19:49.999Z</time></trkpt><trkpt lat="46.09449341065496" lon="12.82221971573692"><ele>137.5</ele><time>2026-05-01T08:19:50.999Z</time></trkpt><trkpt lat="46.09443998991912" lon="12.822062071898436"><ele>137.0</ele><time>2026-05-01T08:19:51.999Z</time></trkpt><trkpt lat="46.09438827172007" lon="12.821906657261302"><ele>137.0</ele><time>2026-05-01T08:19:52.999Z</time></trkpt><trkpt lat="46.09433740095599" lon="12.821753228634716"><ele>137.0</ele><time>2026-05-01T08:19:53.999Z</time></trkpt><trkpt lat="46.094283249990355" lon="12.821601051437023"><ele>137.0</ele><time>2026-05-01T08:19:54.999Z</time></trkpt><trkpt lat="46.094227018880765" lon="12.821442532492789"><ele>137.0</ele><time>2026-05-01T08:19:55.999Z</time></trkpt><trkpt lat="46.094170063414964" lon="12.821279325458956"><ele>137.0</ele><time>2026-05-01T08:19:56.999Z</time></trkpt><trkpt lat="46.09411135089126" lon="12.821112874069405"><ele>137.0</ele><time>2026-05-01T08:19:57.999Z</time></trkpt><trkpt lat="46.09406174140314" lon="12.82094947977738"><ele>137.0</ele><time>2026-05-01T08:19:58.999Z</time></trkpt><trkpt lat="46.094010944610886" lon="12.820794984782589"><ele>137.0</ele><time>2026-05-01T08:19:59.999Z</time></trkpt><trkpt lat="46.09395336024232" lon="12.820643722448825"><ele>137.5</ele><time>2026-05-01T08:20:00.999Z</time></trkpt><trkpt lat="46.093896718382524" lon="12.820490291547383"><ele>138.0</ele><time>2026-05-01T08:20:01.999Z</time></trkpt><trkpt lat="46.09384266511287" lon="12.820333625896248"><ele>138.5</ele><time>2026-05-01T08:20:02.999Z</time></trkpt><trkpt lat="46.093793280474735" lon="12.820167299088908"><ele>139.0</ele><time>2026-05-01T08:20:03.999Z</time></trkpt><trkpt lat="46.09374934021913" lon="12.82000335790129"><ele>139.0</ele><time>2026-05-01T08:20:04.999Z</time></trkpt><trkpt lat="46.09369798030668" lon="12.819847891390408"><ele>139.0</ele><time>2026-05-01T08:20:05.999Z</time></trkpt><trkpt lat="46.09364478530769" lon="12.819697608822727"><ele>139.0</ele><time>2026-05-01T08:20:06.999Z</time></trkpt><trkpt lat="46.093595260362264" lon="12.819543166272215"><ele>139.0</ele><time>2026-05-01T08:20:07.999Z</time></trkpt><trkpt lat="46.09354432440351" lon="12.81938416032103"><ele>138.75</ele><time>2026-05-01T08:20:08.999Z</time></trkpt><trkpt lat="46.093491905123486" lon="12.819223350449644"><ele>138.5</ele><time>2026-05-01T08:20:09.999Z</time></trkpt><trkpt lat="46.093436945475254" lon="12.819061199322428"><ele>138.25</ele><time>2026-05-01T08:20:10.999Z</time></trkpt><trkpt lat="46.09338112304401" lon="12.818893390951397"><ele>138.0</ele><time>2026-05-01T08:20:11.999Z</time></trkpt><trkpt lat="46.093321022397795" lon="12.818721842300238"><ele>138.0</ele><time>2026-05-01T08:20:12.999Z</time></trkpt><trkpt lat="46.0932615844087" lon="12.818548123315697"><ele>138.0</ele><time>2026-05-01T08:20:13.999Z</time></trkpt><trkpt lat="46.09320516828747" lon="12.81837841803511"><ele>138.0</ele><time>2026-05-01T08:20:14.999Z</time></trkpt><trkpt lat="46.09314732345737" lon="12.818215111752432"><ele>138.0</ele><time>2026-05-01T08:20:15.999Z</time></trkpt><trkpt lat="46.093093009797045" lon="12.818053042354194"><ele>138.0</ele><time>2026-05-01T08:20:16.999Z</time></trkpt><trkpt lat="46.093037107343946" lon="12.817898090947212"><ele>138.0</ele><time>2026-05-01T08:20:17.999Z</time></trkpt><trkpt lat="46.092984567378366" lon="12.817742972092228"><ele>138.0</ele><time>2026-05-01T08:20:18.999Z</time></trkpt><trkpt lat="46.09293008957757" lon="12.817588234095329"><ele>138.0</ele><time>2026-05-01T08:20:19.999Z</time></trkpt><trkpt lat="46.092874895269404" lon="12.817431899159343"><ele>138.0</ele><time>2026-05-01T08:20:20.999Z</time></trkpt><trkpt lat="46.0928201355133" lon="12.817275477815949"><ele>138.0</ele><time>2026-05-01T08:20:21.999Z</time></trkpt><trkpt lat="46.09276247214356" lon="12.817119905521757"><ele>138.0</ele><time>2026-05-01T08:20:22.999Z</time></trkpt><trkpt lat="46.09270464533703" lon="12.816954437047999"><ele>138.0</ele><time>2026-05-01T08:20:23.999Z</time></trkpt><trkpt lat="46.0926474670323" lon="12.816782065239922"><ele>138.0</ele><time>2026-05-01T08:20:24.999Z</time></trkpt><trkpt lat="46.092591054103046" lon="12.816601135827913"><ele>138.0</ele><time>2026-05-01T08:20:25.999Z</time></trkpt><trkpt lat="46.09253538021941" lon="12.816420403157714"><ele>138.0</ele><time>2026-05-01T08:20:26.999Z</time></trkpt><trkpt lat="46.09247916570241" lon="12.816238409847914"><ele>138.0</ele><time>2026-05-01T08:20:27.999Z</time></trkpt><trkpt lat="46.09242679979161" lon="12.816054355389634"><ele>137.25</ele><time>2026-05-01T08:20:28.999Z</time></trkpt><trkpt lat="46.09237532075647" lon="12.815864645125387"><ele>136.5</ele><time>2026-05-01T08:20:29.999Z</time></trkpt><trkpt lat="46.09232439987768" lon="12.815675721167835"><ele>135.75</ele><time>2026-05-01T08:20:30.999Z</time></trkpt><trkpt lat="46.09227483796096" lon="12.815484437626308"><ele>135.0</ele><time>2026-05-01T08:20:31.999Z</time></trkpt><trkpt lat="46.09222432184201" lon="12.815290199517555"><ele>135.0</ele><time>2026-05-01T08:20:32.999Z</time></trkpt><trkpt lat="46.09217443011212" lon="12.81509108584103"><ele>135.0</ele><time>2026-05-01T08:20:33.999Z</time></trkpt><trkpt lat="46.09212651102295" lon="12.814888985439032"><ele>135.0</ele><time>2026-05-01T08:20:34.999Z</time></trkpt><trkpt lat="46.092078997996715" lon="12.814683138655187"><ele>135.0</ele><time>2026-05-01T08:20:35.999Z</time></trkpt><trkpt lat="46.09203275504759" lon="12.81447399376614"><ele>135.0</ele><time>2026-05-01T08:20:36.999Z</time></trkpt><trkpt lat="46.09198985635124" lon="12.814263799782413"><ele>135.0</ele><time>2026-05-01T08:20:37.999Z</time></trkpt><trkpt lat="46.09195200207325" lon="12.81404882820065"><ele>135.0</ele><time>2026-05-01T08:20:38.999Z</time></trkpt><trkpt lat="46.09191052095216" lon="12.813829318481332"><ele>135.0</ele><time>2026-05-01T08:20:39.999Z</time></trkpt><trkpt lat="46.09187108933623" lon="12.813596613974786"><ele>135.0</ele><time>2026-05-01T08:20:40.999Z</time></trkpt><trkpt lat="46.09183376250549" lon="12.813354809182757"><ele>135.0</ele><time>2026-05-01T08:20:41.999Z</time></trkpt><trkpt lat="46.091796326347264" lon="12.813105857932449"><ele>135.33333333333334</ele><time>2026-05-01T08:20:42.999Z</time></trkpt><trkpt lat="46.091759170505995" lon="12.81285200187453"><ele>135.66666666666669</ele><time>2026-05-01T08:20:43.999Z</time></trkpt><trkpt lat="46.0917255977582" lon="12.812598464106394"><ele>136.0</ele><time>2026-05-01T08:20:44.999Z</time></trkpt><trkpt lat="46.09169446455159" lon="12.812344231301024"><ele>135.33333333333334</ele><time>2026-05-01T08:20:45.999Z</time></trkpt><trkpt lat="46.09166818865738" lon="12.812088559901"><ele>134.66666666666666</ele><time>2026-05-01T08:20:46.999Z</time></trkpt><trkpt lat="46.09164154091222" lon="12.811830175141528"><ele>134.0</ele><time>2026-05-01T08:20:47.999Z</time></trkpt><trkpt lat="46.09161669679484" lon="12.811569278056602"><ele>134.0</ele><time>2026-05-01T08:20:48.999Z</time></trkpt><trkpt lat="46.0915947106252" lon="12.81130095989461"><ele>134.0</ele><time>2026-05-01T08:20:49.999Z</time></trkpt><trkpt lat="46.09157705846457" lon="12.811027640288026"><ele>134.0</ele><time>2026-05-01T08:20:50.999Z</time></trkpt><trkpt lat="46.091562675451534" lon="12.81075710977624"><ele>134.0</ele><time>2026-05-01T08:20:51.999Z</time></trkpt><trkpt lat="46.091550603428004" lon="12.810482524677207"><ele>134.0</ele><time>2026-05-01T08:20:53Z</time></trkpt><trkpt lat="46.09154188621595" lon="12.810211299931748"><ele>134.0</ele><time>2026-05-01T08:20:54Z</time></trkpt><trkpt lat="46.09153680651498" lon="12.809948091728188"><ele>133.66666666666666</ele><time>2026-05-01T08:20:55Z</time></trkpt><trkpt lat="46.09153551518346" lon="12.809691314264793"><ele>133.33333333333334</ele><time>2026-05-01T08:20:56Z</time></trkpt><trkpt lat="46.091537206399146" lon="12.809433506321858"><ele>133.0</ele><time>2026-05-01T08:20:57Z</time></trkpt><trkpt lat="46.09153979010176" lon="12.80916914284397"><ele>133.0</ele><time>2026-05-01T08:20:58Z</time></trkpt><trkpt lat="46.09154594340816" lon="12.808901883270993"><ele>133.0</ele><time>2026-05-01T08:20:59Z</time></trkpt><trkpt lat="46.09155505881559" lon="12.808623740408391"><ele>133.0</ele><time>2026-05-01T08:21:00Z</time></trkpt><trkpt lat="46.091567072695334" lon="12.808333163129582"><ele>133.0</ele><time>2026-05-01T08:21:01Z</time></trkpt><trkpt lat="46.0915840142512" lon="12.808035914643032"><ele>133.0</ele><time>2026-05-01T08:21:02Z</time></trkpt><trkpt lat="46.0916047688184" lon="12.807744471492544"><ele>133.0</ele><time>2026-05-01T08:21:03Z</time></trkpt><trkpt lat="46.09162673763938" lon="12.807455910898506"><ele>133.0</ele><time>2026-05-01T08:21:04Z</time></trkpt><trkpt lat="46.09165267335938" lon="12.80716682611685"><ele>133.0</ele><time>2026-05-01T08:21:05Z</time></trkpt><trkpt lat="46.09168442090531" lon="12.80687949439639"><ele>133.0</ele><time>2026-05-01T08:21:06Z</time></trkpt><trkpt lat="46.0917193568095" lon="12.806592251437772"><ele>133.33333333333334</ele><time>2026-05-01T08:21:07Z</time></trkpt><trkpt lat="46.091755916592575" lon="12.806302959520426"><ele>133.66666666666666</ele><time>2026-05-01T08:21:08Z</time></trkpt><trkpt lat="46.09179658362456" lon="12.806012507996135"><ele>134.0</ele><time>2026-05-01T08:21:09Z</time></trkpt><trkpt lat="46.0918428142388" lon="12.805723892911349"><ele>134.0</ele><time>2026-05-01T08:21:10Z</time></trkpt><trkpt lat="46.091891367324095" lon="12.805437907447274"><ele>134.0</ele><time>2026-05-01T08:21:11Z</time></trkpt><trkpt lat="46.09194202696705" lon="12.80515909154278"><ele>134.0</ele><time>2026-05-01T08:21:12Z</time></trkpt><trkpt lat="46.09199845864891" lon="12.804882143779345"><ele>134.0</ele><time>2026-05-01T08:21:13Z</time></trkpt><trkpt lat="46.092059650235555" lon="12.804592978838677"><ele>134.0</ele><time>2026-05-01T08:21:14Z</time></trkpt><trkpt lat="46.0921258067991" lon="12.804290685696223"><ele>134.0</ele><time>2026-05-01T08:21:15Z</time></trkpt><trkpt lat="46.092195964432136" lon="12.803993457623346"><ele>134.0</ele><time>2026-05-01T08:21:16Z</time></trkpt><trkpt lat="46.09226820375946" lon="12.80370488460548"><ele>134.0</ele><time>2026-05-01T08:21:17Z</time></trkpt><trkpt lat="46.09234484714774" lon="12.803422972904956"><ele>134.0</ele><time>2026-05-01T08:21:18Z</time></trkpt><trkpt lat="46.09242433021642" lon="12.803142885555488"><ele>134.0</ele><time>2026-05-01T08:21:19Z</time></trkpt><trkpt lat="46.09250657108663" lon="12.80286715504979"><ele>134.0</ele><time>2026-05-01T08:21:20Z</time></trkpt><trkpt lat="46.09259237007026" lon="12.802590178483154"><ele>134.0</ele><time>2026-05-01T08:21:21Z</time></trkpt><trkpt lat="46.09268368738399" lon="12.802317744252328"><ele>134.0</ele><time>2026-05-01T08:21:21.999Z</time></trkpt><trkpt lat="46.092775188468316" lon="12.80204903243469"><ele>134.0</ele><time>2026-05-01T08:21:22.999Z</time></trkpt><trkpt lat="46.0928690202286" lon="12.80178428883379"><ele>134.0</ele><time>2026-05-01T08:21:23.999Z</time></trkpt><trkpt lat="46.092962955666806" lon="12.801515822095588"><ele>134.0</ele><time>2026-05-01T08:21:24.999Z</time></trkpt><trkpt lat="46.09306195513925" lon="12.801236988644728"><ele>134.0</ele><time>2026-05-01T08:21:25.999Z</time></trkpt><trkpt lat="46.09315708318396" lon="12.800965172646267"><ele>134.0</ele><time>2026-05-01T08:21:26.999Z</time></trkpt><trkpt lat="46.09325210201457" lon="12.800693654893127"><ele>134.66666666666666</ele><time>2026-05-01T08:21:27.999Z</time></trkpt><trkpt lat="46.09334534712359" lon="12.80042691320706"><ele>135.33333333333334</ele><time>2026-05-01T08:21:28.999Z</time></trkpt><trkpt lat="46.09343801491568" lon="12.800160246734585"><ele>136.0</ele><time>2026-05-01T08:21:29.999Z</time></trkpt><trkpt lat="46.093531941049726" lon="12.799898100244603"><ele>136.0</ele><time>2026-05-01T08:21:30.999Z</time></trkpt><trkpt lat="46.093624085477124" lon="12.799633355940525"><ele>136.0</ele><time>2026-05-01T08:21:31.999Z</time></trkpt><trkpt lat="46.09371664662727" lon="12.799369813610072"><ele>136.0</ele><time>2026-05-01T08:21:32.999Z</time></trkpt><trkpt lat="46.09380785921562" lon="12.79910864397976"><ele>135.66666666666669</ele><time>2026-05-01T08:21:33.999Z</time></trkpt><trkpt lat="46.093899804751885" lon="12.798845815197373"><ele>135.33333333333334</ele><time>2026-05-01T08:21:34.999Z</time></trkpt><trkpt lat="46.093994731139226" lon="12.798582241818947"><ele>135.0</ele><time>2026-05-01T08:21:35.999Z</time></trkpt><trkpt lat="46.09409073486462" lon="12.798314853187849"><ele>135.66666666666666</ele><time>2026-05-01T08:21:36.999Z</time></trkpt><trkpt lat="46.09418633557206" lon="12.79804281901785"><ele>136.33333333333331</ele><time>2026-05-01T08:21:37.999Z</time></trkpt><trkpt lat="46.094285079119715" lon="12.797767025008438"><ele>137.0</ele><time>2026-05-01T08:21:38.999Z</time></trkpt><trkpt lat="46.09438331960437" lon="12.797484502786665"><ele>137.5</ele><time>2026-05-01T08:21:39.999Z</time></trkpt><trkpt lat="46.094484851874554" lon="12.79720056288432"><ele>138.0</ele><time>2026-05-01T08:21:40.999Z</time></trkpt><trkpt lat="46.09458621451457" lon="12.796902321415729"><ele>138.0</ele><time>2026-05-01T08:21:41.999Z</time></trkpt><trkpt lat="46.09468078122855" lon="12.79660888227632"><ele>138.0</ele><time>2026-05-01T08:21:42.999Z</time></trkpt><trkpt lat="46.09476910178178" lon="12.796296176550735"><ele>138.0</ele><time>2026-05-01T08:21:43.999Z</time></trkpt><trkpt lat="46.09483814056502" lon="12.796005205174984"><ele>138.0</ele><time>2026-05-01T08:21:44.999Z</time></trkpt><trkpt lat="46.09489733142274" lon="12.795718040160947"><ele>138.0</ele><time>2026-05-01T08:21:45.999Z</time></trkpt><trkpt lat="46.09494568500508" lon="12.795435092791504"><ele>138.66666666666666</ele><time>2026-05-01T08:21:46.999Z</time></trkpt><trkpt lat="46.09498569996762" lon="12.795151273408834"><ele>139.33333333333331</ele><time>2026-05-01T08:21:47.999Z</time></trkpt><trkpt lat="46.09501663546432" lon="12.794856733595752"><ele>140.0</ele><time>2026-05-01T08:21:48.999Z</time></trkpt><trkpt lat="46.095039491051295" lon="12.794555149875137"><ele>140.33333333333331</ele><time>2026-05-01T08:21:49.999Z</time></trkpt><trkpt lat="46.09505374536209" lon="12.79425409900139"><ele>140.66666666666666</ele><time>2026-05-01T08:21:50.999Z</time></trkpt><trkpt lat="46.0950557587862" lon="12.793949328697106"><ele>141.0</ele><time>2026-05-01T08:21:51.999Z</time></trkpt><trkpt lat="46.09504963551703" lon="12.793648063175873"><ele>140.66666666666666</ele><time>2026-05-01T08:21:52.999Z</time></trkpt><trkpt lat="46.095030455458215" lon="12.793341822679931"><ele>140.33333333333331</ele><time>2026-05-01T08:21:53.999Z</time></trkpt><trkpt lat="46.09499951594662" lon="12.793041974577035"><ele>140.0</ele><time>2026-05-01T08:21:54.999Z</time></trkpt><trkpt lat="46.09496222809648" lon="12.792750544623578"><ele>140.0</ele><time>2026-05-01T08:21:55.999Z</time></trkpt><trkpt lat="46.09491707177709" lon="12.792462536434469"><ele>140.0</ele><time>2026-05-01T08:21:56.999Z</time></trkpt><trkpt lat="46.09486674297762" lon="12.792174692838266"><ele>140.0</ele><time>2026-05-01T08:21:57.999Z</time></trkpt><trkpt lat="46.09481195522303" lon="12.791885403540398"><ele>139.33333333333331</ele><time>2026-05-01T08:21:58.999Z</time></trkpt><trkpt lat="46.0947565933371" lon="12.791608521216201"><ele>138.66666666666666</ele><time>2026-05-01T08:21:59.999Z</time></trkpt><trkpt lat="46.094708349441795" lon="12.791349623718943"><ele>138.0</ele><time>2026-05-01T08:22:00.999Z</time></trkpt><trkpt lat="46.094668144470766" lon="12.791112520674863"><ele>138.5</ele><time>2026-05-01T08:22:01.999Z</time></trkpt><trkpt lat="46.09463450123848" lon="12.790903251038795"><ele>139.0</ele><time>2026-05-01T08:22:02.999Z</time></trkpt><trkpt lat="46.094607424892196" lon="12.790716272940436"><ele>139.5</ele><time>2026-05-01T08:22:03.999Z</time></trkpt><trkpt lat="46.09459171180837" lon="12.790542386658755"><ele>140.0</ele><time>2026-05-01T08:22:04.999Z</time></trkpt><trkpt lat="46.09459554792507" lon="12.790363680126774"><ele>140.0</ele><time>2026-05-01T08:22:05.999Z</time></trkpt><trkpt lat="46.09462436881437" lon="12.790193748097435"><ele>140.0</ele><time>2026-05-01T08:22:06.999Z</time></trkpt><trkpt lat="46.09463715377404" lon="12.790029281524873"><ele>140.0</ele><time>2026-05-01T08:22:07.999Z</time></trkpt><trkpt lat="46.09459990874294" lon="12.78986959977532"><ele>140.0</ele><time>2026-05-01T08:22:08.999Z</time></trkpt><trkpt lat="46.094511108811304" lon="12.78972813937294"><ele>140.66666666666666</ele><time>2026-05-01T08:22:09.999Z</time></trkpt><trkpt lat="46.094403564501285" lon="12.789562648281779"><ele>141.33333333333334</ele><time>2026-05-01T08:22:10.999Z</time></trkpt><trkpt lat="46.09432351859424" lon="12.789337221825638"><ele>142.0</ele><time>2026-05-01T08:22:11.999Z</time></trkpt><trkpt lat="46.094269046282086" lon="12.789086504699206"><ele>142.25</ele><time>2026-05-01T08:22:12.999Z</time></trkpt><trkpt lat="46.09423583710238" lon="12.788867427536305"><ele>142.5</ele><time>2026-05-01T08:22:13.999Z</time></trkpt><trkpt lat="46.09420136858001" lon="12.788669382075215"><ele>142.75</ele><time>2026-05-01T08:22:14.999Z</time></trkpt><trkpt lat="46.09416523739855" lon="12.788472959744093"><ele>143.0</ele><time>2026-05-01T08:22:15.999Z</time></trkpt><trkpt lat="46.094126441066635" lon="12.788269122605241"><ele>142.66666666666666</ele><time>2026-05-01T08:22:16.999Z</time></trkpt><trkpt lat="46.094087386665684" lon="12.788063058683539"><ele>142.33333333333334</ele><time>2026-05-01T08:22:17.999Z</time></trkpt><trkpt lat="46.094047575499005" lon="12.787852752879163"><ele>142.0</ele><time>2026-05-01T08:22:18.999Z</time></trkpt><trkpt lat="46.094005595350126" lon="12.787638481788989"><ele>143.0</ele><time>2026-05-01T08:22:19.999Z</time></trkpt><trkpt lat="46.09396193110407" lon="12.787421845330028"><ele>144.0</ele><time>2026-05-01T08:22:20.999Z</time></trkpt><trkpt lat="46.093918239698205" lon="12.7872011896142"><ele>145.0</ele><time>2026-05-01T08:22:21.999Z</time></trkpt><trkpt lat="46.093874362076704" lon="12.786976459176227"><ele>145.0</ele><time>2026-05-01T08:22:22.999Z</time></trkpt><trkpt lat="46.09382850992556" lon="12.786739784282371"><ele>145.0</ele><time>2026-05-01T08:22:23.999Z</time></trkpt><trkpt lat="46.09378337961907" lon="12.786503303728248"><ele>145.0</ele><time>2026-05-01T08:22:24.999Z</time></trkpt><trkpt lat="46.093740192352165" lon="12.786268241113726"><ele>145.0</ele><time>2026-05-01T08:22:25.999Z</time></trkpt><trkpt lat="46.09369513461674" lon="12.78603248814511"><ele>145.0</ele><time>2026-05-01T08:22:26.999Z</time></trkpt><trkpt lat="46.0936473317389" lon="12.785789240649489"><ele>145.0</ele><time>2026-05-01T08:22:27.999Z</time></trkpt><trkpt lat="46.093598631274666" lon="12.785537434995831"><ele>145.33333333333334</ele><time>2026-05-01T08:22:28.999Z</time></trkpt><trkpt lat="46.09354929497327" lon="12.785283134097085"><ele>145.66666666666666</ele><time>2026-05-01T08:22:29.999Z</time></trkpt><trkpt lat="46.093500860737585" lon="12.785046979390861"><ele>146.0</ele><time>2026-05-01T08:22:30.999Z</time></trkpt><trkpt lat="46.0934519494824" lon="12.784826568909688"><ele>146.33333333333331</ele><time>2026-05-01T08:22:31.999Z</time></trkpt><trkpt lat="46.093394457799704" lon="12.784608994392276"><ele>146.66666666666666</ele><time>2026-05-01T08:22:32.999Z</time></trkpt><trkpt lat="46.0933316603477" lon="12.784392702846429"><ele>147.0</ele><time>2026-05-01T08:22:33.999Z</time></trkpt><trkpt lat="46.09326730962876" lon="12.784176875348694"><ele>146.33333333333334</ele><time>2026-05-01T08:22:34.999Z</time></trkpt><trkpt lat="46.09319511686692" lon="12.783961195950088"><ele>145.66666666666669</ele><time>2026-05-01T08:22:35.999Z</time></trkpt><trkpt lat="46.09311635799028" lon="12.783740161945161"><ele>145.0</ele><time>2026-05-01T08:22:36.999Z</time></trkpt><trkpt lat="46.093027694864425" lon="12.783518271243512"><ele>145.33333333333334</ele><time>2026-05-01T08:22:37.999Z</time></trkpt><trkpt lat="46.09292990105944" lon="12.78329352107412"><ele>145.66666666666666</ele><time>2026-05-01T08:22:38.999Z</time></trkpt><trkpt lat="46.092822287211696" lon="12.783066498393802"><ele>146.0</ele><time>2026-05-01T08:22:39.999Z</time></trkpt><trkpt lat="46.092700850168015" lon="12.782846727138388"><ele>146.33333333333331</ele><time>2026-05-01T08:22:40.999Z</time></trkpt><trkpt lat="46.09257457798019" lon="12.782626427279302"><ele>146.66666666666666</ele><time>2026-05-01T08:22:41.999Z</time></trkpt><trkpt lat="46.09244175889835" lon="12.782417249632688"><ele>147.0</ele><time>2026-05-01T08:22:42.999Z</time></trkpt><trkpt lat="46.09230691900779" lon="12.78222322355998"><ele>146.0</ele><time>2026-05-01T08:22:43.999Z</time></trkpt><trkpt lat="46.09216521696131" lon="12.782036373258183"><ele>145.0</ele><time>2026-05-01T08:22:44.999Z</time></trkpt><trkpt lat="46.09201614158781" lon="12.781857037026974"><ele>144.0</ele><time>2026-05-01T08:22:45.999Z</time></trkpt><trkpt lat="46.09186700464794" lon="12.781687629640196"><ele>143.66666666666666</ele><time>2026-05-01T08:22:46.999Z</time></trkpt><trkpt lat="46.09170830447059" lon="12.781526844625393"><ele>143.33333333333331</ele><time>2026-05-01T08:22:47.999Z</time></trkpt><trkpt lat="46.091542131612535" lon="12.781375759242149"><ele>143.0</ele><time>2026-05-01T08:22:48.999Z</time></trkpt><trkpt lat="46.091368829573746" lon="12.781218348698419"><ele>142.66666666666666</ele><time>2026-05-01T08:22:49.999Z</time></trkpt><trkpt lat="46.09118784137483" lon="12.781054020798887"><ele>142.33333333333334</ele><time>2026-05-01T08:22:50.999Z</time></trkpt><trkpt lat="46.090996855647674" lon="12.780876608953962"><ele>142.0</ele><time>2026-05-01T08:22:51.999Z</time></trkpt><trkpt lat="46.09080880121684" lon="12.780704093994135"><ele>142.0</ele><time>2026-05-01T08:22:52.999Z</time></trkpt><trkpt lat="46.09062884031567" lon="12.780540887333297"><ele>142.0</ele><time>2026-05-01T08:22:53.999Z</time></trkpt><trkpt lat="46.090453503245165" lon="12.780380728321743"><ele>142.0</ele><time>2026-05-01T08:22:54.999Z</time></trkpt><trkpt lat="46.09028140338713" lon="12.780223221479824"><ele>142.33333333333334</ele><time>2026-05-01T08:22:55.999Z</time></trkpt><trkpt lat="46.090109487466734" lon="12.780066071695476"><ele>142.66666666666666</ele><time>2026-05-01T08:22:56.999Z</time></trkpt><trkpt lat="46.08993747012687" lon="12.779909874795498"><ele>143.0</ele><time>2026-05-01T08:22:57.999Z</time></trkpt><trkpt lat="46.08976584398342" lon="12.779753909023063"><ele>143.66666666666666</ele><time>2026-05-01T08:22:59Z</time></trkpt><trkpt lat="46.089596800768625" lon="12.779597328119113"><ele>144.33333333333334</ele><time>2026-05-01T08:23:00Z</time></trkpt><trkpt lat="46.08942973391341" lon="12.779443194243422"><ele>145.0</ele><time>2026-05-01T08:23:01Z</time></trkpt><trkpt lat="46.08926301376791" lon="12.779291610954008"><ele>145.0</ele><time>2026-05-01T08:23:02Z</time></trkpt><trkpt lat="46.0890931081117" lon="12.77913778716891"><ele>145.0</ele><time>2026-05-01T08:23:03Z</time></trkpt><trkpt lat="46.08892163945117" lon="12.778978579024962"><ele>145.0</ele><time>2026-05-01T08:23:04Z</time></trkpt><trkpt lat="46.08874413312076" lon="12.778811632536721"><ele>145.0</ele><time>2026-05-01T08:23:05Z</time></trkpt><trkpt lat="46.08856371682666" lon="12.778645801130788"><ele>145.0</ele><time>2026-05-01T08:23:06Z</time></trkpt><trkpt lat="46.08837546980567" lon="12.778474393285315"><ele>145.0</ele><time>2026-05-01T08:23:07Z</time></trkpt><trkpt lat="46.08818437339662" lon="12.778298312179937"><ele>145.33333333333334</ele><time>2026-05-01T08:23:08Z</time></trkpt><trkpt lat="46.08799673580568" lon="12.778128855624518"><ele>145.66666666666666</ele><time>2026-05-01T08:23:09Z</time></trkpt><trkpt lat="46.08780971452106" lon="12.777957815641075"><ele>146.0</ele><time>2026-05-01T08:23:10Z</time></trkpt><trkpt lat="46.08762411009038" lon="12.777788123207907"><ele>145.66666666666666</ele><time>2026-05-01T08:23:11Z</time></trkpt><trkpt lat="46.08743898953378" lon="12.777619821951584"><ele>145.33333333333334</ele><time>2026-05-01T08:23:12Z</time></trkpt><trkpt lat="46.08725336166189" lon="12.777449708929154"><ele>145.0</ele><time>2026-05-01T08:23:13Z</time></trkpt><trkpt lat="46.087067175014354" lon="12.777276839644218"><ele>144.66666666666669</ele><time>2026-05-01T08:23:14Z</time></trkpt><trkpt lat="46.08688140150709" lon="12.777101062482657"><ele>144.33333333333334</ele><time>2026-05-01T08:23:15Z</time></trkpt><trkpt lat="46.08669488108823" lon="12.77691733981018"><ele>144.0</ele><time>2026-05-01T08:23:16Z</time></trkpt><trkpt lat="46.08650736721483" lon="12.776731992349196"><ele>143.0</ele><time>2026-05-01T08:23:17Z</time></trkpt><trkpt lat="46.08632414391098" lon="12.776537230571057"><ele>142.0</ele><time>2026-05-01T08:23:18Z</time></trkpt><trkpt lat="46.08614374995533" lon="12.776346244795745"><ele>142.0</ele><time>2026-05-01T08:23:19Z</time></trkpt><trkpt lat="46.085965095927264" lon="12.776148865780996"><ele>142.0</ele><time>2026-05-01T08:23:20Z</time></trkpt><trkpt lat="46.085788057527445" lon="12.775949460282918"><ele>142.33333333333334</ele><time>2026-05-01T08:23:21Z</time></trkpt><trkpt lat="46.08561843195347" lon="12.775752776464296"><ele>142.66666666666666</ele><time>2026-05-01T08:23:22Z</time></trkpt><trkpt lat="46.085451634817716" lon="12.775552240803574"><ele>143.0</ele><time>2026-05-01T08:23:23Z</time></trkpt><trkpt lat="46.085278780579856" lon="12.775347014758891"><ele>143.0</ele><time>2026-05-01T08:23:24Z</time></trkpt><trkpt lat="46.08510779721954" lon="12.77514108080002"><ele>143.0</ele><time>2026-05-01T08:23:24.999Z</time></trkpt><trkpt lat="46.084945470753325" lon="12.774936506117157"><ele>143.0</ele><time>2026-05-01T08:23:25.999Z</time></trkpt><trkpt lat="46.08478661617165" lon="12.774733302796443"><ele>142.66666666666666</ele><time>2026-05-01T08:23:26.999Z</time></trkpt><trkpt lat="46.08463205463392" lon="12.774529579268261"><ele>142.33333333333334</ele><time>2026-05-01T08:23:27.999Z</time></trkpt><trkpt lat="46.084475325115214" lon="12.774323777612482"><ele>142.0</ele><time>2026-05-01T08:23:28.999Z</time></trkpt><trkpt lat="46.08431806121567" lon="12.774117398859742"><ele>141.66666666666669</ele><time>2026-05-01T08:23:29.999Z</time></trkpt><trkpt lat="46.08416562173304" lon="12.77391707904595"><ele>141.33333333333334</ele><time>2026-05-01T08:23:30.999Z</time></trkpt><trkpt lat="46.08401631699936" lon="12.773721623439656"><ele>141.0</ele><time>2026-05-01T08:23:31.999Z</time></trkpt><trkpt lat="46.08387224991806" lon="12.773529987628383"><ele>141.33333333333334</ele><time>2026-05-01T08:23:32.999Z</time></trkpt><trkpt lat="46.08373365820838" lon="12.773344614878289"><ele>141.66666666666669</ele><time>2026-05-01T08:23:33.999Z</time></trkpt><trkpt lat="46.0835959979286" lon="12.773168215873467"><ele>142.0</ele><time>2026-05-01T08:23:34.999Z</time></trkpt><trkpt lat="46.083477971373746" lon="12.772996557143143"><ele>142.0</ele><time>2026-05-01T08:23:35.999Z</time></trkpt><trkpt lat="46.08337325702052" lon="12.772841795606174"><ele>142.0</ele><time>2026-05-01T08:23:36.999Z</time></trkpt><trkpt lat="46.083278801568035" lon="12.772682068654785"><ele>142.0</ele><time>2026-05-01T08:23:37.999Z</time></trkpt><trkpt lat="46.083195911396295" lon="12.772526984743331"><ele>142.0</ele><time>2026-05-01T08:23:38.999Z</time></trkpt><trkpt lat="46.08312457364883" lon="12.772381496513985"><ele>142.0</ele><time>2026-05-01T08:23:39.999Z</time></trkpt><trkpt lat="46.08306825237303" lon="12.772229452193082"><ele>142.0</ele><time>2026-05-01T08:23:40.999Z</time></trkpt><trkpt lat="46.0830281504897" lon="12.772066837284898"><ele>142.0</ele><time>2026-05-01T08:23:41.999Z</time></trkpt><trkpt lat="46.08301549960474" lon="12.771899909916819"><ele>142.0</ele><time>2026-05-01T08:23:42.999Z</time></trkpt><trkpt lat="46.08296466819193" lon="12.771765762807616"><ele>142.0</ele><time>2026-05-01T08:23:43.999Z</time></trkpt><trkpt lat="46.08287722193863" lon="12.771614163992869"><ele>142.0</ele><time>2026-05-01T08:23:44.999Z</time></trkpt><trkpt lat="46.08272753493307" lon="12.77151206690337"><ele>142.0</ele><time>2026-05-01T08:23:45.999Z</time></trkpt><trkpt lat="46.08258116986235" lon="12.77134543973703"><ele>142.0</ele><time>2026-05-01T08:23:46.999Z</time></trkpt><trkpt lat="46.08245755043808" lon="12.771167284137562"><ele>142.0</ele><time>2026-05-01T08:23:47.999Z</time></trkpt><trkpt lat="46.08233728637304" lon="12.770987247278425"><ele>142.0</ele><time>2026-05-01T08:23:48.999Z</time></trkpt><trkpt lat="46.08222065432463" lon="12.770815864083362"><ele>142.0</ele><time>2026-05-01T08:23:49.999Z</time></trkpt><trkpt lat="46.08210595896479" lon="12.770648598381905"><ele>142.0</ele><time>2026-05-01T08:23:50.999Z</time></trkpt><trkpt lat="46.0819912243203" lon="12.770479370651271"><ele>142.0</ele><time>2026-05-01T08:23:51.999Z</time></trkpt><trkpt lat="46.08187438871172" lon="12.770313597468652"><ele>142.66666666666669</ele><time>2026-05-01T08:23:52.999Z</time></trkpt><trkpt lat="46.081757656847415" lon="12.77014603421499"><ele>143.33333333333334</ele><time>2026-05-01T08:23:53.999Z</time></trkpt><trkpt lat="46.081643470843915" lon="12.76997804182771"><ele>144.0</ele><time>2026-05-01T08:23:54.999Z</time></trkpt><trkpt lat="46.081529193505034" lon="12.769810477176971"><ele>144.0</ele><time>2026-05-01T08:23:55.999Z</time></trkpt><trkpt lat="46.08141329663844" lon="12.769644335079985"><ele>144.0</ele><time>2026-05-01T08:23:56.999Z</time></trkpt><trkpt lat="46.08129585321978" lon="12.769476437993807"><ele>144.0</ele><time>2026-05-01T08:23:57.999Z</time></trkpt><trkpt lat="46.081179471608564" lon="12.769306744515108"><ele>144.0</ele><time>2026-05-01T08:23:58.999Z</time></trkpt><trkpt lat="46.08106092577188" lon="12.769134685199052"><ele>144.0</ele><time>2026-05-01T08:23:59.999Z</time></trkpt><trkpt lat="46.080937691521314" lon="12.7689596641984"><ele>144.0</ele><time>2026-05-01T08:24:00.999Z</time></trkpt><trkpt lat="46.08081058366709" lon="12.768778358686935"><ele>144.0</ele><time>2026-05-01T08:24:01.999Z</time></trkpt><trkpt lat="46.080682228597226" lon="12.76859210387372"><ele>144.0</ele><time>2026-05-01T08:24:02.999Z</time></trkpt><trkpt lat="46.08055236260527" lon="12.768405154982167"><ele>144.0</ele><time>2026-05-01T08:24:03.999Z</time></trkpt><trkpt lat="46.08042016606829" lon="12.768217015070045"><ele>144.0</ele><time>2026-05-01T08:24:04.999Z</time></trkpt><trkpt lat="46.080288585072665" lon="12.768025122291574"><ele>144.0</ele><time>2026-05-01T08:24:05.999Z</time></trkpt><trkpt lat="46.08015568012798" lon="12.767831993093624"><ele>144.0</ele><time>2026-05-01T08:24:06.999Z</time></trkpt><trkpt lat="46.0800240027928" lon="12.767643123039138"><ele>143.33333333333334</ele><time>2026-05-01T08:24:07.999Z</time></trkpt><trkpt lat="46.079893084608386" lon="12.767453488843076"><ele>142.66666666666669</ele><time>2026-05-01T08:24:08.999Z</time></trkpt><trkpt lat="46.07976007116461" lon="12.767264464733223"><ele>142.0</ele><time>2026-05-01T08:24:09.999Z</time></trkpt><trkpt lat="46.07962779605327" lon="12.767076893466456"><ele>142.0</ele><time>2026-05-01T08:24:10.999Z</time></trkpt><trkpt lat="46.07949633809375" lon="12.766886942578818"><ele>142.0</ele><time>2026-05-01T08:24:11.999Z</time></trkpt><trkpt lat="46.07936509069094" lon="12.766692508431962"><ele>142.0</ele><time>2026-05-01T08:24:12.999Z</time></trkpt><trkpt lat="46.079233908981564" lon="12.766498307364321"><ele>141.66666666666669</ele><time>2026-05-01T08:24:13.999Z</time></trkpt><trkpt lat="46.07909067089839" lon="12.766296590359014"><ele>141.33333333333334</ele><time>2026-05-01T08:24:14.999Z</time></trkpt><trkpt lat="46.07894316132253" lon="12.766082486974652"><ele>141.0</ele><time>2026-05-01T08:24:15.999Z</time></trkpt><trkpt lat="46.07879322136287" lon="12.765863432239733"><ele>142.0</ele><time>2026-05-01T08:24:16.999Z</time></trkpt><trkpt lat="46.07864073707855" lon="12.765644865823234"><ele>143.0</ele><time>2026-05-01T08:24:17.999Z</time></trkpt><trkpt lat="46.07848412104399" lon="12.765419673680368"><ele>144.0</ele><time>2026-05-01T08:24:18.999Z</time></trkpt><trkpt lat="46.078321166897446" lon="12.765187876147653"><ele>143.5</ele><time>2026-05-01T08:24:19.999Z</time></trkpt><trkpt lat="46.078158919462176" lon="12.76495303441529"><ele>143.0</ele><time>2026-05-01T08:24:20.999Z</time></trkpt><trkpt lat="46.077999900695424" lon="12.764722913242355"><ele>143.0</ele><time>2026-05-01T08:24:21.999Z</time></trkpt><trkpt lat="46.077844321732485" lon="12.764499602672691"><ele>143.0</ele><time>2026-05-01T08:24:22.999Z</time></trkpt><trkpt lat="46.077693272677294" lon="12.764300532178344"><ele>143.0</ele><time>2026-05-01T08:24:23.999Z</time></trkpt><trkpt lat="46.07754171835362" lon="12.764118215538144"><ele>143.0</ele><time>2026-05-01T08:24:24.999Z</time></trkpt><trkpt lat="46.07738763467416" lon="12.763946390578624"><ele>143.0</ele><time>2026-05-01T08:24:25.999Z</time></trkpt><trkpt lat="46.077232170821766" lon="12.763792090894022"><ele>143.0</ele><time>2026-05-01T08:24:26.999Z</time></trkpt><trkpt lat="46.077072735394324" lon="12.763645665219913"><ele>143.0</ele><time>2026-05-01T08:24:27.999Z</time></trkpt><trkpt lat="46.07690621805679" lon="12.763506288271625"><ele>143.0</ele><time>2026-05-01T08:24:28.999Z</time></trkpt><trkpt lat="46.07673390394577" lon="12.76337250914094"><ele>143.0</ele><time>2026-05-01T08:24:29.999Z</time></trkpt><trkpt lat="46.07655656965687" lon="12.763248231016108"><ele>143.0</ele><time>2026-05-01T08:24:30.999Z</time></trkpt><trkpt lat="46.076372955709004" lon="12.763131098735325"><ele>143.0</ele><time>2026-05-01T08:24:31.999Z</time></trkpt><trkpt lat="46.07617903205872" lon="12.7630239734713"><ele>143.0</ele><time>2026-05-01T08:24:32.999Z</time></trkpt><trkpt lat="46.07597639448526" lon="12.762930332860883"><ele>142.33333333333331</ele><time>2026-05-01T08:24:33.999Z</time></trkpt><trkpt lat="46.075767993537674" lon="12.762847376769475"><ele>141.66666666666666</ele><time>2026-05-01T08:24:34.999Z</time></trkpt><trkpt lat="46.07555406697002" lon="12.762780861409295"><ele>141.0</ele><time>2026-05-01T08:24:35.999Z</time></trkpt><trkpt lat="46.07533617293916" lon="12.762728761525276"><ele>141.66666666666666</ele><time>2026-05-01T08:24:36.999Z</time></trkpt><trkpt lat="46.07511584516284" lon="12.76269228661325"><ele>142.33333333333331</ele><time>2026-05-01T08:24:37.999Z</time></trkpt><trkpt lat="46.07489732922066" lon="12.762671595539082"><ele>143.0</ele><time>2026-05-01T08:24:38.999Z</time></trkpt><trkpt lat="46.07467740664713" lon="12.762666901016427"><ele>143.33333333333331</ele><time>2026-05-01T08:24:39.999Z</time></trkpt><trkpt lat="46.07445666975299" lon="12.762676049010373"><ele>143.66666666666666</ele><time>2026-05-01T08:24:40.999Z</time></trkpt><trkpt lat="46.074239184773994" lon="12.762702482955437"><ele>144.0</ele><time>2026-05-01T08:24:41.999Z</time></trkpt><trkpt lat="46.074023636382755" lon="12.76274093503402"><ele>142.66666666666666</ele><time>2026-05-01T08:24:42.999Z</time></trkpt><trkpt lat="46.07381364281949" lon="12.762793969892284"><ele>141.33333333333331</ele><time>2026-05-01T08:24:43.999Z</time></trkpt><trkpt lat="46.07360974602658" lon="12.762855787220095"><ele>140.0</ele><time>2026-05-01T08:24:44.999Z</time></trkpt><trkpt lat="46.073412969185696" lon="12.762931335196651"><ele>140.0</ele><time>2026-05-01T08:24:45.999Z</time></trkpt><trkpt lat="46.073238389487194" lon="12.763015090648176"><ele>140.0</ele><time>2026-05-01T08:24:46.999Z</time></trkpt><trkpt lat="46.073072346156884" lon="12.763101041358679"><ele>140.0</ele><time>2026-05-01T08:24:47.999Z</time></trkpt><trkpt lat="46.0729243845426" lon="12.763157017071844"><ele>140.0</ele><time>2026-05-01T08:24:48.999Z</time></trkpt><trkpt lat="46.0727922498509" lon="12.763260636633351"><ele>140.0</ele><time>2026-05-01T08:24:49.999Z</time></trkpt><trkpt lat="46.07266405126207" lon="12.76333732365616"><ele>140.0</ele><time>2026-05-01T08:24:50.999Z</time></trkpt><trkpt lat="46.07253343204209" lon="12.763403053929432"><ele>140.0</ele><time>2026-05-01T08:24:51.999Z</time></trkpt><trkpt lat="46.07239578352591" lon="12.763420003350848"><ele>139.75</ele><time>2026-05-01T08:24:52.999Z</time></trkpt><trkpt lat="46.07225369573499" lon="12.763377392274704"><ele>139.5</ele><time>2026-05-01T08:24:53.999Z</time></trkpt><trkpt lat="46.07212163386905" lon="12.763275481625966"><ele>139.25</ele><time>2026-05-01T08:24:54.999Z</time></trkpt><trkpt lat="46.07201886435522" lon="12.76311831222102"><ele>139.0</ele><time>2026-05-01T08:24:55.999Z</time></trkpt><trkpt lat="46.07193216824625" lon="12.76290338820637"><ele>140.0</ele><time>2026-05-01T08:24:56.999Z</time></trkpt><trkpt lat="46.07185141182945" lon="12.76265397505465"><ele>141.0</ele><time>2026-05-01T08:24:57.999Z</time></trkpt><trkpt lat="46.071774574811876" lon="12.762412003032232"><ele>142.0</ele><time>2026-05-01T08:24:58.999Z</time></trkpt><trkpt lat="46.071705059468286" lon="12.76220253014175"><ele>142.0</ele><time>2026-05-01T08:24:59.999Z</time></trkpt><trkpt lat="46.07163919069806" lon="12.762003027317819"><ele>142.0</ele><time>2026-05-01T08:25:00.999Z</time></trkpt><trkpt lat="46.071574244870284" lon="12.761804574206952"><ele>142.0</ele><time>2026-05-01T08:25:01.999Z</time></trkpt><trkpt lat="46.07150657902361" lon="12.761601774931261"><ele>142.0</ele><time>2026-05-01T08:25:02.999Z</time></trkpt><trkpt lat="46.07143062743129" lon="12.761386476672053"><ele>142.0</ele><time>2026-05-01T08:25:03.999Z</time></trkpt><trkpt lat="46.07135228374003" lon="12.761157617745248"><ele>142.0</ele><time>2026-05-01T08:25:05Z</time></trkpt><trkpt lat="46.07127249456622" lon="12.760920147562068"><ele>142.0</ele><time>2026-05-01T08:25:06Z</time></trkpt><trkpt lat="46.071191098509985" lon="12.760686750301879"><ele>142.0</ele><time>2026-05-01T08:25:07Z</time></trkpt><trkpt lat="46.07111202445593" lon="12.760461649693898"><ele>142.0</ele><time>2026-05-01T08:25:08Z</time></trkpt><trkpt lat="46.07103625767649" lon="12.760239346314775"><ele>142.66666666666669</ele><time>2026-05-01T08:25:09Z</time></trkpt><trkpt lat="46.07096314042735" lon="12.760021362870026"><ele>143.33333333333334</ele><time>2026-05-01T08:25:10Z</time></trkpt><trkpt lat="46.07088993520867" lon="12.7597970248345"><ele>144.0</ele><time>2026-05-01T08:25:11Z</time></trkpt><trkpt lat="46.07081465055528" lon="12.759566173649024"><ele>143.66666666666666</ele><time>2026-05-01T08:25:12Z</time></trkpt><trkpt lat="46.07073521901031" lon="12.759327982205768"><ele>143.33333333333331</ele><time>2026-05-01T08:25:13Z</time></trkpt><trkpt lat="46.070652168306296" lon="12.759084986595253"><ele>143.0</ele><time>2026-05-01T08:25:14Z</time></trkpt><trkpt lat="46.07056929892286" lon="12.758835129808578"><ele>143.0</ele><time>2026-05-01T08:25:15Z</time></trkpt><trkpt lat="46.07048715365392" lon="12.758584326675098"><ele>143.0</ele><time>2026-05-01T08:25:16Z</time></trkpt><trkpt lat="46.07040528047257" lon="12.758336115689836"><ele>143.0</ele><time>2026-05-01T08:25:17Z</time></trkpt><trkpt lat="46.07032202834372" lon="12.758085039731688"><ele>143.66666666666666</ele><time>2026-05-01T08:25:18Z</time></trkpt><trkpt lat="46.0702378702702" lon="12.757828563685031"><ele>144.33333333333334</ele><time>2026-05-01T08:25:19Z</time></trkpt><trkpt lat="46.07014831207533" lon="12.757563947997633"><ele>145.0</ele><time>2026-05-01T08:25:20Z</time></trkpt><trkpt lat="46.070054694719666" lon="12.757288338824011"><ele>145.33333333333334</ele><time>2026-05-01T08:25:21Z</time></trkpt><trkpt lat="46.06996043789382" lon="12.757004598732053"><ele>145.66666666666666</ele><time>2026-05-01T08:25:22Z</time></trkpt><trkpt lat="46.06986454360103" lon="12.756714702854083"><ele>146.0</ele><time>2026-05-01T08:25:23Z</time></trkpt><trkpt lat="46.06976604462983" lon="12.756420492639052"><ele>146.0</ele><time>2026-05-01T08:25:24Z</time></trkpt><trkpt lat="46.0696681175384" lon="12.756121766270834"><ele>146.0</ele><time>2026-05-01T08:25:25Z</time></trkpt><trkpt lat="46.06957015481106" lon="12.755825051408612"><ele>146.0</ele><time>2026-05-01T08:25:26Z</time></trkpt><trkpt lat="46.06947311072972" lon="12.75553386438581"><ele>146.0</ele><time>2026-05-01T08:25:27Z</time></trkpt><trkpt lat="46.06937539896934" lon="12.755245886093123"><ele>146.0</ele><time>2026-05-01T08:25:28Z</time></trkpt><trkpt lat="46.06928048295613" lon="12.754961177884901"><ele>146.0</ele><time>2026-05-01T08:25:28.999Z</time></trkpt><trkpt lat="46.06918582805535" lon="12.754677463099227"><ele>146.0</ele><time>2026-05-01T08:25:29.999Z</time></trkpt><trkpt lat="46.06909076212182" lon="12.754396600201913"><ele>146.0</ele><time>2026-05-01T08:25:30.999Z</time></trkpt><trkpt lat="46.06899728503708" lon="12.754118029464474"><ele>145.66666666666666</ele><time>2026-05-01T08:25:31.999Z</time></trkpt><trkpt lat="46.068906076967195" lon="12.753840623032046"><ele>145.33333333333334</ele><time>2026-05-01T08:25:32.999Z</time></trkpt><trkpt lat="46.06881488386767" lon="12.753564980532918"><ele>145.0</ele><time>2026-05-01T08:25:33.999Z</time></trkpt><trkpt lat="46.06871943088115" lon="12.753281959596633"><ele>145.66666666666669</ele><time>2026-05-01T08:25:34.999Z</time></trkpt><trkpt lat="46.06862369186664" lon="12.752993929967671"><ele>146.33333333333334</ele><time>2026-05-01T08:25:35.999Z</time></trkpt><trkpt lat="46.068527005742276" lon="12.752701966838393"><ele>147.0</ele><time>2026-05-01T08:25:36.999Z</time></trkpt><trkpt lat="46.06842730950361" lon="12.752406848710583"><ele>147.0</ele><time>2026-05-01T08:25:37.999Z</time></trkpt><trkpt lat="46.06832723088598" lon="12.75210097940017"><ele>147.0</ele><time>2026-05-01T08:25:38.999Z</time></trkpt><trkpt lat="46.0682238815121" lon="12.75178853355271"><ele>149.0</ele><time>2026-05-01T08:25:39.999Z</time></trkpt><trkpt lat="46.06811580172682" lon="12.751470021933214"><ele>151.0</ele><time>2026-05-01T08:25:40.999Z</time></trkpt><trkpt lat="46.06800557285968" lon="12.751144889722942"><ele>150.5</ele><time>2026-05-01T08:25:41.999Z</time></trkpt><trkpt lat="46.067899623816785" lon="12.750824360802948"><ele>150.0</ele><time>2026-05-01T08:25:42.999Z</time></trkpt><trkpt lat="46.0677967029276" lon="12.750509740272781"><ele>150.5</ele><time>2026-05-01T08:25:43.999Z</time></trkpt><trkpt lat="46.06769801022429" lon="12.75020309243283"><ele>151.0</ele><time>2026-05-01T08:25:44.999Z</time></trkpt><trkpt lat="46.0676055290036" lon="12.749901229130021"><ele>151.0</ele><time>2026-05-01T08:25:45.999Z</time></trkpt><trkpt lat="46.0675178170794" lon="12.749604139815395"><ele>151.0</ele><time>2026-05-01T08:25:46.999Z</time></trkpt><trkpt lat="46.06743263885258" lon="12.749306870863457"><ele>151.0</ele><time>2026-05-01T08:25:47.999Z</time></trkpt><trkpt lat="46.067347144006646" lon="12.74901426390778"><ele>150.0</ele><time>2026-05-01T08:25:48.999Z</time></trkpt><trkpt lat="46.06725962941446" lon="12.748715168376604"><ele>149.0</ele><time>2026-05-01T08:25:49.999Z</time></trkpt><trkpt lat="46.06717163780506" lon="12.748415924553868"><ele>149.0</ele><time>2026-05-01T08:25:50.999Z</time></trkpt><trkpt lat="46.06708254783499" lon="12.74810869733644"><ele>149.0</ele><time>2026-05-01T08:25:51.999Z</time></trkpt><trkpt lat="46.06699298204118" lon="12.747793971138234"><ele>149.5</ele><time>2026-05-01T08:25:52.999Z</time></trkpt><trkpt lat="46.06690180572893" lon="12.74747451344336"><ele>150.0</ele><time>2026-05-01T08:25:53.999Z</time></trkpt><trkpt lat="46.066807032932125" lon="12.747147496891493"><ele>149.5</ele><time>2026-05-01T08:25:54.999Z</time></trkpt><trkpt lat="46.066711467280044" lon="12.746818580836939"><ele>149.0</ele><time>2026-05-01T08:25:55.999Z</time></trkpt><trkpt lat="46.066615365443596" lon="12.746485497837568"><ele>149.0</ele><time>2026-05-01T08:25:56.999Z</time></trkpt><trkpt lat="46.066519297960085" lon="12.746150741758264"><ele>149.0</ele><time>2026-05-01T08:25:57.999Z</time></trkpt><trkpt lat="46.066423012479014" lon="12.74581767152831"><ele>149.0</ele><time>2026-05-01T08:25:58.999Z</time></trkpt><trkpt lat="46.066329472732676" lon="12.745487224914964"><ele>149.0</ele><time>2026-05-01T08:25:59.999Z</time></trkpt><trkpt lat="46.066236722064474" lon="12.74516169557925"><ele>149.5</ele><time>2026-05-01T08:26:00.999Z</time></trkpt><trkpt lat="46.06614508111961" lon="12.744840803440853"><ele>150.0</ele><time>2026-05-01T08:26:01.999Z</time></trkpt><trkpt lat="46.0660532168943" lon="12.744520708557243"><ele>151.0</ele><time>2026-05-01T08:26:02.999Z</time></trkpt><trkpt lat="46.06596278336113" lon="12.744205504740343"><ele>152.0</ele><time>2026-05-01T08:26:03.999Z</time></trkpt><trkpt lat="46.0658719382496" lon="12.743891180477382"><ele>152.0</ele><time>2026-05-01T08:26:04.999Z</time></trkpt><trkpt lat="46.06578248479776" lon="12.743579835047258"><ele>152.0</ele><time>2026-05-01T08:26:05.999Z</time></trkpt><trkpt lat="46.06569406681447" lon="12.743270248601812"><ele>150.5</ele><time>2026-05-01T08:26:06.999Z</time></trkpt><trkpt lat="46.06560577646413" lon="12.742962827947263"><ele>149.0</ele><time>2026-05-01T08:26:07.999Z</time></trkpt><trkpt lat="46.06551825109109" lon="12.742656751752031"><ele>148.5</ele><time>2026-05-01T08:26:08.999Z</time></trkpt><trkpt lat="46.06543127061871" lon="12.742353339321625"><ele>148.0</ele><time>2026-05-01T08:26:09.999Z</time></trkpt><trkpt lat="46.065342706356525" lon="12.742045413879264"><ele>147.5</ele><time>2026-05-01T08:26:10.999Z</time></trkpt><trkpt lat="46.06525229255567" lon="12.741733889975087"><ele>147.0</ele><time>2026-05-01T08:26:11.999Z</time></trkpt><trkpt lat="46.06516155928261" lon="12.741418768958995"><ele>147.0</ele><time>2026-05-01T08:26:12.999Z</time></trkpt><trkpt lat="46.06506921190762" lon="12.741098329969672"><ele>147.0</ele><time>2026-05-01T08:26:13.999Z</time></trkpt><trkpt lat="46.064976366677826" lon="12.740777910913723"><ele>147.0</ele><time>2026-05-01T08:26:14.999Z</time></trkpt><trkpt lat="46.064886190321666" lon="12.74046441224708"><ele>147.0</ele><time>2026-05-01T08:26:15.999Z</time></trkpt><trkpt lat="46.064797043069" lon="12.740154923528632"><ele>147.5</ele><time>2026-05-01T08:26:16.999Z</time></trkpt><trkpt lat="46.06470843149663" lon="12.739846532711253"><ele>148.0</ele><time>2026-05-01T08:26:17.999Z</time></trkpt><trkpt lat="46.06461882210983" lon="12.739536670799026"><ele>148.5</ele><time>2026-05-01T08:26:18.999Z</time></trkpt><trkpt lat="46.06452887999002" lon="12.739224799173321"><ele>149.0</ele><time>2026-05-01T08:26:19.999Z</time></trkpt><trkpt lat="46.06443797246283" lon="12.738909118310964"><ele>149.0</ele><time>2026-05-01T08:26:20.999Z</time></trkpt><trkpt lat="46.06434804793476" lon="12.73859317500731"><ele>149.0</ele><time>2026-05-01T08:26:21.999Z</time></trkpt><trkpt lat="46.06425633290618" lon="12.738274887704469"><ele>149.0</ele><time>2026-05-01T08:26:22.999Z</time></trkpt><trkpt lat="46.06416308043467" lon="12.737955833274839"><ele>149.0</ele><time>2026-05-01T08:26:23.999Z</time></trkpt><trkpt lat="46.064072116729825" lon="12.737636302724693"><ele>148.5</ele><time>2026-05-01T08:26:24.999Z</time></trkpt><trkpt lat="46.063981093357256" lon="12.737316730037135"><ele>148.0</ele><time>2026-05-01T08:26:25.999Z</time></trkpt><trkpt lat="46.06388929903679" lon="12.736999303011387"><ele>148.0</ele><time>2026-05-01T08:26:26.999Z</time></trkpt><trkpt lat="46.0637978122032" lon="12.736682988443182"><ele>148.0</ele><time>2026-05-01T08:26:27.999Z</time></trkpt><trkpt lat="46.06370920335225" lon="12.736371753452705"><ele>148.0</ele><time>2026-05-01T08:26:28.999Z</time></trkpt><trkpt lat="46.06362223309134" lon="12.736068482055689"><ele>148.0</ele><time>2026-05-01T08:26:29.999Z</time></trkpt><trkpt lat="46.06353617722298" lon="12.735771498421316"><ele>148.0</ele><time>2026-05-01T08:26:30.999Z</time></trkpt><trkpt lat="46.063450147434196" lon="12.735471949513427"><ele>148.0</ele><time>2026-05-01T08:26:31.999Z</time></trkpt><trkpt lat="46.06336193792376" lon="12.735164885279524"><ele>147.5</ele><time>2026-05-01T08:26:32.999Z</time></trkpt><trkpt lat="46.06327250928962" lon="12.734853325346243"><ele>147.0</ele><time>2026-05-01T08:26:33.999Z</time></trkpt><trkpt lat="46.063182003344316" lon="12.734530483847399"><ele>147.5</ele><time>2026-05-01T08:26:34.999Z</time></trkpt><trkpt lat="46.063090998851116" lon="12.734211507749022"><ele>148.0</ele><time>2026-05-01T08:26:35.999Z</time></trkpt><trkpt lat="46.062994201068165" lon="12.73387983110338"><ele>148.0</ele><time>2026-05-01T08:26:36.999Z</time></trkpt><trkpt lat="46.062876762987386" lon="12.733496834858924"><ele>148.0</ele><time>2026-05-01T08:26:37.999Z</time></trkpt><trkpt lat="46.06277059092441" lon="12.733071371669977"><ele>147.5</ele><time>2026-05-01T08:26:38.999Z</time></trkpt><trkpt lat="46.06264400501828" lon="12.732632610239587"><ele>147.0</ele><time>2026-05-01T08:26:39.999Z</time></trkpt><trkpt lat="46.06250704326772" lon="12.732194646719828"><ele>148.0</ele><time>2026-05-01T08:26:40.999Z</time></trkpt><trkpt lat="46.0623827803317" lon="12.731748098669955"><ele>149.0</ele><time>2026-05-01T08:26:41.999Z</time></trkpt><trkpt lat="46.06224911479618" lon="12.731285205356686"><ele>150.0</ele><time>2026-05-01T08:26:42.999Z</time></trkpt><trkpt lat="46.06211109267028" lon="12.730795918927804"><ele>151.0</ele><time>2026-05-01T08:26:43.999Z</time></trkpt><trkpt lat="46.06196892904037" lon="12.730292931094771"><ele>152.0</ele><time>2026-05-01T08:26:44.999Z</time></trkpt><trkpt lat="46.06182495404983" lon="12.729783268788353"><ele>153.0</ele><time>2026-05-01T08:26:45.999Z</time></trkpt><trkpt lat="46.06167633378885" lon="12.729266371395635"><ele>152.5</ele><time>2026-05-01T08:26:46.999Z</time></trkpt><trkpt lat="46.061526170062535" lon="12.72874244113487"><ele>152.0</ele><time>2026-05-01T08:26:47.999Z</time></trkpt><trkpt lat="46.06137284715343" lon="12.728206379184657"><ele>150.5</ele><time>2026-05-01T08:26:48.999Z</time></trkpt><trkpt lat="46.06122400422856" lon="12.72766957442367"><ele>149.0</ele><time>2026-05-01T08:26:49.999Z</time></trkpt><trkpt lat="46.061086404689235" lon="12.72712673820455"><ele>149.5</ele><time>2026-05-01T08:26:50.999Z</time></trkpt><trkpt lat="46.06096466288961" lon="12.726577542870873"><ele>150.0</ele><time>2026-05-01T08:26:51.999Z</time></trkpt><trkpt lat="46.06085779018257" lon="12.726032106338796"><ele>149.5</ele><time>2026-05-01T08:26:52.999Z</time></trkpt><trkpt lat="46.060769239883925" lon="12.725502547250853"><ele>149.0</ele><time>2026-05-01T08:26:53.999Z</time></trkpt><trkpt lat="46.06069124224428" lon="12.724983159894075"><ele>149.0</ele><time>2026-05-01T08:26:54.999Z</time></trkpt><trkpt lat="46.060620151504644" lon="12.724472216147085"><ele>149.0</ele><time>2026-05-01T08:26:55.999Z</time></trkpt><trkpt lat="46.06055897046356" lon="12.723966282377946"><ele>149.0</ele><time>2026-05-01T08:26:56.999Z</time></trkpt><trkpt lat="46.0605151530471" lon="12.723493344330508"><ele>149.0</ele><time>2026-05-01T08:26:57.999Z</time></trkpt><trkpt lat="46.060485212542886" lon="12.723081717161161"><ele>149.0</ele><time>2026-05-01T08:26:58.999Z</time></trkpt><trkpt lat="46.06046243592485" lon="12.72274078104548"><ele>149.0</ele><time>2026-05-01T08:26:59.999Z</time></trkpt><trkpt lat="46.06044360252355" lon="12.72242859798272"><ele>148.66666666666666</ele><time>2026-05-01T08:27:00.999Z</time></trkpt><trkpt lat="46.06042562757589" lon="12.722134642130426"><ele>148.33333333333334</ele><time>2026-05-01T08:27:01.999Z</time></trkpt><trkpt lat="46.06040730114541" lon="12.721865974492232"><ele>148.0</ele><time>2026-05-01T08:27:02.999Z</time></trkpt><trkpt lat="46.06038962068883" lon="12.721612492901414"><ele>148.66666666666669</ele><time>2026-05-01T08:27:03.999Z</time></trkpt><trkpt lat="46.06037434192497" lon="12.721383460784713"><ele>149.33333333333334</ele><time>2026-05-01T08:27:04.999Z</time></trkpt><trkpt lat="46.06036013053151" lon="12.72116541462396"><ele>150.0</ele><time>2026-05-01T08:27:05.999Z</time></trkpt><trkpt lat="46.060347420640056" lon="12.720954290788786"><ele>150.0</ele><time>2026-05-01T08:27:06.999Z</time></trkpt><trkpt lat="46.06033248655713" lon="12.720748871561081"><ele>150.0</ele><time>2026-05-01T08:27:07.999Z</time></trkpt><trkpt lat="46.060318322945975" lon="12.72054420285127"><ele>150.0</ele><time>2026-05-01T08:27:08.999Z</time></trkpt><trkpt lat="46.06030342635226" lon="12.72033901329495"><ele>150.0</ele><time>2026-05-01T08:27:09.999Z</time></trkpt><trkpt lat="46.0602898588503" lon="12.720125068805404"><ele>150.0</ele><time>2026-05-01T08:27:11Z</time></trkpt><trkpt lat="46.06027715120503" lon="12.719893685758738"><ele>150.0</ele><time>2026-05-01T08:27:12Z</time></trkpt><trkpt lat="46.060261369039644" lon="12.719643227841818"><ele>150.0</ele><time>2026-05-01T08:27:13Z</time></trkpt><trkpt lat="46.06024615718056" lon="12.7193827463889"><ele>150.0</ele><time>2026-05-01T08:27:14Z</time></trkpt><trkpt lat="46.0602280017237" lon="12.719104759585674"><ele>150.0</ele><time>2026-05-01T08:27:15Z</time></trkpt><trkpt lat="46.06020284447296" lon="12.718774331603136"><ele>150.0</ele><time>2026-05-01T08:27:16Z</time></trkpt><trkpt lat="46.060166613976165" lon="12.71839903490353"><ele>150.0</ele><time>2026-05-01T08:27:17Z</time></trkpt><trkpt lat="46.06013141013405" lon="12.71794285689765"><ele>150.0</ele><time>2026-05-01T08:27:18Z</time></trkpt><trkpt lat="46.06010632473451" lon="12.717439895709942"><ele>149.5</ele><time>2026-05-01T08:27:19Z</time></trkpt><trkpt lat="46.06008876221084" lon="12.716994082497859"><ele>149.0</ele><time>2026-05-01T08:27:20Z</time></trkpt><trkpt lat="46.060067155599775" lon="12.716600322742801"><ele>149.0</ele><time>2026-05-01T08:27:21Z</time></trkpt><trkpt lat="46.0600452544471" lon="12.71625139621013"><ele>149.0</ele><time>2026-05-01T08:27:22Z</time></trkpt><trkpt lat="46.060026898308294" lon="12.715938899494407"><ele>149.0</ele><time>2026-05-01T08:27:23Z</time></trkpt><trkpt lat="46.060008863863104" lon="12.715635161590079"><ele>149.0</ele><time>2026-05-01T08:27:24Z</time></trkpt><trkpt lat="46.05999035137208" lon="12.715318780227062"><ele>149.0</ele><time>2026-05-01T08:27:25Z</time></trkpt><trkpt lat="46.059970991713115" lon="12.715010274621172"><ele>149.0</ele><time>2026-05-01T08:27:26Z</time></trkpt><trkpt lat="46.059951236551484" lon="12.714691301529065"><ele>149.0</ele><time>2026-05-01T08:27:27Z</time></trkpt><trkpt lat="46.059932231518495" lon="12.714369887293165"><ele>149.0</ele><time>2026-05-01T08:27:28Z</time></trkpt><trkpt lat="46.05991162917015" lon="12.714039092555934"><ele>149.0</ele><time>2026-05-01T08:27:29Z</time></trkpt><trkpt lat="46.05988759973239" lon="12.713706570628242"><ele>149.0</ele><time>2026-05-01T08:27:30Z</time></trkpt><trkpt lat="46.059857109689254" lon="12.7133768531744"><ele>149.0</ele><time>2026-05-01T08:27:30.999Z</time></trkpt><trkpt lat="46.059813935875106" lon="12.71304346268715"><ele>149.0</ele><time>2026-05-01T08:27:31.999Z</time></trkpt><trkpt lat="46.059759221665516" lon="12.712709401586107"><ele>148.0</ele><time>2026-05-01T08:27:32.999Z</time></trkpt><trkpt lat="46.05969364416872" lon="12.712385189448952"><ele>147.0</ele><time>2026-05-01T08:27:33.999Z</time></trkpt><trkpt lat="46.059620378151905" lon="12.712070750084578"><ele>146.0</ele><time>2026-05-01T08:27:34.999Z</time></trkpt><trkpt lat="46.059534549494145" lon="12.711770292244296"><ele>145.0</ele><time>2026-05-01T08:27:35.999Z</time></trkpt><trkpt lat="46.059435100256486" lon="12.711477132118265"><ele>145.0</ele><time>2026-05-01T08:27:36.999Z</time></trkpt><trkpt lat="46.05932599533988" lon="12.711200646359988"><ele>145.0</ele><time>2026-05-01T08:27:37.999Z</time></trkpt><trkpt lat="46.059212111199344" lon="12.710943440848265"><ele>145.0</ele><time>2026-05-01T08:27:38.999Z</time></trkpt><trkpt lat="46.05909492326718" lon="12.710697419360507"><ele>145.0</ele><time>2026-05-01T08:27:39.999Z</time></trkpt><trkpt lat="46.05897105439428" lon="12.710464530396333"><ele>145.0</ele><time>2026-05-01T08:27:40.999Z</time></trkpt><trkpt lat="46.05883663843589" lon="12.710236377339168"><ele>145.0</ele><time>2026-05-01T08:27:41.999Z</time></trkpt><trkpt lat="46.058690854208656" lon="12.71000997263555"><ele>145.0</ele><time>2026-05-01T08:27:42.999Z</time></trkpt><trkpt lat="46.05853055639232" lon="12.709790287370035"><ele>145.0</ele><time>2026-05-01T08:27:43.999Z</time></trkpt><trkpt lat="46.05836192091787" lon="12.709577544805077"><ele>145.0</ele><time>2026-05-01T08:27:44.999Z</time></trkpt><trkpt lat="46.05818216744323" lon="12.709371921529177"><ele>144.5</ele><time>2026-05-01T08:27:45.999Z</time></trkpt><trkpt lat="46.058000571704945" lon="12.70916852232063"><ele>144.0</ele><time>2026-05-01T08:27:46.999Z</time></trkpt><trkpt lat="46.057821919158435" lon="12.708967042578303"><ele>144.0</ele><time>2026-05-01T08:27:47.999Z</time></trkpt><trkpt lat="46.05764396193594" lon="12.7087660794352"><ele>144.0</ele><time>2026-05-01T08:27:48.999Z</time></trkpt><trkpt lat="46.05746995668614" lon="12.708570210369663"><ele>144.0</ele><time>2026-05-01T08:27:49.999Z</time></trkpt><trkpt lat="46.05730032837877" lon="12.70837714180502"><ele>143.33333333333334</ele><time>2026-05-01T08:27:50.999Z</time></trkpt><trkpt lat="46.05713583185295" lon="12.70818952293777"><ele>142.66666666666669</ele><time>2026-05-01T08:27:51.999Z</time></trkpt><trkpt lat="46.0569717025131" lon="12.708000139702515"><ele>142.0</ele><time>2026-05-01T08:27:52.999Z</time></trkpt><trkpt lat="46.056804798877174" lon="12.707810970424164"><ele>142.0</ele><time>2026-05-01T08:27:53.999Z</time></trkpt><trkpt lat="46.05664067882611" lon="12.707625885390422"><ele>142.0</ele><time>2026-05-01T08:27:54.999Z</time></trkpt><trkpt lat="46.05647807080116" lon="12.707438188482229"><ele>142.0</ele><time>2026-05-01T08:27:55.999Z</time></trkpt><trkpt lat="46.056314208387036" lon="12.707250943775763"><ele>142.0</ele><time>2026-05-01T08:27:56.999Z</time></trkpt><trkpt lat="46.0561509460815" lon="12.707066103481631"><ele>142.0</ele><time>2026-05-01T08:27:57.999Z</time></trkpt><trkpt lat="46.05598889416668" lon="12.706878954678782"><ele>142.0</ele><time>2026-05-01T08:27:58.999Z</time></trkpt><trkpt lat="46.05582820662734" lon="12.706693380869812"><ele>140.66666666666669</ele><time>2026-05-01T08:27:59.999Z</time></trkpt><trkpt lat="46.055668906012535" lon="12.70650663029218"><ele>139.33333333333334</ele><time>2026-05-01T08:28:00.999Z</time></trkpt><trkpt lat="46.05550869467836" lon="12.70631517619291"><ele>138.0</ele><time>2026-05-01T08:28:01.999Z</time></trkpt><trkpt lat="46.055347987559486" lon="12.706117843164801"><ele>138.33333333333334</ele><time>2026-05-01T08:28:02.999Z</time></trkpt><trkpt lat="46.05519189599467" lon="12.705903464977766"><ele>138.66666666666669</ele><time>2026-05-01T08:28:03.999Z</time></trkpt><trkpt lat="46.055045009913556" lon="12.705674486748851"><ele>139.0</ele><time>2026-05-01T08:28:04.999Z</time></trkpt><trkpt lat="46.0549119356751" lon="12.705435173183528"><ele>138.66666666666669</ele><time>2026-05-01T08:28:05.999Z</time></trkpt><trkpt lat="46.054786682530484" lon="12.705190660365119"><ele>138.33333333333334</ele><time>2026-05-01T08:28:06.999Z</time></trkpt><trkpt lat="46.0546685172264" lon="12.70493473480915"><ele>138.0</ele><time>2026-05-01T08:28:07.999Z</time></trkpt><trkpt lat="46.05455708693765" lon="12.704668550843792"><ele>137.33333333333334</ele><time>2026-05-01T08:28:08.999Z</time></trkpt><trkpt lat="46.054452725566094" lon="12.704392319421158"><ele>136.66666666666669</ele><time>2026-05-01T08:28:09.999Z</time></trkpt><trkpt lat="46.05435500858244" lon="12.704106715208093"><ele>136.0</ele><time>2026-05-01T08:28:10.999Z</time></trkpt><trkpt lat="46.05426494753363" lon="12.703809125043582"><ele>136.0</ele><time>2026-05-01T08:28:11.999Z</time></trkpt><trkpt lat="46.05418759713063" lon="12.703506100768653"><ele>136.0</ele><time>2026-05-01T08:28:12.999Z</time></trkpt><trkpt lat="46.054121271285155" lon="12.70320376811813"><ele>136.0</ele><time>2026-05-01T08:28:13.999Z</time></trkpt><trkpt lat="46.05406456462543" lon="12.70290240419543"><ele>135.33333333333334</ele><time>2026-05-01T08:28:14.999Z</time></trkpt><trkpt lat="46.05401989130643" lon="12.702595290096236"><ele>134.66666666666666</ele><time>2026-05-01T08:28:15.999Z</time></trkpt><trkpt lat="46.05398334270257" lon="12.702289173270406"><ele>134.0</ele><time>2026-05-01T08:28:16.999Z</time></trkpt><trkpt lat="46.05395996773947" lon="12.701983227720483"><ele>134.33333333333331</ele><time>2026-05-01T08:28:17.999Z</time></trkpt><trkpt lat="46.05394628662108" lon="12.701680386493939"><ele>134.66666666666666</ele><time>2026-05-01T08:28:18.999Z</time></trkpt><trkpt lat="46.05394493380929" lon="12.7013737326446"><ele>135.0</ele><time>2026-05-01T08:28:19.999Z</time></trkpt><trkpt lat="46.05395267765751" lon="12.70107672194183"><ele>134.33333333333334</ele><time>2026-05-01T08:28:20.999Z</time></trkpt><trkpt lat="46.053966897502384" lon="12.700771316259917"><ele>133.66666666666669</ele><time>2026-05-01T08:28:21.999Z</time></trkpt><trkpt lat="46.053990628485195" lon="12.700468462298227"><ele>133.0</ele><time>2026-05-01T08:28:22.999Z</time></trkpt><trkpt lat="46.054027333541" lon="12.700167102602332"><ele>133.0</ele><time>2026-05-01T08:28:23.999Z</time></trkpt><trkpt lat="46.054074863028916" lon="12.699854898816607"><ele>133.0</ele><time>2026-05-01T08:28:24.999Z</time></trkpt><trkpt lat="46.05412485327787" lon="12.699540318071776"><ele>133.0</ele><time>2026-05-01T08:28:25.999Z</time></trkpt><trkpt lat="46.05417304841683" lon="12.699243734396973"><ele>133.33333333333334</ele><time>2026-05-01T08:28:26.999Z</time></trkpt><trkpt lat="46.05422030382265" lon="12.698947249332996"><ele>133.66666666666666</ele><time>2026-05-01T08:28:27.999Z</time></trkpt><trkpt lat="46.05426766406622" lon="12.69864854440154"><ele>134.0</ele><time>2026-05-01T08:28:28.999Z</time></trkpt><trkpt lat="46.0543164833945" lon="12.698343983437205"><ele>134.0</ele><time>2026-05-01T08:28:29.999Z</time></trkpt><trkpt lat="46.054361385997396" lon="12.698046467851963"><ele>134.0</ele><time>2026-05-01T08:28:30.999Z</time></trkpt><trkpt lat="46.054404099689265" lon="12.69775106614942"><ele>134.0</ele><time>2026-05-01T08:28:31.999Z</time></trkpt><trkpt lat="46.05444703858203" lon="12.697467472267826"><ele>133.66666666666666</ele><time>2026-05-01T08:28:32.999Z</time></trkpt><trkpt lat="46.05448852706194" lon="12.69718788862554"><ele>133.33333333333334</ele><time>2026-05-01T08:28:33.999Z</time></trkpt><trkpt lat="46.05452308431427" lon="12.696908076332743"><ele>133.0</ele><time>2026-05-01T08:28:34.999Z</time></trkpt><trkpt lat="46.05455134798372" lon="12.6966196762086"><ele>133.0</ele><time>2026-05-01T08:28:35.999Z</time></trkpt><trkpt lat="46.05457131752615" lon="12.696324341167827"><ele>133.0</ele><time>2026-05-01T08:28:36.999Z</time></trkpt><trkpt lat="46.05457839579889" lon="12.696018383937783"><ele>133.0</ele><time>2026-05-01T08:28:37.999Z</time></trkpt><trkpt lat="46.0545738413962" lon="12.695716255362132"><ele>132.0</ele><time>2026-05-01T08:28:38.999Z</time></trkpt><trkpt lat="46.05456310545773" lon="12.695420126789022"><ele>131.0</ele><time>2026-05-01T08:28:39.999Z</time></trkpt><trkpt lat="46.054546060695245" lon="12.695123877548745"><ele>130.0</ele><time>2026-05-01T08:28:40.999Z</time></trkpt><trkpt lat="46.05452787825703" lon="12.694849398882992"><ele>130.0</ele><time>2026-05-01T08:28:41.999Z</time></trkpt><trkpt lat="46.05451432589879" lon="12.69459497255465"><ele>130.0</ele><time>2026-05-01T08:28:42.999Z</time></trkpt><trkpt lat="46.05450369109646" lon="12.694362939577124"><ele>130.0</ele><time>2026-05-01T08:28:43.999Z</time></trkpt><trkpt lat="46.05449775787635" lon="12.694151625986056"><ele>130.5</ele><time>2026-05-01T08:28:44.999Z</time></trkpt><trkpt lat="46.05449383736008" lon="12.693947525810023"><ele>131.0</ele><time>2026-05-01T08:28:45.999Z</time></trkpt><trkpt lat="46.05449211417391" lon="12.693760959262063"><ele>131.5</ele><time>2026-05-01T08:28:46.999Z</time></trkpt><trkpt lat="46.054489912239625" lon="12.693594824472074"><ele>132.0</ele><time>2026-05-01T08:28:47.999Z</time></trkpt><trkpt lat="46.054488806103386" lon="12.693438340346685"><ele>132.2</ele><time>2026-05-01T08:28:48.999Z</time></trkpt><trkpt lat="46.05448947145212" lon="12.693286302155025"><ele>132.39999999999998</ele><time>2026-05-01T08:28:49.999Z</time></trkpt><trkpt lat="46.054495209589305" lon="12.69313543383511"><ele>132.60000000000002</ele><time>2026-05-01T08:28:50.999Z</time></trkpt><trkpt lat="46.05451815819038" lon="12.692985111207333"><ele>132.8</ele><time>2026-05-01T08:28:51.999Z</time></trkpt><trkpt lat="46.054546978720644" lon="12.692837225679385"><ele>133.0</ele><time>2026-05-01T08:28:52.999Z</time></trkpt><trkpt lat="46.05455956474958" lon="12.692691795452973"><ele>133.25</ele><time>2026-05-01T08:28:53.999Z</time></trkpt><trkpt lat="46.05454043011741" lon="12.69254768633033"><ele>133.5</ele><time>2026-05-01T08:28:54.999Z</time></trkpt><trkpt lat="46.05449136152087" lon="12.692423506620033"><ele>133.75</ele><time>2026-05-01T08:28:55.999Z</time></trkpt><trkpt lat="46.05440651452207" lon="12.692305912225406"><ele>134.0</ele><time>2026-05-01T08:28:56.999Z</time></trkpt><trkpt lat="46.0543117977687" lon="12.692173492378851"><ele>134.0</ele><time>2026-05-01T08:28:57.999Z</time></trkpt><trkpt lat="46.05422451656999" lon="12.692019261644754"><ele>134.0</ele><time>2026-05-01T08:28:58.999Z</time></trkpt><trkpt lat="46.05413663391678" lon="12.691861935127585"><ele>134.0</ele><time>2026-05-01T08:28:59.999Z</time></trkpt><trkpt lat="46.05405092664348" lon="12.691706334717002"><ele>134.0</ele><time>2026-05-01T08:29:00.999Z</time></trkpt><trkpt lat="46.05396602269228" lon="12.691546001738601"><ele>133.5</ele><time>2026-05-01T08:29:01.999Z</time></trkpt><trkpt lat="46.0538884683432" lon="12.691394005611851"><ele>133.0</ele><time>2026-05-01T08:29:02.999Z</time></trkpt><trkpt lat="46.053810384328116" lon="12.69124501534143"><ele>132.5</ele><time>2026-05-01T08:29:03.999Z</time></trkpt><trkpt lat="46.05373593398517" lon="12.69110340702179"><ele>132.0</ele><time>2026-05-01T08:29:04.999Z</time></trkpt><trkpt lat="46.05366665133673" lon="12.690970612864724"><ele>132.0</ele><time>2026-05-01T08:29:05.999Z</time></trkpt><trkpt lat="46.05359932502205" lon="12.690838737437765"><ele>132.0</ele><time>2026-05-01T08:29:06.999Z</time></trkpt><trkpt lat="46.05353664183167" lon="12.69071299992997"><ele>132.0</ele><time>2026-05-01T08:29:07.999Z</time></trkpt><trkpt lat="46.05347060172262" lon="12.690586827829799"><ele>132.0</ele><time>2026-05-01T08:29:08.999Z</time></trkpt><trkpt lat="46.053400612751624" lon="12.690453959277388"><ele>132.0</ele><time>2026-05-01T08:29:09.999Z</time></trkpt><trkpt lat="46.05332837839288" lon="12.690313206329792"><ele>132.0</ele><time>2026-05-01T08:29:10.999Z</time></trkpt><trkpt lat="46.05325286613633" lon="12.690166343372354"><ele>132.0</ele><time>2026-05-01T08:29:11.999Z</time></trkpt><trkpt lat="46.053176520517454" lon="12.690015017154543"><ele>132.0</ele><time>2026-05-01T08:29:12.999Z</time></trkpt><trkpt lat="46.05309992226245" lon="12.689863302828046"><ele>132.0</ele><time>2026-05-01T08:29:13.999Z</time></trkpt><trkpt lat="46.053021638431254" lon="12.689708718604098"><ele>132.0</ele><time>2026-05-01T08:29:14.998Z</time></trkpt><trkpt lat="46.05294372416598" lon="12.68954949460797"><ele>132.0</ele><time>2026-05-01T08:29:15.998Z</time></trkpt><trkpt lat="46.05286861167195" lon="12.689381488398988"><ele>132.0</ele><time>2026-05-01T08:29:17Z</time></trkpt><trkpt lat="46.05279165908678" lon="12.689210569276566"><ele>132.0</ele><time>2026-05-01T08:29:18Z</time></trkpt><trkpt lat="46.05271549360928" lon="12.68903817973542"><ele>131.75</ele><time>2026-05-01T08:29:19Z</time></trkpt><trkpt lat="46.05264568800546" lon="12.688863602255688"><ele>131.5</ele><time>2026-05-01T08:29:20Z</time></trkpt><trkpt lat="46.052576977784746" lon="12.688685872614762"><ele>131.25</ele><time>2026-05-01T08:29:21Z</time></trkpt><trkpt lat="46.05250849183402" lon="12.688506565392379"><ele>131.0</ele><time>2026-05-01T08:29:22Z</time></trkpt><trkpt lat="46.052443105873145" lon="12.688322559431311"><ele>131.0</ele><time>2026-05-01T08:29:23Z</time></trkpt><trkpt lat="46.052381049094976" lon="12.688133128309506"><ele>131.0</ele><time>2026-05-01T08:29:24Z</time></trkpt><trkpt lat="46.05231799694157" lon="12.687940133313674"><ele>131.0</ele><time>2026-05-01T08:29:25Z</time></trkpt><trkpt lat="46.05225777633611" lon="12.687743155018183"><ele>131.0</ele><time>2026-05-01T08:29:26Z</time></trkpt><trkpt lat="46.05220039226884" lon="12.687548144112103"><ele>131.0</ele><time>2026-05-01T08:29:27Z</time></trkpt><trkpt lat="46.05214382680728" lon="12.687357234121558"><ele>131.0</ele><time>2026-05-01T08:29:28Z</time></trkpt><trkpt lat="46.05208956850667" lon="12.687167125913064"><ele>131.0</ele><time>2026-05-01T08:29:29Z</time></trkpt><trkpt lat="46.052035751999846" lon="12.686980837729918"><ele>131.0</ele><time>2026-05-01T08:29:30Z</time></trkpt><trkpt lat="46.05198301765861" lon="12.686795705943833"><ele>131.0</ele><time>2026-05-01T08:29:31Z</time></trkpt><trkpt lat="46.051929829039935" lon="12.686607522707481"><ele>131.0</ele><time>2026-05-01T08:29:32Z</time></trkpt><trkpt lat="46.051876352119216" lon="12.686418980924845"><ele>131.0</ele><time>2026-05-01T08:29:33Z</time></trkpt><trkpt lat="46.05182203913565" lon="12.6862272435873"><ele>131.0</ele><time>2026-05-01T08:29:34Z</time></trkpt><trkpt lat="46.05176461648051" lon="12.686034155788931"><ele>131.0</ele><time>2026-05-01T08:29:34.999Z</time></trkpt><trkpt lat="46.05170668294553" lon="12.685839129809708"><ele>131.0</ele><time>2026-05-01T08:29:35.999Z</time></trkpt><trkpt lat="46.05165055754598" lon="12.685649924539813"><ele>131.0</ele><time>2026-05-01T08:29:36.999Z</time></trkpt><trkpt lat="46.05159100773126" lon="12.685462200014568"><ele>131.0</ele><time>2026-05-01T08:29:37.999Z</time></trkpt><trkpt lat="46.05152863743976" lon="12.685276136806348"><ele>132.0</ele><time>2026-05-01T08:29:38.999Z</time></trkpt><trkpt lat="46.05146002675401" lon="12.685082415419458"><ele>133.0</ele><time>2026-05-01T08:29:39.999Z</time></trkpt><trkpt lat="46.05138597516939" lon="12.684883228224146"><ele>134.0</ele><time>2026-05-01T08:29:40.999Z</time></trkpt><trkpt lat="46.05131010407612" lon="12.68468600911212"><ele>134.0</ele><time>2026-05-01T08:29:41.999Z</time></trkpt><trkpt lat="46.05122928767435" lon="12.684485503141573"><ele>134.0</ele><time>2026-05-01T08:29:42.999Z</time></trkpt><trkpt lat="46.05114887220331" lon="12.684282848353039"><ele>134.0</ele><time>2026-05-01T08:29:43.999Z</time></trkpt><trkpt lat="46.05106970278977" lon="12.684079823609475"><ele>134.0</ele><time>2026-05-01T08:29:44.999Z</time></trkpt><trkpt lat="46.050991246121704" lon="12.683878487603613"><ele>134.0</ele><time>2026-05-01T08:29:45.999Z</time></trkpt><trkpt lat="46.05091389159856" lon="12.683682755011425"><ele>134.0</ele><time>2026-05-01T08:29:46.999Z</time></trkpt><trkpt lat="46.05083849934659" lon="12.683488792607195"><ele>132.66666666666666</ele><time>2026-05-01T08:29:47.999Z</time></trkpt><trkpt lat="46.05075955994056" lon="12.683292480397172"><ele>131.33333333333334</ele><time>2026-05-01T08:29:48.999Z</time></trkpt><trkpt lat="46.05067944404957" lon="12.683093462877466"><ele>130.0</ele><time>2026-05-01T08:29:49.999Z</time></trkpt><trkpt lat="46.050599425920474" lon="12.682890297101066"><ele>130.66666666666669</ele><time>2026-05-01T08:29:50.999Z</time></trkpt><trkpt lat="46.05051895543497" lon="12.682686089080972"><ele>131.33333333333334</ele><time>2026-05-01T08:29:51.999Z</time></trkpt><trkpt lat="46.05043725401659" lon="12.682481097699267"><ele>132.0</ele><time>2026-05-01T08:29:52.999Z</time></trkpt><trkpt lat="46.05035553574228" lon="12.68227785887028"><ele>132.0</ele><time>2026-05-01T08:29:53.999Z</time></trkpt><trkpt lat="46.05027470200324" lon="12.682075561438596"><ele>132.0</ele><time>2026-05-01T08:29:54.999Z</time></trkpt><trkpt lat="46.05019715051743" lon="12.681877624700538"><ele>132.0</ele><time>2026-05-01T08:29:55.999Z</time></trkpt><trkpt lat="46.05012039994023" lon="12.681686287053079"><ele>132.25</ele><time>2026-05-01T08:29:56.999Z</time></trkpt><trkpt lat="46.050044958148" lon="12.681502280486708"><ele>132.5</ele><time>2026-05-01T08:29:57.999Z</time></trkpt><trkpt lat="46.04997146424888" lon="12.68132001422975"><ele>132.75</ele><time>2026-05-01T08:29:58.999Z</time></trkpt><trkpt lat="46.04989923903207" lon="12.681139673370934"><ele>133.0</ele><time>2026-05-01T08:29:59.999Z</time></trkpt><trkpt lat="46.049826548512634" lon="12.68096102368248"><ele>133.25</ele><time>2026-05-01T08:30:00.999Z</time></trkpt><trkpt lat="46.049755947970205" lon="12.680785506834203"><ele>133.5</ele><time>2026-05-01T08:30:01.999Z</time></trkpt><trkpt lat="46.04968507231054" lon="12.680609930239312"><ele>133.75</ele><time>2026-05-01T08:30:02.999Z</time></trkpt><trkpt lat="46.04961004351801" lon="12.680430517093148"><ele>134.0</ele><time>2026-05-01T08:30:03.999Z</time></trkpt><trkpt lat="46.04953640878642" lon="12.68024565550378"><ele>134.0</ele><time>2026-05-01T08:30:04.999Z</time></trkpt><trkpt lat="46.04946260879482" lon="12.680060527885916"><ele>134.0</ele><time>2026-05-01T08:30:05.999Z</time></trkpt><trkpt lat="46.04938799581954" lon="12.679873987626381"><ele>134.0</ele><time>2026-05-01T08:30:06.999Z</time></trkpt><trkpt lat="46.049307368880505" lon="12.679677518136982"><ele>134.0</ele><time>2026-05-01T08:30:07.999Z</time></trkpt><trkpt lat="46.049227085078044" lon="12.67947386543861"><ele>134.0</ele><time>2026-05-01T08:30:08.999Z</time></trkpt><trkpt lat="46.04914307548049" lon="12.67926781683315"><ele>134.0</ele><time>2026-05-01T08:30:09.999Z</time></trkpt><trkpt lat="46.049057494337" lon="12.679055241795215"><ele>133.33333333333331</ele><time>2026-05-01T08:30:10.999Z</time></trkpt><trkpt lat="46.04897285472483" lon="12.678841292802419"><ele>132.66666666666666</ele><time>2026-05-01T08:30:11.999Z</time></trkpt><trkpt lat="46.048887168708156" lon="12.678626157741812"><ele>132.0</ele><time>2026-05-01T08:30:12.999Z</time></trkpt><trkpt lat="46.04879733834311" lon="12.678410980104065"><ele>132.0</ele><time>2026-05-01T08:30:13.999Z</time></trkpt><trkpt lat="46.04870884158649" lon="12.678192569317927"><ele>132.0</ele><time>2026-05-01T08:30:14.999Z</time></trkpt><trkpt lat="46.04862431931361" lon="12.677977230997396"><ele>132.0</ele><time>2026-05-01T08:30:15.999Z</time></trkpt><trkpt lat="46.04854145405998" lon="12.677771674477588"><ele>132.33333333333334</ele><time>2026-05-01T08:30:16.999Z</time></trkpt><trkpt lat="46.04846074776891" lon="12.677571240182207"><ele>132.66666666666669</ele><time>2026-05-01T08:30:17.999Z</time></trkpt><trkpt lat="46.04838365262699" lon="12.677374170329886"><ele>133.0</ele><time>2026-05-01T08:30:18.999Z</time></trkpt><trkpt lat="46.04830539016934" lon="12.677179886703163"><ele>132.0</ele><time>2026-05-01T08:30:19.999Z</time></trkpt><trkpt lat="46.048227103607225" lon="12.676988734330951"><ele>131.0</ele><time>2026-05-01T08:30:20.999Z</time></trkpt><trkpt lat="46.04815089346646" lon="12.676799213427621"><ele>130.0</ele><time>2026-05-01T08:30:21.999Z</time></trkpt><trkpt lat="46.048074824336105" lon="12.676610730939883"><ele>129.66666666666669</ele><time>2026-05-01T08:30:22.999Z</time></trkpt><trkpt lat="46.04799817898412" lon="12.676422524491638"><ele>129.33333333333334</ele><time>2026-05-01T08:30:23.999Z</time></trkpt><trkpt lat="46.04792300742806" lon="12.676233654266778"><ele>129.0</ele><time>2026-05-01T08:30:24.999Z</time></trkpt><trkpt lat="46.04784757384424" lon="12.676044380745696"><ele>130.0</ele><time>2026-05-01T08:30:25.999Z</time></trkpt><trkpt lat="46.047770895367016" lon="12.67585115834234"><ele>131.0</ele><time>2026-05-01T08:30:26.999Z</time></trkpt><trkpt lat="46.047692635390774" lon="12.675659052385384"><ele>132.0</ele><time>2026-05-01T08:30:27.999Z</time></trkpt><trkpt lat="46.04761571355616" lon="12.675468926814666"><ele>132.0</ele><time>2026-05-01T08:30:28.999Z</time></trkpt><trkpt lat="46.04753821304095" lon="12.675279495522506"><ele>132.0</ele><time>2026-05-01T08:30:29.999Z</time></trkpt><trkpt lat="46.04746740210544" lon="12.675102417872248"><ele>132.0</ele><time>2026-05-01T08:30:30.999Z</time></trkpt><trkpt lat="46.04739982935946" lon="12.674935636281166"><ele>132.0</ele><time>2026-05-01T08:30:31.999Z</time></trkpt><trkpt lat="46.04733530971637" lon="12.674772606831722"><ele>132.0</ele><time>2026-05-01T08:30:32.999Z</time></trkpt><trkpt lat="46.04727800105741" lon="12.674623169608278"><ele>132.0</ele><time>2026-05-01T08:30:33.999Z</time></trkpt><trkpt lat="46.04722689805977" lon="12.674487781558701"><ele>132.0</ele><time>2026-05-01T08:30:34.999Z</time></trkpt><trkpt lat="46.0471804255574" lon="12.674352397300035"><ele>132.0</ele><time>2026-05-01T08:30:35.999Z</time></trkpt><trkpt lat="46.04713842588583" lon="12.674217529689601"><ele>132.0</ele><time>2026-05-01T08:30:36.999Z</time></trkpt><trkpt lat="46.047101045497286" lon="12.674089617905523"><ele>131.83333333333334</ele><time>2026-05-01T08:30:37.999Z</time></trkpt><trkpt lat="46.047067165458714" lon="12.673971107548246"><ele>131.66666666666666</ele><time>2026-05-01T08:30:38.999Z</time></trkpt><trkpt lat="46.04703827609997" lon="12.673868080696835"><ele>131.5</ele><time>2026-05-01T08:30:39.999Z</time></trkpt><trkpt lat="46.0470025477412" lon="12.673746523738593"><ele>131.33333333333331</ele><time>2026-05-01T08:30:41.999Z</time></trkpt><trkpt lat="46.04699036694367" lon="12.673650133427499"><ele>131.16666666666666</ele><time>2026-05-01T08:30:50.999Z</time></trkpt><trkpt lat="46.046990227857044" lon="12.673507619622477"><ele>131.0</ele><time>2026-05-01T08:30:52.999Z</time></trkpt><trkpt lat="46.04700747952081" lon="12.673410174981269"><ele>131.0</ele><time>2026-05-01T08:30:53.999Z</time></trkpt><trkpt lat="46.047013562667146" lon="12.673301403589702"><ele>131.0</ele><time>2026-05-01T08:30:54.999Z</time></trkpt><trkpt lat="46.04699238873042" lon="12.673188203276844"><ele>131.0</ele><time>2026-05-01T08:30:55.999Z</time></trkpt><trkpt lat="46.04694868167958" lon="12.67307970430917"><ele>131.0</ele><time>2026-05-01T08:30:56.999Z</time></trkpt><trkpt lat="46.046884368356466" lon="12.672992313403794"><ele>131.0</ele><time>2026-05-01T08:30:57.999Z</time></trkpt><trkpt lat="46.04680888715291" lon="12.672925425797974"><ele>131.0</ele><time>2026-05-01T08:30:58.999Z</time></trkpt><trkpt lat="46.04673870154232" lon="12.672878738344872"><ele>131.0</ele><time>2026-05-01T08:30:59.999Z</time></trkpt><trkpt lat="46.046674357698656" lon="12.672822283860539"><ele>131.0</ele><time>2026-05-01T08:31:00.999Z</time></trkpt><trkpt lat="46.046615798836285" lon="12.672744472629056"><ele>131.0</ele><time>2026-05-01T08:31:01.999Z</time></trkpt><trkpt lat="46.04656775358563" lon="12.672653996109883"><ele>131.0</ele><time>2026-05-01T08:31:02.999Z</time></trkpt><trkpt lat="46.04652603173315" lon="12.672547576644279"><ele>131.0</ele><time>2026-05-01T08:31:03.999Z</time></trkpt><trkpt lat="46.0464845723893" lon="12.672435950511955"><ele>131.0</ele><time>2026-05-01T08:31:04.999Z</time></trkpt><trkpt lat="46.04644725899208" lon="12.672330616558446"><ele>130.83333333333331</ele><time>2026-05-01T08:31:05.999Z</time></trkpt><trkpt lat="46.04641539451256" lon="12.672232810672588"><ele>130.66666666666666</ele><time>2026-05-01T08:31:06.999Z</time></trkpt><trkpt lat="46.04637905915941" lon="12.672129505954855"><ele>130.5</ele><time>2026-05-01T08:31:07.999Z</time></trkpt><trkpt lat="46.04634181681789" lon="12.672022155528028"><ele>130.33333333333334</ele><time>2026-05-01T08:31:08.999Z</time></trkpt><trkpt lat="46.04630456527823" lon="12.67190876074285"><ele>130.16666666666669</ele><time>2026-05-01T08:31:09.999Z</time></trkpt><trkpt lat="46.046269603316674" lon="12.67179307520001"><ele>130.0</ele><time>2026-05-01T08:31:10.999Z</time></trkpt><trkpt lat="46.046235820480426" lon="12.671675848033706"><ele>130.0</ele><time>2026-05-01T08:31:11.999Z</time></trkpt><trkpt lat="46.04619941012947" lon="12.671557841404388"><ele>130.0</ele><time>2026-05-01T08:31:12.999Z</time></trkpt><trkpt lat="46.046160247857244" lon="12.671438024937267"><ele>130.0</ele><time>2026-05-01T08:31:13.999Z</time></trkpt><trkpt lat="46.04611756463397" lon="12.671318613695444"><ele>130.0</ele><time>2026-05-01T08:31:14.999Z</time></trkpt><trkpt lat="46.046079591609704" lon="12.67119604207064"><ele>130.0</ele><time>2026-05-01T08:31:15.999Z</time></trkpt><trkpt lat="46.04604170381773" lon="12.671073180082123"><ele>130.2</ele><time>2026-05-01T08:31:16.999Z</time></trkpt><trkpt lat="46.046006415835244" lon="12.670952181783305"><ele>130.4</ele><time>2026-05-01T08:31:17.999Z</time></trkpt><trkpt lat="46.045971632712714" lon="12.670831259889416"><ele>130.6</ele><time>2026-05-01T08:31:18.999Z</time></trkpt><trkpt lat="46.04593509115497" lon="12.6707146936281"><ele>130.8</ele><time>2026-05-01T08:31:19.998Z</time></trkpt><trkpt lat="46.04589896819859" lon="12.670595460370784"><ele>131.0</ele><time>2026-05-01T08:31:20.998Z</time></trkpt><trkpt lat="46.04586086211352" lon="12.670475793320085"><ele>131.0</ele><time>2026-05-01T08:31:22Z</time></trkpt><trkpt lat="46.04582404649802" lon="12.670354764744827"><ele>131.0</ele><time>2026-05-01T08:31:23Z</time></trkpt><trkpt lat="46.045785309182165" lon="12.670224132134548"><ele>131.0</ele><time>2026-05-01T08:31:24Z</time></trkpt><trkpt lat="46.045745689201695" lon="12.670093402798841"><ele>131.0</ele><time>2026-05-01T08:31:25Z</time></trkpt><trkpt lat="46.045702507128425" lon="12.669958853704353"><ele>131.0</ele><time>2026-05-01T08:31:26Z</time></trkpt><trkpt lat="46.04566045394677" lon="12.669821736971318"><ele>130.8</ele><time>2026-05-01T08:31:27Z</time></trkpt><trkpt lat="46.045619462182216" lon="12.669682988971836"><ele>130.6</ele><time>2026-05-01T08:31:28Z</time></trkpt><trkpt lat="46.0455783390701" lon="12.669539824040257"><ele>130.4</ele><time>2026-05-01T08:31:29Z</time></trkpt><trkpt lat="46.04554026495566" lon="12.669396077009884"><ele>130.2</ele><time>2026-05-01T08:31:30Z</time></trkpt><trkpt lat="46.0455031063151" lon="12.669248844467182"><ele>130.0</ele><time>2026-05-01T08:31:31Z</time></trkpt><trkpt lat="46.04546550002013" lon="12.669099026517134"><ele>130.5</ele><time>2026-05-01T08:31:32Z</time></trkpt><trkpt lat="46.04542586352321" lon="12.668945714868144"><ele>131.0</ele><time>2026-05-01T08:31:33Z</time></trkpt><trkpt lat="46.04538920468895" lon="12.668786672179474"><ele>131.5</ele><time>2026-05-01T08:31:34Z</time></trkpt><trkpt lat="46.045354039599616" lon="12.668619010962626"><ele>132.0</ele><time>2026-05-01T08:31:35Z</time></trkpt><trkpt lat="46.045311961608896" lon="12.66844227861839"><ele>132.25</ele><time>2026-05-01T08:31:36Z</time></trkpt><trkpt lat="46.04526936456335" lon="12.668253047852787"><ele>132.5</ele><time>2026-05-01T08:31:36.999Z</time></trkpt><trkpt lat="46.04522619415787" lon="12.668068624996803"><ele>132.75</ele><time>2026-05-01T08:31:37.999Z</time></trkpt><trkpt lat="46.04518695343127" lon="12.667891192456741"><ele>133.0</ele><time>2026-05-01T08:31:38.999Z</time></trkpt><trkpt lat="46.04514806715855" lon="12.667715398796421"><ele>133.4</ele><time>2026-05-01T08:31:39.999Z</time></trkpt><trkpt lat="46.04510892701949" lon="12.667551132152768"><ele>133.8</ele><time>2026-05-01T08:31:40.999Z</time></trkpt><trkpt lat="46.04507662487798" lon="12.667411950881165"><ele>134.2</ele><time>2026-05-01T08:31:41.999Z</time></trkpt><trkpt lat="46.04504390089499" lon="12.667264480694792"><ele>134.6</ele><time>2026-05-01T08:31:42.999Z</time></trkpt><trkpt lat="46.04500836143283" lon="12.667115226569297"><ele>135.0</ele><time>2026-05-01T08:31:43.999Z</time></trkpt><trkpt lat="46.044972548428376" lon="12.666966388914526"><ele>134.6</ele><time>2026-05-01T08:31:44.999Z</time></trkpt><trkpt lat="46.04493935680301" lon="12.666814462957307"><ele>134.2</ele><time>2026-05-01T08:31:45.999Z</time></trkpt><trkpt lat="46.04490331140293" lon="12.666664797480605"><ele>133.8</ele><time>2026-05-01T08:31:46.999Z</time></trkpt><trkpt lat="46.0448687412335" lon="12.666514706735441"><ele>133.4</ele><time>2026-05-01T08:31:47.999Z</time></trkpt><trkpt lat="46.04483400051413" lon="12.666358648225524"><ele>133.0</ele><time>2026-05-01T08:31:48.999Z</time></trkpt><trkpt lat="46.04479800005695" lon="12.66619951680837"><ele>132.5</ele><time>2026-05-01T08:31:50Z</time></trkpt><trkpt lat="46.04476087193033" lon="12.666036985556794"><ele>132.0</ele><time>2026-05-01T08:31:51Z</time></trkpt><trkpt lat="46.04472181686552" lon="12.665872272952313"><ele>131.5</ele><time>2026-05-01T08:31:52Z</time></trkpt><trkpt lat="46.04468018209207" lon="12.665703209042784"><ele>131.0</ele><time>2026-05-01T08:31:53Z</time></trkpt><trkpt lat="46.04464071027785" lon="12.665530261303456"><ele>131.0</ele><time>2026-05-01T08:31:54Z</time></trkpt><trkpt lat="46.04460046429782" lon="12.66535670587142"><ele>131.0</ele><time>2026-05-01T08:31:55Z</time></trkpt><trkpt lat="46.044558011579284" lon="12.665186427011598"><ele>131.0</ele><time>2026-05-01T08:31:56Z</time></trkpt><trkpt lat="46.04451935691283" lon="12.665016179299204"><ele>131.0</ele><time>2026-05-01T08:31:57Z</time></trkpt><trkpt lat="46.04448199875143" lon="12.664853864853061"><ele>131.0</ele><time>2026-05-01T08:31:58Z</time></trkpt><trkpt lat="46.04444693945025" lon="12.664705761638768"><ele>131.0</ele><time>2026-05-01T08:31:59Z</time></trkpt><trkpt lat="46.04441792502009" lon="12.66457929282133"><ele>131.0</ele><time>2026-05-01T08:32:00Z</time></trkpt><trkpt lat="46.04438997243724" lon="12.664459623808751"><ele>131.0</ele><time>2026-05-01T08:32:01Z</time></trkpt><trkpt lat="46.04436413093824" lon="12.664356577396761"><ele>131.0</ele><time>2026-05-01T08:32:02Z</time></trkpt><trkpt lat="46.04434293148381" lon="12.664262452963955"><ele>131.0</ele><time>2026-05-01T08:32:03Z</time></trkpt><trkpt lat="46.04430693034333" lon="12.66410288279445"><ele>131.0</ele><time>2026-05-01T08:32:05Z</time></trkpt><trkpt lat="46.04427460457363" lon="12.663963212455272"><ele>131.0</ele><time>2026-05-01T08:32:07Z</time></trkpt><trkpt lat="46.04425381105546" lon="12.663865919676137"><ele>131.0</ele><time>2026-05-01T08:32:09Z</time></trkpt><trkpt lat="46.04422622837921" lon="12.663744225481274"><ele>131.0</ele><time>2026-05-01T08:32:12Z</time></trkpt><trkpt lat="46.04419821532401" lon="12.66361879251278"><ele>131.0</ele><time>2026-05-01T08:34:13Z</time></trkpt><trkpt lat="46.04416656962643" lon="12.663497495034"><ele>131.0</ele><time>2026-05-01T08:34:15Z</time></trkpt><trkpt lat="46.044141946216584" lon="12.663397350016181"><ele>131.0</ele><time>2026-05-01T08:34:17Z</time></trkpt><trkpt lat="46.04411390029603" lon="12.663285214094898"><ele>131.0</ele><time>2026-05-01T08:34:19Z</time></trkpt><trkpt lat="46.04408938707475" lon="12.663171973710211"><ele>131.0</ele><time>2026-05-01T08:34:21Z</time></trkpt><trkpt lat="46.0440669653175" lon="12.663075024313429"><ele>131.0</ele><time>2026-05-01T08:34:23Z</time></trkpt><trkpt lat="46.044047345833064" lon="12.662987926793075"><ele>131.0</ele><time>2026-05-01T08:34:25Z</time></trkpt><trkpt lat="46.04402522929495" lon="12.662886436928796"><ele>131.0</ele><time>2026-05-01T08:34:59Z</time></trkpt><trkpt lat="46.043996596332995" lon="12.662768154523441"><ele>131.0</ele><time>2026-05-01T08:35:02Z</time></trkpt><trkpt lat="46.04394267678727" lon="12.662615736490158"><ele>131.0</ele><time>2026-05-01T08:35:04Z</time></trkpt><trkpt lat="46.043920330877626" lon="12.662511057693559"><ele>131.0</ele><time>2026-05-01T08:35:05Z</time></trkpt><trkpt lat="46.04389550606262" lon="12.662396334880151"><ele>131.0</ele><time>2026-05-01T08:35:06Z</time></trkpt><trkpt lat="46.04386862050798" lon="12.662267117673428"><ele>131.0</ele><time>2026-05-01T08:35:07Z</time></trkpt><trkpt lat="46.043834727129585" lon="12.662131824728947"><ele>131.0</ele><time>2026-05-01T08:35:08Z</time></trkpt><trkpt lat="46.04379799114444" lon="12.661987598105515"><ele>131.0</ele><time>2026-05-01T08:35:09Z</time></trkpt><trkpt lat="46.04376307171395" lon="12.66183560954717"><ele>131.0</ele><time>2026-05-01T08:35:10Z</time></trkpt><trkpt lat="46.043726471408434" lon="12.66167248641937"><ele>131.0</ele><time>2026-05-01T08:35:11Z</time></trkpt><trkpt lat="46.043687273062595" lon="12.661505370330277"><ele>131.0</ele><time>2026-05-01T08:35:12Z</time></trkpt><trkpt lat="46.04364918830591" lon="12.661337747802952"><ele>131.0</ele><time>2026-05-01T08:35:13Z</time></trkpt><trkpt lat="46.04361386382992" lon="12.661168648709062"><ele>131.0</ele><time>2026-05-01T08:35:14Z</time></trkpt><trkpt lat="46.04357543620947" lon="12.66100194938339"><ele>131.0</ele><time>2026-05-01T08:35:15Z</time></trkpt><trkpt lat="46.043532508708026" lon="12.660828558448106"><ele>131.0</ele><time>2026-05-01T08:35:16Z</time></trkpt><trkpt lat="46.04349132423619" lon="12.66065398737813"><ele>131.0</ele><time>2026-05-01T08:35:17Z</time></trkpt><trkpt lat="46.04344664666754" lon="12.660478207740805"><ele>131.0</ele><time>2026-05-01T08:35:18Z</time></trkpt><trkpt lat="46.04339858460676" lon="12.660299912043437"><ele>131.0</ele><time>2026-05-01T08:35:19Z</time></trkpt><trkpt lat="46.043347091369085" lon="12.66012200750822"><ele>131.0</ele><time>2026-05-01T08:35:20Z</time></trkpt><trkpt lat="46.043290871343174" lon="12.659944188104504"><ele>131.0</ele><time>2026-05-01T08:35:21Z</time></trkpt><trkpt lat="46.04322847226532" lon="12.659768359923454"><ele>131.0</ele><time>2026-05-01T08:35:22Z</time></trkpt><trkpt lat="46.043169697649496" lon="12.659599773296907"><ele>131.0</ele><time>2026-05-01T08:35:23Z</time></trkpt><trkpt lat="46.04310768739781" lon="12.659441695328928"><ele>131.0</ele><time>2026-05-01T08:35:24Z</time></trkpt><trkpt lat="46.043046192739595" lon="12.659290385156877"><ele>131.0</ele><time>2026-05-01T08:35:25Z</time></trkpt><trkpt lat="46.042986370610166" lon="12.659149777164425"><ele>131.0</ele><time>2026-05-01T08:35:25.999Z</time></trkpt><trkpt lat="46.04292990747375" lon="12.659019214439203"><ele>131.0</ele><time>2026-05-01T08:35:26.999Z</time></trkpt><trkpt lat="46.04287667205259" lon="12.658896349713954"><ele>131.0</ele><time>2026-05-01T08:35:27.999Z</time></trkpt><trkpt lat="46.042824464537844" lon="12.658781115716979"><ele>131.0</ele><time>2026-05-01T08:35:28.999Z</time></trkpt><trkpt lat="46.04277119075592" lon="12.658665684624385"><ele>131.0</ele><time>2026-05-01T08:35:29.999Z</time></trkpt><trkpt lat="46.042718173800544" lon="12.658551320815137"><ele>131.0</ele><time>2026-05-01T08:35:30.999Z</time></trkpt><trkpt lat="46.04266476465872" lon="12.658435687331679"><ele>131.0</ele><time>2026-05-01T08:35:31.999Z</time></trkpt><trkpt lat="46.04260854019413" lon="12.658315984321394"><ele>131.0</ele><time>2026-05-01T08:35:32.999Z</time></trkpt><trkpt lat="46.04255176175799" lon="12.658192607701245"><ele>131.2</ele><time>2026-05-01T08:35:34Z</time></trkpt><trkpt lat="46.04249367033209" lon="12.658066640590432"><ele>131.39999999999998</ele><time>2026-05-01T08:35:35Z</time></trkpt><trkpt lat="46.04244126730667" lon="12.657947779692787"><ele>131.6</ele><time>2026-05-01T08:35:36Z</time></trkpt><trkpt lat="46.04239126251901" lon="12.65783215425327"><ele>131.79999999999998</ele><time>2026-05-01T08:35:37Z</time></trkpt><trkpt lat="46.04234494662267" lon="12.657716635054095"><ele>132.0</ele><time>2026-05-01T08:35:38Z</time></trkpt><trkpt lat="46.042302700682626" lon="12.657601346514038"><ele>132.0</ele><time>2026-05-01T08:35:39Z</time></trkpt><trkpt lat="46.042266275411315" lon="12.657491989365406"><ele>132.0</ele><time>2026-05-01T08:35:40Z</time></trkpt><trkpt lat="46.04223303464168" lon="12.65739493506415"><ele>132.0</ele><time>2026-05-01T08:35:41Z</time></trkpt><trkpt lat="46.04220217463767" lon="12.657307877584914"><ele>132.0</ele><time>2026-05-01T08:35:42Z</time></trkpt><trkpt lat="46.04217325060442" lon="12.657224811809963"><ele>132.0</ele><time>2026-05-01T08:35:43Z</time></trkpt><trkpt lat="46.04214258081586" lon="12.657131483401145"><ele>132.0</ele><time>2026-05-01T08:35:44Z</time></trkpt><trkpt lat="46.042127554941736" lon="12.657026900146258"><ele>132.0</ele><time>2026-05-01T08:35:45Z</time></trkpt><trkpt lat="46.04210716108978" lon="12.656915165864046"><ele>132.0</ele><time>2026-05-01T08:35:46Z</time></trkpt><trkpt lat="46.04217942380146" lon="12.656792043152178"><ele>132.0</ele><time>2026-05-01T08:35:47Z</time></trkpt><trkpt lat="46.04221801274952" lon="12.656678532394935"><ele>132.0</ele><time>2026-05-01T08:35:48Z</time></trkpt><trkpt lat="46.042234511583636" lon="12.656556896240305"><ele>132.0</ele><time>2026-05-01T08:35:49Z</time></trkpt><trkpt lat="46.04222891182412" lon="12.65643055057105"><ele>132.0</ele><time>2026-05-01T08:35:50Z</time></trkpt><trkpt lat="46.04220494915006" lon="12.656307142949817"><ele>132.0</ele><time>2026-05-01T08:35:51Z</time></trkpt><trkpt lat="46.04216337020374" lon="12.656189896663411"><ele>132.0</ele><time>2026-05-01T08:35:52Z</time></trkpt><trkpt lat="46.04210351482934" lon="12.656092893156288"><ele>132.0</ele><time>2026-05-01T08:35:53Z</time></trkpt><trkpt lat="46.042026253995644" lon="12.65602568839537"><ele>132.0</ele><time>2026-05-01T08:35:54Z</time></trkpt><trkpt lat="46.041938596380454" lon="12.655988148677306"><ele>132.0</ele><time>2026-05-01T08:35:55Z</time></trkpt><trkpt lat="46.041846742664305" lon="12.6559829528046"><ele>131.79999999999998</ele><time>2026-05-01T08:35:56Z</time></trkpt><trkpt lat="46.04175664043874" lon="12.656013862168145"><ele>131.6</ele><time>2026-05-01T08:35:57Z</time></trkpt><trkpt lat="46.041672769499165" lon="12.65607611316658"><ele>131.39999999999998</ele><time>2026-05-01T08:35:58Z</time></trkpt><trkpt lat="46.04160453614791" lon="12.656169958958653"><ele>131.2</ele><time>2026-05-01T08:35:59Z</time></trkpt><trkpt lat="46.04154315631375" lon="12.656275143250006"><ele>131.0</ele><time>2026-05-01T08:36:00Z</time></trkpt><trkpt lat="46.041468562866534" lon="12.656363773463106"><ele>130.8</ele><time>2026-05-01T08:36:01Z</time></trkpt><trkpt lat="46.04137563351145" lon="12.656400772394914"><ele>130.6</ele><time>2026-05-01T08:36:02Z</time></trkpt><trkpt lat="46.04127495739025" lon="12.656398886842663"><ele>130.4</ele><time>2026-05-01T08:36:03Z</time></trkpt><trkpt lat="46.041177526938505" lon="12.65635578977474"><ele>130.2</ele><time>2026-05-01T08:36:04Z</time></trkpt><trkpt lat="46.04107521102008" lon="12.656291410270015"><ele>130.0</ele><time>2026-05-01T08:36:05Z</time></trkpt><trkpt lat="46.0409581641373" lon="12.656223464774735"><ele>130.0</ele><time>2026-05-01T08:36:06Z</time></trkpt><trkpt lat="46.040834931472375" lon="12.656158048600329"><ele>130.0</ele><time>2026-05-01T08:36:07Z</time></trkpt><trkpt lat="46.04070750557538" lon="12.65609664512196"><ele>130.0</ele><time>2026-05-01T08:36:08Z</time></trkpt><trkpt lat="46.04057181613385" lon="12.656045779981202"><ele>130.0</ele><time>2026-05-01T08:36:09Z</time></trkpt><trkpt lat="46.04042294876345" lon="12.655998875599801"><ele>130.33333333333334</ele><time>2026-05-01T08:36:10Z</time></trkpt><trkpt lat="46.04027197866271" lon="12.655950197823714"><ele>130.66666666666666</ele><time>2026-05-01T08:36:11Z</time></trkpt><trkpt lat="46.04011802441296" lon="12.655902703603541"><ele>131.0</ele><time>2026-05-01T08:36:12Z</time></trkpt><trkpt lat="46.039967706095055" lon="12.655856197628221"><ele>130.5</ele><time>2026-05-01T08:36:13Z</time></trkpt><trkpt lat="46.039820774113835" lon="12.655807615085788"><ele>130.0</ele><time>2026-05-01T08:36:14Z</time></trkpt><trkpt lat="46.03967727687087" lon="12.655759042464817"><ele>129.5</ele><time>2026-05-01T08:36:15Z</time></trkpt><trkpt lat="46.03953276442336" lon="12.655712514398662"><ele>129.0</ele><time>2026-05-01T08:36:16Z</time></trkpt><trkpt lat="46.039386487478836" lon="12.655661898012902"><ele>129.0</ele><time>2026-05-01T08:36:17Z</time></trkpt><trkpt lat="46.03924361593996" lon="12.65561430682066"><ele>129.0</ele><time>2026-05-01T08:36:18Z</time></trkpt><trkpt lat="46.03910877966904" lon="12.655568345679283"><ele>129.0</ele><time>2026-05-01T08:36:19Z</time></trkpt><trkpt lat="46.03898388301339" lon="12.655524322102169"><ele>129.0</ele><time>2026-05-01T08:36:20Z</time></trkpt><trkpt lat="46.03887278060581" lon="12.655485213270818"><ele>128.75</ele><time>2026-05-01T08:36:21Z</time></trkpt><trkpt lat="46.03876398679846" lon="12.655448732988258"><ele>128.5</ele><time>2026-05-01T08:36:22Z</time></trkpt><trkpt lat="46.03865621604065" lon="12.655412883211717"><ele>128.25</ele><time>2026-05-01T08:36:23Z</time></trkpt><trkpt lat="46.038546463052185" lon="12.65537359796881"><ele>128.0</ele><time>2026-05-01T08:36:24Z</time></trkpt><trkpt lat="46.03843540466469" lon="12.65533235160024"><ele>128.0</ele><time>2026-05-01T08:36:25Z</time></trkpt><trkpt lat="46.03832662058102" lon="12.655290121911472"><ele>128.0</ele><time>2026-05-01T08:36:26Z</time></trkpt><trkpt lat="46.03822103101298" lon="12.655251758476053"><ele>128.0</ele><time>2026-05-01T08:36:27Z</time></trkpt><trkpt lat="46.03812636615801" lon="12.655220029668724"><ele>128.0</ele><time>2026-05-01T08:36:28Z</time></trkpt><trkpt lat="46.038043832527464" lon="12.655189157944088"><ele>128.0</ele><time>2026-05-01T08:36:29Z</time></trkpt><trkpt lat="46.037964621266624" lon="12.655160174960756"><ele>127.83333333333333</ele><time>2026-05-01T08:36:30Z</time></trkpt><trkpt lat="46.03788935649546" lon="12.655134666002462"><ele>127.66666666666666</ele><time>2026-05-01T08:36:31Z</time></trkpt><trkpt lat="46.03781632886573" lon="12.65511029504683"><ele>127.5</ele><time>2026-05-01T08:36:32Z</time></trkpt><trkpt lat="46.03773831155521" lon="12.65508343620455"><ele>127.33333333333334</ele><time>2026-05-01T08:36:33Z</time></trkpt><trkpt lat="46.03765825288936" lon="12.655056005795096"><ele>127.16666666666667</ele><time>2026-05-01T08:36:34Z</time></trkpt><trkpt lat="46.03757524553928" lon="12.655028521164855"><ele>127.0</ele><time>2026-05-01T08:36:35Z</time></trkpt><trkpt lat="46.03749798545648" lon="12.655003498527499"><ele>127.00000000000001</ele><time>2026-05-01T08:36:36Z</time></trkpt><trkpt lat="46.03742940803863" lon="12.654980887399905"><ele>127.0</ele><time>2026-05-01T08:36:37Z</time></trkpt><trkpt lat="46.03736580672797" lon="12.654959707617941"><ele>127.0</ele><time>2026-05-01T08:36:38Z</time></trkpt><trkpt lat="46.037300077010755" lon="12.654939343282356"><ele>127.0</ele><time>2026-05-01T08:36:39Z</time></trkpt><trkpt lat="46.0372314557422" lon="12.654918384362517"><ele>127.00000000000001</ele><time>2026-05-01T08:36:40Z</time></trkpt><trkpt lat="46.03716422030033" lon="12.654897415684786"><ele>127.0</ele><time>2026-05-01T08:36:41Z</time></trkpt><trkpt lat="46.037043845427654" lon="12.654860346774834"><ele>127.00000000000001</ele><time>2026-05-01T08:36:43Z</time></trkpt><trkpt lat="46.03694626841786" lon="12.654829307282647"><ele>127.0</ele><time>2026-05-01T08:36:45Z</time></trkpt><trkpt lat="46.03684686188987" lon="12.654794286369174"><ele>127.0</ele><time>2026-05-01T08:36:47Z</time></trkpt><trkpt lat="46.03678439118266" lon="12.654772729223454"><ele>127.0</ele><time>2026-05-01T08:36:48Z</time></trkpt><trkpt lat="46.036712366272006" lon="12.654750161665024"><ele>127.00000000000001</ele><time>2026-05-01T08:36:49Z</time></trkpt><trkpt lat="46.03663460647495" lon="12.65472213397922"><ele>127.0</ele><time>2026-05-01T08:36:50Z</time></trkpt><trkpt lat="46.036552892863455" lon="12.654690933911636"><ele>126.8</ele><time>2026-05-01T08:36:51Z</time></trkpt><trkpt lat="46.03646427730931" lon="12.654658065535441"><ele>126.6</ele><time>2026-05-01T08:36:52Z</time></trkpt><trkpt lat="46.036368280375406" lon="12.65462036937536"><ele>126.39999999999999</ele><time>2026-05-01T08:36:53Z</time></trkpt><trkpt lat="46.0362608362745" lon="12.654575441969099"><ele>126.19999999999999</ele><time>2026-05-01T08:36:54Z</time></trkpt><trkpt lat="46.03614254310279" lon="12.654528120400958"><ele>126.0</ele><time>2026-05-01T08:36:55Z</time></trkpt><trkpt lat="46.03601565403521" lon="12.654479244332704"><ele>126.25</ele><time>2026-05-01T08:36:56Z</time></trkpt><trkpt lat="46.03588822120641" lon="12.65442560054886"><ele>126.5</ele><time>2026-05-01T08:36:57Z</time></trkpt><trkpt lat="46.03575895218661" lon="12.654374343083173"><ele>126.75</ele><time>2026-05-01T08:36:58Z</time></trkpt><trkpt lat="46.03562625534307" lon="12.654320440746012"><ele>127.0</ele><time>2026-05-01T08:36:59Z</time></trkpt><trkpt lat="46.03549350541887" lon="12.654264221765514"><ele>126.5</ele><time>2026-05-01T08:37:00Z</time></trkpt><trkpt lat="46.03535906518763" lon="12.654210289898883"><ele>126.0</ele><time>2026-05-01T08:37:01Z</time></trkpt><trkpt lat="46.03522201133498" lon="12.654154945056066"><ele>125.5</ele><time>2026-05-01T08:37:02Z</time></trkpt><trkpt lat="46.03507782223085" lon="12.65409570156165"><ele>125.0</ele><time>2026-05-01T08:37:03Z</time></trkpt><trkpt lat="46.03492916559565" lon="12.6540347346353"><ele>124.33333333333333</ele><time>2026-05-01T08:37:04Z</time></trkpt><trkpt lat="46.03477604806617" lon="12.653971254387981"><ele>123.66666666666666</ele><time>2026-05-01T08:37:05Z</time></trkpt><trkpt lat="46.03462803819199" lon="12.653909779512878"><ele>123.0</ele><time>2026-05-01T08:37:06Z</time></trkpt><trkpt lat="46.0344811008255" lon="12.653849218250382"><ele>123.0</ele><time>2026-05-01T08:37:07Z</time></trkpt><trkpt lat="46.0343338314432" lon="12.65378938885241"><ele>123.0</ele><time>2026-05-01T08:37:08Z</time></trkpt><trkpt lat="46.03418802359684" lon="12.653726512818375"><ele>123.0</ele><time>2026-05-01T08:37:09Z</time></trkpt><trkpt lat="46.034044386624004" lon="12.653667132854897"><ele>122.5</ele><time>2026-05-01T08:37:10Z</time></trkpt><trkpt lat="46.03390211962261" lon="12.653610296504638"><ele>122.0</ele><time>2026-05-01T08:37:11Z</time></trkpt><trkpt lat="46.03375917269255" lon="12.653552027811502"><ele>121.5</ele><time>2026-05-01T08:37:12Z</time></trkpt><trkpt lat="46.03361378961774" lon="12.653492668551321"><ele>121.0</ele><time>2026-05-01T08:37:13Z</time></trkpt><trkpt lat="46.033465117014785" lon="12.653430576581165"><ele>121.0</ele><time>2026-05-01T08:37:14Z</time></trkpt><trkpt lat="46.03331557520821" lon="12.653368456251146"><ele>121.0</ele><time>2026-05-01T08:37:15Z</time></trkpt><trkpt lat="46.03316639310529" lon="12.653307438794668"><ele>121.0</ele><time>2026-05-01T08:37:16Z</time></trkpt><trkpt lat="46.03301789255189" lon="12.653247890589634"><ele>121.0</ele><time>2026-05-01T08:37:17Z</time></trkpt><trkpt lat="46.03287122135272" lon="12.653188550629377"><ele>121.0</ele><time>2026-05-01T08:37:18Z</time></trkpt><trkpt lat="46.03272673853485" lon="12.653129910833517"><ele>121.0</ele><time>2026-05-01T08:37:19Z</time></trkpt><trkpt lat="46.032587560721616" lon="12.653072021802117"><ele>121.0</ele><time>2026-05-01T08:37:20Z</time></trkpt><trkpt lat="46.032449370048916" lon="12.653014489239139"><ele>120.75</ele><time>2026-05-01T08:37:21Z</time></trkpt><trkpt lat="46.0323106796541" lon="12.652963304181165"><ele>120.5</ele><time>2026-05-01T08:37:22Z</time></trkpt><trkpt lat="46.03216712658509" lon="12.652921203783153"><ele>120.25</ele><time>2026-05-01T08:37:23Z</time></trkpt><trkpt lat="46.03201605787107" lon="12.652890928650907"><ele>120.0</ele><time>2026-05-01T08:37:24Z</time></trkpt><trkpt lat="46.03186240714577" lon="12.652868143356416"><ele>120.0</ele><time>2026-05-01T08:37:25Z</time></trkpt><trkpt lat="46.03170713560608" lon="12.652850053735875"><ele>120.0</ele><time>2026-05-01T08:37:26Z</time></trkpt><trkpt lat="46.031552285895145" lon="12.65283408462252"><ele>120.0</ele><time>2026-05-01T08:37:27Z</time></trkpt><trkpt lat="46.031397776139194" lon="12.652817672859046"><ele>119.66666666666666</ele><time>2026-05-01T08:37:28Z</time></trkpt><trkpt lat="46.03124158876806" lon="12.652800475809618"><ele>119.33333333333333</ele><time>2026-05-01T08:37:29Z</time></trkpt><trkpt lat="46.03108955477975" lon="12.65278580110407"><ele>119.0</ele><time>2026-05-01T08:37:29.999Z</time></trkpt><trkpt lat="46.030940279430645" lon="12.652771995233454"><ele>118.75</ele><time>2026-05-01T08:37:30.999Z</time></trkpt><trkpt lat="46.03079600905002" lon="12.652757644192569"><ele>118.5</ele><time>2026-05-01T08:37:31.999Z</time></trkpt><trkpt lat="46.03065636134361" lon="12.65274128785714"><ele>118.25</ele><time>2026-05-01T08:37:32.999Z</time></trkpt><trkpt lat="46.03051626527855" lon="12.652726059473435"><ele>118.0</ele><time>2026-05-01T08:37:33.999Z</time></trkpt><trkpt lat="46.030376655162705" lon="12.652712815327284"><ele>118.0</ele><time>2026-05-01T08:37:34.999Z</time></trkpt><trkpt lat="46.03023474605504" lon="12.652698419019718"><ele>118.0</ele><time>2026-05-01T08:37:35.999Z</time></trkpt><trkpt lat="46.03008932915198" lon="12.65268510129107"><ele>118.0</ele><time>2026-05-01T08:37:36.999Z</time></trkpt><trkpt lat="46.029938166903904" lon="12.652680398378276"><ele>118.0</ele><time>2026-05-01T08:37:37.999Z</time></trkpt><trkpt lat="46.029781127508734" lon="12.652688253317377"><ele>117.33333333333334</ele><time>2026-05-01T08:37:38.999Z</time></trkpt><trkpt lat="46.029623841999545" lon="12.652702529155082"><ele>116.66666666666666</ele><time>2026-05-01T08:37:40Z</time></trkpt><trkpt lat="46.029468653440446" lon="12.652717819688906"><ele>116.0</ele><time>2026-05-01T08:37:41Z</time></trkpt><trkpt lat="46.02931482709425" lon="12.652735234598872"><ele>116.0</ele><time>2026-05-01T08:37:42Z</time></trkpt><trkpt lat="46.02916508812409" lon="12.65275176593542"><ele>116.0</ele><time>2026-05-01T08:37:43Z</time></trkpt><trkpt lat="46.02901191824449" lon="12.652768716892128"><ele>116.0</ele><time>2026-05-01T08:37:44Z</time></trkpt><trkpt lat="46.02885270309109" lon="12.6527896841377"><ele>115.66666666666666</ele><time>2026-05-01T08:37:45Z</time></trkpt><trkpt lat="46.028689636746186" lon="12.652809040320587"><ele>115.33333333333334</ele><time>2026-05-01T08:37:46Z</time></trkpt><trkpt lat="46.028522809552385" lon="12.6528285699785"><ele>115.0</ele><time>2026-05-01T08:37:47Z</time></trkpt><trkpt lat="46.028352203664596" lon="12.65285205236266"><ele>114.66666666666667</ele><time>2026-05-01T08:37:48Z</time></trkpt><trkpt lat="46.02818376776303" lon="12.652873064186096"><ele>114.33333333333334</ele><time>2026-05-01T08:37:49Z</time></trkpt><trkpt lat="46.02801537297294" lon="12.652892047912408"><ele>114.0</ele><time>2026-05-01T08:37:50Z</time></trkpt><trkpt lat="46.02784728563569" lon="12.65290731233732"><ele>114.0</ele><time>2026-05-01T08:37:51Z</time></trkpt><trkpt lat="46.027677175205014" lon="12.65291943566968"><ele>114.0</ele><time>2026-05-01T08:37:52Z</time></trkpt><trkpt lat="46.027506959996686" lon="12.652926248240993"><ele>114.0</ele><time>2026-05-01T08:37:53Z</time></trkpt><trkpt lat="46.02733327942456" lon="12.652931602932963"><ele>114.33333333333334</ele><time>2026-05-01T08:37:54Z</time></trkpt><trkpt lat="46.027162274231515" lon="12.652937412097216"><ele>114.66666666666667</ele><time>2026-05-01T08:37:55Z</time></trkpt><trkpt lat="46.02699414063137" lon="12.652943135647325"><ele>115.0</ele><time>2026-05-01T08:37:56Z</time></trkpt><trkpt lat="46.02682868878756" lon="12.65294869060741"><ele>115.0</ele><time>2026-05-01T08:37:57Z</time></trkpt><trkpt lat="46.02666201581137" lon="12.65295196802376"><ele>115.0</ele><time>2026-05-01T08:37:58Z</time></trkpt><trkpt lat="46.02649745773886" lon="12.652955154538885"><ele>115.0</ele><time>2026-05-01T08:37:59Z</time></trkpt><trkpt lat="46.02633620637967" lon="12.652958798747262"><ele>114.0</ele><time>2026-05-01T08:38:00Z</time></trkpt><trkpt lat="46.02617489829237" lon="12.652963603229303"><ele>113.0</ele><time>2026-05-01T08:38:01Z</time></trkpt><trkpt lat="46.02601175768697" lon="12.652967521738683"><ele>112.0</ele><time>2026-05-01T08:38:02Z</time></trkpt><trkpt lat="46.02584666398456" lon="12.65296857585334"><ele>111.66666666666667</ele><time>2026-05-01T08:38:03Z</time></trkpt><trkpt lat="46.02568029999229" lon="12.652968803074343"><ele>111.33333333333334</ele><time>2026-05-01T08:38:04Z</time></trkpt><trkpt lat="46.02551383674806" lon="12.65296766841051"><ele>111.0</ele><time>2026-05-01T08:38:05Z</time></trkpt><trkpt lat="46.02534743046767" lon="12.652962999107476"><ele>111.0</ele><time>2026-05-01T08:38:06Z</time></trkpt><trkpt lat="46.025183943126905" lon="12.6529548966989"><ele>111.0</ele><time>2026-05-01T08:38:07Z</time></trkpt><trkpt lat="46.02502019397754" lon="12.652948534790681"><ele>111.0</ele><time>2026-05-01T08:38:08Z</time></trkpt><trkpt lat="46.02485600439765" lon="12.6529413050874"><ele>110.33333333333334</ele><time>2026-05-01T08:38:09Z</time></trkpt><trkpt lat="46.02468861424738" lon="12.652929996110986"><ele>109.66666666666667</ele><time>2026-05-01T08:38:10Z</time></trkpt><trkpt lat="46.02451494071404" lon="12.65291582384078"><ele>109.0</ele><time>2026-05-01T08:38:11Z</time></trkpt><trkpt lat="46.02433801057512" lon="12.652899113432733"><ele>109.0</ele><time>2026-05-01T08:38:12Z</time></trkpt><trkpt lat="46.0241528399296" lon="12.652882074607009"><ele>109.0</ele><time>2026-05-01T08:38:13Z</time></trkpt><trkpt lat="46.023966690905375" lon="12.652870381406041"><ele>109.0</ele><time>2026-05-01T08:38:14Z</time></trkpt><trkpt lat="46.02378147688504" lon="12.652861405874349"><ele>109.33333333333334</ele><time>2026-05-01T08:38:15Z</time></trkpt><trkpt lat="46.02359720555834" lon="12.652853912953281"><ele>109.66666666666666</ele><time>2026-05-01T08:38:16Z</time></trkpt><trkpt lat="46.02341282159283" lon="12.652845031996552"><ele>110.0</ele><time>2026-05-01T08:38:17Z</time></trkpt><trkpt lat="46.0232308088912" lon="12.6528379367124"><ele>109.33333333333333</ele><time>2026-05-01T08:38:18Z</time></trkpt><trkpt lat="46.02306610170254" lon="12.652831787778299"><ele>108.66666666666666</ele><time>2026-05-01T08:38:19Z</time></trkpt><trkpt lat="46.02291485715463" lon="12.65282740491741"><ele>108.0</ele><time>2026-05-01T08:38:20Z</time></trkpt><trkpt lat="46.02276462311433" lon="12.652818521021564"><ele>108.0</ele><time>2026-05-01T08:38:21Z</time></trkpt><trkpt lat="46.02261546496397" lon="12.652803827729644"><ele>108.0</ele><time>2026-05-01T08:38:22Z</time></trkpt><trkpt lat="46.02246492324638" lon="12.652787629173302"><ele>108.0</ele><time>2026-05-01T08:38:23Z</time></trkpt><trkpt lat="46.022314507974485" lon="12.652762316256586"><ele>107.33333333333334</ele><time>2026-05-01T08:38:24Z</time></trkpt><trkpt lat="46.022162688646915" lon="12.652731304721504"><ele>106.66666666666667</ele><time>2026-05-01T08:38:25Z</time></trkpt><trkpt lat="46.022011720459034" lon="12.652694372875557"><ele>106.0</ele><time>2026-05-01T08:38:26Z</time></trkpt><trkpt lat="46.02187071340266" lon="12.652645147982645"><ele>106.0</ele><time>2026-05-01T08:38:27Z</time></trkpt><trkpt lat="46.02173889516062" lon="12.652592623333623"><ele>106.0</ele><time>2026-05-01T08:38:28Z</time></trkpt><trkpt lat="46.02162758430836" lon="12.652541655071012"><ele>106.0</ele><time>2026-05-01T08:38:29Z</time></trkpt><trkpt lat="46.02153130589759" lon="12.652490967324617"><ele>106.0</ele><time>2026-05-01T08:38:30Z</time></trkpt><trkpt lat="46.02144442929143" lon="12.652442578830446"><ele>106.0</ele><time>2026-05-01T08:38:31Z</time></trkpt><trkpt lat="46.02137408145713" lon="12.652393422554958"><ele>105.83333333333334</ele><time>2026-05-01T08:38:32Z</time></trkpt><trkpt lat="46.021315417982166" lon="12.652337113790328"><ele>105.66666666666667</ele><time>2026-05-01T08:38:33Z</time></trkpt><trkpt lat="46.02126557040619" lon="12.652262057342135"><ele>105.5</ele><time>2026-05-01T08:38:34Z</time></trkpt><trkpt lat="46.02122845388509" lon="12.6521485557744"><ele>105.33333333333334</ele><time>2026-05-01T08:38:35Z</time></trkpt><trkpt lat="46.021204374215316" lon="12.652012402327173"><ele>105.16666666666667</ele><time>2026-05-01T08:38:36Z</time></trkpt><trkpt lat="46.02115800501185" lon="12.651872492864886"><ele>105.0</ele><time>2026-05-01T08:38:37Z</time></trkpt><trkpt lat="46.021077181558375" lon="12.6517570600384"><ele>104.8</ele><time>2026-05-01T08:38:38Z</time></trkpt><trkpt lat="46.02098677833919" lon="12.651689938459118"><ele>104.6</ele><time>2026-05-01T08:38:39Z</time></trkpt><trkpt lat="46.020882916164766" lon="12.651653417866097"><ele>104.4</ele><time>2026-05-01T08:38:40Z</time></trkpt><trkpt lat="46.02078374827986" lon="12.651636385004556"><ele>104.2</ele><time>2026-05-01T08:38:41Z</time></trkpt><trkpt lat="46.0206969372653" lon="12.651641477350301"><ele>104.0</ele><time>2026-05-01T08:38:42Z</time></trkpt><trkpt lat="46.02061046139885" lon="12.65148447624604"><ele>103.75</ele><time>2026-05-01T08:38:43Z</time></trkpt><trkpt lat="46.02054058562421" lon="12.651333002434637"><ele>103.5</ele><time>2026-05-01T08:38:44Z</time></trkpt><trkpt lat="46.020483819670915" lon="12.651165364648126"><ele>103.25</ele><time>2026-05-01T08:38:45Z</time></trkpt><trkpt lat="46.0204277336501" lon="12.650992176805019"><ele>103.0</ele><time>2026-05-01T08:38:46Z</time></trkpt><trkpt lat="46.020373097991595" lon="12.650813389334273"><ele>102.75</ele><time>2026-05-01T08:38:47Z</time></trkpt><trkpt lat="46.02031872651853" lon="12.650621309268434"><ele>102.5</ele><time>2026-05-01T08:38:48Z</time></trkpt><trkpt lat="46.02026600148866" lon="12.650419617130137"><ele>102.25</ele><time>2026-05-01T08:38:49Z</time></trkpt><trkpt lat="46.02021297164359" lon="12.650216646746895"><ele>102.0</ele><time>2026-05-01T08:38:50Z</time></trkpt><trkpt lat="46.02015743063474" lon="12.650017347149193"><ele>102.0</ele><time>2026-05-01T08:38:51Z</time></trkpt><trkpt lat="46.02010648593312" lon="12.649826839522554"><ele>102.0</ele><time>2026-05-01T08:38:52Z</time></trkpt><trkpt lat="46.02006291346299" lon="12.649666890634634"><ele>102.0</ele><time>2026-05-01T08:38:53Z</time></trkpt><trkpt lat="46.02001975120999" lon="12.649507895706995"><ele>102.0</ele><time>2026-05-01T08:38:54Z</time></trkpt><trkpt lat="46.01998067983613" lon="12.64936362233252"><ele>102.0</ele><time>2026-05-01T08:38:55Z</time></trkpt><trkpt lat="46.01994237200726" lon="12.649222312203992"><ele>102.0</ele><time>2026-05-01T08:38:56Z</time></trkpt><trkpt lat="46.0198998131959" lon="12.649067731047229"><ele>102.0</ele><time>2026-05-01T08:38:57Z</time></trkpt><trkpt lat="46.01985357496423" lon="12.648894739761069"><ele>102.0</ele><time>2026-05-01T08:38:58Z</time></trkpt><trkpt lat="46.01980506735546" lon="12.648717633610476"><ele>102.0</ele><time>2026-05-01T08:38:59Z</time></trkpt><trkpt lat="46.019755805986065" lon="12.648542806382837"><ele>102.0</ele><time>2026-05-01T08:39:00Z</time></trkpt><trkpt lat="46.0197049925086" lon="12.648361517526006"><ele>102.0</ele><time>2026-05-01T08:39:01Z</time></trkpt><trkpt lat="46.01965342196189" lon="12.64817159510293"><ele>102.0</ele><time>2026-05-01T08:39:02Z</time></trkpt><trkpt lat="46.01959885451091" lon="12.64797705774467"><ele>102.0</ele><time>2026-05-01T08:39:03Z</time></trkpt><trkpt lat="46.0195443489178" lon="12.64777827224807"><ele>102.0</ele><time>2026-05-01T08:39:04Z</time></trkpt><trkpt lat="46.01948734178748" lon="12.647572027974347"><ele>102.0</ele><time>2026-05-01T08:39:05Z</time></trkpt><trkpt lat="46.01943218846351" lon="12.647367618666973"><ele>102.0</ele><time>2026-05-01T08:39:06Z</time></trkpt><trkpt lat="46.01937883682118" lon="12.647170204775527"><ele>102.0</ele><time>2026-05-01T08:39:07Z</time></trkpt><trkpt lat="46.0193228909542" lon="12.64697107662813"><ele>102.0</ele><time>2026-05-01T08:39:08Z</time></trkpt><trkpt lat="46.019267637592584" lon="12.646770508553907"><ele>102.0</ele><time>2026-05-01T08:39:09Z</time></trkpt><trkpt lat="46.01921302033356" lon="12.646567278066685"><ele>101.66666666666666</ele><time>2026-05-01T08:39:10Z</time></trkpt><trkpt lat="46.0191563993661" lon="12.646358650150681"><ele>101.33333333333333</ele><time>2026-05-01T08:39:11Z</time></trkpt><trkpt lat="46.019097630212705" lon="12.646149210288554"><ele>101.0</ele><time>2026-05-01T08:39:12Z</time></trkpt><trkpt lat="46.01903893382676" lon="12.645940377219782"><ele>102.0</ele><time>2026-05-01T08:39:13Z</time></trkpt><trkpt lat="46.018981180085994" lon="12.645731074776453"><ele>103.0</ele><time>2026-05-01T08:39:14Z</time></trkpt><trkpt lat="46.01892170880629" lon="12.645516733281013"><ele>104.0</ele><time>2026-05-01T08:39:15Z</time></trkpt><trkpt lat="46.01886030736677" lon="12.645296190566325"><ele>103.66666666666666</ele><time>2026-05-01T08:39:16Z</time></trkpt><trkpt lat="46.018796803397144" lon="12.645067824291672"><ele>103.33333333333334</ele><time>2026-05-01T08:39:17Z</time></trkpt><trkpt lat="46.01873381864752" lon="12.644841866705153"><ele>103.0</ele><time>2026-05-01T08:39:18Z</time></trkpt><trkpt lat="46.01866774723216" lon="12.644615361952631"><ele>102.66666666666667</ele><time>2026-05-01T08:39:19Z</time></trkpt><trkpt lat="46.01859735393007" lon="12.644387364936957"><ele>102.33333333333334</ele><time>2026-05-01T08:39:20Z</time></trkpt><trkpt lat="46.01852488368302" lon="12.644158145191025"><ele>102.0</ele><time>2026-05-01T08:39:21Z</time></trkpt><trkpt lat="46.018450865281025" lon="12.64392510908679"><ele>102.0</ele><time>2026-05-01T08:39:22Z</time></trkpt><trkpt lat="46.01837440554504" lon="12.643690835044756"><ele>102.0</ele><time>2026-05-01T08:39:23Z</time></trkpt><trkpt lat="46.018297533210294" lon="12.643457105941302"><ele>102.0</ele><time>2026-05-01T08:39:24Z</time></trkpt><trkpt lat="46.01822075339494" lon="12.643228894377353"><ele>101.66666666666666</ele><time>2026-05-01T08:39:25Z</time></trkpt><trkpt lat="46.018142480353944" lon="12.643001460718157"><ele>101.33333333333333</ele><time>2026-05-01T08:39:26Z</time></trkpt><trkpt lat="46.01806547272985" lon="12.64277573043175"><ele>101.0</ele><time>2026-05-01T08:39:27Z</time></trkpt><trkpt lat="46.017988225080394" lon="12.64254924759138"><ele>101.0</ele><time>2026-05-01T08:39:28Z</time></trkpt><trkpt lat="46.017911554792356" lon="12.642325546009113"><ele>101.0</ele><time>2026-05-01T08:39:29Z</time></trkpt><trkpt lat="46.017834981787345" lon="12.642103228256483"><ele>101.0</ele><time>2026-05-01T08:39:29.999Z</time></trkpt><trkpt lat="46.01775951823224" lon="12.641883518912298"><ele>101.0</ele><time>2026-05-01T08:39:30.999Z</time></trkpt><trkpt lat="46.017685699373885" lon="12.64166642474024"><ele>101.0</ele><time>2026-05-01T08:39:31.999Z</time></trkpt><trkpt lat="46.017613049965455" lon="12.641456064506157"><ele>101.0</ele><time>2026-05-01T08:39:32.999Z</time></trkpt><trkpt lat="46.017542369146675" lon="12.641250006815673"><ele>101.0</ele><time>2026-05-01T08:39:33.999Z</time></trkpt><trkpt lat="46.017472106064055" lon="12.641046539896164"><ele>101.0</ele><time>2026-05-01T08:39:34.999Z</time></trkpt><trkpt lat="46.017401487699246" lon="12.640844123413839"><ele>101.0</ele><time>2026-05-01T08:39:35.999Z</time></trkpt><trkpt lat="46.01732912401399" lon="12.64063396085347"><ele>101.0</ele><time>2026-05-01T08:39:36.999Z</time></trkpt><trkpt lat="46.0172566347272" lon="12.640421116459406"><ele>101.0</ele><time>2026-05-01T08:39:37.999Z</time></trkpt><trkpt lat="46.01718403959655" lon="12.640205205008105"><ele>101.0</ele><time>2026-05-01T08:39:38.999Z</time></trkpt><trkpt lat="46.01711001380595" lon="12.639989784340779"><ele>101.0</ele><time>2026-05-01T08:39:39.999Z</time></trkpt><trkpt lat="46.01703455283468" lon="12.639772760129658"><ele>101.0</ele><time>2026-05-01T08:39:40.999Z</time></trkpt><trkpt lat="46.016956133976194" lon="12.639548961945989"><ele>101.0</ele><time>2026-05-01T08:39:41.999Z</time></trkpt><trkpt lat="46.01687525094742" lon="12.639323164701672"><ele>101.0</ele><time>2026-05-01T08:39:42.999Z</time></trkpt><trkpt lat="46.01679412282838" lon="12.639086070520575"><ele>101.0</ele><time>2026-05-01T08:39:43.999Z</time></trkpt><trkpt lat="46.01671256215579" lon="12.638846829986703"><ele>101.0</ele><time>2026-05-01T08:39:44.999Z</time></trkpt><trkpt lat="46.016628332188525" lon="12.638605150159501"><ele>100.33333333333333</ele><time>2026-05-01T08:39:46Z</time></trkpt><trkpt lat="46.016542699242315" lon="12.638359227587227"><ele>99.66666666666666</ele><time>2026-05-01T08:39:47Z</time></trkpt><trkpt lat="46.016457103837006" lon="12.638110046401861"><ele>99.0</ele><time>2026-05-01T08:39:48Z</time></trkpt><trkpt lat="46.01637168871005" lon="12.637858935507532"><ele>99.33333333333334</ele><time>2026-05-01T08:39:49Z</time></trkpt><trkpt lat="46.01628534350781" lon="12.63760709310469"><ele>99.66666666666667</ele><time>2026-05-01T08:39:50Z</time></trkpt><trkpt lat="46.01619618214402" lon="12.637356635196282"><ele>100.0</ele><time>2026-05-01T08:39:51Z</time></trkpt><trkpt lat="46.01610966884363" lon="12.637109271239343"><ele>99.66666666666667</ele><time>2026-05-01T08:39:52Z</time></trkpt><trkpt lat="46.01602314770254" lon="12.636860722015502"><ele>99.33333333333334</ele><time>2026-05-01T08:39:53Z</time></trkpt><trkpt lat="46.015935848989486" lon="12.636614680106431"><ele>99.0</ele><time>2026-05-01T08:39:54Z</time></trkpt><trkpt lat="46.01584428148868" lon="12.636367433900563"><ele>98.33333333333334</ele><time>2026-05-01T08:39:55Z</time></trkpt><trkpt lat="46.015756776093205" lon="12.636111295706234"><ele>97.66666666666667</ele><time>2026-05-01T08:39:56Z</time></trkpt><trkpt lat="46.01566974059557" lon="12.635854673629407"><ele>97.0</ele><time>2026-05-01T08:39:57Z</time></trkpt><trkpt lat="46.01558429433515" lon="12.635605750447235"><ele>97.0</ele><time>2026-05-01T08:39:58Z</time></trkpt><trkpt lat="46.01549758495556" lon="12.63535643322885"><ele>97.0</ele><time>2026-05-01T08:39:59Z</time></trkpt><trkpt lat="46.01541169109201" lon="12.635107461660539"><ele>97.0</ele><time>2026-05-01T08:40:00Z</time></trkpt><trkpt lat="46.015328000355765" lon="12.634860756880919"><ele>97.33333333333334</ele><time>2026-05-01T08:40:01Z</time></trkpt><trkpt lat="46.015244530945154" lon="12.634617241072238"><ele>97.66666666666666</ele><time>2026-05-01T08:40:02Z</time></trkpt><trkpt lat="46.01516066321516" lon="12.634377308170569"><ele>98.0</ele><time>2026-05-01T08:40:03Z</time></trkpt><trkpt lat="46.01507934012745" lon="12.6341416172433"><ele>98.33333333333333</ele><time>2026-05-01T08:40:04Z</time></trkpt><trkpt lat="46.01499979015414" lon="12.63391031562955"><ele>98.66666666666666</ele><time>2026-05-01T08:40:05Z</time></trkpt><trkpt lat="46.014920858400814" lon="12.63368076703938"><ele>99.0</ele><time>2026-05-01T08:40:06Z</time></trkpt><trkpt lat="46.014842902541474" lon="12.633452928406129"><ele>98.33333333333334</ele><time>2026-05-01T08:40:07Z</time></trkpt><trkpt lat="46.01476570753485" lon="12.633225593726308"><ele>97.66666666666667</ele><time>2026-05-01T08:40:08Z</time></trkpt><trkpt lat="46.01469261870854" lon="12.632999557680687"><ele>97.0</ele><time>2026-05-01T08:40:09Z</time></trkpt><trkpt lat="46.01462722646926" lon="12.632781464524273"><ele>97.0</ele><time>2026-05-01T08:40:10Z</time></trkpt><trkpt lat="46.014564968940185" lon="12.632567635437846"><ele>97.0</ele><time>2026-05-01T08:40:11Z</time></trkpt><trkpt lat="46.01450267192146" lon="12.632355094741486"><ele>97.0</ele><time>2026-05-01T08:40:12Z</time></trkpt><trkpt lat="46.014440548371866" lon="12.632143971271699"><ele>97.66666666666667</ele><time>2026-05-01T08:40:13Z</time></trkpt><trkpt lat="46.01438207061952" lon="12.631934469508625"><ele>98.33333333333334</ele><time>2026-05-01T08:40:14Z</time></trkpt><trkpt lat="46.01432089786205" lon="12.631719910938319"><ele>99.0</ele><time>2026-05-01T08:40:15Z</time></trkpt><trkpt lat="46.01425911473579" lon="12.631504041243746"><ele>99.0</ele><time>2026-05-01T08:40:16Z</time></trkpt><trkpt lat="46.01419672644239" lon="12.6312873286562"><ele>99.0</ele><time>2026-05-01T08:40:17Z</time></trkpt><trkpt lat="46.01413262282519" lon="12.631066667971613"><ele>99.0</ele><time>2026-05-01T08:40:18Z</time></trkpt><trkpt lat="46.01406533080276" lon="12.63083675105621"><ele>98.66666666666666</ele><time>2026-05-01T08:40:19Z</time></trkpt><trkpt lat="46.01399745586157" lon="12.630597988423583"><ele>98.33333333333333</ele><time>2026-05-01T08:40:20Z</time></trkpt><trkpt lat="46.0139284738621" lon="12.630354777942916"><ele>98.0</ele><time>2026-05-01T08:40:21Z</time></trkpt><trkpt lat="46.01385591793065" lon="12.630102379761064"><ele>98.0</ele><time>2026-05-01T08:40:22Z</time></trkpt><trkpt lat="46.01378090507504" lon="12.62984095386882"><ele>98.0</ele><time>2026-05-01T08:40:23Z</time></trkpt><trkpt lat="46.01370323519891" lon="12.629574205826552"><ele>98.0</ele><time>2026-05-01T08:40:24Z</time></trkpt><trkpt lat="46.01362476945178" lon="12.629302972982574"><ele>98.66666666666666</ele><time>2026-05-01T08:40:25Z</time></trkpt><trkpt lat="46.01354576942563" lon="12.629031714666965"><ele>99.33333333333334</ele><time>2026-05-01T08:40:26Z</time></trkpt><trkpt lat="46.01346555315582" lon="12.628759811224867"><ele>100.0</ele><time>2026-05-01T08:40:27Z</time></trkpt><trkpt lat="46.0133864317017" lon="12.628489628785873"><ele>99.33333333333334</ele><time>2026-05-01T08:40:28Z</time></trkpt><trkpt lat="46.01331371570657" lon="12.62821732197994"><ele>98.66666666666666</ele><time>2026-05-01T08:40:29Z</time></trkpt><trkpt lat="46.01324919610308" lon="12.627939160248973"><ele>98.0</ele><time>2026-05-01T08:40:30Z</time></trkpt><trkpt lat="46.013205616032025" lon="12.627654806098127"><ele>98.0</ele><time>2026-05-01T08:40:31Z</time></trkpt><trkpt lat="46.01318809784277" lon="12.627367355633664"><ele>98.0</ele><time>2026-05-01T08:40:32Z</time></trkpt><trkpt lat="46.013183748053635" lon="12.627075965146052"><ele>98.0</ele><time>2026-05-01T08:40:33Z</time></trkpt><trkpt lat="46.013188580694845" lon="12.626779680893279"><ele>98.33333333333333</ele><time>2026-05-01T08:40:34Z</time></trkpt><trkpt lat="46.013198799675365" lon="12.626485730104838"><ele>98.66666666666666</ele><time>2026-05-01T08:40:35Z</time></trkpt><trkpt lat="46.01320919782342" lon="12.626202855567149"><ele>99.0</ele><time>2026-05-01T08:40:36Z</time></trkpt><trkpt lat="46.01321605425836" lon="12.625949392915189"><ele>99.0</ele><time>2026-05-01T08:40:37Z</time></trkpt><trkpt lat="46.01322269291897" lon="12.625715078204"><ele>99.0</ele><time>2026-05-01T08:40:38Z</time></trkpt><trkpt lat="46.01322937677763" lon="12.625496975639711"><ele>99.0</ele><time>2026-05-01T08:40:39Z</time></trkpt><trkpt lat="46.0132348341282" lon="12.62527830015807"><ele>99.25</ele><time>2026-05-01T08:40:40Z</time></trkpt><trkpt lat="46.01324245591951" lon="12.625068077060337"><ele>99.5</ele><time>2026-05-01T08:40:41Z</time></trkpt><trkpt lat="46.013250640432645" lon="12.624875490229817"><ele>99.75</ele><time>2026-05-01T08:40:42Z</time></trkpt><trkpt lat="46.01325565280297" lon="12.624700503351493"><ele>100.0</ele><time>2026-05-01T08:40:43Z</time></trkpt><trkpt lat="46.01326072772062" lon="12.624532414405818"><ele>99.83333333333334</ele><time>2026-05-01T08:40:44Z</time></trkpt><trkpt lat="46.01326745929077" lon="12.624381848570309"><ele>99.66666666666667</ele><time>2026-05-01T08:40:45Z</time></trkpt><trkpt lat="46.01327281829897" lon="12.62423701139373"><ele>99.5</ele><time>2026-05-01T08:40:46Z</time></trkpt><trkpt lat="46.01327602185182" lon="12.624116169590181"><ele>99.33333333333334</ele><time>2026-05-01T08:40:47Z</time></trkpt><trkpt lat="46.01328377793116" lon="12.624008431744032"><ele>99.16666666666667</ele><time>2026-05-01T08:40:48Z</time></trkpt><trkpt lat="46.01329382149743" lon="12.623918464127215"><ele>99.0</ele><time>2026-05-01T08:40:49Z</time></trkpt><trkpt lat="46.013312215282845" lon="12.623807090420978"><ele>99.0</ele><time>2026-05-01T08:40:51Z</time></trkpt><trkpt lat="46.01332663946962" lon="12.623710187305544"><ele>99.0</ele><time>2026-05-01T08:40:59Z</time></trkpt><trkpt lat="46.01334292935954" lon="12.623613996271041"><ele>99.0</ele><time>2026-05-01T08:41:01Z</time></trkpt><trkpt lat="46.0134195672735" lon="12.623469399433688"><ele>99.0</ele><time>2026-05-01T08:41:03Z</time></trkpt><trkpt lat="46.01349279964359" lon="12.62339632406106"><ele>99.0</ele><time>2026-05-01T08:41:04Z</time></trkpt><trkpt lat="46.013575577258734" lon="12.623346160167424"><ele>99.0</ele><time>2026-05-01T08:41:05Z</time></trkpt><trkpt lat="46.0136657627116" lon="12.623314658717627"><ele>99.2</ele><time>2026-05-01T08:41:06Z</time></trkpt><trkpt lat="46.013755924951354" lon="12.623277689396042"><ele>99.4</ele><time>2026-05-01T08:41:07Z</time></trkpt><trkpt lat="46.013862885452696" lon="12.623233017341112"><ele>99.6</ele><time>2026-05-01T08:41:08Z</time></trkpt><trkpt lat="46.01398497466609" lon="12.623186825293647"><ele>99.8</ele><time>2026-05-01T08:41:09Z</time></trkpt><trkpt lat="46.01409831353247" lon="12.623140486058187"><ele>100.0</ele><time>2026-05-01T08:41:10Z</time></trkpt><trkpt lat="46.014215951638356" lon="12.62309299715848"><ele>100.25</ele><time>2026-05-01T08:41:11Z</time></trkpt><trkpt lat="46.01433582046951" lon="12.62304666848774"><ele>100.5</ele><time>2026-05-01T08:41:12Z</time></trkpt><trkpt lat="46.01446476728586" lon="12.622997355604511"><ele>100.75</ele><time>2026-05-01T08:41:13Z</time></trkpt><trkpt lat="46.014595050119226" lon="12.622948703419691"><ele>101.0</ele><time>2026-05-01T08:41:14Z</time></trkpt><trkpt lat="46.01472118902615" lon="12.622899743141016"><ele>101.0</ele><time>2026-05-01T08:41:15Z</time></trkpt><trkpt lat="46.01484773902839" lon="12.622853189352268"><ele>101.0</ele><time>2026-05-01T08:41:16Z</time></trkpt><trkpt lat="46.01497478686743" lon="12.622806732078361"><ele>101.0</ele><time>2026-05-01T08:41:17Z</time></trkpt><trkpt lat="46.015108632872504" lon="12.622757391329701"><ele>101.0</ele><time>2026-05-01T08:41:18Z</time></trkpt><trkpt lat="46.01526192186139" lon="12.622703916123195"><ele>101.5</ele><time>2026-05-01T08:41:19Z</time></trkpt><trkpt lat="46.015469762797146" lon="12.622615749230444"><ele>102.0</ele><time>2026-05-01T08:41:20Z</time></trkpt><trkpt lat="46.01570895302363" lon="12.622538588390347"><ele>102.33333333333334</ele><time>2026-05-01T08:41:21Z</time></trkpt><trkpt lat="46.01591838248401" lon="12.622466270267148"><ele>102.66666666666667</ele><time>2026-05-01T08:41:22Z</time></trkpt><trkpt lat="46.01609759390644" lon="12.622398877302105"><ele>103.0</ele><time>2026-05-01T08:41:23Z</time></trkpt><trkpt lat="46.01625151352711" lon="12.622341191434055"><ele>103.0</ele><time>2026-05-01T08:41:24Z</time></trkpt><trkpt lat="46.0163952461323" lon="12.622290937039466"><ele>103.0</ele><time>2026-05-01T08:41:25Z</time></trkpt><trkpt lat="46.01653446178478" lon="12.62224300095229"><ele>103.0</ele><time>2026-05-01T08:41:26Z</time></trkpt><trkpt lat="46.01667904036391" lon="12.6221887764726"><ele>103.0</ele><time>2026-05-01T08:41:27Z</time></trkpt><trkpt lat="46.01683095305437" lon="12.622132674460724"><ele>103.75</ele><time>2026-05-01T08:41:28Z</time></trkpt><trkpt lat="46.016978155011024" lon="12.622084820877653"><ele>104.5</ele><time>2026-05-01T08:41:29Z</time></trkpt><trkpt lat="46.01711810581646" lon="12.622042036971965"><ele>105.25</ele><time>2026-05-01T08:41:30Z</time></trkpt><trkpt lat="46.017253910837574" lon="12.622001537380104"><ele>106.0</ele><time>2026-05-01T08:41:31Z</time></trkpt><trkpt lat="46.01739429114459" lon="12.62196397289664"><ele>105.33333333333334</ele><time>2026-05-01T08:41:32Z</time></trkpt><trkpt lat="46.017540188072495" lon="12.621921582681807"><ele>104.66666666666666</ele><time>2026-05-01T08:41:33Z</time></trkpt><trkpt lat="46.01769431200442" lon="12.621883669275649"><ele>104.0</ele><time>2026-05-01T08:41:33.999Z</time></trkpt><trkpt lat="46.017851065253616" lon="12.621858207543143"><ele>104.0</ele><time>2026-05-01T08:41:34.999Z</time></trkpt><trkpt lat="46.01801298992347" lon="12.621835331467372"><ele>104.0</ele><time>2026-05-01T08:41:35.999Z</time></trkpt><trkpt lat="46.018169429333575" lon="12.621817151766795"><ele>104.0</ele><time>2026-05-01T08:41:36.999Z</time></trkpt><trkpt lat="46.01832622596356" lon="12.621798194142439"><ele>105.0</ele><time>2026-05-01T08:41:37.999Z</time></trkpt><trkpt lat="46.01848277661421" lon="12.621775886284016"><ele>106.0</ele><time>2026-05-01T08:41:38.999Z</time></trkpt><trkpt lat="46.01863907509635" lon="12.62175610690227"><ele>107.0</ele><time>2026-05-01T08:41:39.999Z</time></trkpt><trkpt lat="46.01878930616425" lon="12.62173711431115"><ele>107.0</ele><time>2026-05-01T08:41:40.999Z</time></trkpt><trkpt lat="46.01893471102998" lon="12.621717140428565"><ele>107.0</ele><time>2026-05-01T08:41:41.999Z</time></trkpt><trkpt lat="46.01907938513595" lon="12.621695749642685"><ele>107.0</ele><time>2026-05-01T08:41:42.999Z</time></trkpt><trkpt lat="46.01922111278349" lon="12.621673451654663"><ele>107.0</ele><time>2026-05-01T08:41:43.999Z</time></trkpt><trkpt lat="46.01936388945357" lon="12.621659184071271"><ele>107.5</ele><time>2026-05-01T08:41:44.999Z</time></trkpt><trkpt lat="46.01950906826041" lon="12.621639853333756"><ele>108.0</ele><time>2026-05-01T08:41:45.999Z</time></trkpt><trkpt lat="46.019656889657035" lon="12.621622891673617"><ele>108.5</ele><time>2026-05-01T08:41:46.999Z</time></trkpt><trkpt lat="46.019800862052534" lon="12.621605597397346"><ele>109.0</ele><time>2026-05-01T08:41:47.999Z</time></trkpt><trkpt lat="46.01994916380696" lon="12.621586202892095"><ele>108.0</ele><time>2026-05-01T08:41:48.999Z</time></trkpt><trkpt lat="46.02009549101705" lon="12.621568973950229"><ele>107.0</ele><time>2026-05-01T08:41:49.999Z</time></trkpt><trkpt lat="46.02024319390404" lon="12.621551570710633"><ele>106.0</ele><time>2026-05-01T08:41:50.999Z</time></trkpt><trkpt lat="46.02039984977793" lon="12.621528383751635"><ele>106.0</ele><time>2026-05-01T08:41:52Z</time></trkpt><trkpt lat="46.02056234882161" lon="12.62150706281081"><ele>106.0</ele><time>2026-05-01T08:41:53Z</time></trkpt><trkpt lat="46.020729545031365" lon="12.621484280777382"><ele>106.0</ele><time>2026-05-01T08:41:54Z</time></trkpt><trkpt lat="46.020901438043545" lon="12.621461317073342"><ele>107.33333333333334</ele><time>2026-05-01T08:41:55Z</time></trkpt><trkpt lat="46.02107973989418" lon="12.621436740621492"><ele>108.66666666666666</ele><time>2026-05-01T08:41:56Z</time></trkpt><trkpt lat="46.02126060993763" lon="12.62140418692716"><ele>110.0</ele><time>2026-05-01T08:41:57Z</time></trkpt><trkpt lat="46.02144239929963" lon="12.621362752845979"><ele>110.0</ele><time>2026-05-01T08:41:58Z</time></trkpt><trkpt lat="46.02162266483486" lon="12.621319205149142"><ele>110.0</ele><time>2026-05-01T08:41:59Z</time></trkpt><trkpt lat="46.021801596014996" lon="12.621270904370663"><ele>110.0</ele><time>2026-05-01T08:42:00Z</time></trkpt><trkpt lat="46.02197634918678" lon="12.621219656510753"><ele>110.33333333333333</ele><time>2026-05-01T08:42:01Z</time></trkpt><trkpt lat="46.022146832003806" lon="12.621163630308972"><ele>110.66666666666666</ele><time>2026-05-01T08:42:02Z</time></trkpt><trkpt lat="46.02231259290734" lon="12.621099930426146"><ele>111.0</ele><time>2026-05-01T08:42:03Z</time></trkpt><trkpt lat="46.02247292833281" lon="12.62103359662819"><ele>111.0</ele><time>2026-05-01T08:42:04Z</time></trkpt><trkpt lat="46.0226314769686" lon="12.620964964961086"><ele>111.0</ele><time>2026-05-01T08:42:05Z</time></trkpt><trkpt lat="46.022780726997325" lon="12.620900302395597"><ele>111.0</ele><time>2026-05-01T08:42:06Z</time></trkpt><trkpt lat="46.02291310686095" lon="12.62084089004467"><ele>111.0</ele><time>2026-05-01T08:42:07Z</time></trkpt><trkpt lat="46.02304208454704" lon="12.620777810029612"><ele>111.0</ele><time>2026-05-01T08:42:08Z</time></trkpt><trkpt lat="46.023174812770854" lon="12.620716520869427"><ele>111.0</ele><time>2026-05-01T08:42:09Z</time></trkpt><trkpt lat="46.02331209590524" lon="12.620654150224142"><ele>111.0</ele><time>2026-05-01T08:42:10Z</time></trkpt><trkpt lat="46.02345523228232" lon="12.62059561509369"><ele>111.66666666666666</ele><time>2026-05-01T08:42:11Z</time></trkpt><trkpt lat="46.02360300484169" lon="12.620534869694149"><ele>112.33333333333333</ele><time>2026-05-01T08:42:12Z</time></trkpt><trkpt lat="46.023755005603164" lon="12.620471869883382"><ele>113.0</ele><time>2026-05-01T08:42:13Z</time></trkpt><trkpt lat="46.02391661733852" lon="12.620403223812568"><ele>113.0</ele><time>2026-05-01T08:42:14Z</time></trkpt><trkpt lat="46.024083296490794" lon="12.620340975720914"><ele>113.0</ele><time>2026-05-01T08:42:15Z</time></trkpt><trkpt lat="46.02425298500617" lon="12.62028446902673"><ele>113.0</ele><time>2026-05-01T08:42:16Z</time></trkpt><trkpt lat="46.024405844437545" lon="12.620245384152556"><ele>112.25</ele><time>2026-05-01T08:42:17Z</time></trkpt><trkpt lat="46.02454398793798" lon="12.620207168443262"><ele>111.5</ele><time>2026-05-01T08:42:18Z</time></trkpt><trkpt lat="46.02466848854002" lon="12.620197238115212"><ele>110.75</ele><time>2026-05-01T08:42:19Z</time></trkpt><trkpt lat="46.024773606129195" lon="12.62017437419725"><ele>110.0</ele><time>2026-05-01T08:42:20Z</time></trkpt><trkpt lat="46.0248717046639" lon="12.620156512145694"><ele>109.99999999999999</ele><time>2026-05-01T08:42:21Z</time></trkpt><trkpt lat="46.02495551008433" lon="12.620142018184012"><ele>110.0</ele><time>2026-05-01T08:42:22Z</time></trkpt><trkpt lat="46.02503097626167" lon="12.620129957936657"><ele>110.0</ele><time>2026-05-01T08:42:23Z</time></trkpt><trkpt lat="46.025101003922266" lon="12.620119959880501"><ele>110.0</ele><time>2026-05-01T08:42:24Z</time></trkpt><trkpt lat="46.02521856368461" lon="12.620103175708808"><ele>109.99999999999999</ele><time>2026-05-01T08:42:26Z</time></trkpt><trkpt lat="46.025287471113934" lon="12.620079951317049"><ele>110.0</ele><time>2026-05-01T08:42:28Z</time></trkpt><trkpt lat="46.02528366476559" lon="12.619847755107006"><ele>110.33333333333333</ele><time>2026-05-01T08:42:29Z</time></trkpt><trkpt lat="46.025258707575084" lon="12.619742599958029"><ele>110.66666666666666</ele><time>2026-05-01T08:42:30Z</time></trkpt><trkpt lat="46.02521512938045" lon="12.619646335111991"><ele>111.0</ele><time>2026-05-01T08:42:31Z</time></trkpt><trkpt lat="46.02516720834789" lon="12.619554250422024"><ele>111.33333333333334</ele><time>2026-05-01T08:42:32Z</time></trkpt><trkpt lat="46.0251210557527" lon="12.61946746355923"><ele>111.66666666666667</ele><time>2026-05-01T08:42:33Z</time></trkpt><trkpt lat="46.025080342964586" lon="12.619389158100121"><ele>112.0</ele><time>2026-05-01T08:42:34Z</time></trkpt><trkpt lat="46.02503675056156" lon="12.619302943580267"><ele>112.00000000000001</ele><time>2026-05-01T08:42:35Z</time></trkpt><trkpt lat="46.02498921832754" lon="12.619212459346063"><ele>112.0</ele><time>2026-05-01T08:42:36Z</time></trkpt><trkpt lat="46.02494400084105" lon="12.619120203135672"><ele>112.0</ele><time>2026-05-01T08:42:37Z</time></trkpt><trkpt lat="46.0248981325377" lon="12.61902320296431"><ele>112.0</ele><time>2026-05-01T08:42:38Z</time></trkpt><trkpt lat="46.024849089049" lon="12.618926137875635"><ele>112.00000000000001</ele><time>2026-05-01T08:42:39Z</time></trkpt><trkpt lat="46.024794871515944" lon="12.618821574010834"><ele>112.0</ele><time>2026-05-01T08:42:40Z</time></trkpt><trkpt lat="46.024739898283165" lon="12.618707251778346"><ele>111.75</ele><time>2026-05-01T08:42:41Z</time></trkpt><trkpt lat="46.0246805967315" lon="12.618584135996306"><ele>111.5</ele><time>2026-05-01T08:42:42Z</time></trkpt><trkpt lat="46.02461755704754" lon="12.618449345690793"><ele>111.25</ele><time>2026-05-01T08:42:43Z</time></trkpt><trkpt lat="46.024547256266224" lon="12.618309804162871"><ele>111.0</ele><time>2026-05-01T08:42:44Z</time></trkpt><trkpt lat="46.02447533764557" lon="12.618166632592848"><ele>111.0</ele><time>2026-05-01T08:42:45Z</time></trkpt><trkpt lat="46.02440435296052" lon="12.618019043216208"><ele>111.0</ele><time>2026-05-01T08:42:46Z</time></trkpt><trkpt lat="46.0243306421868" lon="12.61787064376924"><ele>111.0</ele><time>2026-05-01T08:42:47Z</time></trkpt><trkpt lat="46.02425889732058" lon="12.617708009782854"><ele>111.0</ele><time>2026-05-01T08:42:48Z</time></trkpt><trkpt lat="46.024193490596964" lon="12.617541721316472"><ele>110.75</ele><time>2026-05-01T08:42:49Z</time></trkpt><trkpt lat="46.02413170944764" lon="12.617371433497285"><ele>110.5</ele><time>2026-05-01T08:42:50Z</time></trkpt><trkpt lat="46.02407488804505" lon="12.61719477582811"><ele>110.25</ele><time>2026-05-01T08:42:51Z</time></trkpt><trkpt lat="46.024018213342245" lon="12.617015840590376"><ele>110.0</ele><time>2026-05-01T08:42:52Z</time></trkpt><trkpt lat="46.02395985496481" lon="12.616837699398154"><ele>110.0</ele><time>2026-05-01T08:42:53Z</time></trkpt><trkpt lat="46.023898958548" lon="12.616657698169767"><ele>110.0</ele><time>2026-05-01T08:42:54Z</time></trkpt><trkpt lat="46.0238371795334" lon="12.616476614984894"><ele>110.0</ele><time>2026-05-01T08:42:55Z</time></trkpt><trkpt lat="46.02377431396002" lon="12.616281047261708"><ele>110.0</ele><time>2026-05-01T08:42:56Z</time></trkpt><trkpt lat="46.023710246616865" lon="12.616085653826978"><ele>110.25</ele><time>2026-05-01T08:42:57Z</time></trkpt><trkpt lat="46.023642284216464" lon="12.615901774033237"><ele>110.5</ele><time>2026-05-01T08:42:58Z</time></trkpt><trkpt lat="46.02356344585672" lon="12.615722686134374"><ele>110.75</ele><time>2026-05-01T08:42:59Z</time></trkpt><trkpt lat="46.023469692922326" lon="12.615551718074293"><ele>111.0</ele><time>2026-05-01T08:43:00Z</time></trkpt><trkpt lat="46.023363999081724" lon="12.615388031913447"><ele>110.33333333333334</ele><time>2026-05-01T08:43:01Z</time></trkpt><trkpt lat="46.02324568240447" lon="12.615233390642496"><ele>109.66666666666667</ele><time>2026-05-01T08:43:02Z</time></trkpt><trkpt lat="46.02311087578684" lon="12.61508373275161"><ele>109.0</ele><time>2026-05-01T08:43:03Z</time></trkpt><trkpt lat="46.022959308048094" lon="12.614949244025926"><ele>109.0</ele><time>2026-05-01T08:43:04Z</time></trkpt><trkpt lat="46.022793069013254" lon="12.614820923682773"><ele>109.0</ele><time>2026-05-01T08:43:05Z</time></trkpt><trkpt lat="46.02262637106353" lon="12.614658200086405"><ele>109.0</ele><time>2026-05-01T08:43:06Z</time></trkpt><trkpt lat="46.02244717292273" lon="12.614511942327505"><ele>108.33333333333334</ele><time>2026-05-01T08:43:07Z</time></trkpt><trkpt lat="46.0222913803101" lon="12.61438478765929"><ele>107.66666666666666</ele><time>2026-05-01T08:43:08Z</time></trkpt><trkpt lat="46.02211275580473" lon="12.614263431615859"><ele>107.0</ele><time>2026-05-01T08:43:09Z</time></trkpt><trkpt lat="46.02194189829494" lon="12.614123334751666"><ele>107.0</ele><time>2026-05-01T08:43:10Z</time></trkpt><trkpt lat="46.021770073495404" lon="12.61397743675218"><ele>107.0</ele><time>2026-05-01T08:43:11Z</time></trkpt><trkpt lat="46.021601927528735" lon="12.613821393197824"><ele>107.0</ele><time>2026-05-01T08:43:12Z</time></trkpt><trkpt lat="46.021439270577446" lon="12.613659858384969"><ele>106.0</ele><time>2026-05-01T08:43:13Z</time></trkpt><trkpt lat="46.02127793434246" lon="12.613485838709314"><ele>105.0</ele><time>2026-05-01T08:43:14Z</time></trkpt><trkpt lat="46.02111602646855" lon="12.613295688735493"><ele>104.0</ele><time>2026-05-01T08:43:15Z</time></trkpt><trkpt lat="46.020953611543824" lon="12.613102935469582"><ele>104.33333333333333</ele><time>2026-05-01T08:43:16Z</time></trkpt><trkpt lat="46.02079121036579" lon="12.612907627467694"><ele>104.66666666666666</ele><time>2026-05-01T08:43:17Z</time></trkpt><trkpt lat="46.02062792010296" lon="12.612711111210023"><ele>105.0</ele><time>2026-05-01T08:43:18Z</time></trkpt><trkpt lat="46.02046374258304" lon="12.612513102597653"><ele>104.66666666666666</ele><time>2026-05-01T08:43:19Z</time></trkpt><trkpt lat="46.020301300201396" lon="12.612317729727884"><ele>104.33333333333333</ele><time>2026-05-01T08:43:20Z</time></trkpt><trkpt lat="46.0201430718531" lon="12.612127865219579"><ele>104.0</ele><time>2026-05-01T08:43:21Z</time></trkpt><trkpt lat="46.01999092629719" lon="12.611943768496303"><ele>102.66666666666666</ele><time>2026-05-01T08:43:22Z</time></trkpt><trkpt lat="46.01984457949845" lon="12.611768245224553"><ele>101.33333333333334</ele><time>2026-05-01T08:43:23Z</time></trkpt><trkpt lat="46.019700560994124" lon="12.611596966882725"><ele>100.0</ele><time>2026-05-01T08:43:24Z</time></trkpt><trkpt lat="46.01955734267969" lon="12.61142632030214"><ele>100.0</ele><time>2026-05-01T08:43:25Z</time></trkpt><trkpt lat="46.019411382102746" lon="12.61125395292709"><ele>100.0</ele><time>2026-05-01T08:43:26Z</time></trkpt><trkpt lat="46.01926623046281" lon="12.611080374078414"><ele>100.0</ele><time>2026-05-01T08:43:27Z</time></trkpt><trkpt lat="46.019125596685434" lon="12.610911365293964"><ele>100.33333333333334</ele><time>2026-05-01T08:43:28Z</time></trkpt><trkpt lat="46.01898846239219" lon="12.610747540533168"><ele>100.66666666666666</ele><time>2026-05-01T08:43:29Z</time></trkpt><trkpt lat="46.018852725982796" lon="12.610585223781175"><ele>101.0</ele><time>2026-05-01T08:43:30Z</time></trkpt><trkpt lat="46.018720074654716" lon="12.610416382107443"><ele>101.33333333333333</ele><time>2026-05-01T08:43:31Z</time></trkpt><trkpt lat="46.01859647356572" lon="12.61023090179568"><ele>101.66666666666666</ele><time>2026-05-01T08:43:32Z</time></trkpt><trkpt lat="46.01848699363734" lon="12.610028093952605"><ele>102.0</ele><time>2026-05-01T08:43:33Z</time></trkpt><trkpt lat="46.01839226978757" lon="12.609811161748079"><ele>102.0</ele><time>2026-05-01T08:43:34Z</time></trkpt><trkpt lat="46.01831811255917" lon="12.60956796613051"><ele>102.0</ele><time>2026-05-01T08:43:35Z</time></trkpt><trkpt lat="46.018253356281335" lon="12.609308054201232"><ele>102.0</ele><time>2026-05-01T08:43:36Z</time></trkpt><trkpt lat="46.01819533532858" lon="12.609034619505035"><ele>101.0</ele><time>2026-05-01T08:43:37Z</time></trkpt><trkpt lat="46.0181435737704" lon="12.608746150838318"><ele>100.0</ele><time>2026-05-01T08:43:37.999Z</time></trkpt><trkpt lat="46.018091282932446" lon="12.608451372716976"><ele>99.0</ele><time>2026-05-01T08:43:38.999Z</time></trkpt><trkpt lat="46.01803912301168" lon="12.608155734321274"><ele>99.0</ele><time>2026-05-01T08:43:39.999Z</time></trkpt><trkpt lat="46.017986862836906" lon="12.60786218420095"><ele>99.0</ele><time>2026-05-01T08:43:40.999Z</time></trkpt><trkpt lat="46.017931095254966" lon="12.607572258519959"><ele>99.0</ele><time>2026-05-01T08:43:41.999Z</time></trkpt><trkpt lat="46.017870304499965" lon="12.60728332256061"><ele>99.66666666666666</ele><time>2026-05-01T08:43:42.999Z</time></trkpt><trkpt lat="46.017803249871555" lon="12.60699485853763"><ele>100.33333333333333</ele><time>2026-05-01T08:43:43.999Z</time></trkpt><trkpt lat="46.01773065644195" lon="12.606705291100996"><ele>101.0</ele><time>2026-05-01T08:43:44.999Z</time></trkpt><trkpt lat="46.017652962103625" lon="12.606412753685417"><ele>101.0</ele><time>2026-05-01T08:43:45.999Z</time></trkpt><trkpt lat="46.017573835656584" lon="12.606115092632969"><ele>101.0</ele><time>2026-05-01T08:43:46.999Z</time></trkpt><trkpt lat="46.01749287634007" lon="12.605814981508306"><ele>101.0</ele><time>2026-05-01T08:43:47.999Z</time></trkpt><trkpt lat="46.017413897292" lon="12.6055134531605"><ele>100.33333333333333</ele><time>2026-05-01T08:43:48.999Z</time></trkpt><trkpt lat="46.01733540377249" lon="12.605216585925517"><ele>99.66666666666666</ele><time>2026-05-01T08:43:49.999Z</time></trkpt><trkpt lat="46.01725911650662" lon="12.604931852916671"><ele>99.0</ele><time>2026-05-01T08:43:50.999Z</time></trkpt><trkpt lat="46.01718272585561" lon="12.604655012926866"><ele>99.33333333333334</ele><time>2026-05-01T08:43:51.999Z</time></trkpt><trkpt lat="46.01710648970017" lon="12.604384723239791"><ele>99.66666666666667</ele><time>2026-05-01T08:43:52.999Z</time></trkpt><trkpt lat="46.01703297929811" lon="12.604117311579698"><ele>100.0</ele><time>2026-05-01T08:43:53.999Z</time></trkpt><trkpt lat="46.0169611942177" lon="12.603854093563966"><ele>99.33333333333334</ele><time>2026-05-01T08:43:54.999Z</time></trkpt><trkpt lat="46.016890962910175" lon="12.603594199090647"><ele>98.66666666666666</ele><time>2026-05-01T08:43:55.999Z</time></trkpt><trkpt lat="46.01682410595655" lon="12.603334612735507"><ele>98.0</ele><time>2026-05-01T08:43:56.999Z</time></trkpt><trkpt lat="46.01676009682167" lon="12.603079831538171"><ele>98.0</ele><time>2026-05-01T08:43:58Z</time></trkpt><trkpt lat="46.01669827421278" lon="12.602829702547876"><ele>98.0</ele><time>2026-05-01T08:43:59Z</time></trkpt><trkpt lat="46.016634071375506" lon="12.6025789394567"><ele>98.0</ele><time>2026-05-01T08:44:00Z</time></trkpt><trkpt lat="46.01656647419313" lon="12.602323480888627"><ele>98.0</ele><time>2026-05-01T08:44:01Z</time></trkpt><trkpt lat="46.01649407839616" lon="12.60206400698989"><ele>98.0</ele><time>2026-05-01T08:44:02Z</time></trkpt><trkpt lat="46.016416697302525" lon="12.601797804181071"><ele>98.0</ele><time>2026-05-01T08:44:03Z</time></trkpt><trkpt lat="46.0163371732962" lon="12.601519908678986"><ele>97.33333333333333</ele><time>2026-05-01T08:44:04Z</time></trkpt><trkpt lat="46.016257609107015" lon="12.601233100021119"><ele>96.66666666666666</ele><time>2026-05-01T08:44:05Z</time></trkpt><trkpt lat="46.01617796788142" lon="12.600946059999456"><ele>96.0</ele><time>2026-05-01T08:44:06Z</time></trkpt><trkpt lat="46.01609611227272" lon="12.600672685727591"><ele>95.66666666666667</ele><time>2026-05-01T08:44:07Z</time></trkpt><trkpt lat="46.0160067192374" lon="12.600398248789471"><ele>95.33333333333334</ele><time>2026-05-01T08:44:08Z</time></trkpt><trkpt lat="46.01589817400873" lon="12.60013013715713"><ele>95.0</ele><time>2026-05-01T08:44:09Z</time></trkpt><trkpt lat="46.01577335702872" lon="12.599861362250032"><ele>94.5</ele><time>2026-05-01T08:44:10Z</time></trkpt><trkpt lat="46.01566112047312" lon="12.599567362811346"><ele>94.0</ele><time>2026-05-01T08:44:11Z</time></trkpt><trkpt lat="46.015519409747114" lon="12.599288212084607"><ele>94.0</ele><time>2026-05-01T08:44:12Z</time></trkpt><trkpt lat="46.01539039745667" lon="12.598989916273277"><ele>94.0</ele><time>2026-05-01T08:44:13Z</time></trkpt><trkpt lat="46.01525823548964" lon="12.598682744313663"><ele>94.0</ele><time>2026-05-01T08:44:14Z</time></trkpt><trkpt lat="46.015123477714035" lon="12.598374758348797"><ele>94.0</ele><time>2026-05-01T08:44:15Z</time></trkpt><trkpt lat="46.01499225183783" lon="12.598076772407023"><ele>93.5</ele><time>2026-05-01T08:44:16Z</time></trkpt><trkpt lat="46.014864468010295" lon="12.597787473912433"><ele>93.0</ele><time>2026-05-01T08:44:17Z</time></trkpt><trkpt lat="46.0147437340143" lon="12.597512677365838"><ele>93.0</ele><time>2026-05-01T08:44:18Z</time></trkpt><trkpt lat="46.01463044068799" lon="12.597250313456668"><ele>93.0</ele><time>2026-05-01T08:44:19Z</time></trkpt><trkpt lat="46.01451972454451" lon="12.596994454565058"><ele>93.0</ele><time>2026-05-01T08:44:20Z</time></trkpt><trkpt lat="46.01441190861316" lon="12.596749028221433"><ele>93.0</ele><time>2026-05-01T08:44:21Z</time></trkpt><trkpt lat="46.014308785280555" lon="12.596513999613878"><ele>93.0</ele><time>2026-05-01T08:44:22Z</time></trkpt><trkpt lat="46.01421005708047" lon="12.596286223609932"><ele>93.0</ele><time>2026-05-01T08:44:23Z</time></trkpt><trkpt lat="46.01411222189922" lon="12.596058668233994"><ele>93.0</ele><time>2026-05-01T08:44:24Z</time></trkpt><trkpt lat="46.01401322670419" lon="12.595833264055804"><ele>93.0</ele><time>2026-05-01T08:44:25Z</time></trkpt><trkpt lat="46.0139152489922" lon="12.595605437868242"><ele>93.0</ele><time>2026-05-01T08:44:26Z</time></trkpt><trkpt lat="46.01381427497528" lon="12.595370746922187"><ele>93.0</ele><time>2026-05-01T08:44:27Z</time></trkpt><trkpt lat="46.01371355384824" lon="12.595135948101454"><ele>93.0</ele><time>2026-05-01T08:44:28Z</time></trkpt><trkpt lat="46.01361548566194" lon="12.594907633580323"><ele>93.0</ele><time>2026-05-01T08:44:29Z</time></trkpt><trkpt lat="46.01351901750153" lon="12.594685538271495"><ele>92.33333333333333</ele><time>2026-05-01T08:44:30Z</time></trkpt><trkpt lat="46.013422253203935" lon="12.594466153712526"><ele>91.66666666666666</ele><time>2026-05-01T08:44:31Z</time></trkpt><trkpt lat="46.013329553374646" lon="12.594252350542131"><ele>91.0</ele><time>2026-05-01T08:44:32Z</time></trkpt><trkpt lat="46.013238294765145" lon="12.594041091732848"><ele>91.0</ele><time>2026-05-01T08:44:33Z</time></trkpt><trkpt lat="46.01315324983868" lon="12.593845970319448"><ele>91.0</ele><time>2026-05-01T08:44:34Z</time></trkpt><trkpt lat="46.01307807095328" lon="12.593671428417196"><ele>91.0</ele><time>2026-05-01T08:44:35Z</time></trkpt><trkpt lat="46.01300663236268" lon="12.593506849849089"><ele>91.0</ele><time>2026-05-01T08:44:36Z</time></trkpt><trkpt lat="46.01294427409893" lon="12.593359536150635"><ele>91.0</ele><time>2026-05-01T08:44:37Z</time></trkpt><trkpt lat="46.01288212778711" lon="12.593214491628627"><ele>91.0</ele><time>2026-05-01T08:44:38Z</time></trkpt><trkpt lat="46.01283039445754" lon="12.593084148466342"><ele>91.0</ele><time>2026-05-01T08:44:39Z</time></trkpt><trkpt lat="46.0127952779172" lon="12.59298240271599"><ele>91.0</ele><time>2026-05-01T08:44:40Z</time></trkpt><trkpt lat="46.01275453343027" lon="12.592849503343846"><ele>91.0</ele><time>2026-05-01T08:44:42Z</time></trkpt><trkpt lat="46.01272417007552" lon="12.59273503421629"><ele>91.0</ele><time>2026-05-01T08:44:45Z</time></trkpt><trkpt lat="46.012701587154346" lon="12.592594824702708"><ele>91.0</ele><time>2026-05-01T08:44:48Z</time></trkpt><trkpt lat="46.01270973901377" lon="12.59244472629164"><ele>91.0</ele><time>2026-05-01T08:44:50Z</time></trkpt><trkpt lat="46.01273139629609" lon="12.59235416494639"><ele>91.0</ele><time>2026-05-01T08:44:51Z</time></trkpt><trkpt lat="46.012752026020046" lon="12.592254570473973"><ele>91.0</ele><time>2026-05-01T08:44:52Z</time></trkpt><trkpt lat="46.01276541612622" lon="12.592150086080041"><ele>91.0</ele><time>2026-05-01T08:44:53Z</time></trkpt><trkpt lat="46.01275495399522" lon="12.592042417780227"><ele>90.71428571428571</ele><time>2026-05-01T08:44:54Z</time></trkpt><trkpt lat="46.01272875194633" lon="12.59194854675301"><ele>90.42857142857143</ele><time>2026-05-01T08:44:55Z</time></trkpt><trkpt lat="46.01267263026776" lon="12.591878270445306"><ele>90.14285714285714</ele><time>2026-05-01T08:44:56Z</time></trkpt><trkpt lat="46.0126064297936" lon="12.591834369308375"><ele>89.85714285714286</ele><time>2026-05-01T08:44:57Z</time></trkpt><trkpt lat="46.01253207644654" lon="12.59181901218992"><ele>89.57142857142857</ele><time>2026-05-01T08:44:58Z</time></trkpt><trkpt lat="46.01245616034435" lon="12.591829294944276"><ele>89.28571428571428</ele><time>2026-05-01T08:44:59Z</time></trkpt><trkpt lat="46.0123804486732" lon="12.59183745000564"><ele>89.0</ele><time>2026-05-01T08:45:00Z</time></trkpt><trkpt lat="46.01230000141747" lon="12.591816927262247"><ele>88.6</ele><time>2026-05-01T08:45:01Z</time></trkpt><trkpt lat="46.01222227483023" lon="12.591760722399929"><ele>88.2</ele><time>2026-05-01T08:45:02Z</time></trkpt><trkpt lat="46.012143820926966" lon="12.59167321620327"><ele>87.8</ele><time>2026-05-01T08:45:03Z</time></trkpt><trkpt lat="46.01206398899981" lon="12.59154552035927"><ele>87.39999999999999</ele><time>2026-05-01T08:45:04Z</time></trkpt><trkpt lat="46.01198360338835" lon="12.591402855077465"><ele>87.0</ele><time>2026-05-01T08:45:05Z</time></trkpt><trkpt lat="46.01189758857036" lon="12.59126979060665"><ele>87.0</ele><time>2026-05-01T08:45:06Z</time></trkpt><trkpt lat="46.01180817874474" lon="12.591136687470001"><ele>87.0</ele><time>2026-05-01T08:45:07Z</time></trkpt><trkpt lat="46.01171479730312" lon="12.590994955316168"><ele>87.0</ele><time>2026-05-01T08:45:08Z</time></trkpt><trkpt lat="46.01161793474893" lon="12.590844156495065"><ele>87.0</ele><time>2026-05-01T08:45:09Z</time></trkpt><trkpt lat="46.011516972059084" lon="12.590690748951138"><ele>86.66666666666667</ele><time>2026-05-01T08:45:10Z</time></trkpt><trkpt lat="46.01141304799248" lon="12.590531354460536"><ele>86.33333333333334</ele><time>2026-05-01T08:45:11Z</time></trkpt><trkpt lat="46.01130360205722" lon="12.59036341483057"><ele>86.0</ele><time>2026-05-01T08:45:12Z</time></trkpt><trkpt lat="46.01118774303489" lon="12.5901862176124"><ele>86.33333333333334</ele><time>2026-05-01T08:45:13Z</time></trkpt><trkpt lat="46.01106507575125" lon="12.589995987935088"><ele>86.66666666666667</ele><time>2026-05-01T08:45:14Z</time></trkpt><trkpt lat="46.01093827031724" lon="12.58979842216995"><ele>87.0</ele><time>2026-05-01T08:45:15Z</time></trkpt><trkpt lat="46.01081236838214" lon="12.589598139606712"><ele>86.66666666666667</ele><time>2026-05-01T08:45:16Z</time></trkpt><trkpt lat="46.010687845558316" lon="12.589400809525781"><ele>86.33333333333334</ele><time>2026-05-01T08:45:17Z</time></trkpt><trkpt lat="46.01056675655579" lon="12.589209569854365"><ele>86.0</ele><time>2026-05-01T08:45:18Z</time></trkpt><trkpt lat="46.0104467898581" lon="12.58902438761078"><ele>86.0</ele><time>2026-05-01T08:45:19Z</time></trkpt><trkpt lat="46.01032984657479" lon="12.588842604840714"><ele>86.0</ele><time>2026-05-01T08:45:20Z</time></trkpt><trkpt lat="46.01021955797363" lon="12.588667557503765"><ele>86.0</ele><time>2026-05-01T08:45:21Z</time></trkpt><trkpt lat="46.01011825744301" lon="12.588508480823341"><ele>86.0</ele><time>2026-05-01T08:45:22Z</time></trkpt><trkpt lat="46.01002094201204" lon="12.588348978404156"><ele>86.0</ele><time>2026-05-01T08:45:23Z</time></trkpt><trkpt lat="46.009924077890915" lon="12.588184034703577"><ele>86.0</ele><time>2026-05-01T08:45:24Z</time></trkpt><trkpt lat="46.009829751619556" lon="12.588010824193809"><ele>85.0</ele><time>2026-05-01T08:45:25Z</time></trkpt><trkpt lat="46.00973444162" lon="12.587829860125032"><ele>84.0</ele><time>2026-05-01T08:45:26Z</time></trkpt><trkpt lat="46.009635472924714" lon="12.587643419625854"><ele>83.0</ele><time>2026-05-01T08:45:27Z</time></trkpt><trkpt lat="46.0095319684805" lon="12.587451033341587"><ele>83.0</ele><time>2026-05-01T08:45:28Z</time></trkpt><trkpt lat="46.00942416107626" lon="12.587250794236688"><ele>83.0</ele><time>2026-05-01T08:45:29Z</time></trkpt><trkpt lat="46.00931465651175" lon="12.587044425973271"><ele>83.0</ele><time>2026-05-01T08:45:30Z</time></trkpt><trkpt lat="46.00919983606008" lon="12.586830372864062"><ele>82.66666666666667</ele><time>2026-05-01T08:45:31Z</time></trkpt><trkpt lat="46.009082978775524" lon="12.586613564208784"><ele>82.33333333333333</ele><time>2026-05-01T08:45:32Z</time></trkpt><trkpt lat="46.008965340798504" lon="12.586398348672798"><ele>82.0</ele><time>2026-05-01T08:45:33Z</time></trkpt><trkpt lat="46.008849728089" lon="12.58617977428953"><ele>81.66666666666666</ele><time>2026-05-01T08:45:34Z</time></trkpt><trkpt lat="46.00873140967702" lon="12.585958542476705"><ele>81.33333333333333</ele><time>2026-05-01T08:45:35Z</time></trkpt><trkpt lat="46.008609736462084" lon="12.585733908419263"><ele>81.0</ele><time>2026-05-01T08:45:36Z</time></trkpt><trkpt lat="46.008488484253085" lon="12.585509083330795"><ele>81.0</ele><time>2026-05-01T08:45:37Z</time></trkpt><trkpt lat="46.008371495661365" lon="12.585285772928817"><ele>81.0</ele><time>2026-05-01T08:45:38Z</time></trkpt><trkpt lat="46.00825428817243" lon="12.58506829652003"><ele>81.0</ele><time>2026-05-01T08:45:39Z</time></trkpt><trkpt lat="46.008138158911066" lon="12.584853534514348"><ele>80.66666666666667</ele><time>2026-05-01T08:45:40Z</time></trkpt><trkpt lat="46.00802319455802" lon="12.584636506878493"><ele>80.33333333333334</ele><time>2026-05-01T08:45:40.999Z</time></trkpt><trkpt lat="46.007907054082715" lon="12.584420282857687"><ele>80.0</ele><time>2026-05-01T08:45:41.999Z</time></trkpt><trkpt lat="46.00779174364845" lon="12.584202879845922"><ele>80.0</ele><time>2026-05-01T08:45:42.999Z</time></trkpt><trkpt lat="46.00767538401015" lon="12.583983495298376"><ele>80.0</ele><time>2026-05-01T08:45:43.999Z</time></trkpt><trkpt lat="46.00755953600801" lon="12.583764510145208"><ele>80.0</ele><time>2026-05-01T08:45:44.999Z</time></trkpt><trkpt lat="46.00744401060161" lon="12.583544636090263"><ele>80.0</ele><time>2026-05-01T08:45:45.999Z</time></trkpt><trkpt lat="46.00732910726844" lon="12.58332833484905"><ele>80.0</ele><time>2026-05-01T08:45:46.999Z</time></trkpt><trkpt lat="46.00721518111617" lon="12.583114180597022"><ele>80.0</ele><time>2026-05-01T08:45:47.999Z</time></trkpt><trkpt lat="46.00709942409136" lon="12.582898493261387"><ele>79.33333333333334</ele><time>2026-05-01T08:45:48.999Z</time></trkpt><trkpt lat="46.006983656334214" lon="12.582681987364753"><ele>78.66666666666667</ele><time>2026-05-01T08:45:49.999Z</time></trkpt><trkpt lat="46.00686467871482" lon="12.582460325381462"><ele>78.0</ele><time>2026-05-01T08:45:50.999Z</time></trkpt><trkpt lat="46.0067441199814" lon="12.582233083604594"><ele>77.33333333333333</ele><time>2026-05-01T08:45:51.999Z</time></trkpt><trkpt lat="46.00662290235731" lon="12.581999747287334"><ele>76.66666666666666</ele><time>2026-05-01T08:45:52.999Z</time></trkpt><trkpt lat="46.00649995097908" lon="12.581766025177316"><ele>76.0</ele><time>2026-05-01T08:45:53.999Z</time></trkpt><trkpt lat="46.00637332802445" lon="12.581529104100104"><ele>76.0</ele><time>2026-05-01T08:45:54.999Z</time></trkpt><trkpt lat="46.00624196198374" lon="12.581291107140586"><ele>76.0</ele><time>2026-05-01T08:45:55.999Z</time></trkpt><trkpt lat="46.00611248303947" lon="12.581050306945654"><ele>76.0</ele><time>2026-05-01T08:45:56.999Z</time></trkpt><trkpt lat="46.00598129051307" lon="12.580810327251854"><ele>76.0</ele><time>2026-05-01T08:45:57.999Z</time></trkpt><trkpt lat="46.00585304468345" lon="12.580578313273575"><ele>76.0</ele><time>2026-05-01T08:45:58.999Z</time></trkpt><trkpt lat="46.005734543755814" lon="12.58035720663846"><ele>76.0</ele><time>2026-05-01T08:45:59.999Z</time></trkpt><trkpt lat="46.00562061221612" lon="12.58014438048578"><ele>76.33333333333333</ele><time>2026-05-01T08:46:00.999Z</time></trkpt><trkpt lat="46.005510883854974" lon="12.579941499353309"><ele>76.66666666666667</ele><time>2026-05-01T08:46:01.999Z</time></trkpt><trkpt lat="46.00540744971072" lon="12.579746846251028"><ele>77.0</ele><time>2026-05-01T08:46:02.999Z</time></trkpt><trkpt lat="46.00530675797314" lon="12.579557555838718"><ele>76.33333333333334</ele><time>2026-05-01T08:46:04Z</time></trkpt><trkpt lat="46.005209063531986" lon="12.579374853991574"><ele>75.66666666666667</ele><time>2026-05-01T08:46:05Z</time></trkpt><trkpt lat="46.00511288735032" lon="12.5791937843925"><ele>75.0</ele><time>2026-05-01T08:46:06Z</time></trkpt><trkpt lat="46.00501757062065" lon="12.579014261117852"><ele>74.66666666666667</ele><time>2026-05-01T08:46:07Z</time></trkpt><trkpt lat="46.00492124933688" lon="12.578836867780284"><ele>74.33333333333334</ele><time>2026-05-01T08:46:08Z</time></trkpt><trkpt lat="46.00482722058954" lon="12.578658535815924"><ele>74.0</ele><time>2026-05-01T08:46:09Z</time></trkpt><trkpt lat="46.00473221178558" lon="12.57848283591277"><ele>73.75</ele><time>2026-05-01T08:46:10Z</time></trkpt><trkpt lat="46.00463975315017" lon="12.578310610279912"><ele>73.5</ele><time>2026-05-01T08:46:11Z</time></trkpt><trkpt lat="46.00455112939881" lon="12.57814271678044"><ele>73.25</ele><time>2026-05-01T08:46:12Z</time></trkpt><trkpt lat="46.00446957613034" lon="12.577990398902479"><ele>73.0</ele><time>2026-05-01T08:46:13Z</time></trkpt><trkpt lat="46.00439708024063" lon="12.577855546122677"><ele>73.0</ele><time>2026-05-01T08:46:14Z</time></trkpt><trkpt lat="46.004328941220756" lon="12.577731689466027"><ele>73.0</ele><time>2026-05-01T08:46:15Z</time></trkpt><trkpt lat="46.00426621284968" lon="12.57761454860998"><ele>73.0</ele><time>2026-05-01T08:46:16Z</time></trkpt><trkpt lat="46.00420828051474" lon="12.577501800488278"><ele>73.0</ele><time>2026-05-01T08:46:17Z</time></trkpt><trkpt lat="46.004148978975806" lon="12.577389706850912"><ele>73.0</ele><time>2026-05-01T08:46:18Z</time></trkpt><trkpt lat="46.00408844039048" lon="12.577277176476006"><ele>72.8</ele><time>2026-05-01T08:46:19Z</time></trkpt><trkpt lat="46.004027395572216" lon="12.577162389213223"><ele>72.6</ele><time>2026-05-01T08:46:20Z</time></trkpt><trkpt lat="46.003965259116214" lon="12.577046008988367"><ele>72.4</ele><time>2026-05-01T08:46:21Z</time></trkpt><trkpt lat="46.00390231052975" lon="12.576925396804022"><ele>72.2</ele><time>2026-05-01T08:46:22Z</time></trkpt><trkpt lat="46.00384140050851" lon="12.576799138361359"><ele>72.0</ele><time>2026-05-01T08:46:23Z</time></trkpt><trkpt lat="46.00378102855992" lon="12.576669375123807"><ele>72.0</ele><time>2026-05-01T08:46:24Z</time></trkpt><trkpt lat="46.00372509577074" lon="12.576526575442816"><ele>72.0</ele><time>2026-05-01T08:46:25Z</time></trkpt><trkpt lat="46.00368097787952" lon="12.576353418334756"><ele>72.0</ele><time>2026-05-01T08:46:26Z</time></trkpt><trkpt lat="46.00364788016796" lon="12.576160367158192"><ele>72.0</ele><time>2026-05-01T08:46:27Z</time></trkpt><trkpt lat="46.003625830636004" lon="12.575961842572962"><ele>72.0</ele><time>2026-05-01T08:46:28Z</time></trkpt><trkpt lat="46.00360439242225" lon="12.575757085365538"><ele>72.0</ele><time>2026-05-01T08:46:29Z</time></trkpt><trkpt lat="46.003583954933625" lon="12.57555382322744"><ele>72.0</ele><time>2026-05-01T08:46:30Z</time></trkpt><trkpt lat="46.003563143299964" lon="12.575342682227536"><ele>72.0</ele><time>2026-05-01T08:46:31Z</time></trkpt><trkpt lat="46.00354171042023" lon="12.575122716504223"><ele>71.75</ele><time>2026-05-01T08:46:32Z</time></trkpt><trkpt lat="46.003512053752964" lon="12.574906947237046"><ele>71.5</ele><time>2026-05-01T08:46:33Z</time></trkpt><trkpt lat="46.00347331339553" lon="12.574699023906602"><ele>71.25</ele><time>2026-05-01T08:46:34Z</time></trkpt><trkpt lat="46.00343292071803" lon="12.5744997882408"><ele>71.0</ele><time>2026-05-01T08:46:35Z</time></trkpt><trkpt lat="46.0033865264248" lon="12.574312310873665"><ele>70.75</ele><time>2026-05-01T08:46:36Z</time></trkpt><trkpt lat="46.0033349246231" lon="12.574128931402365"><ele>70.5</ele><time>2026-05-01T08:46:37Z</time></trkpt><trkpt lat="46.00327518769461" lon="12.57394608360993"><ele>70.25</ele><time>2026-05-01T08:46:38Z</time></trkpt><trkpt lat="46.00320945370223" lon="12.573762945034105"><ele>70.0</ele><time>2026-05-01T08:46:39Z</time></trkpt><trkpt lat="46.003143664762156" lon="12.573580288303475"><ele>69.25</ele><time>2026-05-01T08:46:40Z</time></trkpt><trkpt lat="46.00308034354241" lon="12.573402679245074"><ele>68.5</ele><time>2026-05-01T08:46:41Z</time></trkpt><trkpt lat="46.00301868460048" lon="12.573229358595329"><ele>67.75</ele><time>2026-05-01T08:46:42Z</time></trkpt><trkpt lat="46.00295683953503" lon="12.573058186675496"><ele>67.0</ele><time>2026-05-01T08:46:43Z</time></trkpt><trkpt lat="46.00289336291838" lon="12.57288493046808"><ele>67.5</ele><time>2026-05-01T08:46:44Z</time></trkpt><trkpt lat="46.002829107826045" lon="12.572703800420275"><ele>68.0</ele><time>2026-05-01T08:46:45Z</time></trkpt><trkpt lat="46.00276006564383" lon="12.572513053833655"><ele>68.5</ele><time>2026-05-01T08:46:46Z</time></trkpt><trkpt lat="46.00268831200737" lon="12.572311885276813"><ele>69.0</ele><time>2026-05-01T08:46:47Z</time></trkpt><trkpt lat="46.002613226009906" lon="12.572105145401016"><ele>69.33333333333333</ele><time>2026-05-01T08:46:48Z</time></trkpt><trkpt lat="46.002536929705414" lon="12.571891170723585"><ele>69.66666666666666</ele><time>2026-05-01T08:46:49Z</time></trkpt><trkpt lat="46.00245705774671" lon="12.571670735435813"><ele>70.0</ele><time>2026-05-01T08:46:50Z</time></trkpt><trkpt lat="46.002374101169586" lon="12.571445305463381"><ele>69.0</ele><time>2026-05-01T08:46:51Z</time></trkpt><trkpt lat="46.00228975096025" lon="12.571210430869877"><ele>68.0</ele><time>2026-05-01T08:46:52Z</time></trkpt><trkpt lat="46.00220523798541" lon="12.570969198466582"><ele>67.0</ele><time>2026-05-01T08:46:53Z</time></trkpt><trkpt lat="46.00211983496413" lon="12.570734219948717"><ele>67.0</ele><time>2026-05-01T08:46:54Z</time></trkpt><trkpt lat="46.00204023929942" lon="12.570520041090363"><ele>67.0</ele><time>2026-05-01T08:46:55Z</time></trkpt><trkpt lat="46.00196619454273" lon="12.570316530998333"><ele>67.0</ele><time>2026-05-01T08:46:56Z</time></trkpt><trkpt lat="46.00189469383215" lon="12.570115682603708"><ele>67.0</ele><time>2026-05-01T08:46:57Z</time></trkpt><trkpt lat="46.00182211768181" lon="12.569912482519932"><ele>67.0</ele><time>2026-05-01T08:46:58Z</time></trkpt><trkpt lat="46.001746405383884" lon="12.569704921459701"><ele>67.0</ele><time>2026-05-01T08:46:59Z</time></trkpt><trkpt lat="46.00167019148099" lon="12.569494629232285"><ele>66.66666666666666</ele><time>2026-05-01T08:47:00Z</time></trkpt><trkpt lat="46.001593442170055" lon="12.569283585618402"><ele>66.33333333333333</ele><time>2026-05-01T08:47:01Z</time></trkpt><trkpt lat="46.00151284228675" lon="12.569070321680007"><ele>66.0</ele><time>2026-05-01T08:47:02Z</time></trkpt><trkpt lat="46.00142797003692" lon="12.568856342334199"><ele>65.66666666666667</ele><time>2026-05-01T08:47:03Z</time></trkpt><trkpt lat="46.00133749178813" lon="12.568640955440284"><ele>65.33333333333334</ele><time>2026-05-01T08:47:04Z</time></trkpt><trkpt lat="46.00124263029888" lon="12.568424383052758"><ele>65.0</ele><time>2026-05-01T08:47:05Z</time></trkpt><trkpt lat="46.00114477241559" lon="12.568206336005636"><ele>65.0</ele><time>2026-05-01T08:47:06Z</time></trkpt><trkpt lat="46.00104462918963" lon="12.567984556110575"><ele>65.0</ele><time>2026-05-01T08:47:07Z</time></trkpt><trkpt lat="46.00094237255587" lon="12.567752868495406"><ele>65.0</ele><time>2026-05-01T08:47:08Z</time></trkpt><trkpt lat="46.00083635657108" lon="12.567510603966461"><ele>65.0</ele><time>2026-05-01T08:47:09Z</time></trkpt><trkpt lat="46.00072324729872" lon="12.567259211860874"><ele>65.0</ele><time>2026-05-01T08:47:10Z</time></trkpt><trkpt lat="46.0006068851892" lon="12.566999597593744"><ele>65.0</ele><time>2026-05-01T08:47:11Z</time></trkpt><trkpt lat="46.00049079055686" lon="12.566742333579189"><ele>65.0</ele><time>2026-05-01T08:47:12Z</time></trkpt><trkpt lat="46.0003715369686" lon="12.566486580142527"><ele>65.0</ele><time>2026-05-01T08:47:13Z</time></trkpt><trkpt lat="46.00024466391243" lon="12.566239031146319"><ele>65.0</ele><time>2026-05-01T08:47:14Z</time></trkpt><trkpt lat="46.000103138896144" lon="12.565999101342122"><ele>64.0</ele><time>2026-05-01T08:47:15Z</time></trkpt><trkpt lat="45.99996426696092" lon="12.56574690941703"><ele>63.0</ele><time>2026-05-01T08:47:16Z</time></trkpt><trkpt lat="45.99980457743555" lon="12.565515829222774"><ele>62.5</ele><time>2026-05-01T08:47:17Z</time></trkpt><trkpt lat="45.999642565288376" lon="12.565283750086577"><ele>62.0</ele><time>2026-05-01T08:47:18Z</time></trkpt><trkpt lat="45.99947814803933" lon="12.565048225690756"><ele>62.0</ele><time>2026-05-01T08:47:19Z</time></trkpt><trkpt lat="45.99930142673414" lon="12.56482752603925"><ele>62.0</ele><time>2026-05-01T08:47:20Z</time></trkpt><trkpt lat="45.999133201926206" lon="12.56458802054965"><ele>61.5</ele><time>2026-05-01T08:47:21Z</time></trkpt><trkpt lat="45.99896602530259" lon="12.564347093799459"><ele>61.0</ele><time>2026-05-01T08:47:22Z</time></trkpt><trkpt lat="45.99879870480441" lon="12.564105760198789"><ele>61.0</ele><time>2026-05-01T08:47:23Z</time></trkpt><trkpt lat="45.99863485861917" lon="12.563868661208973"><ele>61.0</ele><time>2026-05-01T08:47:24Z</time></trkpt><trkpt lat="45.99847403521011" lon="12.56363713003549"><ele>61.0</ele><time>2026-05-01T08:47:25Z</time></trkpt><trkpt lat="45.99831766501299" lon="12.563412428446613"><ele>61.0</ele><time>2026-05-01T08:47:26Z</time></trkpt><trkpt lat="45.998166091258824" lon="12.563194291408879"><ele>61.0</ele><time>2026-05-01T08:47:27Z</time></trkpt><trkpt lat="45.99802210743389" lon="12.562982677810085"><ele>60.33333333333333</ele><time>2026-05-01T08:47:28Z</time></trkpt><trkpt lat="45.997886417697984" lon="12.562770193753083"><ele>59.66666666666667</ele><time>2026-05-01T08:47:29Z</time></trkpt><trkpt lat="45.997760209752" lon="12.562552581165143"><ele>59.0</ele><time>2026-05-01T08:47:30Z</time></trkpt><trkpt lat="45.99764101695978" lon="12.56232777088191"><ele>59.0</ele><time>2026-05-01T08:47:31Z</time></trkpt><trkpt lat="45.99752489103646" lon="12.562094868195318"><ele>59.0</ele><time>2026-05-01T08:47:32Z</time></trkpt><trkpt lat="45.997407727682145" lon="12.561863541146142"><ele>59.0</ele><time>2026-05-01T08:47:33Z</time></trkpt><trkpt lat="45.99728957350572" lon="12.561640832870546"><ele>59.0</ele><time>2026-05-01T08:47:34Z</time></trkpt><trkpt lat="45.997168606451936" lon="12.561429836144587"><ele>59.0</ele><time>2026-05-01T08:47:35Z</time></trkpt><trkpt lat="45.997047546737086" lon="12.56122697085262"><ele>59.0</ele><time>2026-05-01T08:47:36Z</time></trkpt><trkpt lat="45.99692411177658" lon="12.56103296568971"><ele>59.0</ele><time>2026-05-01T08:47:37Z</time></trkpt><trkpt lat="45.99680155525348" lon="12.560831809104268"><ele>59.0</ele><time>2026-05-01T08:47:38Z</time></trkpt><trkpt lat="45.99668530443442" lon="12.560624156740047"><ele>59.0</ele><time>2026-05-01T08:47:39Z</time></trkpt><trkpt lat="45.99657749322977" lon="12.560410928343103"><ele>58.333333333333336</ele><time>2026-05-01T08:47:40Z</time></trkpt><trkpt lat="45.9964767469841" lon="12.560186301283375"><ele>57.66666666666667</ele><time>2026-05-01T08:47:41Z</time></trkpt><trkpt lat="45.99638289263209" lon="12.559952852647625"><ele>57.0</ele><time>2026-05-01T08:47:42Z</time></trkpt><trkpt lat="45.996287345577954" lon="12.559717612873234"><ele>56.66666666666667</ele><time>2026-05-01T08:47:43Z</time></trkpt><trkpt lat="45.99618715934197" lon="12.559479381646737"><ele>56.333333333333336</ele><time>2026-05-01T08:47:44Z</time></trkpt><trkpt lat="45.99609284084279" lon="12.559240263776603"><ele>56.0</ele><time>2026-05-01T08:47:45Z</time></trkpt><trkpt lat="45.996002994641" lon="12.55899518360232"><ele>56.0</ele><time>2026-05-01T08:47:46Z</time></trkpt><trkpt lat="45.995914792266184" lon="12.55874893993742"><ele>56.0</ele><time>2026-05-01T08:47:46.999Z</time></trkpt><trkpt lat="45.995829572166166" lon="12.558508776641615"><ele>56.0</ele><time>2026-05-01T08:47:47.999Z</time></trkpt><trkpt lat="45.99574170108048" lon="12.558277339988202"><ele>55.66666666666667</ele><time>2026-05-01T08:47:48.999Z</time></trkpt><trkpt lat="45.99565295750195" lon="12.55806888550698"><ele>55.33333333333333</ele><time>2026-05-01T08:47:49.999Z</time></trkpt><trkpt lat="45.99555946410697" lon="12.557865563274502"><ele>55.0</ele><time>2026-05-01T08:47:50.999Z</time></trkpt><trkpt lat="45.99546639526284" lon="12.55766628108009"><ele>55.0</ele><time>2026-05-01T08:47:51.999Z</time></trkpt><trkpt lat="45.99537677840075" lon="12.557466048262407"><ele>55.0</ele><time>2026-05-01T08:47:52.999Z</time></trkpt><trkpt lat="45.99528328104508" lon="12.557270020151057"><ele>55.0</ele><time>2026-05-01T08:47:53.999Z</time></trkpt><trkpt lat="45.99518323922652" lon="12.557079642091"><ele>54.666666666666664</ele><time>2026-05-01T08:47:54.999Z</time></trkpt><trkpt lat="45.99507112421469" lon="12.55689427972263"><ele>54.33333333333333</ele><time>2026-05-01T08:47:55.999Z</time></trkpt><trkpt lat="45.994949817751156" lon="12.556708776272849"><ele>54.0</ele><time>2026-05-01T08:47:56.999Z</time></trkpt><trkpt lat="45.994824844900265" lon="12.556528071574045"><ele>54.0</ele><time>2026-05-01T08:47:57.999Z</time></trkpt><trkpt lat="45.9946953266258" lon="12.556358389211523"><ele>54.0</ele><time>2026-05-01T08:47:58.999Z</time></trkpt><trkpt lat="45.9945500134003" lon="12.55618238844742"><ele>54.0</ele><time>2026-05-01T08:47:59.999Z</time></trkpt><trkpt lat="45.99441285099027" lon="12.556000742609655"><ele>54.33333333333333</ele><time>2026-05-01T08:48:00.999Z</time></trkpt><trkpt lat="45.99428768937736" lon="12.55583235452347"><ele>54.666666666666664</ele><time>2026-05-01T08:48:01.999Z</time></trkpt><trkpt lat="45.99417712425726" lon="12.555678338064348"><ele>55.0</ele><time>2026-05-01T08:48:02.999Z</time></trkpt><trkpt lat="45.99406799680443" lon="12.555529148721522"><ele>54.0</ele><time>2026-05-01T08:48:03.999Z</time></trkpt><trkpt lat="45.993959628037615" lon="12.555369445235984"><ele>53.0</ele><time>2026-05-01T08:48:04.999Z</time></trkpt><trkpt lat="45.993836724564" lon="12.555210741808322"><ele>52.0</ele><time>2026-05-01T08:48:05.999Z</time></trkpt><trkpt lat="45.9937099618909" lon="12.55505288324922"><ele>52.0</ele><time>2026-05-01T08:48:06.999Z</time></trkpt><trkpt lat="45.99359545536627" lon="12.5548983843924"><ele>52.0</ele><time>2026-05-01T08:48:07.999Z</time></trkpt><trkpt lat="45.993484319491564" lon="12.554745802829405"><ele>52.0</ele><time>2026-05-01T08:48:08.999Z</time></trkpt><trkpt lat="45.99337243468707" lon="12.554598990762816"><ele>51.75</ele><time>2026-05-01T08:48:10Z</time></trkpt><trkpt lat="45.993253553655585" lon="12.554477094813791"><ele>51.5</ele><time>2026-05-01T08:48:11Z</time></trkpt><trkpt lat="45.99314289913582" lon="12.554364706191894"><ele>51.25</ele><time>2026-05-01T08:48:12Z</time></trkpt><trkpt lat="45.993049844001504" lon="12.55425246323893"><ele>51.0</ele><time>2026-05-01T08:48:13Z</time></trkpt><trkpt lat="45.9929739479907" lon="12.55416266400253"><ele>51.0</ele><time>2026-05-01T08:48:14Z</time></trkpt><trkpt lat="45.99289486797895" lon="12.554061659384239"><ele>51.0</ele><time>2026-05-01T08:48:15Z</time></trkpt><trkpt lat="45.992814592709664" lon="12.553950505165234"><ele>51.0</ele><time>2026-05-01T08:48:16Z</time></trkpt><trkpt lat="45.99272397036634" lon="12.553845962904228"><ele>51.0</ele><time>2026-05-01T08:48:17Z</time></trkpt><trkpt lat="45.992617878312004" lon="12.553739785939232"><ele>51.25</ele><time>2026-05-01T08:48:18Z</time></trkpt><trkpt lat="45.99251115257923" lon="12.553618386360801"><ele>51.5</ele><time>2026-05-01T08:48:19Z</time></trkpt><trkpt lat="45.99239860094749" lon="12.553480162410708"><ele>51.75</ele><time>2026-05-01T08:48:20Z</time></trkpt><trkpt lat="45.99227818811549" lon="12.55332883413791"><ele>52.0</ele><time>2026-05-01T08:48:21Z</time></trkpt><trkpt lat="45.99216326342067" lon="12.5531617680792"><ele>51.33333333333333</ele><time>2026-05-01T08:48:22Z</time></trkpt><trkpt lat="45.992055252806345" lon="12.552990082264353"><ele>50.66666666666667</ele><time>2026-05-01T08:48:23Z</time></trkpt><trkpt lat="45.99195284783247" lon="12.552819711971562"><ele>50.0</ele><time>2026-05-01T08:48:24Z</time></trkpt><trkpt lat="45.99185086640429" lon="12.552648263233987"><ele>49.75</ele><time>2026-05-01T08:48:25Z</time></trkpt><trkpt lat="45.99175539812771" lon="12.552487794432924"><ele>49.5</ele><time>2026-05-01T08:48:26Z</time></trkpt><trkpt lat="45.99166660475878" lon="12.552349249375515"><ele>49.25</ele><time>2026-05-01T08:48:27Z</time></trkpt><trkpt lat="45.99157312449804" lon="12.552203776835883"><ele>49.0</ele><time>2026-05-01T08:48:28Z</time></trkpt><trkpt lat="45.991485135079415" lon="12.552053880002815"><ele>49.0</ele><time>2026-05-01T08:48:29Z</time></trkpt><trkpt lat="45.991411025627194" lon="12.551917490748323"><ele>49.0</ele><time>2026-05-01T08:48:30Z</time></trkpt><trkpt lat="45.991345700863704" lon="12.551786726113143"><ele>49.0</ele><time>2026-05-01T08:48:31Z</time></trkpt><trkpt lat="45.99128732406346" lon="12.551658949596336"><ele>49.0</ele><time>2026-05-01T08:48:32Z</time></trkpt><trkpt lat="45.991228469161214" lon="12.551519887472496"><ele>49.0</ele><time>2026-05-01T08:48:33Z</time></trkpt><trkpt lat="45.99117466615368" lon="12.551370881670444"><ele>49.0</ele><time>2026-05-01T08:48:34Z</time></trkpt><trkpt lat="45.99112544876607" lon="12.551213889537955"><ele>49.0</ele><time>2026-05-01T08:48:35Z</time></trkpt><trkpt lat="45.99108453819592" lon="12.551045240087086"><ele>49.0</ele><time>2026-05-01T08:48:36Z</time></trkpt><trkpt lat="45.991043285820865" lon="12.550865182024541"><ele>49.0</ele><time>2026-05-01T08:48:37Z</time></trkpt><trkpt lat="45.990995926142126" lon="12.550668635423825"><ele>49.0</ele><time>2026-05-01T08:48:38Z</time></trkpt><trkpt lat="45.99095195904315" lon="12.550478427274236"><ele>49.0</ele><time>2026-05-01T08:48:39Z</time></trkpt><trkpt lat="45.99091123943791" lon="12.550291395732106"><ele>49.0</ele><time>2026-05-01T08:48:40Z</time></trkpt><trkpt lat="45.99087207616398" lon="12.550107455508513"><ele>48.75</ele><time>2026-05-01T08:48:41Z</time></trkpt><trkpt lat="45.99082776897217" lon="12.549923673286923"><ele>48.5</ele><time>2026-05-01T08:48:42Z</time></trkpt><trkpt lat="45.990783130259686" lon="12.549740238323052"><ele>48.25</ele><time>2026-05-01T08:48:43Z</time></trkpt><trkpt lat="45.99074782970824" lon="12.549574022536083"><ele>48.0</ele><time>2026-05-01T08:48:44Z</time></trkpt><trkpt lat="45.990718377538315" lon="12.549416160282654"><ele>48.0</ele><time>2026-05-01T08:48:45Z</time></trkpt><trkpt lat="45.990696665358755" lon="12.549269200736694"><ele>48.0</ele><time>2026-05-01T08:48:46Z</time></trkpt><trkpt lat="45.99068082129899" lon="12.54914375288478"><ele>48.0</ele><time>2026-05-01T08:48:47Z</time></trkpt><trkpt lat="45.990667294924066" lon="12.54903336711302"><ele>48.0</ele><time>2026-05-01T08:48:48Z</time></trkpt><trkpt lat="45.990648298763766" lon="12.548896083634226"><ele>48.0</ele><time>2026-05-01T08:48:50Z</time></trkpt><trkpt lat="45.99063774088659" lon="12.548794797797802"><ele>48.0</ele><time>2026-05-01T08:48:54Z</time></trkpt><trkpt lat="45.99063172291766" lon="12.548699129320926"><ele>48.0</ele><time>2026-05-01T08:49:01Z</time></trkpt><trkpt lat="45.99063301873377" lon="12.54859788829941"><ele>48.0</ele><time>2026-05-01T08:49:04Z</time></trkpt><trkpt lat="45.99063718621087" lon="12.548489481342019"><ele>48.0</ele><time>2026-05-01T08:49:07Z</time></trkpt><trkpt lat="45.99062282046364" lon="12.548390729183545"><ele>48.0</ele><time>2026-05-01T08:49:08Z</time></trkpt><trkpt lat="45.990523524884246" lon="12.54831362252058"><ele>48.0</ele><time>2026-05-01T08:49:09Z</time></trkpt><trkpt lat="45.990467394316255" lon="12.548258291210535"><ele>48.0</ele><time>2026-05-01T08:49:10Z</time></trkpt><trkpt lat="45.99037484283407" lon="12.548139711397011"><ele>48.0</ele><time>2026-05-01T08:49:12Z</time></trkpt><trkpt lat="45.99032655488392" lon="12.548078951963486"><ele>48.0</ele><time>2026-05-01T08:49:13Z</time></trkpt><trkpt lat="45.99027695628473" lon="12.548011194737041"><ele>48.0</ele><time>2026-05-01T08:49:14Z</time></trkpt><trkpt lat="45.990199264655914" lon="12.547920610323095"><ele>48.0</ele><time>2026-05-01T08:49:16Z</time></trkpt><trkpt lat="45.990142462367544" lon="12.54785793960673"><ele>48.0</ele><time>2026-05-01T08:49:19Z</time></trkpt><trkpt lat="45.990093518764105" lon="12.54774084306244"><ele>48.0</ele><time>2026-05-01T08:49:40Z</time></trkpt><trkpt lat="45.990082118530744" lon="12.54756019243814"><ele>47.8</ele><time>2026-05-01T08:49:42Z</time></trkpt><trkpt lat="45.99000770761465" lon="12.547449015667768"><ele>47.599999999999994</ele><time>2026-05-01T08:49:44Z</time></trkpt><trkpt lat="45.98989484285866" lon="12.547450878947494"><ele>47.400000000000006</ele><time>2026-05-01T08:49:46Z</time></trkpt><trkpt lat="45.98981107581672" lon="12.547428966194618"><ele>47.2</ele><time>2026-05-01T08:49:48Z</time></trkpt><trkpt lat="45.989728953186926" lon="12.547387510173603"><ele>47.0</ele><time>2026-05-01T08:49:50Z</time></trkpt><trkpt lat="45.98964180502744" lon="12.547347007542689"><ele>47.0</ele><time>2026-05-01T08:49:51.999Z</time></trkpt><trkpt lat="45.98953099928954" lon="12.54727692969664"><ele>47.0</ele><time>2026-05-01T08:49:53.999Z</time></trkpt><trkpt lat="45.98946651306641" lon="12.547237054242117"><ele>47.0</ele><time>2026-05-01T08:49:54.999Z</time></trkpt><trkpt lat="45.98940372892652" lon="12.547192355912031"><ele>47.0</ele><time>2026-05-01T08:49:55.999Z</time></trkpt><trkpt lat="45.98934399339794" lon="12.547146383799628"><ele>47.0</ele><time>2026-05-01T08:49:56.999Z</time></trkpt><trkpt lat="45.9892801776777" lon="12.547098759348277"><ele>47.0</ele><time>2026-05-01T08:49:57.999Z</time></trkpt><trkpt lat="45.9892083563188" lon="12.547043430691609"><ele>46.6</ele><time>2026-05-01T08:49:58.999Z</time></trkpt><trkpt lat="45.98913000337658" lon="12.546982782166216"><ele>46.2</ele><time>2026-05-01T08:49:59.999Z</time></trkpt><trkpt lat="45.98904640962819" lon="12.546924075655717"><ele>45.8</ele><time>2026-05-01T08:50:00.999Z</time></trkpt><trkpt lat="45.98896113481786" lon="12.546869012117071"><ele>45.4</ele><time>2026-05-01T08:50:01.999Z</time></trkpt><trkpt lat="45.98887765497099" lon="12.546807184521455"><ele>45.0</ele><time>2026-05-01T08:50:02.999Z</time></trkpt><trkpt lat="45.98880268799325" lon="12.546720652094443"><ele>45.0</ele><time>2026-05-01T08:50:03.999Z</time></trkpt><trkpt lat="45.98872700354865" lon="12.54664595294907"><ele>45.0</ele><time>2026-05-01T08:50:04.999Z</time></trkpt><trkpt lat="45.988654228851864" lon="12.546564427165375"><ele>45.0</ele><time>2026-05-01T08:50:05.999Z</time></trkpt><trkpt lat="45.988581778765884" lon="12.54647372555311"><ele>45.0</ele><time>2026-05-01T08:50:06.999Z</time></trkpt><trkpt lat="45.98851427751038" lon="12.546382921264964"><ele>45.0</ele><time>2026-05-01T08:50:07.999Z</time></trkpt><trkpt lat="45.98845926292498" lon="12.54629131435367"><ele>45.0</ele><time>2026-05-01T08:50:08.999Z</time></trkpt><trkpt lat="45.988418173948176" lon="12.54619859817193"><ele>45.0</ele><time>2026-05-01T08:50:09.999Z</time></trkpt><trkpt lat="45.98840850298219" lon="12.546089657706096"><ele>45.0</ele><time>2026-05-01T08:50:10.999Z</time></trkpt><trkpt lat="45.988427515838254" lon="12.545948679604104"><ele>45.0</ele><time>2026-05-01T08:50:11.999Z</time></trkpt><trkpt lat="45.9884637257924" lon="12.545816850072747"><ele>45.0</ele><time>2026-05-01T08:50:12.999Z</time></trkpt><trkpt lat="45.988506889581906" lon="12.54568787186966"><ele>45.0</ele><time>2026-05-01T08:50:13.999Z</time></trkpt><trkpt lat="45.98854825641686" lon="12.545542008486752"><ele>45.0</ele><time>2026-05-01T08:50:14.999Z</time></trkpt><trkpt lat="45.98858540436998" lon="12.5453884731771"><ele>45.0</ele><time>2026-05-01T08:50:16Z</time></trkpt><trkpt lat="45.988625510118354" lon="12.545230001673994"><ele>45.0</ele><time>2026-05-01T08:50:17Z</time></trkpt><trkpt lat="45.98866723110394" lon="12.545069992602052"><ele>44.75</ele><time>2026-05-01T08:50:18Z</time></trkpt><trkpt lat="45.9887056310057" lon="12.544902309187089"><ele>44.5</ele><time>2026-05-01T08:50:19Z</time></trkpt><trkpt lat="45.988739010533195" lon="12.544732233713715"><ele>44.25</ele><time>2026-05-01T08:50:20Z</time></trkpt><trkpt lat="45.98876779295949" lon="12.544559045509299"><ele>44.0</ele><time>2026-05-01T08:50:21Z</time></trkpt><trkpt lat="45.988790363508635" lon="12.544384126452396"><ele>43.5</ele><time>2026-05-01T08:50:22Z</time></trkpt><trkpt lat="45.98880265070341" lon="12.544208123898297"><ele>43.0</ele><time>2026-05-01T08:50:23Z</time></trkpt><trkpt lat="45.9887997966064" lon="12.544032941306224"><ele>42.5</ele><time>2026-05-01T08:50:24Z</time></trkpt><trkpt lat="45.98877653901188" lon="12.543860010510896"><ele>42.0</ele><time>2026-05-01T08:50:25Z</time></trkpt><trkpt lat="45.98874209192511" lon="12.5436879007138"><ele>41.8</ele><time>2026-05-01T08:50:26Z</time></trkpt><trkpt lat="45.988714415601954" lon="12.543538921969532"><ele>41.6</ele><time>2026-05-01T08:50:27Z</time></trkpt><trkpt lat="45.988694163468" lon="12.543407050019947"><ele>41.4</ele><time>2026-05-01T08:50:28Z</time></trkpt><trkpt lat="45.988670636904935" lon="12.54328496780466"><ele>41.199999999999996</ele><time>2026-05-01T08:50:29Z</time></trkpt><trkpt lat="45.98864841907489" lon="12.543174872802771"><ele>41.0</ele><time>2026-05-01T08:50:30Z</time></trkpt><trkpt lat="45.988623130356615" lon="12.543060603369195"><ele>41.0</ele><time>2026-05-01T08:50:31Z</time></trkpt><trkpt lat="45.988593291978106" lon="12.54294834768563"><ele>41.0</ele><time>2026-05-01T08:50:32Z</time></trkpt><trkpt lat="45.988562276325716" lon="12.542843447104966"><ele>41.0</ele><time>2026-05-01T08:50:33Z</time></trkpt><trkpt lat="45.98852600794506" lon="12.542733337080186"><ele>41.0</ele><time>2026-05-01T08:50:34Z</time></trkpt><trkpt lat="45.988485829603825" lon="12.542621397378452"><ele>41.0</ele><time>2026-05-01T08:50:35Z</time></trkpt><trkpt lat="45.9884442665951" lon="12.542513258448325"><ele>41.0</ele><time>2026-05-01T08:50:36Z</time></trkpt><trkpt lat="45.98840241045404" lon="12.54240826767005"><ele>41.0</ele><time>2026-05-01T08:50:37Z</time></trkpt><trkpt lat="45.98836183120383" lon="12.542302966587862"><ele>41.0</ele><time>2026-05-01T08:50:38Z</time></trkpt><trkpt lat="45.98831628046143" lon="12.542193819268386"><ele>41.0</ele><time>2026-05-01T08:50:39Z</time></trkpt><trkpt lat="45.98826364176205" lon="12.542083510367434"><ele>41.0</ele><time>2026-05-01T08:50:40Z</time></trkpt><trkpt lat="45.98820669717782" lon="12.541971320810926"><ele>41.0</ele><time>2026-05-01T08:50:41Z</time></trkpt><trkpt lat="45.98814070419127" lon="12.54184117932901"><ele>41.0</ele><time>2026-05-01T08:50:42Z</time></trkpt><trkpt lat="45.98806873684967" lon="12.541707941028259"><ele>41.0</ele><time>2026-05-01T08:50:43Z</time></trkpt><trkpt lat="45.98799035354085" lon="12.54157809288909"><ele>41.0</ele><time>2026-05-01T08:50:44Z</time></trkpt><trkpt lat="45.987898944328634" lon="12.541458143140659"><ele>41.0</ele><time>2026-05-01T08:50:45Z</time></trkpt><trkpt lat="45.987803832058745" lon="12.541349104239183"><ele>41.0</ele><time>2026-05-01T08:50:46Z</time></trkpt><trkpt lat="45.987707330451876" lon="12.541249234036748"><ele>41.0</ele><time>2026-05-01T08:50:47Z</time></trkpt><trkpt lat="45.9876073568255" lon="12.541159258375947"><ele>41.0</ele><time>2026-05-01T08:50:48Z</time></trkpt><trkpt lat="45.987502041158585" lon="12.541072431616193"><ele>41.0</ele><time>2026-05-01T08:50:49Z</time></trkpt><trkpt lat="45.987395803698746" lon="12.540981527498772"><ele>40.25</ele><time>2026-05-01T08:50:50Z</time></trkpt><trkpt lat="45.98729158043062" lon="12.540892481616897"><ele>39.5</ele><time>2026-05-01T08:50:51Z</time></trkpt><trkpt lat="45.987188162162205" lon="12.540804587685203"><ele>38.75</ele><time>2026-05-01T08:50:52Z</time></trkpt><trkpt lat="45.98708735143887" lon="12.540715830310313"><ele>38.0</ele><time>2026-05-01T08:50:53Z</time></trkpt><trkpt lat="45.98698657191154" lon="12.540622610792564"><ele>38.0</ele><time>2026-05-01T08:50:54Z</time></trkpt><trkpt lat="45.9868827799525" lon="12.540523444971424"><ele>38.0</ele><time>2026-05-01T08:50:55Z</time></trkpt><trkpt lat="45.98677755705638" lon="12.540414659724924"><ele>38.0</ele><time>2026-05-01T08:50:56Z</time></trkpt><trkpt lat="45.98667045294828" lon="12.540305471951665"><ele>38.0</ele><time>2026-05-01T08:50:57Z</time></trkpt><trkpt lat="45.98656685306597" lon="12.540197650262579"><ele>38.0</ele><time>2026-05-01T08:50:58Z</time></trkpt><trkpt lat="45.98646379203372" lon="12.540089879986995"><ele>38.0</ele><time>2026-05-01T08:50:59Z</time></trkpt><trkpt lat="45.986362366826064" lon="12.539982831806705"><ele>38.0</ele><time>2026-05-01T08:51:00Z</time></trkpt><trkpt lat="45.98625858778255" lon="12.539869199352534"><ele>38.0</ele><time>2026-05-01T08:51:01Z</time></trkpt><trkpt lat="45.986150922004036" lon="12.539750399719582"><ele>38.0</ele><time>2026-05-01T08:51:02Z</time></trkpt><trkpt lat="45.9860389750132" lon="12.539622576356834"><ele>38.0</ele><time>2026-05-01T08:51:03Z</time></trkpt><trkpt lat="45.98592333072815" lon="12.539485360822221"><ele>38.0</ele><time>2026-05-01T08:51:04Z</time></trkpt><trkpt lat="45.98580560756201" lon="12.539332404841382"><ele>38.0</ele><time>2026-05-01T08:51:05Z</time></trkpt><trkpt lat="45.985689936614705" lon="12.539159775890573"><ele>38.0</ele><time>2026-05-01T08:51:06Z</time></trkpt><trkpt lat="45.98558037277063" lon="12.538972129856463"><ele>38.0</ele><time>2026-05-01T08:51:07Z</time></trkpt><trkpt lat="45.985478404941226" lon="12.538777358947202"><ele>38.33333333333333</ele><time>2026-05-01T08:51:08Z</time></trkpt><trkpt lat="45.985376100977795" lon="12.538585728829139"><ele>38.666666666666664</ele><time>2026-05-01T08:51:09Z</time></trkpt><trkpt lat="45.98527405171644" lon="12.5383973034943"><ele>39.0</ele><time>2026-05-01T08:51:10Z</time></trkpt><trkpt lat="45.98516782406164" lon="12.538216644173342"><ele>39.0</ele><time>2026-05-01T08:51:11Z</time></trkpt><trkpt lat="45.98505941427965" lon="12.538042026469654"><ele>39.0</ele><time>2026-05-01T08:51:12Z</time></trkpt><trkpt lat="45.98494637889255" lon="12.537878764900173"><ele>39.0</ele><time>2026-05-01T08:51:13Z</time></trkpt><trkpt lat="45.98483107926731" lon="12.537724290927695"><ele>38.25</ele><time>2026-05-01T08:51:14Z</time></trkpt><trkpt lat="45.98472100790928" lon="12.53758137938347"><ele>37.5</ele><time>2026-05-01T08:51:15Z</time></trkpt><trkpt lat="45.98461375903431" lon="12.53744261497112"><ele>36.75</ele><time>2026-05-01T08:51:16Z</time></trkpt><trkpt lat="45.98450991642096" lon="12.537306649312445"><ele>36.0</ele><time>2026-05-01T08:51:17Z</time></trkpt><trkpt lat="45.9844010350517" lon="12.537167860205177"><ele>36.333333333333336</ele><time>2026-05-01T08:51:18Z</time></trkpt><trkpt lat="45.984290741976345" lon="12.537025438688827"><ele>36.66666666666667</ele><time>2026-05-01T08:51:19Z</time></trkpt><trkpt lat="45.98418145185373" lon="12.536875881725095"><ele>37.0</ele><time>2026-05-01T08:51:20Z</time></trkpt><trkpt lat="45.9840722756413" lon="12.536710719053179"><ele>36.66666666666667</ele><time>2026-05-01T08:51:21Z</time></trkpt><trkpt lat="45.98396913618092" lon="12.536532930147427"><ele>36.333333333333336</ele><time>2026-05-01T08:51:22Z</time></trkpt><trkpt lat="45.98387480929196" lon="12.536342507706635"><ele>36.0</ele><time>2026-05-01T08:51:23Z</time></trkpt><trkpt lat="45.983783695864275" lon="12.53615885714239"><ele>36.0</ele><time>2026-05-01T08:51:24Z</time></trkpt><trkpt lat="45.983688645361916" lon="12.535977241582883"><ele>36.0</ele><time>2026-05-01T08:51:25Z</time></trkpt><trkpt lat="45.98359656694229" lon="12.535796074195828"><ele>36.0</ele><time>2026-05-01T08:51:26Z</time></trkpt><trkpt lat="45.98350552863439" lon="12.535616506676437"><ele>36.0</ele><time>2026-05-01T08:51:27Z</time></trkpt><trkpt lat="45.983418635552155" lon="12.535448048729322"><ele>36.0</ele><time>2026-05-01T08:51:28Z</time></trkpt><trkpt lat="45.98334095197464" lon="12.535306634665254"><ele>36.0</ele><time>2026-05-01T08:51:29Z</time></trkpt><trkpt lat="45.9832655149446" lon="12.535184543990269"><ele>36.0</ele><time>2026-05-01T08:51:30Z</time></trkpt><trkpt lat="45.98318885454863" lon="12.5350777528994"><ele>35.8</ele><time>2026-05-01T08:51:31Z</time></trkpt><trkpt lat="45.98311496754051" lon="12.53498107284188"><ele>35.6</ele><time>2026-05-01T08:51:32Z</time></trkpt><trkpt lat="45.983039706208444" lon="12.534880402645575"><ele>35.4</ele><time>2026-05-01T08:51:33Z</time></trkpt><trkpt lat="45.98295824614522" lon="12.534776174366693"><ele>35.2</ele><time>2026-05-01T08:51:34Z</time></trkpt><trkpt lat="45.98287626445243" lon="12.534664371756737"><ele>35.0</ele><time>2026-05-01T08:51:35Z</time></trkpt><trkpt lat="45.982791607070006" lon="12.534551374866165"><ele>35.0</ele><time>2026-05-01T08:51:36Z</time></trkpt><trkpt lat="45.98270590449329" lon="12.53443811738123"><ele>35.0</ele><time>2026-05-01T08:51:37Z</time></trkpt><trkpt lat="45.982620068931894" lon="12.534324009100972"><ele>35.0</ele><time>2026-05-01T08:51:38Z</time></trkpt><trkpt lat="45.982532850370305" lon="12.534206923373377"><ele>35.0</ele><time>2026-05-01T08:51:39Z</time></trkpt><trkpt lat="45.982443315346046" lon="12.534088193767026"><ele>35.0</ele><time>2026-05-01T08:51:40Z</time></trkpt><trkpt lat="45.982359119045675" lon="12.533978086205577"><ele>35.0</ele><time>2026-05-01T08:51:41Z</time></trkpt><trkpt lat="45.98227368272924" lon="12.53386695855492"><ele>35.0</ele><time>2026-05-01T08:51:42Z</time></trkpt><trkpt lat="45.98218750759148" lon="12.533750761790124"><ele>35.0</ele><time>2026-05-01T08:51:43Z</time></trkpt><trkpt lat="45.9820986306254" lon="12.533631500441608"><ele>35.0</ele><time>2026-05-01T08:51:44Z</time></trkpt><trkpt lat="45.98200544219671" lon="12.533504170050188"><ele>35.0</ele><time>2026-05-01T08:51:45Z</time></trkpt><trkpt lat="45.981902245604815" lon="12.533365339436262"><ele>35.0</ele><time>2026-05-01T08:51:46Z</time></trkpt><trkpt lat="45.98179400363272" lon="12.53322293094926"><ele>35.0</ele><time>2026-05-01T08:51:47Z</time></trkpt><trkpt lat="45.98168151925082" lon="12.533076464704106"><ele>34.666666666666664</ele><time>2026-05-01T08:51:48Z</time></trkpt><trkpt lat="45.98156247771783" lon="12.53292793410475"><ele>34.333333333333336</ele><time>2026-05-01T08:51:49Z</time></trkpt><trkpt lat="45.98143936659552" lon="12.532779164146508"><ele>34.0</ele><time>2026-05-01T08:51:49.999Z</time></trkpt><trkpt lat="45.981311531417624" lon="12.532626311171244"><ele>33.0</ele><time>2026-05-01T08:51:50.999Z</time></trkpt><trkpt lat="45.98117979133664" lon="12.53247457485321"><ele>32.0</ele><time>2026-05-01T08:51:51.999Z</time></trkpt><trkpt lat="45.981044983423075" lon="12.532324812079722"><ele>31.0</ele><time>2026-05-01T08:51:52.999Z</time></trkpt><trkpt lat="45.980913551196394" lon="12.532179650258477"><ele>31.0</ele><time>2026-05-01T08:51:53.999Z</time></trkpt><trkpt lat="45.98079042800579" lon="12.532039913017337"><ele>31.0</ele><time>2026-05-01T08:51:54.999Z</time></trkpt><trkpt lat="45.98066813150736" lon="12.53190493470264"><ele>31.0</ele><time>2026-05-01T08:51:55.999Z</time></trkpt><trkpt lat="45.98054786284675" lon="12.531771229279572"><ele>31.0</ele><time>2026-05-01T08:51:56.999Z</time></trkpt><trkpt lat="45.980429896568424" lon="12.531641992414155"><ele>31.0</ele><time>2026-05-01T08:51:57.999Z</time></trkpt><trkpt lat="45.98031521415684" lon="12.531519805393408"><ele>31.0</ele><time>2026-05-01T08:51:58.999Z</time></trkpt><trkpt lat="45.980204002812" lon="12.531402488409338"><ele>31.0</ele><time>2026-05-01T08:51:59.999Z</time></trkpt><trkpt lat="45.98009707287053" lon="12.53128501570326"><ele>31.25</ele><time>2026-05-01T08:52:00.999Z</time></trkpt><trkpt lat="45.979988560678734" lon="12.531168167655752"><ele>31.5</ele><time>2026-05-01T08:52:01.999Z</time></trkpt><trkpt lat="45.979877889870124" lon="12.53105036424987"><ele>31.75</ele><time>2026-05-01T08:52:02.999Z</time></trkpt><trkpt lat="45.97976724068414" lon="12.53093181945094"><ele>32.0</ele><time>2026-05-01T08:52:03.999Z</time></trkpt><trkpt lat="45.97965777513137" lon="12.530811284004074"><ele>32.0</ele><time>2026-05-01T08:52:04.999Z</time></trkpt><trkpt lat="45.979546975354246" lon="12.530690388346498"><ele>32.0</ele><time>2026-05-01T08:52:05.999Z</time></trkpt><trkpt lat="45.97943462027386" lon="12.530570793425035"><ele>32.0</ele><time>2026-05-01T08:52:06.999Z</time></trkpt><trkpt lat="45.97932000545904" lon="12.530450605882129"><ele>32.0</ele><time>2026-05-01T08:52:07.999Z</time></trkpt><trkpt lat="45.97920553068845" lon="12.530333297830369"><ele>32.5</ele><time>2026-05-01T08:52:08.999Z</time></trkpt><trkpt lat="45.97909081414516" lon="12.530223797682197"><ele>33.0</ele><time>2026-05-01T08:52:09.999Z</time></trkpt><trkpt lat="45.97898574848911" lon="12.530132932572277"><ele>33.5</ele><time>2026-05-01T08:52:10.999Z</time></trkpt><trkpt lat="45.97888678428819" lon="12.530052878488934"><ele>34.0</ele><time>2026-05-01T08:52:11.999Z</time></trkpt><trkpt lat="45.97879909772833" lon="12.529988070188567"><ele>34.0</ele><time>2026-05-01T08:52:12.999Z</time></trkpt><trkpt lat="45.97871800263597" lon="12.529932010625762"><ele>34.0</ele><time>2026-05-01T08:52:13.999Z</time></trkpt><trkpt lat="45.97864853698103" lon="12.529884030027613"><ele>34.0</ele><time>2026-05-01T08:52:14.999Z</time></trkpt><trkpt lat="45.978591082719525" lon="12.52984504808019"><ele>34.0</ele><time>2026-05-01T08:52:15.999Z</time></trkpt><trkpt lat="45.97850112325094" lon="12.529776590740003"><ele>34.0</ele><time>2026-05-01T08:52:17.999Z</time></trkpt><trkpt lat="45.978426277086726" lon="12.529701642418733"><ele>34.0</ele><time>2026-05-01T08:52:19.999Z</time></trkpt><trkpt lat="45.97836223560535" lon="12.529610737659732"><ele>33.833333333333336</ele><time>2026-05-01T08:52:30Z</time></trkpt><trkpt lat="45.978317401788665" lon="12.529450738300518"><ele>33.66666666666667</ele><time>2026-05-01T08:52:32Z</time></trkpt><trkpt lat="45.978279353447434" lon="12.529353683460574"><ele>33.5</ele><time>2026-05-01T08:52:33Z</time></trkpt><trkpt lat="45.978214064712624" lon="12.529282407684452"><ele>33.333333333333336</ele><time>2026-05-01T08:52:34Z</time></trkpt><trkpt lat="45.978134726275485" lon="12.529260817021026"><ele>33.166666666666664</ele><time>2026-05-01T08:52:35Z</time></trkpt><trkpt lat="45.97806474898568" lon="12.529279637930943"><ele>33.0</ele><time>2026-05-01T08:52:36Z</time></trkpt><trkpt lat="45.977999050610016" lon="12.529336957652337"><ele>33.0</ele><time>2026-05-01T08:52:37Z</time></trkpt><trkpt lat="45.97789179263292" lon="12.529304352388783"><ele>33.0</ele><time>2026-05-01T08:52:38Z</time></trkpt><trkpt lat="45.977789063690274" lon="12.52928162439164"><ele>33.0</ele><time>2026-05-01T08:52:39Z</time></trkpt><trkpt lat="45.97768127376605" lon="12.529244326033057"><ele>33.0</ele><time>2026-05-01T08:52:40Z</time></trkpt><trkpt lat="45.97757109005683" lon="12.529189176140651"><ele>33.0</ele><time>2026-05-01T08:52:41Z</time></trkpt><trkpt lat="45.9774611434832" lon="12.529136028456149"><ele>32.75</ele><time>2026-05-01T08:52:42Z</time></trkpt><trkpt lat="45.97734661893776" lon="12.529069069560412"><ele>32.5</ele><time>2026-05-01T08:52:43Z</time></trkpt><trkpt lat="45.97722744698269" lon="12.52898982860586"><ele>32.25</ele><time>2026-05-01T08:52:44Z</time></trkpt><trkpt lat="45.97709968679142" lon="12.528909997837527"><ele>32.0</ele><time>2026-05-01T08:52:45Z</time></trkpt><trkpt lat="45.97696913311746" lon="12.528827552490872"><ele>32.0</ele><time>2026-05-01T08:52:46Z</time></trkpt><trkpt lat="45.976841753938395" lon="12.528741008666008"><ele>32.0</ele><time>2026-05-01T08:52:47Z</time></trkpt><trkpt lat="45.97671500549667" lon="12.528652522478835"><ele>32.0</ele><time>2026-05-01T08:52:48Z</time></trkpt><trkpt lat="45.97658888397628" lon="12.528559285364699"><ele>32.0</ele><time>2026-05-01T08:52:49Z</time></trkpt><trkpt lat="45.97646631907946" lon="12.528461935990508"><ele>32.0</ele><time>2026-05-01T08:52:50Z</time></trkpt><trkpt lat="45.97634546852136" lon="12.52836244843056"><ele>32.0</ele><time>2026-05-01T08:52:51Z</time></trkpt><trkpt lat="45.97623134726501" lon="12.528259485646084"><ele>32.0</ele><time>2026-05-01T08:52:52Z</time></trkpt><trkpt lat="45.97612363568933" lon="12.528153380561703"><ele>32.0</ele><time>2026-05-01T08:52:53Z</time></trkpt><trkpt lat="45.97601694274053" lon="12.528042885754322"><ele>32.0</ele><time>2026-05-01T08:52:54Z</time></trkpt><trkpt lat="45.97591168403869" lon="12.527925652714002"><ele>32.0</ele><time>2026-05-01T08:52:55Z</time></trkpt><trkpt lat="45.97580616385541" lon="12.527803458128005"><ele>32.0</ele><time>2026-05-01T08:52:56Z</time></trkpt><trkpt lat="45.97569580293518" lon="12.527683793303272"><ele>32.0</ele><time>2026-05-01T08:52:57Z</time></trkpt><trkpt lat="45.97558358354762" lon="12.527557364048452"><ele>31.5</ele><time>2026-05-01T08:52:58Z</time></trkpt><trkpt lat="45.97547236195932" lon="12.527423527991846"><ele>31.0</ele><time>2026-05-01T08:52:59Z</time></trkpt><trkpt lat="45.97535917989866" lon="12.527291086372779"><ele>30.5</ele><time>2026-05-01T08:53:00Z</time></trkpt><trkpt lat="45.975249355477146" lon="12.527164793886497"><ele>30.0</ele><time>2026-05-01T08:53:01Z</time></trkpt><trkpt lat="45.9751553697946" lon="12.52705484684171"><ele>30.0</ele><time>2026-05-01T08:53:02Z</time></trkpt><trkpt lat="45.975067091107384" lon="12.526952093280919"><ele>30.0</ele><time>2026-05-01T08:53:03Z</time></trkpt><trkpt lat="45.974978400605146" lon="12.526847005846928"><ele>30.0</ele><time>2026-05-01T08:53:04Z</time></trkpt><trkpt lat="45.974892843687215" lon="12.526737707422143"><ele>30.0</ele><time>2026-05-01T08:53:05Z</time></trkpt><trkpt lat="45.97480734171167" lon="12.526630852746399"><ele>30.0</ele><time>2026-05-01T08:53:06Z</time></trkpt><trkpt lat="45.974719715842724" lon="12.526526880214833"><ele>30.0</ele><time>2026-05-01T08:53:07Z</time></trkpt><trkpt lat="45.9746337838772" lon="12.526421903528432"><ele>30.0</ele><time>2026-05-01T08:53:08Z</time></trkpt><trkpt lat="45.974548571884036" lon="12.526317600759782"><ele>30.0</ele><time>2026-05-01T08:53:09Z</time></trkpt><trkpt lat="45.97446312333863" lon="12.526212118672351"><ele>30.0</ele><time>2026-05-01T08:53:10Z</time></trkpt><trkpt lat="45.97437640998003" lon="12.526102438931238"><ele>30.0</ele><time>2026-05-01T08:53:11Z</time></trkpt><trkpt lat="45.97428650341923" lon="12.525988877154258"><ele>30.0</ele><time>2026-05-01T08:53:12Z</time></trkpt><trkpt lat="45.9741934962644" lon="12.525869863116606"><ele>30.0</ele><time>2026-05-01T08:53:13Z</time></trkpt><trkpt lat="45.97410006362334" lon="12.525742529644244"><ele>30.0</ele><time>2026-05-01T08:53:14Z</time></trkpt><trkpt lat="45.97399824951514" lon="12.525608873730402"><ele>30.0</ele><time>2026-05-01T08:53:15Z</time></trkpt><trkpt lat="45.973890049985464" lon="12.525465008115434"><ele>30.0</ele><time>2026-05-01T08:53:16Z</time></trkpt><trkpt lat="45.973782470507835" lon="12.52531806979661"><ele>30.0</ele><time>2026-05-01T08:53:17Z</time></trkpt><trkpt lat="45.9736761789881" lon="12.525171922564516"><ele>30.25</ele><time>2026-05-01T08:53:18Z</time></trkpt><trkpt lat="45.97357020376097" lon="12.525027841894829"><ele>30.5</ele><time>2026-05-01T08:53:19Z</time></trkpt><trkpt lat="45.97346533389685" lon="12.524885670417458"><ele>30.75</ele><time>2026-05-01T08:53:20Z</time></trkpt><trkpt lat="45.973364100038445" lon="12.524750291555064"><ele>31.0</ele><time>2026-05-01T08:53:21Z</time></trkpt><trkpt lat="45.97326851815419" lon="12.524619960782148"><ele>30.5</ele><time>2026-05-01T08:53:22Z</time></trkpt><trkpt lat="45.97317368433231" lon="12.524491267919991"><ele>30.0</ele><time>2026-05-01T08:53:23Z</time></trkpt><trkpt lat="45.97307807395641" lon="12.524360584792358"><ele>29.5</ele><time>2026-05-01T08:53:24Z</time></trkpt><trkpt lat="45.9729818590197" lon="12.524228554799565"><ele>29.0</ele><time>2026-05-01T08:53:25Z</time></trkpt><trkpt lat="45.97288517438763" lon="12.524096155169422"><ele>29.0</ele><time>2026-05-01T08:53:26Z</time></trkpt><trkpt lat="45.972785586146664" lon="12.523961201598974"><ele>29.0</ele><time>2026-05-01T08:53:27Z</time></trkpt><trkpt lat="45.97268345852075" lon="12.523819625591823"><ele>29.0</ele><time>2026-05-01T08:53:28Z</time></trkpt><trkpt lat="45.972579550295826" lon="12.52367624644537"><ele>29.0</ele><time>2026-05-01T08:53:29Z</time></trkpt><trkpt lat="45.972474849704625" lon="12.523530955664526"><ele>28.75</ele><time>2026-05-01T08:53:30Z</time></trkpt><trkpt lat="45.97236958443011" lon="12.523386630487796"><ele>28.5</ele><time>2026-05-01T08:53:31Z</time></trkpt><trkpt lat="45.972264476957875" lon="12.523248037891507"><ele>28.25</ele><time>2026-05-01T08:53:32Z</time></trkpt><trkpt lat="45.97216071697294" lon="12.523107108396722"><ele>28.0</ele><time>2026-05-01T08:53:33Z</time></trkpt><trkpt lat="45.97205606733535" lon="12.522963382364024"><ele>28.5</ele><time>2026-05-01T08:53:34Z</time></trkpt><trkpt lat="45.971948680206516" lon="12.522818408374423"><ele>29.0</ele><time>2026-05-01T08:53:35Z</time></trkpt><trkpt lat="45.97184060695938" lon="12.522670648566269"><ele>29.5</ele><time>2026-05-01T08:53:36Z</time></trkpt><trkpt lat="45.971732077645626" lon="12.522515242179992"><ele>30.0</ele><time>2026-05-01T08:53:37Z</time></trkpt><trkpt lat="45.97162283800914" lon="12.522367858824774"><ele>30.0</ele><time>2026-05-01T08:53:38Z</time></trkpt><trkpt lat="45.97151620063756" lon="12.522223376943368"><ele>30.0</ele><time>2026-05-01T08:53:39Z</time></trkpt><trkpt lat="45.97141212453542" lon="12.522083511004737"><ele>30.0</ele><time>2026-05-01T08:53:40Z</time></trkpt><trkpt lat="45.97131277381281" lon="12.521944846763288"><ele>30.0</ele><time>2026-05-01T08:53:41Z</time></trkpt><trkpt lat="45.97121629883405" lon="12.521811837517328"><ele>29.75</ele><time>2026-05-01T08:53:42Z</time></trkpt><trkpt lat="45.971118563182024" lon="12.521677639397463"><ele>29.5</ele><time>2026-05-01T08:53:43Z</time></trkpt><trkpt lat="45.971021154820896" lon="12.521543944142742"><ele>29.25</ele><time>2026-05-01T08:53:44Z</time></trkpt><trkpt lat="45.970923339367246" lon="12.521410093070253"><ele>29.0</ele><time>2026-05-01T08:53:45Z</time></trkpt><trkpt lat="45.97082499893339" lon="12.521272532966401"><ele>28.5</ele><time>2026-05-01T08:53:46Z</time></trkpt><trkpt lat="45.970725968418755" lon="12.521133228918849"><ele>28.0</ele><time>2026-05-01T08:53:47Z</time></trkpt><trkpt lat="45.97062208845415" lon="12.520993261037436"><ele>27.5</ele><time>2026-05-01T08:53:48Z</time></trkpt><trkpt lat="45.97051160819999" lon="12.520851708990188"><ele>27.0</ele><time>2026-05-01T08:53:49Z</time></trkpt><trkpt lat="45.97040015956814" lon="12.520702559254694"><ele>27.0</ele><time>2026-05-01T08:53:50Z</time></trkpt><trkpt lat="45.97028326105591" lon="12.520546316352492"><ele>27.0</ele><time>2026-05-01T08:53:51Z</time></trkpt><trkpt lat="45.97016441837853" lon="12.520390520318312"><ele>27.0</ele><time>2026-05-01T08:53:52Z</time></trkpt><trkpt lat="45.970047063528305" lon="12.520234692204044"><ele>27.0</ele><time>2026-05-01T08:53:53Z</time></trkpt><trkpt lat="45.96993200732306" lon="12.520081273042768"><ele>27.0</ele><time>2026-05-01T08:53:54Z</time></trkpt><trkpt lat="45.96981474161319" lon="12.51992492817886"><ele>27.0</ele><time>2026-05-01T08:53:54.999Z</time></trkpt><trkpt lat="45.96969244160018" lon="12.519765832463925"><ele>27.0</ele><time>2026-05-01T08:53:55.999Z</time></trkpt><trkpt lat="45.96956720716977" lon="12.519603339746386"><ele>27.0</ele><time>2026-05-01T08:53:56.999Z</time></trkpt><trkpt lat="45.96943783055617" lon="12.519433198261346"><ele>27.0</ele><time>2026-05-01T08:53:57.999Z</time></trkpt><trkpt lat="45.969307867933445" lon="12.519260736557557"><ele>27.0</ele><time>2026-05-01T08:53:58.999Z</time></trkpt><trkpt lat="45.969178009320096" lon="12.519090599319677"><ele>27.0</ele><time>2026-05-01T08:53:59.999Z</time></trkpt><trkpt lat="45.96904531839575" lon="12.518920976488403"><ele>27.0</ele><time>2026-05-01T08:54:00.999Z</time></trkpt><trkpt lat="45.96891060694826" lon="12.518756067768344"><ele>26.333333333333336</ele><time>2026-05-01T08:54:01.999Z</time></trkpt><trkpt lat="45.96877653745566" lon="12.518585683651512"><ele>25.666666666666668</ele><time>2026-05-01T08:54:02.999Z</time></trkpt><trkpt lat="45.96863921216372" lon="12.518406476925481"><ele>25.0</ele><time>2026-05-01T08:54:03.999Z</time></trkpt><trkpt lat="45.96850069103954" lon="12.518230276889128"><ele>25.0</ele><time>2026-05-01T08:54:04.999Z</time></trkpt><trkpt lat="45.968366053751154" lon="12.518056152788755"><ele>25.0</ele><time>2026-05-01T08:54:05.999Z</time></trkpt><trkpt lat="45.96823468487027" lon="12.51788295111236"><ele>25.0</ele><time>2026-05-01T08:54:06.999Z</time></trkpt><trkpt lat="45.96811035021867" lon="12.517717253350153"><ele>25.0</ele><time>2026-05-01T08:54:07.999Z</time></trkpt><trkpt lat="45.96799271569933" lon="12.5175632872716"><ele>25.0</ele><time>2026-05-01T08:54:08.999Z</time></trkpt><trkpt lat="45.967874940456156" lon="12.517408009933723"><ele>25.0</ele><time>2026-05-01T08:54:09.999Z</time></trkpt><trkpt lat="45.96775598581201" lon="12.517251010490762"><ele>25.0</ele><time>2026-05-01T08:54:10.999Z</time></trkpt><trkpt lat="45.96763772014329" lon="12.51709480611624"><ele>25.0</ele><time>2026-05-01T08:54:11.999Z</time></trkpt><trkpt lat="45.9675297732723" lon="12.516950399701958"><ele>25.0</ele><time>2026-05-01T08:54:12.999Z</time></trkpt><trkpt lat="45.96742725324238" lon="12.516812769500019"><ele>25.0</ele><time>2026-05-01T08:54:13.999Z</time></trkpt><trkpt lat="45.96733251526842" lon="12.516680684919809"><ele>25.25</ele><time>2026-05-01T08:54:14.999Z</time></trkpt><trkpt lat="45.96724830732866" lon="12.51655725004771"><ele>25.5</ele><time>2026-05-01T08:54:15.999Z</time></trkpt><trkpt lat="45.9671667298236" lon="12.516435015873066"><ele>25.75</ele><time>2026-05-01T08:54:16.999Z</time></trkpt><trkpt lat="45.96708071651855" lon="12.516299410372683"><ele>26.0</ele><time>2026-05-01T08:54:17.999Z</time></trkpt><trkpt lat="45.96698350253686" lon="12.516140965801926"><ele>26.0</ele><time>2026-05-01T08:54:18.999Z</time></trkpt><trkpt lat="45.96686439587307" lon="12.515960367586366"><ele>26.0</ele><time>2026-05-01T08:54:19.999Z</time></trkpt><trkpt lat="45.966752995800654" lon="12.515815589044882"><ele>26.0</ele><time>2026-05-01T08:54:20.999Z</time></trkpt><trkpt lat="45.96662912102662" lon="12.515679439300513"><ele>25.666666666666664</ele><time>2026-05-01T08:54:21.999Z</time></trkpt><trkpt lat="45.9665041443342" lon="12.515547321227425"><ele>25.333333333333336</ele><time>2026-05-01T08:54:22.999Z</time></trkpt><trkpt lat="45.966378445522494" lon="12.515413345620212"><ele>25.0</ele><time>2026-05-01T08:54:23.999Z</time></trkpt><trkpt lat="45.966252724691046" lon="12.515278645600127"><ele>25.666666666666668</ele><time>2026-05-01T08:54:24.999Z</time></trkpt><trkpt lat="45.96613283602149" lon="12.51514785307026"><ele>26.333333333333336</ele><time>2026-05-01T08:54:25.999Z</time></trkpt><trkpt lat="45.965992187619435" lon="12.514992500294804"><ele>27.0</ele><time>2026-05-01T08:54:26.999Z</time></trkpt><trkpt lat="45.96584456447341" lon="12.51484007021233"><ele>27.0</ele><time>2026-05-01T08:54:28Z</time></trkpt><trkpt lat="45.96569486458273" lon="12.51468638698974"><ele>27.0</ele><time>2026-05-01T08:54:29Z</time></trkpt><trkpt lat="45.96555029752845" lon="12.514530312415573"><ele>27.0</ele><time>2026-05-01T08:54:30Z</time></trkpt><trkpt lat="45.96540450865679" lon="12.51437345255862"><ele>26.666666666666664</ele><time>2026-05-01T08:54:31Z</time></trkpt><trkpt lat="45.96525708692334" lon="12.514217248595363"><ele>26.333333333333332</ele><time>2026-05-01T08:54:32Z</time></trkpt><trkpt lat="45.965117288293314" lon="12.51407021787953"><ele>26.0</ele><time>2026-05-01T08:54:33Z</time></trkpt><trkpt lat="45.96498092569545" lon="12.513930170931545"><ele>26.0</ele><time>2026-05-01T08:54:34Z</time></trkpt><trkpt lat="45.96484297519676" lon="12.513802801880912"><ele>26.0</ele><time>2026-05-01T08:54:35Z</time></trkpt><trkpt lat="45.96470869985801" lon="12.513695300830006"><ele>26.0</ele><time>2026-05-01T08:54:36Z</time></trkpt><trkpt lat="45.96458346806228" lon="12.513608969216053"><ele>26.0</ele><time>2026-05-01T08:54:37Z</time></trkpt><trkpt lat="45.964454604879286" lon="12.513523612624377"><ele>26.0</ele><time>2026-05-01T08:54:38Z</time></trkpt><trkpt lat="45.96432678231889" lon="12.513437145905549"><ele>26.0</ele><time>2026-05-01T08:54:39Z</time></trkpt><trkpt lat="45.96420008848927" lon="12.51335054022605"><ele>26.0</ele><time>2026-05-01T08:54:40Z</time></trkpt><trkpt lat="45.96407094306583" lon="12.513261331151067"><ele>26.0</ele><time>2026-05-01T08:54:41Z</time></trkpt><trkpt lat="45.96393793330765" lon="12.513168299978295"><ele>26.0</ele><time>2026-05-01T08:54:42Z</time></trkpt><trkpt lat="45.96380201959578" lon="12.513064843087793"><ele>26.0</ele><time>2026-05-01T08:54:43Z</time></trkpt><trkpt lat="45.96367063393262" lon="12.512945837152678"><ele>26.0</ele><time>2026-05-01T08:54:44Z</time></trkpt><trkpt lat="45.96354027978312" lon="12.512817696248678"><ele>26.0</ele><time>2026-05-01T08:54:45Z</time></trkpt><trkpt lat="45.963411137435315" lon="12.512683575004589"><ele>26.0</ele><time>2026-05-01T08:54:46Z</time></trkpt><trkpt lat="45.9632861107083" lon="12.512544904829344"><ele>25.75</ele><time>2026-05-01T08:54:47Z</time></trkpt><trkpt lat="45.96317030806734" lon="12.51242011179288"><ele>25.5</ele><time>2026-05-01T08:54:48Z</time></trkpt><trkpt lat="45.963059772824955" lon="12.512303310619275"><ele>25.25</ele><time>2026-05-01T08:54:49Z</time></trkpt><trkpt lat="45.96294816865695" lon="12.512181380972443"><ele>25.0</ele><time>2026-05-01T08:54:50Z</time></trkpt><trkpt lat="45.96283231577723" lon="12.512058721601411"><ele>25.0</ele><time>2026-05-01T08:54:51Z</time></trkpt><trkpt lat="45.96271416127364" lon="12.511934883059293"><ele>25.0</ele><time>2026-05-01T08:54:52Z</time></trkpt><trkpt lat="45.96260094056042" lon="12.511808108885061"><ele>25.0</ele><time>2026-05-01T08:54:53Z</time></trkpt><trkpt lat="45.96248783378925" lon="12.511686840087762"><ele>25.0</ele><time>2026-05-01T08:54:54Z</time></trkpt><trkpt lat="45.96237729611799" lon="12.511568910303138"><ele>25.25</ele><time>2026-05-01T08:54:55Z</time></trkpt><trkpt lat="45.96227311424155" lon="12.511461774795281"><ele>25.5</ele><time>2026-05-01T08:54:56Z</time></trkpt><trkpt lat="45.9621782643027" lon="12.511357574899431"><ele>25.75</ele><time>2026-05-01T08:54:57Z</time></trkpt><trkpt lat="45.962078023276185" lon="12.511250696130931"><ele>26.0</ele><time>2026-05-01T08:54:58Z</time></trkpt><trkpt lat="45.96197585482293" lon="12.511142454208546"><ele>26.0</ele><time>2026-05-01T08:54:59Z</time></trkpt><trkpt lat="45.961872750896134" lon="12.51103953269233"><ele>26.0</ele><time>2026-05-01T08:55:00Z</time></trkpt><trkpt lat="45.961772212434845" lon="12.510937036882565"><ele>26.0</ele><time>2026-05-01T08:55:01Z</time></trkpt><trkpt lat="45.96167179597749" lon="12.510833803491783"><ele>26.0</ele><time>2026-05-01T08:55:02Z</time></trkpt><trkpt lat="45.961581244442" lon="12.51070898564356"><ele>26.0</ele><time>2026-05-01T08:55:03Z</time></trkpt><trkpt lat="45.961482657197365" lon="12.510599768104223"><ele>26.0</ele><time>2026-05-01T08:55:04Z</time></trkpt><trkpt lat="45.96138105075333" lon="12.510514660631525"><ele>26.0</ele><time>2026-05-01T08:55:05Z</time></trkpt><trkpt lat="45.96129480795846" lon="12.510414838840589"><ele>26.0</ele><time>2026-05-01T08:55:06Z</time></trkpt><trkpt lat="45.961213620447076" lon="12.510316749093846"><ele>26.0</ele><time>2026-05-01T08:55:07Z</time></trkpt><trkpt lat="45.961136527693306" lon="12.510225425593891"><ele>26.0</ele><time>2026-05-01T08:55:08Z</time></trkpt><trkpt lat="45.96106301470515" lon="12.51013833423836"><ele>26.0</ele><time>2026-05-01T08:55:09Z</time></trkpt><trkpt lat="45.96098352156414" lon="12.51004833861009"><ele>26.0</ele><time>2026-05-01T08:55:10Z</time></trkpt><trkpt lat="45.96090604888961" lon="12.509958710301898"><ele>26.0</ele><time>2026-05-01T08:55:11Z</time></trkpt><trkpt lat="45.96082434681822" lon="12.50986298131846"><ele>26.0</ele><time>2026-05-01T08:55:12Z</time></trkpt><trkpt lat="45.96074020715511" lon="12.509766214215512"><ele>26.0</ele><time>2026-05-01T08:55:13Z</time></trkpt><trkpt lat="45.960661831276845" lon="12.509673880660168"><ele>26.0</ele><time>2026-05-01T08:55:14Z</time></trkpt><trkpt lat="45.960588532042934" lon="12.50958769000631"><ele>26.0</ele><time>2026-05-01T08:55:15Z</time></trkpt><trkpt lat="45.9605205692166" lon="12.50949914200304"><ele>26.0</ele><time>2026-05-01T08:55:16Z</time></trkpt><trkpt lat="45.96045961002608" lon="12.509416427713923"><ele>25.833333333333332</ele><time>2026-05-01T08:55:17Z</time></trkpt><trkpt lat="45.960406663800136" lon="12.509341927714567"><ele>25.666666666666664</ele><time>2026-05-01T08:55:18Z</time></trkpt><trkpt lat="45.9603569992159" lon="12.509267777353225"><ele>25.5</ele><time>2026-05-01T08:55:19Z</time></trkpt><trkpt lat="45.960308606866" lon="12.509185825129938"><ele>25.333333333333336</ele><time>2026-05-01T08:55:21Z</time></trkpt><trkpt lat="45.960272754764794" lon="12.509082404354615"><ele>25.166666666666668</ele><time>2026-05-01T08:55:25Z</time></trkpt><trkpt lat="45.96021532876255" lon="12.508924593357968"><ele>25.0</ele><time>2026-05-01T08:55:27Z</time></trkpt><trkpt lat="45.96017480958343" lon="12.508826100977581"><ele>25.0</ele><time>2026-05-01T08:55:28Z</time></trkpt><trkpt lat="45.960127011447234" lon="12.508704371173021"><ele>25.0</ele><time>2026-05-01T08:55:29Z</time></trkpt><trkpt lat="45.960090338434846" lon="12.508557249417866"><ele>25.0</ele><time>2026-05-01T08:55:30Z</time></trkpt><trkpt lat="45.9600645788124" lon="12.508401975642117"><ele>25.0</ele><time>2026-05-01T08:55:31Z</time></trkpt><trkpt lat="45.9600423505891" lon="12.508248249298566"><ele>25.0</ele><time>2026-05-01T08:55:32Z</time></trkpt><trkpt lat="45.96002401130834" lon="12.508103758489868"><ele>25.0</ele><time>2026-05-01T08:55:33Z</time></trkpt><trkpt lat="45.96001543781676" lon="12.507960578103194"><ele>25.0</ele><time>2026-05-01T08:55:34Z</time></trkpt><trkpt lat="45.9600085059673" lon="12.507812963552967"><ele>25.0</ele><time>2026-05-01T08:55:35Z</time></trkpt><trkpt lat="45.960000583650285" lon="12.507657980395772"><ele>25.0</ele><time>2026-05-01T08:55:36Z</time></trkpt><trkpt lat="45.95999341978919" lon="12.507493609427533"><ele>25.0</ele><time>2026-05-01T08:55:37Z</time></trkpt><trkpt lat="45.95998538831793" lon="12.507326198554392"><ele>25.0</ele><time>2026-05-01T08:55:38Z</time></trkpt><trkpt lat="45.9599769919032" lon="12.507155783405123"><ele>25.0</ele><time>2026-05-01T08:55:39Z</time></trkpt><trkpt lat="45.95996739523596" lon="12.506979744544998"><ele>25.0</ele><time>2026-05-01T08:55:40Z</time></trkpt><trkpt lat="45.95995751626404" lon="12.506798424732393"><ele>25.0</ele><time>2026-05-01T08:55:41Z</time></trkpt><trkpt lat="45.9599467528224" lon="12.506616060521836"><ele>25.0</ele><time>2026-05-01T08:55:42Z</time></trkpt><trkpt lat="45.959936424365644" lon="12.506436066122495"><ele>25.0</ele><time>2026-05-01T08:55:43Z</time></trkpt><trkpt lat="45.959924441116286" lon="12.506248557501278"><ele>25.0</ele><time>2026-05-01T08:55:44Z</time></trkpt><trkpt lat="45.95990833817615" lon="12.506057267040623"><ele>25.0</ele><time>2026-05-01T08:55:45Z</time></trkpt><trkpt lat="45.95988900266238" lon="12.505859132783135"><ele>25.0</ele><time>2026-05-01T08:55:46Z</time></trkpt><trkpt lat="45.95986432285051" lon="12.50565605205116"><ele>25.0</ele><time>2026-05-01T08:55:47Z</time></trkpt><trkpt lat="45.95983339854533" lon="12.505455674222901"><ele>25.0</ele><time>2026-05-01T08:55:48Z</time></trkpt><trkpt lat="45.95979920468215" lon="12.505256069686258"><ele>25.0</ele><time>2026-05-01T08:55:49Z</time></trkpt><trkpt lat="45.95976197254672" lon="12.50505598413752"><ele>25.0</ele><time>2026-05-01T08:55:50Z</time></trkpt><trkpt lat="45.95972711349798" lon="12.504861734673806"><ele>25.0</ele><time>2026-05-01T08:55:51Z</time></trkpt><trkpt lat="45.95969465001979" lon="12.504678235813241"><ele>25.0</ele><time>2026-05-01T08:55:52Z</time></trkpt><trkpt lat="45.95966199390761" lon="12.504506580789593"><ele>25.0</ele><time>2026-05-01T08:55:53Z</time></trkpt><trkpt lat="45.95963131410081" lon="12.504336447484588"><ele>25.0</ele><time>2026-05-01T08:55:54Z</time></trkpt><trkpt lat="45.95959986829379" lon="12.504163181208122"><ele>25.0</ele><time>2026-05-01T08:55:55Z</time></trkpt><trkpt lat="45.95956554155698" lon="12.503987192733703"><ele>25.0</ele><time>2026-05-01T08:55:56Z</time></trkpt><trkpt lat="45.95952873792483" lon="12.503804691214874"><ele>25.0</ele><time>2026-05-01T08:55:57Z</time></trkpt><trkpt lat="45.95949390933741" lon="12.503616196542604"><ele>25.25</ele><time>2026-05-01T08:55:58Z</time></trkpt><trkpt lat="45.95945954039639" lon="12.503421323408443"><ele>25.5</ele><time>2026-05-01T08:55:59Z</time></trkpt><trkpt lat="45.95942404510407" lon="12.503216696800633"><ele>25.75</ele><time>2026-05-01T08:56:00Z</time></trkpt><trkpt lat="45.95938642511091" lon="12.503003730892814"><ele>26.0</ele><time>2026-05-01T08:56:01Z</time></trkpt><trkpt lat="45.95934834582748" lon="12.50278670081892"><ele>26.0</ele><time>2026-05-01T08:56:01.999Z</time></trkpt><trkpt lat="45.95930452647425" lon="12.502554525857285"><ele>26.0</ele><time>2026-05-01T08:56:02.999Z</time></trkpt><trkpt lat="45.95926211778337" lon="12.502321799953263"><ele>26.0</ele><time>2026-05-01T08:56:03.999Z</time></trkpt><trkpt lat="45.959223522229784" lon="12.502112962343826"><ele>26.25</ele><time>2026-05-01T08:56:04.999Z</time></trkpt><trkpt lat="45.959187528963355" lon="12.501923757568736"><ele>26.5</ele><time>2026-05-01T08:56:05.999Z</time></trkpt><trkpt lat="45.95915798586168" lon="12.50175992174003"><ele>26.75</ele><time>2026-05-01T08:56:06.999Z</time></trkpt><trkpt lat="45.95913356263962" lon="12.501615989493615"><ele>27.0</ele><time>2026-05-01T08:56:07.999Z</time></trkpt><trkpt lat="45.95910936019148" lon="12.501470841236737"><ele>27.0</ele><time>2026-05-01T08:56:08.999Z</time></trkpt><trkpt lat="45.95908677288723" lon="12.501335953884587"><ele>27.0</ele><time>2026-05-01T08:56:09.999Z</time></trkpt><trkpt lat="45.95906761490831" lon="12.50121712447787"><ele>27.0</ele><time>2026-05-01T08:56:10.999Z</time></trkpt><trkpt lat="45.95904870516218" lon="12.501106652117212"><ele>27.0</ele><time>2026-05-01T08:56:11.999Z</time></trkpt><trkpt lat="45.959027758125266" lon="12.500990079986337"><ele>27.0</ele><time>2026-05-01T08:56:12.999Z</time></trkpt><trkpt lat="45.95900519594802" lon="12.500876502766031"><ele>27.0</ele><time>2026-05-01T08:56:13.999Z</time></trkpt><trkpt lat="45.958980701159874" lon="12.500764332932087"><ele>26.666666666666668</ele><time>2026-05-01T08:56:14.999Z</time></trkpt><trkpt lat="45.958954857551184" lon="12.500650346167008"><ele>26.333333333333336</ele><time>2026-05-01T08:56:15.999Z</time></trkpt><trkpt lat="45.95892887854633" lon="12.50053553168694"><ele>26.0</ele><time>2026-05-01T08:56:16.999Z</time></trkpt><trkpt lat="45.958901215926396" lon="12.500416399753801"><ele>25.666666666666668</ele><time>2026-05-01T08:56:17.999Z</time></trkpt><trkpt lat="45.95888197250562" lon="12.500295423495078"><ele>25.333333333333336</ele><time>2026-05-01T08:56:18.999Z</time></trkpt><trkpt lat="45.958873412558454" lon="12.50017479019955"><ele>25.0</ele><time>2026-05-01T08:56:19.999Z</time></trkpt><trkpt lat="45.95886159842221" lon="12.500053534044048"><ele>25.0</ele><time>2026-05-01T08:56:20.999Z</time></trkpt><trkpt lat="45.95883729161457" lon="12.499927585652944"><ele>25.0</ele><time>2026-05-01T08:56:21.999Z</time></trkpt><trkpt lat="45.958789206137745" lon="12.49979718139496"><ele>25.0</ele><time>2026-05-01T08:56:22.999Z</time></trkpt><trkpt lat="45.95874094789513" lon="12.499648238656281"><ele>25.0</ele><time>2026-05-01T08:56:23.999Z</time></trkpt><trkpt lat="45.95869943062373" lon="12.49948442007264"><ele>25.0</ele><time>2026-05-01T08:56:24.999Z</time></trkpt><trkpt lat="45.95865348063996" lon="12.499318559542546"><ele>25.0</ele><time>2026-05-01T08:56:25.999Z</time></trkpt><trkpt lat="45.95859436656055" lon="12.49914593001768"><ele>25.0</ele><time>2026-05-01T08:56:26.999Z</time></trkpt><trkpt lat="45.95851829104229" lon="12.498963596861193"><ele>25.0</ele><time>2026-05-01T08:56:27.999Z</time></trkpt><trkpt lat="45.95843000527758" lon="12.498785169991823"><ele>25.0</ele><time>2026-05-01T08:56:28.999Z</time></trkpt><trkpt lat="45.958337622155575" lon="12.498615526760227"><ele>25.0</ele><time>2026-05-01T08:56:29.999Z</time></trkpt><trkpt lat="45.95823986827027" lon="12.498452575817929"><ele>25.0</ele><time>2026-05-01T08:56:30.999Z</time></trkpt><trkpt lat="45.95814061684027" lon="12.49829379864133"><ele>25.0</ele><time>2026-05-01T08:56:31.999Z</time></trkpt><trkpt lat="45.958045149191314" lon="12.498141101386935"><ele>25.0</ele><time>2026-05-01T08:56:32.999Z</time></trkpt><trkpt lat="45.95795382541652" lon="12.49799781483816"><ele>24.75</ele><time>2026-05-01T08:56:34Z</time></trkpt><trkpt lat="45.95786902961017" lon="12.497859045913494"><ele>24.5</ele><time>2026-05-01T08:56:35Z</time></trkpt><trkpt lat="45.957789334027304" lon="12.497731705469363"><ele>24.25</ele><time>2026-05-01T08:56:36Z</time></trkpt><trkpt lat="45.9577091864204" lon="12.49760371572275"><ele>24.0</ele><time>2026-05-01T08:56:37Z</time></trkpt><trkpt lat="45.95762958662966" lon="12.497477895047037"><ele>24.0</ele><time>2026-05-01T08:56:38Z</time></trkpt><trkpt lat="45.9575495096037" lon="12.497352434902048"><ele>24.0</ele><time>2026-05-01T08:56:39Z</time></trkpt><trkpt lat="45.95746878258512" lon="12.497226308132536"><ele>24.0</ele><time>2026-05-01T08:56:40Z</time></trkpt><trkpt lat="45.957387609153194" lon="12.49709570709506"><ele>24.0</ele><time>2026-05-01T08:56:41Z</time></trkpt><trkpt lat="45.95730584976762" lon="12.496963876698716"><ele>23.75</ele><time>2026-05-01T08:56:42Z</time></trkpt><trkpt lat="45.95722181099964" lon="12.496828601895725"><ele>23.5</ele><time>2026-05-01T08:56:43Z</time></trkpt><trkpt lat="45.957134799004685" lon="12.49668789654946"><ele>23.25</ele><time>2026-05-01T08:56:44Z</time></trkpt><trkpt lat="45.9570464462303" lon="12.496545742507081"><ele>23.0</ele><time>2026-05-01T08:56:45Z</time></trkpt><trkpt lat="45.95695718167456" lon="12.496403747744163"><ele>23.0</ele><time>2026-05-01T08:56:46Z</time></trkpt><trkpt lat="45.95687061074779" lon="12.496264979705524"><ele>23.0</ele><time>2026-05-01T08:56:47Z</time></trkpt><trkpt lat="45.95679091773895" lon="12.496136281403684"><ele>23.0</ele><time>2026-05-01T08:56:48Z</time></trkpt><trkpt lat="45.95672233445476" lon="12.496026659540824"><ele>23.0</ele><time>2026-05-01T08:56:49Z</time></trkpt><trkpt lat="45.95666084569905" lon="12.495926884077228"><ele>23.0</ele><time>2026-05-01T08:56:50Z</time></trkpt><trkpt lat="45.956604777460754" lon="12.495835834532093"><ele>23.0</ele><time>2026-05-01T08:56:51Z</time></trkpt><trkpt lat="45.956552186003194" lon="12.49574203454798"><ele>23.0</ele><time>2026-05-01T08:56:52Z</time></trkpt><trkpt lat="45.95650334577743" lon="12.495644032655605"><ele>23.0</ele><time>2026-05-01T08:56:53Z</time></trkpt><trkpt lat="45.95646674122983" lon="12.49555006289702"><ele>23.0</ele><time>2026-05-01T08:56:54Z</time></trkpt><trkpt lat="45.9564311055506" lon="12.495447566768716"><ele>23.0</ele><time>2026-05-01T08:56:55Z</time></trkpt><trkpt lat="45.95639017006246" lon="12.495343715455629"><ele>23.0</ele><time>2026-05-01T08:56:56Z</time></trkpt><trkpt lat="45.95632511719514" lon="12.495255462749657"><ele>23.0</ele><time>2026-05-01T08:56:57Z</time></trkpt><trkpt lat="45.956244462627076" lon="12.495181343165868"><ele>23.0</ele><time>2026-05-01T08:56:58Z</time></trkpt><trkpt lat="45.95615479346741" lon="12.495100799367643"><ele>23.0</ele><time>2026-05-01T08:56:59Z</time></trkpt><trkpt lat="45.95606913517072" lon="12.494993566159563"><ele>23.0</ele><time>2026-05-01T08:57:00Z</time></trkpt><trkpt lat="45.95598778598539" lon="12.49486840245701"><ele>23.0</ele><time>2026-05-01T08:57:01Z</time></trkpt><trkpt lat="45.95590450983061" lon="12.494735009242621"><ele>23.25</ele><time>2026-05-01T08:57:02Z</time></trkpt><trkpt lat="45.95582384986529" lon="12.494606666618212"><ele>23.5</ele><time>2026-05-01T08:57:03Z</time></trkpt><trkpt lat="45.95573990323876" lon="12.494477398354798"><ele>23.75</ele><time>2026-05-01T08:57:04Z</time></trkpt><trkpt lat="45.955653940408155" lon="12.494340816307767"><ele>24.0</ele><time>2026-05-01T08:57:05Z</time></trkpt><trkpt lat="45.955569578915274" lon="12.494202068056316"><ele>24.0</ele><time>2026-05-01T08:57:06Z</time></trkpt><trkpt lat="45.955487205980205" lon="12.494069291848692"><ele>24.0</ele><time>2026-05-01T08:57:07Z</time></trkpt><trkpt lat="45.95540472617633" lon="12.493938406225793"><ele>24.0</ele><time>2026-05-01T08:57:08Z</time></trkpt><trkpt lat="45.95532359797537" lon="12.493811136293242"><ele>24.0</ele><time>2026-05-01T08:57:09Z</time></trkpt><trkpt lat="45.95524325323294" lon="12.493682719665573"><ele>24.0</ele><time>2026-05-01T08:57:10Z</time></trkpt><trkpt lat="45.95516368049441" lon="12.493553631239827"><ele>24.0</ele><time>2026-05-01T08:57:11Z</time></trkpt><trkpt lat="45.95508329968719" lon="12.493425096413327"><ele>24.0</ele><time>2026-05-01T08:57:12Z</time></trkpt><trkpt lat="45.95500142153979" lon="12.49329654230035"><ele>24.0</ele><time>2026-05-01T08:57:13Z</time></trkpt><trkpt lat="45.95491858483279" lon="12.493163768729133"><ele>24.0</ele><time>2026-05-01T08:57:14Z</time></trkpt><trkpt lat="45.95483179362867" lon="12.49302972736029"><ele>24.0</ele><time>2026-05-01T08:57:15Z</time></trkpt><trkpt lat="45.95473950137467" lon="12.492894499866066"><ele>24.0</ele><time>2026-05-01T08:57:16Z</time></trkpt><trkpt lat="45.95464612007569" lon="12.4927642115447"><ele>24.0</ele><time>2026-05-01T08:57:17Z</time></trkpt><trkpt lat="45.95454670582957" lon="12.492640891771796"><ele>24.0</ele><time>2026-05-01T08:57:18Z</time></trkpt><trkpt lat="45.95443645018044" lon="12.492516623195483"><ele>24.0</ele><time>2026-05-01T08:57:19Z</time></trkpt><trkpt lat="45.95432834729297" lon="12.492399983533694"><ele>24.0</ele><time>2026-05-01T08:57:20Z</time></trkpt><trkpt lat="45.95422727790282" lon="12.492296095823756"><ele>24.0</ele><time>2026-05-01T08:57:21Z</time></trkpt><trkpt lat="45.954128235293794" lon="12.492191664639627"><ele>24.0</ele><time>2026-05-01T08:57:22Z</time></trkpt><trkpt lat="45.954032883637936" lon="12.49209081847442"><ele>24.0</ele><time>2026-05-01T08:57:23Z</time></trkpt><trkpt lat="45.95394024631606" lon="12.491992409710955"><ele>24.0</ele><time>2026-05-01T08:57:24Z</time></trkpt><trkpt lat="45.953853599148275" lon="12.491899408417705"><ele>24.0</ele><time>2026-05-01T08:57:25Z</time></trkpt><trkpt lat="45.9537707454117" lon="12.491808841356711"><ele>24.0</ele><time>2026-05-01T08:57:26Z</time></trkpt><trkpt lat="45.953689206469264" lon="12.491722408555459"><ele>23.75</ele><time>2026-05-01T08:57:27Z</time></trkpt><trkpt lat="45.95360619178597" lon="12.49163426377736"><ele>23.5</ele><time>2026-05-01T08:57:28Z</time></trkpt><trkpt lat="45.953515780866574" lon="12.491538919845638"><ele>23.25</ele><time>2026-05-01T08:57:29Z</time></trkpt><trkpt lat="45.953420947760954" lon="12.49144112744513"><ele>23.0</ele><time>2026-05-01T08:57:30Z</time></trkpt><trkpt lat="45.95332186091899" lon="12.491335952526029"><ele>24.25</ele><time>2026-05-01T08:57:31Z</time></trkpt><trkpt lat="45.953219711822086" lon="12.491225443061467"><ele>25.5</ele><time>2026-05-01T08:57:32Z</time></trkpt><trkpt lat="45.953113292877156" lon="12.491113899893836"><ele>26.75</ele><time>2026-05-01T08:57:33Z</time></trkpt><trkpt lat="45.95300769305929" lon="12.491002996853547"><ele>28.0</ele><time>2026-05-01T08:57:34Z</time></trkpt><trkpt lat="45.952903465883026" lon="12.490895499462411"><ele>28.0</ele><time>2026-05-01T08:57:35Z</time></trkpt><trkpt lat="45.95280428025129" lon="12.490783213834197"><ele>28.0</ele><time>2026-05-01T08:57:36Z</time></trkpt><trkpt lat="45.95270945560573" lon="12.490658814993791"><ele>28.0</ele><time>2026-05-01T08:57:37Z</time></trkpt><trkpt lat="45.952615434951895" lon="12.4905247021138"><ele>28.0</ele><time>2026-05-01T08:57:38Z</time></trkpt><trkpt lat="45.952522791957826" lon="12.490382037845409"><ele>27.25</ele><time>2026-05-01T08:57:39Z</time></trkpt><trkpt lat="45.95243439888571" lon="12.490232195621191"><ele>26.5</ele><time>2026-05-01T08:57:40Z</time></trkpt><trkpt lat="45.95235117751086" lon="12.490073558936784"><ele>25.75</ele><time>2026-05-01T08:57:41Z</time></trkpt><trkpt lat="45.952269464796565" lon="12.489908499651426"><ele>25.0</ele><time>2026-05-01T08:57:42Z</time></trkpt><trkpt lat="45.95219178662141" lon="12.48973878834649"><ele>25.0</ele><time>2026-05-01T08:57:43Z</time></trkpt><trkpt lat="45.95212096051968" lon="12.489559935445532"><ele>25.0</ele><time>2026-05-01T08:57:44Z</time></trkpt><trkpt lat="45.952057534861325" lon="12.489376317126686"><ele>25.0</ele><time>2026-05-01T08:57:45Z</time></trkpt><trkpt lat="45.95199842123822" lon="12.489190279528696"><ele>25.0</ele><time>2026-05-01T08:57:46Z</time></trkpt><trkpt lat="45.95194312518293" lon="12.489002049307103"><ele>25.0</ele><time>2026-05-01T08:57:47Z</time></trkpt><trkpt lat="45.95188924274996" lon="12.488811688360242"><ele>25.0</ele><time>2026-05-01T08:57:48Z</time></trkpt><trkpt lat="45.95183361640598" lon="12.488619516301188"><ele>25.0</ele><time>2026-05-01T08:57:49Z</time></trkpt><trkpt lat="45.951778290283535" lon="12.488424882263917"><ele>25.0</ele><time>2026-05-01T08:57:50Z</time></trkpt><trkpt lat="45.95172469480335" lon="12.48823214326915"><ele>26.0</ele><time>2026-05-01T08:57:51Z</time></trkpt><trkpt lat="45.951669289699154" lon="12.488034087465627"><ele>27.0</ele><time>2026-05-01T08:57:52Z</time></trkpt><trkpt lat="45.95161250306654" lon="12.487825824150388"><ele>28.0</ele><time>2026-05-01T08:57:53Z</time></trkpt><trkpt lat="45.95155238944702" lon="12.487611648032624"><ele>28.0</ele><time>2026-05-01T08:57:54Z</time></trkpt><trkpt lat="45.951491995650315" lon="12.487389361144006"><ele>28.0</ele><time>2026-05-01T08:57:55Z</time></trkpt><trkpt lat="45.95142990755661" lon="12.487162269916206"><ele>28.0</ele><time>2026-05-01T08:57:56Z</time></trkpt><trkpt lat="45.951365828696446" lon="12.486931301339096"><ele>27.666666666666668</ele><time>2026-05-01T08:57:57Z</time></trkpt><trkpt lat="45.951299675975044" lon="12.486693269037447"><ele>27.333333333333336</ele><time>2026-05-01T08:57:58Z</time></trkpt><trkpt lat="45.951233267251695" lon="12.486446016388225"><ele>27.0</ele><time>2026-05-01T08:57:59Z</time></trkpt><trkpt lat="45.95116427830998" lon="12.486196453482247"><ele>27.0</ele><time>2026-05-01T08:58:00Z</time></trkpt><trkpt lat="45.95109311324719" lon="12.485947502645342"><ele>27.0</ele><time>2026-05-01T08:58:01Z</time></trkpt><trkpt lat="45.95102233947706" lon="12.48569919387459"><ele>27.0</ele><time>2026-05-01T08:58:02Z</time></trkpt><trkpt lat="45.950954614932584" lon="12.485456671634235"><ele>27.0</ele><time>2026-05-01T08:58:02.999Z</time></trkpt><trkpt lat="45.95088795924282" lon="12.485223676685402"><ele>27.0</ele><time>2026-05-01T08:58:03.999Z</time></trkpt><trkpt lat="45.95082488775541" lon="12.485000220016172"><ele>27.0</ele><time>2026-05-01T08:58:04.999Z</time></trkpt><trkpt lat="45.950763676745204" lon="12.484778818895865"><ele>27.666666666666664</ele><time>2026-05-01T08:58:05.999Z</time></trkpt><trkpt lat="45.95070312743369" lon="12.484557223259456"><ele>28.333333333333332</ele><time>2026-05-01T08:58:06.999Z</time></trkpt><trkpt lat="45.95064327767463" lon="12.484335649280622"><ele>29.0</ele><time>2026-05-01T08:58:07.999Z</time></trkpt><trkpt lat="45.95058109835424" lon="12.484113964227866"><ele>29.0</ele><time>2026-05-01T08:58:08.999Z</time></trkpt><trkpt lat="45.950518998198774" lon="12.483892603499468"><ele>29.0</ele><time>2026-05-01T08:58:09.999Z</time></trkpt><trkpt lat="45.95046049319943" lon="12.483683431261882"><ele>29.0</ele><time>2026-05-01T08:58:10.999Z</time></trkpt><trkpt lat="45.95040658285679" lon="12.483492383832761"><ele>29.25</ele><time>2026-05-01T08:58:11.999Z</time></trkpt><trkpt lat="45.950358681965405" lon="12.483316578700482"><ele>29.5</ele><time>2026-05-01T08:58:12.999Z</time></trkpt><trkpt lat="45.95031771561425" lon="12.483152828115847"><ele>29.75</ele><time>2026-05-01T08:58:13.999Z</time></trkpt><trkpt lat="45.950278573595256" lon="12.482998428681379"><ele>30.0</ele><time>2026-05-01T08:58:14.999Z</time></trkpt><trkpt lat="45.95024558429637" lon="12.482862050845103"><ele>30.0</ele><time>2026-05-01T08:58:15.999Z</time></trkpt><trkpt lat="45.95021921689136" lon="12.482744943842086"><ele>30.0</ele><time>2026-05-01T08:58:16.999Z</time></trkpt><trkpt lat="45.95019856112528" lon="12.482640119581696"><ele>30.0</ele><time>2026-05-01T08:58:17.999Z</time></trkpt><trkpt lat="45.95018381984142" lon="12.48252954107982"><ele>30.0</ele><time>2026-05-01T08:58:18.999Z</time></trkpt><trkpt lat="45.95016859395682" lon="12.482406966216377"><ele>30.0</ele><time>2026-05-01T08:58:19.999Z</time></trkpt><trkpt lat="45.95013961009761" lon="12.482273574092687"><ele>30.0</ele><time>2026-05-01T08:58:20.999Z</time></trkpt><trkpt lat="45.950086011208306" lon="12.482134779732135"><ele>29.75</ele><time>2026-05-01T08:58:21.999Z</time></trkpt><trkpt lat="45.95001959198819" lon="12.481980067508207"><ele>29.5</ele><time>2026-05-01T08:58:22.999Z</time></trkpt><trkpt lat="45.94995512940819" lon="12.481808516908202"><ele>29.25</ele><time>2026-05-01T08:58:23.999Z</time></trkpt><trkpt lat="45.94989258986994" lon="12.48162353703611"><ele>29.0</ele><time>2026-05-01T08:58:24.999Z</time></trkpt><trkpt lat="45.94983015103536" lon="12.481411726552105"><ele>29.666666666666664</ele><time>2026-05-01T08:58:25.999Z</time></trkpt><trkpt lat="45.94976576486642" lon="12.481186809428676"><ele>30.333333333333336</ele><time>2026-05-01T08:58:26.999Z</time></trkpt><trkpt lat="45.94970491735585" lon="12.480964305897407"><ele>31.0</ele><time>2026-05-01T08:58:27.999Z</time></trkpt><trkpt lat="45.94964504018908" lon="12.480745735395857"><ele>31.0</ele><time>2026-05-01T08:58:28.999Z</time></trkpt><trkpt lat="45.94958324486481" lon="12.480527912328387"><ele>31.0</ele><time>2026-05-01T08:58:29.999Z</time></trkpt><trkpt lat="45.94952282658758" lon="12.480311256290916"><ele>31.0</ele><time>2026-05-01T08:58:30.999Z</time></trkpt><trkpt lat="45.94946436921131" lon="12.480100179030881"><ele>31.0</ele><time>2026-05-01T08:58:31.999Z</time></trkpt><trkpt lat="45.94940725851694" lon="12.479899421526154"><ele>31.0</ele><time>2026-05-01T08:58:32.999Z</time></trkpt><trkpt lat="45.94935250704725" lon="12.479701847430812"><ele>31.0</ele><time>2026-05-01T08:58:33.999Z</time></trkpt><trkpt lat="45.949297797675484" lon="12.479502915056191"><ele>31.0</ele><time>2026-05-01T08:58:34.999Z</time></trkpt><trkpt lat="45.94924238233021" lon="12.47930195279253"><ele>31.0</ele><time>2026-05-01T08:58:35.999Z</time></trkpt><trkpt lat="45.94918305514109" lon="12.479091704642055"><ele>31.0</ele><time>2026-05-01T08:58:36.999Z</time></trkpt><trkpt lat="45.949124734043565" lon="12.4788727470361"><ele>31.0</ele><time>2026-05-01T08:58:37.999Z</time></trkpt><trkpt lat="45.94906744977323" lon="12.478648233092326"><ele>31.0</ele><time>2026-05-01T08:58:38.999Z</time></trkpt><trkpt lat="45.94900830876002" lon="12.478425297607922"><ele>31.0</ele><time>2026-05-01T08:58:40Z</time></trkpt><trkpt lat="45.94894716726851" lon="12.478202687315184"><ele>31.0</ele><time>2026-05-01T08:58:41Z</time></trkpt><trkpt lat="45.94888315219782" lon="12.477975017792616"><ele>31.333333333333336</ele><time>2026-05-01T08:58:42Z</time></trkpt><trkpt lat="45.948817719268234" lon="12.477747186767152"><ele>31.666666666666664</ele><time>2026-05-01T08:58:43Z</time></trkpt><trkpt lat="45.94875346537984" lon="12.477528412764373"><ele>32.0</ele><time>2026-05-01T08:58:44Z</time></trkpt><trkpt lat="45.94869453509167" lon="12.47731859388441"><ele>32.0</ele><time>2026-05-01T08:58:45Z</time></trkpt><trkpt lat="45.948640693769974" lon="12.477123071689695"><ele>32.0</ele><time>2026-05-01T08:58:46Z</time></trkpt><trkpt lat="45.94859134259352" lon="12.476941901487315"><ele>32.0</ele><time>2026-05-01T08:58:47Z</time></trkpt><trkpt lat="45.948542199564315" lon="12.476769719991797"><ele>32.0</ele><time>2026-05-01T08:58:48Z</time></trkpt><trkpt lat="45.94849705255416" lon="12.476607246984472"><ele>32.0</ele><time>2026-05-01T08:58:49Z</time></trkpt><trkpt lat="45.94845377307027" lon="12.476450251076757"><ele>32.0</ele><time>2026-05-01T08:58:50Z</time></trkpt><trkpt lat="45.94841205672693" lon="12.476298204505248"><ele>32.0</ele><time>2026-05-01T08:58:51Z</time></trkpt><trkpt lat="45.94837302861996" lon="12.476163846897576"><ele>32.0</ele><time>2026-05-01T08:58:52Z</time></trkpt><trkpt lat="45.94833870903632" lon="12.476039024179707"><ele>32.0</ele><time>2026-05-01T08:58:53Z</time></trkpt><trkpt lat="45.94830424957661" lon="12.475919629489935"><ele>31.999999999999996</ele><time>2026-05-01T08:58:54Z</time></trkpt><trkpt lat="45.94827029005206" lon="12.475803176939209"><ele>32.0</ele><time>2026-05-01T08:58:55Z</time></trkpt><trkpt lat="45.94823944563396" lon="12.47569101703818"><ele>32.0</ele><time>2026-05-01T08:58:56Z</time></trkpt><trkpt lat="45.94821323071814" lon="12.475594405105857"><ele>32.0</ele><time>2026-05-01T08:58:57Z</time></trkpt><trkpt lat="45.94818950045516" lon="12.47550524989544"><ele>31.999999999999996</ele><time>2026-05-01T08:58:58Z</time></trkpt><trkpt lat="45.94814901199561" lon="12.475356294443783"><ele>32.0</ele><time>2026-05-01T08:59:00Z</time></trkpt><trkpt lat="45.94811818429619" lon="12.475237387253255"><ele>31.999999999999996</ele><time>2026-05-01T08:59:02Z</time></trkpt><trkpt lat="45.94809584063824" lon="12.475151284487007"><ele>32.0</ele><time>2026-05-01T08:59:04Z</time></trkpt><trkpt lat="45.9480700050771" lon="12.475051656817305"><ele>32.0</ele><time>2026-05-01T08:59:07Z</time></trkpt><trkpt lat="45.948046219420405" lon="12.474967574866348"><ele>32.0</ele><time>2026-05-01T08:59:12Z</time></trkpt><trkpt lat="45.94801981069333" lon="12.474881225966259"><ele>31.999999999999996</ele><time>2026-05-01T08:59:20Z</time></trkpt><trkpt lat="45.94798653096016" lon="12.474773763506166"><ele>32.0</ele><time>2026-05-01T08:59:22Z</time></trkpt><trkpt lat="45.94794076156653" lon="12.47459638131966"><ele>31.8</ele><time>2026-05-01T08:59:24Z</time></trkpt><trkpt lat="45.94791040992466" lon="12.474489369238922"><ele>31.6</ele><time>2026-05-01T08:59:25Z</time></trkpt><trkpt lat="45.94787754522505" lon="12.47437008513977"><ele>31.400000000000002</ele><time>2026-05-01T08:59:26Z</time></trkpt><trkpt lat="45.94784230462853" lon="12.474243751069485"><ele>31.200000000000003</ele><time>2026-05-01T08:59:27Z</time></trkpt><trkpt lat="45.9478047058395" lon="12.474117785058672"><ele>31.0</ele><time>2026-05-01T08:59:28Z</time></trkpt><trkpt lat="45.947766236709484" lon="12.473990265017326"><ele>31.0</ele><time>2026-05-01T08:59:29Z</time></trkpt><trkpt lat="45.94772696529126" lon="12.473852748969383"><ele>31.0</ele><time>2026-05-01T08:59:30Z</time></trkpt><trkpt lat="45.9476872173024" lon="12.473702369156658"><ele>31.0</ele><time>2026-05-01T08:59:31Z</time></trkpt><trkpt lat="45.94764391593371" lon="12.473547690027138"><ele>31.0</ele><time>2026-05-01T08:59:32Z</time></trkpt><trkpt lat="45.947600525923576" lon="12.473395963792038"><ele>31.0</ele><time>2026-05-01T08:59:33Z</time></trkpt><trkpt lat="45.947559048920375" lon="12.473246244642809"><ele>31.25</ele><time>2026-05-01T08:59:34Z</time></trkpt><trkpt lat="45.947516232914175" lon="12.473096833811413"><ele>31.5</ele><time>2026-05-01T08:59:35Z</time></trkpt><trkpt lat="45.947474348832586" lon="12.472945235287229"><ele>31.75</ele><time>2026-05-01T08:59:36Z</time></trkpt><trkpt lat="45.94743136110599" lon="12.472792105411935"><ele>32.0</ele><time>2026-05-01T08:59:37Z</time></trkpt><trkpt lat="45.947385987906635" lon="12.472632966368606"><ele>32.0</ele><time>2026-05-01T08:59:38Z</time></trkpt><trkpt lat="45.9473413647791" lon="12.472474622736518"><ele>32.0</ele><time>2026-05-01T08:59:39Z</time></trkpt><trkpt lat="45.947300195619164" lon="12.4723281687803"><ele>32.0</ele><time>2026-05-01T08:59:40Z</time></trkpt><trkpt lat="45.94726150521957" lon="12.472189107424954"><ele>32.0</ele><time>2026-05-01T08:59:41Z</time></trkpt><trkpt lat="45.94722078719048" lon="12.472045818799698"><ele>32.0</ele><time>2026-05-01T08:59:42Z</time></trkpt><trkpt lat="45.94717999862787" lon="12.471897776490254"><ele>32.0</ele><time>2026-05-01T08:59:43Z</time></trkpt><trkpt lat="45.947136855605564" lon="12.471744815518147"><ele>32.0</ele><time>2026-05-01T08:59:44Z</time></trkpt><trkpt lat="45.947091926531975" lon="12.471581463042842"><ele>32.0</ele><time>2026-05-01T08:59:45Z</time></trkpt><trkpt lat="45.94704470348353" lon="12.471406169453417"><ele>32.0</ele><time>2026-05-01T08:59:46Z</time></trkpt><trkpt lat="45.94699613789612" lon="12.471221652404452"><ele>32.0</ele><time>2026-05-01T08:59:47Z</time></trkpt><trkpt lat="45.946943191068314" lon="12.471030177772677"><ele>32.0</ele><time>2026-05-01T08:59:48Z</time></trkpt><trkpt lat="45.94688938539782" lon="12.470833311974319"><ele>32.0</ele><time>2026-05-01T08:59:49Z</time></trkpt><trkpt lat="45.94683225381124" lon="12.470627831472116"><ele>32.0</ele><time>2026-05-01T08:59:50Z</time></trkpt><trkpt lat="45.946773327786964" lon="12.470415077934128"><ele>32.0</ele><time>2026-05-01T08:59:51Z</time></trkpt><trkpt lat="45.946719362875164" lon="12.47021921371037"><ele>32.0</ele><time>2026-05-01T08:59:52Z</time></trkpt><trkpt lat="45.94666429874859" lon="12.470025414809273"><ele>32.0</ele><time>2026-05-01T08:59:53Z</time></trkpt><trkpt lat="45.94660913744505" lon="12.469831430591576"><ele>32.0</ele><time>2026-05-01T08:59:54Z</time></trkpt><trkpt lat="45.94655407453009" lon="12.469633729104595"><ele>32.666666666666664</ele><time>2026-05-01T08:59:55Z</time></trkpt><trkpt lat="45.94649468597254" lon="12.469424614465014"><ele>33.333333333333336</ele><time>2026-05-01T08:59:56Z</time></trkpt><trkpt lat="45.946431696917" lon="12.46919935740758"><ele>34.0</ele><time>2026-05-01T08:59:57Z</time></trkpt><trkpt lat="45.94636596737772" lon="12.468960189070682"><ele>34.0</ele><time>2026-05-01T08:59:58Z</time></trkpt><trkpt lat="45.94629880369346" lon="12.468727726323996"><ele>34.0</ele><time>2026-05-01T08:59:59Z</time></trkpt><trkpt lat="45.946230505634226" lon="12.468488512041649"><ele>34.0</ele><time>2026-05-01T09:00:00Z</time></trkpt><trkpt lat="45.946162281271256" lon="12.468245902642998"><ele>34.0</ele><time>2026-05-01T09:00:01Z</time></trkpt><trkpt lat="45.94609479690533" lon="12.46800654330726"><ele>34.0</ele><time>2026-05-01T09:00:02Z</time></trkpt><trkpt lat="45.9460293634427" lon="12.467768253504447"><ele>34.0</ele><time>2026-05-01T09:00:03Z</time></trkpt><trkpt lat="45.94596383373786" lon="12.4675292052745"><ele>34.0</ele><time>2026-05-01T09:00:04Z</time></trkpt><trkpt lat="45.945896638007525" lon="12.467290944982503"><ele>34.0</ele><time>2026-05-01T09:00:04.999Z</time></trkpt><trkpt lat="45.94583260178548" lon="12.467053517136822"><ele>34.0</ele><time>2026-05-01T09:00:05.999Z</time></trkpt><trkpt lat="45.945767201431885" lon="12.466816489387039"><ele>34.66666666666667</ele><time>2026-05-01T09:00:06.999Z</time></trkpt><trkpt lat="45.94570215405012" lon="12.466582005477589"><ele>35.333333333333336</ele><time>2026-05-01T09:00:07.999Z</time></trkpt><trkpt lat="45.94563864837979" lon="12.466350127334435"><ele>36.0</ele><time>2026-05-01T09:00:08.999Z</time></trkpt><trkpt lat="45.945574714770785" lon="12.466123302080556"><ele>36.333333333333336</ele><time>2026-05-01T09:00:09.999Z</time></trkpt><trkpt lat="45.94551465243466" lon="12.465899864127243"><ele>36.66666666666667</ele><time>2026-05-01T09:00:10.999Z</time></trkpt><trkpt lat="45.945452879068135" lon="12.465675175100015"><ele>37.0</ele><time>2026-05-01T09:00:11.999Z</time></trkpt><trkpt lat="45.94539156109291" lon="12.465448045712536"><ele>37.0</ele><time>2026-05-01T09:00:12.999Z</time></trkpt><trkpt lat="45.94532693143444" lon="12.465220323149007"><ele>37.0</ele><time>2026-05-01T09:00:13.999Z</time></trkpt><trkpt lat="45.94526094183588" lon="12.464987267348151"><ele>37.0</ele><time>2026-05-01T09:00:14.999Z</time></trkpt><trkpt lat="45.94519520186556" lon="12.464752892776415"><ele>36.66666666666667</ele><time>2026-05-01T09:00:15.999Z</time></trkpt><trkpt lat="45.94512577433628" lon="12.464514496024153"><ele>36.333333333333336</ele><time>2026-05-01T09:00:16.999Z</time></trkpt><trkpt lat="45.94506492162725" lon="12.46427436892749"><ele>36.0</ele><time>2026-05-01T09:00:17.999Z</time></trkpt><trkpt lat="45.9449917039426" lon="12.464029321503284"><ele>35.666666666666664</ele><time>2026-05-01T09:00:18.999Z</time></trkpt><trkpt lat="45.94492680539744" lon="12.463790419575083"><ele>35.33333333333333</ele><time>2026-05-01T09:00:19.999Z</time></trkpt><trkpt lat="45.9448587172433" lon="12.46354752334849"><ele>35.0</ele><time>2026-05-01T09:00:20.999Z</time></trkpt><trkpt lat="45.9447891259623" lon="12.463301317996585"><ele>35.0</ele><time>2026-05-01T09:00:21.999Z</time></trkpt><trkpt lat="45.94472151375092" lon="12.463055188057792"><ele>35.0</ele><time>2026-05-01T09:00:22.999Z</time></trkpt><trkpt lat="45.94465267642775" lon="12.462807474200927"><ele>35.0</ele><time>2026-05-01T09:00:23.999Z</time></trkpt><trkpt lat="45.94458174906085" lon="12.46255802007917"><ele>35.0</ele><time>2026-05-01T09:00:24.999Z</time></trkpt><trkpt lat="45.9445099469416" lon="12.462302676392115"><ele>35.0</ele><time>2026-05-01T09:00:25.999Z</time></trkpt><trkpt lat="45.944437348021225" lon="12.462040557892074"><ele>35.0</ele><time>2026-05-01T09:00:26.999Z</time></trkpt><trkpt lat="45.944358925641346" lon="12.46175772880439"><ele>35.0</ele><time>2026-05-01T09:00:27.999Z</time></trkpt><trkpt lat="45.94427192207363" lon="12.461452654522118"><ele>35.0</ele><time>2026-05-01T09:00:28.999Z</time></trkpt><trkpt lat="45.944183245594594" lon="12.46112624990376"><ele>35.0</ele><time>2026-05-01T09:00:29.999Z</time></trkpt><trkpt lat="45.94409138596012" lon="12.460794342254713"><ele>35.0</ele><time>2026-05-01T09:00:30.999Z</time></trkpt><trkpt lat="45.94400346283123" lon="12.460481706438022"><ele>35.0</ele><time>2026-05-01T09:00:31.999Z</time></trkpt><trkpt lat="45.94392199278026" lon="12.460184947830216"><ele>35.0</ele><time>2026-05-01T09:00:32.999Z</time></trkpt><trkpt lat="45.94384496720328" lon="12.45990530400272"><ele>35.0</ele><time>2026-05-01T09:00:33.999Z</time></trkpt><trkpt lat="45.94377120348415" lon="12.459642953560406"><ele>35.33333333333333</ele><time>2026-05-01T09:00:34.999Z</time></trkpt><trkpt lat="45.94370029110513" lon="12.459393117439792"><ele>35.666666666666664</ele><time>2026-05-01T09:00:35.999Z</time></trkpt><trkpt lat="45.94363406348228" lon="12.459151347730543"><ele>36.0</ele><time>2026-05-01T09:00:36.999Z</time></trkpt><trkpt lat="45.943568462859474" lon="12.458918678474795"><ele>36.333333333333336</ele><time>2026-05-01T09:00:37.999Z</time></trkpt><trkpt lat="45.94350343892892" lon="12.45868937591125"><ele>36.66666666666667</ele><time>2026-05-01T09:00:38.999Z</time></trkpt><trkpt lat="45.94343943869941" lon="12.458463417320571"><ele>37.0</ele><time>2026-05-01T09:00:39.999Z</time></trkpt><trkpt lat="45.943378355541874" lon="12.458238884227187"><ele>37.0</ele><time>2026-05-01T09:00:40.999Z</time></trkpt><trkpt lat="45.943317976639655" lon="12.458016653763442"><ele>37.0</ele><time>2026-05-01T09:00:41.999Z</time></trkpt><trkpt lat="45.943255349694866" lon="12.45778967593003"><ele>37.0</ele><time>2026-05-01T09:00:42.999Z</time></trkpt><trkpt lat="45.94318841718383" lon="12.457552508683992"><ele>37.0</ele><time>2026-05-01T09:00:43.999Z</time></trkpt><trkpt lat="45.94312319684901" lon="12.457314507785577"><ele>37.0</ele><time>2026-05-01T09:00:45Z</time></trkpt><trkpt lat="45.943056641352044" lon="12.457073985631197"><ele>37.0</ele><time>2026-05-01T09:00:46Z</time></trkpt><trkpt lat="45.942990092867106" lon="12.456835035078427"><ele>37.0</ele><time>2026-05-01T09:00:47Z</time></trkpt><trkpt lat="45.94292402372787" lon="12.45660378239953"><ele>37.0</ele><time>2026-05-01T09:00:48Z</time></trkpt><trkpt lat="45.94286638790375" lon="12.456394970722393"><ele>37.0</ele><time>2026-05-01T09:00:49Z</time></trkpt><trkpt lat="45.94281633925196" lon="12.456201683956799"><ele>37.5</ele><time>2026-05-01T09:00:50Z</time></trkpt><trkpt lat="45.94277567982159" lon="12.456004141660422"><ele>38.0</ele><time>2026-05-01T09:00:51Z</time></trkpt><trkpt lat="45.94274560791848" lon="12.455805021015887"><ele>38.5</ele><time>2026-05-01T09:00:52Z</time></trkpt><trkpt lat="45.94273438162228" lon="12.455602337008674"><ele>39.0</ele><time>2026-05-01T09:00:53Z</time></trkpt><trkpt lat="45.94273801923515" lon="12.45539381881414"><ele>39.333333333333336</ele><time>2026-05-01T09:00:54Z</time></trkpt><trkpt lat="45.94275464972396" lon="12.455171825696205"><ele>39.66666666666667</ele><time>2026-05-01T09:00:55Z</time></trkpt><trkpt lat="45.9427781057586" lon="12.454939914846872"><ele>40.0</ele><time>2026-05-01T09:00:56Z</time></trkpt><trkpt lat="45.94280545886952" lon="12.454698779181534"><ele>40.0</ele><time>2026-05-01T09:00:57Z</time></trkpt><trkpt lat="45.94283545761803" lon="12.454449198022369"><ele>40.0</ele><time>2026-05-01T09:00:58Z</time></trkpt><trkpt lat="45.942866568233576" lon="12.454193035739479"><ele>40.0</ele><time>2026-05-01T09:00:59Z</time></trkpt><trkpt lat="45.942901327966034" lon="12.453926743767841"><ele>39.333333333333336</ele><time>2026-05-01T09:01:00Z</time></trkpt><trkpt lat="45.94293937808442" lon="12.453660074753971"><ele>38.666666666666664</ele><time>2026-05-01T09:01:01Z</time></trkpt><trkpt lat="45.94297450487939" lon="12.453389617546003"><ele>38.0</ele><time>2026-05-01T09:01:02Z</time></trkpt><trkpt lat="45.94300622132356" lon="12.453127451133128"><ele>38.0</ele><time>2026-05-01T09:01:03Z</time></trkpt><trkpt lat="45.94304147582597" lon="12.452874110077136"><ele>38.0</ele><time>2026-05-01T09:01:04Z</time></trkpt><trkpt lat="45.94307574072025" lon="12.452627741754695"><ele>38.0</ele><time>2026-05-01T09:01:05Z</time></trkpt><trkpt lat="45.94310832190237" lon="12.452382676266676"><ele>38.0</ele><time>2026-05-01T09:01:06Z</time></trkpt><trkpt lat="45.94314116566751" lon="12.45213756043392"><ele>38.0</ele><time>2026-05-01T09:01:07Z</time></trkpt><trkpt lat="45.94317571209171" lon="12.451892744377483"><ele>38.0</ele><time>2026-05-01T09:01:08Z</time></trkpt><trkpt lat="45.94320667678619" lon="12.451657249605343"><ele>38.0</ele><time>2026-05-01T09:01:09Z</time></trkpt><trkpt lat="45.943233444485976" lon="12.451447472195293"><ele>38.0</ele><time>2026-05-01T09:01:10Z</time></trkpt><trkpt lat="45.94325983362146" lon="12.451248089861057"><ele>38.0</ele><time>2026-05-01T09:01:11Z</time></trkpt><trkpt lat="45.94328581809701" lon="12.451056028743864"><ele>38.0</ele><time>2026-05-01T09:01:12Z</time></trkpt><trkpt lat="45.94331088533521" lon="12.450872783540294"><ele>37.8</ele><time>2026-05-01T09:01:13Z</time></trkpt><trkpt lat="45.94332940470311" lon="12.450711035357823"><ele>37.599999999999994</ele><time>2026-05-01T09:01:14Z</time></trkpt><trkpt lat="45.94334004610092" lon="12.45056765798869"><ele>37.400000000000006</ele><time>2026-05-01T09:01:15Z</time></trkpt><trkpt lat="45.943338722849305" lon="12.450421427149752"><ele>37.2</ele><time>2026-05-01T09:01:16Z</time></trkpt><trkpt lat="45.94333167939956" lon="12.450283518227478"><ele>37.0</ele><time>2026-05-01T09:01:17Z</time></trkpt><trkpt lat="45.943323780059664" lon="12.450163093283349"><ele>37.5</ele><time>2026-05-01T09:01:18Z</time></trkpt><trkpt lat="45.943321736609725" lon="12.450051629591234"><ele>38.0</ele><time>2026-05-01T09:01:19Z</time></trkpt><trkpt lat="45.943328619376814" lon="12.449947058816226"><ele>38.5</ele><time>2026-05-01T09:01:20Z</time></trkpt><trkpt lat="45.943341770531035" lon="12.449847055550093"><ele>39.0</ele><time>2026-05-01T09:01:21Z</time></trkpt><trkpt lat="45.94338373029369" lon="12.44969998021883"><ele>39.5</ele><time>2026-05-01T09:01:23Z</time></trkpt><trkpt lat="45.94344122432636" lon="12.449603541014628"><ele>40.0</ele><time>2026-05-01T09:01:25Z</time></trkpt><trkpt lat="45.94351237734901" lon="12.44952349348305"><ele>40.16666666666667</ele><time>2026-05-01T09:01:27Z</time></trkpt><trkpt lat="45.94357059842388" lon="12.449483883666568"><ele>40.333333333333336</ele><time>2026-05-01T09:01:28Z</time></trkpt><trkpt lat="45.94365184825048" lon="12.449450047232217"><ele>40.5</ele><time>2026-05-01T09:01:29Z</time></trkpt><trkpt lat="45.9437486246891" lon="12.449402580465797"><ele>40.666666666666664</ele><time>2026-05-01T09:01:30Z</time></trkpt><trkpt lat="45.94382770588323" lon="12.449323936674874"><ele>40.83333333333333</ele><time>2026-05-01T09:01:31Z</time></trkpt><trkpt lat="45.943886077747436" lon="12.449213197088707"><ele>41.0</ele><time>2026-05-01T09:01:32Z</time></trkpt><trkpt lat="45.943917941169396" lon="12.4490918988255"><ele>41.0</ele><time>2026-05-01T09:01:33Z</time></trkpt><trkpt lat="45.943944687522524" lon="12.448976144565476"><ele>41.0</ele><time>2026-05-01T09:01:34Z</time></trkpt><trkpt lat="45.94398688515003" lon="12.4488753725911"><ele>41.0</ele><time>2026-05-01T09:01:35Z</time></trkpt><trkpt lat="45.94403569751386" lon="12.448768305599575"><ele>41.0</ele><time>2026-05-01T09:01:36Z</time></trkpt><trkpt lat="45.9440831126255" lon="12.448657053415536"><ele>41.0</ele><time>2026-05-01T09:01:37Z</time></trkpt><trkpt lat="45.94411155663955" lon="12.448550200467476"><ele>41.0</ele><time>2026-05-01T09:01:38Z</time></trkpt><trkpt lat="45.94411056976406" lon="12.448432576144185"><ele>40.8</ele><time>2026-05-01T09:01:39Z</time></trkpt><trkpt lat="45.94408448599391" lon="12.448311733878482"><ele>40.599999999999994</ele><time>2026-05-01T09:01:40Z</time></trkpt><trkpt lat="45.94403955563555" lon="12.448198249415775"><ele>40.4</ele><time>2026-05-01T09:01:41Z</time></trkpt><trkpt lat="45.943974484902775" lon="12.448089755136285"><ele>40.2</ele><time>2026-05-01T09:01:42Z</time></trkpt><trkpt lat="45.94389643819647" lon="12.447984354998262"><ele>40.0</ele><time>2026-05-01T09:01:43Z</time></trkpt><trkpt lat="45.94382963156975" lon="12.447866109133528"><ele>40.0</ele><time>2026-05-01T09:01:44Z</time></trkpt><trkpt lat="45.943789318271456" lon="12.447729050979222"><ele>40.0</ele><time>2026-05-01T09:01:45Z</time></trkpt><trkpt lat="45.94376981259712" lon="12.447573803073746"><ele>40.0</ele><time>2026-05-01T09:01:46Z</time></trkpt><trkpt lat="45.94379780087957" lon="12.447405546858313"><ele>40.0</ele><time>2026-05-01T09:01:47Z</time></trkpt><trkpt lat="45.943822707558525" lon="12.447224941426091"><ele>40.25</ele><time>2026-05-01T09:01:48Z</time></trkpt><trkpt lat="45.94386549950327" lon="12.447042642811994"><ele>40.5</ele><time>2026-05-01T09:01:49Z</time></trkpt><trkpt lat="45.94390730051692" lon="12.446859761372771"><ele>40.75</ele><time>2026-05-01T09:01:50Z</time></trkpt><trkpt lat="45.94395301950123" lon="12.44667636827804"><ele>41.0</ele><time>2026-05-01T09:01:51Z</time></trkpt><trkpt lat="45.944001874489" lon="12.446482848420457"><ele>41.666666666666664</ele><time>2026-05-01T09:01:52Z</time></trkpt><trkpt lat="45.944056478595584" lon="12.446263283644981"><ele>42.333333333333336</ele><time>2026-05-01T09:01:53Z</time></trkpt><trkpt lat="45.94412038846905" lon="12.446025592041313"><ele>43.0</ele><time>2026-05-01T09:01:54Z</time></trkpt><trkpt lat="45.94418538466766" lon="12.445753943967224"><ele>43.0</ele><time>2026-05-01T09:01:55Z</time></trkpt><trkpt lat="45.94428364991653" lon="12.4454255328082"><ele>43.0</ele><time>2026-05-01T09:01:56Z</time></trkpt><trkpt lat="45.944372619628" lon="12.445080247195122"><ele>43.0</ele><time>2026-05-01T09:01:57Z</time></trkpt><trkpt lat="45.94443751951089" lon="12.444771992892695"><ele>43.0</ele><time>2026-05-01T09:01:58Z</time></trkpt><trkpt lat="45.944504185705476" lon="12.444496255731192"><ele>43.0</ele><time>2026-05-01T09:01:59Z</time></trkpt><trkpt lat="45.94455640119851" lon="12.444230651029276"><ele>43.0</ele><time>2026-05-01T09:02:00Z</time></trkpt><trkpt lat="45.94459005407408" lon="12.443967197231858"><ele>43.0</ele><time>2026-05-01T09:02:01Z</time></trkpt><trkpt lat="45.94461502434362" lon="12.443698567232008"><ele>43.0</ele><time>2026-05-01T09:02:02Z</time></trkpt><trkpt lat="45.944637115978765" lon="12.443421841628329"><ele>43.0</ele><time>2026-05-01T09:02:03Z</time></trkpt><trkpt lat="45.94465562326564" lon="12.443142066104516"><ele>43.0</ele><time>2026-05-01T09:02:04Z</time></trkpt><trkpt lat="45.94466855279935" lon="12.4428539188186"><ele>43.0</ele><time>2026-05-01T09:02:05Z</time></trkpt><trkpt lat="45.94468640802053" lon="12.442560474978965"><ele>43.333333333333336</ele><time>2026-05-01T09:02:06Z</time></trkpt><trkpt lat="45.94469918173647" lon="12.442290319497582"><ele>43.666666666666664</ele><time>2026-05-01T09:02:07Z</time></trkpt><trkpt lat="45.94471185917088" lon="12.442050110735321"><ele>44.0</ele><time>2026-05-01T09:02:08Z</time></trkpt><trkpt lat="45.94472211596089" lon="12.441836300026107"><ele>44.25</ele><time>2026-05-01T09:02:08.999Z</time></trkpt><trkpt lat="45.94473607109224" lon="12.4416386511301"><ele>44.5</ele><time>2026-05-01T09:02:09.999Z</time></trkpt><trkpt lat="45.94475297570228" lon="12.44142793696031"><ele>44.75</ele><time>2026-05-01T09:02:10.999Z</time></trkpt><trkpt lat="45.94477421667439" lon="12.44122211966225"><ele>45.0</ele><time>2026-05-01T09:02:11.999Z</time></trkpt><trkpt lat="45.94480068840541" lon="12.44102544293837"><ele>45.0</ele><time>2026-05-01T09:02:12.999Z</time></trkpt><trkpt lat="45.944828039613704" lon="12.440823909070746"><ele>45.0</ele><time>2026-05-01T09:02:13.999Z</time></trkpt><trkpt lat="45.94485601462726" lon="12.440607771442101"><ele>45.0</ele><time>2026-05-01T09:02:14.999Z</time></trkpt><trkpt lat="45.944881622347594" lon="12.440397110422907"><ele>45.0</ele><time>2026-05-01T09:02:15.999Z</time></trkpt><trkpt lat="45.94490431512777" lon="12.440192170982296"><ele>45.0</ele><time>2026-05-01T09:02:16.999Z</time></trkpt><trkpt lat="45.944922490898755" lon="12.44001260355356"><ele>45.0</ele><time>2026-05-01T09:02:17.999Z</time></trkpt><trkpt lat="45.94493488618119" lon="12.439835252499789"><ele>45.0</ele><time>2026-05-01T09:02:18.999Z</time></trkpt><trkpt lat="45.94493233746224" lon="12.43964152922128"><ele>45.0</ele><time>2026-05-01T09:02:19.999Z</time></trkpt><trkpt lat="45.94491189748547" lon="12.439432059236818"><ele>45.25</ele><time>2026-05-01T09:02:20.999Z</time></trkpt><trkpt lat="45.94488389867042" lon="12.439220777637566"><ele>45.5</ele><time>2026-05-01T09:02:21.999Z</time></trkpt><trkpt lat="45.94485918254596" lon="12.43901659048706"><ele>45.75</ele><time>2026-05-01T09:02:22.999Z</time></trkpt><trkpt lat="45.944834290369656" lon="12.438810247469318"><ele>46.0</ele><time>2026-05-01T09:02:23.999Z</time></trkpt><trkpt lat="45.94481089417457" lon="12.43860416273512"><ele>46.0</ele><time>2026-05-01T09:02:24.999Z</time></trkpt><trkpt lat="45.944785234536205" lon="12.438395747117468"><ele>46.0</ele><time>2026-05-01T09:02:25.999Z</time></trkpt><trkpt lat="45.94475857653484" lon="12.438197531937837"><ele>46.0</ele><time>2026-05-01T09:02:26.999Z</time></trkpt><trkpt lat="45.94472941930643" lon="12.437999366850022"><ele>46.0</ele><time>2026-05-01T09:02:27.999Z</time></trkpt><trkpt lat="45.94469594135068" lon="12.437793103978569"><ele>46.333333333333336</ele><time>2026-05-01T09:02:28.999Z</time></trkpt><trkpt lat="45.94465817246368" lon="12.437571330183921"><ele>46.666666666666664</ele><time>2026-05-01T09:02:29.999Z</time></trkpt><trkpt lat="45.94462030498257" lon="12.437339668105192"><ele>47.0</ele><time>2026-05-01T09:02:30.999Z</time></trkpt><trkpt lat="45.94458239750259" lon="12.43710534055152"><ele>46.33333333333333</ele><time>2026-05-01T09:02:31.999Z</time></trkpt><trkpt lat="45.94454472975601" lon="12.43687625204497"><ele>45.666666666666664</ele><time>2026-05-01T09:02:32.999Z</time></trkpt><trkpt lat="45.94450699916606" lon="12.436650204218882"><ele>45.0</ele><time>2026-05-01T09:02:33.999Z</time></trkpt><trkpt lat="45.944468463728406" lon="12.43643037355992"><ele>44.666666666666664</ele><time>2026-05-01T09:02:34.999Z</time></trkpt><trkpt lat="45.94443629316344" lon="12.43621350264858"><ele>44.33333333333333</ele><time>2026-05-01T09:02:35.999Z</time></trkpt><trkpt lat="45.94441242114113" lon="12.43599644539445"><ele>44.0</ele><time>2026-05-01T09:02:36.999Z</time></trkpt><trkpt lat="45.94439516844204" lon="12.435778033954856"><ele>44.0</ele><time>2026-05-01T09:02:37.999Z</time></trkpt><trkpt lat="45.94438780824701" lon="12.43555232933351"><ele>44.0</ele><time>2026-05-01T09:02:38.999Z</time></trkpt><trkpt lat="45.94439247994354" lon="12.435336682997907"><ele>44.0</ele><time>2026-05-01T09:02:39.999Z</time></trkpt><trkpt lat="45.944401526965265" lon="12.435139732766636"><ele>44.0</ele><time>2026-05-01T09:02:40.999Z</time></trkpt><trkpt lat="45.94441950448154" lon="12.434943989043338"><ele>44.25</ele><time>2026-05-01T09:02:41.999Z</time></trkpt><trkpt lat="45.944448392198616" lon="12.434745329540117"><ele>44.5</ele><time>2026-05-01T09:02:42.999Z</time></trkpt><trkpt lat="45.9444849084291" lon="12.434544621856151"><ele>44.75</ele><time>2026-05-01T09:02:43.999Z</time></trkpt><trkpt lat="45.94452931949593" lon="12.434339026738481"><ele>45.0</ele><time>2026-05-01T09:02:44.999Z</time></trkpt><trkpt lat="45.94457838451969" lon="12.43413143143052"><ele>45.0</ele><time>2026-05-01T09:02:45.999Z</time></trkpt><trkpt lat="45.9446265665813" lon="12.43392429087031"><ele>45.0</ele><time>2026-05-01T09:02:46.999Z</time></trkpt><trkpt lat="45.94467220903713" lon="12.433721135431508"><ele>45.0</ele><time>2026-05-01T09:02:47.999Z</time></trkpt><trkpt lat="45.94471692324013" lon="12.433523256177864"><ele>45.0</ele><time>2026-05-01T09:02:48.999Z</time></trkpt><trkpt lat="45.94475721724818" lon="12.433343487662544"><ele>45.25</ele><time>2026-05-01T09:02:49.999Z</time></trkpt><trkpt lat="45.94479747162992" lon="12.433172429178542"><ele>45.5</ele><time>2026-05-01T09:02:51Z</time></trkpt><trkpt lat="45.944839493686466" lon="12.43299784677631"><ele>45.75</ele><time>2026-05-01T09:02:52Z</time></trkpt><trkpt lat="45.94488141909482" lon="12.432819872230331"><ele>46.0</ele><time>2026-05-01T09:02:53Z</time></trkpt><trkpt lat="45.94492633918523" lon="12.432639805590318"><ele>46.0</ele><time>2026-05-01T09:02:54Z</time></trkpt><trkpt lat="45.94496766461181" lon="12.432452041379616"><ele>46.0</ele><time>2026-05-01T09:02:55Z</time></trkpt><trkpt lat="45.945015563109315" lon="12.43225919444587"><ele>46.0</ele><time>2026-05-01T09:02:56Z</time></trkpt><trkpt lat="45.94506666079701" lon="12.432053185488577"><ele>46.0</ele><time>2026-05-01T09:02:57Z</time></trkpt><trkpt lat="45.94511849152436" lon="12.431839692296064"><ele>46.333333333333336</ele><time>2026-05-01T09:02:58Z</time></trkpt><trkpt lat="45.94517285012744" lon="12.431622140507574"><ele>46.666666666666664</ele><time>2026-05-01T09:02:59Z</time></trkpt><trkpt lat="45.94522536377622" lon="12.431401743551575"><ele>47.0</ele><time>2026-05-01T09:03:00Z</time></trkpt><trkpt lat="45.94527764928833" lon="12.431181136800117"><ele>47.33333333333333</ele><time>2026-05-01T09:03:01Z</time></trkpt><trkpt lat="45.94532783707594" lon="12.430959041672375"><ele>47.666666666666664</ele><time>2026-05-01T09:03:02Z</time></trkpt><trkpt lat="45.945372522007034" lon="12.430733518966463"><ele>48.0</ele><time>2026-05-01T09:03:03Z</time></trkpt><trkpt lat="45.945407732644554" lon="12.430503985575768"><ele>48.33333333333333</ele><time>2026-05-01T09:03:04Z</time></trkpt><trkpt lat="45.94543128119134" lon="12.430265980763181"><ele>48.666666666666664</ele><time>2026-05-01T09:03:05Z</time></trkpt><trkpt lat="45.94544472813621" lon="12.430018170134451"><ele>49.0</ele><time>2026-05-01T09:03:06Z</time></trkpt><trkpt lat="45.9454440026818" lon="12.42976373932713"><ele>49.0</ele><time>2026-05-01T09:03:07Z</time></trkpt><trkpt lat="45.945437789980595" lon="12.429505662803306"><ele>49.0</ele><time>2026-05-01T09:03:08Z</time></trkpt><trkpt lat="45.94542032626444" lon="12.429245097972762"><ele>49.0</ele><time>2026-05-01T09:03:09Z</time></trkpt><trkpt lat="45.94540507706785" lon="12.428985441003746"><ele>49.0</ele><time>2026-05-01T09:03:10Z</time></trkpt><trkpt lat="45.945389310289485" lon="12.42872620105397"><ele>49.0</ele><time>2026-05-01T09:03:11Z</time></trkpt><trkpt lat="45.945372574360796" lon="12.428473927144408"><ele>49.0</ele><time>2026-05-01T09:03:12Z</time></trkpt><trkpt lat="45.94535841961384" lon="12.428227226310618"><ele>49.0</ele><time>2026-05-01T09:03:13Z</time></trkpt><trkpt lat="45.94534945562903" lon="12.427989349517023"><ele>49.0</ele><time>2026-05-01T09:03:14Z</time></trkpt><trkpt lat="45.945345433117865" lon="12.427753668572395"><ele>49.0</ele><time>2026-05-01T09:03:15Z</time></trkpt><trkpt lat="45.94534550506247" lon="12.427513745994835"><ele>49.0</ele><time>2026-05-01T09:03:16Z</time></trkpt><trkpt lat="45.94535165575171" lon="12.427272952976605"><ele>49.0</ele><time>2026-05-01T09:03:17Z</time></trkpt><trkpt lat="45.94535812768504" lon="12.427028976232387"><ele>49.0</ele><time>2026-05-01T09:03:18Z</time></trkpt><trkpt lat="45.945365153277464" lon="12.42678311380264"><ele>49.33333333333333</ele><time>2026-05-01T09:03:19Z</time></trkpt><trkpt lat="45.945372492036206" lon="12.426535469930961"><ele>49.66666666666667</ele><time>2026-05-01T09:03:20Z</time></trkpt><trkpt lat="45.945379984284635" lon="12.426293282887759"><ele>50.0</ele><time>2026-05-01T09:03:21Z</time></trkpt><trkpt lat="45.94538476336434" lon="12.426047792555028"><ele>50.333333333333336</ele><time>2026-05-01T09:03:22Z</time></trkpt><trkpt lat="45.945393835214894" lon="12.425801194967537"><ele>50.66666666666667</ele><time>2026-05-01T09:03:23Z</time></trkpt><trkpt lat="45.94540322231546" lon="12.425552410525443"><ele>51.0</ele><time>2026-05-01T09:03:24Z</time></trkpt><trkpt lat="45.945412069667896" lon="12.425302983839803"><ele>51.0</ele><time>2026-05-01T09:03:25Z</time></trkpt><trkpt lat="45.945423022363485" lon="12.425049929541238"><ele>51.0</ele><time>2026-05-01T09:03:26Z</time></trkpt><trkpt lat="45.94543426580898" lon="12.42479423921545"><ele>51.0</ele><time>2026-05-01T09:03:27Z</time></trkpt><trkpt lat="45.94544245129738" lon="12.424533158958068"><ele>51.0</ele><time>2026-05-01T09:03:28Z</time></trkpt><trkpt lat="45.94545163997413" lon="12.424267967635373"><ele>51.0</ele><time>2026-05-01T09:03:29Z</time></trkpt><trkpt lat="45.94546088423616" lon="12.42400531143392"><ele>51.0</ele><time>2026-05-01T09:03:30Z</time></trkpt><trkpt lat="45.945472061800636" lon="12.423743651611098"><ele>51.0</ele><time>2026-05-01T09:03:31Z</time></trkpt><trkpt lat="45.94548656327893" lon="12.423483176551947"><ele>51.0</ele><time>2026-05-01T09:03:32Z</time></trkpt><trkpt lat="45.945509018337454" lon="12.423231333683308"><ele>51.0</ele><time>2026-05-01T09:03:33Z</time></trkpt><trkpt lat="45.94553964693" lon="12.422988798993812"><ele>51.0</ele><time>2026-05-01T09:03:34Z</time></trkpt><trkpt lat="45.94557681606538" lon="12.422754758233188"><ele>51.0</ele><time>2026-05-01T09:03:35Z</time></trkpt><trkpt lat="45.94561101114345" lon="12.422527816117373"><ele>51.0</ele><time>2026-05-01T09:03:36Z</time></trkpt><trkpt lat="45.945640586572274" lon="12.422303314377665"><ele>51.33333333333333</ele><time>2026-05-01T09:03:37Z</time></trkpt><trkpt lat="45.94566537935951" lon="12.42207450728091"><ele>51.666666666666664</ele><time>2026-05-01T09:03:38Z</time></trkpt><trkpt lat="45.945684734991346" lon="12.421841137963314"><ele>52.0</ele><time>2026-05-01T09:03:39Z</time></trkpt><trkpt lat="45.945693973254535" lon="12.421603159688573"><ele>52.0</ele><time>2026-05-01T09:03:40Z</time></trkpt><trkpt lat="45.94569414812075" lon="12.421360979497667"><ele>52.0</ele><time>2026-05-01T09:03:41Z</time></trkpt><trkpt lat="45.9456833451271" lon="12.421116387539195"><ele>52.0</ele><time>2026-05-01T09:03:42Z</time></trkpt><trkpt lat="45.945666579187794" lon="12.420868110729959"><ele>51.666666666666664</ele><time>2026-05-01T09:03:43Z</time></trkpt><trkpt lat="45.9456477484383" lon="12.420617668392355"><ele>51.33333333333333</ele><time>2026-05-01T09:03:44Z</time></trkpt><trkpt lat="45.94562984549848" lon="12.420362570323285"><ele>51.0</ele><time>2026-05-01T09:03:45Z</time></trkpt><trkpt lat="45.94561103873813" lon="12.420103985225118"><ele>51.0</ele><time>2026-05-01T09:03:46Z</time></trkpt><trkpt lat="45.945592964254786" lon="12.419841611593133"><ele>51.0</ele><time>2026-05-01T09:03:47Z</time></trkpt><trkpt lat="45.94557385581916" lon="12.419574554580464"><ele>51.0</ele><time>2026-05-01T09:03:48Z</time></trkpt><trkpt lat="45.945555041793966" lon="12.419304185759357"><ele>51.33333333333333</ele><time>2026-05-01T09:03:49Z</time></trkpt><trkpt lat="45.94553598799156" lon="12.419034019230892"><ele>51.666666666666664</ele><time>2026-05-01T09:03:50Z</time></trkpt><trkpt lat="45.94551414147282" lon="12.418767017494478"><ele>52.0</ele><time>2026-05-01T09:03:51Z</time></trkpt><trkpt lat="45.94549440148954" lon="12.418514067577396"><ele>52.25</ele><time>2026-05-01T09:03:52Z</time></trkpt><trkpt lat="45.945474200007745" lon="12.41828608905239"><ele>52.5</ele><time>2026-05-01T09:03:53Z</time></trkpt><trkpt lat="45.94545653491661" lon="12.41807772447387"><ele>52.75</ele><time>2026-05-01T09:03:54Z</time></trkpt><trkpt lat="45.9454408587293" lon="12.417900381316239"><ele>53.0</ele><time>2026-05-01T09:03:55Z</time></trkpt><trkpt lat="45.945426552151645" lon="12.417747280989486"><ele>53.66666666666667</ele><time>2026-05-01T09:03:56Z</time></trkpt><trkpt lat="45.94541527384388" lon="12.4176135978223"><ele>54.333333333333336</ele><time>2026-05-01T09:03:57Z</time></trkpt><trkpt lat="45.94540384664923" lon="12.417492908997765"><ele>55.0</ele><time>2026-05-01T09:03:58Z</time></trkpt><trkpt lat="45.945396625277" lon="12.417381507740219"><ele>55.66666666666667</ele><time>2026-05-01T09:03:59Z</time></trkpt><trkpt lat="45.94539066705138" lon="12.417274208482562"><ele>56.333333333333336</ele><time>2026-05-01T09:04:00Z</time></trkpt><trkpt lat="45.945382577934595" lon="12.417162486338183"><ele>57.0</ele><time>2026-05-01T09:04:01Z</time></trkpt><trkpt lat="45.945375006028385" lon="12.417053402564306"><ele>57.0</ele><time>2026-05-01T09:04:02Z</time></trkpt><trkpt lat="45.94537842297363" lon="12.416948656659148"><ele>57.0</ele><time>2026-05-01T09:04:03Z</time></trkpt><trkpt lat="45.945403893971346" lon="12.416834199497403"><ele>57.0</ele><time>2026-05-01T09:04:04Z</time></trkpt><trkpt lat="45.94544151955511" lon="12.416728482287143"><ele>57.0</ele><time>2026-05-01T09:04:05Z</time></trkpt><trkpt lat="45.945473942402806" lon="12.416612876504573"><ele>57.0</ele><time>2026-05-01T09:04:06Z</time></trkpt><trkpt lat="45.94551077013955" lon="12.416489511463393"><ele>57.0</ele><time>2026-05-01T09:04:07Z</time></trkpt><trkpt lat="45.94546897462899" lon="12.416359081162842"><ele>57.0</ele><time>2026-05-01T09:04:08Z</time></trkpt><trkpt lat="45.945423436803175" lon="12.416209180689144"><ele>57.0</ele><time>2026-05-01T09:04:09Z</time></trkpt><trkpt lat="45.94541857171599" lon="12.416056346340241"><ele>57.0</ele><time>2026-05-01T09:04:10Z</time></trkpt><trkpt lat="45.94543189707103" lon="12.41587509832794"><ele>57.0</ele><time>2026-05-01T09:04:11Z</time></trkpt><trkpt lat="45.94545881063784" lon="12.415688334616753"><ele>57.0</ele><time>2026-05-01T09:04:11.999Z</time></trkpt><trkpt lat="45.94548414412911" lon="12.41550130797592"><ele>57.0</ele><time>2026-05-01T09:04:12.999Z</time></trkpt><trkpt lat="45.945513655225724" lon="12.41531029044469"><ele>57.0</ele><time>2026-05-01T09:04:13.999Z</time></trkpt><trkpt lat="45.94554644866358" lon="12.415112708515183"><ele>57.0</ele><time>2026-05-01T09:04:14.999Z</time></trkpt><trkpt lat="45.94558195538561" lon="12.414918759774132"><ele>57.0</ele><time>2026-05-01T09:04:15.999Z</time></trkpt><trkpt lat="45.94562230710821" lon="12.414735190923048"><ele>57.0</ele><time>2026-05-01T09:04:16.999Z</time></trkpt><trkpt lat="45.945667125248235" lon="12.414559725100068"><ele>57.0</ele><time>2026-05-01T09:04:17.999Z</time></trkpt><trkpt lat="45.945709546482796" lon="12.414389565074462"><ele>57.0</ele><time>2026-05-01T09:04:18.999Z</time></trkpt><trkpt lat="45.94575608969145" lon="12.414216807065637"><ele>57.0</ele><time>2026-05-01T09:04:19.999Z</time></trkpt><trkpt lat="45.945812391555855" lon="12.414036716610918"><ele>57.0</ele><time>2026-05-01T09:04:20.999Z</time></trkpt><trkpt lat="45.94586722656847" lon="12.413876149619638"><ele>57.0</ele><time>2026-05-01T09:04:21.999Z</time></trkpt><trkpt lat="45.94591740964706" lon="12.413734837968716"><ele>57.0</ele><time>2026-05-01T09:04:22.999Z</time></trkpt><trkpt lat="45.9459672151831" lon="12.413599419954105"><ele>57.0</ele><time>2026-05-01T09:04:23.999Z</time></trkpt><trkpt lat="45.94601965992592" lon="12.413457520184489"><ele>57.0</ele><time>2026-05-01T09:04:24.999Z</time></trkpt><trkpt lat="45.94607573735778" lon="12.413307298888634"><ele>57.0</ele><time>2026-05-01T09:04:25.999Z</time></trkpt><trkpt lat="45.946138315345365" lon="12.413138460936853"><ele>57.0</ele><time>2026-05-01T09:04:26.999Z</time></trkpt><trkpt lat="45.94620703038089" lon="12.412957023464179"><ele>57.0</ele><time>2026-05-01T09:04:27.999Z</time></trkpt><trkpt lat="45.946281658299284" lon="12.412760605192366"><ele>57.0</ele><time>2026-05-01T09:04:28.999Z</time></trkpt><trkpt lat="45.94636306633843" lon="12.41254445125045"><ele>57.0</ele><time>2026-05-01T09:04:29.999Z</time></trkpt><trkpt lat="45.946447969620344" lon="12.412313057995926"><ele>57.0</ele><time>2026-05-01T09:04:30.999Z</time></trkpt><trkpt lat="45.94654003264934" lon="12.412060283937425"><ele>57.0</ele><time>2026-05-01T09:04:31.999Z</time></trkpt><trkpt lat="45.94663834008344" lon="12.411791977859009"><ele>57.0</ele><time>2026-05-01T09:04:32.999Z</time></trkpt><trkpt lat="45.94674048762138" lon="12.411515665388082"><ele>57.66666666666667</ele><time>2026-05-01T09:04:33.999Z</time></trkpt><trkpt lat="45.9468415042569" lon="12.411239857370584"><ele>58.333333333333336</ele><time>2026-05-01T09:04:34.999Z</time></trkpt><trkpt lat="45.94693297914596" lon="12.410996881696336"><ele>59.0</ele><time>2026-05-01T09:04:35.999Z</time></trkpt><trkpt lat="45.94701773519732" lon="12.410766131283744"><ele>59.0</ele><time>2026-05-01T09:04:36.999Z</time></trkpt><trkpt lat="45.94710416141313" lon="12.410538701803072"><ele>59.0</ele><time>2026-05-01T09:04:37.999Z</time></trkpt><trkpt lat="45.947189110646555" lon="12.410311180341443"><ele>59.0</ele><time>2026-05-01T09:04:38.999Z</time></trkpt><trkpt lat="45.94727345201968" lon="12.410083458882218"><ele>59.0</ele><time>2026-05-01T09:04:39.999Z</time></trkpt><trkpt lat="45.947357989876956" lon="12.409853749024292"><ele>59.0</ele><time>2026-05-01T09:04:40.999Z</time></trkpt><trkpt lat="45.947441123968865" lon="12.409632079376001"><ele>59.0</ele><time>2026-05-01T09:04:41.999Z</time></trkpt><trkpt lat="45.947520832057734" lon="12.40941723612072"><ele>58.66666666666667</ele><time>2026-05-01T09:04:42.999Z</time></trkpt><trkpt lat="45.947597984305396" lon="12.409205350450394"><ele>58.33333333333333</ele><time>2026-05-01T09:04:43.999Z</time></trkpt><trkpt lat="45.94767387180937" lon="12.40899618429858"><ele>58.0</ele><time>2026-05-01T09:04:44.999Z</time></trkpt><trkpt lat="45.947750481381945" lon="12.408790620382025"><ele>57.33333333333333</ele><time>2026-05-01T09:04:45.999Z</time></trkpt><trkpt lat="45.9478265735251" lon="12.40858313269366"><ele>56.66666666666667</ele><time>2026-05-01T09:04:46.999Z</time></trkpt><trkpt lat="45.947902084286866" lon="12.408378619317903"><ele>56.0</ele><time>2026-05-01T09:04:47.999Z</time></trkpt><trkpt lat="45.947977886397545" lon="12.408179444124292"><ele>56.0</ele><time>2026-05-01T09:04:48.999Z</time></trkpt><trkpt lat="45.948050326419384" lon="12.407984972936989"><ele>56.0</ele><time>2026-05-01T09:04:49.999Z</time></trkpt><trkpt lat="45.9481237527057" lon="12.40779457124171"><ele>56.0</ele><time>2026-05-01T09:04:50.999Z</time></trkpt><trkpt lat="45.9481986725291" lon="12.4076065079298"><ele>56.0</ele><time>2026-05-01T09:04:51.999Z</time></trkpt><trkpt lat="45.948270287854086" lon="12.407417248663338"><ele>56.0</ele><time>2026-05-01T09:04:52.999Z</time></trkpt><trkpt lat="45.94834132964611" lon="12.407225039664212"><ele>56.0</ele><time>2026-05-01T09:04:53.999Z</time></trkpt><trkpt lat="45.94841401276408" lon="12.407027811114377"><ele>57.66666666666667</ele><time>2026-05-01T09:04:54.999Z</time></trkpt><trkpt lat="45.94848860735112" lon="12.406827881878778"><ele>59.33333333333333</ele><time>2026-05-01T09:04:55.999Z</time></trkpt><trkpt lat="45.9485653817353" lon="12.406623144468721"><ele>61.0</ele><time>2026-05-01T09:04:57Z</time></trkpt><trkpt lat="45.94864228116991" lon="12.40641165940584"><ele>61.0</ele><time>2026-05-01T09:04:58Z</time></trkpt><trkpt lat="45.94871848310941" lon="12.406184805428948"><ele>61.0</ele><time>2026-05-01T09:04:59Z</time></trkpt><trkpt lat="45.9488007374319" lon="12.405946945177382"><ele>61.0</ele><time>2026-05-01T09:05:00Z</time></trkpt><trkpt lat="45.94888656631454" lon="12.405710933251036"><ele>61.33333333333333</ele><time>2026-05-01T09:05:01Z</time></trkpt><trkpt lat="45.94897428019325" lon="12.405479095906362"><ele>61.66666666666667</ele><time>2026-05-01T09:05:02Z</time></trkpt><trkpt lat="45.94906121471615" lon="12.405247500655681"><ele>62.0</ele><time>2026-05-01T09:05:03Z</time></trkpt><trkpt lat="45.94913768696444" lon="12.405034932217976"><ele>62.0</ele><time>2026-05-01T09:05:04Z</time></trkpt><trkpt lat="45.94920847029679" lon="12.404840826899402"><ele>62.0</ele><time>2026-05-01T09:05:05Z</time></trkpt><trkpt lat="45.94927829377139" lon="12.404653014481966"><ele>62.0</ele><time>2026-05-01T09:05:06Z</time></trkpt><trkpt lat="45.94935070967808" lon="12.404468819719781"><ele>62.0</ele><time>2026-05-01T09:05:07Z</time></trkpt><trkpt lat="45.94942430840257" lon="12.404277574677643"><ele>62.0</ele><time>2026-05-01T09:05:08Z</time></trkpt><trkpt lat="45.94949775261305" lon="12.404080931852208"><ele>62.0</ele><time>2026-05-01T09:05:09Z</time></trkpt><trkpt lat="45.949573186405566" lon="12.403886059489894"><ele>62.0</ele><time>2026-05-01T09:05:10Z</time></trkpt><trkpt lat="45.94964868516789" lon="12.403687310688024"><ele>61.66666666666667</ele><time>2026-05-01T09:05:11Z</time></trkpt><trkpt lat="45.94972728109866" lon="12.403493572839603"><ele>61.33333333333333</ele><time>2026-05-01T09:05:12Z</time></trkpt><trkpt lat="45.94980052067596" lon="12.403300568027007"><ele>61.0</ele><time>2026-05-01T09:05:13Z</time></trkpt><trkpt lat="45.949867272690774" lon="12.403104595262047"><ele>61.33333333333333</ele><time>2026-05-01T09:05:14Z</time></trkpt><trkpt lat="45.94992586801796" lon="12.4029030617853"><ele>61.66666666666667</ele><time>2026-05-01T09:05:15Z</time></trkpt><trkpt lat="45.949974737739815" lon="12.402689442839163"><ele>62.0</ele><time>2026-05-01T09:05:16Z</time></trkpt><trkpt lat="45.95001941428923" lon="12.402469976108256"><ele>62.0</ele><time>2026-05-01T09:05:17Z</time></trkpt><trkpt lat="45.95005463837243" lon="12.402245973887794"><ele>62.0</ele><time>2026-05-01T09:05:18Z</time></trkpt><trkpt lat="45.95007898956926" lon="12.40200829060129"><ele>62.0</ele><time>2026-05-01T09:05:19Z</time></trkpt><trkpt lat="45.950099798028305" lon="12.401760792726293"><ele>62.333333333333336</ele><time>2026-05-01T09:05:20Z</time></trkpt><trkpt lat="45.950118874572496" lon="12.401510667578087"><ele>62.66666666666667</ele><time>2026-05-01T09:05:21Z</time></trkpt><trkpt lat="45.950134188090566" lon="12.401259923701874"><ele>63.0</ele><time>2026-05-01T09:05:22Z</time></trkpt><trkpt lat="45.9501501108374" lon="12.40101476987619"><ele>63.0</ele><time>2026-05-01T09:05:23Z</time></trkpt><trkpt lat="45.95016732264751" lon="12.400772116427465"><ele>63.0</ele><time>2026-05-01T09:05:24Z</time></trkpt><trkpt lat="45.95018300193604" lon="12.400531861736972"><ele>63.0</ele><time>2026-05-01T09:05:25Z</time></trkpt><trkpt lat="45.95019884209333" lon="12.400292831613493"><ele>63.0</ele><time>2026-05-01T09:05:26Z</time></trkpt><trkpt lat="45.950216024694235" lon="12.400052840217317"><ele>63.0</ele><time>2026-05-01T09:05:27Z</time></trkpt><trkpt lat="45.950234264264125" lon="12.399809877680493"><ele>63.0</ele><time>2026-05-01T09:05:28Z</time></trkpt><trkpt lat="45.95025228280296" lon="12.39956525526164"><ele>63.0</ele><time>2026-05-01T09:05:29Z</time></trkpt><trkpt lat="45.95026924001142" lon="12.399319995421326"><ele>63.0</ele><time>2026-05-01T09:05:30Z</time></trkpt><trkpt lat="45.95028578456743" lon="12.39906838321075"><ele>63.0</ele><time>2026-05-01T09:05:31Z</time></trkpt><trkpt lat="45.95030195979134" lon="12.3988121208957"><ele>64.33333333333333</ele><time>2026-05-01T09:05:32Z</time></trkpt><trkpt lat="45.95032100301284" lon="12.398550024526378"><ele>65.66666666666666</ele><time>2026-05-01T09:05:33Z</time></trkpt><trkpt lat="45.9503413842712" lon="12.398285847376092"><ele>67.0</ele><time>2026-05-01T09:05:34Z</time></trkpt><trkpt lat="45.95035968161268" lon="12.398022806210298"><ele>67.0</ele><time>2026-05-01T09:05:35Z</time></trkpt><trkpt lat="45.95037666524022" lon="12.397760997884493"><ele>67.0</ele><time>2026-05-01T09:05:36Z</time></trkpt><trkpt lat="45.95039486532977" lon="12.39749903869664"><ele>67.0</ele><time>2026-05-01T09:05:37Z</time></trkpt><trkpt lat="45.950411516717224" lon="12.397236876311847"><ele>66.33333333333333</ele><time>2026-05-01T09:05:38Z</time></trkpt><trkpt lat="45.950427994541215" lon="12.396976986515492"><ele>65.66666666666667</ele><time>2026-05-01T09:05:39Z</time></trkpt><trkpt lat="45.950444000180376" lon="12.396716350355875"><ele>65.0</ele><time>2026-05-01T09:05:40Z</time></trkpt><trkpt lat="45.95046374078536" lon="12.396458337761498"><ele>65.66666666666667</ele><time>2026-05-01T09:05:41Z</time></trkpt><trkpt lat="45.950483547919625" lon="12.396197768241244"><ele>66.33333333333333</ele><time>2026-05-01T09:05:42Z</time></trkpt><trkpt lat="45.95050689784204" lon="12.3959437414204"><ele>67.0</ele><time>2026-05-01T09:05:43Z</time></trkpt><trkpt lat="45.95054366830537" lon="12.395696960498448"><ele>67.66666666666666</ele><time>2026-05-01T09:05:44Z</time></trkpt><trkpt lat="45.95058969436864" lon="12.395456977409818"><ele>68.33333333333333</ele><time>2026-05-01T09:05:45Z</time></trkpt><trkpt lat="45.95064762820162" lon="12.395230297411644"><ele>69.0</ele><time>2026-05-01T09:05:46Z</time></trkpt><trkpt lat="45.9507102055305" lon="12.395014433241656"><ele>69.0</ele><time>2026-05-01T09:05:47Z</time></trkpt><trkpt lat="45.950774131111636" lon="12.394807372482251"><ele>69.0</ele><time>2026-05-01T09:05:48Z</time></trkpt><trkpt lat="45.95084309522382" lon="12.394596319520407"><ele>69.0</ele><time>2026-05-01T09:05:49Z</time></trkpt><trkpt lat="45.95091089890191" lon="12.394382304072904"><ele>69.0</ele><time>2026-05-01T09:05:50Z</time></trkpt><trkpt lat="45.950977156390806" lon="12.394163394703428"><ele>69.0</ele><time>2026-05-01T09:05:51Z</time></trkpt><trkpt lat="45.95104890173573" lon="12.393948964338078"><ele>69.0</ele><time>2026-05-01T09:05:52Z</time></trkpt><trkpt lat="45.951117846838194" lon="12.3937270283115"><ele>69.0</ele><time>2026-05-01T09:05:53Z</time></trkpt><trkpt lat="45.951200133318245" lon="12.393512427133055"><ele>69.0</ele><time>2026-05-01T09:05:54Z</time></trkpt><trkpt lat="45.95127133214037" lon="12.393285707898741"><ele>69.0</ele><time>2026-05-01T09:05:55Z</time></trkpt><trkpt lat="45.95134329808338" lon="12.393056545831781"><ele>69.0</ele><time>2026-05-01T09:05:56Z</time></trkpt><trkpt lat="45.9514010202371" lon="12.392816131406919"><ele>69.0</ele><time>2026-05-01T09:05:57Z</time></trkpt><trkpt lat="45.95148177185217" lon="12.392615119818412"><ele>69.0</ele><time>2026-05-01T09:05:58Z</time></trkpt><trkpt lat="45.95154275976378" lon="12.392420960601742"><ele>69.0</ele><time>2026-05-01T09:05:59Z</time></trkpt><trkpt lat="45.951602287617455" lon="12.392231618858302"><ele>69.0</ele><time>2026-05-01T09:06:00Z</time></trkpt><trkpt lat="45.951638926919756" lon="12.39206263260867"><ele>69.0</ele><time>2026-05-01T09:06:01Z</time></trkpt><trkpt lat="45.95168605836121" lon="12.391915230894087"><ele>69.0</ele><time>2026-05-01T09:06:02Z</time></trkpt><trkpt lat="45.951726942549804" lon="12.391787836550504"><ele>68.83333333333333</ele><time>2026-05-01T09:06:03Z</time></trkpt><trkpt lat="45.95175811425423" lon="12.391695007789075"><ele>68.66666666666667</ele><time>2026-05-01T09:06:04Z</time></trkpt><trkpt lat="45.95178880144281" lon="12.391609668700621"><ele>68.5</ele><time>2026-05-01T09:06:05Z</time></trkpt><trkpt lat="45.951835771785305" lon="12.391519490008639"><ele>68.33333333333334</ele><time>2026-05-01T09:06:06Z</time></trkpt><trkpt lat="45.951901218073985" lon="12.391430218303755"><ele>68.16666666666667</ele><time>2026-05-01T09:06:07Z</time></trkpt><trkpt lat="45.95190981944007" lon="12.391274367618612"><ele>68.0</ele><time>2026-05-01T09:06:08Z</time></trkpt><trkpt lat="45.95194391439065" lon="12.391092113595496"><ele>68.0</ele><time>2026-05-01T09:06:09Z</time></trkpt><trkpt lat="45.951976976152174" lon="12.390893529286972"><ele>68.0</ele><time>2026-05-01T09:06:10Z</time></trkpt><trkpt lat="45.95200361429521" lon="12.390685256808117"><ele>68.0</ele><time>2026-05-01T09:06:11Z</time></trkpt><trkpt lat="45.952017217690624" lon="12.390461125579144"><ele>68.0</ele><time>2026-05-01T09:06:11.999Z</time></trkpt><trkpt lat="45.952017033323294" lon="12.390225695031853"><ele>68.0</ele><time>2026-05-01T09:06:12.999Z</time></trkpt><trkpt lat="45.952016241919424" lon="12.38998452146584"><ele>68.0</ele><time>2026-05-01T09:06:13.999Z</time></trkpt><trkpt lat="45.95201674573759" lon="12.389740874977706"><ele>68.0</ele><time>2026-05-01T09:06:14.999Z</time></trkpt><trkpt lat="45.95201694702903" lon="12.389495862812593"><ele>68.33333333333334</ele><time>2026-05-01T09:06:15.999Z</time></trkpt><trkpt lat="45.95202417370385" lon="12.389240793023697"><ele>68.66666666666667</ele><time>2026-05-01T09:06:16.999Z</time></trkpt><trkpt lat="45.95204433486055" lon="12.388981402575112"><ele>69.0</ele><time>2026-05-01T09:06:17.999Z</time></trkpt><trkpt lat="45.95207618951943" lon="12.3887156048545"><ele>69.33333333333333</ele><time>2026-05-01T09:06:18.999Z</time></trkpt><trkpt lat="45.95211841096505" lon="12.388446974555047"><ele>69.66666666666666</ele><time>2026-05-01T09:06:19.999Z</time></trkpt><trkpt lat="45.95216352170239" lon="12.388170440927471"><ele>70.0</ele><time>2026-05-01T09:06:20.999Z</time></trkpt><trkpt lat="45.95220992016502" lon="12.387891978397695"><ele>70.33333333333333</ele><time>2026-05-01T09:06:21.999Z</time></trkpt><trkpt lat="45.952255192881104" lon="12.387615213426638"><ele>70.66666666666667</ele><time>2026-05-01T09:06:22.999Z</time></trkpt><trkpt lat="45.952298743569656" lon="12.3873394188005"><ele>71.0</ele><time>2026-05-01T09:06:23.999Z</time></trkpt><trkpt lat="45.95234305063627" lon="12.387068056222995"><ele>71.33333333333334</ele><time>2026-05-01T09:06:24.999Z</time></trkpt><trkpt lat="45.95238913800446" lon="12.386799793018904"><ele>71.66666666666667</ele><time>2026-05-01T09:06:25.999Z</time></trkpt><trkpt lat="45.95243224830002" lon="12.386533369978238"><ele>72.0</ele><time>2026-05-01T09:06:26.999Z</time></trkpt><trkpt lat="45.95247025147701" lon="12.386266886666514"><ele>72.0</ele><time>2026-05-01T09:06:27.999Z</time></trkpt><trkpt lat="45.95251297611891" lon="12.386002322259507"><ele>72.0</ele><time>2026-05-01T09:06:28.999Z</time></trkpt><trkpt lat="45.95255428096172" lon="12.385743868294997"><ele>72.0</ele><time>2026-05-01T09:06:29.999Z</time></trkpt><trkpt lat="45.95259178709599" lon="12.385496357232102"><ele>71.66666666666667</ele><time>2026-05-01T09:06:30.999Z</time></trkpt><trkpt lat="45.95262901773455" lon="12.385258646402379"><ele>71.33333333333334</ele><time>2026-05-01T09:06:31.999Z</time></trkpt><trkpt lat="45.9526646215783" lon="12.385029519526848"><ele>71.0</ele><time>2026-05-01T09:06:32.999Z</time></trkpt><trkpt lat="45.95269808666253" lon="12.38480643120861"><ele>72.0</ele><time>2026-05-01T09:06:33.999Z</time></trkpt><trkpt lat="45.95273244537803" lon="12.38458810283883"><ele>73.0</ele><time>2026-05-01T09:06:34.999Z</time></trkpt><trkpt lat="45.952766744439764" lon="12.384369069583379"><ele>74.0</ele><time>2026-05-01T09:06:35.999Z</time></trkpt><trkpt lat="45.95280163256539" lon="12.38414400121871"><ele>74.0</ele><time>2026-05-01T09:06:36.999Z</time></trkpt><trkpt lat="45.95283845472811" lon="12.383920207164158"><ele>74.0</ele><time>2026-05-01T09:06:37.999Z</time></trkpt><trkpt lat="45.95287762348859" lon="12.383687808068279"><ele>74.0</ele><time>2026-05-01T09:06:38.999Z</time></trkpt><trkpt lat="45.95291395068487" lon="12.383447854204574"><ele>74.0</ele><time>2026-05-01T09:06:39.999Z</time></trkpt><trkpt lat="45.952951344228595" lon="12.383198283857066"><ele>74.0</ele><time>2026-05-01T09:06:40.999Z</time></trkpt><trkpt lat="45.95299032542211" lon="12.382939693893755"><ele>74.0</ele><time>2026-05-01T09:06:41.999Z</time></trkpt><trkpt lat="45.953047352468204" lon="12.382683154486214"><ele>74.0</ele><time>2026-05-01T09:06:42.999Z</time></trkpt><trkpt lat="45.95308828616897" lon="12.382417756028552"><ele>74.0</ele><time>2026-05-01T09:06:43.999Z</time></trkpt><trkpt lat="45.953116073160395" lon="12.38214583926518"><ele>74.0</ele><time>2026-05-01T09:06:44.999Z</time></trkpt><trkpt lat="45.953159752549375" lon="12.381884684193277"><ele>74.33333333333334</ele><time>2026-05-01T09:06:45.999Z</time></trkpt><trkpt lat="45.953199779791895" lon="12.381621494719644"><ele>74.66666666666667</ele><time>2026-05-01T09:06:46.999Z</time></trkpt><trkpt lat="45.95323718316977" lon="12.381379981411532"><ele>75.0</ele><time>2026-05-01T09:06:47.999Z</time></trkpt><trkpt lat="45.95326920999714" lon="12.381157185730975"><ele>75.5</ele><time>2026-05-01T09:06:48.999Z</time></trkpt><trkpt lat="45.9532993437169" lon="12.380954799116317"><ele>76.0</ele><time>2026-05-01T09:06:49.999Z</time></trkpt><trkpt lat="45.95332805926611" lon="12.380767666660526"><ele>76.5</ele><time>2026-05-01T09:06:50.999Z</time></trkpt><trkpt lat="45.95335466659428" lon="12.380593331962764"><ele>77.0</ele><time>2026-05-01T09:06:51.999Z</time></trkpt><trkpt lat="45.953380968689444" lon="12.380422198649637"><ele>76.0</ele><time>2026-05-01T09:06:52.999Z</time></trkpt><trkpt lat="45.95340465700387" lon="12.380253838502137"><ele>75.0</ele><time>2026-05-01T09:06:53.999Z</time></trkpt><trkpt lat="45.953434156886885" lon="12.380090528799453"><ele>74.0</ele><time>2026-05-01T09:06:54.999Z</time></trkpt><trkpt lat="45.953477488581285" lon="12.379938055665058"><ele>73.0</ele><time>2026-05-01T09:06:55.999Z</time></trkpt><trkpt lat="45.95354055742618" lon="12.37980148147206"><ele>73.5</ele><time>2026-05-01T09:06:56.999Z</time></trkpt><trkpt lat="45.9536158734723" lon="12.379668326063435"><ele>74.0</ele><time>2026-05-01T09:06:57.999Z</time></trkpt><trkpt lat="45.953693696475604" lon="12.379533871330862"><ele>74.5</ele><time>2026-05-01T09:06:58.999Z</time></trkpt><trkpt lat="45.95375844306625" lon="12.379407711088612"><ele>75.0</ele><time>2026-05-01T09:06:59.999Z</time></trkpt><trkpt lat="45.95384244944448" lon="12.37929389023698"><ele>75.0</ele><time>2026-05-01T09:07:00.999Z</time></trkpt><trkpt lat="45.95390799278026" lon="12.379165471863292"><ele>75.0</ele><time>2026-05-01T09:07:01.999Z</time></trkpt><trkpt lat="45.953973565239124" lon="12.379039209701856"><ele>75.0</ele><time>2026-05-01T09:07:03Z</time></trkpt><trkpt lat="45.95403905387303" lon="12.378913108955384"><ele>75.0</ele><time>2026-05-01T09:07:04Z</time></trkpt><trkpt lat="45.95410324035199" lon="12.3787895155817"><ele>75.0</ele><time>2026-05-01T09:07:05Z</time></trkpt><trkpt lat="45.95417019776157" lon="12.378660586631023"><ele>75.5</ele><time>2026-05-01T09:07:06Z</time></trkpt><trkpt lat="45.954227565300435" lon="12.37851127960456"><ele>76.0</ele><time>2026-05-01T09:07:07Z</time></trkpt><trkpt lat="45.954320755739545" lon="12.3783706818169"><ele>76.5</ele><time>2026-05-01T09:07:08Z</time></trkpt><trkpt lat="45.95439080958459" lon="12.378235790523263"><ele>77.0</ele><time>2026-05-01T09:07:09Z</time></trkpt><trkpt lat="45.95444102238087" lon="12.378099107394332"><ele>77.16666666666667</ele><time>2026-05-01T09:07:10Z</time></trkpt><trkpt lat="45.95451122423992" lon="12.378001792157658"><ele>77.33333333333334</ele><time>2026-05-01T09:07:11Z</time></trkpt><trkpt lat="45.95456779588427" lon="12.377897046835898"><ele>77.5</ele><time>2026-05-01T09:07:12Z</time></trkpt><trkpt lat="45.95462035067792" lon="12.37780923537404"><ele>77.66666666666667</ele><time>2026-05-01T09:07:13Z</time></trkpt><trkpt lat="45.95466989812491" lon="12.377719509244661"><ele>77.83333333333333</ele><time>2026-05-01T09:07:14Z</time></trkpt><trkpt lat="45.95475176286235" lon="12.377660023609824"><ele>78.0</ele><time>2026-05-01T09:07:15Z</time></trkpt><trkpt lat="45.95484270552547" lon="12.377610738073212"><ele>78.0</ele><time>2026-05-01T09:07:16Z</time></trkpt><trkpt lat="45.954945471448234" lon="12.37756330549108"><ele>78.0</ele><time>2026-05-01T09:07:17Z</time></trkpt><trkpt lat="45.95506396387502" lon="12.377518041673222"><ele>78.0</ele><time>2026-05-01T09:07:18Z</time></trkpt><trkpt lat="45.955165236359846" lon="12.377465181898202"><ele>78.0</ele><time>2026-05-01T09:07:19Z</time></trkpt><trkpt lat="45.95525599590974" lon="12.37739592522063"><ele>78.0</ele><time>2026-05-01T09:07:20Z</time></trkpt><trkpt lat="45.955348186593575" lon="12.377307707218295"><ele>78.0</ele><time>2026-05-01T09:07:21Z</time></trkpt><trkpt lat="45.95542692563438" lon="12.37718228316346"><ele>78.0</ele><time>2026-05-01T09:07:22Z</time></trkpt><trkpt lat="45.95548934561587" lon="12.377033962105504"><ele>78.0</ele><time>2026-05-01T09:07:23Z</time></trkpt><trkpt lat="45.95554211683494" lon="12.376876834067138"><ele>78.0</ele><time>2026-05-01T09:07:24Z</time></trkpt><trkpt lat="45.955582156295314" lon="12.376704571425867"><ele>78.0</ele><time>2026-05-01T09:07:25Z</time></trkpt><trkpt lat="45.955617523845305" lon="12.376520280573393"><ele>78.0</ele><time>2026-05-01T09:07:26Z</time></trkpt><trkpt lat="45.955654548383855" lon="12.37632624596755"><ele>78.0</ele><time>2026-05-01T09:07:27Z</time></trkpt><trkpt lat="45.955694062176626" lon="12.376119544648246"><ele>78.0</ele><time>2026-05-01T09:07:28Z</time></trkpt><trkpt lat="45.955732929810594" lon="12.375920660414065"><ele>78.0</ele><time>2026-05-01T09:07:29Z</time></trkpt><trkpt lat="45.955773581445506" lon="12.375720049521382"><ele>78.0</ele><time>2026-05-01T09:07:30Z</time></trkpt><trkpt lat="45.9558182009466" lon="12.37551101085512"><ele>78.0</ele><time>2026-05-01T09:07:31Z</time></trkpt><trkpt lat="45.955865140699395" lon="12.375290124039601"><ele>78.0</ele><time>2026-05-01T09:07:32Z</time></trkpt><trkpt lat="45.95591281488246" lon="12.375064526635576"><ele>78.0</ele><time>2026-05-01T09:07:33Z</time></trkpt><trkpt lat="45.955958889268636" lon="12.374847723221894"><ele>78.0</ele><time>2026-05-01T09:07:34Z</time></trkpt><trkpt lat="45.95600090622709" lon="12.374640386547101"><ele>78.0</ele><time>2026-05-01T09:07:35Z</time></trkpt><trkpt lat="45.956040332932574" lon="12.374437911582516"><ele>78.0</ele><time>2026-05-01T09:07:36Z</time></trkpt><trkpt lat="45.95608143397723" lon="12.374234373968747"><ele>78.0</ele><time>2026-05-01T09:07:37Z</time></trkpt><trkpt lat="45.956121771898935" lon="12.374032960607108"><ele>78.0</ele><time>2026-05-01T09:07:38Z</time></trkpt><trkpt lat="45.95616041699981" lon="12.373834642821704"><ele>78.0</ele><time>2026-05-01T09:07:39Z</time></trkpt><trkpt lat="45.9562016590434" lon="12.37363199554972"><ele>78.0</ele><time>2026-05-01T09:07:40Z</time></trkpt><trkpt lat="45.95624509805101" lon="12.373413182651433"><ele>78.0</ele><time>2026-05-01T09:07:41Z</time></trkpt><trkpt lat="45.95629104601063" lon="12.373177162381063"><ele>78.33333333333333</ele><time>2026-05-01T09:07:42Z</time></trkpt><trkpt lat="45.956336694352245" lon="12.37294878695043"><ele>78.66666666666666</ele><time>2026-05-01T09:07:43Z</time></trkpt><trkpt lat="45.95638376827191" lon="12.372731015529123"><ele>79.0</ele><time>2026-05-01T09:07:44Z</time></trkpt><trkpt lat="45.95642452685252" lon="12.372534163036043"><ele>79.0</ele><time>2026-05-01T09:07:45Z</time></trkpt><trkpt lat="45.956462142542364" lon="12.372340586284391"><ele>79.0</ele><time>2026-05-01T09:07:46Z</time></trkpt><trkpt lat="45.95650146479748" lon="12.372142709098203"><ele>79.0</ele><time>2026-05-01T09:07:47Z</time></trkpt><trkpt lat="45.956541874196716" lon="12.371943912118947"><ele>79.0</ele><time>2026-05-01T09:07:48Z</time></trkpt><trkpt lat="45.956580365728335" lon="12.371749849385623"><ele>79.66666666666666</ele><time>2026-05-01T09:07:49Z</time></trkpt><trkpt lat="45.956625462072715" lon="12.371543967859052"><ele>80.33333333333333</ele><time>2026-05-01T09:07:50Z</time></trkpt><trkpt lat="45.95666518219946" lon="12.371326654302436"><ele>81.0</ele><time>2026-05-01T09:07:51Z</time></trkpt><trkpt lat="45.95670758449808" lon="12.371111073304856"><ele>81.0</ele><time>2026-05-01T09:07:52Z</time></trkpt><trkpt lat="45.9567498256327" lon="12.370897920686817"><ele>81.0</ele><time>2026-05-01T09:07:53Z</time></trkpt><trkpt lat="45.95678903188144" lon="12.37068617977454"><ele>81.0</ele><time>2026-05-01T09:07:54Z</time></trkpt><trkpt lat="45.95682900741638" lon="12.370470644770174"><ele>81.0</ele><time>2026-05-01T09:07:55Z</time></trkpt><trkpt lat="45.95687295696755" lon="12.370248239172035"><ele>81.0</ele><time>2026-05-01T09:07:56Z</time></trkpt><trkpt lat="45.95691724656146" lon="12.37001905640892"><ele>81.0</ele><time>2026-05-01T09:07:57Z</time></trkpt><trkpt lat="45.95696420951996" lon="12.369789460955179"><ele>80.66666666666667</ele><time>2026-05-01T09:07:58Z</time></trkpt><trkpt lat="45.95701435571484" lon="12.369565509356198"><ele>80.33333333333334</ele><time>2026-05-01T09:07:59Z</time></trkpt><trkpt lat="45.95706824404038" lon="12.369350027446187"><ele>80.0</ele><time>2026-05-01T09:08:00Z</time></trkpt><trkpt lat="45.957133455786824" lon="12.369146344258148"><ele>80.0</ele><time>2026-05-01T09:08:01Z</time></trkpt><trkpt lat="45.957208427659424" lon="12.36895441411224"><ele>80.0</ele><time>2026-05-01T09:08:02Z</time></trkpt><trkpt lat="45.957293066656085" lon="12.368776429655572"><ele>80.0</ele><time>2026-05-01T09:08:03Z</time></trkpt><trkpt lat="45.95739227150617" lon="12.368604509377365"><ele>80.33333333333334</ele><time>2026-05-01T09:08:04Z</time></trkpt><trkpt lat="45.95750098190493" lon="12.36844813674677"><ele>80.66666666666667</ele><time>2026-05-01T09:08:05Z</time></trkpt><trkpt lat="45.95761990384007" lon="12.368309198305283"><ele>81.0</ele><time>2026-05-01T09:08:06Z</time></trkpt><trkpt lat="45.957752829356984" lon="12.368180029675973"><ele>81.33333333333333</ele><time>2026-05-01T09:08:07Z</time></trkpt><trkpt lat="45.95789406274581" lon="12.368054552909964"><ele>81.66666666666666</ele><time>2026-05-01T09:08:08Z</time></trkpt><trkpt lat="45.958041549419875" lon="12.36792695632414"><ele>82.0</ele><time>2026-05-01T09:08:09Z</time></trkpt><trkpt lat="45.95819425480131" lon="12.367793492220343"><ele>82.33333333333333</ele><time>2026-05-01T09:08:10Z</time></trkpt><trkpt lat="45.958353139621224" lon="12.367655676988578"><ele>82.66666666666667</ele><time>2026-05-01T09:08:11Z</time></trkpt><trkpt lat="45.958504636069875" lon="12.367526141862031"><ele>83.0</ele><time>2026-05-01T09:08:12Z</time></trkpt><trkpt lat="45.95865390766646" lon="12.367396815223078"><ele>83.0</ele><time>2026-05-01T09:08:13Z</time></trkpt><trkpt lat="45.958804699381396" lon="12.367264162328802"><ele>83.0</ele><time>2026-05-01T09:08:14Z</time></trkpt><trkpt lat="45.958954903462526" lon="12.3671349081884"><ele>83.0</ele><time>2026-05-01T09:08:15Z</time></trkpt><trkpt lat="45.95910585708424" lon="12.367007526936488"><ele>84.33333333333334</ele><time>2026-05-01T09:08:16Z</time></trkpt><trkpt lat="45.95925566753527" lon="12.36687669855175"><ele>85.66666666666667</ele><time>2026-05-01T09:08:17Z</time></trkpt><trkpt lat="45.95940669839732" lon="12.366738782670462"><ele>87.0</ele><time>2026-05-01T09:08:18Z</time></trkpt><trkpt lat="45.95954493814205" lon="12.366609166472125"><ele>87.0</ele><time>2026-05-01T09:08:18.999Z</time></trkpt><trkpt lat="45.95968316584154" lon="12.36651537012229"><ele>87.0</ele><time>2026-05-01T09:08:19.999Z</time></trkpt><trkpt lat="45.95980695608634" lon="12.36640657970794"><ele>87.0</ele><time>2026-05-01T09:08:20.999Z</time></trkpt><trkpt lat="45.95992355904409" lon="12.36627854728349"><ele>87.0</ele><time>2026-05-01T09:08:21.999Z</time></trkpt><trkpt lat="45.96005095958061" lon="12.366168638312173"><ele>87.25</ele><time>2026-05-01T09:08:22.999Z</time></trkpt><trkpt lat="45.96017943616385" lon="12.366056548357278"><ele>87.5</ele><time>2026-05-01T09:08:23.999Z</time></trkpt><trkpt lat="45.96030712226081" lon="12.365941302189418"><ele>87.75</ele><time>2026-05-01T09:08:24.999Z</time></trkpt><trkpt lat="45.96043493317584" lon="12.365847228718208"><ele>88.0</ele><time>2026-05-01T09:08:25.999Z</time></trkpt><trkpt lat="45.960541650606416" lon="12.365730330501775"><ele>88.0</ele><time>2026-05-01T09:08:26.999Z</time></trkpt><trkpt lat="45.960648161089715" lon="12.365602141480245"><ele>88.0</ele><time>2026-05-01T09:08:27.999Z</time></trkpt><trkpt lat="45.96074269617514" lon="12.365433054348875"><ele>88.0</ele><time>2026-05-01T09:08:28.999Z</time></trkpt><trkpt lat="45.96084846289728" lon="12.365267074507656"><ele>88.0</ele><time>2026-05-01T09:08:29.999Z</time></trkpt><trkpt lat="45.96095347859127" lon="12.365099068600122"><ele>89.33333333333333</ele><time>2026-05-01T09:08:30.999Z</time></trkpt><trkpt lat="45.96105713837621" lon="12.36493099155121"><ele>90.66666666666667</ele><time>2026-05-01T09:08:31.999Z</time></trkpt><trkpt lat="45.961162405808096" lon="12.36476401121421"><ele>92.0</ele><time>2026-05-01T09:08:32.999Z</time></trkpt><trkpt lat="45.96126631409935" lon="12.364596373084963"><ele>92.0</ele><time>2026-05-01T09:08:33.999Z</time></trkpt><trkpt lat="45.96137205373155" lon="12.364422513716734"><ele>92.0</ele><time>2026-05-01T09:08:34.999Z</time></trkpt><trkpt lat="45.961478391579185" lon="12.364241993805656"><ele>92.0</ele><time>2026-05-01T09:08:35.999Z</time></trkpt><trkpt lat="45.96158345566171" lon="12.364064534497878"><ele>92.0</ele><time>2026-05-01T09:08:36.999Z</time></trkpt><trkpt lat="45.96168226806735" lon="12.363898427267603"><ele>92.0</ele><time>2026-05-01T09:08:37.999Z</time></trkpt><trkpt lat="45.96177275745453" lon="12.363746441141842"><ele>92.0</ele><time>2026-05-01T09:08:38.999Z</time></trkpt><trkpt lat="45.961861227942016" lon="12.363601457260494"><ele>92.0</ele><time>2026-05-01T09:08:39.999Z</time></trkpt><trkpt lat="45.961948207780836" lon="12.363458279882678"><ele>91.75</ele><time>2026-05-01T09:08:40.999Z</time></trkpt><trkpt lat="45.96203367359534" lon="12.363315122251857"><ele>91.5</ele><time>2026-05-01T09:08:41.999Z</time></trkpt><trkpt lat="45.962120242276654" lon="12.363175380022417"><ele>91.25</ele><time>2026-05-01T09:08:42.999Z</time></trkpt><trkpt lat="45.962197560631495" lon="12.363050306791678"><ele>91.0</ele><time>2026-05-01T09:08:43.999Z</time></trkpt><trkpt lat="45.96226470978729" lon="12.362941950451376"><ele>91.0</ele><time>2026-05-01T09:08:44.999Z</time></trkpt><trkpt lat="45.962325580762624" lon="12.362845037410121"><ele>91.0</ele><time>2026-05-01T09:08:45.999Z</time></trkpt><trkpt lat="45.962375578701604" lon="12.362765242845702"><ele>91.0</ele><time>2026-05-01T09:08:46.999Z</time></trkpt><trkpt lat="45.9624446961534" lon="12.362650741711825"><ele>91.0</ele><time>2026-05-01T09:08:48.999Z</time></trkpt><trkpt lat="45.9624937667758" lon="12.362564741178078"><ele>91.0</ele><time>2026-05-01T09:08:50.999Z</time></trkpt><trkpt lat="45.96254103004481" lon="12.362486530995861"><ele>91.0</ele><time>2026-05-01T09:08:52.999Z</time></trkpt><trkpt lat="45.96260846253896" lon="12.362388048536257"><ele>91.33333333333333</ele><time>2026-05-01T09:08:55.999Z</time></trkpt><trkpt lat="45.962685995374734" lon="12.362371622528611"><ele>91.66666666666666</ele><time>2026-05-01T09:08:56.999Z</time></trkpt><trkpt lat="45.962759457360214" lon="12.362347678190224"><ele>92.0</ele><time>2026-05-01T09:08:57.999Z</time></trkpt><trkpt lat="45.962813982755236" lon="12.362260025782032"><ele>92.33333333333333</ele><time>2026-05-01T09:08:58.999Z</time></trkpt><trkpt lat="45.96283572751682" lon="12.362133778715279"><ele>92.66666666666667</ele><time>2026-05-01T09:08:59.999Z</time></trkpt><trkpt lat="45.96286270773907" lon="12.361997721551207"><ele>93.0</ele><time>2026-05-01T09:09:00.999Z</time></trkpt><trkpt lat="45.962918843543896" lon="12.361876631613947"><ele>93.0</ele><time>2026-05-01T09:09:01.999Z</time></trkpt><trkpt lat="45.96298762590213" lon="12.361770177953936"><ele>93.0</ele><time>2026-05-01T09:09:02.999Z</time></trkpt><trkpt lat="45.963047747775065" lon="12.361676233811208"><ele>93.0</ele><time>2026-05-01T09:09:03.999Z</time></trkpt><trkpt lat="45.96310216472635" lon="12.361585007739455"><ele>93.0</ele><time>2026-05-01T09:09:04.999Z</time></trkpt><trkpt lat="45.96316317238772" lon="12.361488739619778"><ele>93.0</ele><time>2026-05-01T09:09:05.999Z</time></trkpt><trkpt lat="45.96322313555188" lon="12.361390885248845"><ele>92.60000000000001</ele><time>2026-05-01T09:09:06.999Z</time></trkpt><trkpt lat="45.96328772192295" lon="12.361286610618471"><ele>92.2</ele><time>2026-05-01T09:09:07.999Z</time></trkpt><trkpt lat="45.96335733473689" lon="12.361174832320545"><ele>91.8</ele><time>2026-05-01T09:09:09Z</time></trkpt><trkpt lat="45.96342965754187" lon="12.361059755441795"><ele>91.4</ele><time>2026-05-01T09:09:10Z</time></trkpt><trkpt lat="45.96350816657659" lon="12.360930104419406"><ele>91.0</ele><time>2026-05-01T09:09:11Z</time></trkpt><trkpt lat="45.96359087020886" lon="12.360794336331118"><ele>91.0</ele><time>2026-05-01T09:09:12Z</time></trkpt><trkpt lat="45.96367659236905" lon="12.360653460878448"><ele>91.0</ele><time>2026-05-01T09:09:13Z</time></trkpt><trkpt lat="45.963765429839015" lon="12.36050823021611"><ele>91.0</ele><time>2026-05-01T09:09:14Z</time></trkpt><trkpt lat="45.963858492956454" lon="12.360355375637345"><ele>91.0</ele><time>2026-05-01T09:09:15Z</time></trkpt><trkpt lat="45.96397123525793" lon="12.360208827641229"><ele>91.33333333333333</ele><time>2026-05-01T09:09:16Z</time></trkpt><trkpt lat="45.96407447068947" lon="12.360041899961974"><ele>91.66666666666667</ele><time>2026-05-01T09:09:17Z</time></trkpt><trkpt lat="45.96417859137676" lon="12.359872807171351"><ele>92.0</ele><time>2026-05-01T09:09:18Z</time></trkpt><trkpt lat="45.96427708265155" lon="12.35971207631797"><ele>92.25</ele><time>2026-05-01T09:09:19Z</time></trkpt><trkpt lat="45.96436359425836" lon="12.359570569675595"><ele>92.5</ele><time>2026-05-01T09:09:20Z</time></trkpt><trkpt lat="45.96443447471476" lon="12.35942041182592"><ele>92.75</ele><time>2026-05-01T09:09:21Z</time></trkpt><trkpt lat="45.96451812797798" lon="12.359285253856351"><ele>93.0</ele><time>2026-05-01T09:09:22Z</time></trkpt><trkpt lat="45.96460051046143" lon="12.359152957983767"><ele>93.0</ele><time>2026-05-01T09:09:23Z</time></trkpt><trkpt lat="45.964681818637864" lon="12.35902108583121"><ele>93.0</ele><time>2026-05-01T09:09:24Z</time></trkpt><trkpt lat="45.96476462604444" lon="12.358884078569323"><ele>93.0</ele><time>2026-05-01T09:09:25Z</time></trkpt><trkpt lat="45.96485164905239" lon="12.358743610466718"><ele>93.0</ele><time>2026-05-01T09:09:26Z</time></trkpt><trkpt lat="45.964938034782236" lon="12.358605058338092"><ele>92.75</ele><time>2026-05-01T09:09:27Z</time></trkpt><trkpt lat="45.9650206966936" lon="12.35846965168099"><ele>92.5</ele><time>2026-05-01T09:09:28Z</time></trkpt><trkpt lat="45.96509642457071" lon="12.358344247112955"><ele>92.25</ele><time>2026-05-01T09:09:29Z</time></trkpt><trkpt lat="45.965170879723225" lon="12.358223516880496"><ele>92.0</ele><time>2026-05-01T09:09:30Z</time></trkpt><trkpt lat="45.965244655946215" lon="12.358102438223712"><ele>92.19999999999999</ele><time>2026-05-01T09:09:31Z</time></trkpt><trkpt lat="45.96533034995998" lon="12.357994956016249"><ele>92.4</ele><time>2026-05-01T09:09:32Z</time></trkpt><trkpt lat="45.96540385350958" lon="12.357875466192215"><ele>92.6</ele><time>2026-05-01T09:09:33Z</time></trkpt><trkpt lat="45.96547694984719" lon="12.357756638337607"><ele>92.80000000000001</ele><time>2026-05-01T09:09:34Z</time></trkpt><trkpt lat="45.96554946570613" lon="12.35763875413305"><ele>93.0</ele><time>2026-05-01T09:09:35Z</time></trkpt><trkpt lat="45.96560801969052" lon="12.357508897893151"><ele>93.0</ele><time>2026-05-01T09:09:36Z</time></trkpt><trkpt lat="45.965677413934436" lon="12.357397325699464"><ele>93.0</ele><time>2026-05-01T09:09:37Z</time></trkpt><trkpt lat="45.96574056085289" lon="12.357292322970512"><ele>93.0</ele><time>2026-05-01T09:09:38Z</time></trkpt><trkpt lat="45.96581311963573" lon="12.35721014950009"><ele>93.0</ele><time>2026-05-01T09:09:39Z</time></trkpt><trkpt lat="45.96587576870006" lon="12.357108297125414"><ele>93.0</ele><time>2026-05-01T09:09:40Z</time></trkpt><trkpt lat="45.965939629467385" lon="12.357004391383212"><ele>93.0</ele><time>2026-05-01T09:09:41Z</time></trkpt><trkpt lat="45.96599143373417" lon="12.35688411163346"><ele>93.0</ele><time>2026-05-01T09:09:42Z</time></trkpt><trkpt lat="45.966078647984624" lon="12.356778199149407"><ele>93.0</ele><time>2026-05-01T09:09:43Z</time></trkpt><trkpt lat="45.96616249289478" lon="12.356641777926054"><ele>93.0</ele><time>2026-05-01T09:09:44Z</time></trkpt><trkpt lat="45.96625633666874" lon="12.356487871286582"><ele>93.0</ele><time>2026-05-01T09:09:45Z</time></trkpt><trkpt lat="45.96637287556919" lon="12.356296086358826"><ele>93.0</ele><time>2026-05-01T09:09:46Z</time></trkpt><trkpt lat="45.966505587945406" lon="12.356077952397806"><ele>93.0</ele><time>2026-05-01T09:09:47Z</time></trkpt><trkpt lat="45.96661722196279" lon="12.355859695710658"><ele>93.0</ele><time>2026-05-01T09:09:48Z</time></trkpt><trkpt lat="45.9667428029772" lon="12.355691359364739"><ele>93.0</ele><time>2026-05-01T09:09:49Z</time></trkpt><trkpt lat="45.96685043592466" lon="12.355517060796199"><ele>93.0</ele><time>2026-05-01T09:09:50Z</time></trkpt><trkpt lat="45.9669511049121" lon="12.355354726376847"><ele>93.0</ele><time>2026-05-01T09:09:51Z</time></trkpt><trkpt lat="45.96704001251492" lon="12.355211554903189"><ele>93.0</ele><time>2026-05-01T09:09:52Z</time></trkpt><trkpt lat="45.96710425905203" lon="12.355062599382151"><ele>93.0</ele><time>2026-05-01T09:09:53Z</time></trkpt><trkpt lat="45.967176403793545" lon="12.354948438792691"><ele>93.0</ele><time>2026-05-01T09:09:54Z</time></trkpt><trkpt lat="45.967237528857765" lon="12.354850839321898"><ele>93.0</ele><time>2026-05-01T09:09:55Z</time></trkpt><trkpt lat="45.967293160101576" lon="12.354765295263217"><ele>93.0</ele><time>2026-05-01T09:09:56Z</time></trkpt><trkpt lat="45.967353490131494" lon="12.354712922663081"><ele>93.0</ele><time>2026-05-01T09:09:57Z</time></trkpt><trkpt lat="45.96742226151426" lon="12.354604253835372"><ele>93.0</ele><time>2026-05-01T09:09:59Z</time></trkpt><trkpt lat="45.967488817685194" lon="12.354467156743981"><ele>93.0</ele><time>2026-05-01T09:10:11Z</time></trkpt><trkpt lat="45.96756643871071" lon="12.354441746728618"><ele>93.16666666666667</ele><time>2026-05-01T09:10:13Z</time></trkpt><trkpt lat="45.96764620652616" lon="12.354453934467315"><ele>93.33333333333333</ele><time>2026-05-01T09:10:15Z</time></trkpt><trkpt lat="45.9677251988601" lon="12.354405117296265"><ele>93.5</ele><time>2026-05-01T09:10:17Z</time></trkpt><trkpt lat="45.96770617044557" lon="12.354274063578835"><ele>93.66666666666666</ele><time>2026-05-01T09:10:18Z</time></trkpt><trkpt lat="45.9677273112755" lon="12.354182072269491"><ele>93.83333333333333</ele><time>2026-05-01T09:10:19Z</time></trkpt><trkpt lat="45.9677680490845" lon="12.354086949794215"><ele>94.0</ele><time>2026-05-01T09:10:20Z</time></trkpt><trkpt lat="45.967817068290096" lon="12.353993759125322"><ele>94.0</ele><time>2026-05-01T09:10:21Z</time></trkpt><trkpt lat="45.967876240289335" lon="12.353896132632562"><ele>94.0</ele><time>2026-05-01T09:10:22Z</time></trkpt><trkpt lat="45.96794371541477" lon="12.353783716094258"><ele>94.0</ele><time>2026-05-01T09:10:22.999Z</time></trkpt><trkpt lat="45.96801693529109" lon="12.353672747580863"><ele>94.0</ele><time>2026-05-01T09:10:23.999Z</time></trkpt><trkpt lat="45.96808765099813" lon="12.353564456372968"><ele>94.0</ele><time>2026-05-01T09:10:24.999Z</time></trkpt><trkpt lat="45.96817018463577" lon="12.3534740806584"><ele>94.4</ele><time>2026-05-01T09:10:25.999Z</time></trkpt><trkpt lat="45.968244835093614" lon="12.353363542915236"><ele>94.80000000000001</ele><time>2026-05-01T09:10:26.999Z</time></trkpt><trkpt lat="45.96832068776059" lon="12.353251225149824"><ele>95.19999999999999</ele><time>2026-05-01T09:10:27.999Z</time></trkpt><trkpt lat="45.96839307682536" lon="12.353144036196868"><ele>95.6</ele><time>2026-05-01T09:10:28.999Z</time></trkpt><trkpt lat="45.9684652800259" lon="12.353037122234856"><ele>96.0</ele><time>2026-05-01T09:10:29.999Z</time></trkpt><trkpt lat="45.968530108525826" lon="12.352906975027151"><ele>96.5</ele><time>2026-05-01T09:10:30.999Z</time></trkpt><trkpt lat="45.96862660203484" lon="12.352800729706054"><ele>97.0</ele><time>2026-05-01T09:10:31.999Z</time></trkpt><trkpt lat="45.96871767869253" lon="12.352667259400645"><ele>97.5</ele><time>2026-05-01T09:10:32.999Z</time></trkpt><trkpt lat="45.96880163837741" lon="12.352543592474815"><ele>98.0</ele><time>2026-05-01T09:10:33.999Z</time></trkpt><trkpt lat="45.96888801693476" lon="12.352416362545318"><ele>98.0</ele><time>2026-05-01T09:10:34.999Z</time></trkpt><trkpt lat="45.968982419302655" lon="12.35227731454414"><ele>98.0</ele><time>2026-05-01T09:10:35.999Z</time></trkpt><trkpt lat="45.96907295083731" lon="12.352143966098641"><ele>98.0</ele><time>2026-05-01T09:10:36.999Z</time></trkpt><trkpt lat="45.96916255516785" lon="12.352010164974324"><ele>98.0</ele><time>2026-05-01T09:10:37.999Z</time></trkpt><trkpt lat="45.969241377508524" lon="12.351859710346291"><ele>98.0</ele><time>2026-05-01T09:10:38.999Z</time></trkpt><trkpt lat="45.96933273109856" lon="12.351724786676975"><ele>98.0</ele><time>2026-05-01T09:10:39.999Z</time></trkpt><trkpt lat="45.96942430277729" lon="12.351587084406349"><ele>98.0</ele><time>2026-05-01T09:10:40.999Z</time></trkpt><trkpt lat="45.96951803495929" lon="12.351448416083427"><ele>98.0</ele><time>2026-05-01T09:10:41.999Z</time></trkpt><trkpt lat="45.96962800192761" lon="12.351320109958024"><ele>98.0</ele><time>2026-05-01T09:10:42.999Z</time></trkpt><trkpt lat="45.969731392452765" lon="12.351167666252596"><ele>98.0</ele><time>2026-05-01T09:10:43.999Z</time></trkpt><trkpt lat="45.96982828862048" lon="12.350992665517373"><ele>98.0</ele><time>2026-05-01T09:10:44.999Z</time></trkpt><trkpt lat="45.96993913904252" lon="12.350827506263135"><ele>100.0</ele><time>2026-05-01T09:10:45.999Z</time></trkpt><trkpt lat="45.97005361008053" lon="12.350659379337342"><ele>102.0</ele><time>2026-05-01T09:10:46.999Z</time></trkpt><trkpt lat="45.970170328188374" lon="12.350489832753896"><ele>104.0</ele><time>2026-05-01T09:10:47.999Z</time></trkpt><trkpt lat="45.97028685553345" lon="12.350317437635837"><ele>104.0</ele><time>2026-05-01T09:10:48.999Z</time></trkpt><trkpt lat="45.97041389944977" lon="12.350163829953518"><ele>104.0</ele><time>2026-05-01T09:10:49.999Z</time></trkpt><trkpt lat="45.97052579697477" lon="12.349999479826817"><ele>104.0</ele><time>2026-05-01T09:10:50.999Z</time></trkpt><trkpt lat="45.97062142724583" lon="12.34982390536057"><ele>103.25</ele><time>2026-05-01T09:10:51.999Z</time></trkpt><trkpt lat="45.970723083184424" lon="12.349674052431666"><ele>102.5</ele><time>2026-05-01T09:10:52.999Z</time></trkpt><trkpt lat="45.97082207726885" lon="12.349528733856829"><ele>101.75</ele><time>2026-05-01T09:10:53.999Z</time></trkpt><trkpt lat="45.970921564263975" lon="12.349378739068728"><ele>101.0</ele><time>2026-05-01T09:10:54.999Z</time></trkpt><trkpt lat="45.971022226323235" lon="12.349229475165687"><ele>101.25</ele><time>2026-05-01T09:10:55.999Z</time></trkpt><trkpt lat="45.97112174820592" lon="12.3490856860786"><ele>101.5</ele><time>2026-05-01T09:10:56.999Z</time></trkpt><trkpt lat="45.971202093889815" lon="12.34896165803387"><ele>101.75</ele><time>2026-05-01T09:10:57.999Z</time></trkpt><trkpt lat="45.97127860532125" lon="12.348845878989202"><ele>102.0</ele><time>2026-05-01T09:10:58.999Z</time></trkpt><trkpt lat="45.971354644147006" lon="12.34873594236083"><ele>102.0</ele><time>2026-05-01T09:10:59.999Z</time></trkpt><trkpt lat="45.971431547968436" lon="12.348623753110285"><ele>102.0</ele><time>2026-05-01T09:11:00.999Z</time></trkpt><trkpt lat="45.971506225991355" lon="12.348509935797159"><ele>102.0</ele><time>2026-05-01T09:11:01.999Z</time></trkpt><trkpt lat="45.97157438032057" lon="12.348408309548674"><ele>102.0</ele><time>2026-05-01T09:11:02.999Z</time></trkpt><trkpt lat="45.97163758362509" lon="12.348317350935282"><ele>102.0</ele><time>2026-05-01T09:11:03.999Z</time></trkpt><trkpt lat="45.97169794258543" lon="12.348231461860518"><ele>103.0</ele><time>2026-05-01T09:11:04.999Z</time></trkpt><trkpt lat="45.97176359396748" lon="12.348133133192984"><ele>104.0</ele><time>2026-05-01T09:11:05.999Z</time></trkpt><trkpt lat="45.971832634174966" lon="12.348029855097735"><ele>104.99999999999999</ele><time>2026-05-01T09:11:06.999Z</time></trkpt><trkpt lat="45.971909595551494" lon="12.347914329559238"><ele>106.0</ele><time>2026-05-01T09:11:07.999Z</time></trkpt><trkpt lat="45.97199604985542" lon="12.347786121556023"><ele>107.0</ele><time>2026-05-01T09:11:08.999Z</time></trkpt><trkpt lat="45.9720892933291" lon="12.347651339078611"><ele>107.0</ele><time>2026-05-01T09:11:09.999Z</time></trkpt><trkpt lat="45.972191545734155" lon="12.347503960631443"><ele>107.0</ele><time>2026-05-01T09:11:10.999Z</time></trkpt><trkpt lat="45.97229334092101" lon="12.347352106320475"><ele>107.0</ele><time>2026-05-01T09:11:11.999Z</time></trkpt><trkpt lat="45.972390295442345" lon="12.347207303291249"><ele>107.0</ele><time>2026-05-01T09:11:12.999Z</time></trkpt><trkpt lat="45.9724878324686" lon="12.347065197449425"><ele>107.66666666666666</ele><time>2026-05-01T09:11:13.999Z</time></trkpt><trkpt lat="45.972589018597574" lon="12.346916787100708"><ele>108.33333333333334</ele><time>2026-05-01T09:11:15Z</time></trkpt><trkpt lat="45.972694007678236" lon="12.346761535376418"><ele>109.0</ele><time>2026-05-01T09:11:16Z</time></trkpt><trkpt lat="45.97280191530172" lon="12.346601357222095"><ele>109.0</ele><time>2026-05-01T09:11:17Z</time></trkpt><trkpt lat="45.97291249590787" lon="12.34643913150343"><ele>109.0</ele><time>2026-05-01T09:11:18Z</time></trkpt><trkpt lat="45.973027252601" lon="12.346270847432603"><ele>109.0</ele><time>2026-05-01T09:11:19Z</time></trkpt><trkpt lat="45.97313985076281" lon="12.34610384225978"><ele>110.33333333333334</ele><time>2026-05-01T09:11:20Z</time></trkpt><trkpt lat="45.97325199959116" lon="12.345937926059163"><ele>111.66666666666666</ele><time>2026-05-01T09:11:21Z</time></trkpt><trkpt lat="45.97336360986338" lon="12.34576947548752"><ele>113.0</ele><time>2026-05-01T09:11:22Z</time></trkpt><trkpt lat="45.973476527778644" lon="12.345599983817154"><ele>110.33333333333333</ele><time>2026-05-01T09:11:23Z</time></trkpt><trkpt lat="45.97358649287155" lon="12.345433856321877"><ele>107.66666666666666</ele><time>2026-05-01T09:11:24Z</time></trkpt><trkpt lat="45.97369460101952" lon="12.345276311820612"><ele>105.0</ele><time>2026-05-01T09:11:25Z</time></trkpt><trkpt lat="45.97379850978593" lon="12.34512772032285"><ele>105.0</ele><time>2026-05-01T09:11:26Z</time></trkpt><trkpt lat="45.973896768771695" lon="12.344984143185261"><ele>105.0</ele><time>2026-05-01T09:11:27Z</time></trkpt><trkpt lat="45.97398931315194" lon="12.344847431727512"><ele>105.0</ele><time>2026-05-01T09:11:28Z</time></trkpt><trkpt lat="45.974080172765895" lon="12.34471242583726"><ele>105.0</ele><time>2026-05-01T09:11:29Z</time></trkpt><trkpt lat="45.97417282576029" lon="12.344581571325564"><ele>105.5</ele><time>2026-05-01T09:11:30Z</time></trkpt><trkpt lat="45.97427354741515" lon="12.344454261009957"><ele>106.0</ele><time>2026-05-01T09:11:31Z</time></trkpt><trkpt lat="45.97439131937244" lon="12.344332940493977"><ele>106.5</ele><time>2026-05-01T09:11:32Z</time></trkpt><trkpt lat="45.97452229804754" lon="12.344213744545819"><ele>107.0</ele><time>2026-05-01T09:11:33Z</time></trkpt><trkpt lat="45.974669888363614" lon="12.344104115594899"><ele>107.0</ele><time>2026-05-01T09:11:34Z</time></trkpt><trkpt lat="45.974827843952305" lon="12.34400649208871"><ele>107.0</ele><time>2026-05-01T09:11:35Z</time></trkpt><trkpt lat="45.97498582154061" lon="12.34391760997928"><ele>107.0</ele><time>2026-05-01T09:11:36Z</time></trkpt><trkpt lat="45.97514169549542" lon="12.343821689744738"><ele>107.0</ele><time>2026-05-01T09:11:37Z</time></trkpt><trkpt lat="45.97529127058462" lon="12.343724894294228"><ele>107.0</ele><time>2026-05-01T09:11:38Z</time></trkpt><trkpt lat="45.97543407447721" lon="12.343631017380364"><ele>107.0</ele><time>2026-05-01T09:11:39Z</time></trkpt><trkpt lat="45.975573054646866" lon="12.343543430803148"><ele>107.0</ele><time>2026-05-01T09:11:40Z</time></trkpt><trkpt lat="45.97570775967416" lon="12.34345998331851"><ele>107.0</ele><time>2026-05-01T09:11:41Z</time></trkpt><trkpt lat="45.97583726659546" lon="12.343376713000573"><ele>107.0</ele><time>2026-05-01T09:11:42Z</time></trkpt><trkpt lat="45.975958436878294" lon="12.343282202887254"><ele>107.0</ele><time>2026-05-01T09:11:43Z</time></trkpt><trkpt lat="45.976075142332306" lon="12.343169904888168"><ele>107.66666666666666</ele><time>2026-05-01T09:11:44Z</time></trkpt><trkpt lat="45.976190706120605" lon="12.343043999899413"><ele>108.33333333333334</ele><time>2026-05-01T09:11:45Z</time></trkpt><trkpt lat="45.97631769746668" lon="12.342902521026135"><ele>109.0</ele><time>2026-05-01T09:11:46Z</time></trkpt><trkpt lat="45.9764477187508" lon="12.342751973810167"><ele>109.0</ele><time>2026-05-01T09:11:47Z</time></trkpt><trkpt lat="45.976576120600804" lon="12.342602730929423"><ele>109.0</ele><time>2026-05-01T09:11:48Z</time></trkpt><trkpt lat="45.976694894170315" lon="12.34245982798799"><ele>109.0</ele><time>2026-05-01T09:11:49Z</time></trkpt><trkpt lat="45.9768012826103" lon="12.342327477630814"><ele>110.5</ele><time>2026-05-01T09:11:50Z</time></trkpt><trkpt lat="45.9768927519837" lon="12.342215126352796"><ele>112.0</ele><time>2026-05-01T09:11:51Z</time></trkpt><trkpt lat="45.976987114897334" lon="12.342099773780282"><ele>113.5</ele><time>2026-05-01T09:11:52Z</time></trkpt><trkpt lat="45.977090495698924" lon="12.341978444069504"><ele>115.0</ele><time>2026-05-01T09:11:53Z</time></trkpt><trkpt lat="45.97720051296938" lon="12.341855829437055"><ele>115.0</ele><time>2026-05-01T09:11:54Z</time></trkpt><trkpt lat="45.9773187611116" lon="12.341743436171553"><ele>115.0</ele><time>2026-05-01T09:11:55Z</time></trkpt><trkpt lat="45.97744453016165" lon="12.341639134567597"><ele>115.0</ele><time>2026-05-01T09:11:56Z</time></trkpt><trkpt lat="45.977573818801254" lon="12.341545831294265"><ele>115.0</ele><time>2026-05-01T09:11:57Z</time></trkpt><trkpt lat="45.97770733037995" lon="12.341466120500549"><ele>114.75</ele><time>2026-05-01T09:11:58Z</time></trkpt><trkpt lat="45.97784056054028" lon="12.341384911672542"><ele>114.5</ele><time>2026-05-01T09:11:59Z</time></trkpt><trkpt lat="45.97797154443274" lon="12.341310124983526"><ele>114.25</ele><time>2026-05-01T09:12:00Z</time></trkpt><trkpt lat="45.97810075015312" lon="12.341241554149272"><ele>114.0</ele><time>2026-05-01T09:12:01Z</time></trkpt><trkpt lat="45.97822380135395" lon="12.34116917485598"><ele>114.0</ele><time>2026-05-01T09:12:02Z</time></trkpt><trkpt lat="45.97834632384523" lon="12.34109763955112"><ele>114.0</ele><time>2026-05-01T09:12:03Z</time></trkpt><trkpt lat="45.97846882622474" lon="12.341032200646328"><ele>114.0</ele><time>2026-05-01T09:12:04Z</time></trkpt><trkpt lat="45.978594890518146" lon="12.34096284290108"><ele>114.0</ele><time>2026-05-01T09:12:05Z</time></trkpt><trkpt lat="45.9787257651861" lon="12.340889319078833"><ele>114.0</ele><time>2026-05-01T09:12:06Z</time></trkpt><trkpt lat="45.978860518157454" lon="12.340813967333496"><ele>114.0</ele><time>2026-05-01T09:12:07Z</time></trkpt><trkpt lat="45.97899292097752" lon="12.340735937701146"><ele>114.0</ele><time>2026-05-01T09:12:08Z</time></trkpt><trkpt lat="45.97912088265836" lon="12.340646381616827"><ele>114.0</ele><time>2026-05-01T09:12:09Z</time></trkpt><trkpt lat="45.979247380344965" lon="12.340547538310151"><ele>114.0</ele><time>2026-05-01T09:12:10Z</time></trkpt><trkpt lat="45.97937259210994" lon="12.3404353438068"><ele>114.0</ele><time>2026-05-01T09:12:11Z</time></trkpt><trkpt lat="45.979492404105905" lon="12.340314985003717"><ele>114.0</ele><time>2026-05-01T09:12:12Z</time></trkpt><trkpt lat="45.97960950375846" lon="12.340190099376272"><ele>114.0</ele><time>2026-05-01T09:12:13Z</time></trkpt><trkpt lat="45.979723575417815" lon="12.340059437488645"><ele>114.0</ele><time>2026-05-01T09:12:14Z</time></trkpt><trkpt lat="45.979833573153805" lon="12.33992012055907"><ele>114.0</ele><time>2026-05-01T09:12:15Z</time></trkpt><trkpt lat="45.97994365406304" lon="12.33975829212488"><ele>114.0</ele><time>2026-05-01T09:12:16Z</time></trkpt><trkpt lat="45.98004794963542" lon="12.339592156144718"><ele>114.5</ele><time>2026-05-01T09:12:17Z</time></trkpt><trkpt lat="45.980148938723545" lon="12.339434557890636"><ele>115.0</ele><time>2026-05-01T09:12:18Z</time></trkpt><trkpt lat="45.98024874173172" lon="12.339283337977017"><ele>115.5</ele><time>2026-05-01T09:12:19Z</time></trkpt><trkpt lat="45.98034208509956" lon="12.339137688409195"><ele>116.0</ele><time>2026-05-01T09:12:20Z</time></trkpt><trkpt lat="45.98043193329171" lon="12.338999873936713"><ele>115.5</ele><time>2026-05-01T09:12:21Z</time></trkpt><trkpt lat="45.98051559734716" lon="12.338878000791684"><ele>115.0</ele><time>2026-05-01T09:12:22Z</time></trkpt><trkpt lat="45.98060170517373" lon="12.338754723866254"><ele>114.5</ele><time>2026-05-01T09:12:23Z</time></trkpt><trkpt lat="45.98067642611699" lon="12.33863660647729"><ele>114.0</ele><time>2026-05-01T09:12:24Z</time></trkpt><trkpt lat="45.980749419003466" lon="12.338525036495046"><ele>114.0</ele><time>2026-05-01T09:12:25Z</time></trkpt><trkpt lat="45.98082344618296" lon="12.338414626526893"><ele>114.0</ele><time>2026-05-01T09:12:26Z</time></trkpt><trkpt lat="45.98089351640735" lon="12.338311227922855"><ele>114.0</ele><time>2026-05-01T09:12:27Z</time></trkpt><trkpt lat="45.980956043999655" lon="12.338214216741632"><ele>114.0</ele><time>2026-05-01T09:12:27.999Z</time></trkpt><trkpt lat="45.981028648730025" lon="12.33813786272762"><ele>114.0</ele><time>2026-05-01T09:12:28.999Z</time></trkpt><trkpt lat="45.98107710538351" lon="12.338034229044816"><ele>114.2</ele><time>2026-05-01T09:12:29.999Z</time></trkpt><trkpt lat="45.98114098777048" lon="12.337943104194213"><ele>114.4</ele><time>2026-05-01T09:12:30.999Z</time></trkpt><trkpt lat="45.98120272354566" lon="12.33784758165045"><ele>114.6</ele><time>2026-05-01T09:12:31.999Z</time></trkpt><trkpt lat="45.98126501870426" lon="12.337752748619828"><ele>114.8</ele><time>2026-05-01T09:12:32.999Z</time></trkpt><trkpt lat="45.981327860541306" lon="12.337661525258556"><ele>115.0</ele><time>2026-05-01T09:12:33.999Z</time></trkpt><trkpt lat="45.981394274821604" lon="12.33756449024151"><ele>115.0</ele><time>2026-05-01T09:12:34.999Z</time></trkpt><trkpt lat="45.981457515929726" lon="12.337469458470004"><ele>115.0</ele><time>2026-05-01T09:12:35.999Z</time></trkpt><trkpt lat="45.98152192256105" lon="12.337373998479237"><ele>115.0</ele><time>2026-05-01T09:12:36.999Z</time></trkpt><trkpt lat="45.981591712091046" lon="12.337273418385642"><ele>115.0</ele><time>2026-05-01T09:12:37.999Z</time></trkpt><trkpt lat="45.98166583107887" lon="12.337165816905115"><ele>115.0</ele><time>2026-05-01T09:12:38.999Z</time></trkpt><trkpt lat="45.981742016261194" lon="12.337050175143707"><ele>115.75</ele><time>2026-05-01T09:12:39.999Z</time></trkpt><trkpt lat="45.981823446494424" lon="12.336927281326611"><ele>116.5</ele><time>2026-05-01T09:12:40.999Z</time></trkpt><trkpt lat="45.981907266188834" lon="12.336801698256009"><ele>117.25</ele><time>2026-05-01T09:12:41.999Z</time></trkpt><trkpt lat="45.98198972737234" lon="12.336677307781763"><ele>118.0</ele><time>2026-05-01T09:12:42.999Z</time></trkpt><trkpt lat="45.98207171889256" lon="12.336552666409798"><ele>118.0</ele><time>2026-05-01T09:12:43.999Z</time></trkpt><trkpt lat="45.98215458808849" lon="12.336431382993142"><ele>118.0</ele><time>2026-05-01T09:12:44.999Z</time></trkpt><trkpt lat="45.982238187308404" lon="12.336310787324457"><ele>118.0</ele><time>2026-05-01T09:12:45.999Z</time></trkpt><trkpt lat="45.982323091650244" lon="12.336186340805664"><ele>118.0</ele><time>2026-05-01T09:12:46.999Z</time></trkpt><trkpt lat="45.98241059836239" lon="12.33605635675633"><ele>117.75</ele><time>2026-05-01T09:12:47.999Z</time></trkpt><trkpt lat="45.982503987694926" lon="12.335917736687597"><ele>117.5</ele><time>2026-05-01T09:12:48.999Z</time></trkpt><trkpt lat="45.98260691673337" lon="12.33577806792844"><ele>117.25</ele><time>2026-05-01T09:12:49.999Z</time></trkpt><trkpt lat="45.982717715625185" lon="12.335638394064237"><ele>117.0</ele><time>2026-05-01T09:12:50.999Z</time></trkpt><trkpt lat="45.98283115059822" lon="12.335505616488586"><ele>117.75</ele><time>2026-05-01T09:12:51.999Z</time></trkpt><trkpt lat="45.982949934403266" lon="12.335379260905349"><ele>118.5</ele><time>2026-05-01T09:12:52.999Z</time></trkpt><trkpt lat="45.98307026418476" lon="12.3352539806177"><ele>119.25</ele><time>2026-05-01T09:12:53.999Z</time></trkpt><trkpt lat="45.98318132764702" lon="12.335138733124436"><ele>120.0</ele><time>2026-05-01T09:12:54.999Z</time></trkpt><trkpt lat="45.98328688915821" lon="12.335033467129932"><ele>121.25</ele><time>2026-05-01T09:12:55.999Z</time></trkpt><trkpt lat="45.98339536160323" lon="12.334926055238753"><ele>122.5</ele><time>2026-05-01T09:12:56.999Z</time></trkpt><trkpt lat="45.98350398546103" lon="12.33481615644424"><ele>123.75</ele><time>2026-05-01T09:12:57.999Z</time></trkpt><trkpt lat="45.98361490294262" lon="12.334703462651571"><ele>125.0</ele><time>2026-05-01T09:12:58.999Z</time></trkpt><trkpt lat="45.98372570592046" lon="12.334591884479313"><ele>125.0</ele><time>2026-05-01T09:12:59.999Z</time></trkpt><trkpt lat="45.98383267086591" lon="12.334478867556511"><ele>125.0</ele><time>2026-05-01T09:13:00.999Z</time></trkpt><trkpt lat="45.98394693102117" lon="12.334376648914049"><ele>125.0</ele><time>2026-05-01T09:13:01.999Z</time></trkpt><trkpt lat="45.98402824535316" lon="12.334211278529931"><ele>125.0</ele><time>2026-05-01T09:13:02.999Z</time></trkpt><trkpt lat="45.984114059684615" lon="12.33404802883241"><ele>126.25</ele><time>2026-05-01T09:13:03.999Z</time></trkpt><trkpt lat="45.98419260101824" lon="12.333875168024107"><ele>127.5</ele><time>2026-05-01T09:13:04.999Z</time></trkpt><trkpt lat="45.98427353862019" lon="12.3336975407405"><ele>128.75</ele><time>2026-05-01T09:13:05.999Z</time></trkpt><trkpt lat="45.98435462262015" lon="12.33352110054745"><ele>130.0</ele><time>2026-05-01T09:13:06.999Z</time></trkpt><trkpt lat="45.98443598463388" lon="12.333344684531435"><ele>130.0</ele><time>2026-05-01T09:13:07.999Z</time></trkpt><trkpt lat="45.98451695302389" lon="12.333173985039684"><ele>130.0</ele><time>2026-05-01T09:13:08.999Z</time></trkpt><trkpt lat="45.984597606849405" lon="12.333005355609243"><ele>130.0</ele><time>2026-05-01T09:13:09.999Z</time></trkpt><trkpt lat="45.98467821359804" lon="12.332833444545814"><ele>130.0</ele><time>2026-05-01T09:13:10.999Z</time></trkpt><trkpt lat="45.98475544176312" lon="12.332662277724992"><ele>129.5</ele><time>2026-05-01T09:13:11.999Z</time></trkpt><trkpt lat="45.98483174831122" lon="12.332496178147442"><ele>129.0</ele><time>2026-05-01T09:13:12.999Z</time></trkpt><trkpt lat="45.984905102865184" lon="12.332337848440366"><ele>128.5</ele><time>2026-05-01T09:13:13.999Z</time></trkpt><trkpt lat="45.98497724575973" lon="12.332183002223301"><ele>128.0</ele><time>2026-05-01T09:13:14.999Z</time></trkpt><trkpt lat="45.985047231239484" lon="12.332032050712654"><ele>130.0</ele><time>2026-05-01T09:13:15.999Z</time></trkpt><trkpt lat="45.985109751283844" lon="12.331892568524449"><ele>132.0</ele><time>2026-05-01T09:13:16.999Z</time></trkpt><trkpt lat="45.98517207804102" lon="12.331754646683425"><ele>134.0</ele><time>2026-05-01T09:13:17.999Z</time></trkpt><trkpt lat="45.98525410463674" lon="12.33162112763096"><ele>136.0</ele><time>2026-05-01T09:13:18.999Z</time></trkpt><trkpt lat="45.98533256875309" lon="12.331452406242379"><ele>135.5</ele><time>2026-05-01T09:13:19.999Z</time></trkpt><trkpt lat="45.985401952944756" lon="12.331263636414205"><ele>135.0</ele><time>2026-05-01T09:13:21Z</time></trkpt><trkpt lat="45.98548346684682" lon="12.331091711686199"><ele>134.5</ele><time>2026-05-01T09:13:22Z</time></trkpt><trkpt lat="45.98556047250538" lon="12.330926026907505"><ele>134.0</ele><time>2026-05-01T09:13:23Z</time></trkpt><trkpt lat="45.985634494203765" lon="12.330764683603299"><ele>134.0</ele><time>2026-05-01T09:13:24Z</time></trkpt><trkpt lat="45.98572202194256" lon="12.330621809743882"><ele>134.0</ele><time>2026-05-01T09:13:25Z</time></trkpt><trkpt lat="45.985780846599084" lon="12.33044825304075"><ele>134.0</ele><time>2026-05-01T09:13:26Z</time></trkpt><trkpt lat="45.985850353838224" lon="12.330285407426437"><ele>134.0</ele><time>2026-05-01T09:13:27Z</time></trkpt><trkpt lat="45.98591078410714" lon="12.330113748298174"><ele>134.5</ele><time>2026-05-01T09:13:28Z</time></trkpt><trkpt lat="45.98596150355733" lon="12.329933937814454"><ele>135.0</ele><time>2026-05-01T09:13:29Z</time></trkpt><trkpt lat="45.98600159256886" lon="12.32975129088142"><ele>135.5</ele><time>2026-05-01T09:13:30Z</time></trkpt><trkpt lat="45.98602622979453" lon="12.329563958978788"><ele>136.0</ele><time>2026-05-01T09:13:31Z</time></trkpt><trkpt lat="45.98603688484819" lon="12.329379649893076"><ele>136.0</ele><time>2026-05-01T09:13:32Z</time></trkpt><trkpt lat="45.986036311594134" lon="12.32921530659688"><ele>136.0</ele><time>2026-05-01T09:13:33Z</time></trkpt><trkpt lat="45.98602730573425" lon="12.32908428050115"><ele>136.0</ele><time>2026-05-01T09:13:34Z</time></trkpt><trkpt lat="45.98601864742699" lon="12.328963386937517"><ele>136.0</ele><time>2026-05-01T09:13:35Z</time></trkpt><trkpt lat="45.98601093587575" lon="12.328858073041738"><ele>136.0</ele><time>2026-05-01T09:13:36Z</time></trkpt><trkpt lat="45.98600186799553" lon="12.32875740548434"><ele>136.0</ele><time>2026-05-01T09:13:37Z</time></trkpt><trkpt lat="45.98599202630216" lon="12.328659274518548"><ele>135.83333333333334</ele><time>2026-05-01T09:13:38Z</time></trkpt><trkpt lat="45.98598290772694" lon="12.328569013293976"><ele>135.66666666666669</ele><time>2026-05-01T09:13:39Z</time></trkpt><trkpt lat="45.985971041882905" lon="12.328424194224386"><ele>135.5</ele><time>2026-05-01T09:13:41Z</time></trkpt><trkpt lat="45.98596298214284" lon="12.328307205570331"><ele>135.33333333333334</ele><time>2026-05-01T09:13:43Z</time></trkpt><trkpt lat="45.9859670654974" lon="12.328198382435264"><ele>135.16666666666666</ele><time>2026-05-01T09:13:46Z</time></trkpt><trkpt lat="45.9860360060856" lon="12.328090292547252"><ele>135.0</ele><time>2026-05-01T09:13:48Z</time></trkpt><trkpt lat="45.98604010967872" lon="12.327923531854736"><ele>134.8</ele><time>2026-05-01T09:13:50Z</time></trkpt><trkpt lat="45.9859686612633" lon="12.32778212196573"><ele>134.6</ele><time>2026-05-01T09:13:52Z</time></trkpt><trkpt lat="45.98592976704055" lon="12.327682016062733"><ele>134.4</ele><time>2026-05-01T09:13:53Z</time></trkpt><trkpt lat="45.98590694311329" lon="12.327540934444924"><ele>134.2</ele><time>2026-05-01T09:13:54Z</time></trkpt><trkpt lat="45.985870849169274" lon="12.32738946700242"><ele>134.0</ele><time>2026-05-01T09:13:55Z</time></trkpt><trkpt lat="45.98586508491824" lon="12.327228360177205"><ele>134.25</ele><time>2026-05-01T09:13:56Z</time></trkpt><trkpt lat="45.98584806976973" lon="12.327044474747778"><ele>134.5</ele><time>2026-05-01T09:13:57Z</time></trkpt><trkpt lat="45.985829314062244" lon="12.326845784150674"><ele>134.75</ele><time>2026-05-01T09:13:58Z</time></trkpt><trkpt lat="45.985810449904704" lon="12.326646010087126"><ele>135.0</ele><time>2026-05-01T09:13:59Z</time></trkpt><trkpt lat="45.985791536725586" lon="12.326447173636033"><ele>134.0</ele><time>2026-05-01T09:14:00Z</time></trkpt><trkpt lat="45.985772805661334" lon="12.326250820338862"><ele>133.0</ele><time>2026-05-01T09:14:01Z</time></trkpt><trkpt lat="45.985754118138146" lon="12.326062072262992"><ele>132.0</ele><time>2026-05-01T09:14:02Z</time></trkpt><trkpt lat="45.98573739189389" lon="12.325895486932556"><ele>131.0</ele><time>2026-05-01T09:14:03Z</time></trkpt><trkpt lat="45.98572099457842" lon="12.325732222922339"><ele>130.75</ele><time>2026-05-01T09:14:04Z</time></trkpt><trkpt lat="45.985703889213376" lon="12.325561909451935"><ele>130.5</ele><time>2026-05-01T09:14:05Z</time></trkpt><trkpt lat="45.98568712506562" lon="12.325389254584431"><ele>130.25</ele><time>2026-05-01T09:14:06Z</time></trkpt><trkpt lat="45.985671875881685" lon="12.325216213626652"><ele>130.0</ele><time>2026-05-01T09:14:07Z</time></trkpt><trkpt lat="45.98565801008543" lon="12.325044777875283"><ele>130.0</ele><time>2026-05-01T09:14:08Z</time></trkpt><trkpt lat="45.985646439579455" lon="12.324867164109827"><ele>130.0</ele><time>2026-05-01T09:14:09Z</time></trkpt><trkpt lat="45.98563607771686" lon="12.32467721266372"><ele>130.0</ele><time>2026-05-01T09:14:10Z</time></trkpt><trkpt lat="45.98560955604292" lon="12.324476923183795"><ele>130.0</ele><time>2026-05-01T09:14:11Z</time></trkpt><trkpt lat="45.98560902759093" lon="12.324271118768209"><ele>130.0</ele><time>2026-05-01T09:14:12Z</time></trkpt><trkpt lat="45.985611048677065" lon="12.324058495888512"><ele>130.0</ele><time>2026-05-01T09:14:13Z</time></trkpt><trkpt lat="45.98562177458458" lon="12.323836443464593"><ele>130.0</ele><time>2026-05-01T09:14:14Z</time></trkpt><trkpt lat="45.98564129331795" lon="12.323595764977268"><ele>129.66666666666669</ele><time>2026-05-01T09:14:15Z</time></trkpt><trkpt lat="45.98566436694428" lon="12.323336355397226"><ele>129.33333333333334</ele><time>2026-05-01T09:14:16Z</time></trkpt><trkpt lat="45.985690573110475" lon="12.32306828870309"><ele>129.0</ele><time>2026-05-01T09:14:17Z</time></trkpt><trkpt lat="45.98571769729808" lon="12.322802772353517"><ele>128.66666666666666</ele><time>2026-05-01T09:14:18Z</time></trkpt><trkpt lat="45.98574149072921" lon="12.322558540797283"><ele>128.33333333333331</ele><time>2026-05-01T09:14:19Z</time></trkpt><trkpt lat="45.98577868846304" lon="12.322350036684211"><ele>128.0</ele><time>2026-05-01T09:14:20Z</time></trkpt><trkpt lat="45.98579822436222" lon="12.322159256779548"><ele>128.0</ele><time>2026-05-01T09:14:21Z</time></trkpt><trkpt lat="45.985816251531595" lon="12.321985055053506"><ele>128.0</ele><time>2026-05-01T09:14:22Z</time></trkpt><trkpt lat="45.985834976689866" lon="12.32181129361004"><ele>128.0</ele><time>2026-05-01T09:14:23Z</time></trkpt><trkpt lat="45.98583631383355" lon="12.3216464794159"><ele>128.0</ele><time>2026-05-01T09:14:24Z</time></trkpt><trkpt lat="45.98585194991161" lon="12.321503400103555"><ele>128.4</ele><time>2026-05-01T09:14:25Z</time></trkpt><trkpt lat="45.98586807778078" lon="12.321376824696015"><ele>128.8</ele><time>2026-05-01T09:14:26Z</time></trkpt><trkpt lat="45.98588468642955" lon="12.321243853254947"><ele>129.2</ele><time>2026-05-01T09:14:27Z</time></trkpt><trkpt lat="45.98590853359645" lon="12.321111777123603"><ele>129.6</ele><time>2026-05-01T09:14:28Z</time></trkpt><trkpt lat="45.98594271085711" lon="12.320998480500057"><ele>130.0</ele><time>2026-05-01T09:14:29Z</time></trkpt><trkpt lat="45.98597975240226" lon="12.320884508857342"><ele>130.0</ele><time>2026-05-01T09:14:30Z</time></trkpt><trkpt lat="45.98602926695305" lon="12.32076700215046"><ele>130.0</ele><time>2026-05-01T09:14:31Z</time></trkpt><trkpt lat="45.98608849699353" lon="12.320652277642765"><ele>130.0</ele><time>2026-05-01T09:14:31.999Z</time></trkpt><trkpt lat="45.98614081338058" lon="12.320528128214427"><ele>130.0</ele><time>2026-05-01T09:14:32.999Z</time></trkpt><trkpt lat="45.98616641515714" lon="12.320384412113917"><ele>130.0</ele><time>2026-05-01T09:14:33.999Z</time></trkpt><trkpt lat="45.986167274718525" lon="12.320230068196086"><ele>130.0</ele><time>2026-05-01T09:14:34.999Z</time></trkpt><trkpt lat="45.986144353836735" lon="12.320077770500795"><ele>130.0</ele><time>2026-05-01T09:14:35.999Z</time></trkpt><trkpt lat="45.98611630503593" lon="12.319940291262206"><ele>130.0</ele><time>2026-05-01T09:14:36.999Z</time></trkpt><trkpt lat="45.98609798636611" lon="12.319793848568342"><ele>130.0</ele><time>2026-05-01T09:14:37.999Z</time></trkpt><trkpt lat="45.98608437841249" lon="12.319627558574856"><ele>130.0</ele><time>2026-05-01T09:14:38.999Z</time></trkpt><trkpt lat="45.9860858700172" lon="12.3194533916916"><ele>130.0</ele><time>2026-05-01T09:14:39.999Z</time></trkpt><trkpt lat="45.986098222614146" lon="12.31928003609419"><ele>130.0</ele><time>2026-05-01T09:14:40.999Z</time></trkpt><trkpt lat="45.98612108475294" lon="12.319117408630776"><ele>130.0</ele><time>2026-05-01T09:14:41.999Z</time></trkpt><trkpt lat="45.9861521607301" lon="12.318967315439137"><ele>130.0</ele><time>2026-05-01T09:14:42.999Z</time></trkpt><trkpt lat="45.98620087935883" lon="12.318830708594987"><ele>129.6</ele><time>2026-05-01T09:14:43.999Z</time></trkpt><trkpt lat="45.98623931576806" lon="12.31868561864376"><ele>129.2</ele><time>2026-05-01T09:14:44.999Z</time></trkpt><trkpt lat="45.98627942346281" lon="12.31854062624173"><ele>128.8</ele><time>2026-05-01T09:14:45.999Z</time></trkpt><trkpt lat="45.986306977046965" lon="12.318387743628742"><ele>128.4</ele><time>2026-05-01T09:14:46.999Z</time></trkpt><trkpt lat="45.98635333434195" lon="12.318244555677776"><ele>128.0</ele><time>2026-05-01T09:14:47.999Z</time></trkpt><trkpt lat="45.98640393122189" lon="12.318105946311062"><ele>128.0</ele><time>2026-05-01T09:14:48.999Z</time></trkpt><trkpt lat="45.98645197691734" lon="12.317976075959061"><ele>128.0</ele><time>2026-05-01T09:14:49.999Z</time></trkpt><trkpt lat="45.9864978384569" lon="12.317863327905144"><ele>128.0</ele><time>2026-05-01T09:14:50.999Z</time></trkpt><trkpt lat="45.98654217512638" lon="12.317758722691986"><ele>128.0</ele><time>2026-05-01T09:14:51.999Z</time></trkpt><trkpt lat="45.98658648538898" lon="12.317647711655468"><ele>128.0</ele><time>2026-05-01T09:14:52.999Z</time></trkpt><trkpt lat="45.986634673143946" lon="12.31752727192641"><ele>128.5</ele><time>2026-05-01T09:14:53.999Z</time></trkpt><trkpt lat="45.986686067814816" lon="12.317395366109972"><ele>129.0</ele><time>2026-05-01T09:14:54.999Z</time></trkpt><trkpt lat="45.98674849180571" lon="12.317243766977795"><ele>129.5</ele><time>2026-05-01T09:14:55.999Z</time></trkpt><trkpt lat="45.986820417305545" lon="12.317081871109055"><ele>130.0</ele><time>2026-05-01T09:14:56.999Z</time></trkpt><trkpt lat="45.98689930446282" lon="12.316915987252193"><ele>130.0</ele><time>2026-05-01T09:14:57.999Z</time></trkpt><trkpt lat="45.98697702211415" lon="12.31674831175963"><ele>130.0</ele><time>2026-05-01T09:14:58.999Z</time></trkpt><trkpt lat="45.98705376431991" lon="12.316577630539754"><ele>130.0</ele><time>2026-05-01T09:14:59.999Z</time></trkpt><trkpt lat="45.987131327878046" lon="12.316400939269778"><ele>130.0</ele><time>2026-05-01T09:15:00.999Z</time></trkpt><trkpt lat="45.987205075727246" lon="12.31621749188933"><ele>130.0</ele><time>2026-05-01T09:15:01.999Z</time></trkpt><trkpt lat="45.98728585397461" lon="12.316052847358891"><ele>130.0</ele><time>2026-05-01T09:15:02.999Z</time></trkpt><trkpt lat="45.987334694711386" lon="12.31585928643845"><ele>130.0</ele><time>2026-05-01T09:15:03.999Z</time></trkpt><trkpt lat="45.98738966329933" lon="12.315670420999963"><ele>130.0</ele><time>2026-05-01T09:15:04.999Z</time></trkpt><trkpt lat="45.98743665015918" lon="12.315488430425221"><ele>130.0</ele><time>2026-05-01T09:15:05.999Z</time></trkpt><trkpt lat="45.9874822503229" lon="12.315309953019932"><ele>130.0</ele><time>2026-05-01T09:15:06.999Z</time></trkpt><trkpt lat="45.98752618472676" lon="12.315137700189537"><ele>130.0</ele><time>2026-05-01T09:15:07.999Z</time></trkpt><trkpt lat="45.98756508229068" lon="12.314979980356963"><ele>130.0</ele><time>2026-05-01T09:15:08.999Z</time></trkpt><trkpt lat="45.98760186667887" lon="12.314828936103643"><ele>130.75</ele><time>2026-05-01T09:15:09.999Z</time></trkpt><trkpt lat="45.987639042308594" lon="12.314677445352322"><ele>131.5</ele><time>2026-05-01T09:15:10.999Z</time></trkpt><trkpt lat="45.987677124293576" lon="12.314522809196946"><ele>132.25</ele><time>2026-05-01T09:15:11.999Z</time></trkpt><trkpt lat="45.98771803882835" lon="12.31436704162031"><ele>133.0</ele><time>2026-05-01T09:15:12.999Z</time></trkpt><trkpt lat="45.98775657385175" lon="12.314211579592898"><ele>133.0</ele><time>2026-05-01T09:15:13.999Z</time></trkpt><trkpt lat="45.98781382332618" lon="12.314065826687267"><ele>133.0</ele><time>2026-05-01T09:15:14.999Z</time></trkpt><trkpt lat="45.98785531912656" lon="12.313901814962671"><ele>133.0</ele><time>2026-05-01T09:15:15.999Z</time></trkpt><trkpt lat="45.98789565607195" lon="12.313734153787346"><ele>133.0</ele><time>2026-05-01T09:15:16.999Z</time></trkpt><trkpt lat="45.98793745726133" lon="12.31356185680964"><ele>133.0</ele><time>2026-05-01T09:15:17.999Z</time></trkpt><trkpt lat="45.98796364679306" lon="12.313388458991396"><ele>133.0</ele><time>2026-05-01T09:15:18.999Z</time></trkpt><trkpt lat="45.98800415319703" lon="12.313225905739614"><ele>133.0</ele><time>2026-05-01T09:15:19.999Z</time></trkpt><trkpt lat="45.9880415797688" lon="12.313069077525773"><ele>133.0</ele><time>2026-05-01T09:15:20.999Z</time></trkpt><trkpt lat="45.98807290631707" lon="12.312920522485902"><ele>132.75</ele><time>2026-05-01T09:15:21.999Z</time></trkpt><trkpt lat="45.98810289501878" lon="12.312771684699603"><ele>132.5</ele><time>2026-05-01T09:15:22.999Z</time></trkpt><trkpt lat="45.9881273076243" lon="12.312618776028257"><ele>132.25</ele><time>2026-05-01T09:15:23.999Z</time></trkpt><trkpt lat="45.98814890448024" lon="12.312454724917282"><ele>132.0</ele><time>2026-05-01T09:15:24.999Z</time></trkpt><trkpt lat="45.98816708236391" lon="12.312278772669494"><ele>132.25</ele><time>2026-05-01T09:15:26Z</time></trkpt><trkpt lat="45.98817944615939" lon="12.31209293482643"><ele>132.5</ele><time>2026-05-01T09:15:27Z</time></trkpt><trkpt lat="45.988192141303756" lon="12.311900571622285"><ele>132.75</ele><time>2026-05-01T09:15:28Z</time></trkpt><trkpt lat="45.98820327607593" lon="12.311701208281221"><ele>133.0</ele><time>2026-05-01T09:15:29Z</time></trkpt><trkpt lat="45.988211045365446" lon="12.311487912988277"><ele>133.0</ele><time>2026-05-01T09:15:30Z</time></trkpt><trkpt lat="45.98822203404908" lon="12.31126662266995"><ele>133.0</ele><time>2026-05-01T09:15:31Z</time></trkpt><trkpt lat="45.98823101858789" lon="12.311044659970383"><ele>133.0</ele><time>2026-05-01T09:15:32Z</time></trkpt><trkpt lat="45.988238901551455" lon="12.310828135818667"><ele>133.0</ele><time>2026-05-01T09:15:33Z</time></trkpt><trkpt lat="45.988247886848235" lon="12.310628482332458"><ele>133.0</ele><time>2026-05-01T09:15:34Z</time></trkpt><trkpt lat="45.988254248170236" lon="12.310449415852917"><ele>133.0</ele><time>2026-05-01T09:15:35Z</time></trkpt><trkpt lat="45.988257910576664" lon="12.310284793635201"><ele>133.0</ele><time>2026-05-01T09:15:36Z</time></trkpt><trkpt lat="45.98826259545983" lon="12.310131580466612"><ele>133.0</ele><time>2026-05-01T09:15:37Z</time></trkpt><trkpt lat="45.98827037317748" lon="12.309980216942032"><ele>133.0</ele><time>2026-05-01T09:15:38Z</time></trkpt><trkpt lat="45.98828112757752" lon="12.309820196734787"><ele>133.0</ele><time>2026-05-01T09:15:39Z</time></trkpt><trkpt lat="45.98829100658151" lon="12.309654257514156"><ele>133.0</ele><time>2026-05-01T09:15:40Z</time></trkpt><trkpt lat="45.98830114828839" lon="12.309493290505932"><ele>133.0</ele><time>2026-05-01T09:15:41Z</time></trkpt><trkpt lat="45.988310436874656" lon="12.309348835207778"><ele>133.0</ele><time>2026-05-01T09:15:42Z</time></trkpt><trkpt lat="45.98831503887389" lon="12.309201723403232"><ele>133.0</ele><time>2026-05-01T09:15:43Z</time></trkpt><trkpt lat="45.988337117574034" lon="12.309071677281315"><ele>133.0</ele><time>2026-05-01T09:15:44Z</time></trkpt><trkpt lat="45.98834219318645" lon="12.308958587600626"><ele>133.0</ele><time>2026-05-01T09:15:45Z</time></trkpt><trkpt lat="45.988346639545824" lon="12.308859518195487"><ele>133.0</ele><time>2026-05-01T09:15:46Z</time></trkpt><trkpt lat="45.98835031079693" lon="12.308767103387686"><ele>133.0</ele><time>2026-05-01T09:15:47Z</time></trkpt><trkpt lat="45.98835317641804" lon="12.308672537682371"><ele>132.8</ele><time>2026-05-01T09:15:48Z</time></trkpt><trkpt lat="45.98834202359975" lon="12.308517230545721"><ele>132.60000000000002</ele><time>2026-05-01T09:15:50Z</time></trkpt><trkpt lat="45.988350152270804" lon="12.308397818953898"><ele>132.39999999999998</ele><time>2026-05-01T09:15:53Z</time></trkpt><trkpt lat="45.98836715470229" lon="12.308263888032629"><ele>132.2</ele><time>2026-05-01T09:15:56Z</time></trkpt><trkpt lat="45.9884032238141" lon="12.308081567383246"><ele>132.0</ele><time>2026-05-01T09:15:58Z</time></trkpt><trkpt lat="45.988465963626595" lon="12.30798448626858"><ele>132.5</ele><time>2026-05-01T09:15:59Z</time></trkpt><trkpt lat="45.98852281634393" lon="12.307893758658132"><ele>133.0</ele><time>2026-05-01T09:16:00Z</time></trkpt><trkpt lat="45.98857908242967" lon="12.307813779125766"><ele>133.5</ele><time>2026-05-01T09:16:01Z</time></trkpt><trkpt lat="45.98863745786818" lon="12.307743850447167"><ele>134.0</ele><time>2026-05-01T09:16:02Z</time></trkpt><trkpt lat="45.98870492028337" lon="12.307679319250884"><ele>134.5</ele><time>2026-05-01T09:16:03Z</time></trkpt><trkpt lat="45.98877129241409" lon="12.307623845534438"><ele>135.0</ele><time>2026-05-01T09:16:04Z</time></trkpt><trkpt lat="45.98884110920028" lon="12.307568930004537"><ele>135.0</ele><time>2026-05-01T09:16:05Z</time></trkpt><trkpt lat="45.98891198440765" lon="12.30750204304585"><ele>135.0</ele><time>2026-05-01T09:16:06Z</time></trkpt><trkpt lat="45.988987787067934" lon="12.307433263747633"><ele>135.0</ele><time>2026-05-01T09:16:07Z</time></trkpt><trkpt lat="45.9890735062891" lon="12.307354623254708"><ele>135.0</ele><time>2026-05-01T09:16:08Z</time></trkpt><trkpt lat="45.9891631921112" lon="12.307274983096532"><ele>135.0</ele><time>2026-05-01T09:16:09Z</time></trkpt><trkpt lat="45.98924716223192" lon="12.307192105173163"><ele>134.2</ele><time>2026-05-01T09:16:10Z</time></trkpt><trkpt lat="45.98931787829619" lon="12.307109152625975"><ele>133.4</ele><time>2026-05-01T09:16:11Z</time></trkpt><trkpt lat="45.98939281435656" lon="12.30702235756926"><ele>132.6</ele><time>2026-05-01T09:16:12Z</time></trkpt><trkpt lat="45.989469799130084" lon="12.306937471910546"><ele>131.8</ele><time>2026-05-01T09:16:13Z</time></trkpt><trkpt lat="45.989545010780255" lon="12.306850039873213"><ele>131.0</ele><time>2026-05-01T09:16:14Z</time></trkpt><trkpt lat="45.989619226088415" lon="12.306766796815921"><ele>131.0</ele><time>2026-05-01T09:16:15Z</time></trkpt><trkpt lat="45.989693482240966" lon="12.306681902943362"><ele>131.0</ele><time>2026-05-01T09:16:16Z</time></trkpt><trkpt lat="45.989771430256134" lon="12.306592755377672"><ele>131.0</ele><time>2026-05-01T09:16:17Z</time></trkpt><trkpt lat="45.989845826809585" lon="12.306510258654448"><ele>131.0</ele><time>2026-05-01T09:16:18Z</time></trkpt><trkpt lat="45.98991586079815" lon="12.306431187463511"><ele>131.0</ele><time>2026-05-01T09:16:19Z</time></trkpt><trkpt lat="45.98998589672297" lon="12.306352170554792"><ele>131.0</ele><time>2026-05-01T09:16:20Z</time></trkpt><trkpt lat="45.99005831175249" lon="12.306268703644374"><ele>131.0</ele><time>2026-05-01T09:16:21Z</time></trkpt><trkpt lat="45.99013401576062" lon="12.306181463785274"><ele>131.0</ele><time>2026-05-01T09:16:22Z</time></trkpt><trkpt lat="45.9902140008806" lon="12.306088702581802"><ele>131.0</ele><time>2026-05-01T09:16:23Z</time></trkpt><trkpt lat="45.990299943808836" lon="12.30599377648392"><ele>131.0</ele><time>2026-05-01T09:16:24Z</time></trkpt><trkpt lat="45.99038428051646" lon="12.305897306174424"><ele>131.0</ele><time>2026-05-01T09:16:25Z</time></trkpt><trkpt lat="45.99046968912408" lon="12.305806099322398"><ele>131.0</ele><time>2026-05-01T09:16:26Z</time></trkpt><trkpt lat="45.990551172888004" lon="12.30571204405601"><ele>131.0</ele><time>2026-05-01T09:16:27Z</time></trkpt><trkpt lat="45.990631249580204" lon="12.305618618119526"><ele>131.0</ele><time>2026-05-01T09:16:28Z</time></trkpt><trkpt lat="45.990708775082844" lon="12.305527157140311"><ele>131.0</ele><time>2026-05-01T09:16:29Z</time></trkpt><trkpt lat="45.99077900123247" lon="12.305444521771763"><ele>131.6</ele><time>2026-05-01T09:16:30Z</time></trkpt><trkpt lat="45.99084843492637" lon="12.305361558981389"><ele>132.2</ele><time>2026-05-01T09:16:31Z</time></trkpt><trkpt lat="45.99092034075515" lon="12.305277782493441"><ele>132.8</ele><time>2026-05-01T09:16:31.999Z</time></trkpt><trkpt lat="45.990994448629905" lon="12.30519121995468"><ele>133.4</ele><time>2026-05-01T09:16:32.999Z</time></trkpt><trkpt lat="45.99106663768276" lon="12.305110646181989"><ele>134.0</ele><time>2026-05-01T09:16:33.999Z</time></trkpt><trkpt lat="45.99114046892154" lon="12.305040839081892"><ele>134.0</ele><time>2026-05-01T09:16:34.999Z</time></trkpt><trkpt lat="45.99121736996971" lon="12.304976106992651"><ele>134.0</ele><time>2026-05-01T09:16:35.999Z</time></trkpt><trkpt lat="45.99129259674044" lon="12.304899287790994"><ele>134.0</ele><time>2026-05-01T09:16:36.999Z</time></trkpt><trkpt lat="45.99136711336456" lon="12.304816046311199"><ele>134.0</ele><time>2026-05-01T09:16:37.999Z</time></trkpt><trkpt lat="45.99143627862219" lon="12.304730734562682"><ele>134.0</ele><time>2026-05-01T09:16:38.999Z</time></trkpt><trkpt lat="45.991501478473765" lon="12.30464437122162"><ele>134.4</ele><time>2026-05-01T09:16:39.999Z</time></trkpt><trkpt lat="45.99156524586527" lon="12.304549229798182"><ele>134.8</ele><time>2026-05-01T09:16:40.999Z</time></trkpt><trkpt lat="45.99163757383264" lon="12.30445173317368"><ele>135.2</ele><time>2026-05-01T09:16:41.999Z</time></trkpt><trkpt lat="45.991722145538546" lon="12.304353052724876"><ele>135.6</ele><time>2026-05-01T09:16:42.999Z</time></trkpt><trkpt lat="45.99182304486682" lon="12.304238311637414"><ele>136.0</ele><time>2026-05-01T09:16:43.999Z</time></trkpt><trkpt lat="45.99193471647049" lon="12.304102137094606"><ele>136.0</ele><time>2026-05-01T09:16:44.999Z</time></trkpt><trkpt lat="45.99204482793159" lon="12.303965203838587"><ele>136.0</ele><time>2026-05-01T09:16:45.999Z</time></trkpt><trkpt lat="45.992170458739295" lon="12.303818765842484"><ele>136.0</ele><time>2026-05-01T09:16:46.999Z</time></trkpt><trkpt lat="45.9922982400262" lon="12.303678384544492"><ele>136.0</ele><time>2026-05-01T09:16:47.999Z</time></trkpt><trkpt lat="45.99242084853721" lon="12.303537761063597"><ele>136.0</ele><time>2026-05-01T09:16:48.999Z</time></trkpt><trkpt lat="45.992542974113334" lon="12.303400196133083"><ele>136.0</ele><time>2026-05-01T09:16:49.999Z</time></trkpt><trkpt lat="45.99265990608595" lon="12.303264162582995"><ele>136.0</ele><time>2026-05-01T09:16:50.999Z</time></trkpt><trkpt lat="45.992772189168285" lon="12.303133891068274"><ele>136.0</ele><time>2026-05-01T09:16:51.999Z</time></trkpt><trkpt lat="45.99287756427303" lon="12.303013412854678"><ele>136.0</ele><time>2026-05-01T09:16:52.999Z</time></trkpt><trkpt lat="45.99297967499545" lon="12.30289721797828"><ele>136.0</ele><time>2026-05-01T09:16:53.999Z</time></trkpt><trkpt lat="45.9930848664298" lon="12.302776887097865"><ele>136.0</ele><time>2026-05-01T09:16:54.999Z</time></trkpt><trkpt lat="45.99319073180194" lon="12.30265405332909"><ele>136.0</ele><time>2026-05-01T09:16:55.999Z</time></trkpt><trkpt lat="45.99330092153657" lon="12.302524514968184"><ele>136.0</ele><time>2026-05-01T09:16:56.999Z</time></trkpt><trkpt lat="45.99341310176772" lon="12.302392558105048"><ele>136.0</ele><time>2026-05-01T09:16:57.999Z</time></trkpt><trkpt lat="45.993525159093316" lon="12.302267069790249"><ele>136.5</ele><time>2026-05-01T09:16:58.999Z</time></trkpt><trkpt lat="45.99363321387611" lon="12.302136193568625"><ele>137.0</ele><time>2026-05-01T09:16:59.999Z</time></trkpt><trkpt lat="45.993723572520025" lon="12.302019593055391"><ele>137.5</ele><time>2026-05-01T09:17:00.999Z</time></trkpt><trkpt lat="45.993817276915586" lon="12.30193986935501"><ele>138.0</ele><time>2026-05-01T09:17:01.999Z</time></trkpt><trkpt lat="45.99388907411162" lon="12.301855654302601"><ele>138.0</ele><time>2026-05-01T09:17:02.999Z</time></trkpt><trkpt lat="45.99395132241278" lon="12.301783564834938"><ele>138.0</ele><time>2026-05-01T09:17:03.999Z</time></trkpt><trkpt lat="45.994006852678815" lon="12.301719255481757"><ele>138.0</ele><time>2026-05-01T09:17:04.999Z</time></trkpt><trkpt lat="45.994058882736745" lon="12.301658999100562"><ele>138.0</ele><time>2026-05-01T09:17:05.999Z</time></trkpt><trkpt lat="45.99409815549646" lon="12.301584027807563"><ele>138.0</ele><time>2026-05-01T09:17:06.999Z</time></trkpt><trkpt lat="45.994156063218206" lon="12.301540195264781"><ele>138.0</ele><time>2026-05-01T09:17:07.999Z</time></trkpt><trkpt lat="45.99425537015609" lon="12.30148882037829"><ele>138.0</ele><time>2026-05-01T09:17:09.999Z</time></trkpt><trkpt lat="45.99436012822125" lon="12.301495941488731"><ele>138.0</ele><time>2026-05-01T09:17:11.999Z</time></trkpt><trkpt lat="45.99441748247331" lon="12.301535693818172"><ele>138.0</ele><time>2026-05-01T09:17:12.999Z</time></trkpt><trkpt lat="45.99451142350708" lon="12.301589733169157"><ele>138.0</ele><time>2026-05-01T09:17:14.999Z</time></trkpt><trkpt lat="45.99460637363613" lon="12.301445450850936"><ele>138.0</ele><time>2026-05-01T09:17:16.999Z</time></trkpt><trkpt lat="45.99459374948032" lon="12.301345362684"><ele>137.8</ele><time>2026-05-01T09:17:17.999Z</time></trkpt><trkpt lat="45.99456381751071" lon="12.301242023370182"><ele>137.60000000000002</ele><time>2026-05-01T09:17:18.999Z</time></trkpt><trkpt lat="45.994588265748725" lon="12.301111770760013"><ele>137.39999999999998</ele><time>2026-05-01T09:17:19.999Z</time></trkpt><trkpt lat="45.994621522341795" lon="12.300992297415902"><ele>137.2</ele><time>2026-05-01T09:17:20.999Z</time></trkpt><trkpt lat="45.994647323752815" lon="12.30086384866918"><ele>137.0</ele><time>2026-05-01T09:17:21.999Z</time></trkpt><trkpt lat="45.994723900407536" lon="12.300760243574151"><ele>137.0</ele><time>2026-05-01T09:17:22.999Z</time></trkpt><trkpt lat="45.99478662981322" lon="12.30066054731678"><ele>137.0</ele><time>2026-05-01T09:17:23.999Z</time></trkpt><trkpt lat="45.99485266369957" lon="12.300563440644325"><ele>137.0</ele><time>2026-05-01T09:17:24.999Z</time></trkpt><trkpt lat="45.994917383887156" lon="12.300465583524575"><ele>137.0</ele><time>2026-05-01T09:17:25.999Z</time></trkpt><trkpt lat="45.99497678041461" lon="12.300373003663939"><ele>137.0</ele><time>2026-05-01T09:17:26.999Z</time></trkpt><trkpt lat="45.995035279793036" lon="12.300283381145896"><ele>137.14285714285717</ele><time>2026-05-01T09:17:27.999Z</time></trkpt><trkpt lat="45.995085073496625" lon="12.300203360212906"><ele>137.28571428571428</ele><time>2026-05-01T09:17:28.999Z</time></trkpt><trkpt lat="45.99513432102829" lon="12.300129372877155"><ele>137.42857142857144</ele><time>2026-05-01T09:17:29.999Z</time></trkpt><trkpt lat="45.995182106818724" lon="12.30005955083805"><ele>137.57142857142858</ele><time>2026-05-01T09:17:30.999Z</time></trkpt><trkpt lat="45.99523093253569" lon="12.299987060772468"><ele>137.71428571428572</ele><time>2026-05-01T09:17:32Z</time></trkpt><trkpt lat="45.99527792157716" lon="12.29991603670113"><ele>137.85714285714286</ele><time>2026-05-01T09:17:33Z</time></trkpt><trkpt lat="45.995327027824096" lon="12.299842835508288"><ele>138.0</ele><time>2026-05-01T09:17:34Z</time></trkpt><trkpt lat="45.99537793355759" lon="12.299765858276523"><ele>138.16666666666666</ele><time>2026-05-01T09:17:35Z</time></trkpt><trkpt lat="45.995429617727225" lon="12.299688968048336"><ele>138.33333333333334</ele><time>2026-05-01T09:17:36Z</time></trkpt><trkpt lat="45.99548453854242" lon="12.29960385868817"><ele>138.5</ele><time>2026-05-01T09:17:37Z</time></trkpt><trkpt lat="45.99554195196222" lon="12.299514314740023"><ele>138.66666666666669</ele><time>2026-05-01T09:17:38Z</time></trkpt><trkpt lat="45.995602391210355" lon="12.299425375304708"><ele>138.83333333333334</ele><time>2026-05-01T09:17:39Z</time></trkpt><trkpt lat="45.99566169801985" lon="12.299336630283259"><ele>139.0</ele><time>2026-05-01T09:17:40Z</time></trkpt><trkpt lat="45.995721402489124" lon="12.299246926171573"><ele>139.0</ele><time>2026-05-01T09:17:41Z</time></trkpt><trkpt lat="45.995783629687935" lon="12.299152555605055"><ele>139.0</ele><time>2026-05-01T09:17:42Z</time></trkpt><trkpt lat="45.995849699530545" lon="12.299059949022352"><ele>139.0</ele><time>2026-05-01T09:17:43Z</time></trkpt><trkpt lat="45.995917012577465" lon="12.29896125643804"><ele>139.0</ele><time>2026-05-01T09:17:44Z</time></trkpt><trkpt lat="45.99598110434724" lon="12.298857990401922"><ele>139.0</ele><time>2026-05-01T09:17:45Z</time></trkpt><trkpt lat="45.99603969891648" lon="12.29876320809394"><ele>140.0</ele><time>2026-05-01T09:17:46Z</time></trkpt><trkpt lat="45.996091378449286" lon="12.298678224235822"><ele>141.0</ele><time>2026-05-01T09:17:47Z</time></trkpt><trkpt lat="45.99613686342269" lon="12.29860520556531"><ele>142.0</ele><time>2026-05-01T09:17:48Z</time></trkpt><trkpt lat="45.99621981523261" lon="12.298489020214031"><ele>143.0</ele><time>2026-05-01T09:17:50Z</time></trkpt><trkpt lat="45.996273302854235" lon="12.29840367778719"><ele>144.0</ele><time>2026-05-01T09:17:51Z</time></trkpt><trkpt lat="45.99633982245293" lon="12.298291954644156"><ele>145.0</ele><time>2026-05-01T09:17:52Z</time></trkpt><trkpt lat="45.99641413066255" lon="12.298185883309595"><ele>144.8</ele><time>2026-05-01T09:17:53Z</time></trkpt><trkpt lat="45.99646982623629" lon="12.2980719191741"><ele>144.6</ele><time>2026-05-01T09:17:54Z</time></trkpt><trkpt lat="45.99653244000432" lon="12.297970822185796"><ele>144.4</ele><time>2026-05-01T09:17:55Z</time></trkpt><trkpt lat="45.99659528227144" lon="12.297861297049268"><ele>144.2</ele><time>2026-05-01T09:17:56Z</time></trkpt><trkpt lat="45.99665808883482" lon="12.297746447206443"><ele>144.0</ele><time>2026-05-01T09:17:57Z</time></trkpt><trkpt lat="45.99673055556015" lon="12.29763763961294"><ele>144.6</ele><time>2026-05-01T09:17:58Z</time></trkpt><trkpt lat="45.99680982915096" lon="12.297525227786839"><ele>145.2</ele><time>2026-05-01T09:17:59Z</time></trkpt><trkpt lat="45.996888099458396" lon="12.297419901386583"><ele>145.79999999999998</ele><time>2026-05-01T09:18:00Z</time></trkpt><trkpt lat="45.99696521276361" lon="12.29731566797354"><ele>146.4</ele><time>2026-05-01T09:18:01Z</time></trkpt><trkpt lat="45.99704013241333" lon="12.297209014285395"><ele>147.0</ele><time>2026-05-01T09:18:02Z</time></trkpt><trkpt lat="45.997114801673966" lon="12.297100955577877"><ele>147.0</ele><time>2026-05-01T09:18:03Z</time></trkpt><trkpt lat="45.9971887594515" lon="12.296994957731966"><ele>147.0</ele><time>2026-05-01T09:18:04Z</time></trkpt><trkpt lat="45.99726220293367" lon="12.296890999655709"><ele>147.0</ele><time>2026-05-01T09:18:05Z</time></trkpt><trkpt lat="45.997337497052236" lon="12.29678115389173"><ele>147.0</ele><time>2026-05-01T09:18:06Z</time></trkpt><trkpt lat="45.9974264191606" lon="12.296681286503008"><ele>147.0</ele><time>2026-05-01T09:18:07Z</time></trkpt><trkpt lat="45.997502915751056" lon="12.296559264617759"><ele>146.79999999999998</ele><time>2026-05-01T09:18:08Z</time></trkpt><trkpt lat="45.99756107697001" lon="12.296421469817766"><ele>146.6</ele><time>2026-05-01T09:18:09Z</time></trkpt><trkpt lat="45.99763032205844" lon="12.296300081111358"><ele>146.39999999999998</ele><time>2026-05-01T09:18:10Z</time></trkpt><trkpt lat="45.99769058180739" lon="12.296182794366654"><ele>146.2</ele><time>2026-05-01T09:18:11Z</time></trkpt><trkpt lat="45.99776348694318" lon="12.296082575633239"><ele>146.0</ele><time>2026-05-01T09:18:12Z</time></trkpt><trkpt lat="45.997825492948024" lon="12.295966207294233"><ele>145.6</ele><time>2026-05-01T09:18:13Z</time></trkpt><trkpt lat="45.997888185504515" lon="12.295848550492385"><ele>145.2</ele><time>2026-05-01T09:18:14Z</time></trkpt><trkpt lat="45.99795107713408" lon="12.29573052007234"><ele>144.8</ele><time>2026-05-01T09:18:15Z</time></trkpt><trkpt lat="45.99801294773301" lon="12.295614405869964"><ele>144.4</ele><time>2026-05-01T09:18:16Z</time></trkpt><trkpt lat="45.998075378390226" lon="12.295497240584258"><ele>144.0</ele><time>2026-05-01T09:18:17Z</time></trkpt><trkpt lat="45.9981380633678" lon="12.295379597980277"><ele>143.8</ele><time>2026-05-01T09:18:18Z</time></trkpt><trkpt lat="45.998198239706326" lon="12.295266663449683"><ele>143.60000000000002</ele><time>2026-05-01T09:18:19Z</time></trkpt><trkpt lat="45.998256450992194" lon="12.295157416001112"><ele>143.4</ele><time>2026-05-01T09:18:20Z</time></trkpt><trkpt lat="45.99831650322126" lon="12.295050843142421"><ele>143.20000000000002</ele><time>2026-05-01T09:18:21Z</time></trkpt><trkpt lat="45.99837394677814" lon="12.294950290762525"><ele>143.0</ele><time>2026-05-01T09:18:22Z</time></trkpt><trkpt lat="45.99843102904866" lon="12.294860413213469"><ele>144.5</ele><time>2026-05-01T09:18:23Z</time></trkpt><trkpt lat="45.998489297071835" lon="12.294783333774705"><ele>146.0</ele><time>2026-05-01T09:18:24Z</time></trkpt><trkpt lat="45.99854098688345" lon="12.294712623440253"><ele>147.5</ele><time>2026-05-01T09:18:25Z</time></trkpt><trkpt lat="45.99858255647481" lon="12.294639748437618"><ele>149.0</ele><time>2026-05-01T09:18:26Z</time></trkpt><trkpt lat="45.99855446937138" lon="12.294457600919683"><ele>150.5</ele><time>2026-05-01T09:18:28Z</time></trkpt><trkpt lat="45.9985034726714" lon="12.294376860112733"><ele>152.0</ele><time>2026-05-01T09:18:29Z</time></trkpt><trkpt lat="45.99844572095374" lon="12.294287227223323"><ele>152.0</ele><time>2026-05-01T09:18:30Z</time></trkpt><trkpt lat="45.99838545088977" lon="12.2941806514018"><ele>152.0</ele><time>2026-05-01T09:18:31Z</time></trkpt><trkpt lat="45.998319144827235" lon="12.29406972784258"><ele>152.0</ele><time>2026-05-01T09:18:32Z</time></trkpt><trkpt lat="45.99824239030483" lon="12.29395912933679"><ele>152.0</ele><time>2026-05-01T09:18:33Z</time></trkpt><trkpt lat="45.99816557730807" lon="12.293845373406828"><ele>152.0</ele><time>2026-05-01T09:18:34Z</time></trkpt><trkpt lat="45.998097971230614" lon="12.293733538792514"><ele>150.66666666666666</ele><time>2026-05-01T09:18:34.999Z</time></trkpt><trkpt lat="45.99803453373948" lon="12.293634802762869"><ele>149.33333333333331</ele><time>2026-05-01T09:18:35.999Z</time></trkpt><trkpt lat="45.99797673707101" lon="12.2935394131405"><ele>148.0</ele><time>2026-05-01T09:18:36.999Z</time></trkpt><trkpt lat="45.99792415607534" lon="12.293450353140914"><ele>146.66666666666666</ele><time>2026-05-01T09:18:37.999Z</time></trkpt><trkpt lat="45.99786525034091" lon="12.293360142494368"><ele>145.33333333333334</ele><time>2026-05-01T09:18:38.999Z</time></trkpt><trkpt lat="45.9978059587309" lon="12.293266379959153"><ele>144.0</ele><time>2026-05-01T09:18:39.999Z</time></trkpt><trkpt lat="45.99774763506509" lon="12.29316878170862"><ele>143.5</ele><time>2026-05-01T09:18:40.999Z</time></trkpt><trkpt lat="45.99768628935488" lon="12.293075212189837"><ele>143.0</ele><time>2026-05-01T09:18:41.999Z</time></trkpt><trkpt lat="45.997631211193536" lon="12.29299446820166"><ele>142.5</ele><time>2026-05-01T09:18:42.999Z</time></trkpt><trkpt lat="45.997583815672435" lon="12.292914719166196"><ele>142.0</ele><time>2026-05-01T09:18:43.999Z</time></trkpt><trkpt lat="45.99750884975453" lon="12.292789360954984"><ele>141.5</ele><time>2026-05-01T09:18:45.999Z</time></trkpt><trkpt lat="45.99746023543883" lon="12.292710137634447"><ele>141.0</ele><time>2026-05-01T09:18:47.999Z</time></trkpt><trkpt lat="45.99740605159046" lon="12.292626009976235"><ele>140.83333333333334</ele><time>2026-05-01T09:18:51.999Z</time></trkpt><trkpt lat="45.99736123217809" lon="12.292556004623231"><ele>140.66666666666666</ele><time>2026-05-01T09:19:05.999Z</time></trkpt><trkpt lat="45.99730895946005" lon="12.292455643382016"><ele>140.5</ele><time>2026-05-01T09:19:07.999Z</time></trkpt><trkpt lat="45.99736093221562" lon="12.292350694700874"><ele>140.33333333333331</ele><time>2026-05-01T09:19:08.999Z</time></trkpt><trkpt lat="45.99740991701821" lon="12.292271603676951"><ele>140.16666666666666</ele><time>2026-05-01T09:19:10.999Z</time></trkpt><trkpt lat="45.997463700855995" lon="12.292186395158962"><ele>140.0</ele><time>2026-05-01T09:19:13.999Z</time></trkpt><trkpt lat="45.997509670983334" lon="12.29211484956113"><ele>140.0</ele><time>2026-05-01T09:19:25.999Z</time></trkpt><trkpt lat="45.997561589882956" lon="12.292038008729083"><ele>140.0</ele><time>2026-05-01T09:19:28.999Z</time></trkpt><trkpt lat="45.99761783517958" lon="12.291961075222533"><ele>140.0</ele><time>2026-05-01T09:19:31.999Z</time></trkpt><trkpt lat="45.99766680269549" lon="12.291894083980424"><ele>140.0</ele><time>2026-05-01T09:19:34.999Z</time></trkpt><trkpt lat="45.99772713500728" lon="12.29180638878251"><ele>140.0</ele><time>2026-05-01T09:19:38Z</time></trkpt><trkpt lat="45.997787917448356" lon="12.291693655152393"><ele>140.0</ele><time>2026-05-01T09:19:40Z</time></trkpt><trkpt lat="45.997843731340964" lon="12.291613540392772"><ele>140.0</ele><time>2026-05-01T09:19:42Z</time></trkpt><trkpt lat="45.99788984106827" lon="12.291538168929096"><ele>140.0</ele><time>2026-05-01T09:19:44Z</time></trkpt><trkpt lat="45.99794131771292" lon="12.291457401516057"><ele>140.0</ele><time>2026-05-01T09:19:46Z</time></trkpt><trkpt lat="45.99799573659131" lon="12.291377171305879"><ele>140.0</ele><time>2026-05-01T09:19:50Z</time></trkpt><trkpt lat="45.99805704433129" lon="12.29131012549274"><ele>140.0</ele><time>2026-05-01T09:20:11Z</time></trkpt><trkpt lat="45.99811875113725" lon="12.29126284276117"><ele>140.0</ele><time>2026-05-01T09:20:14Z</time></trkpt><trkpt lat="45.99818237630422" lon="12.291242793331902"><ele>140.0</ele><time>2026-05-01T09:20:16Z</time></trkpt><trkpt lat="45.99824894973987" lon="12.291235913099817"><ele>140.4</ele><time>2026-05-01T09:20:19Z</time></trkpt><trkpt lat="45.99832089358123" lon="12.291236229096265"><ele>140.8</ele><time>2026-05-01T09:20:22Z</time></trkpt><trkpt lat="45.99839792918059" lon="12.291226057040985"><ele>141.2</ele><time>2026-05-01T09:20:26Z</time></trkpt><trkpt lat="45.998464919851635" lon="12.291224238996588"><ele>141.6</ele><time>2026-05-01T09:20:30Z</time></trkpt><trkpt lat="45.99863060176379" lon="12.291224091594913"><ele>142.0</ele><time>2026-05-01T09:20:53.999Z</time></trkpt><trkpt lat="45.99869890062799" lon="12.291204978559284"><ele>142.16666666666669</ele><time>2026-05-01T09:20:54.999Z</time></trkpt><trkpt lat="45.99876542503156" lon="12.291181394360764"><ele>142.33333333333334</ele><time>2026-05-01T09:20:55.999Z</time></trkpt><trkpt lat="45.99886559768226" lon="12.2911625865618"><ele>142.5</ele><time>2026-05-01T09:20:57.999Z</time></trkpt><trkpt lat="45.99893169438175" lon="12.291148241644855"><ele>142.66666666666666</ele><time>2026-05-01T09:20:59.999Z</time></trkpt><trkpt lat="45.99900792592954" lon="12.291126814028917"><ele>142.83333333333331</ele><time>2026-05-01T09:21:02.999Z</time></trkpt><trkpt lat="45.99911276958794" lon="12.291104550317412"><ele>143.0</ele><time>2026-05-01T09:21:04.999Z</time></trkpt><trkpt lat="45.999183768457094" lon="12.291083853468084"><ele>144.5</ele><time>2026-05-01T09:21:05.999Z</time></trkpt><trkpt lat="45.99925480682515" lon="12.291062629178137"><ele>146.0</ele><time>2026-05-01T09:21:06.999Z</time></trkpt><trkpt lat="45.99932147973716" lon="12.291054952018637"><ele>147.5</ele><time>2026-05-01T09:21:07.999Z</time></trkpt><trkpt lat="45.99941868584493" lon="12.291030524649452"><ele>149.0</ele><time>2026-05-01T09:21:09.999Z</time></trkpt><trkpt lat="45.99948688006983" lon="12.291021954747151"><ele>150.5</ele><time>2026-05-01T09:21:12.999Z</time></trkpt><trkpt lat="45.999575443722684" lon="12.29098644897901"><ele>152.0</ele><time>2026-05-01T09:21:15.999Z</time></trkpt><trkpt lat="45.99960000561989" lon="12.290820554876376"><ele>152.0</ele><time>2026-05-01T09:21:16.999Z</time></trkpt><trkpt lat="45.99953311696017" lon="12.290643990211118"><ele>152.0</ele><time>2026-05-01T09:21:18.999Z</time></trkpt><trkpt lat="45.999497469867094" lon="12.290551757569723"><ele>152.0</ele><time>2026-05-01T09:21:19.999Z</time></trkpt><trkpt lat="45.99945855471871" lon="12.290444264231981"><ele>152.0</ele><time>2026-05-01T09:21:21.999Z</time></trkpt><trkpt lat="45.99944084360411" lon="12.290344697004684"><ele>152.0</ele><time>2026-05-01T09:21:23.999Z</time></trkpt><trkpt lat="45.99947914791214" lon="12.290226772896387"><ele>151.14285714285714</ele><time>2026-05-01T09:21:25.999Z</time></trkpt><trkpt lat="45.99954562938091" lon="12.290206826846843"><ele>150.2857142857143</ele><time>2026-05-01T09:21:26.999Z</time></trkpt><trkpt lat="45.99960723860658" lon="12.290171015593476"><ele>149.42857142857144</ele><time>2026-05-01T09:21:27.999Z</time></trkpt><trkpt lat="45.999666328690616" lon="12.290100962744274"><ele>148.57142857142856</ele><time>2026-05-01T09:21:28.999Z</time></trkpt><trkpt lat="45.99973340243836" lon="12.290051945690335"><ele>147.71428571428572</ele><time>2026-05-01T09:21:29.999Z</time></trkpt><trkpt lat="45.99980607227645" lon="12.290034904395071"><ele>146.85714285714286</ele><time>2026-05-01T09:21:30.999Z</time></trkpt><trkpt lat="45.99987460756783" lon="12.290035646410647"><ele>146.0</ele><time>2026-05-01T09:21:31.999Z</time></trkpt><trkpt lat="45.9999494834322" lon="12.290073087961137"><ele>146.0</ele><time>2026-05-01T09:21:32.999Z</time></trkpt><trkpt lat="46.000036448725396" lon="12.290094451351294"><ele>146.0</ele><time>2026-05-01T09:21:33.999Z</time></trkpt><trkpt lat="46.00011947935736" lon="12.290091969362107"><ele>146.0</ele><time>2026-05-01T09:21:34.999Z</time></trkpt><trkpt lat="46.00020861588323" lon="12.29005770391639"><ele>146.0</ele><time>2026-05-01T09:21:35.999Z</time></trkpt><trkpt lat="46.00030246058126" lon="12.289989762933667"><ele>146.0</ele><time>2026-05-01T09:21:36.999Z</time></trkpt><trkpt lat="46.000400980092046" lon="12.289901270340978"><ele>146.0</ele><time>2026-05-01T09:21:37.999Z</time></trkpt><trkpt lat="46.00051751140795" lon="12.289803708712867"><ele>146.0</ele><time>2026-05-01T09:21:38.999Z</time></trkpt><trkpt lat="46.00063787702827" lon="12.289716803633098"><ele>146.0</ele><time>2026-05-01T09:21:39.999Z</time></trkpt><trkpt lat="46.000747053550796" lon="12.28962813820929"><ele>146.0</ele><time>2026-05-01T09:21:40.999Z</time></trkpt><trkpt lat="46.00084236246371" lon="12.28953627488796"><ele>148.0</ele><time>2026-05-01T09:21:41.999Z</time></trkpt><trkpt lat="46.00095003361168" lon="12.289500946055895"><ele>150.0</ele><time>2026-05-01T09:21:43Z</time></trkpt><trkpt lat="46.00105601462998" lon="12.289470601672832"><ele>152.0</ele><time>2026-05-01T09:21:44Z</time></trkpt><trkpt lat="46.00117200549478" lon="12.289447191909"><ele>154.0</ele><time>2026-05-01T09:21:45Z</time></trkpt><trkpt lat="46.00126075438842" lon="12.289408590762992"><ele>156.0</ele><time>2026-05-01T09:21:46Z</time></trkpt><trkpt lat="46.00134607655193" lon="12.289357658427392"><ele>156.0</ele><time>2026-05-01T09:21:47Z</time></trkpt><trkpt lat="46.00143080401836" lon="12.289302790924587"><ele>156.0</ele><time>2026-05-01T09:21:48Z</time></trkpt><trkpt lat="46.00150266565762" lon="12.289212953289367"><ele>156.0</ele><time>2026-05-01T09:21:49Z</time></trkpt><trkpt lat="46.00156868225309" lon="12.289114822144123"><ele>156.0</ele><time>2026-05-01T09:21:50Z</time></trkpt><trkpt lat="46.00163030914502" lon="12.289010815991398"><ele>156.0</ele><time>2026-05-01T09:21:51Z</time></trkpt><trkpt lat="46.001680263322726" lon="12.288896452363621"><ele>155.6</ele><time>2026-05-01T09:21:52Z</time></trkpt><trkpt lat="46.00174012965061" lon="12.288798254028327"><ele>155.2</ele><time>2026-05-01T09:21:53Z</time></trkpt><trkpt lat="46.001798690623865" lon="12.28869844560355"><ele>154.8</ele><time>2026-05-01T09:21:54Z</time></trkpt><trkpt lat="46.00185422213084" lon="12.288598327655441"><ele>154.4</ele><time>2026-05-01T09:21:55Z</time></trkpt><trkpt lat="46.001908514003276" lon="12.28848892289645"><ele>154.0</ele><time>2026-05-01T09:21:56Z</time></trkpt><trkpt lat="46.00198113678957" lon="12.28839684676944"><ele>154.0</ele><time>2026-05-01T09:21:57Z</time></trkpt><trkpt lat="46.002029763904375" lon="12.288270549176332"><ele>154.0</ele><time>2026-05-01T09:21:58Z</time></trkpt><trkpt lat="46.00209687529346" lon="12.288155009013375"><ele>154.0</ele><time>2026-05-01T09:21:59Z</time></trkpt><trkpt lat="46.00216200853092" lon="12.288038288766018"><ele>154.0</ele><time>2026-05-01T09:22:00Z</time></trkpt><trkpt lat="46.002228934530685" lon="12.287914204262881"><ele>154.0</ele><time>2026-05-01T09:22:01Z</time></trkpt><trkpt lat="46.00231600844361" lon="12.28780613792346"><ele>154.0</ele><time>2026-05-01T09:22:02Z</time></trkpt><trkpt lat="46.002386693329576" lon="12.287682616059795"><ele>154.0</ele><time>2026-05-01T09:22:03Z</time></trkpt><trkpt lat="46.002453528704095" lon="12.287565134825096"><ele>154.0</ele><time>2026-05-01T09:22:04Z</time></trkpt><trkpt lat="46.00251625745497" lon="12.287454872137735"><ele>154.0</ele><time>2026-05-01T09:22:05Z</time></trkpt><trkpt lat="46.00258167885501" lon="12.287339876352315"><ele>154.0</ele><time>2026-05-01T09:22:06Z</time></trkpt><trkpt lat="46.00264548525642" lon="12.287227719386992"><ele>154.0</ele><time>2026-05-01T09:22:07Z</time></trkpt><trkpt lat="46.002699106828864" lon="12.287100389649979"><ele>154.0</ele><time>2026-05-01T09:22:08Z</time></trkpt><trkpt lat="46.00276684686769" lon="12.28698493938536"><ele>154.0</ele><time>2026-05-01T09:22:09Z</time></trkpt><trkpt lat="46.00283461596684" lon="12.28686953787617"><ele>154.0</ele><time>2026-05-01T09:22:10Z</time></trkpt><trkpt lat="46.002903752071845" lon="12.286755044091068"><ele>154.0</ele><time>2026-05-01T09:22:11Z</time></trkpt><trkpt lat="46.00297868723422" lon="12.28664834137697"><ele>154.0</ele><time>2026-05-01T09:22:12Z</time></trkpt><trkpt lat="46.00306174210669" lon="12.28654906364451"><ele>154.0</ele><time>2026-05-01T09:22:13Z</time></trkpt><trkpt lat="46.00315185406569" lon="12.286463496881321"><ele>154.0</ele><time>2026-05-01T09:22:14Z</time></trkpt><trkpt lat="46.003251102056936" lon="12.286389234031889"><ele>154.0</ele><time>2026-05-01T09:22:15Z</time></trkpt><trkpt lat="46.0033506763199" lon="12.28633198512926"><ele>154.0</ele><time>2026-05-01T09:22:16Z</time></trkpt><trkpt lat="46.00345305248965" lon="12.286287759180828"><ele>154.4</ele><time>2026-05-01T09:22:17Z</time></trkpt><trkpt lat="46.00355392979896" lon="12.286245528459302"><ele>154.8</ele><time>2026-05-01T09:22:18Z</time></trkpt><trkpt lat="46.003650327097006" lon="12.28620343651628"><ele>155.2</ele><time>2026-05-01T09:22:19Z</time></trkpt><trkpt lat="46.003738267590066" lon="12.286166612327499"><ele>155.6</ele><time>2026-05-01T09:22:20Z</time></trkpt><trkpt lat="46.00381886858222" lon="12.286141093194129"><ele>156.0</ele><time>2026-05-01T09:22:21Z</time></trkpt><trkpt lat="46.00389558228218" lon="12.286110714664142"><ele>156.0</ele><time>2026-05-01T09:22:22Z</time></trkpt><trkpt lat="46.00397786286009" lon="12.28607846839876"><ele>156.0</ele><time>2026-05-01T09:22:23Z</time></trkpt><trkpt lat="46.004062515158274" lon="12.286051783148379"><ele>156.0</ele><time>2026-05-01T09:22:24Z</time></trkpt><trkpt lat="46.00414469352275" lon="12.286029393489036"><ele>156.0</ele><time>2026-05-01T09:22:25Z</time></trkpt><trkpt lat="46.00421713975965" lon="12.286017650796108"><ele>156.0</ele><time>2026-05-01T09:22:26Z</time></trkpt><trkpt lat="46.00428238628188" lon="12.28601500659239"><ele>156.0</ele><time>2026-05-01T09:22:27Z</time></trkpt><trkpt lat="46.004388360738545" lon="12.286048576560814"><ele>156.16666666666666</ele><time>2026-05-01T09:22:29Z</time></trkpt><trkpt lat="46.004470160845905" lon="12.286064158118341"><ele>156.33333333333334</ele><time>2026-05-01T09:22:32Z</time></trkpt><trkpt lat="46.00453435363059" lon="12.286061381664712"><ele>156.5</ele><time>2026-05-01T09:22:36Z</time></trkpt><trkpt lat="46.004608814086595" lon="12.286073465593583"><ele>156.66666666666669</ele><time>2026-05-01T09:23:10.999Z</time></trkpt><trkpt lat="46.00472494380827" lon="12.28605278288237"><ele>156.83333333333334</ele><time>2026-05-01T09:23:12.999Z</time></trkpt><trkpt lat="46.004805016059876" lon="12.286039974166355"><ele>157.0</ele><time>2026-05-01T09:23:13.999Z</time></trkpt><trkpt lat="46.00490782185942" lon="12.286058131940065"><ele>156.79999999999998</ele><time>2026-05-01T09:23:14.999Z</time></trkpt><trkpt lat="46.0050140627376" lon="12.286072172525454"><ele>156.6</ele><time>2026-05-01T09:23:15.999Z</time></trkpt><trkpt lat="46.005135169681466" lon="12.286078442609227"><ele>156.39999999999998</ele><time>2026-05-01T09:23:16.999Z</time></trkpt><trkpt lat="46.00523427613756" lon="12.286083134949898"><ele>156.2</ele><time>2026-05-01T09:23:17.999Z</time></trkpt><trkpt lat="46.00531684900688" lon="12.28608213898043"><ele>156.0</ele><time>2026-05-01T09:23:18.999Z</time></trkpt><trkpt lat="46.005396735693544" lon="12.286086177132303"><ele>156.0</ele><time>2026-05-01T09:23:19.999Z</time></trkpt><trkpt lat="46.00546854296906" lon="12.286078247932528"><ele>156.0</ele><time>2026-05-01T09:23:20.999Z</time></trkpt><trkpt lat="46.00554237305381" lon="12.286063052198894"><ele>156.0</ele><time>2026-05-01T09:23:21.999Z</time></trkpt><trkpt lat="46.00561624788838" lon="12.286049141709693"><ele>156.0</ele><time>2026-05-01T09:23:22.999Z</time></trkpt><trkpt lat="46.00569109408153" lon="12.286011657491146"><ele>156.0</ele><time>2026-05-01T09:23:23.999Z</time></trkpt><trkpt lat="46.0057713383537" lon="12.285981325220112"><ele>156.0</ele><time>2026-05-01T09:23:24.999Z</time></trkpt><trkpt lat="46.005842813165444" lon="12.285953803200547"><ele>156.0</ele><time>2026-05-01T09:23:25.999Z</time></trkpt><trkpt lat="46.0059186984405" lon="12.285933109758606"><ele>156.0</ele><time>2026-05-01T09:23:26.999Z</time></trkpt><trkpt lat="46.005979800875814" lon="12.285910666500289"><ele>156.0</ele><time>2026-05-01T09:23:27.999Z</time></trkpt><trkpt lat="46.00607508200294" lon="12.2858783034192"><ele>156.0</ele><time>2026-05-01T09:23:29.999Z</time></trkpt><trkpt lat="46.006175614500215" lon="12.285844468028177"><ele>156.0</ele><time>2026-05-01T09:23:31.999Z</time></trkpt><trkpt lat="46.0062611229419" lon="12.285820939653217"><ele>156.0</ele><time>2026-05-01T09:23:33.999Z</time></trkpt><trkpt lat="46.00633018468153" lon="12.285808543435603"><ele>156.0</ele><time>2026-05-01T09:23:36.999Z</time></trkpt><trkpt lat="46.00642332567677" lon="12.285797970875679"><ele>156.0</ele><time>2026-05-01T09:23:42.999Z</time></trkpt><trkpt lat="46.00650548887739" lon="12.285805298083474"><ele>156.0</ele><time>2026-05-01T09:23:44.999Z</time></trkpt><trkpt lat="46.00651774536757" lon="12.285599823151943"><ele>156.0</ele><time>2026-05-01T09:23:45.999Z</time></trkpt><trkpt lat="46.00651059708837" lon="12.285481245587466"><ele>156.0</ele><time>2026-05-01T09:23:46.999Z</time></trkpt><trkpt lat="46.00651686843661" lon="12.285368124016605"><ele>157.0</ele><time>2026-05-01T09:23:48Z</time></trkpt><trkpt lat="46.00653669470468" lon="12.285255435531939"><ele>158.0</ele><time>2026-05-01T09:23:49Z</time></trkpt><trkpt lat="46.006562318514725" lon="12.28512496531159"><ele>159.0</ele><time>2026-05-01T09:23:50Z</time></trkpt><trkpt lat="46.00659806411681" lon="12.284982345553008"><ele>160.0</ele><time>2026-05-01T09:23:51Z</time></trkpt><trkpt lat="46.00663954362515" lon="12.28483019983575"><ele>161.0</ele><time>2026-05-01T09:23:52Z</time></trkpt><trkpt lat="46.00668411502053" lon="12.284680610900802"><ele>161.0</ele><time>2026-05-01T09:23:53Z</time></trkpt><trkpt lat="46.00672722377059" lon="12.284534479251919"><ele>161.0</ele><time>2026-05-01T09:23:54Z</time></trkpt><trkpt lat="46.006769861412536" lon="12.284379618561399"><ele>161.0</ele><time>2026-05-01T09:23:55Z</time></trkpt><trkpt lat="46.006815573861786" lon="12.284224882989058"><ele>161.0</ele><time>2026-05-01T09:23:56Z</time></trkpt><trkpt lat="46.00685978472444" lon="12.284068338231894"><ele>161.20000000000002</ele><time>2026-05-01T09:23:57Z</time></trkpt><trkpt lat="46.00690326209024" lon="12.283923780529463"><ele>161.4</ele><time>2026-05-01T09:23:58Z</time></trkpt><trkpt lat="46.006945957947416" lon="12.283783441228097"><ele>161.6</ele><time>2026-05-01T09:23:59Z</time></trkpt><trkpt lat="46.00698958187974" lon="12.283644401400796"><ele>161.8</ele><time>2026-05-01T09:24:00Z</time></trkpt><trkpt lat="46.00701748978808" lon="12.28350312354457"><ele>162.0</ele><time>2026-05-01T09:24:01Z</time></trkpt><trkpt lat="46.00703416378448" lon="12.283361952534957"><ele>162.0</ele><time>2026-05-01T09:24:02Z</time></trkpt><trkpt lat="46.007043117772746" lon="12.283218188009222"><ele>162.0</ele><time>2026-05-01T09:24:03Z</time></trkpt><trkpt lat="46.00704322140403" lon="12.283073821193986"><ele>162.0</ele><time>2026-05-01T09:24:04Z</time></trkpt><trkpt lat="46.00704238458183" lon="12.282925475551554"><ele>162.0</ele><time>2026-05-01T09:24:05Z</time></trkpt><trkpt lat="46.007039934359646" lon="12.282766021772074"><ele>162.0</ele><time>2026-05-01T09:24:06Z</time></trkpt><trkpt lat="46.00703160104564" lon="12.282591925132182"><ele>162.5</ele><time>2026-05-01T09:24:07Z</time></trkpt><trkpt lat="46.00702548840617" lon="12.282394617121296"><ele>163.0</ele><time>2026-05-01T09:24:08Z</time></trkpt><trkpt lat="46.00701878139713" lon="12.282176186358534"><ele>163.5</ele><time>2026-05-01T09:24:09Z</time></trkpt><trkpt lat="46.00701166816637" lon="12.281972720205866"><ele>164.0</ele><time>2026-05-01T09:24:10Z</time></trkpt><trkpt lat="46.00700307040722" lon="12.281780336189017"><ele>164.5</ele><time>2026-05-01T09:24:11Z</time></trkpt><trkpt lat="46.006998459216504" lon="12.281593123104223"><ele>165.0</ele><time>2026-05-01T09:24:12Z</time></trkpt><trkpt lat="46.00699523887957" lon="12.28140972110863"><ele>165.5</ele><time>2026-05-01T09:24:13Z</time></trkpt><trkpt lat="46.0069890142807" lon="12.281224163059724"><ele>166.0</ele><time>2026-05-01T09:24:14Z</time></trkpt><trkpt lat="46.00698567286904" lon="12.281029827851937"><ele>166.0</ele><time>2026-05-01T09:24:15Z</time></trkpt><trkpt lat="46.00697621603603" lon="12.280830483132398"><ele>166.0</ele><time>2026-05-01T09:24:16Z</time></trkpt><trkpt lat="46.00697102421396" lon="12.280631316462147"><ele>166.0</ele><time>2026-05-01T09:24:17Z</time></trkpt><trkpt lat="46.006964638248206" lon="12.280431733883342"><ele>166.0</ele><time>2026-05-01T09:24:18Z</time></trkpt><trkpt lat="46.00695793869361" lon="12.28023009019444"><ele>166.25</ele><time>2026-05-01T09:24:19Z</time></trkpt><trkpt lat="46.00695193024271" lon="12.28002543561976"><ele>166.5</ele><time>2026-05-01T09:24:20Z</time></trkpt><trkpt lat="46.00694537075537" lon="12.279818280142793"><ele>166.75</ele><time>2026-05-01T09:24:21Z</time></trkpt><trkpt lat="46.006940309285184" lon="12.279613799563379"><ele>167.0</ele><time>2026-05-01T09:24:22Z</time></trkpt><trkpt lat="46.006932299562" lon="12.279427376973098"><ele>167.0</ele><time>2026-05-01T09:24:23Z</time></trkpt><trkpt lat="46.00692687522041" lon="12.279249593808611"><ele>167.0</ele><time>2026-05-01T09:24:24Z</time></trkpt><trkpt lat="46.00692316706502" lon="12.279073066210914"><ele>167.0</ele><time>2026-05-01T09:24:25Z</time></trkpt><trkpt lat="46.00691778597542" lon="12.278898504593425"><ele>167.0</ele><time>2026-05-01T09:24:26Z</time></trkpt><trkpt lat="46.00691286171184" lon="12.27872512433208"><ele>167.0</ele><time>2026-05-01T09:24:27Z</time></trkpt><trkpt lat="46.00690802004315" lon="12.278550644588154"><ele>167.0</ele><time>2026-05-01T09:24:28Z</time></trkpt><trkpt lat="46.00690265142516" lon="12.278377689780893"><ele>167.0</ele><time>2026-05-01T09:24:29Z</time></trkpt><trkpt lat="46.006898148245924" lon="12.278202833642412"><ele>167.0</ele><time>2026-05-01T09:24:30Z</time></trkpt><trkpt lat="46.00689380578618" lon="12.27802373004777"><ele>167.25</ele><time>2026-05-01T09:24:31Z</time></trkpt><trkpt lat="46.00688870050336" lon="12.277840608932744"><ele>167.5</ele><time>2026-05-01T09:24:32Z</time></trkpt><trkpt lat="46.00688278961067" lon="12.277644826170869"><ele>167.75</ele><time>2026-05-01T09:24:33Z</time></trkpt><trkpt lat="46.006875034107225" lon="12.277438233789766"><ele>168.0</ele><time>2026-05-01T09:24:34Z</time></trkpt><trkpt lat="46.00686744602044" lon="12.277234058833093"><ele>169.0</ele><time>2026-05-01T09:24:35Z</time></trkpt><trkpt lat="46.006855515951216" lon="12.27703138841516"><ele>170.0</ele><time>2026-05-01T09:24:36Z</time></trkpt><trkpt lat="46.006840311767704" lon="12.276828359338854"><ele>171.0</ele><time>2026-05-01T09:24:37Z</time></trkpt><trkpt lat="46.00682091859746" lon="12.276627126426114"><ele>172.0</ele><time>2026-05-01T09:24:38Z</time></trkpt><trkpt lat="46.00679646358264" lon="12.276426733322701"><ele>173.5</ele><time>2026-05-01T09:24:39Z</time></trkpt><trkpt lat="46.00676775032114" lon="12.276227570240318"><ele>175.0</ele><time>2026-05-01T09:24:40Z</time></trkpt><trkpt lat="46.006738161567164" lon="12.276035701426006"><ele>176.5</ele><time>2026-05-01T09:24:41Z</time></trkpt><trkpt lat="46.00670780287523" lon="12.275842499348093"><ele>178.0</ele><time>2026-05-01T09:24:42Z</time></trkpt><trkpt lat="46.006678800451034" lon="12.275652058265441"><ele>177.75</ele><time>2026-05-01T09:24:43Z</time></trkpt><trkpt lat="46.00665085816466" lon="12.275457235389961"><ele>177.5</ele><time>2026-05-01T09:24:44Z</time></trkpt><trkpt lat="46.00661871439788" lon="12.275267547776558"><ele>177.25</ele><time>2026-05-01T09:24:45Z</time></trkpt><trkpt lat="46.006588005127426" lon="12.27509129809373"><ele>177.0</ele><time>2026-05-01T09:24:45.999Z</time></trkpt><trkpt lat="46.00656445028598" lon="12.274924837672955"><ele>177.8</ele><time>2026-05-01T09:24:46.999Z</time></trkpt><trkpt lat="46.006538301201644" lon="12.274764524095307"><ele>178.6</ele><time>2026-05-01T09:24:47.999Z</time></trkpt><trkpt lat="46.00651265993086" lon="12.274608726608216"><ele>179.4</ele><time>2026-05-01T09:24:48.999Z</time></trkpt><trkpt lat="46.00648744585136" lon="12.27445762334598"><ele>180.20000000000002</ele><time>2026-05-01T09:24:49.999Z</time></trkpt><trkpt lat="46.00646507008833" lon="12.274307854228754"><ele>181.0</ele><time>2026-05-01T09:24:50.999Z</time></trkpt><trkpt lat="46.006443201930104" lon="12.274158272252977"><ele>181.0</ele><time>2026-05-01T09:24:51.999Z</time></trkpt><trkpt lat="46.00641854614291" lon="12.274006925782535"><ele>181.0</ele><time>2026-05-01T09:24:52.999Z</time></trkpt><trkpt lat="46.006392191201186" lon="12.273851091303383"><ele>181.0</ele><time>2026-05-01T09:24:53.999Z</time></trkpt><trkpt lat="46.00636740474893" lon="12.273689008278225"><ele>181.0</ele><time>2026-05-01T09:24:54.999Z</time></trkpt><trkpt lat="46.006339772143164" lon="12.273523080018538"><ele>183.0</ele><time>2026-05-01T09:24:55.999Z</time></trkpt><trkpt lat="46.006312655029745" lon="12.27335636841491"><ele>185.0</ele><time>2026-05-01T09:24:56.999Z</time></trkpt><trkpt lat="46.00628578653041" lon="12.273188938395158"><ele>187.0</ele><time>2026-05-01T09:24:57.999Z</time></trkpt><trkpt lat="46.00625800255779" lon="12.273021207763275"><ele>189.0</ele><time>2026-05-01T09:24:58.999Z</time></trkpt><trkpt lat="46.00623121055669" lon="12.272853990949045"><ele>189.5</ele><time>2026-05-01T09:24:59.999Z</time></trkpt><trkpt lat="46.0062029335771" lon="12.272687852647783"><ele>190.0</ele><time>2026-05-01T09:25:00.999Z</time></trkpt><trkpt lat="46.00617400917593" lon="12.272521014335993"><ele>190.5</ele><time>2026-05-01T09:25:01.999Z</time></trkpt><trkpt lat="46.00614407594031" lon="12.272351179043792"><ele>191.0</ele><time>2026-05-01T09:25:02.999Z</time></trkpt><trkpt lat="46.00611457546074" lon="12.272177266776906"><ele>191.25</ele><time>2026-05-01T09:25:03.999Z</time></trkpt><trkpt lat="46.006087256272586" lon="12.271993961931127"><ele>191.5</ele><time>2026-05-01T09:25:04.999Z</time></trkpt><trkpt lat="46.006059933209464" lon="12.271801341336575"><ele>191.75</ele><time>2026-05-01T09:25:05.999Z</time></trkpt><trkpt lat="46.00602907044974" lon="12.271598300196514"><ele>192.0</ele><time>2026-05-01T09:25:06.999Z</time></trkpt><trkpt lat="46.00599364580233" lon="12.271381375910877"><ele>193.0</ele><time>2026-05-01T09:25:07.999Z</time></trkpt><trkpt lat="46.00595791266681" lon="12.271148604738254"><ele>194.0</ele><time>2026-05-01T09:25:08.999Z</time></trkpt><trkpt lat="46.00592066743401" lon="12.270899948996522"><ele>195.0</ele><time>2026-05-01T09:25:09.999Z</time></trkpt><trkpt lat="46.005879403697165" lon="12.270636327439561"><ele>196.33333333333331</ele><time>2026-05-01T09:25:10.999Z</time></trkpt><trkpt lat="46.00583632280988" lon="12.270361160505765"><ele>197.66666666666666</ele><time>2026-05-01T09:25:11.999Z</time></trkpt><trkpt lat="46.00579545989485" lon="12.270089376233708"><ele>199.0</ele><time>2026-05-01T09:25:12.999Z</time></trkpt><trkpt lat="46.00574919853428" lon="12.269833434917691"><ele>197.33333333333331</ele><time>2026-05-01T09:25:13.999Z</time></trkpt><trkpt lat="46.00570750323525" lon="12.269589631829929"><ele>195.66666666666669</ele><time>2026-05-01T09:25:14.999Z</time></trkpt><trkpt lat="46.00565543143026" lon="12.269356272162812"><ele>194.0</ele><time>2026-05-01T09:25:15.999Z</time></trkpt><trkpt lat="46.005586792903145" lon="12.269113067962248"><ele>195.66666666666669</ele><time>2026-05-01T09:25:16.999Z</time></trkpt><trkpt lat="46.00550781650584" lon="12.268867897485285"><ele>197.33333333333331</ele><time>2026-05-01T09:25:17.999Z</time></trkpt><trkpt lat="46.005417843638384" lon="12.268622704391891"><ele>199.0</ele><time>2026-05-01T09:25:18.999Z</time></trkpt><trkpt lat="46.005324597921856" lon="12.268379596309728"><ele>199.0</ele><time>2026-05-01T09:25:19.999Z</time></trkpt><trkpt lat="46.005231879291124" lon="12.268141343473221"><ele>199.0</ele><time>2026-05-01T09:25:20.999Z</time></trkpt><trkpt lat="46.005141579770054" lon="12.2679138290615"><ele>199.0</ele><time>2026-05-01T09:25:21.999Z</time></trkpt><trkpt lat="46.0050612349135" lon="12.267707770164998"><ele>198.66666666666666</ele><time>2026-05-01T09:25:22.999Z</time></trkpt><trkpt lat="46.00498607010266" lon="12.267517805522871"><ele>198.33333333333331</ele><time>2026-05-01T09:25:23.999Z</time></trkpt><trkpt lat="46.00491215509652" lon="12.267325950016156"><ele>198.0</ele><time>2026-05-01T09:25:24.999Z</time></trkpt><trkpt lat="46.004835326240695" lon="12.267133445426301"><ele>200.25</ele><time>2026-05-01T09:25:25.999Z</time></trkpt><trkpt lat="46.00476017342381" lon="12.26694232281362"><ele>202.5</ele><time>2026-05-01T09:25:26.999Z</time></trkpt><trkpt lat="46.0046870341671" lon="12.266756563548597"><ele>204.75</ele><time>2026-05-01T09:25:27.999Z</time></trkpt><trkpt lat="46.00462350783611" lon="12.26659691917306"><ele>207.0</ele><time>2026-05-01T09:25:28.999Z</time></trkpt><trkpt lat="46.00456735971282" lon="12.266466118688461"><ele>208.6</ele><time>2026-05-01T09:25:29.999Z</time></trkpt><trkpt lat="46.0045187419375" lon="12.266366611363942"><ele>210.2</ele><time>2026-05-01T09:25:30.999Z</time></trkpt><trkpt lat="46.004439415317655" lon="12.26624161747614"><ele>211.8</ele><time>2026-05-01T09:25:32.999Z</time></trkpt><trkpt lat="46.00437133939331" lon="12.266158962923244"><ele>213.4</ele><time>2026-05-01T09:25:34.999Z</time></trkpt><trkpt lat="46.00428980818747" lon="12.266063367209792"><ele>215.0</ele><time>2026-05-01T09:25:36.999Z</time></trkpt><trkpt lat="46.00422756624735" lon="12.266018648374487"><ele>215.4</ele><time>2026-05-01T09:25:37.999Z</time></trkpt><trkpt lat="46.00415051769941" lon="12.26597402991963"><ele>215.8</ele><time>2026-05-01T09:25:38.999Z</time></trkpt><trkpt lat="46.004056896363444" lon="12.265940837517311"><ele>216.2</ele><time>2026-05-01T09:25:39.999Z</time></trkpt><trkpt lat="46.00394767108779" lon="12.265924032347863"><ele>216.6</ele><time>2026-05-01T09:25:40.999Z</time></trkpt><trkpt lat="46.00382416480573" lon="12.265924078909572"><ele>217.0</ele><time>2026-05-01T09:25:41.999Z</time></trkpt><trkpt lat="46.00369099428256" lon="12.26594152592335"><ele>217.0</ele><time>2026-05-01T09:25:42.999Z</time></trkpt><trkpt lat="46.003560871175445" lon="12.265958212454064"><ele>217.0</ele><time>2026-05-01T09:25:43.999Z</time></trkpt><trkpt lat="46.003433628947434" lon="12.265967548327973"><ele>217.0</ele><time>2026-05-01T09:25:44.999Z</time></trkpt><trkpt lat="46.00331522451546" lon="12.265976978763563"><ele>217.0</ele><time>2026-05-01T09:25:45.999Z</time></trkpt><trkpt lat="46.00319637564656" lon="12.265976527994363"><ele>217.75</ele><time>2026-05-01T09:25:46.999Z</time></trkpt><trkpt lat="46.00306811553642" lon="12.265950807921081"><ele>218.5</ele><time>2026-05-01T09:25:47.999Z</time></trkpt><trkpt lat="46.00293829991703" lon="12.265892925189487"><ele>219.25</ele><time>2026-05-01T09:25:48.999Z</time></trkpt><trkpt lat="46.002813032150016" lon="12.265799570752613"><ele>220.0</ele><time>2026-05-01T09:25:49.999Z</time></trkpt><trkpt lat="46.002692926822874" lon="12.26568156599719"><ele>220.33333333333331</ele><time>2026-05-01T09:25:50.999Z</time></trkpt><trkpt lat="46.00258293051408" lon="12.265536760836211"><ele>220.66666666666669</ele><time>2026-05-01T09:25:51.999Z</time></trkpt><trkpt lat="46.00248968082441" lon="12.265367593839066"><ele>221.0</ele><time>2026-05-01T09:25:52.999Z</time></trkpt><trkpt lat="46.00240260877429" lon="12.265188189137216"><ele>221.0</ele><time>2026-05-01T09:25:54Z</time></trkpt><trkpt lat="46.00230752469747" lon="12.265009333477082"><ele>221.0</ele><time>2026-05-01T09:25:55Z</time></trkpt><trkpt lat="46.00220298517694" lon="12.264810911906537"><ele>221.0</ele><time>2026-05-01T09:25:56Z</time></trkpt><trkpt lat="46.00209429424471" lon="12.264595391348518"><ele>223.33333333333334</ele><time>2026-05-01T09:25:57Z</time></trkpt><trkpt lat="46.001995582217816" lon="12.26440169714648"><ele>225.66666666666669</ele><time>2026-05-01T09:25:58Z</time></trkpt><trkpt lat="46.001897056952316" lon="12.264210685324953"><ele>228.0</ele><time>2026-05-01T09:25:59Z</time></trkpt><trkpt lat="46.0018079238369" lon="12.26403451636287"><ele>230.25</ele><time>2026-05-01T09:26:00Z</time></trkpt><trkpt lat="46.00172518294443" lon="12.263868279279308"><ele>232.5</ele><time>2026-05-01T09:26:01Z</time></trkpt><trkpt lat="46.00163916315448" lon="12.263702300218629"><ele>234.75</ele><time>2026-05-01T09:26:02Z</time></trkpt><trkpt lat="46.00155117322079" lon="12.263534727152924"><ele>237.0</ele><time>2026-05-01T09:26:03Z</time></trkpt><trkpt lat="46.00146322589474" lon="12.263359187654219"><ele>237.0</ele><time>2026-05-01T09:26:04Z</time></trkpt><trkpt lat="46.001372143647274" lon="12.2631804259026"><ele>237.0</ele><time>2026-05-01T09:26:05Z</time></trkpt><trkpt lat="46.001282317535434" lon="12.263001961586811"><ele>237.0</ele><time>2026-05-01T09:26:06Z</time></trkpt><trkpt lat="46.00119670500416" lon="12.262821880971922"><ele>238.66666666666669</ele><time>2026-05-01T09:26:07Z</time></trkpt><trkpt lat="46.00111968171618" lon="12.262636925570364"><ele>240.33333333333334</ele><time>2026-05-01T09:26:08Z</time></trkpt><trkpt lat="46.00105195610189" lon="12.262439500810304"><ele>242.0</ele><time>2026-05-01T09:26:09Z</time></trkpt><trkpt lat="46.00099169577774" lon="12.262227278670862"><ele>242.0</ele><time>2026-05-01T09:26:10Z</time></trkpt><trkpt lat="46.000941870263915" lon="12.261996638174516"><ele>242.0</ele><time>2026-05-01T09:26:11Z</time></trkpt><trkpt lat="46.00091422886061" lon="12.261746270416678"><ele>242.0</ele><time>2026-05-01T09:26:12Z</time></trkpt><trkpt lat="46.00089700303848" lon="12.261493807820086"><ele>241.33333333333334</ele><time>2026-05-01T09:26:13Z</time></trkpt><trkpt lat="46.00089567291504" lon="12.261246236385716"><ele>240.66666666666669</ele><time>2026-05-01T09:26:14Z</time></trkpt><trkpt lat="46.00091106517698" lon="12.26102739298931"><ele>240.0</ele><time>2026-05-01T09:26:15Z</time></trkpt><trkpt lat="46.00094518834743" lon="12.260829372549134"><ele>240.0</ele><time>2026-05-01T09:26:16Z</time></trkpt><trkpt lat="46.000981344664346" lon="12.260636717823358"><ele>240.0</ele><time>2026-05-01T09:26:17Z</time></trkpt><trkpt lat="46.00101537851612" lon="12.260429342756018"><ele>240.0</ele><time>2026-05-01T09:26:18Z</time></trkpt><trkpt lat="46.00105083471511" lon="12.260210422587999"><ele>240.0</ele><time>2026-05-01T09:26:19Z</time></trkpt><trkpt lat="46.00108436173038" lon="12.259995389224468"><ele>239.0</ele><time>2026-05-01T09:26:20Z</time></trkpt><trkpt lat="46.00110862264445" lon="12.259784502357325"><ele>238.0</ele><time>2026-05-01T09:26:21Z</time></trkpt><trkpt lat="46.00112276106433" lon="12.259574011448546"><ele>237.0</ele><time>2026-05-01T09:26:22Z</time></trkpt><trkpt lat="46.00112241311292" lon="12.259361916889482"><ele>236.0</ele><time>2026-05-01T09:26:23Z</time></trkpt><trkpt lat="46.00110754143916" lon="12.259140547141145"><ele>238.33333333333334</ele><time>2026-05-01T09:26:24Z</time></trkpt><trkpt lat="46.001071904767315" lon="12.258910829527547"><ele>240.66666666666669</ele><time>2026-05-01T09:26:25Z</time></trkpt><trkpt lat="46.00102266466871" lon="12.258689970008877"><ele>243.0</ele><time>2026-05-01T09:26:26Z</time></trkpt><trkpt lat="46.00095791654546" lon="12.25848307153994"><ele>243.0</ele><time>2026-05-01T09:26:27Z</time></trkpt><trkpt lat="46.00087998252945" lon="12.258288528702217"><ele>243.0</ele><time>2026-05-01T09:26:28Z</time></trkpt><trkpt lat="46.000797756471904" lon="12.258107720180119"><ele>243.0</ele><time>2026-05-01T09:26:29Z</time></trkpt><trkpt lat="46.00072223917621" lon="12.257943697101702"><ele>243.0</ele><time>2026-05-01T09:26:30Z</time></trkpt><trkpt lat="46.00065063840484" lon="12.25778790755607"><ele>243.75</ele><time>2026-05-01T09:26:31Z</time></trkpt><trkpt lat="46.00057817505502" lon="12.257631392103152"><ele>244.5</ele><time>2026-05-01T09:26:32Z</time></trkpt><trkpt lat="46.00050309675749" lon="12.257480644645714"><ele>245.25</ele><time>2026-05-01T09:26:33Z</time></trkpt><trkpt lat="46.000426505728484" lon="12.257337384577138"><ele>246.0</ele><time>2026-05-01T09:26:34Z</time></trkpt><trkpt lat="46.00034478469681" lon="12.257203717400834"><ele>246.5</ele><time>2026-05-01T09:26:35Z</time></trkpt><trkpt lat="46.000255088157516" lon="12.257081077088134"><ele>247.0</ele><time>2026-05-01T09:26:36Z</time></trkpt><trkpt lat="46.00016559604439" lon="12.256958486300272"><ele>247.5</ele><time>2026-05-01T09:26:37Z</time></trkpt><trkpt lat="46.00007990086984" lon="12.256839707183037"><ele>248.0</ele><time>2026-05-01T09:26:38Z</time></trkpt><trkpt lat="45.999996671651836" lon="12.256720590815771"><ele>248.0</ele><time>2026-05-01T09:26:39Z</time></trkpt><trkpt lat="45.9999163658448" lon="12.256600364697752"><ele>248.0</ele><time>2026-05-01T09:26:40Z</time></trkpt><trkpt lat="45.99984505668089" lon="12.256481390192059"><ele>248.0</ele><time>2026-05-01T09:26:41Z</time></trkpt><trkpt lat="45.999786755172025" lon="12.256360795193313"><ele>248.0</ele><time>2026-05-01T09:26:42Z</time></trkpt><trkpt lat="45.99973135807232" lon="12.256224671426764"><ele>248.0</ele><time>2026-05-01T09:26:43Z</time></trkpt><trkpt lat="45.99967995153043" lon="12.256077709849382"><ele>249.0</ele><time>2026-05-01T09:26:44Z</time></trkpt><trkpt lat="45.99962081772001" lon="12.255920838451958"><ele>250.0</ele><time>2026-05-01T09:26:45Z</time></trkpt><trkpt lat="45.99955736673874" lon="12.255755222561524"><ele>251.0</ele><time>2026-05-01T09:26:46Z</time></trkpt><trkpt lat="45.999496091596384" lon="12.255581658759638"><ele>252.0</ele><time>2026-05-01T09:26:47Z</time></trkpt><trkpt lat="45.99942228699885" lon="12.255414449194014"><ele>251.25</ele><time>2026-05-01T09:26:48Z</time></trkpt><trkpt lat="45.999335878471236" lon="12.25525042705563"><ele>250.5</ele><time>2026-05-01T09:26:49Z</time></trkpt><trkpt lat="45.99924461399199" lon="12.255083598329229"><ele>249.75</ele><time>2026-05-01T09:26:50Z</time></trkpt><trkpt lat="45.99914810912096" lon="12.254908973906437"><ele>249.0</ele><time>2026-05-01T09:26:50.999Z</time></trkpt><trkpt lat="45.999049803234655" lon="12.254736328301911"><ele>249.0</ele><time>2026-05-01T09:26:51.999Z</time></trkpt><trkpt lat="45.99895309266317" lon="12.254561906744458"><ele>249.0</ele><time>2026-05-01T09:26:52.999Z</time></trkpt><trkpt lat="45.998859310558075" lon="12.254387077430984"><ele>249.0</ele><time>2026-05-01T09:26:53.999Z</time></trkpt><trkpt lat="45.9987657877212" lon="12.254218993832094"><ele>249.0</ele><time>2026-05-01T09:26:54.999Z</time></trkpt><trkpt lat="45.99867379097122" lon="12.254050753543067"><ele>249.0</ele><time>2026-05-01T09:26:55.999Z</time></trkpt><trkpt lat="45.99857918721164" lon="12.253882625575706"><ele>249.0</ele><time>2026-05-01T09:26:56.999Z</time></trkpt><trkpt lat="45.99848813468425" lon="12.253717954939596"><ele>249.0</ele><time>2026-05-01T09:26:57.999Z</time></trkpt><trkpt lat="45.9984072101089" lon="12.25356930541359"><ele>248.0</ele><time>2026-05-01T09:26:58.999Z</time></trkpt><trkpt lat="45.99832705840022" lon="12.253421681502713"><ele>247.0</ele><time>2026-05-01T09:26:59.999Z</time></trkpt><trkpt lat="45.99825217714359" lon="12.253284435400355"><ele>246.0</ele><time>2026-05-01T09:27:00.999Z</time></trkpt><trkpt lat="45.99818152914236" lon="12.253156803158369"><ele>245.0</ele><time>2026-05-01T09:27:01.999Z</time></trkpt><trkpt lat="45.99811687194477" lon="12.253036558613006"><ele>245.0</ele><time>2026-05-01T09:27:02.999Z</time></trkpt><trkpt lat="45.998051767572306" lon="12.252920207346207"><ele>245.0</ele><time>2026-05-01T09:27:03.999Z</time></trkpt><trkpt lat="45.997984997511765" lon="12.252795683923438"><ele>245.0</ele><time>2026-05-01T09:27:04.999Z</time></trkpt><trkpt lat="45.99791773035848" lon="12.252663850401914"><ele>245.0</ele><time>2026-05-01T09:27:05.999Z</time></trkpt><trkpt lat="45.99785723645015" lon="12.252520262566703"><ele>245.0</ele><time>2026-05-01T09:27:06.999Z</time></trkpt><trkpt lat="45.997801975772326" lon="12.252362321845391"><ele>245.5</ele><time>2026-05-01T09:27:07.999Z</time></trkpt><trkpt lat="45.99775228618245" lon="12.252190917045121"><ele>246.0</ele><time>2026-05-01T09:27:08.999Z</time></trkpt><trkpt lat="45.99770980567275" lon="12.252003679480454"><ele>246.5</ele><time>2026-05-01T09:27:09.999Z</time></trkpt><trkpt lat="45.997677910262865" lon="12.25180028960381"><ele>247.0</ele><time>2026-05-01T09:27:10.999Z</time></trkpt><trkpt lat="45.99765622718745" lon="12.25158337044904"><ele>246.66666666666666</ele><time>2026-05-01T09:27:11.999Z</time></trkpt><trkpt lat="45.997644008119224" lon="12.251353375575395"><ele>246.33333333333331</ele><time>2026-05-01T09:27:12.999Z</time></trkpt><trkpt lat="45.997644641052474" lon="12.251114376738725"><ele>246.0</ele><time>2026-05-01T09:27:13.999Z</time></trkpt><trkpt lat="45.99765224579987" lon="12.250872615802987"><ele>246.0</ele><time>2026-05-01T09:27:14.999Z</time></trkpt><trkpt lat="45.99766469711375" lon="12.250633418041105"><ele>246.0</ele><time>2026-05-01T09:27:15.999Z</time></trkpt><trkpt lat="45.99767526380752" lon="12.25040153705359"><ele>246.0</ele><time>2026-05-01T09:27:16.999Z</time></trkpt><trkpt lat="45.99768453191267" lon="12.25017625871041"><ele>245.66666666666669</ele><time>2026-05-01T09:27:17.999Z</time></trkpt><trkpt lat="45.99769370427865" lon="12.249954340346841"><ele>245.33333333333334</ele><time>2026-05-01T09:27:18.999Z</time></trkpt><trkpt lat="45.997703142556944" lon="12.249734868723701"><ele>245.0</ele><time>2026-05-01T09:27:19.999Z</time></trkpt><trkpt lat="45.99771461695438" lon="12.249509902689182"><ele>244.0</ele><time>2026-05-01T09:27:20.999Z</time></trkpt><trkpt lat="45.99772940214326" lon="12.249284675734986"><ele>243.0</ele><time>2026-05-01T09:27:21.999Z</time></trkpt><trkpt lat="45.997744206107434" lon="12.249061496877982"><ele>242.0</ele><time>2026-05-01T09:27:22.999Z</time></trkpt><trkpt lat="45.9977592155368" lon="12.248839630401974"><ele>241.66666666666669</ele><time>2026-05-01T09:27:23.999Z</time></trkpt><trkpt lat="45.997773539267556" lon="12.248616746553068"><ele>241.33333333333331</ele><time>2026-05-01T09:27:24.999Z</time></trkpt><trkpt lat="45.99778334145698" lon="12.248398621782814"><ele>241.0</ele><time>2026-05-01T09:27:25.999Z</time></trkpt><trkpt lat="45.99778756122674" lon="12.248189689466107"><ele>243.25</ele><time>2026-05-01T09:27:26.999Z</time></trkpt><trkpt lat="45.997784094915346" lon="12.24798481284172"><ele>245.5</ele><time>2026-05-01T09:27:27.999Z</time></trkpt><trkpt lat="45.997768698419925" lon="12.247780191959684"><ele>247.75</ele><time>2026-05-01T09:27:28.999Z</time></trkpt><trkpt lat="45.99774190513718" lon="12.247564571834742"><ele>250.0</ele><time>2026-05-01T09:27:29.999Z</time></trkpt><trkpt lat="45.997701365301616" lon="12.247349459764203"><ele>246.75</ele><time>2026-05-01T09:27:30.999Z</time></trkpt><trkpt lat="45.997644569252664" lon="12.247140120627883"><ele>243.5</ele><time>2026-05-01T09:27:31.999Z</time></trkpt><trkpt lat="45.99757402605879" lon="12.246947120290374"><ele>240.25</ele><time>2026-05-01T09:27:32.999Z</time></trkpt><trkpt lat="45.99750292717682" lon="12.246783541104415"><ele>237.0</ele><time>2026-05-01T09:27:33.999Z</time></trkpt><trkpt lat="45.99743113715716" lon="12.246630010319619"><ele>237.0</ele><time>2026-05-01T09:27:34.999Z</time></trkpt><trkpt lat="45.997356959274946" lon="12.246491244298571"><ele>237.0</ele><time>2026-05-01T09:27:35.999Z</time></trkpt><trkpt lat="45.997287265299576" lon="12.246357668558812"><ele>237.0</ele><time>2026-05-01T09:27:36.999Z</time></trkpt><trkpt lat="45.99721752467771" lon="12.24622391736729"><ele>237.0</ele><time>2026-05-01T09:27:37.999Z</time></trkpt><trkpt lat="45.99714804007032" lon="12.246088475352137"><ele>238.75</ele><time>2026-05-01T09:27:38.999Z</time></trkpt><trkpt lat="45.99707474996589" lon="12.245948460931908"><ele>240.5</ele><time>2026-05-01T09:27:39.999Z</time></trkpt><trkpt lat="45.99700242210486" lon="12.245811239376318"><ele>242.25</ele><time>2026-05-01T09:27:40.999Z</time></trkpt><trkpt lat="45.99692862220404" lon="12.245674326803474"><ele>244.0</ele><time>2026-05-01T09:27:41.999Z</time></trkpt><trkpt lat="45.996855104128215" lon="12.245533612829552"><ele>241.25</ele><time>2026-05-01T09:27:42.999Z</time></trkpt><trkpt lat="45.99677967998246" lon="12.24538578785485"><ele>238.5</ele><time>2026-05-01T09:27:43.999Z</time></trkpt><trkpt lat="45.9966993993363" lon="12.245228450475452"><ele>235.75</ele><time>2026-05-01T09:27:44.999Z</time></trkpt><trkpt lat="45.996614776182476" lon="12.245067635761751"><ele>233.0</ele><time>2026-05-01T09:27:45.999Z</time></trkpt><trkpt lat="45.996531658275835" lon="12.244909155934364"><ele>235.0</ele><time>2026-05-01T09:27:46.999Z</time></trkpt><trkpt lat="45.99645258529602" lon="12.244755338549183"><ele>237.0</ele><time>2026-05-01T09:27:47.999Z</time></trkpt><trkpt lat="45.99636742977874" lon="12.244590701791285"><ele>239.0</ele><time>2026-05-01T09:27:48.999Z</time></trkpt><trkpt lat="45.9962722538844" lon="12.244407277303443"><ele>241.0</ele><time>2026-05-01T09:27:49.999Z</time></trkpt><trkpt lat="45.99615810743748" lon="12.244198315091745"><ele>238.33333333333331</ele><time>2026-05-01T09:27:50.999Z</time></trkpt><trkpt lat="45.996022868857295" lon="12.243943054641495"><ele>235.66666666666669</ele><time>2026-05-01T09:27:51.999Z</time></trkpt><trkpt lat="45.99591560583432" lon="12.24374219087574"><ele>233.0</ele><time>2026-05-01T09:27:52.999Z</time></trkpt><trkpt lat="45.99582341882814" lon="12.243547006071308"><ele>233.0</ele><time>2026-05-01T09:27:53.999Z</time></trkpt><trkpt lat="45.99574688853584" lon="12.243331933579043"><ele>233.0</ele><time>2026-05-01T09:27:54.999Z</time></trkpt><trkpt lat="45.99569012824994" lon="12.243107422821184"><ele>233.0</ele><time>2026-05-01T09:27:55.999Z</time></trkpt><trkpt lat="45.99564157660173" lon="12.24287430962482"><ele>234.66666666666669</ele><time>2026-05-01T09:27:56.999Z</time></trkpt><trkpt lat="45.995600061531995" lon="12.242623773821217"><ele>236.33333333333331</ele><time>2026-05-01T09:27:57.999Z</time></trkpt><trkpt lat="45.9955596362455" lon="12.242345485256763"><ele>238.0</ele><time>2026-05-01T09:27:58.999Z</time></trkpt><trkpt lat="45.99551427411006" lon="12.242058474400324"><ele>240.0</ele><time>2026-05-01T09:28:00Z</time></trkpt><trkpt lat="45.99547277472534" lon="12.241802417347408"><ele>242.0</ele><time>2026-05-01T09:28:01Z</time></trkpt><trkpt lat="45.995432421601464" lon="12.241575172244508"><ele>244.0</ele><time>2026-05-01T09:28:02Z</time></trkpt><trkpt lat="45.99538525749897" lon="12.241372256212506"><ele>247.25</ele><time>2026-05-01T09:28:03Z</time></trkpt><trkpt lat="45.99533510727556" lon="12.241188293791522"><ele>250.5</ele><time>2026-05-01T09:28:04Z</time></trkpt><trkpt lat="45.995282143121194" lon="12.241012376867783"><ele>253.75</ele><time>2026-05-01T09:28:05Z</time></trkpt><trkpt lat="45.99522879725443" lon="12.240856169146047"><ele>257.0</ele><time>2026-05-01T09:28:06Z</time></trkpt><trkpt lat="45.99517599644274" lon="12.240719377043336"><ele>258.8</ele><time>2026-05-01T09:28:07Z</time></trkpt><trkpt lat="45.99511452004085" lon="12.240575193268464"><ele>260.6</ele><time>2026-05-01T09:28:08Z</time></trkpt><trkpt lat="45.99504956576719" lon="12.240439252296373"><ele>262.40000000000003</ele><time>2026-05-01T09:28:09Z</time></trkpt><trkpt lat="45.994988096213085" lon="12.240321170114314"><ele>264.2</ele><time>2026-05-01T09:28:10Z</time></trkpt><trkpt lat="45.99493203287432" lon="12.240213653918572"><ele>266.0</ele><time>2026-05-01T09:28:11Z</time></trkpt><trkpt lat="45.99487870071024" lon="12.240113189767257"><ele>262.33333333333337</ele><time>2026-05-01T09:28:12Z</time></trkpt><trkpt lat="45.994824365933816" lon="12.240014357634982"><ele>258.6666666666667</ele><time>2026-05-01T09:28:13Z</time></trkpt><trkpt lat="45.99476774231452" lon="12.23991295098769"><ele>255.0</ele><time>2026-05-01T09:28:14Z</time></trkpt><trkpt lat="45.99471308565075" lon="12.239811524020439"><ele>251.33333333333331</ele><time>2026-05-01T09:28:15Z</time></trkpt><trkpt lat="45.99466021783669" lon="12.23971402275531"><ele>247.66666666666666</ele><time>2026-05-01T09:28:16Z</time></trkpt><trkpt lat="45.994610304140366" lon="12.239626315515391"><ele>244.0</ele><time>2026-05-01T09:28:17Z</time></trkpt><trkpt lat="45.994564205928675" lon="12.239536854559367"><ele>244.0</ele><time>2026-05-01T09:28:18Z</time></trkpt><trkpt lat="45.994512451581905" lon="12.23944200679868"><ele>243.99999999999997</ele><time>2026-05-01T09:28:19Z</time></trkpt><trkpt lat="45.99445819342217" lon="12.239341224173435"><ele>243.99999999999997</ele><time>2026-05-01T09:28:20Z</time></trkpt><trkpt lat="45.99439981896096" lon="12.239231613423517"><ele>244.0</ele><time>2026-05-01T09:28:21Z</time></trkpt><trkpt lat="45.994337944183506" lon="12.239117283057864"><ele>244.0</ele><time>2026-05-01T09:28:22Z</time></trkpt><trkpt lat="45.99427563168613" lon="12.239001604159652"><ele>242.39999999999998</ele><time>2026-05-01T09:28:23Z</time></trkpt><trkpt lat="45.99421441296587" lon="12.23888693721261"><ele>240.79999999999998</ele><time>2026-05-01T09:28:24Z</time></trkpt><trkpt lat="45.99415366559291" lon="12.238775152605019"><ele>239.20000000000002</ele><time>2026-05-01T09:28:25Z</time></trkpt><trkpt lat="45.99409258002895" lon="12.238664710382437"><ele>237.60000000000002</ele><time>2026-05-01T09:28:26Z</time></trkpt><trkpt lat="45.994030159701225" lon="12.238548551226721"><ele>236.0</ele><time>2026-05-01T09:28:27Z</time></trkpt><trkpt lat="45.99396373877357" lon="12.238426973384032"><ele>236.0</ele><time>2026-05-01T09:28:28Z</time></trkpt><trkpt lat="45.99389376888558" lon="12.238299960699536"><ele>236.00000000000003</ele><time>2026-05-01T09:28:29Z</time></trkpt><trkpt lat="45.993827794647565" lon="12.238179761210485"><ele>236.00000000000003</ele><time>2026-05-01T09:28:30Z</time></trkpt><trkpt lat="45.99376696821589" lon="12.238069603575115"><ele>236.0</ele><time>2026-05-01T09:28:31Z</time></trkpt><trkpt lat="45.99370871865211" lon="12.237967498804004"><ele>236.0</ele><time>2026-05-01T09:28:32Z</time></trkpt><trkpt lat="45.993650212529076" lon="12.237870428021797"><ele>236.42857142857142</ele><time>2026-05-01T09:28:33Z</time></trkpt><trkpt lat="45.99359889502228" lon="12.23778903095007"><ele>236.8571428571429</ele><time>2026-05-01T09:28:34Z</time></trkpt><trkpt lat="45.99355341214794" lon="12.237712678577479"><ele>237.2857142857143</ele><time>2026-05-01T09:28:35Z</time></trkpt><trkpt lat="45.99350957017469" lon="12.237632962601976"><ele>237.71428571428572</ele><time>2026-05-01T09:28:36Z</time></trkpt><trkpt lat="45.99347119302709" lon="12.237560368906156"><ele>238.14285714285717</ele><time>2026-05-01T09:28:37Z</time></trkpt><trkpt lat="45.99342247584807" lon="12.237480808378372"><ele>238.5714285714286</ele><time>2026-05-01T09:28:39Z</time></trkpt><trkpt lat="45.99337514833372" lon="12.237393270802698"><ele>239.00000000000003</ele><time>2026-05-01T09:28:46Z</time></trkpt><trkpt lat="45.99332078779576" lon="12.237291612709226"><ele>239.00000000000003</ele><time>2026-05-01T09:28:48Z</time></trkpt><trkpt lat="45.993274860880206" lon="12.237210330165867"><ele>239.0</ele><time>2026-05-01T09:28:50Z</time></trkpt><trkpt lat="45.99317648117811" lon="12.237286991817047"><ele>239.0</ele><time>2026-05-01T09:28:53.999Z</time></trkpt><trkpt lat="45.99311501918435" lon="12.237345221030571"><ele>239.0</ele><time>2026-05-01T09:28:55.999Z</time></trkpt><trkpt lat="45.99305141262539" lon="12.237424796131755"><ele>239.00000000000003</ele><time>2026-05-01T09:28:58.999Z</time></trkpt><trkpt lat="45.992995400471166" lon="12.237494870205948"><ele>239.0</ele><time>2026-05-01T09:29:01.999Z</time></trkpt><trkpt lat="45.993026633187185" lon="12.237627587943228"><ele>239.42857142857144</ele><time>2026-05-01T09:29:05.999Z</time></trkpt><trkpt lat="45.9930812384999" lon="12.237682926027537"><ele>239.85714285714286</ele><time>2026-05-01T09:29:09.999Z</time></trkpt><trkpt lat="45.99314555932654" lon="12.237741411456975"><ele>240.28571428571428</ele><time>2026-05-01T09:29:13.999Z</time></trkpt><trkpt lat="45.993208463494085" lon="12.23782239257444"><ele>240.71428571428572</ele><time>2026-05-01T09:29:17.999Z</time></trkpt><trkpt lat="45.9932571904626" lon="12.23788367694"><ele>241.1428571428571</ele><time>2026-05-01T09:29:20.999Z</time></trkpt><trkpt lat="45.99330413633538" lon="12.237959688718643"><ele>241.57142857142856</ele><time>2026-05-01T09:29:24.999Z</time></trkpt><trkpt lat="45.9933578459324" lon="12.238007763074428"><ele>242.0</ele><time>2026-05-01T09:29:34.999Z</time></trkpt><trkpt lat="45.9934253633426" lon="12.238019890883859"><ele>242.0</ele><time>2026-05-01T09:32:37Z</time></trkpt><trkpt lat="45.99336030887851" lon="12.238000341822772"><ele>241.99999999999997</ele><time>2026-05-01T09:33:55.999Z</time></trkpt><trkpt lat="45.99330819852307" lon="12.237941225917805"><ele>242.0</ele><time>2026-05-01T09:34:02.999Z</time></trkpt><trkpt lat="45.99325089290756" lon="12.237888538938975"><ele>242.0</ele><time>2026-05-01T09:34:09.999Z</time></trkpt><trkpt lat="45.993198614104394" lon="12.237835598754357"><ele>241.99999999999997</ele><time>2026-05-01T09:34:17Z</time></trkpt><trkpt lat="45.99314690869523" lon="12.237780847453596"><ele>242.0</ele><time>2026-05-01T09:34:30Z</time></trkpt><trkpt lat="45.99308668092071" lon="12.237738510135546"><ele>242.0</ele><time>2026-05-01T09:35:10.999Z</time></trkpt><trkpt lat="45.993036971950836" lon="12.237671942629179"><ele>241.57142857142856</ele><time>2026-05-01T09:35:19.999Z</time></trkpt><trkpt lat="45.9929873780098" lon="12.237611222910326"><ele>241.1428571428571</ele><time>2026-05-01T09:35:30.999Z</time></trkpt><trkpt lat="45.99295555922373" lon="12.237527121625124"><ele>240.71428571428572</ele><time>2026-05-01T09:35:40.999Z</time></trkpt><trkpt lat="45.99289259392525" lon="12.23749008411187"><ele>240.28571428571428</ele><time>2026-05-01T09:35:50.999Z</time></trkpt><trkpt lat="45.99283559262087" lon="12.237442596342788"><ele>239.85714285714286</ele><time>2026-05-01T09:36:01.999Z</time></trkpt><trkpt lat="45.99277918761999" lon="12.237398683204127"><ele>239.42857142857144</ele><time>2026-05-01T09:36:11.999Z</time></trkpt><trkpt lat="45.992723121765486" lon="12.237345796332303"><ele>239.00000000000003</ele><time>2026-05-01T09:36:24Z</time></trkpt><trkpt lat="45.99267254523654" lon="12.237276243042706"><ele>239.00000000000003</ele><time>2026-05-01T09:36:34Z</time></trkpt><trkpt lat="45.99269141352363" lon="12.23718693541613"><ele>239.0</ele><time>2026-05-01T09:41:26.999Z</time></trkpt><trkpt lat="45.99264954869683" lon="12.23711586840412"><ele>239.0</ele><time>2026-05-01T09:44:28.999Z</time></trkpt><trkpt lat="45.99277184274463" lon="12.237144802144533"><ele>239.0</ele><time>2026-05-01T09:45:46.028Z</time></trkpt><trkpt lat="45.99281324860842" lon="12.237230125260956"><ele>239.00000000000003</ele><time>2026-05-01T09:45:49.03Z</time></trkpt><trkpt lat="45.99275100695582" lon="12.237145101453978"><ele>239.0</ele><time>2026-05-01T09:45:51.999Z</time></trkpt><trkpt lat="45.99268030697099" lon="12.23712493489518"><ele>239.00000000000003</ele><time>2026-05-01T09:45:54.999Z</time></trkpt><trkpt lat="45.992634063831815" lon="12.237189745125246"><ele>239.0</ele><time>2026-05-01T09:46:01.999Z</time></trkpt><trkpt lat="45.992626550211504" lon="12.237286996400428"><ele>239.00000000000003</ele><time>2026-05-01T09:46:12.999Z</time></trkpt><trkpt lat="45.9925626774991" lon="12.237274016965396"><ele>239.00000000000003</ele><time>2026-05-01T09:50:48.999Z</time></trkpt><trkpt lat="45.99264716409168" lon="12.237291421331426"><ele>239.0</ele><time>2026-05-01T10:01:01Z</time></trkpt><trkpt lat="45.99271113795127" lon="12.237335400682499"><ele>239.00000000000003</ele><time>2026-05-01T10:02:03Z</time></trkpt><trkpt lat="45.99277129264358" lon="12.237383312380215"><ele>239.00000000000003</ele><time>2026-05-01T10:02:09Z</time></trkpt><trkpt lat="45.99283619357255" lon="12.237429208133952"><ele>238.00000000000003</ele><time>2026-05-01T10:02:16Z</time></trkpt><trkpt lat="45.99289005677193" lon="12.237478870562722"><ele>237.0</ele><time>2026-05-01T10:02:23Z</time></trkpt><trkpt lat="45.99294861956203" lon="12.237523335814915"><ele>236.00000000000003</ele><time>2026-05-01T10:02:30Z</time></trkpt><trkpt lat="45.9930070808992" lon="12.237589345651953"><ele>235.00000000000003</ele><time>2026-05-01T10:02:36Z</time></trkpt><trkpt lat="45.99305796883077" lon="12.237651911886054"><ele>234.0</ele><time>2026-05-01T10:02:42Z</time></trkpt><trkpt lat="45.99310514994384" lon="12.237725426546112"><ele>233.00000000000003</ele><time>2026-05-01T10:02:49Z</time></trkpt><trkpt lat="45.99315936782233" lon="12.237789380915498"><ele>232.00000000000003</ele><time>2026-05-01T10:02:56Z</time></trkpt><trkpt lat="45.99321588954151" lon="12.237854479357058"><ele>232.00000000000003</ele><time>2026-05-01T10:03:03Z</time></trkpt><trkpt lat="45.99326929532696" lon="12.23791370973915"><ele>232.0</ele><time>2026-05-01T10:03:09Z</time></trkpt><trkpt lat="45.993326491368244" lon="12.237960464759974"><ele>232.00000000000003</ele><time>2026-05-01T10:03:15Z</time></trkpt><trkpt lat="45.99338678721604" lon="12.237991565204448"><ele>232.00000000000003</ele><time>2026-05-01T10:03:21Z</time></trkpt><trkpt lat="45.993463625584404" lon="12.238006105806429"><ele>232.0</ele><time>2026-05-01T10:08:21Z</time></trkpt><trkpt lat="45.993508618916" lon="12.237923151019546"><ele>232.00000000000003</ele><time>2026-05-01T10:08:25Z</time></trkpt><trkpt lat="45.9934685740945" lon="12.237830576710156"><ele>232.00000000000003</ele><time>2026-05-01T10:08:29Z</time></trkpt><trkpt lat="45.99340177239907" lon="12.237744656374574"><ele>231.99999999999997</ele><time>2026-05-01T10:08:32Z</time></trkpt><trkpt lat="45.9933433201344" lon="12.237662989934305"><ele>232.0</ele><time>2026-05-01T10:08:35Z</time></trkpt><trkpt lat="45.99328399018711" lon="12.237582732832642"><ele>232.0</ele><time>2026-05-01T10:08:39Z</time></trkpt><trkpt lat="45.99324355106451" lon="12.237498845273485"><ele>232.0</ele><time>2026-05-01T10:08:42Z</time></trkpt><trkpt lat="45.99317123001639" lon="12.23747586518608"><ele>231.99999999999997</ele><time>2026-05-01T10:09:02Z</time></trkpt><trkpt lat="45.99311151821615" lon="12.237553239506116"><ele>232.0</ele><time>2026-05-01T10:09:05Z</time></trkpt><trkpt lat="45.99304261486473" lon="12.237617655363149"><ele>231.99999999999997</ele><time>2026-05-01T10:09:10Z</time></trkpt><trkpt lat="45.993038590501406" lon="12.23745621422914"><ele>232.0</ele><time>2026-05-01T10:09:13Z</time></trkpt><trkpt lat="45.993099512862905" lon="12.237395573644097"><ele>232.0</ele><time>2026-05-01T10:09:14Z</time></trkpt><trkpt lat="45.993164969093144" lon="12.23733993203878"><ele>232.0</ele><time>2026-05-01T10:09:15Z</time></trkpt><trkpt lat="45.993237840051776" lon="12.237246532309324"><ele>231.99999999999997</ele><time>2026-05-01T10:09:17Z</time></trkpt><trkpt lat="45.9932670966484" lon="12.237165981547292"><ele>232.0</ele><time>2026-05-01T10:09:19Z</time></trkpt><trkpt lat="45.99321693930673" lon="12.237033195868237"><ele>233.39999999999998</ele><time>2026-05-01T10:09:21Z</time></trkpt><trkpt lat="45.993157696217125" lon="12.236949170511558"><ele>234.79999999999998</ele><time>2026-05-01T10:09:25Z</time></trkpt><trkpt lat="45.99309978344044" lon="12.236852278868259"><ele>236.2</ele><time>2026-05-01T10:09:27Z</time></trkpt><trkpt lat="45.993038693712506" lon="12.23674788617606"><ele>237.6</ele><time>2026-05-01T10:09:29Z</time></trkpt><trkpt lat="45.99297209974077" lon="12.236634559657567"><ele>239.0</ele><time>2026-05-01T10:09:31Z</time></trkpt><trkpt lat="45.992888558495075" lon="12.23648373512754"><ele>240.14285714285717</ele><time>2026-05-01T10:09:33Z</time></trkpt><trkpt lat="45.99283455855205" lon="12.236402546068712"><ele>241.28571428571428</ele><time>2026-05-01T10:09:34Z</time></trkpt><trkpt lat="45.99278287217842" lon="12.236319062832415"><ele>242.42857142857144</ele><time>2026-05-01T10:09:35Z</time></trkpt><trkpt lat="45.9927334905215" lon="12.236231724370397"><ele>243.57142857142858</ele><time>2026-05-01T10:09:36Z</time></trkpt><trkpt lat="45.99269127439684" lon="12.236147221516699"><ele>244.71428571428572</ele><time>2026-05-01T10:09:37Z</time></trkpt><trkpt lat="45.992653038648655" lon="12.236066906811466"><ele>245.85714285714286</ele><time>2026-05-01T10:09:38Z</time></trkpt><trkpt lat="45.99261068037433" lon="12.235977845242216"><ele>247.0</ele><time>2026-05-01T10:09:39Z</time></trkpt><trkpt lat="45.99256979690452" lon="12.235874356963151"><ele>246.99999999999997</ele><time>2026-05-01T10:09:40Z</time></trkpt><trkpt lat="45.99253402271565" lon="12.2357705710785"><ele>247.0</ele><time>2026-05-01T10:09:41Z</time></trkpt><trkpt lat="45.992495342304174" lon="12.235662073547822"><ele>247.0</ele><time>2026-05-01T10:09:42Z</time></trkpt><trkpt lat="45.992464312823024" lon="12.235547721156385"><ele>247.0</ele><time>2026-05-01T10:09:43Z</time></trkpt><trkpt lat="45.992437100560856" lon="12.235428247471551"><ele>246.99999999999997</ele><time>2026-05-01T10:09:44Z</time></trkpt><trkpt lat="45.992411155354134" lon="12.235311553654853"><ele>247.0</ele><time>2026-05-01T10:09:45Z</time></trkpt><trkpt lat="45.992390193508726" lon="12.23520667506272"><ele>247.0</ele><time>2026-05-01T10:09:46Z</time></trkpt><trkpt lat="45.99235488581488" lon="12.23502247220217"><ele>247.0</ele><time>2026-05-01T10:09:48Z</time></trkpt><trkpt lat="45.99232688959427" lon="12.234912036074553"><ele>247.0</ele><time>2026-05-01T10:09:49Z</time></trkpt><trkpt lat="45.992299341918766" lon="12.234798963325344"><ele>247.0</ele><time>2026-05-01T10:09:50Z</time></trkpt><trkpt lat="45.99227522398244" lon="12.234681824836063"><ele>247.0</ele><time>2026-05-01T10:09:51Z</time></trkpt><trkpt lat="45.99225242098243" lon="12.234557962058078"><ele>246.99999999999997</ele><time>2026-05-01T10:09:52Z</time></trkpt><trkpt lat="45.992225676137316" lon="12.234439065015465"><ele>247.0</ele><time>2026-05-01T10:09:53Z</time></trkpt><trkpt lat="45.99219613644035" lon="12.234312265319627"><ele>247.0</ele><time>2026-05-01T10:09:54Z</time></trkpt><trkpt lat="45.9921670433567" lon="12.234193200375861"><ele>247.0</ele><time>2026-05-01T10:09:55Z</time></trkpt><trkpt lat="45.99213939517461" lon="12.23407718390609"><ele>246.99999999999997</ele><time>2026-05-01T10:09:55.999Z</time></trkpt><trkpt lat="45.9921123004314" lon="12.233969577078003"><ele>247.0</ele><time>2026-05-01T10:09:57Z</time></trkpt><trkpt lat="45.99208423899934" lon="12.233873728318004"><ele>248.16666666666666</ele><time>2026-05-01T10:09:58Z</time></trkpt><trkpt lat="45.9920562678713" lon="12.233783638608658"><ele>249.33333333333331</ele><time>2026-05-01T10:09:59Z</time></trkpt><trkpt lat="45.992024912259154" lon="12.233685883329168"><ele>250.5</ele><time>2026-05-01T10:10:00Z</time></trkpt><trkpt lat="45.991992681840664" lon="12.2335908453479"><ele>251.66666666666669</ele><time>2026-05-01T10:10:01Z</time></trkpt><trkpt lat="45.991940257154994" lon="12.233450336891943"><ele>252.83333333333334</ele><time>2026-05-01T10:10:03Z</time></trkpt><trkpt lat="45.99189923398132" lon="12.233329664719099"><ele>254.0</ele><time>2026-05-01T10:10:05Z</time></trkpt><trkpt lat="45.99186207117375" lon="12.233222047126072"><ele>255.16666666666669</ele><time>2026-05-01T10:10:07Z</time></trkpt><trkpt lat="45.99182836742471" lon="12.233132167498512"><ele>256.33333333333337</ele><time>2026-05-01T10:10:09Z</time></trkpt><trkpt lat="45.991784641279835" lon="12.233012746412825"><ele>257.5</ele><time>2026-05-01T10:10:11Z</time></trkpt><trkpt lat="45.99173400391677" lon="12.232855210421482"><ele>258.6666666666667</ele><time>2026-05-01T10:10:13Z</time></trkpt><trkpt lat="45.991699737229744" lon="12.232759441384868"><ele>259.8333333333333</ele><time>2026-05-01T10:10:14Z</time></trkpt><trkpt lat="45.99166520054245" lon="12.232655898481578"><ele>261.0</ele><time>2026-05-01T10:10:15Z</time></trkpt><trkpt lat="45.99162735342312" lon="12.232546446499876"><ele>258.40000000000003</ele><time>2026-05-01T10:10:16Z</time></trkpt><trkpt lat="45.991584916636" lon="12.232424008219004"><ele>255.8</ele><time>2026-05-01T10:10:17Z</time></trkpt><trkpt lat="45.991540174649984" lon="12.232298264267818"><ele>253.20000000000002</ele><time>2026-05-01T10:10:18Z</time></trkpt><trkpt lat="45.99148796285798" lon="12.232170184880927"><ele>250.60000000000002</ele><time>2026-05-01T10:10:19Z</time></trkpt><trkpt lat="45.991432170032205" lon="12.232039452701283"><ele>248.0</ele><time>2026-05-01T10:10:20Z</time></trkpt><trkpt lat="45.99137633431891" lon="12.231911389684784"><ele>248.0</ele><time>2026-05-01T10:10:21Z</time></trkpt><trkpt lat="45.99130692766092" lon="12.23178776919148"><ele>248.0</ele><time>2026-05-01T10:10:22Z</time></trkpt><trkpt lat="45.99122366165332" lon="12.23165865718107"><ele>248.0</ele><time>2026-05-01T10:10:23Z</time></trkpt><trkpt lat="45.99113934454618" lon="12.231531702909516"><ele>248.0</ele><time>2026-05-01T10:10:24Z</time></trkpt><trkpt lat="45.991063448285395" lon="12.231418360453068"><ele>248.2</ele><time>2026-05-01T10:10:25Z</time></trkpt><trkpt lat="45.99098364008936" lon="12.231294916277445"><ele>248.4</ele><time>2026-05-01T10:10:26Z</time></trkpt><trkpt lat="45.99091366148872" lon="12.231183047285013"><ele>248.59999999999997</ele><time>2026-05-01T10:10:27Z</time></trkpt><trkpt lat="45.990845532098696" lon="12.231070292176812"><ele>248.79999999999998</ele><time>2026-05-01T10:10:28Z</time></trkpt><trkpt lat="45.99077932694206" lon="12.230949120844766"><ele>249.0</ele><time>2026-05-01T10:10:29Z</time></trkpt><trkpt lat="45.990715022262556" lon="12.230815756650678"><ele>246.5</ele><time>2026-05-01T10:10:30Z</time></trkpt><trkpt lat="45.99065769834646" lon="12.23067303213795"><ele>244.0</ele><time>2026-05-01T10:10:31Z</time></trkpt><trkpt lat="45.990601589314046" lon="12.230524344549007"><ele>241.5</ele><time>2026-05-01T10:10:32Z</time></trkpt><trkpt lat="45.990544761151135" lon="12.230375376649507"><ele>239.0</ele><time>2026-05-01T10:10:33Z</time></trkpt><trkpt lat="45.99048866758564" lon="12.230229389547077"><ele>238.5</ele><time>2026-05-01T10:10:34Z</time></trkpt><trkpt lat="45.99043326648963" lon="12.230085017204923"><ele>238.0</ele><time>2026-05-01T10:10:35Z</time></trkpt><trkpt lat="45.99037770616939" lon="12.229942026761615"><ele>237.5</ele><time>2026-05-01T10:10:36Z</time></trkpt><trkpt lat="45.99032487629253" lon="12.229799161456153"><ele>237.0</ele><time>2026-05-01T10:10:37Z</time></trkpt><trkpt lat="45.990271437235045" lon="12.229653122283016"><ele>237.0</ele><time>2026-05-01T10:10:38Z</time></trkpt><trkpt lat="45.99021681226224" lon="12.229514488752763"><ele>237.0</ele><time>2026-05-01T10:10:39Z</time></trkpt><trkpt lat="45.99016600184884" lon="12.229386401957788"><ele>237.0</ele><time>2026-05-01T10:10:40Z</time></trkpt><trkpt lat="45.99011687142777" lon="12.229255271499792"><ele>237.0</ele><time>2026-05-01T10:10:41Z</time></trkpt><trkpt lat="45.99006776604384" lon="12.229123733300103"><ele>237.0</ele><time>2026-05-01T10:10:42Z</time></trkpt><trkpt lat="45.99001824261307" lon="12.228989821763035"><ele>236.25</ele><time>2026-05-01T10:10:43Z</time></trkpt><trkpt lat="45.989963006042665" lon="12.228852018436598"><ele>235.5</ele><time>2026-05-01T10:10:44Z</time></trkpt><trkpt lat="45.989904603252235" lon="12.228709062602393"><ele>234.75</ele><time>2026-05-01T10:10:45Z</time></trkpt><trkpt lat="45.989846135406694" lon="12.228560903729415"><ele>234.0</ele><time>2026-05-01T10:10:46Z</time></trkpt><trkpt lat="45.98978491674242" lon="12.22839845949747"><ele>234.0</ele><time>2026-05-01T10:10:47Z</time></trkpt><trkpt lat="45.98971158984106" lon="12.22821198286929"><ele>234.0</ele><time>2026-05-01T10:10:48Z</time></trkpt><trkpt lat="45.989641186419675" lon="12.228023544376496"><ele>234.0</ele><time>2026-05-01T10:10:49Z</time></trkpt><trkpt lat="45.98956869480774" lon="12.22783297857285"><ele>234.0</ele><time>2026-05-01T10:10:50Z</time></trkpt><trkpt lat="45.989497808209585" lon="12.227643872941528"><ele>235.0</ele><time>2026-05-01T10:10:51Z</time></trkpt><trkpt lat="45.98942668351575" lon="12.227458585445293"><ele>236.0</ele><time>2026-05-01T10:10:52Z</time></trkpt><trkpt lat="45.98935427453176" lon="12.227273071321566"><ele>237.0</ele><time>2026-05-01T10:10:53Z</time></trkpt><trkpt lat="45.98928151141698" lon="12.227087824637115"><ele>238.0</ele><time>2026-05-01T10:10:54Z</time></trkpt><trkpt lat="45.98921122908566" lon="12.226896011735048"><ele>237.66666666666666</ele><time>2026-05-01T10:10:55Z</time></trkpt><trkpt lat="45.98914661763632" lon="12.226703555453591"><ele>237.33333333333331</ele><time>2026-05-01T10:10:56Z</time></trkpt><trkpt lat="45.98908083606305" lon="12.226508215805472"><ele>237.0</ele><time>2026-05-01T10:10:57Z</time></trkpt><trkpt lat="45.98902246228615" lon="12.226303847199182"><ele>237.0</ele><time>2026-05-01T10:10:58Z</time></trkpt><trkpt lat="45.9889682511147" lon="12.226093829304048"><ele>237.0</ele><time>2026-05-01T10:10:59Z</time></trkpt><trkpt lat="45.98893275040196" lon="12.225865033326107"><ele>237.0</ele><time>2026-05-01T10:11:00Z</time></trkpt><trkpt lat="45.98887548775221" lon="12.225631026388427"><ele>239.0</ele><time>2026-05-01T10:11:01Z</time></trkpt><trkpt lat="45.98883997788649" lon="12.225363135588006"><ele>241.0</ele><time>2026-05-01T10:11:02Z</time></trkpt><trkpt lat="45.98880324353417" lon="12.225059445493747"><ele>243.0</ele><time>2026-05-01T10:11:03Z</time></trkpt><trkpt lat="45.988758590129414" lon="12.224659914489791"><ele>244.0</ele><time>2026-05-01T10:11:04Z</time></trkpt><trkpt lat="45.98872212019442" lon="12.224288894471387"><ele>245.0</ele><time>2026-05-01T10:11:05Z</time></trkpt><trkpt lat="45.98868609926714" lon="12.2239538557164"><ele>246.33333333333334</ele><time>2026-05-01T10:11:06Z</time></trkpt><trkpt lat="45.98865610813649" lon="12.223656528450165"><ele>247.66666666666669</ele><time>2026-05-01T10:11:07Z</time></trkpt><trkpt lat="45.98862681249701" lon="12.223359072947055"><ele>249.0</ele><time>2026-05-01T10:11:08Z</time></trkpt><trkpt lat="45.98859731175343" lon="12.2230737114465"><ele>250.33333333333331</ele><time>2026-05-01T10:11:09Z</time></trkpt><trkpt lat="45.98857361444484" lon="12.222822154457349"><ele>251.66666666666666</ele><time>2026-05-01T10:11:10Z</time></trkpt><trkpt lat="45.98854815741307" lon="12.222588247128526"><ele>253.0</ele><time>2026-05-01T10:11:11Z</time></trkpt><trkpt lat="45.988523898060706" lon="12.222365667148006"><ele>255.0</ele><time>2026-05-01T10:11:12Z</time></trkpt><trkpt lat="45.988489203351186" lon="12.222143050927647"><ele>257.0</ele><time>2026-05-01T10:11:13Z</time></trkpt><trkpt lat="45.98842861032046" lon="12.221925469679839"><ele>259.0</ele><time>2026-05-01T10:11:14Z</time></trkpt><trkpt lat="45.98835614847412" lon="12.221711503599357"><ele>254.0</ele><time>2026-05-01T10:11:15Z</time></trkpt><trkpt lat="45.98826242155103" lon="12.221506812602426"><ele>249.0</ele><time>2026-05-01T10:11:16Z</time></trkpt><trkpt lat="45.98815457519966" lon="12.221299748510948"><ele>244.0</ele><time>2026-05-01T10:11:17Z</time></trkpt><trkpt lat="45.9880477968506" lon="12.221090002698366"><ele>244.0</ele><time>2026-05-01T10:11:18Z</time></trkpt><trkpt lat="45.98794483335401" lon="12.220891526651867"><ele>244.0</ele><time>2026-05-01T10:11:19Z</time></trkpt><trkpt lat="45.98784704893006" lon="12.22069766364506"><ele>244.0</ele><time>2026-05-01T10:11:20Z</time></trkpt><trkpt lat="45.98775183211221" lon="12.22050995520605"><ele>243.0</ele><time>2026-05-01T10:11:21Z</time></trkpt><trkpt lat="45.987661356686765" lon="12.220322868807429"><ele>242.0</ele><time>2026-05-01T10:11:22Z</time></trkpt><trkpt lat="45.987574697108506" lon="12.220140947689325"><ele>241.0</ele><time>2026-05-01T10:11:23Z</time></trkpt><trkpt lat="45.98749505494153" lon="12.219967153292925"><ele>242.0</ele><time>2026-05-01T10:11:24Z</time></trkpt><trkpt lat="45.98742080294468" lon="12.219812810513922"><ele>243.0</ele><time>2026-05-01T10:11:25Z</time></trkpt><trkpt lat="45.98735325506372" lon="12.219679400410469"><ele>244.0</ele><time>2026-05-01T10:11:26Z</time></trkpt><trkpt lat="45.98728161072064" lon="12.219547890457536"><ele>245.0</ele><time>2026-05-01T10:11:27Z</time></trkpt><trkpt lat="45.987206194525136" lon="12.21941139010862"><ele>245.0</ele><time>2026-05-01T10:11:28Z</time></trkpt><trkpt lat="45.987122417055716" lon="12.219283360414211"><ele>245.0</ele><time>2026-05-01T10:11:29Z</time></trkpt><trkpt lat="45.98703125531735" lon="12.219159947849509"><ele>245.0</ele><time>2026-05-01T10:11:30Z</time></trkpt><trkpt lat="45.98694360250933" lon="12.219030042817241"><ele>245.0</ele><time>2026-05-01T10:11:31Z</time></trkpt><trkpt lat="45.98687391045239" lon="12.218881819794309"><ele>245.5</ele><time>2026-05-01T10:11:32Z</time></trkpt><trkpt lat="45.98681182969832" lon="12.218727845816188"><ele>246.0</ele><time>2026-05-01T10:11:33Z</time></trkpt><trkpt lat="45.98675394049811" lon="12.218566485687914"><ele>246.5</ele><time>2026-05-01T10:11:34Z</time></trkpt><trkpt lat="45.986700595437014" lon="12.218393348422698"><ele>247.0</ele><time>2026-05-01T10:11:35Z</time></trkpt><trkpt lat="45.98664287770305" lon="12.218216164183174"><ele>245.0</ele><time>2026-05-01T10:11:36Z</time></trkpt><trkpt lat="45.986585202282235" lon="12.218041704913801"><ele>243.0</ele><time>2026-05-01T10:11:37Z</time></trkpt><trkpt lat="45.98652539620032" lon="12.217862827464918"><ele>241.0</ele><time>2026-05-01T10:11:38Z</time></trkpt><trkpt lat="45.98646641745333" lon="12.217678186430367"><ele>239.0</ele><time>2026-05-01T10:11:39Z</time></trkpt><trkpt lat="45.98641018398773" lon="12.217494820012886"><ele>239.25</ele><time>2026-05-01T10:11:40Z</time></trkpt><trkpt lat="45.986380310246965" lon="12.217297696322351"><ele>239.5</ele><time>2026-05-01T10:11:41Z</time></trkpt><trkpt lat="45.98634419138696" lon="12.217106322967652"><ele>239.75</ele><time>2026-05-01T10:11:42Z</time></trkpt><trkpt lat="45.986301720184564" lon="12.216915705196156"><ele>240.0</ele><time>2026-05-01T10:11:43Z</time></trkpt><trkpt lat="45.98627581840415" lon="12.216721809244177"><ele>240.0</ele><time>2026-05-01T10:11:44Z</time></trkpt><trkpt lat="45.9862473259148" lon="12.216532290819494"><ele>240.0</ele><time>2026-05-01T10:11:45Z</time></trkpt><trkpt lat="45.98621796948915" lon="12.216341954644186"><ele>240.0</ele><time>2026-05-01T10:11:46Z</time></trkpt><trkpt lat="45.98618758633098" lon="12.21614701217226"><ele>240.0</ele><time>2026-05-01T10:11:47Z</time></trkpt><trkpt lat="45.98616062737337" lon="12.215950430392093"><ele>240.0</ele><time>2026-05-01T10:11:48Z</time></trkpt><trkpt lat="45.98613132947573" lon="12.215752659505888"><ele>240.0</ele><time>2026-05-01T10:11:49Z</time></trkpt><trkpt lat="45.986102294934" lon="12.2155500184683"><ele>240.0</ele><time>2026-05-01T10:11:50Z</time></trkpt><trkpt lat="45.986071774412274" lon="12.21534536807294"><ele>240.0</ele><time>2026-05-01T10:11:51Z</time></trkpt><trkpt lat="45.98603657213605" lon="12.21514010005334"><ele>240.25</ele><time>2026-05-01T10:11:52Z</time></trkpt><trkpt lat="45.98599450929977" lon="12.214937130704223"><ele>240.5</ele><time>2026-05-01T10:11:53Z</time></trkpt><trkpt lat="45.98593836836646" lon="12.214741348880729"><ele>240.75</ele><time>2026-05-01T10:11:54Z</time></trkpt><trkpt lat="45.985861796662824" lon="12.214553097146677"><ele>241.0</ele><time>2026-05-01T10:11:55Z</time></trkpt><trkpt lat="45.98577701605034" lon="12.214370899832646"><ele>240.0</ele><time>2026-05-01T10:11:56Z</time></trkpt><trkpt lat="45.98568525375767" lon="12.214191803754236"><ele>239.0</ele><time>2026-05-01T10:11:57Z</time></trkpt><trkpt lat="45.98559292367019" lon="12.214008288487156"><ele>238.0</ele><time>2026-05-01T10:11:57.999Z</time></trkpt><trkpt lat="45.985498979064204" lon="12.213823967609033"><ele>238.0</ele><time>2026-05-01T10:11:58.999Z</time></trkpt><trkpt lat="45.98540845017871" lon="12.213636725643784"><ele>238.0</ele><time>2026-05-01T10:11:59.999Z</time></trkpt><trkpt lat="45.98531635961554" lon="12.213453750018656"><ele>238.0</ele><time>2026-05-01T10:12:00.999Z</time></trkpt><trkpt lat="45.98522404293921" lon="12.213269015980018"><ele>238.33333333333331</ele><time>2026-05-01T10:12:02Z</time></trkpt><trkpt lat="45.98512822796442" lon="12.213079968463312"><ele>238.66666666666669</ele><time>2026-05-01T10:12:03Z</time></trkpt><trkpt lat="45.98503036618234" lon="12.212883494556113"><ele>239.0</ele><time>2026-05-01T10:12:04Z</time></trkpt><trkpt lat="45.9849288709351" lon="12.21268058355873"><ele>237.66666666666669</ele><time>2026-05-01T10:12:05Z</time></trkpt><trkpt lat="45.984824698343154" lon="12.21247193848494"><ele>236.33333333333331</ele><time>2026-05-01T10:12:06Z</time></trkpt><trkpt lat="45.98471929904428" lon="12.212258888919422"><ele>235.0</ele><time>2026-05-01T10:12:07Z</time></trkpt><trkpt lat="45.984615462187676" lon="12.212045650993788"><ele>235.0</ele><time>2026-05-01T10:12:08Z</time></trkpt><trkpt lat="45.98451127095231" lon="12.211837895543164"><ele>235.0</ele><time>2026-05-01T10:12:09Z</time></trkpt><trkpt lat="45.98441471004323" lon="12.211645053756651"><ele>235.0</ele><time>2026-05-01T10:12:10Z</time></trkpt><trkpt lat="45.984327895970715" lon="12.211471727941975"><ele>234.25</ele><time>2026-05-01T10:12:11Z</time></trkpt><trkpt lat="45.98424581945156" lon="12.211305405553594"><ele>233.5</ele><time>2026-05-01T10:12:12Z</time></trkpt><trkpt lat="45.9841716910189" lon="12.211153198814246"><ele>232.75</ele><time>2026-05-01T10:12:13Z</time></trkpt><trkpt lat="45.984118225780094" lon="12.210998401285154"><ele>232.0</ele><time>2026-05-01T10:12:14Z</time></trkpt><trkpt lat="45.9840499268372" lon="12.210853684939062"><ele>231.99999999999997</ele><time>2026-05-01T10:12:15Z</time></trkpt><trkpt lat="45.983961585192795" lon="12.210740249567195"><ele>232.0</ele><time>2026-05-01T10:12:16Z</time></trkpt><trkpt lat="45.98390125331679" lon="12.210638902685169"><ele>232.0</ele><time>2026-05-01T10:12:17Z</time></trkpt><trkpt lat="45.98384115448216" lon="12.210558369953402"><ele>232.0</ele><time>2026-05-01T10:12:18Z</time></trkpt><trkpt lat="45.983786070164264" lon="12.210503806656066"><ele>231.99999999999997</ele><time>2026-05-01T10:12:19Z</time></trkpt><trkpt lat="45.9837283885274" lon="12.2104550653621"><ele>232.0</ele><time>2026-05-01T10:12:20Z</time></trkpt><trkpt lat="45.98367081731449" lon="12.21039120467097"><ele>232.39999999999998</ele><time>2026-05-01T10:12:21Z</time></trkpt><trkpt lat="45.9836237759911" lon="12.210294242750571"><ele>232.79999999999998</ele><time>2026-05-01T10:12:22Z</time></trkpt><trkpt lat="45.98359338982212" lon="12.21017231938818"><ele>233.2</ele><time>2026-05-01T10:12:23Z</time></trkpt><trkpt lat="45.98357478474153" lon="12.210015954560303"><ele>233.6</ele><time>2026-05-01T10:12:24Z</time></trkpt><trkpt lat="45.98352437074144" lon="12.209854512885894"><ele>234.0</ele><time>2026-05-01T10:12:25Z</time></trkpt><trkpt lat="45.98345093232287" lon="12.20969681277397"><ele>234.5</ele><time>2026-05-01T10:12:26Z</time></trkpt><trkpt lat="45.983392840343534" lon="12.209554760479529"><ele>235.0</ele><time>2026-05-01T10:12:27Z</time></trkpt><trkpt lat="45.98334052361467" lon="12.209406583288407"><ele>235.5</ele><time>2026-05-01T10:12:28Z</time></trkpt><trkpt lat="45.9832868938401" lon="12.209253717029775"><ele>236.0</ele><time>2026-05-01T10:12:29Z</time></trkpt><trkpt lat="45.98323828815938" lon="12.209093667611107"><ele>235.25</ele><time>2026-05-01T10:12:30Z</time></trkpt><trkpt lat="45.98319259231518" lon="12.208928536723795"><ele>234.5</ele><time>2026-05-01T10:12:31Z</time></trkpt><trkpt lat="45.98314167133382" lon="12.208761770162791"><ele>233.75</ele><time>2026-05-01T10:12:32Z</time></trkpt><trkpt lat="45.983091670405365" lon="12.208591960037356"><ele>233.0</ele><time>2026-05-01T10:12:33Z</time></trkpt><trkpt lat="45.983044601989626" lon="12.208418950364052"><ele>233.0</ele><time>2026-05-01T10:12:34Z</time></trkpt><trkpt lat="45.98299331726936" lon="12.208238188837822"><ele>233.0</ele><time>2026-05-01T10:12:35Z</time></trkpt><trkpt lat="45.982940610725635" lon="12.20804649942489"><ele>233.0</ele><time>2026-05-01T10:12:36Z</time></trkpt><trkpt lat="45.98288466675044" lon="12.207843830705992"><ele>233.0</ele><time>2026-05-01T10:12:37Z</time></trkpt><trkpt lat="45.982828373012474" lon="12.207639535459847"><ele>234.0</ele><time>2026-05-01T10:12:38Z</time></trkpt><trkpt lat="45.9827719603441" lon="12.207434289592666"><ele>235.0</ele><time>2026-05-01T10:12:39Z</time></trkpt><trkpt lat="45.98271413320814" lon="12.207231455345962"><ele>236.0</ele><time>2026-05-01T10:12:40Z</time></trkpt><trkpt lat="45.98265447621987" lon="12.207024614996794"><ele>236.0</ele><time>2026-05-01T10:12:41Z</time></trkpt><trkpt lat="45.982594604250956" lon="12.206807124427622"><ele>236.0</ele><time>2026-05-01T10:12:42Z</time></trkpt><trkpt lat="45.98253301271185" lon="12.20658068237834"><ele>236.0</ele><time>2026-05-01T10:12:43Z</time></trkpt><trkpt lat="45.982470855068755" lon="12.206357828516628"><ele>235.33333333333334</ele><time>2026-05-01T10:12:44Z</time></trkpt><trkpt lat="45.98241062611008" lon="12.206142491321673"><ele>234.66666666666669</ele><time>2026-05-01T10:12:45Z</time></trkpt><trkpt lat="45.98235096293601" lon="12.205927302879873"><ele>234.0</ele><time>2026-05-01T10:12:46Z</time></trkpt><trkpt lat="45.98229122384103" lon="12.205713579841605"><ele>234.66666666666669</ele><time>2026-05-01T10:12:47Z</time></trkpt><trkpt lat="45.9822298123226" lon="12.205498224635415"><ele>235.33333333333334</ele><time>2026-05-01T10:12:48Z</time></trkpt><trkpt lat="45.982166914365" lon="12.205277844605757"><ele>236.0</ele><time>2026-05-01T10:12:49Z</time></trkpt><trkpt lat="45.98210450454953" lon="12.205053822547557"><ele>236.0</ele><time>2026-05-01T10:12:50Z</time></trkpt><trkpt lat="45.98204275453804" lon="12.204830877059829"><ele>236.0</ele><time>2026-05-01T10:12:51Z</time></trkpt><trkpt lat="45.981979890386015" lon="12.204600787539738"><ele>236.0</ele><time>2026-05-01T10:12:52Z</time></trkpt><trkpt lat="45.98191344674324" lon="12.204359372322033"><ele>237.0</ele><time>2026-05-01T10:12:53Z</time></trkpt><trkpt lat="45.98184560365483" lon="12.204109809253605"><ele>238.0</ele><time>2026-05-01T10:12:54Z</time></trkpt><trkpt lat="45.981778194131984" lon="12.203859810558878"><ele>239.0</ele><time>2026-05-01T10:12:55Z</time></trkpt><trkpt lat="45.98170972999886" lon="12.203609484517226"><ele>237.0</ele><time>2026-05-01T10:12:56Z</time></trkpt><trkpt lat="45.9816388019652" lon="12.203359577590113"><ele>235.0</ele><time>2026-05-01T10:12:57Z</time></trkpt><trkpt lat="45.9815683054931" lon="12.20311244747493"><ele>233.0</ele><time>2026-05-01T10:12:58Z</time></trkpt><trkpt lat="45.98150002691465" lon="12.202870850773206"><ele>233.0</ele><time>2026-05-01T10:12:59Z</time></trkpt><trkpt lat="45.981431523699214" lon="12.202632009252715"><ele>233.0</ele><time>2026-05-01T10:13:00Z</time></trkpt><trkpt lat="45.98136234270072" lon="12.202398543901575"><ele>233.0</ele><time>2026-05-01T10:13:01Z</time></trkpt><trkpt lat="45.981292053609" lon="12.202169892850089"><ele>233.0</ele><time>2026-05-01T10:13:02Z</time></trkpt><trkpt lat="45.981212853139056" lon="12.201948949221386"><ele>233.0</ele><time>2026-05-01T10:13:03Z</time></trkpt><trkpt lat="45.981123251558344" lon="12.201731354035942"><ele>233.0</ele><time>2026-05-01T10:13:04Z</time></trkpt><trkpt lat="45.981026087127375" lon="12.201504128706079"><ele>231.33333333333334</ele><time>2026-05-01T10:13:05Z</time></trkpt><trkpt lat="45.98092145614519" lon="12.201268163071205"><ele>229.66666666666669</ele><time>2026-05-01T10:13:06Z</time></trkpt><trkpt lat="45.98081275836124" lon="12.20102167122392"><ele>228.0</ele><time>2026-05-01T10:13:07Z</time></trkpt><trkpt lat="45.98070567020586" lon="12.20077676349398"><ele>229.33333333333331</ele><time>2026-05-01T10:13:08Z</time></trkpt><trkpt lat="45.9805975783276" lon="12.200534178532958"><ele>230.66666666666666</ele><time>2026-05-01T10:13:09Z</time></trkpt><trkpt lat="45.98049059486339" lon="12.20029130066976"><ele>232.0</ele><time>2026-05-01T10:13:10Z</time></trkpt><trkpt lat="45.98038055877812" lon="12.20004699146545"><ele>233.0</ele><time>2026-05-01T10:13:11Z</time></trkpt><trkpt lat="45.98027845567814" lon="12.199817702496123"><ele>234.0</ele><time>2026-05-01T10:13:12Z</time></trkpt><trkpt lat="45.98019942805907" lon="12.199597926060736"><ele>235.0</ele><time>2026-05-01T10:13:13Z</time></trkpt><trkpt lat="45.98009818636922" lon="12.199416502650148"><ele>235.0</ele><time>2026-05-01T10:13:14Z</time></trkpt><trkpt lat="45.98001841063921" lon="12.199230394834567"><ele>235.0</ele><time>2026-05-01T10:13:15Z</time></trkpt><trkpt lat="45.9799414485498" lon="12.199057922392566"><ele>235.0</ele><time>2026-05-01T10:13:16Z</time></trkpt><trkpt lat="45.97986352093729" lon="12.198878681635145"><ele>235.0</ele><time>2026-05-01T10:13:17Z</time></trkpt><trkpt lat="45.97978036082039" lon="12.198693410435675"><ele>233.75</ele><time>2026-05-01T10:13:18Z</time></trkpt><trkpt lat="45.97969783637415" lon="12.198507912946724"><ele>232.5</ele><time>2026-05-01T10:13:19Z</time></trkpt><trkpt lat="45.97961799843052" lon="12.198328350083052"><ele>231.25</ele><time>2026-05-01T10:13:20Z</time></trkpt><trkpt lat="45.97954148714205" lon="12.198157185110457"><ele>230.0</ele><time>2026-05-01T10:13:21Z</time></trkpt><trkpt lat="45.979467727923534" lon="12.197988460423693"><ele>230.0</ele><time>2026-05-01T10:13:22Z</time></trkpt><trkpt lat="45.97939623879568" lon="12.19781861770401"><ele>230.0</ele><time>2026-05-01T10:13:23Z</time></trkpt><trkpt lat="45.97931883123919" lon="12.197643278686707"><ele>230.0</ele><time>2026-05-01T10:13:24Z</time></trkpt><trkpt lat="45.97923912971649" lon="12.197464033116871"><ele>230.0</ele><time>2026-05-01T10:13:25Z</time></trkpt><trkpt lat="45.97916113875838" lon="12.197285661816158"><ele>229.0</ele><time>2026-05-01T10:13:26Z</time></trkpt><trkpt lat="45.979086485431985" lon="12.197117531402753"><ele>228.0</ele><time>2026-05-01T10:13:27Z</time></trkpt><trkpt lat="45.97901266028903" lon="12.196949565959944"><ele>227.0</ele><time>2026-05-01T10:13:28Z</time></trkpt><trkpt lat="45.97895446152395" lon="12.196764497992227"><ele>226.0</ele><time>2026-05-01T10:13:29Z</time></trkpt><trkpt lat="45.97888476698649" lon="12.196590549121629"><ele>226.25</ele><time>2026-05-01T10:13:30Z</time></trkpt><trkpt lat="45.97880374027957" lon="12.196427817592935"><ele>226.5</ele><time>2026-05-01T10:13:31Z</time></trkpt><trkpt lat="45.97874411020438" lon="12.196246044402278"><ele>226.75</ele><time>2026-05-01T10:13:32Z</time></trkpt><trkpt lat="45.97868444164274" lon="12.196066208280635"><ele>227.0</ele><time>2026-05-01T10:13:33Z</time></trkpt><trkpt lat="45.97862918654673" lon="12.195897403523032"><ele>227.0</ele><time>2026-05-01T10:13:34Z</time></trkpt><trkpt lat="45.97857719517049" lon="12.195733602025268"><ele>227.0</ele><time>2026-05-01T10:13:35Z</time></trkpt><trkpt lat="45.97852702464095" lon="12.19556619338564"><ele>227.0</ele><time>2026-05-01T10:13:36Z</time></trkpt><trkpt lat="45.97847654527835" lon="12.195395051610406"><ele>227.0</ele><time>2026-05-01T10:13:37Z</time></trkpt><trkpt lat="45.97842387922728" lon="12.19521859911212"><ele>227.25</ele><time>2026-05-01T10:13:38Z</time></trkpt><trkpt lat="45.97836655222727" lon="12.195032640270798"><ele>227.5</ele><time>2026-05-01T10:13:39Z</time></trkpt><trkpt lat="45.978310828626356" lon="12.19483879252355"><ele>227.75</ele><time>2026-05-01T10:13:40Z</time></trkpt><trkpt lat="45.97825108192901" lon="12.194638769467934"><ele>228.0</ele><time>2026-05-01T10:13:41Z</time></trkpt><trkpt lat="45.97818878640126" lon="12.194428714882736"><ele>228.66666666666669</ele><time>2026-05-01T10:13:42Z</time></trkpt><trkpt lat="45.97812343905937" lon="12.194209908193388"><ele>229.33333333333334</ele><time>2026-05-01T10:13:43Z</time></trkpt><trkpt lat="45.97805696540807" lon="12.193989059472749"><ele>230.0</ele><time>2026-05-01T10:13:44Z</time></trkpt><trkpt lat="45.97799223835096" lon="12.193767998423246"><ele>230.33333333333334</ele><time>2026-05-01T10:13:45Z</time></trkpt><trkpt lat="45.97792575049797" lon="12.193549083274458"><ele>230.66666666666669</ele><time>2026-05-01T10:13:46Z</time></trkpt><trkpt lat="45.977861174685884" lon="12.193334411509163"><ele>231.0</ele><time>2026-05-01T10:13:47Z</time></trkpt><trkpt lat="45.977796324872834" lon="12.193121892880871"><ele>231.33333333333331</ele><time>2026-05-01T10:13:48Z</time></trkpt><trkpt lat="45.97773347978595" lon="12.192908436655339"><ele>231.66666666666666</ele><time>2026-05-01T10:13:49Z</time></trkpt><trkpt lat="45.977668802476906" lon="12.192693315140543"><ele>232.0</ele><time>2026-05-01T10:13:50Z</time></trkpt><trkpt lat="45.97760484346107" lon="12.192480273137924"><ele>233.0</ele><time>2026-05-01T10:13:51Z</time></trkpt><trkpt lat="45.977541792897654" lon="12.192269603023323"><ele>234.0</ele><time>2026-05-01T10:13:52Z</time></trkpt><trkpt lat="45.977475451877694" lon="12.192062356515423"><ele>235.0</ele><time>2026-05-01T10:13:53Z</time></trkpt><trkpt lat="45.977415138030025" lon="12.191854133843519"><ele>232.66666666666666</ele><time>2026-05-01T10:13:54Z</time></trkpt><trkpt lat="45.97735306448687" lon="12.191652523894705"><ele>230.33333333333331</ele><time>2026-05-01T10:13:55Z</time></trkpt><trkpt lat="45.977293276686616" lon="12.191453691854662"><ele>228.0</ele><time>2026-05-01T10:13:56Z</time></trkpt><trkpt lat="45.97723362720378" lon="12.191258338690123"><ele>227.5</ele><time>2026-05-01T10:13:57Z</time></trkpt><trkpt lat="45.977175080092174" lon="12.191067922835744"><ele>227.0</ele><time>2026-05-01T10:13:58Z</time></trkpt><trkpt lat="45.97711876886635" lon="12.19088386273735"><ele>226.5</ele><time>2026-05-01T10:13:58.999Z</time></trkpt><trkpt lat="45.977064147038234" lon="12.190705445388371"><ele>226.0</ele><time>2026-05-01T10:13:59.999Z</time></trkpt><trkpt lat="45.97703010978454" lon="12.190533237297013"><ele>227.20000000000002</ele><time>2026-05-01T10:14:00.999Z</time></trkpt><trkpt lat="45.976986232107" lon="12.190384006654746"><ele>228.40000000000003</ele><time>2026-05-01T10:14:01.999Z</time></trkpt><trkpt lat="45.97694403686055" lon="12.190244035767016"><ele>229.6</ele><time>2026-05-01T10:14:02.999Z</time></trkpt><trkpt lat="45.97690303161175" lon="12.190108520252178"><ele>230.8</ele><time>2026-05-01T10:14:03.999Z</time></trkpt><trkpt lat="45.97685731948959" lon="12.189957316059258"><ele>232.0</ele><time>2026-05-01T10:14:04.999Z</time></trkpt><trkpt lat="45.97680476652195" lon="12.18978632689003"><ele>231.0</ele><time>2026-05-01T10:14:05.999Z</time></trkpt><trkpt lat="45.97673393831414" lon="12.189611564055404"><ele>230.0</ele><time>2026-05-01T10:14:07Z</time></trkpt><trkpt lat="45.97666797944648" lon="12.189409729895738"><ele>229.0</ele><time>2026-05-01T10:14:08Z</time></trkpt><trkpt lat="45.97658954348818" lon="12.189197175167465"><ele>230.33333333333331</ele><time>2026-05-01T10:14:09Z</time></trkpt><trkpt lat="45.976509196961096" lon="12.188972778017616"><ele>231.66666666666669</ele><time>2026-05-01T10:14:10Z</time></trkpt><trkpt lat="45.976397576487464" lon="12.188732543868156"><ele>233.0</ele><time>2026-05-01T10:14:11Z</time></trkpt><trkpt lat="45.97625612768611" lon="12.188395050073336"><ele>236.5</ele><time>2026-05-01T10:14:12Z</time></trkpt><trkpt lat="45.976145606678955" lon="12.188087935754005"><ele>240.0</ele><time>2026-05-01T10:14:13Z</time></trkpt><trkpt lat="45.97603605238991" lon="12.187827685535375"><ele>240.0</ele><time>2026-05-01T10:14:14Z</time></trkpt><trkpt lat="45.97593716968572" lon="12.187591783596469"><ele>240.0</ele><time>2026-05-01T10:14:15Z</time></trkpt><trkpt lat="45.97584393207965" lon="12.187367561114614"><ele>240.0</ele><time>2026-05-01T10:14:16Z</time></trkpt><trkpt lat="45.9757465029671" lon="12.187133258780655"><ele>240.33333333333331</ele><time>2026-05-01T10:14:17Z</time></trkpt><trkpt lat="45.97564941736285" lon="12.186902359511615"><ele>240.66666666666666</ele><time>2026-05-01T10:14:18Z</time></trkpt><trkpt lat="45.97554026186475" lon="12.186684735976417"><ele>241.0</ele><time>2026-05-01T10:14:19Z</time></trkpt><trkpt lat="45.9754458998033" lon="12.186446854301265"><ele>241.0</ele><time>2026-05-01T10:14:20Z</time></trkpt><trkpt lat="45.97535600719742" lon="12.186213157870974"><ele>241.0</ele><time>2026-05-01T10:14:21Z</time></trkpt><trkpt lat="45.97527530694267" lon="12.185973350759413"><ele>241.0</ele><time>2026-05-01T10:14:22Z</time></trkpt><trkpt lat="45.975201261910854" lon="12.185717496547483"><ele>243.0</ele><time>2026-05-01T10:14:23Z</time></trkpt><trkpt lat="45.97513938224425" lon="12.18545855922274"><ele>245.0</ele><time>2026-05-01T10:14:24Z</time></trkpt><trkpt lat="45.97509304021547" lon="12.185198657971988"><ele>247.0</ele><time>2026-05-01T10:14:25Z</time></trkpt><trkpt lat="45.97505551449459" lon="12.184938427550195"><ele>243.0</ele><time>2026-05-01T10:14:26Z</time></trkpt><trkpt lat="45.97501652286413" lon="12.184670967358226"><ele>239.0</ele><time>2026-05-01T10:14:27Z</time></trkpt><trkpt lat="45.97497618891059" lon="12.184394511982038"><ele>235.0</ele><time>2026-05-01T10:14:28Z</time></trkpt><trkpt lat="45.9749362230116" lon="12.184113404417781"><ele>236.0</ele><time>2026-05-01T10:14:29Z</time></trkpt><trkpt lat="45.97489547332811" lon="12.183829466048254"><ele>237.0</ele><time>2026-05-01T10:14:30Z</time></trkpt><trkpt lat="45.9748571538803" lon="12.183559665016515"><ele>238.0</ele><time>2026-05-01T10:14:31Z</time></trkpt><trkpt lat="45.97481932430199" lon="12.18329800239755"><ele>237.33333333333331</ele><time>2026-05-01T10:14:32Z</time></trkpt><trkpt lat="45.97478330968631" lon="12.183040467609924"><ele>236.66666666666669</ele><time>2026-05-01T10:14:33Z</time></trkpt><trkpt lat="45.97474795575185" lon="12.182791748227789"><ele>236.0</ele><time>2026-05-01T10:14:34Z</time></trkpt><trkpt lat="45.97471283018469" lon="12.182552111020762"><ele>234.33333333333334</ele><time>2026-05-01T10:14:35Z</time></trkpt><trkpt lat="45.97468033281431" lon="12.18231331399525"><ele>232.66666666666669</ele><time>2026-05-01T10:14:36Z</time></trkpt><trkpt lat="45.974645737861806" lon="12.182070255284497"><ele>231.0</ele><time>2026-05-01T10:14:37Z</time></trkpt><trkpt lat="45.97461085175088" lon="12.181827437119109"><ele>231.0</ele><time>2026-05-01T10:14:38Z</time></trkpt><trkpt lat="45.974579388889914" lon="12.181603111833649"><ele>231.0</ele><time>2026-05-01T10:14:39Z</time></trkpt><trkpt lat="45.97455063635447" lon="12.181405662541438"><ele>231.0</ele><time>2026-05-01T10:14:40Z</time></trkpt><trkpt lat="45.97452648423973" lon="12.181231969741217"><ele>231.0</ele><time>2026-05-01T10:14:41Z</time></trkpt><trkpt lat="45.97450327933503" lon="12.18107624563403"><ele>231.25</ele><time>2026-05-01T10:14:42Z</time></trkpt><trkpt lat="45.974479845559664" lon="12.180924864563602"><ele>231.5</ele><time>2026-05-01T10:14:43Z</time></trkpt><trkpt lat="45.97445439195204" lon="12.180762822915092"><ele>231.75</ele><time>2026-05-01T10:14:44Z</time></trkpt><trkpt lat="45.97442977747603" lon="12.180583995486666"><ele>232.0</ele><time>2026-05-01T10:14:45Z</time></trkpt><trkpt lat="45.97440424501721" lon="12.180383781161352"><ele>232.66666666666666</ele><time>2026-05-01T10:14:46Z</time></trkpt><trkpt lat="45.97437209733489" lon="12.180158025396079"><ele>233.33333333333331</ele><time>2026-05-01T10:14:47Z</time></trkpt><trkpt lat="45.97433897361735" lon="12.179918813838034"><ele>234.0</ele><time>2026-05-01T10:14:48Z</time></trkpt><trkpt lat="45.974304551660296" lon="12.179679444753749"><ele>235.0</ele><time>2026-05-01T10:14:49Z</time></trkpt><trkpt lat="45.97426690423449" lon="12.179422094544474"><ele>236.0</ele><time>2026-05-01T10:14:50Z</time></trkpt><trkpt lat="45.97423054264284" lon="12.17916285490531"><ele>237.0</ele><time>2026-05-01T10:14:51Z</time></trkpt><trkpt lat="45.97419273822539" lon="12.178896035797646"><ele>237.0</ele><time>2026-05-01T10:14:52Z</time></trkpt><trkpt lat="45.974153603733676" lon="12.178633211876509"><ele>237.0</ele><time>2026-05-01T10:14:53Z</time></trkpt><trkpt lat="45.97412019279198" lon="12.178388880068768"><ele>237.0</ele><time>2026-05-01T10:14:54Z</time></trkpt><trkpt lat="45.97408928692517" lon="12.178165763146202"><ele>236.75</ele><time>2026-05-01T10:14:55Z</time></trkpt><trkpt lat="45.97406088478636" lon="12.177954928488775"><ele>236.5</ele><time>2026-05-01T10:14:56Z</time></trkpt><trkpt lat="45.97403408371884" lon="12.177757954433412"><ele>236.25</ele><time>2026-05-01T10:14:57Z</time></trkpt><trkpt lat="45.97401058400952" lon="12.177583301341722"><ele>236.0</ele><time>2026-05-01T10:14:58Z</time></trkpt><trkpt lat="45.97398960395854" lon="12.1774208767187"><ele>235.83333333333334</ele><time>2026-05-01T10:14:59Z</time></trkpt><trkpt lat="45.97397313803054" lon="12.177273075626584"><ele>235.66666666666669</ele><time>2026-05-01T10:15:00Z</time></trkpt><trkpt lat="45.973958702256596" lon="12.177144457659756"><ele>235.5</ele><time>2026-05-01T10:15:01Z</time></trkpt><trkpt lat="45.97394599950743" lon="12.177026247872922"><ele>235.33333333333331</ele><time>2026-05-01T10:15:02Z</time></trkpt><trkpt lat="45.97395331170778" lon="12.1769098770067"><ele>235.16666666666666</ele><time>2026-05-01T10:15:03Z</time></trkpt><trkpt lat="45.97395402858963" lon="12.176796877574075"><ele>235.0</ele><time>2026-05-01T10:15:04Z</time></trkpt><trkpt lat="45.97391592015617" lon="12.176678641450293"><ele>235.0</ele><time>2026-05-01T10:15:05Z</time></trkpt><trkpt lat="45.97388682763297" lon="12.176551512052125"><ele>235.0</ele><time>2026-05-01T10:15:06Z</time></trkpt><trkpt lat="45.97385212847224" lon="12.176414539600788"><ele>235.0</ele><time>2026-05-01T10:15:07Z</time></trkpt><trkpt lat="45.973815910393235" lon="12.176262018986188"><ele>235.0</ele><time>2026-05-01T10:15:08Z</time></trkpt><trkpt lat="45.97378527726404" lon="12.176093033091718"><ele>235.0</ele><time>2026-05-01T10:15:09Z</time></trkpt><trkpt lat="45.97375661548151" lon="12.17589913423002"><ele>236.66666666666666</ele><time>2026-05-01T10:15:10Z</time></trkpt><trkpt lat="45.97373076286731" lon="12.175684072440355"><ele>238.33333333333331</ele><time>2026-05-01T10:15:11Z</time></trkpt><trkpt lat="45.97370159849062" lon="12.175458729391956"><ele>240.0</ele><time>2026-05-01T10:15:12Z</time></trkpt><trkpt lat="45.973671175395985" lon="12.175232968461613"><ele>240.0</ele><time>2026-05-01T10:15:13Z</time></trkpt><trkpt lat="45.97364146510918" lon="12.175023039393029"><ele>240.0</ele><time>2026-05-01T10:15:14Z</time></trkpt><trkpt lat="45.97361387153576" lon="12.174817738709947"><ele>240.0</ele><time>2026-05-01T10:15:15Z</time></trkpt><trkpt lat="45.973583929276394" lon="12.174612120142038"><ele>240.0</ele><time>2026-05-01T10:15:16Z</time></trkpt><trkpt lat="45.97354723729568" lon="12.174403907655293"><ele>239.5</ele><time>2026-05-01T10:15:17Z</time></trkpt><trkpt lat="45.97350576004293" lon="12.17419295070597"><ele>239.0</ele><time>2026-05-01T10:15:18Z</time></trkpt><trkpt lat="45.9734590119412" lon="12.173986596159372"><ele>238.5</ele><time>2026-05-01T10:15:19Z</time></trkpt><trkpt lat="45.973410196598856" lon="12.173788832776598"><ele>238.0</ele><time>2026-05-01T10:15:20Z</time></trkpt><trkpt lat="45.97336009385735" lon="12.17359736667066"><ele>238.5</ele><time>2026-05-01T10:15:21Z</time></trkpt><trkpt lat="45.973309978103735" lon="12.173412818663476"><ele>239.0</ele><time>2026-05-01T10:15:22Z</time></trkpt><trkpt lat="45.97326196051165" lon="12.173236293254789"><ele>239.5</ele><time>2026-05-01T10:15:23Z</time></trkpt><trkpt lat="45.97321421159377" lon="12.173068837948469"><ele>240.0</ele><time>2026-05-01T10:15:24Z</time></trkpt><trkpt lat="45.97316492299993" lon="12.17289810471303"><ele>243.0</ele><time>2026-05-01T10:15:25Z</time></trkpt><trkpt lat="45.973112494265266" lon="12.172721297840319"><ele>246.0</ele><time>2026-05-01T10:15:26Z</time></trkpt><trkpt lat="45.97306036559732" lon="12.172544052964252"><ele>249.0</ele><time>2026-05-01T10:15:27Z</time></trkpt><trkpt lat="45.97300296420868" lon="12.172363508406074"><ele>252.0</ele><time>2026-05-01T10:15:28Z</time></trkpt><trkpt lat="45.97294512497323" lon="12.172172179827854"><ele>259.6666666666667</ele><time>2026-05-01T10:15:29Z</time></trkpt><trkpt lat="45.97288748400492" lon="12.171969763628109"><ele>267.33333333333337</ele><time>2026-05-01T10:15:30Z</time></trkpt><trkpt lat="45.972825277747646" lon="12.171755895740116"><ele>275.0</ele><time>2026-05-01T10:15:31Z</time></trkpt><trkpt lat="45.97276142215963" lon="12.171535093945042"><ele>282.33333333333337</ele><time>2026-05-01T10:15:32Z</time></trkpt><trkpt lat="45.97269604227628" lon="12.171304601970817"><ele>289.6666666666667</ele><time>2026-05-01T10:15:33Z</time></trkpt><trkpt lat="45.972629545915666" lon="12.171063323397172"><ele>297.0</ele><time>2026-05-01T10:15:34Z</time></trkpt><trkpt lat="45.97257047841405" lon="12.170816543637802"><ele>280.3333333333333</ele><time>2026-05-01T10:15:35Z</time></trkpt><trkpt lat="45.97251987965483" lon="12.17056122724578"><ele>263.66666666666663</ele><time>2026-05-01T10:15:36Z</time></trkpt><trkpt lat="45.97247187064025" lon="12.170301635745066"><ele>247.0</ele><time>2026-05-01T10:15:37Z</time></trkpt><trkpt lat="45.97242296821994" lon="12.170041754932438"><ele>250.0</ele><time>2026-05-01T10:15:38Z</time></trkpt><trkpt lat="45.97237713412364" lon="12.169784769869533"><ele>253.0</ele><time>2026-05-01T10:15:39Z</time></trkpt><trkpt lat="45.97233036196585" lon="12.169527365998835"><ele>256.0</ele><time>2026-05-01T10:15:40Z</time></trkpt><trkpt lat="45.97228243580057" lon="12.169272014185013"><ele>258.66666666666663</ele><time>2026-05-01T10:15:41Z</time></trkpt><trkpt lat="45.97223521541866" lon="12.16901328960639"><ele>261.3333333333333</ele><time>2026-05-01T10:15:42Z</time></trkpt><trkpt lat="45.972189588657756" lon="12.168753976820062"><ele>264.0</ele><time>2026-05-01T10:15:43Z</time></trkpt><trkpt lat="45.97214345118459" lon="12.168493964142982"><ele>264.0</ele><time>2026-05-01T10:15:44Z</time></trkpt><trkpt lat="45.97209771584031" lon="12.168239846166482"><ele>264.0</ele><time>2026-05-01T10:15:45Z</time></trkpt><trkpt lat="45.97205311785057" lon="12.167991973945846"><ele>264.0</ele><time>2026-05-01T10:15:46Z</time></trkpt><trkpt lat="45.97200874770492" lon="12.167749992822719"><ele>265.3333333333333</ele><time>2026-05-01T10:15:47Z</time></trkpt><trkpt lat="45.97196611494237" lon="12.167512119048173"><ele>266.66666666666663</ele><time>2026-05-01T10:15:48Z</time></trkpt><trkpt lat="45.9719231548468" lon="12.167278501945905"><ele>268.0</ele><time>2026-05-01T10:15:49Z</time></trkpt><trkpt lat="45.971883078169576" lon="12.167046166737872"><ele>268.66666666666663</ele><time>2026-05-01T10:15:50Z</time></trkpt><trkpt lat="45.97184523683866" lon="12.16681137541346"><ele>269.3333333333333</ele><time>2026-05-01T10:15:51Z</time></trkpt><trkpt lat="45.97181214297891" lon="12.166570120489926"><ele>270.0</ele><time>2026-05-01T10:15:52Z</time></trkpt><trkpt lat="45.97178919288143" lon="12.16632444431566"><ele>268.3333333333333</ele><time>2026-05-01T10:15:53Z</time></trkpt><trkpt lat="45.97177417584049" lon="12.166074839963674"><ele>266.66666666666663</ele><time>2026-05-01T10:15:54Z</time></trkpt><trkpt lat="45.97176309092494" lon="12.165826189389383"><ele>265.0</ele><time>2026-05-01T10:15:55Z</time></trkpt><trkpt lat="45.97175415767214" lon="12.165580028178406"><ele>263.66666666666663</ele><time>2026-05-01T10:15:56Z</time></trkpt><trkpt lat="45.97174502904388" lon="12.165339598674016"><ele>262.3333333333333</ele><time>2026-05-01T10:15:57Z</time></trkpt><trkpt lat="45.97174300029859" lon="12.16509993437598"><ele>261.0</ele><time>2026-05-01T10:15:58Z</time></trkpt><trkpt lat="45.97173787156546" lon="12.164862379436467"><ele>260.3333333333333</ele><time>2026-05-01T10:15:59Z</time></trkpt><trkpt lat="45.97173171297377" lon="12.16462429580599"><ele>259.66666666666663</ele><time>2026-05-01T10:15:59.999Z</time></trkpt><trkpt lat="45.97172998812413" lon="12.164390965035878"><ele>259.0</ele><time>2026-05-01T10:16:00.999Z</time></trkpt><trkpt lat="45.971727605202055" lon="12.164157883397381"><ele>259.66666666666663</ele><time>2026-05-01T10:16:01.999Z</time></trkpt><trkpt lat="45.971727097478045" lon="12.16392562469451"><ele>260.3333333333333</ele><time>2026-05-01T10:16:02.999Z</time></trkpt><trkpt lat="45.97172785456188" lon="12.163698219544717"><ele>261.0</ele><time>2026-05-01T10:16:03.999Z</time></trkpt><trkpt lat="45.97171715904639" lon="12.163470629964587"><ele>261.0</ele><time>2026-05-01T10:16:04.999Z</time></trkpt><trkpt lat="45.97171072803004" lon="12.163263186257437"><ele>261.0</ele><time>2026-05-01T10:16:05.999Z</time></trkpt><trkpt lat="45.971708786181495" lon="12.16306929323116"><ele>261.0</ele><time>2026-05-01T10:16:06.999Z</time></trkpt><trkpt lat="45.97170758550683" lon="12.162871849622501"><ele>261.0</ele><time>2026-05-01T10:16:07.999Z</time></trkpt><trkpt lat="45.971718230193" lon="12.162674399484647"><ele>261.0</ele><time>2026-05-01T10:16:08.999Z</time></trkpt><trkpt lat="45.97172597113817" lon="12.162473814640354"><ele>261.0</ele><time>2026-05-01T10:16:09.999Z</time></trkpt><trkpt lat="45.971721883813316" lon="12.16227135383075"><ele>261.0</ele><time>2026-05-01T10:16:10.999Z</time></trkpt><trkpt lat="45.971717886989175" lon="12.162070482811801"><ele>261.0</ele><time>2026-05-01T10:16:11.999Z</time></trkpt><trkpt lat="45.97170850974392" lon="12.161871747431007"><ele>261.0</ele><time>2026-05-01T10:16:13Z</time></trkpt><trkpt lat="45.97169334881055" lon="12.161672340018667"><ele>261.0</ele><time>2026-05-01T10:16:14Z</time></trkpt><trkpt lat="45.97166737960949" lon="12.16147896782922"><ele>261.0</ele><time>2026-05-01T10:16:15Z</time></trkpt><trkpt lat="45.97163565852419" lon="12.16129067495052"><ele>261.0</ele><time>2026-05-01T10:16:16Z</time></trkpt><trkpt lat="45.971604362728584" lon="12.16110588263934"><ele>259.0</ele><time>2026-05-01T10:16:17Z</time></trkpt><trkpt lat="45.971563275221285" lon="12.160925567388123"><ele>257.0</ele><time>2026-05-01T10:16:18Z</time></trkpt><trkpt lat="45.97151495437458" lon="12.16073916928177"><ele>255.0</ele><time>2026-05-01T10:16:19Z</time></trkpt><trkpt lat="45.97146325693307" lon="12.16054291209378"><ele>253.0</ele><time>2026-05-01T10:16:20Z</time></trkpt><trkpt lat="45.97141003221704" lon="12.160344242060976"><ele>253.0</ele><time>2026-05-01T10:16:21Z</time></trkpt><trkpt lat="45.97135786776791" lon="12.16014131793355"><ele>253.0</ele><time>2026-05-01T10:16:22Z</time></trkpt><trkpt lat="45.971318535122265" lon="12.159924015345702"><ele>253.0</ele><time>2026-05-01T10:16:23Z</time></trkpt><trkpt lat="45.97126328854841" lon="12.159712370579856"><ele>258.3333333333333</ele><time>2026-05-01T10:16:24Z</time></trkpt><trkpt lat="45.971192759430984" lon="12.159507291671904"><ele>263.6666666666667</ele><time>2026-05-01T10:16:25Z</time></trkpt><trkpt lat="45.97115132330833" lon="12.159283831365592"><ele>269.0</ele><time>2026-05-01T10:16:26Z</time></trkpt><trkpt lat="45.971097189721554" lon="12.159076799302733"><ele>271.25</ele><time>2026-05-01T10:16:27Z</time></trkpt><trkpt lat="45.971046378056435" lon="12.158882472179771"><ele>273.5</ele><time>2026-05-01T10:16:28Z</time></trkpt><trkpt lat="45.97099608045076" lon="12.158697091531822"><ele>275.75</ele><time>2026-05-01T10:16:29Z</time></trkpt><trkpt lat="45.970944589844116" lon="12.158514329206676"><ele>278.0</ele><time>2026-05-01T10:16:30Z</time></trkpt><trkpt lat="45.970885510723775" lon="12.158327699772602"><ele>271.0</ele><time>2026-05-01T10:16:31Z</time></trkpt><trkpt lat="45.97081545059609" lon="12.15813315119976"><ele>264.0</ele><time>2026-05-01T10:16:32Z</time></trkpt><trkpt lat="45.97073121575114" lon="12.157929605431596"><ele>257.0</ele><time>2026-05-01T10:16:33Z</time></trkpt><trkpt lat="45.97062944760188" lon="12.157718380525191"><ele>257.0</ele><time>2026-05-01T10:16:34Z</time></trkpt><trkpt lat="45.97051635852222" lon="12.15750091735726"><ele>257.0</ele><time>2026-05-01T10:16:35Z</time></trkpt><trkpt lat="45.9703935597604" lon="12.157273280619211"><ele>257.0</ele><time>2026-05-01T10:16:36Z</time></trkpt><trkpt lat="45.970262382698564" lon="12.157035544288398"><ele>255.0</ele><time>2026-05-01T10:16:37Z</time></trkpt><trkpt lat="45.97011478282208" lon="12.156803940464384"><ele>253.0</ele><time>2026-05-01T10:16:38Z</time></trkpt><trkpt lat="45.969976860322774" lon="12.156551745604727"><ele>251.0</ele><time>2026-05-01T10:16:39Z</time></trkpt><trkpt lat="45.969832901136854" lon="12.156286521326752"><ele>251.0</ele><time>2026-05-01T10:16:40Z</time></trkpt><trkpt lat="45.969684505288335" lon="12.156013749316683"><ele>251.0</ele><time>2026-05-01T10:16:41Z</time></trkpt><trkpt lat="45.96955876863866" lon="12.155745208882903"><ele>249.66666666666669</ele><time>2026-05-01T10:16:42Z</time></trkpt><trkpt lat="45.96942700852444" lon="12.15550426083756"><ele>248.33333333333331</ele><time>2026-05-01T10:16:43Z</time></trkpt><trkpt lat="45.96929088588148" lon="12.155292421840638"><ele>247.0</ele><time>2026-05-01T10:16:44Z</time></trkpt><trkpt lat="45.969175211890324" lon="12.155078078593672"><ele>249.66666666666666</ele><time>2026-05-01T10:16:45Z</time></trkpt><trkpt lat="45.969080567445005" lon="12.154866279406356"><ele>252.33333333333331</ele><time>2026-05-01T10:16:46Z</time></trkpt><trkpt lat="45.96897517866716" lon="12.154671609881678"><ele>255.0</ele><time>2026-05-01T10:16:47Z</time></trkpt><trkpt lat="45.9688731167557" lon="12.154483085797946"><ele>255.0</ele><time>2026-05-01T10:16:48Z</time></trkpt><trkpt lat="45.968775053579584" lon="12.154301947844372"><ele>255.0</ele><time>2026-05-01T10:16:49Z</time></trkpt><trkpt lat="45.96868040801399" lon="12.154127122739137"><ele>255.0</ele><time>2026-05-01T10:16:50Z</time></trkpt><trkpt lat="45.96859069940196" lon="12.15396137104755"><ele>256.75</ele><time>2026-05-01T10:16:51Z</time></trkpt><trkpt lat="45.968487333358574" lon="12.153807418654601"><ele>258.5</ele><time>2026-05-01T10:16:52Z</time></trkpt><trkpt lat="45.96841338168199" lon="12.153614900639395"><ele>260.25</ele><time>2026-05-01T10:16:53Z</time></trkpt><trkpt lat="45.96833983948977" lon="12.153447065423247"><ele>262.0</ele><time>2026-05-01T10:16:54Z</time></trkpt><trkpt lat="45.96826765339174" lon="12.153265624344115"><ele>259.75</ele><time>2026-05-01T10:16:55Z</time></trkpt><trkpt lat="45.968201898773344" lon="12.153078132501665"><ele>257.5</ele><time>2026-05-01T10:16:56Z</time></trkpt><trkpt lat="45.968145766272976" lon="12.152899378220686"><ele>255.25</ele><time>2026-05-01T10:16:57Z</time></trkpt><trkpt lat="45.96807853959607" lon="12.15273447001793"><ele>253.0</ele><time>2026-05-01T10:16:58Z</time></trkpt><trkpt lat="45.968031209502534" lon="12.152515535943378"><ele>257.0</ele><time>2026-05-01T10:16:59Z</time></trkpt><trkpt lat="45.96794568256377" lon="12.152230925708572"><ele>261.0</ele><time>2026-05-01T10:17:00Z</time></trkpt><trkpt lat="45.96782192802164" lon="12.15187621925072"><ele>261.0</ele><time>2026-05-01T10:17:01Z</time></trkpt><trkpt lat="45.96770012301232" lon="12.151455912717585"><ele>261.0</ele><time>2026-05-01T10:17:02Z</time></trkpt><trkpt lat="45.9675606316021" lon="12.150985905049387"><ele>256.0</ele><time>2026-05-01T10:17:03Z</time></trkpt><trkpt lat="45.967424105251126" lon="12.150546219627977"><ele>251.0</ele><time>2026-05-01T10:17:04Z</time></trkpt><trkpt lat="45.96730015240398" lon="12.15015899123601"><ele>251.0</ele><time>2026-05-01T10:17:05Z</time></trkpt><trkpt lat="45.967186601234715" lon="12.14979617680843"><ele>251.0</ele><time>2026-05-01T10:17:06Z</time></trkpt><trkpt lat="45.9670766193431" lon="12.149464302170635"><ele>251.0</ele><time>2026-05-01T10:17:07Z</time></trkpt><trkpt lat="45.96696881022593" lon="12.149158690948056"><ele>251.0</ele><time>2026-05-01T10:17:08Z</time></trkpt><trkpt lat="45.96686593447632" lon="12.148874645203206"><ele>250.66666666666669</ele><time>2026-05-01T10:17:09Z</time></trkpt><trkpt lat="45.96676791708627" lon="12.148617679119514"><ele>250.33333333333331</ele><time>2026-05-01T10:17:10Z</time></trkpt><trkpt lat="45.96667961007863" lon="12.148390626380865"><ele>250.0</ele><time>2026-05-01T10:17:11Z</time></trkpt><trkpt lat="45.96658733099081" lon="12.148158699889919"><ele>247.66666666666666</ele><time>2026-05-01T10:17:12Z</time></trkpt><trkpt lat="45.96649476301616" lon="12.147924982293677"><ele>245.33333333333331</ele><time>2026-05-01T10:17:13Z</time></trkpt><trkpt lat="45.9663996369794" lon="12.1476958756996"><ele>243.0</ele><time>2026-05-01T10:17:14Z</time></trkpt><trkpt lat="45.96632156247945" lon="12.147458554646022"><ele>242.33333333333331</ele><time>2026-05-01T10:17:15Z</time></trkpt><trkpt lat="45.966231087438594" lon="12.14723619117346"><ele>241.66666666666666</ele><time>2026-05-01T10:17:16Z</time></trkpt><trkpt lat="45.96614127794295" lon="12.14701557492025"><ele>241.0</ele><time>2026-05-01T10:17:17Z</time></trkpt><trkpt lat="45.966054530743776" lon="12.146798121951894"><ele>241.0</ele><time>2026-05-01T10:17:18Z</time></trkpt><trkpt lat="45.96596884969803" lon="12.146581395856709"><ele>241.0</ele><time>2026-05-01T10:17:19Z</time></trkpt><trkpt lat="45.96588667535773" lon="12.14635753647589"><ele>241.0</ele><time>2026-05-01T10:17:20Z</time></trkpt><trkpt lat="45.96581315807256" lon="12.146125526490916"><ele>239.66666666666666</ele><time>2026-05-01T10:17:21Z</time></trkpt><trkpt lat="45.9657435798003" lon="12.145886469322518"><ele>238.33333333333331</ele><time>2026-05-01T10:17:22Z</time></trkpt><trkpt lat="45.96566693482166" lon="12.145644509847651"><ele>237.0</ele><time>2026-05-01T10:17:23Z</time></trkpt><trkpt lat="45.96561377938257" lon="12.145385590006951"><ele>237.0</ele><time>2026-05-01T10:17:24Z</time></trkpt><trkpt lat="45.9655726375845" lon="12.145120382724288"><ele>237.0</ele><time>2026-05-01T10:17:25Z</time></trkpt><trkpt lat="45.96554317983769" lon="12.144872520033472"><ele>237.0</ele><time>2026-05-01T10:17:26Z</time></trkpt><trkpt lat="45.96552077999345" lon="12.144645109783081"><ele>237.0</ele><time>2026-05-01T10:17:27Z</time></trkpt><trkpt lat="45.96552166660023" lon="12.144424483977843"><ele>237.0</ele><time>2026-05-01T10:17:28Z</time></trkpt><trkpt lat="45.96550835901163" lon="12.144203379194515"><ele>237.0</ele><time>2026-05-01T10:17:29Z</time></trkpt><trkpt lat="45.96549695740862" lon="12.143985296559983"><ele>237.75</ele><time>2026-05-01T10:17:30Z</time></trkpt><trkpt lat="45.965485582305185" lon="12.143769963133511"><ele>238.5</ele><time>2026-05-01T10:17:31Z</time></trkpt><trkpt lat="45.96547247304747" lon="12.143562731636262"><ele>239.25</ele><time>2026-05-01T10:17:32Z</time></trkpt><trkpt lat="45.9654441032361" lon="12.143358483875987"><ele>240.0</ele><time>2026-05-01T10:17:33Z</time></trkpt><trkpt lat="45.9654498206165" lon="12.143151883889642"><ele>240.25</ele><time>2026-05-01T10:17:34Z</time></trkpt><trkpt lat="45.96542104690003" lon="12.142960602102935"><ele>240.5</ele><time>2026-05-01T10:17:35Z</time></trkpt><trkpt lat="45.96541139318768" lon="12.14278514144599"><ele>240.75</ele><time>2026-05-01T10:17:36Z</time></trkpt><trkpt lat="45.96540533431879" lon="12.142613395881606"><ele>241.0</ele><time>2026-05-01T10:17:37Z</time></trkpt><trkpt lat="45.96540343009378" lon="12.142458202361885"><ele>241.20000000000002</ele><time>2026-05-01T10:17:38Z</time></trkpt><trkpt lat="45.96540533644854" lon="12.142321012366475"><ele>241.40000000000003</ele><time>2026-05-01T10:17:39Z</time></trkpt><trkpt lat="45.96541009254962" lon="12.142186731720086"><ele>241.6</ele><time>2026-05-01T10:17:40Z</time></trkpt><trkpt lat="45.965418033692345" lon="12.142045969937389"><ele>241.8</ele><time>2026-05-01T10:17:41Z</time></trkpt><trkpt lat="45.96540483362436" lon="12.141897128094389"><ele>242.0</ele><time>2026-05-01T10:17:42Z</time></trkpt><trkpt lat="45.96539672713972" lon="12.14172366124693"><ele>242.0</ele><time>2026-05-01T10:17:43Z</time></trkpt><trkpt lat="45.96539074960577" lon="12.141508847543118"><ele>242.0</ele><time>2026-05-01T10:17:44Z</time></trkpt><trkpt lat="45.9653959982653" lon="12.141264327125562"><ele>242.0</ele><time>2026-05-01T10:17:45Z</time></trkpt><trkpt lat="45.96542417719335" lon="12.140965860151548"><ele>241.0</ele><time>2026-05-01T10:17:46Z</time></trkpt><trkpt lat="45.96545986645936" lon="12.140648063826212"><ele>240.0</ele><time>2026-05-01T10:17:47Z</time></trkpt><trkpt lat="45.96549808097308" lon="12.14035767754805"><ele>239.0</ele><time>2026-05-01T10:17:48Z</time></trkpt><trkpt lat="45.965531687858736" lon="12.140103470583567"><ele>239.0</ele><time>2026-05-01T10:17:49Z</time></trkpt><trkpt lat="45.96556262922454" lon="12.13987517387488"><ele>239.0</ele><time>2026-05-01T10:17:50Z</time></trkpt><trkpt lat="45.965589592081734" lon="12.1396710977951"><ele>239.0</ele><time>2026-05-01T10:17:51Z</time></trkpt><trkpt lat="45.96561469761372" lon="12.139481790102515"><ele>239.0</ele><time>2026-05-01T10:17:52Z</time></trkpt><trkpt lat="45.965641031238924" lon="12.13928062631029"><ele>239.0</ele><time>2026-05-01T10:17:53Z</time></trkpt><trkpt lat="45.96566569904841" lon="12.139075440313354"><ele>239.0</ele><time>2026-05-01T10:17:54Z</time></trkpt><trkpt lat="45.96568873166074" lon="12.138881202652017"><ele>239.0</ele><time>2026-05-01T10:17:55Z</time></trkpt><trkpt lat="45.96571011934817" lon="12.13871348899323"><ele>239.0</ele><time>2026-05-01T10:17:56Z</time></trkpt><trkpt lat="45.96572856563769" lon="12.138560960707602"><ele>239.0</ele><time>2026-05-01T10:17:57Z</time></trkpt><trkpt lat="45.96574659416049" lon="12.138411148396703"><ele>238.99999999999997</ele><time>2026-05-01T10:17:58Z</time></trkpt><trkpt lat="45.9657664315033" lon="12.138256765054994"><ele>238.99999999999997</ele><time>2026-05-01T10:17:59Z</time></trkpt><trkpt lat="45.96578383626384" lon="12.138105269599729"><ele>239.0</ele><time>2026-05-01T10:18:00Z</time></trkpt><trkpt lat="45.96580734811647" lon="12.137972086679142"><ele>239.0</ele><time>2026-05-01T10:18:01Z</time></trkpt><trkpt lat="45.96584248130451" lon="12.137840063256386"><ele>240.79999999999998</ele><time>2026-05-01T10:18:02Z</time></trkpt><trkpt lat="45.9658955028809" lon="12.137715470695083"><ele>242.59999999999997</ele><time>2026-05-01T10:18:03Z</time></trkpt><trkpt lat="45.96592924740996" lon="12.137593530696348"><ele>244.4</ele><time>2026-05-01T10:18:04Z</time></trkpt><trkpt lat="45.96591711947652" lon="12.13743732191009"><ele>246.2</ele><time>2026-05-01T10:18:05Z</time></trkpt><trkpt lat="45.96588432975486" lon="12.137258699691452"><ele>248.0</ele><time>2026-05-01T10:18:06Z</time></trkpt><trkpt lat="45.965864547158276" lon="12.13706136558105"><ele>246.5</ele><time>2026-05-01T10:18:07Z</time></trkpt><trkpt lat="45.965859204756875" lon="12.136859304602872"><ele>245.0</ele><time>2026-05-01T10:18:08Z</time></trkpt><trkpt lat="45.96585492456383" lon="12.136652123229883"><ele>243.5</ele><time>2026-05-01T10:18:08.999Z</time></trkpt><trkpt lat="45.96583992403581" lon="12.136439384301733"><ele>242.0</ele><time>2026-05-01T10:18:09.999Z</time></trkpt><trkpt lat="45.965816595229164" lon="12.136238810231632"><ele>242.0</ele><time>2026-05-01T10:18:10.999Z</time></trkpt><trkpt lat="45.96578835332012" lon="12.136042957383665"><ele>242.0</ele><time>2026-05-01T10:18:11.999Z</time></trkpt><trkpt lat="45.965756918541196" lon="12.135850595007632"><ele>242.0</ele><time>2026-05-01T10:18:12.999Z</time></trkpt><trkpt lat="45.96571906430403" lon="12.135664111635007"><ele>242.0</ele><time>2026-05-01T10:18:13.999Z</time></trkpt><trkpt lat="45.96567553294604" lon="12.135486046679205"><ele>241.25</ele><time>2026-05-01T10:18:14.999Z</time></trkpt><trkpt lat="45.96562371497266" lon="12.135303964701023"><ele>240.5</ele><time>2026-05-01T10:18:15.999Z</time></trkpt><trkpt lat="45.96556147239607" lon="12.135118340111244"><ele>239.75</ele><time>2026-05-01T10:18:16.999Z</time></trkpt><trkpt lat="45.96549141737611" lon="12.134954509807926"><ele>239.0</ele><time>2026-05-01T10:18:17.999Z</time></trkpt><trkpt lat="45.9654153955017" lon="12.134803294302385"><ele>238.0</ele><time>2026-05-01T10:18:19Z</time></trkpt><trkpt lat="45.96533388802002" lon="12.134661017620065"><ele>237.0</ele><time>2026-05-01T10:18:20Z</time></trkpt><trkpt lat="45.9652483461352" lon="12.134526081938874"><ele>236.0</ele><time>2026-05-01T10:18:21Z</time></trkpt><trkpt lat="45.96516120938019" lon="12.134395651348617"><ele>235.0</ele><time>2026-05-01T10:18:22Z</time></trkpt><trkpt lat="45.9650719254181" lon="12.13427548331662"><ele>235.0</ele><time>2026-05-01T10:18:23Z</time></trkpt><trkpt lat="45.964980209671864" lon="12.134150222936128"><ele>235.0</ele><time>2026-05-01T10:18:24Z</time></trkpt><trkpt lat="45.96488647519067" lon="12.134022517335172"><ele>235.0</ele><time>2026-05-01T10:18:25Z</time></trkpt><trkpt lat="45.964796419202465" lon="12.133903777643875"><ele>235.0</ele><time>2026-05-01T10:18:26Z</time></trkpt><trkpt lat="45.96470615408001" lon="12.133778882953816"><ele>234.25</ele><time>2026-05-01T10:18:27Z</time></trkpt><trkpt lat="45.964611252539164" lon="12.133644674331837"><ele>233.5</ele><time>2026-05-01T10:18:28Z</time></trkpt><trkpt lat="45.96451366815836" lon="12.13351573745345"><ele>232.75</ele><time>2026-05-01T10:18:29Z</time></trkpt><trkpt lat="45.96441606815226" lon="12.133389547703656"><ele>232.0</ele><time>2026-05-01T10:18:30Z</time></trkpt><trkpt lat="45.96431700194768" lon="12.133257805230656"><ele>231.75</ele><time>2026-05-01T10:18:31Z</time></trkpt><trkpt lat="45.96422115912403" lon="12.133129266740065"><ele>231.5</ele><time>2026-05-01T10:18:32Z</time></trkpt><trkpt lat="45.96411075091977" lon="12.132982727929313"><ele>231.25</ele><time>2026-05-01T10:18:33Z</time></trkpt><trkpt lat="45.96399439779457" lon="12.132824866087024"><ele>231.0</ele><time>2026-05-01T10:18:34Z</time></trkpt><trkpt lat="45.96387304168921" lon="12.132660604204554"><ele>230.0</ele><time>2026-05-01T10:18:35Z</time></trkpt><trkpt lat="45.96373933243172" lon="12.132484698707207"><ele>229.0</ele><time>2026-05-01T10:18:36Z</time></trkpt><trkpt lat="45.96359556661295" lon="12.132293220979875"><ele>228.0</ele><time>2026-05-01T10:18:37Z</time></trkpt><trkpt lat="45.96345363339425" lon="12.132098176539214"><ele>227.66666666666669</ele><time>2026-05-01T10:18:38Z</time></trkpt><trkpt lat="45.96331840777222" lon="12.131914537885093"><ele>227.33333333333334</ele><time>2026-05-01T10:18:39Z</time></trkpt><trkpt lat="45.96318591288278" lon="12.131733094998763"><ele>227.0</ele><time>2026-05-01T10:18:40Z</time></trkpt><trkpt lat="45.963058195997455" lon="12.131560125807454"><ele>225.66666666666669</ele><time>2026-05-01T10:18:41Z</time></trkpt><trkpt lat="45.96293334568766" lon="12.131392264902027"><ele>224.33333333333331</ele><time>2026-05-01T10:18:42Z</time></trkpt><trkpt lat="45.962811782254356" lon="12.131227848585958"><ele>223.0</ele><time>2026-05-01T10:18:43Z</time></trkpt><trkpt lat="45.96269239063069" lon="12.131064908212519"><ele>223.0</ele><time>2026-05-01T10:18:44Z</time></trkpt><trkpt lat="45.96257198469313" lon="12.13090044386607"><ele>223.0</ele><time>2026-05-01T10:18:45Z</time></trkpt><trkpt lat="45.96244995263277" lon="12.130735918727849"><ele>223.0</ele><time>2026-05-01T10:18:46Z</time></trkpt><trkpt lat="45.96232534748009" lon="12.130568745919911"><ele>222.0</ele><time>2026-05-01T10:18:47Z</time></trkpt><trkpt lat="45.9622009905347" lon="12.130398952502121"><ele>221.0</ele><time>2026-05-01T10:18:48Z</time></trkpt><trkpt lat="45.96207507189391" lon="12.130228086045554"><ele>220.0</ele><time>2026-05-01T10:18:49Z</time></trkpt><trkpt lat="45.96194513715123" lon="12.13005308658402"><ele>220.0</ele><time>2026-05-01T10:18:50Z</time></trkpt><trkpt lat="45.96181443273078" lon="12.129877366201395"><ele>220.0</ele><time>2026-05-01T10:18:51Z</time></trkpt><trkpt lat="45.96168436430843" lon="12.129699433947565"><ele>220.0</ele><time>2026-05-01T10:18:52Z</time></trkpt><trkpt lat="45.96155471949344" lon="12.129523824256605"><ele>220.33333333333331</ele><time>2026-05-01T10:18:53Z</time></trkpt><trkpt lat="45.96142810672886" lon="12.129356507156958"><ele>220.66666666666669</ele><time>2026-05-01T10:18:54Z</time></trkpt><trkpt lat="45.96130887471515" lon="12.129194093042871"><ele>221.0</ele><time>2026-05-01T10:18:55Z</time></trkpt><trkpt lat="45.96119862987155" lon="12.12904488441547"><ele>220.25</ele><time>2026-05-01T10:18:56Z</time></trkpt><trkpt lat="45.961096114382045" lon="12.128907783258263"><ele>219.5</ele><time>2026-05-01T10:18:57Z</time></trkpt><trkpt lat="45.961001515905544" lon="12.128779409349587"><ele>218.75</ele><time>2026-05-01T10:18:58Z</time></trkpt><trkpt lat="45.9609190675238" lon="12.128666031533225"><ele>218.0</ele><time>2026-05-01T10:18:59Z</time></trkpt><trkpt lat="45.9608365115769" lon="12.128553779453734"><ele>218.0</ele><time>2026-05-01T10:19:00Z</time></trkpt><trkpt lat="45.96075183315755" lon="12.128439050635434"><ele>218.0</ele><time>2026-05-01T10:19:01Z</time></trkpt><trkpt lat="45.96066612416792" lon="12.128321097629556"><ele>218.0</ele><time>2026-05-01T10:19:02Z</time></trkpt><trkpt lat="45.960581265691914" lon="12.128200696180482"><ele>218.0</ele><time>2026-05-01T10:19:03Z</time></trkpt><trkpt lat="45.96049818718163" lon="12.128075966865051"><ele>218.0</ele><time>2026-05-01T10:19:04Z</time></trkpt><trkpt lat="45.96041800163881" lon="12.127945602815924"><ele>218.0</ele><time>2026-05-01T10:19:05Z</time></trkpt><trkpt lat="45.960340593881945" lon="12.127804453482224"><ele>218.0</ele><time>2026-05-01T10:19:06Z</time></trkpt><trkpt lat="45.960262212001844" lon="12.12765041278322"><ele>218.0</ele><time>2026-05-01T10:19:07Z</time></trkpt><trkpt lat="45.96018568451923" lon="12.127484671569167"><ele>217.5</ele><time>2026-05-01T10:19:08Z</time></trkpt><trkpt lat="45.960113112276154" lon="12.127307828845362"><ele>217.0</ele><time>2026-05-01T10:19:09Z</time></trkpt><trkpt lat="45.96004227468651" lon="12.127122542394744"><ele>216.5</ele><time>2026-05-01T10:19:10Z</time></trkpt><trkpt lat="45.95997761724256" lon="12.12693081376091"><ele>216.0</ele><time>2026-05-01T10:19:11Z</time></trkpt><trkpt lat="45.959918929252716" lon="12.126742347741397"><ele>215.75</ele><time>2026-05-01T10:19:12Z</time></trkpt><trkpt lat="45.95986568375789" lon="12.126576168367746"><ele>215.5</ele><time>2026-05-01T10:19:13Z</time></trkpt><trkpt lat="45.95981664377806" lon="12.126422891116333"><ele>215.25</ele><time>2026-05-01T10:19:14Z</time></trkpt><trkpt lat="45.95976805265005" lon="12.126277125887016"><ele>215.0</ele><time>2026-05-01T10:19:15Z</time></trkpt><trkpt lat="45.95971803443991" lon="12.126130349358544"><ele>215.0</ele><time>2026-05-01T10:19:16Z</time></trkpt><trkpt lat="45.95966497028192" lon="12.125982160264703"><ele>215.0</ele><time>2026-05-01T10:19:17Z</time></trkpt><trkpt lat="45.95961317229464" lon="12.125832955288107"><ele>215.0</ele><time>2026-05-01T10:19:18Z</time></trkpt><trkpt lat="45.95956078898334" lon="12.125679763130872"><ele>215.0</ele><time>2026-05-01T10:19:19Z</time></trkpt><trkpt lat="45.95950172471806" lon="12.125524404553"><ele>214.75</ele><time>2026-05-01T10:19:20Z</time></trkpt><trkpt lat="45.95943456102063" lon="12.12535232738176"><ele>214.5</ele><time>2026-05-01T10:19:21Z</time></trkpt><trkpt lat="45.95936044929274" lon="12.125169847149232"><ele>214.25</ele><time>2026-05-01T10:19:22Z</time></trkpt><trkpt lat="45.959282128514516" lon="12.124987333013916"><ele>214.0</ele><time>2026-05-01T10:19:23Z</time></trkpt><trkpt lat="45.959197253395615" lon="12.124807865730121"><ele>213.33333333333331</ele><time>2026-05-01T10:19:24Z</time></trkpt><trkpt lat="45.95910488574297" lon="12.124631110428037"><ele>212.66666666666669</ele><time>2026-05-01T10:19:25Z</time></trkpt><trkpt lat="45.95900465323716" lon="12.12446034047828"><ele>212.0</ele><time>2026-05-01T10:19:26Z</time></trkpt><trkpt lat="45.95889642842062" lon="12.124291805742217"><ele>212.0</ele><time>2026-05-01T10:19:27Z</time></trkpt><trkpt lat="45.95878065404419" lon="12.124126631560113"><ele>212.0</ele><time>2026-05-01T10:19:28Z</time></trkpt><trkpt lat="45.95865906731553" lon="12.123968512883591"><ele>212.0</ele><time>2026-05-01T10:19:29Z</time></trkpt><trkpt lat="45.95853353440414" lon="12.123824772233071"><ele>210.66666666666669</ele><time>2026-05-01T10:19:30Z</time></trkpt><trkpt lat="45.958403710417606" lon="12.123691342518692"><ele>209.33333333333331</ele><time>2026-05-01T10:19:31Z</time></trkpt><trkpt lat="45.95827277784995" lon="12.123564892823678"><ele>208.0</ele><time>2026-05-01T10:19:32Z</time></trkpt><trkpt lat="45.95814324159862" lon="12.123448377151378"><ele>207.75</ele><time>2026-05-01T10:19:33Z</time></trkpt><trkpt lat="45.9580193199896" lon="12.1233359215898"><ele>207.5</ele><time>2026-05-01T10:19:34Z</time></trkpt><trkpt lat="45.95790114690433" lon="12.123224643599464"><ele>207.25</ele><time>2026-05-01T10:19:35Z</time></trkpt><trkpt lat="45.95778855681812" lon="12.123119319431561"><ele>207.0</ele><time>2026-05-01T10:19:36Z</time></trkpt><trkpt lat="45.957685567144935" lon="12.123021741489922"><ele>206.25</ele><time>2026-05-01T10:19:37Z</time></trkpt><trkpt lat="45.95758737045256" lon="12.122925844893782"><ele>205.5</ele><time>2026-05-01T10:19:38Z</time></trkpt><trkpt lat="45.957490440153286" lon="12.122831550766017"><ele>204.75</ele><time>2026-05-01T10:19:39Z</time></trkpt><trkpt lat="45.95739556792747" lon="12.122737881768375"><ele>204.0</ele><time>2026-05-01T10:19:40Z</time></trkpt><trkpt lat="45.95729971527003" lon="12.122646878480536"><ele>203.75</ele><time>2026-05-01T10:19:41Z</time></trkpt><trkpt lat="45.95720073994885" lon="12.122555448173692"><ele>203.5</ele><time>2026-05-01T10:19:42Z</time></trkpt><trkpt lat="45.95710184205277" lon="12.122465460899047"><ele>203.25</ele><time>2026-05-01T10:19:43Z</time></trkpt><trkpt lat="45.95699933623888" lon="12.122368789810388"><ele>203.0</ele><time>2026-05-01T10:19:44Z</time></trkpt><trkpt lat="45.95689613388038" lon="12.122270532481739"><ele>203.0</ele><time>2026-05-01T10:19:45Z</time></trkpt><trkpt lat="45.956791791939054" lon="12.122171874300095"><ele>203.0</ele><time>2026-05-01T10:19:46Z</time></trkpt><trkpt lat="45.956684060168996" lon="12.122067457490287"><ele>203.0</ele><time>2026-05-01T10:19:47Z</time></trkpt><trkpt lat="45.95657069557218" lon="12.12196267876706"><ele>203.0</ele><time>2026-05-01T10:19:48Z</time></trkpt><trkpt lat="45.95645246981967" lon="12.12185812339495"><ele>203.0</ele><time>2026-05-01T10:19:49Z</time></trkpt><trkpt lat="45.95633104045098" lon="12.121744028869335"><ele>203.0</ele><time>2026-05-01T10:19:50Z</time></trkpt><trkpt lat="45.95620899616823" lon="12.12163006657414"><ele>203.0</ele><time>2026-05-01T10:19:51Z</time></trkpt><trkpt lat="45.95608771278751" lon="12.121516925969903"><ele>203.0</ele><time>2026-05-01T10:19:52Z</time></trkpt><trkpt lat="45.95596715343998" lon="12.121405571669127"><ele>202.0</ele><time>2026-05-01T10:19:53Z</time></trkpt><trkpt lat="45.95584700267079" lon="12.121300391039387"><ele>201.0</ele><time>2026-05-01T10:19:54Z</time></trkpt><trkpt lat="45.95573245785292" lon="12.121194159470976"><ele>200.0</ele><time>2026-05-01T10:19:55Z</time></trkpt><trkpt lat="45.95561957742154" lon="12.121093416314382"><ele>199.0</ele><time>2026-05-01T10:19:56Z</time></trkpt><trkpt lat="45.95550979862553" lon="12.120993028084369"><ele>199.0</ele><time>2026-05-01T10:19:57Z</time></trkpt><trkpt lat="45.95540073145071" lon="12.120891982201606"><ele>199.0</ele><time>2026-05-01T10:19:58Z</time></trkpt><trkpt lat="45.955289903301484" lon="12.120791915804404"><ele>199.0</ele><time>2026-05-01T10:19:59Z</time></trkpt><trkpt lat="45.95518223671188" lon="12.120688391913033"><ele>199.0</ele><time>2026-05-01T10:20:00Z</time></trkpt><trkpt lat="45.955081179080814" lon="12.120586227510483"><ele>198.5</ele><time>2026-05-01T10:20:01Z</time></trkpt><trkpt lat="45.95498538456331" lon="12.120490304250751"><ele>198.0</ele><time>2026-05-01T10:20:02Z</time></trkpt><trkpt lat="45.954887789062106" lon="12.120393089491134"><ele>197.5</ele><time>2026-05-01T10:20:03Z</time></trkpt><trkpt lat="45.954790470856736" lon="12.120292011860819"><ele>197.0</ele><time>2026-05-01T10:20:04Z</time></trkpt><trkpt lat="45.954696040386835" lon="12.120190432821111"><ele>197.0</ele><time>2026-05-01T10:20:05Z</time></trkpt><trkpt lat="45.95460572114046" lon="12.120095686656233"><ele>197.0</ele><time>2026-05-01T10:20:06Z</time></trkpt><trkpt lat="45.95452309736931" lon="12.120009172327462"><ele>197.0</ele><time>2026-05-01T10:20:07Z</time></trkpt><trkpt lat="45.95444633600895" lon="12.11992982520573"><ele>197.0</ele><time>2026-05-01T10:20:08Z</time></trkpt><trkpt lat="45.95436552621872" lon="12.119849234682384"><ele>197.0</ele><time>2026-05-01T10:20:09Z</time></trkpt><trkpt lat="45.95428816772259" lon="12.119769838479"><ele>197.50000000000003</ele><time>2026-05-01T10:20:10Z</time></trkpt><trkpt lat="45.95421752317201" lon="12.119698155534206"><ele>198.0</ele><time>2026-05-01T10:20:10.999Z</time></trkpt><trkpt lat="45.95415021026209" lon="12.11963191838333"><ele>198.5</ele><time>2026-05-01T10:20:11.999Z</time></trkpt><trkpt lat="45.954079365505855" lon="12.119556702587"><ele>199.0</ele><time>2026-05-01T10:20:12.999Z</time></trkpt><trkpt lat="45.9540049826" lon="12.119476331831438"><ele>199.50000000000003</ele><time>2026-05-01T10:20:13.999Z</time></trkpt><trkpt lat="45.953928633989044" lon="12.119388553244299"><ele>200.0</ele><time>2026-05-01T10:20:14.999Z</time></trkpt><trkpt lat="45.953864055380684" lon="12.119269904148645"><ele>200.0</ele><time>2026-05-01T10:20:15.999Z</time></trkpt><trkpt lat="45.953773213156026" lon="12.119166163104557"><ele>200.0</ele><time>2026-05-01T10:20:16.999Z</time></trkpt><trkpt lat="45.9537078340454" lon="12.119002728990347"><ele>200.0</ele><time>2026-05-01T10:20:17.999Z</time></trkpt><trkpt lat="45.95363967432846" lon="12.118851924406949"><ele>200.0</ele><time>2026-05-01T10:20:18.999Z</time></trkpt><trkpt lat="45.9535605672551" lon="12.118710690064317"><ele>199.0</ele><time>2026-05-01T10:20:19.999Z</time></trkpt><trkpt lat="45.95349063201425" lon="12.118563046956371"><ele>198.0</ele><time>2026-05-01T10:20:20.999Z</time></trkpt><trkpt lat="45.953416807329205" lon="12.118416159978509"><ele>197.0</ele><time>2026-05-01T10:20:21.999Z</time></trkpt><trkpt lat="45.9533261488497" lon="12.118297482286138"><ele>196.0</ele><time>2026-05-01T10:20:22.999Z</time></trkpt><trkpt lat="45.95323617349636" lon="12.118189049940023"><ele>195.5</ele><time>2026-05-01T10:20:23.999Z</time></trkpt><trkpt lat="45.95313716551725" lon="12.118082196602366"><ele>195.0</ele><time>2026-05-01T10:20:25Z</time></trkpt><trkpt lat="45.95305631848528" lon="12.117939815058833"><ele>194.5</ele><time>2026-05-01T10:20:26Z</time></trkpt><trkpt lat="45.95297615087208" lon="12.117781226646672"><ele>194.0</ele><time>2026-05-01T10:20:27Z</time></trkpt><trkpt lat="45.952894898648665" lon="12.117614500271516"><ele>194.0</ele><time>2026-05-01T10:20:28Z</time></trkpt><trkpt lat="45.95280880382687" lon="12.117445023645102"><ele>194.0</ele><time>2026-05-01T10:20:29Z</time></trkpt><trkpt lat="45.95272128241856" lon="12.117276842711371"><ele>194.0</ele><time>2026-05-01T10:20:30Z</time></trkpt><trkpt lat="45.95263639117148" lon="12.11711026913982"><ele>194.0</ele><time>2026-05-01T10:20:31Z</time></trkpt><trkpt lat="45.95256419463577" lon="12.116926917236224"><ele>194.66666666666669</ele><time>2026-05-01T10:20:32Z</time></trkpt><trkpt lat="45.95247774186602" lon="12.11675213462594"><ele>195.33333333333331</ele><time>2026-05-01T10:20:33Z</time></trkpt><trkpt lat="45.9523729533501" lon="12.116585564868249"><ele>196.0</ele><time>2026-05-01T10:20:34Z</time></trkpt><trkpt lat="45.95228242077049" lon="12.116396226447874"><ele>196.0</ele><time>2026-05-01T10:20:35Z</time></trkpt><trkpt lat="45.95219085186693" lon="12.116202672311056"><ele>196.0</ele><time>2026-05-01T10:20:36Z</time></trkpt><trkpt lat="45.95210293759779" lon="12.116000144873956"><ele>196.0</ele><time>2026-05-01T10:20:37Z</time></trkpt><trkpt lat="45.95202176285057" lon="12.115769565741282"><ele>197.0</ele><time>2026-05-01T10:20:38Z</time></trkpt><trkpt lat="45.95194697409268" lon="12.115522964024498"><ele>198.0</ele><time>2026-05-01T10:20:39Z</time></trkpt><trkpt lat="45.95189321413503" lon="12.115286001674038"><ele>199.0</ele><time>2026-05-01T10:20:40Z</time></trkpt><trkpt lat="45.951851142045946" lon="12.115059722206412"><ele>200.0</ele><time>2026-05-01T10:20:41Z</time></trkpt><trkpt lat="45.95182106712671" lon="12.114821871496927"><ele>201.0</ele><time>2026-05-01T10:20:42Z</time></trkpt><trkpt lat="45.95179981240297" lon="12.11457390033027"><ele>202.0</ele><time>2026-05-01T10:20:43Z</time></trkpt><trkpt lat="45.951782642919675" lon="12.11432995265795"><ele>202.0</ele><time>2026-05-01T10:20:44Z</time></trkpt><trkpt lat="45.95176911569961" lon="12.114097194305874"><ele>202.0</ele><time>2026-05-01T10:20:45Z</time></trkpt><trkpt lat="45.9517562225453" lon="12.113875052915695"><ele>202.0</ele><time>2026-05-01T10:20:46Z</time></trkpt><trkpt lat="45.95174242930497" lon="12.11365639225332"><ele>203.33333333333331</ele><time>2026-05-01T10:20:47Z</time></trkpt><trkpt lat="45.9517301480741" lon="12.113442040769284"><ele>204.66666666666669</ele><time>2026-05-01T10:20:48Z</time></trkpt><trkpt lat="45.951716115028525" lon="12.113224268824233"><ele>206.0</ele><time>2026-05-01T10:20:49Z</time></trkpt><trkpt lat="45.95170142226901" lon="12.113003938639668"><ele>206.0</ele><time>2026-05-01T10:20:50Z</time></trkpt><trkpt lat="45.95168611217956" lon="12.11278481414835"><ele>206.0</ele><time>2026-05-01T10:20:51Z</time></trkpt><trkpt lat="45.951671002944266" lon="12.112565016912466"><ele>206.0</ele><time>2026-05-01T10:20:52Z</time></trkpt><trkpt lat="45.9516591434355" lon="12.112351505883998"><ele>206.75</ele><time>2026-05-01T10:20:53Z</time></trkpt><trkpt lat="45.9516448112394" lon="12.112142283771483"><ele>207.5</ele><time>2026-05-01T10:20:54Z</time></trkpt><trkpt lat="45.95162768534045" lon="12.111936261821056"><ele>208.25</ele><time>2026-05-01T10:20:55Z</time></trkpt><trkpt lat="45.95160303451205" lon="12.111734340090074"><ele>209.0</ele><time>2026-05-01T10:20:56Z</time></trkpt><trkpt lat="45.951565560397185" lon="12.111538376299114"><ele>210.0</ele><time>2026-05-01T10:20:57Z</time></trkpt><trkpt lat="45.951516307842596" lon="12.111345514567386"><ele>211.0</ele><time>2026-05-01T10:20:58Z</time></trkpt><trkpt lat="45.951451884007696" lon="12.111150233433577"><ele>212.0</ele><time>2026-05-01T10:20:59Z</time></trkpt><trkpt lat="45.951372403524324" lon="12.11095788564884"><ele>213.0</ele><time>2026-05-01T10:21:00Z</time></trkpt><trkpt lat="45.951289951618904" lon="12.110764122452277"><ele>214.66666666666669</ele><time>2026-05-01T10:21:01Z</time></trkpt><trkpt lat="45.95120444893862" lon="12.110565179082734"><ele>216.33333333333334</ele><time>2026-05-01T10:21:02Z</time></trkpt><trkpt lat="45.95111699135739" lon="12.110366678879615"><ele>218.0</ele><time>2026-05-01T10:21:03Z</time></trkpt><trkpt lat="45.951042237287275" lon="12.110152405039845"><ele>218.0</ele><time>2026-05-01T10:21:04Z</time></trkpt><trkpt lat="45.95095668399553" lon="12.109951863612707"><ele>218.0</ele><time>2026-05-01T10:21:05Z</time></trkpt><trkpt lat="45.95086874590875" lon="12.10975154622481"><ele>218.0</ele><time>2026-05-01T10:21:06Z</time></trkpt><trkpt lat="45.95077723363823" lon="12.109551929753794"><ele>218.0</ele><time>2026-05-01T10:21:07Z</time></trkpt><trkpt lat="45.950679727618535" lon="12.109356781524944"><ele>218.0</ele><time>2026-05-01T10:21:08Z</time></trkpt><trkpt lat="45.950560636467905" lon="12.10918627694346"><ele>218.0</ele><time>2026-05-01T10:21:09Z</time></trkpt><trkpt lat="45.95044106493318" lon="12.109019110747157"><ele>218.0</ele><time>2026-05-01T10:21:10Z</time></trkpt><trkpt lat="45.95031574714941" lon="12.108858752392695"><ele>218.0</ele><time>2026-05-01T10:21:11Z</time></trkpt><trkpt lat="45.95018252389028" lon="12.1087099794482"><ele>218.0</ele><time>2026-05-01T10:21:12Z</time></trkpt><trkpt lat="45.95005614534863" lon="12.108565475118626"><ele>218.0</ele><time>2026-05-01T10:21:13Z</time></trkpt><trkpt lat="45.949933109541654" lon="12.10842345402826"><ele>218.0</ele><time>2026-05-01T10:21:14Z</time></trkpt><trkpt lat="45.949812027643155" lon="12.108285553023137"><ele>218.0</ele><time>2026-05-01T10:21:15Z</time></trkpt><trkpt lat="45.94969094591267" lon="12.108149947528664"><ele>218.0</ele><time>2026-05-01T10:21:16Z</time></trkpt><trkpt lat="45.949569809143505" lon="12.10801213707498"><ele>218.0</ele><time>2026-05-01T10:21:17Z</time></trkpt><trkpt lat="45.94944865488813" lon="12.107870336553068"><ele>218.0</ele><time>2026-05-01T10:21:18Z</time></trkpt><trkpt lat="45.94932679404116" lon="12.107730149689704"><ele>218.0</ele><time>2026-05-01T10:21:19Z</time></trkpt><trkpt lat="45.94920243010137" lon="12.10758995017857"><ele>218.0</ele><time>2026-05-01T10:21:20Z</time></trkpt><trkpt lat="45.949079457850445" lon="12.107448050103695"><ele>218.0</ele><time>2026-05-01T10:21:21Z</time></trkpt><trkpt lat="45.948954573960805" lon="12.107307330094802"><ele>220.33333333333334</ele><time>2026-05-01T10:21:22Z</time></trkpt><trkpt lat="45.94883282639402" lon="12.10716500169416"><ele>222.66666666666669</ele><time>2026-05-01T10:21:23Z</time></trkpt><trkpt lat="45.94871044974172" lon="12.107022017595556"><ele>225.0</ele><time>2026-05-01T10:21:24Z</time></trkpt><trkpt lat="45.94858728394968" lon="12.106880319513854"><ele>225.0</ele><time>2026-05-01T10:21:25Z</time></trkpt><trkpt lat="45.94846981031817" lon="12.106736445554194"><ele>225.0</ele><time>2026-05-01T10:21:26Z</time></trkpt><trkpt lat="45.94835829907633" lon="12.106586291495487"><ele>225.0</ele><time>2026-05-01T10:21:27Z</time></trkpt><trkpt lat="45.948252591896704" lon="12.10642651111374"><ele>226.0</ele><time>2026-05-01T10:21:28Z</time></trkpt><trkpt lat="45.94815624368638" lon="12.106255983954645"><ele>227.0</ele><time>2026-05-01T10:21:29Z</time></trkpt><trkpt lat="45.94806362088631" lon="12.106078513135984"><ele>228.0</ele><time>2026-05-01T10:21:30Z</time></trkpt><trkpt lat="45.947969047151524" lon="12.105894863159774"><ele>229.66666666666669</ele><time>2026-05-01T10:21:31Z</time></trkpt><trkpt lat="45.947874472728095" lon="12.105709878339914"><ele>231.33333333333334</ele><time>2026-05-01T10:21:32Z</time></trkpt><trkpt lat="45.94778215119045" lon="12.105524771524772"><ele>233.0</ele><time>2026-05-01T10:21:33Z</time></trkpt><trkpt lat="45.947688112455836" lon="12.105342796018354"><ele>233.0</ele><time>2026-05-01T10:21:34Z</time></trkpt><trkpt lat="45.947596056896266" lon="12.10515869014808"><ele>233.0</ele><time>2026-05-01T10:21:35Z</time></trkpt><trkpt lat="45.94750639539243" lon="12.104976976620463"><ele>233.0</ele><time>2026-05-01T10:21:36Z</time></trkpt><trkpt lat="45.9474164474471" lon="12.104795194404838"><ele>233.75</ele><time>2026-05-01T10:21:37Z</time></trkpt><trkpt lat="45.947328640609825" lon="12.104613411966813"><ele>234.5</ele><time>2026-05-01T10:21:38Z</time></trkpt><trkpt lat="45.94724267161616" lon="12.104435753841637"><ele>235.25</ele><time>2026-05-01T10:21:39Z</time></trkpt><trkpt lat="45.947166121837775" lon="12.104261932279197"><ele>236.0</ele><time>2026-05-01T10:21:40Z</time></trkpt><trkpt lat="45.947093246137584" lon="12.104083580534136"><ele>237.66666666666669</ele><time>2026-05-01T10:21:41Z</time></trkpt><trkpt lat="45.94702461927781" lon="12.10389814289083"><ele>239.33333333333331</ele><time>2026-05-01T10:21:42Z</time></trkpt><trkpt lat="45.946961145653326" lon="12.103699653960613"><ele>241.0</ele><time>2026-05-01T10:21:43Z</time></trkpt><trkpt lat="45.94689865629376" lon="12.103490221955628"><ele>241.0</ele><time>2026-05-01T10:21:44Z</time></trkpt><trkpt lat="45.946834370627236" lon="12.103273205612656"><ele>241.0</ele><time>2026-05-01T10:21:45Z</time></trkpt><trkpt lat="45.94677145617129" lon="12.103055308243526"><ele>241.0</ele><time>2026-05-01T10:21:46Z</time></trkpt><trkpt lat="45.94671030334242" lon="12.1028384616155"><ele>241.66666666666666</ele><time>2026-05-01T10:21:47Z</time></trkpt><trkpt lat="45.946645973561424" lon="12.102621205132422"><ele>242.33333333333331</ele><time>2026-05-01T10:21:48Z</time></trkpt><trkpt lat="45.94658243720972" lon="12.10240552901987"><ele>243.0</ele><time>2026-05-01T10:21:49Z</time></trkpt><trkpt lat="45.94651897238774" lon="12.102193038923204"><ele>244.0</ele><time>2026-05-01T10:21:50Z</time></trkpt><trkpt lat="45.94645542410444" lon="12.101978566731017"><ele>245.0</ele><time>2026-05-01T10:21:51Z</time></trkpt><trkpt lat="45.946390323848526" lon="12.101758630132151"><ele>246.0</ele><time>2026-05-01T10:21:52Z</time></trkpt><trkpt lat="45.94632439373152" lon="12.101535643215435"><ele>247.66666666666669</ele><time>2026-05-01T10:21:53Z</time></trkpt><trkpt lat="45.94626090273442" lon="12.101316176714896"><ele>249.33333333333334</ele><time>2026-05-01T10:21:54Z</time></trkpt><trkpt lat="45.94619691491721" lon="12.10109700944896"><ele>251.0</ele><time>2026-05-01T10:21:55Z</time></trkpt><trkpt lat="45.946131532648465" lon="12.100877609106655"><ele>253.0</ele><time>2026-05-01T10:21:56Z</time></trkpt><trkpt lat="45.946068709482894" lon="12.100661862957244"><ele>255.0</ele><time>2026-05-01T10:21:57Z</time></trkpt><trkpt lat="45.9460036744485" lon="12.100448577863789"><ele>257.0</ele><time>2026-05-01T10:21:58Z</time></trkpt><trkpt lat="45.94593756358927" lon="12.10023231535933"><ele>256.33333333333337</ele><time>2026-05-01T10:21:59Z</time></trkpt><trkpt lat="45.945870317766335" lon="12.100011949851485"><ele>255.66666666666669</ele><time>2026-05-01T10:22:00Z</time></trkpt><trkpt lat="45.945805268776965" lon="12.099787747443807"><ele>255.0</ele><time>2026-05-01T10:22:01Z</time></trkpt><trkpt lat="45.945739934363516" lon="12.099560930505593"><ele>255.0</ele><time>2026-05-01T10:22:02Z</time></trkpt><trkpt lat="45.945670268075396" lon="12.099330939426205"><ele>255.0</ele><time>2026-05-01T10:22:03Z</time></trkpt><trkpt lat="45.94560348910936" lon="12.09909786381951"><ele>255.0</ele><time>2026-05-01T10:22:04Z</time></trkpt><trkpt lat="45.94553597231102" lon="12.09886650052556"><ele>256.3333333333333</ele><time>2026-05-01T10:22:05Z</time></trkpt><trkpt lat="45.945467132026145" lon="12.098637081799334"><ele>257.66666666666663</ele><time>2026-05-01T10:22:06Z</time></trkpt><trkpt lat="45.94539905631609" lon="12.098407418508915"><ele>259.0</ele><time>2026-05-01T10:22:07Z</time></trkpt><trkpt lat="45.94533104865419" lon="12.098181164704846"><ele>260.66666666666663</ele><time>2026-05-01T10:22:08Z</time></trkpt><trkpt lat="45.94526640210775" lon="12.09796122818671"><ele>262.3333333333333</ele><time>2026-05-01T10:22:09Z</time></trkpt><trkpt lat="45.94520221421748" lon="12.097747399556821"><ele>264.0</ele><time>2026-05-01T10:22:10Z</time></trkpt><trkpt lat="45.9451407011929" lon="12.097538590710005"><ele>264.5</ele><time>2026-05-01T10:22:11Z</time></trkpt><trkpt lat="45.94508026589727" lon="12.097336121819335"><ele>265.0</ele><time>2026-05-01T10:22:12Z</time></trkpt><trkpt lat="45.94502552258826" lon="12.09714732010453"><ele>265.5</ele><time>2026-05-01T10:22:13Z</time></trkpt><trkpt lat="45.94497334177081" lon="12.096966255452925"><ele>266.0</ele><time>2026-05-01T10:22:13.999Z</time></trkpt><trkpt lat="45.94492461316807" lon="12.096789111891859"><ele>265.0</ele><time>2026-05-01T10:22:14.999Z</time></trkpt><trkpt lat="45.944873105565144" lon="12.09661609735502"><ele>264.0</ele><time>2026-05-01T10:22:15.999Z</time></trkpt><trkpt lat="45.944823287235394" lon="12.096446886990146"><ele>263.0</ele><time>2026-05-01T10:22:16.999Z</time></trkpt><trkpt lat="45.944774457969935" lon="12.096284334444425"><ele>262.0</ele><time>2026-05-01T10:22:17.999Z</time></trkpt><trkpt lat="45.944725813712225" lon="12.096125582061475"><ele>262.0</ele><time>2026-05-01T10:22:18.999Z</time></trkpt><trkpt lat="45.94468030915148" lon="12.095966905225772"><ele>262.0</ele><time>2026-05-01T10:22:19.999Z</time></trkpt><trkpt lat="45.944633915809035" lon="12.095808521929536"><ele>262.0</ele><time>2026-05-01T10:22:20.999Z</time></trkpt><trkpt lat="45.94458800980861" lon="12.09565186732416"><ele>262.0</ele><time>2026-05-01T10:22:21.999Z</time></trkpt><trkpt lat="45.94454285389926" lon="12.095501727266381"><ele>262.25</ele><time>2026-05-01T10:22:22.999Z</time></trkpt><trkpt lat="45.944499819455295" lon="12.095355995097313"><ele>262.5</ele><time>2026-05-01T10:22:23.999Z</time></trkpt><trkpt lat="45.94445434894482" lon="12.09520014234996"><ele>262.75</ele><time>2026-05-01T10:22:24.999Z</time></trkpt><trkpt lat="45.9444164004688" lon="12.095032882951555"><ele>263.0</ele><time>2026-05-01T10:22:25.999Z</time></trkpt><trkpt lat="45.94438884258774" lon="12.094864814270377"><ele>263.0</ele><time>2026-05-01T10:22:26.999Z</time></trkpt><trkpt lat="45.9443721812395" lon="12.094701932677928"><ele>263.0</ele><time>2026-05-01T10:22:27.999Z</time></trkpt><trkpt lat="45.94436668994452" lon="12.094562531482964"><ele>263.0</ele><time>2026-05-01T10:22:28.999Z</time></trkpt><trkpt lat="45.944379429878495" lon="12.094429613183944"><ele>263.0</ele><time>2026-05-01T10:22:29.999Z</time></trkpt><trkpt lat="45.9443653039337" lon="12.094296888737086"><ele>263.0</ele><time>2026-05-01T10:22:31Z</time></trkpt><trkpt lat="45.944370196329174" lon="12.094166034866838"><ele>263.2</ele><time>2026-05-01T10:22:32Z</time></trkpt><trkpt lat="45.94437257854727" lon="12.094032863542106"><ele>263.4</ele><time>2026-05-01T10:22:33Z</time></trkpt><trkpt lat="45.944365490525904" lon="12.093904257176536"><ele>263.59999999999997</ele><time>2026-05-01T10:22:34Z</time></trkpt><trkpt lat="45.94434204845254" lon="12.09378092272665"><ele>263.8</ele><time>2026-05-01T10:22:35Z</time></trkpt><trkpt lat="45.944302313281064" lon="12.093666286546533"><ele>264.0</ele><time>2026-05-01T10:22:36Z</time></trkpt><trkpt lat="45.944249420976" lon="12.0935615724176"><ele>263.0</ele><time>2026-05-01T10:22:37Z</time></trkpt><trkpt lat="45.94417737139911" lon="12.093476341570677"><ele>262.0</ele><time>2026-05-01T10:22:38Z</time></trkpt><trkpt lat="45.944087158907024" lon="12.0934043417543"><ele>261.0</ele><time>2026-05-01T10:22:39Z</time></trkpt><trkpt lat="45.94401288674342" lon="12.093304746994482"><ele>260.0</ele><time>2026-05-01T10:22:40Z</time></trkpt><trkpt lat="45.943937427190775" lon="12.093213135988318"><ele>259.0</ele><time>2026-05-01T10:22:41Z</time></trkpt><trkpt lat="45.94385421893818" lon="12.093134583507567"><ele>259.0</ele><time>2026-05-01T10:22:42Z</time></trkpt><trkpt lat="45.943783850862076" lon="12.093029840544348"><ele>259.0</ele><time>2026-05-01T10:22:43Z</time></trkpt><trkpt lat="45.943713413976134" lon="12.09291841790365"><ele>259.0</ele><time>2026-05-01T10:22:44Z</time></trkpt><trkpt lat="45.943639922508424" lon="12.092793905450156"><ele>259.0</ele><time>2026-05-01T10:22:45Z</time></trkpt><trkpt lat="45.94357252832621" lon="12.092642575221788"><ele>259.0</ele><time>2026-05-01T10:22:46Z</time></trkpt><trkpt lat="45.943477241881034" lon="12.092516159471447"><ele>259.25</ele><time>2026-05-01T10:22:47Z</time></trkpt><trkpt lat="45.94339318897693" lon="12.092376443628659"><ele>259.5</ele><time>2026-05-01T10:22:48Z</time></trkpt><trkpt lat="45.943310143055406" lon="12.092238253585073"><ele>259.75</ele><time>2026-05-01T10:22:49Z</time></trkpt><trkpt lat="45.94322735476902" lon="12.092098311102976"><ele>260.0</ele><time>2026-05-01T10:22:50Z</time></trkpt><trkpt lat="45.94313713166439" lon="12.091956354507708"><ele>260.0</ele><time>2026-05-01T10:22:51Z</time></trkpt><trkpt lat="45.94305069029252" lon="12.091808744908692"><ele>260.0</ele><time>2026-05-01T10:22:52Z</time></trkpt><trkpt lat="45.942954952097864" lon="12.091661216810415"><ele>260.0</ele><time>2026-05-01T10:22:53Z</time></trkpt><trkpt lat="45.9428574994348" lon="12.091512873373985"><ele>260.0</ele><time>2026-05-01T10:22:54Z</time></trkpt><trkpt lat="45.94276442051967" lon="12.091362563130142"><ele>259.75</ele><time>2026-05-01T10:22:55Z</time></trkpt><trkpt lat="45.94267014626577" lon="12.091214643632203"><ele>259.5</ele><time>2026-05-01T10:22:56Z</time></trkpt><trkpt lat="45.94257760896897" lon="12.091070269956655"><ele>259.25</ele><time>2026-05-01T10:22:57Z</time></trkpt><trkpt lat="45.942487856825565" lon="12.090928971485518"><ele>259.0</ele><time>2026-05-01T10:22:58Z</time></trkpt><trkpt lat="45.94239897784562" lon="12.090788818144153"><ele>259.5</ele><time>2026-05-01T10:22:59Z</time></trkpt><trkpt lat="45.94231024977716" lon="12.090649102157434"><ele>260.0</ele><time>2026-05-01T10:23:00Z</time></trkpt><trkpt lat="45.942219716475655" lon="12.090510496789515"><ele>260.5</ele><time>2026-05-01T10:23:01Z</time></trkpt><trkpt lat="45.94213179541132" lon="12.090363322619158"><ele>261.0</ele><time>2026-05-01T10:23:02Z</time></trkpt><trkpt lat="45.94204060611279" lon="12.090216394680883"><ele>261.0</ele><time>2026-05-01T10:23:03Z</time></trkpt><trkpt lat="45.941951887845434" lon="12.090068159249643"><ele>261.0</ele><time>2026-05-01T10:23:04Z</time></trkpt><trkpt lat="45.94186776582378" lon="12.089918083794636"><ele>261.0</ele><time>2026-05-01T10:23:05Z</time></trkpt><trkpt lat="45.941792625235315" lon="12.089764893473724"><ele>261.0</ele><time>2026-05-01T10:23:06Z</time></trkpt><trkpt lat="45.94170219602216" lon="12.08959573196834"><ele>261.6666666666667</ele><time>2026-05-01T10:23:07Z</time></trkpt><trkpt lat="45.94161193387294" lon="12.089407925010605"><ele>262.33333333333337</ele><time>2026-05-01T10:23:08Z</time></trkpt><trkpt lat="45.94149985303598" lon="12.089220793560942"><ele>263.0</ele><time>2026-05-01T10:23:09Z</time></trkpt><trkpt lat="45.941382776657576" lon="12.089043952325914"><ele>264.0</ele><time>2026-05-01T10:23:10Z</time></trkpt><trkpt lat="45.94126650481411" lon="12.088880316123648"><ele>265.0</ele><time>2026-05-01T10:23:11Z</time></trkpt><trkpt lat="45.94115013275692" lon="12.088713434157638"><ele>266.0</ele><time>2026-05-01T10:23:12Z</time></trkpt><trkpt lat="45.94104159602022" lon="12.088539172471814"><ele>266.0</ele><time>2026-05-01T10:23:13Z</time></trkpt><trkpt lat="45.94095356186418" lon="12.088370616811181"><ele>266.0</ele><time>2026-05-01T10:23:14Z</time></trkpt><trkpt lat="45.94086376393389" lon="12.088199816783497"><ele>266.0</ele><time>2026-05-01T10:23:15Z</time></trkpt><trkpt lat="45.94078313398887" lon="12.088034417993214"><ele>266.0</ele><time>2026-05-01T10:23:16Z</time></trkpt><trkpt lat="45.94070929304793" lon="12.087873214836842"><ele>265.75</ele><time>2026-05-01T10:23:17Z</time></trkpt><trkpt lat="45.94064358720549" lon="12.087714070553142"><ele>265.5</ele><time>2026-05-01T10:23:18Z</time></trkpt><trkpt lat="45.940571935093764" lon="12.087539594517892"><ele>265.25</ele><time>2026-05-01T10:23:19Z</time></trkpt><trkpt lat="45.94049685908583" lon="12.087352290277284"><ele>265.0</ele><time>2026-05-01T10:23:20Z</time></trkpt><trkpt lat="45.94042444994095" lon="12.08716278689731"><ele>265.75</ele><time>2026-05-01T10:23:21Z</time></trkpt><trkpt lat="45.94034903564484" lon="12.08697629439698"><ele>266.5</ele><time>2026-05-01T10:23:22Z</time></trkpt><trkpt lat="45.94027516908082" lon="12.086797023241992"><ele>267.25</ele><time>2026-05-01T10:23:23Z</time></trkpt><trkpt lat="45.94020143223201" lon="12.086627758271748"><ele>268.0</ele><time>2026-05-01T10:23:24Z</time></trkpt><trkpt lat="45.9401176992828" lon="12.086474089016768"><ele>268.25</ele><time>2026-05-01T10:23:25Z</time></trkpt><trkpt lat="45.94001414969527" lon="12.086344327053203"><ele>268.5</ele><time>2026-05-01T10:23:26Z</time></trkpt><trkpt lat="45.93990277106489" lon="12.086223150672717"><ele>268.75</ele><time>2026-05-01T10:23:27Z</time></trkpt><trkpt lat="45.93977815612044" lon="12.086112993379395"><ele>269.0</ele><time>2026-05-01T10:23:28Z</time></trkpt><trkpt lat="45.939657368806465" lon="12.086006633009053"><ele>269.0</ele><time>2026-05-01T10:23:29Z</time></trkpt><trkpt lat="45.93953539504374" lon="12.085904248171813"><ele>269.0</ele><time>2026-05-01T10:23:30Z</time></trkpt><trkpt lat="45.93941728420993" lon="12.085802500393093"><ele>269.0</ele><time>2026-05-01T10:23:31Z</time></trkpt><trkpt lat="45.93930287929654" lon="12.08569847608741"><ele>269.0</ele><time>2026-05-01T10:23:32Z</time></trkpt><trkpt lat="45.93919052360624" lon="12.085594165792223"><ele>271.0</ele><time>2026-05-01T10:23:33Z</time></trkpt><trkpt lat="45.939076628275494" lon="12.08548830044471"><ele>273.0</ele><time>2026-05-01T10:23:34Z</time></trkpt><trkpt lat="45.938965233125884" lon="12.085384874273826"><ele>275.0</ele><time>2026-05-01T10:23:35Z</time></trkpt><trkpt lat="45.93885544930832" lon="12.085280302958463"><ele>277.0</ele><time>2026-05-01T10:23:36Z</time></trkpt><trkpt lat="45.93875811647636" lon="12.085170982916221"><ele>277.0</ele><time>2026-05-01T10:23:37Z</time></trkpt><trkpt lat="45.93867511563786" lon="12.085046299757764"><ele>277.0</ele><time>2026-05-01T10:23:38Z</time></trkpt><trkpt lat="45.938603655607636" lon="12.084931674564183"><ele>277.0</ele><time>2026-05-01T10:23:39Z</time></trkpt><trkpt lat="45.938530898184155" lon="12.08482774528102"><ele>277.0</ele><time>2026-05-01T10:23:40Z</time></trkpt><trkpt lat="45.93843757200007" lon="12.084740729270232"><ele>277.0</ele><time>2026-05-01T10:23:41Z</time></trkpt><trkpt lat="45.9383324532393" lon="12.084691191639353"><ele>278.4</ele><time>2026-05-01T10:23:42Z</time></trkpt><trkpt lat="45.93821644479722" lon="12.084658305634163"><ele>279.79999999999995</ele><time>2026-05-01T10:23:43Z</time></trkpt><trkpt lat="45.93812054106763" lon="12.084626874787954"><ele>281.2</ele><time>2026-05-01T10:23:44Z</time></trkpt><trkpt lat="45.93802846231316" lon="12.084598248818486"><ele>282.59999999999997</ele><time>2026-05-01T10:23:45Z</time></trkpt><trkpt lat="45.93793757910182" lon="12.084563511519537"><ele>284.0</ele><time>2026-05-01T10:23:46Z</time></trkpt><trkpt lat="45.93783459638404" lon="12.08449912222258"><ele>284.0</ele><time>2026-05-01T10:23:47Z</time></trkpt><trkpt lat="45.937739444527566" lon="12.084394783443694"><ele>284.0</ele><time>2026-05-01T10:23:48Z</time></trkpt><trkpt lat="45.93766192224832" lon="12.084254575597846"><ele>284.0</ele><time>2026-05-01T10:23:49Z</time></trkpt><trkpt lat="45.93759449223848" lon="12.08407853716833"><ele>284.0</ele><time>2026-05-01T10:23:50Z</time></trkpt><trkpt lat="45.937529438457545" lon="12.083888849211096"><ele>286.0</ele><time>2026-05-01T10:23:51Z</time></trkpt><trkpt lat="45.93745192459564" lon="12.083695951440856"><ele>288.0</ele><time>2026-05-01T10:23:52Z</time></trkpt><trkpt lat="45.937359153428005" lon="12.083517009254448"><ele>290.0</ele><time>2026-05-01T10:23:53Z</time></trkpt><trkpt lat="45.93726503540942" lon="12.08334866067623"><ele>291.5</ele><time>2026-05-01T10:23:54Z</time></trkpt><trkpt lat="45.93717513528648" lon="12.083179632149557"><ele>293.0</ele><time>2026-05-01T10:23:55Z</time></trkpt><trkpt lat="45.9370819912045" lon="12.083015884500544"><ele>294.5</ele><time>2026-05-01T10:23:56Z</time></trkpt><trkpt lat="45.93698957915211" lon="12.082847899136649"><ele>296.0</ele><time>2026-05-01T10:23:57Z</time></trkpt><trkpt lat="45.9369078602717" lon="12.08267433357023"><ele>296.0</ele><time>2026-05-01T10:23:58Z</time></trkpt><trkpt lat="45.936843973790246" lon="12.08249462410424"><ele>296.0</ele><time>2026-05-01T10:23:59Z</time></trkpt><trkpt lat="45.93679506883804" lon="12.082310006153344"><ele>296.0</ele><time>2026-05-01T10:24:00Z</time></trkpt><trkpt lat="45.936761084127966" lon="12.08212223074297"><ele>296.0</ele><time>2026-05-01T10:24:01Z</time></trkpt><trkpt lat="45.936740957515525" lon="12.08192095692174"><ele>297.25</ele><time>2026-05-01T10:24:02Z</time></trkpt><trkpt lat="45.93673478543204" lon="12.081708769578263"><ele>298.5</ele><time>2026-05-01T10:24:03Z</time></trkpt><trkpt lat="45.936736098187495" lon="12.081503371834025"><ele>299.75</ele><time>2026-05-01T10:24:04Z</time></trkpt><trkpt lat="45.93673781877093" lon="12.081300892411155"><ele>301.0</ele><time>2026-05-01T10:24:05Z</time></trkpt><trkpt lat="45.93672990057422" lon="12.081094319617225"><ele>299.66666666666663</ele><time>2026-05-01T10:24:06Z</time></trkpt><trkpt lat="45.93671297757209" lon="12.080888344156765"><ele>298.3333333333333</ele><time>2026-05-01T10:24:07Z</time></trkpt><trkpt lat="45.93667179994308" lon="12.080682366520357"><ele>297.0</ele><time>2026-05-01T10:24:08Z</time></trkpt><trkpt lat="45.93660423239319" lon="12.080472929468003"><ele>301.6666666666667</ele><time>2026-05-01T10:24:09Z</time></trkpt><trkpt lat="45.936524841132965" lon="12.08028153036371"><ele>306.33333333333337</ele><time>2026-05-01T10:24:10Z</time></trkpt><trkpt lat="45.93643574504355" lon="12.080093950409845"><ele>311.0</ele><time>2026-05-01T10:24:11Z</time></trkpt><trkpt lat="45.93634258128471" lon="12.07990577043931"><ele>317.0</ele><time>2026-05-01T10:24:12Z</time></trkpt><trkpt lat="45.936249513511086" lon="12.079716980749396"><ele>323.0</ele><time>2026-05-01T10:24:13Z</time></trkpt><trkpt lat="45.936157846059686" lon="12.079527349703591"><ele>329.0</ele><time>2026-05-01T10:24:14Z</time></trkpt><trkpt lat="45.93605588053524" lon="12.079346855965483"><ele>329.0</ele><time>2026-05-01T10:24:15Z</time></trkpt><trkpt lat="45.93592785334184" lon="12.079180534794782"><ele>329.0</ele><time>2026-05-01T10:24:16Z</time></trkpt><trkpt lat="45.93582257993454" lon="12.079004359095052"><ele>329.0</ele><time>2026-05-01T10:24:17Z</time></trkpt><trkpt lat="45.93570516153137" lon="12.078870540452366"><ele>328.6666666666667</ele><time>2026-05-01T10:24:17.999Z</time></trkpt><trkpt lat="45.93559537204102" lon="12.078721095477466"><ele>328.3333333333333</ele><time>2026-05-01T10:24:18.999Z</time></trkpt><trkpt lat="45.93548511577355" lon="12.07857079851777"><ele>328.0</ele><time>2026-05-01T10:24:19.999Z</time></trkpt><trkpt lat="45.93537694516229" lon="12.078424815485388"><ele>328.0</ele><time>2026-05-01T10:24:20.999Z</time></trkpt><trkpt lat="45.93526958328376" lon="12.078274184559273"><ele>328.0</ele><time>2026-05-01T10:24:21.999Z</time></trkpt><trkpt lat="45.935158965375315" lon="12.078120290007858"><ele>328.0</ele><time>2026-05-01T10:24:22.999Z</time></trkpt><trkpt lat="45.9350483791405" lon="12.077963996983607"><ele>328.3333333333333</ele><time>2026-05-01T10:24:23.999Z</time></trkpt><trkpt lat="45.934937634006666" lon="12.077808616936034"><ele>328.6666666666667</ele><time>2026-05-01T10:24:24.999Z</time></trkpt><trkpt lat="45.934821808748296" lon="12.077652567940133"><ele>329.0</ele><time>2026-05-01T10:24:25.999Z</time></trkpt><trkpt lat="45.93471716194404" lon="12.077475277000396"><ele>339.6666666666667</ele><time>2026-05-01T10:24:26.999Z</time></trkpt><trkpt lat="45.93460459881377" lon="12.077317497117944"><ele>350.3333333333333</ele><time>2026-05-01T10:24:27.999Z</time></trkpt><trkpt lat="45.93449261130419" lon="12.077165859469234"><ele>361.0</ele><time>2026-05-01T10:24:28.999Z</time></trkpt><trkpt lat="45.93437018165665" lon="12.077033395690647"><ele>361.0</ele><time>2026-05-01T10:24:29.999Z</time></trkpt><trkpt lat="45.93425645614417" lon="12.076888569478653"><ele>361.0</ele><time>2026-05-01T10:24:30.999Z</time></trkpt><trkpt lat="45.934139797936865" lon="12.076754471826492"><ele>361.0</ele><time>2026-05-01T10:24:31.999Z</time></trkpt><trkpt lat="45.9340306049058" lon="12.076601217622633"><ele>358.3333333333333</ele><time>2026-05-01T10:24:32.999Z</time></trkpt><trkpt lat="45.93391082583843" lon="12.076464854850956"><ele>355.6666666666667</ele><time>2026-05-01T10:24:33.999Z</time></trkpt><trkpt lat="45.93378971037403" lon="12.076325331165082"><ele>353.0</ele><time>2026-05-01T10:24:34.999Z</time></trkpt><trkpt lat="45.9336543163731" lon="12.076196267524585"><ele>353.0</ele><time>2026-05-01T10:24:35.999Z</time></trkpt><trkpt lat="45.93352203867374" lon="12.076044432605704"><ele>353.0</ele><time>2026-05-01T10:24:37Z</time></trkpt><trkpt lat="45.933386325617626" lon="12.0758888714938"><ele>353.0</ele><time>2026-05-01T10:24:38Z</time></trkpt><trkpt lat="45.93324923596527" lon="12.075727505942963"><ele>352.33333333333337</ele><time>2026-05-01T10:24:39Z</time></trkpt><trkpt lat="45.93311028193727" lon="12.075566848347282"><ele>351.6666666666667</ele><time>2026-05-01T10:24:40Z</time></trkpt><trkpt lat="45.93297452823826" lon="12.075410248427593"><ele>351.0</ele><time>2026-05-01T10:24:41Z</time></trkpt><trkpt lat="45.9328415820897" lon="12.075257237581408"><ele>351.0</ele><time>2026-05-01T10:24:42Z</time></trkpt><trkpt lat="45.932713095071485" lon="12.07510850848237"><ele>351.0</ele><time>2026-05-01T10:24:43Z</time></trkpt><trkpt lat="45.93259127888432" lon="12.074965744202514"><ele>351.0</ele><time>2026-05-01T10:24:44Z</time></trkpt><trkpt lat="45.932476867006" lon="12.074821045448568"><ele>352.0</ele><time>2026-05-01T10:24:45Z</time></trkpt><trkpt lat="45.93237324091682" lon="12.074655796721105"><ele>353.0</ele><time>2026-05-01T10:24:46Z</time></trkpt><trkpt lat="45.93228665656135" lon="12.074467052492746"><ele>354.0</ele><time>2026-05-01T10:24:47Z</time></trkpt><trkpt lat="45.93220376118409" lon="12.074281397609594"><ele>354.0</ele><time>2026-05-01T10:24:48Z</time></trkpt><trkpt lat="45.93211779198964" lon="12.074118699316012"><ele>354.0</ele><time>2026-05-01T10:24:49Z</time></trkpt><trkpt lat="45.932014745344894" lon="12.073991330716382"><ele>354.0</ele><time>2026-05-01T10:24:50Z</time></trkpt><trkpt lat="45.93191181835709" lon="12.07387859424123"><ele>354.0</ele><time>2026-05-01T10:24:51Z</time></trkpt><trkpt lat="45.93180396510023" lon="12.073770157552746"><ele>355.0</ele><time>2026-05-01T10:24:52Z</time></trkpt><trkpt lat="45.931719767732936" lon="12.07361656433521"><ele>356.0</ele><time>2026-05-01T10:24:53Z</time></trkpt><trkpt lat="45.93165273673204" lon="12.073435770619659"><ele>357.0</ele><time>2026-05-01T10:24:54Z</time></trkpt><trkpt lat="45.93159548037124" lon="12.073243251052851"><ele>358.0</ele><time>2026-05-01T10:24:55Z</time></trkpt><trkpt lat="45.93156719844392" lon="12.0730691714094"><ele>362.4</ele><time>2026-05-01T10:24:56Z</time></trkpt><trkpt lat="45.93153512689837" lon="12.072919230851728"><ele>366.79999999999995</ele><time>2026-05-01T10:24:57Z</time></trkpt><trkpt lat="45.931514441176915" lon="12.072779733244726"><ele>371.2</ele><time>2026-05-01T10:24:58Z</time></trkpt><trkpt lat="45.93147194298452" lon="12.072678476574323"><ele>375.6</ele><time>2026-05-01T10:24:59Z</time></trkpt><trkpt lat="45.931405481653144" lon="12.072594426337398"><ele>380.0</ele><time>2026-05-01T10:25:00Z</time></trkpt><trkpt lat="45.93135947229654" lon="12.07249257831356"><ele>381.33333333333337</ele><time>2026-05-01T10:25:01Z</time></trkpt><trkpt lat="45.931304373897156" lon="12.072429826044683"><ele>382.6666666666667</ele><time>2026-05-01T10:25:02Z</time></trkpt><trkpt lat="45.93124540468138" lon="12.072367019260797"><ele>384.0</ele><time>2026-05-01T10:25:03Z</time></trkpt><trkpt lat="45.931192444822166" lon="12.072309708875572"><ele>385.33333333333337</ele><time>2026-05-01T10:25:04Z</time></trkpt><trkpt lat="45.931107498415905" lon="12.072210386164699"><ele>386.6666666666667</ele><time>2026-05-01T10:25:06Z</time></trkpt><trkpt lat="45.931045696553475" lon="12.072097156435127"><ele>388.0</ele><time>2026-05-01T10:25:08Z</time></trkpt><trkpt lat="45.930997697326745" lon="12.071931670728265"><ele>388.00000000000006</ele><time>2026-05-01T10:25:10Z</time></trkpt><trkpt lat="45.93096808541596" lon="12.071829362813595"><ele>388.0</ele><time>2026-05-01T10:25:11Z</time></trkpt><trkpt lat="45.930987545416436" lon="12.071722057884953"><ele>388.0</ele><time>2026-05-01T10:25:12Z</time></trkpt><trkpt lat="45.93098250926562" lon="12.071602374738555"><ele>388.0</ele><time>2026-05-01T10:25:13Z</time></trkpt><trkpt lat="45.93099634238915" lon="12.071461815552755"><ele>388.00000000000006</ele><time>2026-05-01T10:25:14Z</time></trkpt><trkpt lat="45.93100913893634" lon="12.071308806119244"><ele>388.0</ele><time>2026-05-01T10:25:15Z</time></trkpt><trkpt lat="45.9310197539312" lon="12.071155204301188"><ele>389.6666666666667</ele><time>2026-05-01T10:25:16Z</time></trkpt><trkpt lat="45.93103101019935" lon="12.071019181447205"><ele>391.33333333333337</ele><time>2026-05-01T10:25:17Z</time></trkpt><trkpt lat="45.93104014566753" lon="12.07089227173935"><ele>393.0</ele><time>2026-05-01T10:25:18Z</time></trkpt><trkpt lat="45.93104839141078" lon="12.07077345954082"><ele>394.66666666666663</ele><time>2026-05-01T10:25:19Z</time></trkpt><trkpt lat="45.931042696175645" lon="12.07066099741975"><ele>396.3333333333333</ele><time>2026-05-01T10:25:20Z</time></trkpt><trkpt lat="45.931009340344076" lon="12.07056317897389"><ele>398.0</ele><time>2026-05-01T10:25:21Z</time></trkpt><trkpt lat="45.93093310042983" lon="12.070506089313017"><ele>398.5</ele><time>2026-05-01T10:25:22Z</time></trkpt><trkpt lat="45.930831278942975" lon="12.070505579133618"><ele>399.0</ele><time>2026-05-01T10:25:23Z</time></trkpt><trkpt lat="45.930750917542746" lon="12.07064225270938"><ele>399.5</ele><time>2026-05-01T10:25:24Z</time></trkpt><trkpt lat="45.93069232999493" lon="12.07080459904608"><ele>400.0</ele><time>2026-05-01T10:25:25Z</time></trkpt><trkpt lat="45.93058954949468" lon="12.071010547833652"><ele>397.4</ele><time>2026-05-01T10:25:26Z</time></trkpt><trkpt lat="45.930519678113605" lon="12.071169700145251"><ele>394.8</ele><time>2026-05-01T10:25:27Z</time></trkpt><trkpt lat="45.93046564209424" lon="12.071292789353919"><ele>392.20000000000005</ele><time>2026-05-01T10:25:28Z</time></trkpt><trkpt lat="45.930382286202295" lon="12.071370446296916"><ele>389.6</ele><time>2026-05-01T10:25:29Z</time></trkpt><trkpt lat="45.93027993834693" lon="12.071386128589454"><ele>387.0</ele><time>2026-05-01T10:25:30Z</time></trkpt><trkpt lat="45.93019341278932" lon="12.071398460332759"><ele>387.0</ele><time>2026-05-01T10:25:31Z</time></trkpt><trkpt lat="45.93009945253049" lon="12.071275365700888"><ele>387.0</ele><time>2026-05-01T10:25:32Z</time></trkpt><trkpt lat="45.92998803748379" lon="12.071176077998237"><ele>387.0</ele><time>2026-05-01T10:25:33Z</time></trkpt><trkpt lat="45.92991762751797" lon="12.071022183729454"><ele>387.0</ele><time>2026-05-01T10:25:34Z</time></trkpt><trkpt lat="45.92985506652504" lon="12.0708317916687"><ele>389.0</ele><time>2026-05-01T10:25:35Z</time></trkpt><trkpt lat="45.92978844965476" lon="12.070668679153925"><ele>391.0</ele><time>2026-05-01T10:25:36Z</time></trkpt><trkpt lat="45.929727844038176" lon="12.070491590694001"><ele>393.0</ele><time>2026-05-01T10:25:37Z</time></trkpt><trkpt lat="45.929653383834186" lon="12.07032784392501"><ele>395.0</ele><time>2026-05-01T10:25:38Z</time></trkpt><trkpt lat="45.92959083505448" lon="12.070180347567854"><ele>395.0</ele><time>2026-05-01T10:25:39Z</time></trkpt><trkpt lat="45.92952291067418" lon="12.07001602755751"><ele>395.0</ele><time>2026-05-01T10:25:40Z</time></trkpt><trkpt lat="45.92946499101695" lon="12.069855264762127"><ele>395.0</ele><time>2026-05-01T10:25:41Z</time></trkpt><trkpt lat="45.92940600283264" lon="12.069697248152359"><ele>395.0</ele><time>2026-05-01T10:25:42Z</time></trkpt><trkpt lat="45.929343797106874" lon="12.069544448253373"><ele>394.5</ele><time>2026-05-01T10:25:43Z</time></trkpt><trkpt lat="45.929275347176485" lon="12.069378679876973"><ele>394.0</ele><time>2026-05-01T10:25:44Z</time></trkpt><trkpt lat="45.92919236913722" lon="12.069195521285607"><ele>393.5</ele><time>2026-05-01T10:25:45Z</time></trkpt><trkpt lat="45.9291262795595" lon="12.068981507415554"><ele>393.0</ele><time>2026-05-01T10:25:46Z</time></trkpt><trkpt lat="45.92901949318452" lon="12.068817471288492"><ele>393.0</ele><time>2026-05-01T10:25:47Z</time></trkpt><trkpt lat="45.92893019717568" lon="12.068668242784593"><ele>393.0</ele><time>2026-05-01T10:25:48Z</time></trkpt><trkpt lat="45.928848482171446" lon="12.068537662506728"><ele>393.0</ele><time>2026-05-01T10:25:49Z</time></trkpt><trkpt lat="45.928769308933035" lon="12.068403752011012"><ele>393.0</ele><time>2026-05-01T10:25:50Z</time></trkpt><trkpt lat="45.928700316981285" lon="12.068291121205153"><ele>394.0</ele><time>2026-05-01T10:25:51Z</time></trkpt><trkpt lat="45.928633738483164" lon="12.068183491202502"><ele>395.0</ele><time>2026-05-01T10:25:52Z</time></trkpt><trkpt lat="45.92856650091468" lon="12.06807212912153"><ele>396.0</ele><time>2026-05-01T10:25:53Z</time></trkpt><trkpt lat="45.92850847077541" lon="12.06797286648651"><ele>397.0</ele><time>2026-05-01T10:25:54Z</time></trkpt><trkpt lat="45.92844196535261" lon="12.06788310088515"><ele>398.0</ele><time>2026-05-01T10:25:55Z</time></trkpt><trkpt lat="45.92836040243835" lon="12.067816035671084"><ele>398.0</ele><time>2026-05-01T10:25:56Z</time></trkpt><trkpt lat="45.92825405959776" lon="12.067784731052766"><ele>398.0</ele><time>2026-05-01T10:25:57Z</time></trkpt><trkpt lat="45.9281355011953" lon="12.0678083873678"><ele>398.0</ele><time>2026-05-01T10:25:58Z</time></trkpt><trkpt lat="45.9280297267195" lon="12.067878797763608"><ele>398.0</ele><time>2026-05-01T10:25:59Z</time></trkpt><trkpt lat="45.92793531134382" lon="12.067985148249651"><ele>398.0</ele><time>2026-05-01T10:26:00Z</time></trkpt><trkpt lat="45.927842526263476" lon="12.068065234220045"><ele>398.0</ele><time>2026-05-01T10:26:01Z</time></trkpt><trkpt lat="45.92773487590893" lon="12.0680988745328"><ele>398.0</ele><time>2026-05-01T10:26:02Z</time></trkpt><trkpt lat="45.927614910630375" lon="12.068061850486274"><ele>398.0</ele><time>2026-05-01T10:26:03Z</time></trkpt><trkpt lat="45.92749451428031" lon="12.068011463562552"><ele>396.0</ele><time>2026-05-01T10:26:04Z</time></trkpt><trkpt lat="45.92736693691867" lon="12.067944454795223"><ele>394.0</ele><time>2026-05-01T10:26:05Z</time></trkpt><trkpt lat="45.927260856278835" lon="12.067882344344401"><ele>392.0</ele><time>2026-05-01T10:26:06Z</time></trkpt><trkpt lat="45.92716495277635" lon="12.067818689726224"><ele>390.0</ele><time>2026-05-01T10:26:07Z</time></trkpt><trkpt lat="45.92707558559886" lon="12.06774792161047"><ele>390.0</ele><time>2026-05-01T10:26:08Z</time></trkpt><trkpt lat="45.92702057769086" lon="12.067605113953427"><ele>390.0</ele><time>2026-05-01T10:26:09Z</time></trkpt><trkpt lat="45.92700041375845" lon="12.067425250141774"><ele>390.0</ele><time>2026-05-01T10:26:10Z</time></trkpt><trkpt lat="45.92703154926113" lon="12.067253448480683"><ele>390.0</ele><time>2026-05-01T10:26:11Z</time></trkpt><trkpt lat="45.92710018172122" lon="12.067134218385421"><ele>390.5</ele><time>2026-05-01T10:26:12Z</time></trkpt><trkpt lat="45.92717054279455" lon="12.06705448414923"><ele>391.0</ele><time>2026-05-01T10:26:13Z</time></trkpt><trkpt lat="45.927244773955515" lon="12.066982144665007"><ele>391.5</ele><time>2026-05-01T10:26:14Z</time></trkpt><trkpt lat="45.92729959359725" lon="12.066907420503814"><ele>392.0</ele><time>2026-05-01T10:26:15Z</time></trkpt><trkpt lat="45.927358257786814" lon="12.066827914711382"><ele>392.5</ele><time>2026-05-01T10:26:16Z</time></trkpt><trkpt lat="45.92741456474042" lon="12.066748682459743"><ele>393.0</ele><time>2026-05-01T10:26:17Z</time></trkpt><trkpt lat="45.927458806243095" lon="12.066657570254073"><ele>395.0</ele><time>2026-05-01T10:26:17.999Z</time></trkpt><trkpt lat="45.92748354174883" lon="12.066550071188272"><ele>397.0</ele><time>2026-05-01T10:26:18.999Z</time></trkpt><trkpt lat="45.927484520294165" lon="12.06643159065247"><ele>399.0</ele><time>2026-05-01T10:26:19.999Z</time></trkpt><trkpt lat="45.9274604467943" lon="12.066318362193195"><ele>401.0</ele><time>2026-05-01T10:26:20.999Z</time></trkpt><trkpt lat="45.927415743499544" lon="12.06621126935709"><ele>403.0</ele><time>2026-05-01T10:26:21.999Z</time></trkpt><trkpt lat="45.92735252204154" lon="12.066117580611902"><ele>405.0</ele><time>2026-05-01T10:26:22.999Z</time></trkpt><trkpt lat="45.92728843185592" lon="12.066019898932613"><ele>405.0</ele><time>2026-05-01T10:26:23.999Z</time></trkpt><trkpt lat="45.927209842286004" lon="12.065927284487858"><ele>405.0</ele><time>2026-05-01T10:26:24.999Z</time></trkpt><trkpt lat="45.92712275851435" lon="12.06581973460936"><ele>405.0</ele><time>2026-05-01T10:26:25.999Z</time></trkpt><trkpt lat="45.92705421871225" lon="12.065685466554363"><ele>405.0</ele><time>2026-05-01T10:26:26.999Z</time></trkpt><trkpt lat="45.92699105554466" lon="12.065549226910145"><ele>405.0</ele><time>2026-05-01T10:26:27.999Z</time></trkpt><trkpt lat="45.92693329409998" lon="12.065410655760713"><ele>403.25</ele><time>2026-05-01T10:26:28.999Z</time></trkpt><trkpt lat="45.92685345360759" lon="12.065306397311018"><ele>401.5</ele><time>2026-05-01T10:26:29.999Z</time></trkpt><trkpt lat="45.92673627249178" lon="12.065263472820508"><ele>399.75</ele><time>2026-05-01T10:26:30.999Z</time></trkpt><trkpt lat="45.92661600060632" lon="12.065254694379748"><ele>398.0</ele><time>2026-05-01T10:26:31.999Z</time></trkpt><trkpt lat="45.92652104955789" lon="12.065185875898155"><ele>398.0</ele><time>2026-05-01T10:26:32.999Z</time></trkpt><trkpt lat="45.92642309353175" lon="12.065118756633504"><ele>398.0</ele><time>2026-05-01T10:26:33.999Z</time></trkpt><trkpt lat="45.92635670525429" lon="12.065006103805274"><ele>398.0</ele><time>2026-05-01T10:26:34.999Z</time></trkpt><trkpt lat="45.92632032174915" lon="12.06488173504477"><ele>398.0</ele><time>2026-05-01T10:26:35.999Z</time></trkpt><trkpt lat="45.92630217580261" lon="12.064739029035385"><ele>398.0</ele><time>2026-05-01T10:26:36.999Z</time></trkpt><trkpt lat="45.92628975132383" lon="12.064580441430548"><ele>403.75</ele><time>2026-05-01T10:26:37.999Z</time></trkpt><trkpt lat="45.926265904782106" lon="12.064409529211957"><ele>409.5</ele><time>2026-05-01T10:26:38.999Z</time></trkpt><trkpt lat="45.92624519963981" lon="12.06424951640966"><ele>415.25</ele><time>2026-05-01T10:26:39.999Z</time></trkpt><trkpt lat="45.92623121379132" lon="12.064091535449268"><ele>421.0</ele><time>2026-05-01T10:26:40.999Z</time></trkpt><trkpt lat="45.92621009689117" lon="12.063937349482185"><ele>422.6</ele><time>2026-05-01T10:26:41.999Z</time></trkpt><trkpt lat="45.926190410155534" lon="12.063783498285357"><ele>424.20000000000005</ele><time>2026-05-01T10:26:43Z</time></trkpt><trkpt lat="45.92617359484675" lon="12.06362992883834"><ele>425.79999999999995</ele><time>2026-05-01T10:26:44Z</time></trkpt><trkpt lat="45.92615806472105" lon="12.063484505367942"><ele>427.4</ele><time>2026-05-01T10:26:45Z</time></trkpt><trkpt lat="45.92614260834446" lon="12.0633556501808"><ele>429.0</ele><time>2026-05-01T10:26:46Z</time></trkpt><trkpt lat="45.92612674244717" lon="12.06323509160477"><ele>429.0</ele><time>2026-05-01T10:26:47Z</time></trkpt><trkpt lat="45.926095344900844" lon="12.06312696275545"><ele>429.0</ele><time>2026-05-01T10:26:48Z</time></trkpt><trkpt lat="45.92603366479168" lon="12.063046595603192"><ele>429.0</ele><time>2026-05-01T10:26:49Z</time></trkpt><trkpt lat="45.925952864736615" lon="12.06300788587008"><ele>429.0</ele><time>2026-05-01T10:26:50Z</time></trkpt><trkpt lat="45.925831277666695" lon="12.063079263556812"><ele>429.0</ele><time>2026-05-01T10:26:51Z</time></trkpt><trkpt lat="45.92571332290272" lon="12.06316449478938"><ele>429.0</ele><time>2026-05-01T10:26:52Z</time></trkpt><trkpt lat="45.925599350806586" lon="12.063141449608958"><ele>429.0</ele><time>2026-05-01T10:26:53Z</time></trkpt><trkpt lat="45.925497672329854" lon="12.063068497646762"><ele>429.0</ele><time>2026-05-01T10:26:54Z</time></trkpt><trkpt lat="45.925400919282" lon="12.062987625407544"><ele>429.0</ele><time>2026-05-01T10:26:55Z</time></trkpt><trkpt lat="45.92532419408993" lon="12.06287295126669"><ele>429.0</ele><time>2026-05-01T10:26:56Z</time></trkpt><trkpt lat="45.92524446782104" lon="12.062761728628193"><ele>429.0</ele><time>2026-05-01T10:26:57Z</time></trkpt><trkpt lat="45.925153938469556" lon="12.06266224452586"><ele>429.0</ele><time>2026-05-01T10:26:58Z</time></trkpt><trkpt lat="45.92505829313864" lon="12.062568793063768"><ele>429.0</ele><time>2026-05-01T10:26:59Z</time></trkpt><trkpt lat="45.92495211891541" lon="12.062507334714923"><ele>430.79999999999995</ele><time>2026-05-01T10:27:00Z</time></trkpt><trkpt lat="45.92485000206842" lon="12.062480124465177"><ele>432.59999999999997</ele><time>2026-05-01T10:27:01Z</time></trkpt><trkpt lat="45.92475517027389" lon="12.062465877471238"><ele>434.4</ele><time>2026-05-01T10:27:02Z</time></trkpt><trkpt lat="45.92466806082214" lon="12.062453421578153"><ele>436.2</ele><time>2026-05-01T10:27:03Z</time></trkpt><trkpt lat="45.924579306468594" lon="12.062421798982719"><ele>438.0</ele><time>2026-05-01T10:27:04Z</time></trkpt><trkpt lat="45.924492626747764" lon="12.062428815322738"><ele>438.0</ele><time>2026-05-01T10:27:05Z</time></trkpt><trkpt lat="45.92441451117022" lon="12.062389541913456"><ele>437.99999999999994</ele><time>2026-05-01T10:27:06Z</time></trkpt><trkpt lat="45.92435829961599" lon="12.062293707327013"><ele>437.99999999999994</ele><time>2026-05-01T10:27:07Z</time></trkpt><trkpt lat="45.92430665653391" lon="12.062188788681151"><ele>438.0</ele><time>2026-05-01T10:27:08Z</time></trkpt><trkpt lat="45.924302911195895" lon="12.062042226250565"><ele>438.0</ele><time>2026-05-01T10:27:09Z</time></trkpt><trkpt lat="45.92431669038216" lon="12.061895485201836"><ele>438.0</ele><time>2026-05-01T10:27:10Z</time></trkpt><trkpt lat="45.92433522227606" lon="12.06174547601304"><ele>437.99999999999994</ele><time>2026-05-01T10:27:11Z</time></trkpt><trkpt lat="45.924364048402246" lon="12.061604670094122"><ele>437.99999999999994</ele><time>2026-05-01T10:27:12Z</time></trkpt><trkpt lat="45.92439574851426" lon="12.061487173910965"><ele>438.0</ele><time>2026-05-01T10:27:13Z</time></trkpt><trkpt lat="45.92441103783648" lon="12.061376136367189"><ele>438.0</ele><time>2026-05-01T10:27:14Z</time></trkpt><trkpt lat="45.92440779445862" lon="12.061266460574643"><ele>439.4</ele><time>2026-05-01T10:27:15Z</time></trkpt><trkpt lat="45.92437208730562" lon="12.061156313882526"><ele>440.79999999999995</ele><time>2026-05-01T10:27:16Z</time></trkpt><trkpt lat="45.92430170170888" lon="12.061079274912354"><ele>442.2</ele><time>2026-05-01T10:27:17Z</time></trkpt><trkpt lat="45.92421228829265" lon="12.061042379884912"><ele>443.6</ele><time>2026-05-01T10:27:18Z</time></trkpt><trkpt lat="45.92410949877633" lon="12.061062180116348"><ele>445.0</ele><time>2026-05-01T10:27:19Z</time></trkpt><trkpt lat="45.924019194659564" lon="12.061141783299847"><ele>442.0</ele><time>2026-05-01T10:27:20Z</time></trkpt><trkpt lat="45.92392601132809" lon="12.061221621990368"><ele>439.0</ele><time>2026-05-01T10:27:21Z</time></trkpt><trkpt lat="45.923842375478344" lon="12.061320574870606"><ele>436.0</ele><time>2026-05-01T10:27:22Z</time></trkpt><trkpt lat="45.923760230733535" lon="12.061420657154997"><ele>433.0</ele><time>2026-05-01T10:27:23Z</time></trkpt><trkpt lat="45.92367712761785" lon="12.061521689232071"><ele>430.0</ele><time>2026-05-01T10:27:24Z</time></trkpt><trkpt lat="45.92359215350482" lon="12.061620271847067"><ele>430.6</ele><time>2026-05-01T10:27:25Z</time></trkpt><trkpt lat="45.923507370292384" lon="12.061718632775888"><ele>431.2</ele><time>2026-05-01T10:27:26Z</time></trkpt><trkpt lat="45.9234402031518" lon="12.061834679266894"><ele>431.79999999999995</ele><time>2026-05-01T10:27:27Z</time></trkpt><trkpt lat="45.92335962676286" lon="12.06193346260307"><ele>432.4</ele><time>2026-05-01T10:27:28Z</time></trkpt><trkpt lat="45.92328039117482" lon="12.062026270918834"><ele>433.0</ele><time>2026-05-01T10:27:29Z</time></trkpt><trkpt lat="45.923212972794644" lon="12.06210989254656"><ele>433.00000000000006</ele><time>2026-05-01T10:27:30Z</time></trkpt><trkpt lat="45.92314369477417" lon="12.062178396232522"><ele>433.0</ele><time>2026-05-01T10:27:31Z</time></trkpt><trkpt lat="45.92306128278798" lon="12.062239249307774"><ele>433.0</ele><time>2026-05-01T10:27:32Z</time></trkpt><trkpt lat="45.92297688292585" lon="12.062283895453728"><ele>433.0</ele><time>2026-05-01T10:27:33Z</time></trkpt><trkpt lat="45.92290304748466" lon="12.062315027268541"><ele>433.00000000000006</ele><time>2026-05-01T10:27:34Z</time></trkpt><trkpt lat="45.92283449122123" lon="12.062347613683707"><ele>433.0</ele><time>2026-05-01T10:27:35Z</time></trkpt><trkpt lat="45.92277178413486" lon="12.062411063466254"><ele>428.59999999999997</ele><time>2026-05-01T10:27:36Z</time></trkpt><trkpt lat="45.92271700341341" lon="12.062495171586995"><ele>424.19999999999993</ele><time>2026-05-01T10:27:37Z</time></trkpt><trkpt lat="45.92266973799162" lon="12.062598271267863"><ele>419.8</ele><time>2026-05-01T10:27:38Z</time></trkpt><trkpt lat="45.92263498062137" lon="12.06271668160341"><ele>415.4</ele><time>2026-05-01T10:27:39Z</time></trkpt><trkpt lat="45.92260309807395" lon="12.062850965371332"><ele>411.0</ele><time>2026-05-01T10:27:40Z</time></trkpt><trkpt lat="45.92256767729209" lon="12.062981120225771"><ele>411.42857142857144</ele><time>2026-05-01T10:27:41Z</time></trkpt><trkpt lat="45.922511718202934" lon="12.063076756885868"><ele>411.85714285714283</ele><time>2026-05-01T10:27:42Z</time></trkpt><trkpt lat="45.92246116696584" lon="12.063162554045151"><ele>412.28571428571433</ele><time>2026-05-01T10:27:43Z</time></trkpt><trkpt lat="45.92240445541134" lon="12.063218911916483"><ele>412.7142857142857</ele><time>2026-05-01T10:27:44Z</time></trkpt><trkpt lat="45.92234949996797" lon="12.063263940405744"><ele>413.14285714285717</ele><time>2026-05-01T10:27:45Z</time></trkpt><trkpt lat="45.92229267144398" lon="12.063306459153052"><ele>413.5714285714286</ele><time>2026-05-01T10:27:46Z</time></trkpt><trkpt lat="45.92223301675877" lon="12.06335024877075"><ele>414.0</ele><time>2026-05-01T10:27:47Z</time></trkpt><trkpt lat="45.92218180034798" lon="12.063413411775185"><ele>414.0</ele><time>2026-05-01T10:27:48Z</time></trkpt><trkpt lat="45.92206277180336" lon="12.063461438363328"><ele>414.0</ele><time>2026-05-01T10:27:50Z</time></trkpt><trkpt lat="45.921959200652196" lon="12.0634923990887"><ele>414.0</ele><time>2026-05-01T10:27:52Z</time></trkpt><trkpt lat="45.92186271730455" lon="12.063483262479036"><ele>414.0</ele><time>2026-05-01T10:27:54Z</time></trkpt><trkpt lat="45.92177075782729" lon="12.063368223250759"><ele>414.0</ele><time>2026-05-01T10:27:56Z</time></trkpt><trkpt lat="45.92173724599146" lon="12.063273275967218"><ele>414.3333333333333</ele><time>2026-05-01T10:27:57Z</time></trkpt><trkpt lat="45.92170861910855" lon="12.06316714259477"><ele>414.66666666666663</ele><time>2026-05-01T10:27:58Z</time></trkpt><trkpt lat="45.921683989486716" lon="12.06306523144258"><ele>415.0</ele><time>2026-05-01T10:27:59Z</time></trkpt><trkpt lat="45.921664286152684" lon="12.06297369843578"><ele>415.3333333333333</ele><time>2026-05-01T10:28:00Z</time></trkpt><trkpt lat="45.921624289327966" lon="12.062791204802213"><ele>415.66666666666663</ele><time>2026-05-01T10:28:02Z</time></trkpt><trkpt lat="45.92160495906982" lon="12.06269942818285"><ele>416.0</ele><time>2026-05-01T10:28:03Z</time></trkpt><trkpt lat="45.92158571279202" lon="12.062606867052356"><ele>415.99999999999994</ele><time>2026-05-01T10:28:04Z</time></trkpt><trkpt lat="45.92156391343563" lon="12.062508323365266"><ele>416.0</ele><time>2026-05-01T10:28:05Z</time></trkpt><trkpt lat="45.921541243637876" lon="12.062401354025942"><ele>416.0</ele><time>2026-05-01T10:28:06Z</time></trkpt><trkpt lat="45.92151948967425" lon="12.062290888871031"><ele>416.0</ele><time>2026-05-01T10:28:07Z</time></trkpt><trkpt lat="45.921502943625505" lon="12.062175942889526"><ele>415.99999999999994</ele><time>2026-05-01T10:28:08Z</time></trkpt><trkpt lat="45.92149408847628" lon="12.062054874645433"><ele>416.0</ele><time>2026-05-01T10:28:09Z</time></trkpt><trkpt lat="45.9214934108457" lon="12.061940962106933"><ele>418.2857142857143</ele><time>2026-05-01T10:28:10Z</time></trkpt><trkpt lat="45.92149435640195" lon="12.06183745022659"><ele>420.5714285714286</ele><time>2026-05-01T10:28:11Z</time></trkpt><trkpt lat="45.921494169046355" lon="12.061742745045851"><ele>422.8571428571429</ele><time>2026-05-01T10:28:12Z</time></trkpt><trkpt lat="45.921481686608665" lon="12.061650103724077"><ele>425.1428571428571</ele><time>2026-05-01T10:28:13Z</time></trkpt><trkpt lat="45.921455043294685" lon="12.061557961654714"><ele>427.42857142857144</ele><time>2026-05-01T10:28:14Z</time></trkpt><trkpt lat="45.921411431326774" lon="12.061473770422506"><ele>429.7142857142857</ele><time>2026-05-01T10:28:15Z</time></trkpt><trkpt lat="45.92136028590579" lon="12.061399467576718"><ele>432.0</ele><time>2026-05-01T10:28:16Z</time></trkpt><trkpt lat="45.92130536299724" lon="12.061342955146133"><ele>433.42857142857144</ele><time>2026-05-01T10:28:17Z</time></trkpt><trkpt lat="45.92124899136514" lon="12.061294783290297"><ele>434.85714285714283</ele><time>2026-05-01T10:28:18Z</time></trkpt><trkpt lat="45.92118476419442" lon="12.061264834633768"><ele>436.28571428571433</ele><time>2026-05-01T10:28:19Z</time></trkpt><trkpt lat="45.92111314896722" lon="12.061274198030276"><ele>437.7142857142857</ele><time>2026-05-01T10:28:19.999Z</time></trkpt><trkpt lat="45.921043573428" lon="12.061311342560582"><ele>439.14285714285717</ele><time>2026-05-01T10:28:20.999Z</time></trkpt><trkpt lat="45.920981581802494" lon="12.06135814372034"><ele>440.5714285714286</ele><time>2026-05-01T10:28:21.999Z</time></trkpt><trkpt lat="45.92091075611233" lon="12.061382607297407"><ele>442.0</ele><time>2026-05-01T10:28:22.999Z</time></trkpt><trkpt lat="45.92085200250511" lon="12.061455510281645"><ele>442.00000000000006</ele><time>2026-05-01T10:28:23.999Z</time></trkpt><trkpt lat="45.92078659957365" lon="12.061516209347609"><ele>442.0</ele><time>2026-05-01T10:28:24.999Z</time></trkpt><trkpt lat="45.92072422603738" lon="12.061588977083627"><ele>442.0</ele><time>2026-05-01T10:28:25.999Z</time></trkpt><trkpt lat="45.920671251876335" lon="12.061676851031047"><ele>442.0</ele><time>2026-05-01T10:28:26.999Z</time></trkpt><trkpt lat="45.92062601353004" lon="12.061773838318665"><ele>442.00000000000006</ele><time>2026-05-01T10:28:27.999Z</time></trkpt><trkpt lat="45.92059349118404" lon="12.061884595444287"><ele>442.0</ele><time>2026-05-01T10:28:28.999Z</time></trkpt><trkpt lat="45.920562926352325" lon="12.061994274863153"><ele>438.6666666666667</ele><time>2026-05-01T10:28:29.999Z</time></trkpt><trkpt lat="45.920533257917036" lon="12.062109896017981"><ele>435.33333333333337</ele><time>2026-05-01T10:28:30.999Z</time></trkpt><trkpt lat="45.92048851748196" lon="12.062209188088834"><ele>432.0</ele><time>2026-05-01T10:28:31.999Z</time></trkpt><trkpt lat="45.920452049004325" lon="12.062303463576677"><ele>428.66666666666663</ele><time>2026-05-01T10:28:32.999Z</time></trkpt><trkpt lat="45.920410918307994" lon="12.062385431397297"><ele>425.3333333333333</ele><time>2026-05-01T10:28:33.999Z</time></trkpt><trkpt lat="45.9203605312973" lon="12.062457822740699"><ele>422.0</ele><time>2026-05-01T10:28:34.999Z</time></trkpt><trkpt lat="45.920302950285254" lon="12.062528414341926"><ele>423.40000000000003</ele><time>2026-05-01T10:28:35.999Z</time></trkpt><trkpt lat="45.92025123378014" lon="12.06258789146796"><ele>424.8</ele><time>2026-05-01T10:28:36.999Z</time></trkpt><trkpt lat="45.92016071718257" lon="12.06269136873639"><ele>426.2</ele><time>2026-05-01T10:28:38.999Z</time></trkpt><trkpt lat="45.920079311429944" lon="12.062783028140183"><ele>427.6</ele><time>2026-05-01T10:28:40.999Z</time></trkpt><trkpt lat="45.919983850095775" lon="12.062890684027842"><ele>429.0</ele><time>2026-05-01T10:28:42.999Z</time></trkpt><trkpt lat="45.91992829457619" lon="12.06295080757012"><ele>429.0</ele><time>2026-05-01T10:28:43.999Z</time></trkpt><trkpt lat="45.91987100064252" lon="12.063007885634718"><ele>429.0</ele><time>2026-05-01T10:28:44.999Z</time></trkpt><trkpt lat="45.91976388816523" lon="12.063091559756142"><ele>429.0</ele><time>2026-05-01T10:28:46.999Z</time></trkpt><trkpt lat="45.91964146886617" lon="12.063114893108157"><ele>429.0</ele><time>2026-05-01T10:28:49Z</time></trkpt><trkpt lat="45.91957883292065" lon="12.063099561643039"><ele>429.0</ele><time>2026-05-01T10:28:50Z</time></trkpt><trkpt lat="45.91947195885678" lon="12.063045538013915"><ele>429.0</ele><time>2026-05-01T10:28:52Z</time></trkpt><trkpt lat="45.91935137154159" lon="12.062972785796207"><ele>429.0</ele><time>2026-05-01T10:28:54Z</time></trkpt><trkpt lat="45.91928360964571" lon="12.06293188123371"><ele>429.0</ele><time>2026-05-01T10:28:55Z</time></trkpt><trkpt lat="45.91920086115271" lon="12.062883742156583"><ele>429.0</ele><time>2026-05-01T10:28:56Z</time></trkpt><trkpt lat="45.919093144732095" lon="12.062821077801669"><ele>429.0</ele><time>2026-05-01T10:28:57Z</time></trkpt><trkpt lat="45.91896151429987" lon="12.062744501463877"><ele>427.66666666666663</ele><time>2026-05-01T10:28:58Z</time></trkpt><trkpt lat="45.91881297201847" lon="12.062656008767249"><ele>426.3333333333333</ele><time>2026-05-01T10:28:59Z</time></trkpt><trkpt lat="45.91864761194265" lon="12.062557394778471"><ele>425.0</ele><time>2026-05-01T10:29:00Z</time></trkpt><trkpt lat="45.91848923935669" lon="12.06246089892202"><ele>427.5</ele><time>2026-05-01T10:29:01Z</time></trkpt><trkpt lat="45.918347117357676" lon="12.062367844905934"><ele>430.0</ele><time>2026-05-01T10:29:02Z</time></trkpt><trkpt lat="45.91821724145022" lon="12.062277759429069"><ele>432.5</ele><time>2026-05-01T10:29:03Z</time></trkpt><trkpt lat="45.9180917976224" lon="12.062200898712511"><ele>435.0</ele><time>2026-05-01T10:29:04Z</time></trkpt><trkpt lat="45.917965893249374" lon="12.062168723369997"><ele>435.0</ele><time>2026-05-01T10:29:05Z</time></trkpt><trkpt lat="45.91783819190707" lon="12.062217792524939"><ele>435.0</ele><time>2026-05-01T10:29:06Z</time></trkpt><trkpt lat="45.91774073490891" lon="12.062338809081007"><ele>435.0</ele><time>2026-05-01T10:29:07Z</time></trkpt><trkpt lat="45.91764633170406" lon="12.062450063558472"><ele>435.0</ele><time>2026-05-01T10:29:08Z</time></trkpt><trkpt lat="45.917548497047044" lon="12.06253957044841"><ele>428.5</ele><time>2026-05-01T10:29:09Z</time></trkpt><trkpt lat="45.917435764882946" lon="12.062544518072887"><ele>422.0</ele><time>2026-05-01T10:29:10Z</time></trkpt><trkpt lat="45.91730775489007" lon="12.062502495562594"><ele>415.5</ele><time>2026-05-01T10:29:11Z</time></trkpt><trkpt lat="45.917141394710825" lon="12.062454744268612"><ele>409.0</ele><time>2026-05-01T10:29:12Z</time></trkpt><trkpt lat="45.917017103230314" lon="12.062414988421876"><ele>409.0</ele><time>2026-05-01T10:29:13Z</time></trkpt><trkpt lat="45.916927995031685" lon="12.06235856836907"><ele>409.0</ele><time>2026-05-01T10:29:14Z</time></trkpt><trkpt lat="45.91684590630914" lon="12.062283058336881"><ele>409.0</ele><time>2026-05-01T10:29:15Z</time></trkpt><trkpt lat="45.916810047994886" lon="12.062131801189006"><ele>409.0</ele><time>2026-05-01T10:29:16Z</time></trkpt><trkpt lat="45.91680850387007" lon="12.061927910118488"><ele>409.0</ele><time>2026-05-01T10:29:17Z</time></trkpt><trkpt lat="45.91681697350164" lon="12.061679833343085"><ele>412.0</ele><time>2026-05-01T10:29:18Z</time></trkpt><trkpt lat="45.916833574250134" lon="12.06139221045694"><ele>415.0</ele><time>2026-05-01T10:29:19Z</time></trkpt><trkpt lat="45.91684792081143" lon="12.061120861217123"><ele>418.0</ele><time>2026-05-01T10:29:20Z</time></trkpt><trkpt lat="45.916855697987906" lon="12.06088418328012"><ele>421.5</ele><time>2026-05-01T10:29:21Z</time></trkpt><trkpt lat="45.916865645775395" lon="12.06067749583232"><ele>425.0</ele><time>2026-05-01T10:29:22Z</time></trkpt><trkpt lat="45.916851133097474" lon="12.060491837491114"><ele>428.5</ele><time>2026-05-01T10:29:23Z</time></trkpt><trkpt lat="45.9167903592754" lon="12.060312137339173"><ele>432.0</ele><time>2026-05-01T10:29:24Z</time></trkpt><trkpt lat="45.91667937352298" lon="12.060159313477996"><ele>425.0</ele><time>2026-05-01T10:29:25Z</time></trkpt><trkpt lat="45.91652800588064" lon="12.060046265171573"><ele>418.0</ele><time>2026-05-01T10:29:26Z</time></trkpt><trkpt lat="45.91632983258402" lon="12.059932059278623"><ele>411.0</ele><time>2026-05-01T10:29:27Z</time></trkpt><trkpt lat="45.91608661598052" lon="12.059768120851391"><ele>400.6666666666667</ele><time>2026-05-01T10:29:28Z</time></trkpt><trkpt lat="45.91589795784283" lon="12.059642682508517"><ele>390.33333333333337</ele><time>2026-05-01T10:29:29Z</time></trkpt><trkpt lat="45.9157243391221" lon="12.059525966810662"><ele>380.0</ele><time>2026-05-01T10:29:30Z</time></trkpt><trkpt lat="45.915564555642185" lon="12.059429101291828"><ele>380.0</ele><time>2026-05-01T10:29:31Z</time></trkpt><trkpt lat="45.915400254284606" lon="12.059439024652173"><ele>380.0</ele><time>2026-05-01T10:29:32Z</time></trkpt><trkpt lat="45.91525865343565" lon="12.059469347848657"><ele>380.0</ele><time>2026-05-01T10:29:33Z</time></trkpt><trkpt lat="45.91513362472202" lon="12.059466767826827"><ele>380.0</ele><time>2026-05-01T10:29:34Z</time></trkpt><trkpt lat="45.91502306774763" lon="12.059448357514935"><ele>376.0</ele><time>2026-05-01T10:29:35Z</time></trkpt><trkpt lat="45.91492146955207" lon="12.05935411104114"><ele>372.0</ele><time>2026-05-01T10:29:36Z</time></trkpt><trkpt lat="45.914846131784465" lon="12.059230229884195"><ele>368.0</ele><time>2026-05-01T10:29:37Z</time></trkpt><trkpt lat="45.914808907934145" lon="12.05910110119304"><ele>364.0</ele><time>2026-05-01T10:29:38Z</time></trkpt><trkpt lat="45.914819385905645" lon="12.058960879006351"><ele>360.0</ele><time>2026-05-01T10:29:39Z</time></trkpt><trkpt lat="45.914887869260376" lon="12.058837680808741"><ele>359.25</ele><time>2026-05-01T10:29:40Z</time></trkpt><trkpt lat="45.914989788014054" lon="12.058720421423331"><ele>358.5</ele><time>2026-05-01T10:29:41Z</time></trkpt><trkpt lat="45.91505889361571" lon="12.058591951503002"><ele>357.75</ele><time>2026-05-01T10:29:42Z</time></trkpt><trkpt lat="45.915095226749386" lon="12.05842348120506"><ele>357.0</ele><time>2026-05-01T10:29:43Z</time></trkpt><trkpt lat="45.91510540986764" lon="12.058210473786106"><ele>363.0</ele><time>2026-05-01T10:29:44Z</time></trkpt><trkpt lat="45.915109789966856" lon="12.058005238187858"><ele>369.0</ele><time>2026-05-01T10:29:45Z</time></trkpt><trkpt lat="45.9151088773484" lon="12.057806409833752"><ele>375.0</ele><time>2026-05-01T10:29:46Z</time></trkpt><trkpt lat="45.91511170345399" lon="12.057626953811937"><ele>381.0</ele><time>2026-05-01T10:29:47Z</time></trkpt><trkpt lat="45.91511453795373" lon="12.057456164723733"><ele>381.25</ele><time>2026-05-01T10:29:48Z</time></trkpt><trkpt lat="45.915118223688815" lon="12.057286924523911"><ele>381.5</ele><time>2026-05-01T10:29:49Z</time></trkpt><trkpt lat="45.915109280269526" lon="12.057124971809955"><ele>381.75</ele><time>2026-05-01T10:29:50Z</time></trkpt><trkpt lat="45.915072859557775" lon="12.056978332452974"><ele>382.0</ele><time>2026-05-01T10:29:51Z</time></trkpt><trkpt lat="45.914984720871864" lon="12.05684933333287"><ele>372.0</ele><time>2026-05-01T10:29:52Z</time></trkpt><trkpt lat="45.91486360931723" lon="12.056728139547841"><ele>362.0</ele><time>2026-05-01T10:29:53Z</time></trkpt><trkpt lat="45.91473221423006" lon="12.056606014825578"><ele>352.0</ele><time>2026-05-01T10:29:54Z</time></trkpt><trkpt lat="45.91461830181176" lon="12.056468014218709"><ele>351.40000000000003</ele><time>2026-05-01T10:29:55Z</time></trkpt><trkpt lat="45.91451033313488" lon="12.056360706081685"><ele>350.8</ele><time>2026-05-01T10:29:56Z</time></trkpt><trkpt lat="45.91441310403621" lon="12.056284623369676"><ele>350.2</ele><time>2026-05-01T10:29:57Z</time></trkpt><trkpt lat="45.91435139699794" lon="12.056177528606645"><ele>349.6</ele><time>2026-05-01T10:29:58Z</time></trkpt><trkpt lat="45.914331263795795" lon="12.056042950540037"><ele>349.0</ele><time>2026-05-01T10:29:59Z</time></trkpt><trkpt lat="45.91436095138904" lon="12.055914588562374"><ele>349.0</ele><time>2026-05-01T10:30:00Z</time></trkpt><trkpt lat="45.91444124597097" lon="12.055821772673228"><ele>349.0</ele><time>2026-05-01T10:30:01Z</time></trkpt><trkpt lat="45.91456131575007" lon="12.05577825550367"><ele>349.0</ele><time>2026-05-01T10:30:02Z</time></trkpt><trkpt lat="45.914685603405694" lon="12.055782263140486"><ele>349.0</ele><time>2026-05-01T10:30:03Z</time></trkpt><trkpt lat="45.91478440836762" lon="12.05576985106915"><ele>347.4</ele><time>2026-05-01T10:30:04Z</time></trkpt><trkpt lat="45.91486834175187" lon="12.05571769498427"><ele>345.79999999999995</ele><time>2026-05-01T10:30:05Z</time></trkpt><trkpt lat="45.914934032993976" lon="12.055636125083307"><ele>344.20000000000005</ele><time>2026-05-01T10:30:06Z</time></trkpt><trkpt lat="45.91496851508472" lon="12.055516188571037"><ele>342.6</ele><time>2026-05-01T10:30:07Z</time></trkpt><trkpt lat="45.9149630738455" lon="12.055357822516184"><ele>341.0</ele><time>2026-05-01T10:30:08Z</time></trkpt><trkpt lat="45.91491890972388" lon="12.05517892878404"><ele>341.0</ele><time>2026-05-01T10:30:09Z</time></trkpt><trkpt lat="45.914863420973354" lon="12.054986146404735"><ele>341.0</ele><time>2026-05-01T10:30:10Z</time></trkpt><trkpt lat="45.91482400252769" lon="12.05480519183582"><ele>341.0</ele><time>2026-05-01T10:30:11Z</time></trkpt><trkpt lat="45.914785372921365" lon="12.054626087587724"><ele>341.0</ele><time>2026-05-01T10:30:12Z</time></trkpt><trkpt lat="45.91475020467182" lon="12.054449814511626"><ele>340.4</ele><time>2026-05-01T10:30:13Z</time></trkpt><trkpt lat="45.91472316841127" lon="12.054292689481537"><ele>339.8</ele><time>2026-05-01T10:30:14Z</time></trkpt><trkpt lat="45.91468971252088" lon="12.054139428295734"><ele>339.2</ele><time>2026-05-01T10:30:15Z</time></trkpt><trkpt lat="45.91464026626666" lon="12.054003286482654"><ele>338.59999999999997</ele><time>2026-05-01T10:30:15.999Z</time></trkpt><trkpt lat="45.914572276124765" lon="12.05387745033213"><ele>338.0</ele><time>2026-05-01T10:30:16.999Z</time></trkpt><trkpt lat="45.91450576915046" lon="12.053746083096343"><ele>338.75</ele><time>2026-05-01T10:30:17.999Z</time></trkpt><trkpt lat="45.91443869953216" lon="12.053616430067208"><ele>339.5</ele><time>2026-05-01T10:30:18.999Z</time></trkpt><trkpt lat="45.91436334178781" lon="12.05348413766663"><ele>340.25</ele><time>2026-05-01T10:30:19.999Z</time></trkpt><trkpt lat="45.91429376810738" lon="12.053339752338522"><ele>341.0</ele><time>2026-05-01T10:30:20.999Z</time></trkpt><trkpt lat="45.91421968467556" lon="12.053203161819999"><ele>341.0</ele><time>2026-05-01T10:30:21.999Z</time></trkpt><trkpt lat="45.91414919494731" lon="12.053072947005841"><ele>341.0</ele><time>2026-05-01T10:30:22.999Z</time></trkpt><trkpt lat="45.914083851826234" lon="12.052953976447814"><ele>341.0</ele><time>2026-05-01T10:30:23.999Z</time></trkpt><trkpt lat="45.914018427640826" lon="12.052849230089336"><ele>341.0</ele><time>2026-05-01T10:30:24.999Z</time></trkpt><trkpt lat="45.91393995241984" lon="12.05275547883507"><ele>341.0</ele><time>2026-05-01T10:30:25.999Z</time></trkpt><trkpt lat="45.913847992298315" lon="12.052696417527425"><ele>341.0</ele><time>2026-05-01T10:30:26.999Z</time></trkpt><trkpt lat="45.91374510732488" lon="12.052683762452018"><ele>341.0</ele><time>2026-05-01T10:30:27.999Z</time></trkpt><trkpt lat="45.91364071626908" lon="12.052713102079315"><ele>341.0</ele><time>2026-05-01T10:30:28.999Z</time></trkpt><trkpt lat="45.91353249102503" lon="12.052748861801753"><ele>341.0</ele><time>2026-05-01T10:30:29.999Z</time></trkpt><trkpt lat="45.91341293528602" lon="12.052775017766171"><ele>341.0</ele><time>2026-05-01T10:30:30.999Z</time></trkpt><trkpt lat="45.91328617296967" lon="12.052798994865153"><ele>337.33333333333337</ele><time>2026-05-01T10:30:31.999Z</time></trkpt><trkpt lat="45.91314480172894" lon="12.052831044341165"><ele>333.6666666666667</ele><time>2026-05-01T10:30:32.999Z</time></trkpt><trkpt lat="45.91298687629503" lon="12.052866911256796"><ele>330.0</ele><time>2026-05-01T10:30:33.999Z</time></trkpt><trkpt lat="45.9128204187205" lon="12.052904156316664"><ele>330.0</ele><time>2026-05-01T10:30:34.999Z</time></trkpt><trkpt lat="45.912657289648656" lon="12.05294253124013"><ele>330.0</ele><time>2026-05-01T10:30:35.999Z</time></trkpt><trkpt lat="45.91250512142318" lon="12.052975766570176"><ele>330.0</ele><time>2026-05-01T10:30:36.999Z</time></trkpt><trkpt lat="45.91236574615577" lon="12.05300321046167"><ele>329.0</ele><time>2026-05-01T10:30:37.999Z</time></trkpt><trkpt lat="45.9122358933837" lon="12.05302281709857"><ele>328.0</ele><time>2026-05-01T10:30:38.999Z</time></trkpt><trkpt lat="45.912114787022944" lon="12.053054331931031"><ele>327.0</ele><time>2026-05-01T10:30:39.999Z</time></trkpt><trkpt lat="45.91200688063176" lon="12.053124099378184"><ele>326.0</ele><time>2026-05-01T10:30:40.999Z</time></trkpt><trkpt lat="45.91190809431408" lon="12.053242852559007"><ele>324.0</ele><time>2026-05-01T10:30:41.999Z</time></trkpt><trkpt lat="45.91181892197121" lon="12.053326616001154"><ele>322.0</ele><time>2026-05-01T10:30:42.999Z</time></trkpt><trkpt lat="45.91175879950043" lon="12.053415706405469"><ele>320.0</ele><time>2026-05-01T10:30:43.999Z</time></trkpt><trkpt lat="45.91168199735076" lon="12.053464155508143"><ele>318.0</ele><time>2026-05-01T10:30:44.999Z</time></trkpt><trkpt lat="45.91160172095948" lon="12.053500559351793"><ele>316.0</ele><time>2026-05-01T10:30:45.999Z</time></trkpt><trkpt lat="45.911503179720896" lon="12.053533092821073"><ele>316.0</ele><time>2026-05-01T10:30:46.999Z</time></trkpt><trkpt lat="45.911388071063385" lon="12.053557787916949"><ele>316.0</ele><time>2026-05-01T10:30:47.999Z</time></trkpt><trkpt lat="45.91126744469226" lon="12.05355914208661"><ele>316.0</ele><time>2026-05-01T10:30:48.999Z</time></trkpt><trkpt lat="45.911143479169276" lon="12.053554372270987"><ele>316.0</ele><time>2026-05-01T10:30:49.999Z</time></trkpt><trkpt lat="45.911018715755766" lon="12.053558438517692"><ele>314.0</ele><time>2026-05-01T10:30:50.999Z</time></trkpt><trkpt lat="45.910895184471904" lon="12.053555860434324"><ele>312.0</ele><time>2026-05-01T10:30:51.999Z</time></trkpt><trkpt lat="45.91077495281228" lon="12.053531757465498"><ele>310.0</ele><time>2026-05-01T10:30:52.999Z</time></trkpt><trkpt lat="45.91066069799573" lon="12.053533120696384"><ele>308.0</ele><time>2026-05-01T10:30:54Z</time></trkpt><trkpt lat="45.91054849274022" lon="12.05347572920301"><ele>308.0</ele><time>2026-05-01T10:30:55Z</time></trkpt><trkpt lat="45.910452769662236" lon="12.053357885738983"><ele>308.0</ele><time>2026-05-01T10:30:56Z</time></trkpt><trkpt lat="45.9103440852994" lon="12.053245712521722"><ele>308.0</ele><time>2026-05-01T10:30:57Z</time></trkpt><trkpt lat="45.910248764798325" lon="12.053113866650314"><ele>308.0</ele><time>2026-05-01T10:30:58Z</time></trkpt><trkpt lat="45.9101553660046" lon="12.052984640255515"><ele>308.25</ele><time>2026-05-01T10:30:59Z</time></trkpt><trkpt lat="45.910060146345934" lon="12.052855832168541"><ele>308.5</ele><time>2026-05-01T10:31:00Z</time></trkpt><trkpt lat="45.9099692759352" lon="12.05272356249445"><ele>308.75</ele><time>2026-05-01T10:31:01Z</time></trkpt><trkpt lat="45.90988716653869" lon="12.05257413436726"><ele>309.0</ele><time>2026-05-01T10:31:02Z</time></trkpt><trkpt lat="45.909810400430295" lon="12.052412359934822"><ele>314.5</ele><time>2026-05-01T10:31:03Z</time></trkpt><trkpt lat="45.90973537437387" lon="12.052253602683558"><ele>320.0</ele><time>2026-05-01T10:31:04Z</time></trkpt><trkpt lat="45.90966124584308" lon="12.052100302751148"><ele>325.5</ele><time>2026-05-01T10:31:05Z</time></trkpt><trkpt lat="45.90958824172781" lon="12.051947367021127"><ele>331.0</ele><time>2026-05-01T10:31:06Z</time></trkpt><trkpt lat="45.90950514385305" lon="12.05179796497279"><ele>331.0</ele><time>2026-05-01T10:31:07Z</time></trkpt><trkpt lat="45.90941765791253" lon="12.051659555072469"><ele>331.0</ele><time>2026-05-01T10:31:08Z</time></trkpt><trkpt lat="45.90933022985849" lon="12.051527768974017"><ele>331.0</ele><time>2026-05-01T10:31:09Z</time></trkpt><trkpt lat="45.90924693878615" lon="12.051399434883788"><ele>331.0</ele><time>2026-05-01T10:31:10Z</time></trkpt><trkpt lat="45.90916803011039" lon="12.051273499093728"><ele>331.4</ele><time>2026-05-01T10:31:11Z</time></trkpt><trkpt lat="45.90909486983644" lon="12.05114654756528"><ele>331.8</ele><time>2026-05-01T10:31:12Z</time></trkpt><trkpt lat="45.909026480031926" lon="12.051019687604555"><ele>332.2</ele><time>2026-05-01T10:31:13Z</time></trkpt><trkpt lat="45.908957724350635" lon="12.050896771005343"><ele>332.59999999999997</ele><time>2026-05-01T10:31:14Z</time></trkpt><trkpt lat="45.90888730137204" lon="12.050779567947528"><ele>333.0</ele><time>2026-05-01T10:31:15Z</time></trkpt><trkpt lat="45.908819986666145" lon="12.050661407474994"><ele>333.0</ele><time>2026-05-01T10:31:16Z</time></trkpt><trkpt lat="45.90875362929331" lon="12.050542980989677"><ele>333.0</ele><time>2026-05-01T10:31:17Z</time></trkpt><trkpt lat="45.908687000690705" lon="12.050422718574065"><ele>333.0</ele><time>2026-05-01T10:31:18Z</time></trkpt><trkpt lat="45.90862005066271" lon="12.05030045607158"><ele>333.0</ele><time>2026-05-01T10:31:19Z</time></trkpt><trkpt lat="45.90855251397608" lon="12.050177803324038"><ele>333.0</ele><time>2026-05-01T10:31:20Z</time></trkpt><trkpt lat="45.90848053493868" lon="12.050064241375566"><ele>330.5</ele><time>2026-05-01T10:31:21Z</time></trkpt><trkpt lat="45.90840241803064" lon="12.049954506670744"><ele>328.0</ele><time>2026-05-01T10:31:22Z</time></trkpt><trkpt lat="45.90831706763508" lon="12.049850446835219"><ele>325.5</ele><time>2026-05-01T10:31:23Z</time></trkpt><trkpt lat="45.90822288067386" lon="12.049753804920535"><ele>323.0</ele><time>2026-05-01T10:31:24Z</time></trkpt><trkpt lat="45.90812605806916" lon="12.049657385702195"><ele>323.0</ele><time>2026-05-01T10:31:25Z</time></trkpt><trkpt lat="45.908030494838194" lon="12.049564407960554"><ele>323.0</ele><time>2026-05-01T10:31:26Z</time></trkpt><trkpt lat="45.9079333373747" lon="12.049479088970704"><ele>323.0</ele><time>2026-05-01T10:31:27Z</time></trkpt><trkpt lat="45.90783305865146" lon="12.0494013951933"><ele>323.0</ele><time>2026-05-01T10:31:28Z</time></trkpt><trkpt lat="45.907739463057744" lon="12.049300859664783"><ele>323.0</ele><time>2026-05-01T10:31:29Z</time></trkpt><trkpt lat="45.9076320266815" lon="12.04922310051787"><ele>323.0</ele><time>2026-05-01T10:31:30Z</time></trkpt><trkpt lat="45.90750185304728" lon="12.049189606332979"><ele>323.0</ele><time>2026-05-01T10:31:31Z</time></trkpt><trkpt lat="45.90737210760224" lon="12.049155531907696"><ele>323.0</ele><time>2026-05-01T10:31:32Z</time></trkpt><trkpt lat="45.90724423869953" lon="12.049122572190091"><ele>324.0</ele><time>2026-05-01T10:31:33Z</time></trkpt><trkpt lat="45.9071183275288" lon="12.049085099518079"><ele>325.0</ele><time>2026-05-01T10:31:34Z</time></trkpt><trkpt lat="45.906991370093685" lon="12.049052613224331"><ele>326.0</ele><time>2026-05-01T10:31:35Z</time></trkpt><trkpt lat="45.90686649741454" lon="12.049015108443598"><ele>327.0</ele><time>2026-05-01T10:31:36Z</time></trkpt><trkpt lat="45.90674705054005" lon="12.0489539723804"><ele>324.0</ele><time>2026-05-01T10:31:37Z</time></trkpt><trkpt lat="45.906631725578315" lon="12.048936704129748"><ele>321.0</ele><time>2026-05-01T10:31:38Z</time></trkpt><trkpt lat="45.906530696385616" lon="12.04888346822244"><ele>318.0</ele><time>2026-05-01T10:31:39Z</time></trkpt><trkpt lat="45.90644356465569" lon="12.04880269139567"><ele>315.0</ele><time>2026-05-01T10:31:40Z</time></trkpt><trkpt lat="45.906365522552164" lon="12.048694718107848"><ele>312.0</ele><time>2026-05-01T10:31:41Z</time></trkpt><trkpt lat="45.906303209130876" lon="12.048560255849502"><ele>312.0</ele><time>2026-05-01T10:31:42Z</time></trkpt><trkpt lat="45.90625511192601" lon="12.048409227873417"><ele>312.0</ele><time>2026-05-01T10:31:43Z</time></trkpt><trkpt lat="45.90621904919136" lon="12.048243495034667"><ele>312.0</ele><time>2026-05-01T10:31:44Z</time></trkpt><trkpt lat="45.906200725603576" lon="12.0480840822229"><ele>312.0</ele><time>2026-05-01T10:31:45Z</time></trkpt><trkpt lat="45.90618897537926" lon="12.047940069494562"><ele>312.5</ele><time>2026-05-01T10:31:46Z</time></trkpt><trkpt lat="45.90617798176377" lon="12.047809850652971"><ele>313.0</ele><time>2026-05-01T10:31:47Z</time></trkpt><trkpt lat="45.906171249273456" lon="12.047705147419457"><ele>313.5</ele><time>2026-05-01T10:31:48Z</time></trkpt><trkpt lat="45.906166737580385" lon="12.047612106196897"><ele>314.0</ele><time>2026-05-01T10:31:49Z</time></trkpt><trkpt lat="45.90616165280346" lon="12.047456579134787"><ele>314.5</ele><time>2026-05-01T10:31:51Z</time></trkpt><trkpt lat="45.906156682447445" lon="12.047340206700726"><ele>315.0</ele><time>2026-05-01T10:31:53Z</time></trkpt><trkpt lat="45.906162409353875" lon="12.047244866080023"><ele>315.6666666666667</ele><time>2026-05-01T10:31:55Z</time></trkpt><trkpt lat="45.906126664784416" lon="12.047149502056058"><ele>316.3333333333333</ele><time>2026-05-01T10:32:12Z</time></trkpt><trkpt lat="45.906084383204785" lon="12.047045872155755"><ele>317.0</ele><time>2026-05-01T10:32:14Z</time></trkpt><trkpt lat="45.90604614281319" lon="12.046961304387406"><ele>317.66666666666663</ele><time>2026-05-01T10:32:15Z</time></trkpt><trkpt lat="45.90600605338362" lon="12.046847516969315"><ele>318.3333333333333</ele><time>2026-05-01T10:32:16Z</time></trkpt><trkpt lat="45.90594993130978" lon="12.04671582369897"><ele>319.0</ele><time>2026-05-01T10:32:17Z</time></trkpt><trkpt lat="45.90589137056035" lon="12.046557537131218"><ele>314.0</ele><time>2026-05-01T10:32:18Z</time></trkpt><trkpt lat="45.905845594397725" lon="12.046370688488556"><ele>309.0</ele><time>2026-05-01T10:32:19Z</time></trkpt><trkpt lat="45.90581637512604" lon="12.046174063061398"><ele>304.0</ele><time>2026-05-01T10:32:20Z</time></trkpt><trkpt lat="45.905801767153484" lon="12.045996686148552"><ele>299.0</ele><time>2026-05-01T10:32:21Z</time></trkpt><trkpt lat="45.905791856570545" lon="12.04585153582143"><ele>300.1666666666667</ele><time>2026-05-01T10:32:22Z</time></trkpt><trkpt lat="45.905777103683505" lon="12.045726891887155"><ele>301.33333333333337</ele><time>2026-05-01T10:32:23Z</time></trkpt><trkpt lat="45.905754963313335" lon="12.045617365938762"><ele>302.5</ele><time>2026-05-01T10:32:24Z</time></trkpt><trkpt lat="45.90572507261268" lon="12.04551666918614"><ele>303.6666666666667</ele><time>2026-05-01T10:32:24.999Z</time></trkpt><trkpt lat="45.9056969644943" lon="12.045430040723419"><ele>304.8333333333333</ele><time>2026-05-01T10:32:25.999Z</time></trkpt><trkpt lat="45.90565099596122" lon="12.045311590312883"><ele>306.0</ele><time>2026-05-01T10:32:27.999Z</time></trkpt><trkpt lat="45.90559134261811" lon="12.045166727107482"><ele>306.0</ele><time>2026-05-01T10:32:29.999Z</time></trkpt><trkpt lat="45.905556480493374" lon="12.045078365503255"><ele>306.0</ele><time>2026-05-01T10:32:30.999Z</time></trkpt><trkpt lat="45.90551710186743" lon="12.044982932779712"><ele>306.0</ele><time>2026-05-01T10:32:31.999Z</time></trkpt><trkpt lat="45.90547175554091" lon="12.044883991885392"><ele>306.0</ele><time>2026-05-01T10:32:32.999Z</time></trkpt><trkpt lat="45.905420739528246" lon="12.044765494946406"><ele>306.0</ele><time>2026-05-01T10:32:33.999Z</time></trkpt><trkpt lat="45.90536634638512" lon="12.044626617198915"><ele>306.0</ele><time>2026-05-01T10:32:34.999Z</time></trkpt><trkpt lat="45.90532337610571" lon="12.044464581986272"><ele>309.0</ele><time>2026-05-01T10:32:35.999Z</time></trkpt><trkpt lat="45.905279180779765" lon="12.04422523992794"><ele>312.0</ele><time>2026-05-01T10:32:36.999Z</time></trkpt><trkpt lat="45.90523027791982" lon="12.043940992261101"><ele>315.0</ele><time>2026-05-01T10:32:37.999Z</time></trkpt><trkpt lat="45.90517306719405" lon="12.043704650725354"><ele>316.75</ele><time>2026-05-01T10:32:38.999Z</time></trkpt><trkpt lat="45.90509530317447" lon="12.043499703283032"><ele>318.5</ele><time>2026-05-01T10:32:39.999Z</time></trkpt><trkpt lat="45.90500658863998" lon="12.043338113350597"><ele>320.25</ele><time>2026-05-01T10:32:40.999Z</time></trkpt><trkpt lat="45.90494053152444" lon="12.043173773531349"><ele>322.0</ele><time>2026-05-01T10:32:41.999Z</time></trkpt><trkpt lat="45.904893337760235" lon="12.042997854119063"><ele>317.0</ele><time>2026-05-01T10:32:42.999Z</time></trkpt><trkpt lat="45.90486224811314" lon="12.042816711304459"><ele>312.0</ele><time>2026-05-01T10:32:43.999Z</time></trkpt><trkpt lat="45.90484295155113" lon="12.042640109068671"><ele>307.0</ele><time>2026-05-01T10:32:44.999Z</time></trkpt><trkpt lat="45.904841487927705" lon="12.042480120395188"><ele>302.0</ele><time>2026-05-01T10:32:45.999Z</time></trkpt><trkpt lat="45.90486878564282" lon="12.042324482051544"><ele>300.5</ele><time>2026-05-01T10:32:46.999Z</time></trkpt><trkpt lat="45.90492638357401" lon="12.042177567020847"><ele>299.0</ele><time>2026-05-01T10:32:47.999Z</time></trkpt><trkpt lat="45.905007815687306" lon="12.042039756063488"><ele>297.5</ele><time>2026-05-01T10:32:48.999Z</time></trkpt><trkpt lat="45.905117670593135" lon="12.041900828312343"><ele>296.0</ele><time>2026-05-01T10:32:49.999Z</time></trkpt><trkpt lat="45.9052264652432" lon="12.041750174844564"><ele>303.75</ele><time>2026-05-01T10:32:50.999Z</time></trkpt><trkpt lat="45.90530731346186" lon="12.041623807732446"><ele>311.5</ele><time>2026-05-01T10:32:51.999Z</time></trkpt><trkpt lat="45.90537554632105" lon="12.041479952448475"><ele>319.25</ele><time>2026-05-01T10:32:52.999Z</time></trkpt><trkpt lat="45.90542414601994" lon="12.041309077129444"><ele>327.0</ele><time>2026-05-01T10:32:53.999Z</time></trkpt><trkpt lat="45.90544747203003" lon="12.041122934866223"><ele>327.0</ele><time>2026-05-01T10:32:54.999Z</time></trkpt><trkpt lat="45.905445149644954" lon="12.040933265949521"><ele>327.0</ele><time>2026-05-01T10:32:55.999Z</time></trkpt><trkpt lat="45.9054029147235" lon="12.04073410221845"><ele>327.0</ele><time>2026-05-01T10:32:56.999Z</time></trkpt><trkpt lat="45.90533548820022" lon="12.04052538769843"><ele>327.0</ele><time>2026-05-01T10:32:57.999Z</time></trkpt><trkpt lat="45.90525920898445" lon="12.040297388376423"><ele>328.5</ele><time>2026-05-01T10:32:58.999Z</time></trkpt><trkpt lat="45.90518547976208" lon="12.040073778881299"><ele>330.0</ele><time>2026-05-01T10:33:00Z</time></trkpt><trkpt lat="45.90512871451761" lon="12.039883506041418"><ele>331.5</ele><time>2026-05-01T10:33:01Z</time></trkpt><trkpt lat="45.9050856635863" lon="12.039710757600325"><ele>333.0</ele><time>2026-05-01T10:33:02Z</time></trkpt><trkpt lat="45.905058520945325" lon="12.039540436312402"><ele>332.25</ele><time>2026-05-01T10:33:03Z</time></trkpt><trkpt lat="45.9050512986367" lon="12.039356154415099"><ele>331.5</ele><time>2026-05-01T10:33:04Z</time></trkpt><trkpt lat="45.905057222871484" lon="12.039167202266464"><ele>330.75</ele><time>2026-05-01T10:33:05Z</time></trkpt><trkpt lat="45.90506585181015" lon="12.038974616485657"><ele>330.0</ele><time>2026-05-01T10:33:06Z</time></trkpt><trkpt lat="45.905080109544215" lon="12.038786808973255"><ele>330.0</ele><time>2026-05-01T10:33:07Z</time></trkpt><trkpt lat="45.90509974630587" lon="12.038609111590228"><ele>330.0</ele><time>2026-05-01T10:33:08Z</time></trkpt><trkpt lat="45.90512968495889" lon="12.038430352880702"><ele>330.0</ele><time>2026-05-01T10:33:09Z</time></trkpt><trkpt lat="45.90517071893611" lon="12.038253180037088"><ele>330.0</ele><time>2026-05-01T10:33:10Z</time></trkpt><trkpt lat="45.90523244457926" lon="12.038086005246601"><ele>328.75</ele><time>2026-05-01T10:33:11Z</time></trkpt><trkpt lat="45.905300246306865" lon="12.037915402408553"><ele>327.5</ele><time>2026-05-01T10:33:12Z</time></trkpt><trkpt lat="45.90536853185598" lon="12.037739129662574"><ele>326.25</ele><time>2026-05-01T10:33:13Z</time></trkpt><trkpt lat="45.90544066646582" lon="12.037557550496672"><ele>325.0</ele><time>2026-05-01T10:33:14Z</time></trkpt><trkpt lat="45.905512656511185" lon="12.03737757820548"><ele>324.0</ele><time>2026-05-01T10:33:15Z</time></trkpt><trkpt lat="45.905582124568774" lon="12.03720993230199"><ele>323.0</ele><time>2026-05-01T10:33:16Z</time></trkpt><trkpt lat="45.905649508327166" lon="12.037049089648823"><ele>322.0</ele><time>2026-05-01T10:33:17Z</time></trkpt><trkpt lat="45.9057206890028" lon="12.036888854933233"><ele>321.0</ele><time>2026-05-01T10:33:18Z</time></trkpt><trkpt lat="45.9057897009785" lon="12.036715465354447"><ele>320.3333333333333</ele><time>2026-05-01T10:33:19Z</time></trkpt><trkpt lat="45.90584399984333" lon="12.036519601645457"><ele>319.66666666666663</ele><time>2026-05-01T10:33:20Z</time></trkpt><trkpt lat="45.90588378902155" lon="12.036296888647776"><ele>319.0</ele><time>2026-05-01T10:33:21Z</time></trkpt><trkpt lat="45.90590189640805" lon="12.03605497940374"><ele>319.0</ele><time>2026-05-01T10:33:22Z</time></trkpt><trkpt lat="45.90590284759605" lon="12.035807259569093"><ele>319.0</ele><time>2026-05-01T10:33:23Z</time></trkpt><trkpt lat="45.9058874049831" lon="12.035559673771777"><ele>319.0</ele><time>2026-05-01T10:33:24Z</time></trkpt><trkpt lat="45.905864219613846" lon="12.035326504114783"><ele>320.0</ele><time>2026-05-01T10:33:25Z</time></trkpt><trkpt lat="45.90584085327236" lon="12.035125215061983"><ele>321.0</ele><time>2026-05-01T10:33:26Z</time></trkpt><trkpt lat="45.905814614859935" lon="12.034913820633449"><ele>322.0</ele><time>2026-05-01T10:33:27Z</time></trkpt><trkpt lat="45.90576413382859" lon="12.03471360687959"><ele>323.0</ele><time>2026-05-01T10:33:28Z</time></trkpt><trkpt lat="45.90568249885188" lon="12.034531781602551"><ele>328.6666666666667</ele><time>2026-05-01T10:33:29Z</time></trkpt><trkpt lat="45.90557458006314" lon="12.03437630146022"><ele>334.3333333333333</ele><time>2026-05-01T10:33:30Z</time></trkpt><trkpt lat="45.905442359524265" lon="12.034248466290473"><ele>340.0</ele><time>2026-05-01T10:33:31Z</time></trkpt><trkpt lat="45.90530947485376" lon="12.034144682641472"><ele>340.0</ele><time>2026-05-01T10:33:32Z</time></trkpt><trkpt lat="45.905190872521224" lon="12.034017611918117"><ele>340.0</ele><time>2026-05-01T10:33:33Z</time></trkpt><trkpt lat="45.90508566878282" lon="12.033864776451823"><ele>340.0</ele><time>2026-05-01T10:33:34Z</time></trkpt><trkpt lat="45.904990906186505" lon="12.03369325961676"><ele>340.0</ele><time>2026-05-01T10:33:35Z</time></trkpt><trkpt lat="45.90490362406537" lon="12.033521217211637"><ele>340.0</ele><time>2026-05-01T10:33:36Z</time></trkpt><trkpt lat="45.904820060882926" lon="12.033356209793704"><ele>340.0</ele><time>2026-05-01T10:33:37Z</time></trkpt><trkpt lat="45.9047442195173" lon="12.033180366507594"><ele>340.0</ele><time>2026-05-01T10:33:38Z</time></trkpt><trkpt lat="45.90467313379897" lon="12.032975776821276"><ele>346.66666666666663</ele><time>2026-05-01T10:33:39Z</time></trkpt><trkpt lat="45.90460189069925" lon="12.032755376079148"><ele>353.3333333333333</ele><time>2026-05-01T10:33:40Z</time></trkpt><trkpt lat="45.90453161956287" lon="12.032514598051899"><ele>360.0</ele><time>2026-05-01T10:33:41Z</time></trkpt><trkpt lat="45.90446752617235" lon="12.03224660729874"><ele>366.6666666666667</ele><time>2026-05-01T10:33:42Z</time></trkpt><trkpt lat="45.90440587179565" lon="12.03198659607962"><ele>373.33333333333337</ele><time>2026-05-01T10:33:43Z</time></trkpt><trkpt lat="45.904365762655026" lon="12.031764695053708"><ele>380.0</ele><time>2026-05-01T10:33:44Z</time></trkpt><trkpt lat="45.904303652892345" lon="12.031576851381095"><ele>384.75</ele><time>2026-05-01T10:33:45Z</time></trkpt><trkpt lat="45.904256463287176" lon="12.031388919473772"><ele>389.5</ele><time>2026-05-01T10:33:46Z</time></trkpt><trkpt lat="45.90418511977282" lon="12.031224235110932"><ele>394.25</ele><time>2026-05-01T10:33:47Z</time></trkpt><trkpt lat="45.90409823881438" lon="12.031051114594357"><ele>399.0</ele><time>2026-05-01T10:33:48Z</time></trkpt><trkpt lat="45.90395240810164" lon="12.030944246227138"><ele>391.0</ele><time>2026-05-01T10:33:49Z</time></trkpt><trkpt lat="45.903798858452745" lon="12.030858449519442"><ele>383.0</ele><time>2026-05-01T10:33:50Z</time></trkpt><trkpt lat="45.903658576030125" lon="12.030765190195893"><ele>375.0</ele><time>2026-05-01T10:33:51Z</time></trkpt><trkpt lat="45.903530273336855" lon="12.030691602558797"><ele>369.0</ele><time>2026-05-01T10:33:52Z</time></trkpt><trkpt lat="45.90341146249351" lon="12.030599476678526"><ele>363.0</ele><time>2026-05-01T10:33:53Z</time></trkpt><trkpt lat="45.90330818117318" lon="12.030485707295176"><ele>357.0</ele><time>2026-05-01T10:33:54Z</time></trkpt><trkpt lat="45.90320879364484" lon="12.030371023356006"><ele>351.0</ele><time>2026-05-01T10:33:55Z</time></trkpt><trkpt lat="45.90313545972751" lon="12.030211262707137"><ele>351.0</ele><time>2026-05-01T10:33:56Z</time></trkpt><trkpt lat="45.90308024242127" lon="12.03003095970308"><ele>351.0</ele><time>2026-05-01T10:33:57Z</time></trkpt><trkpt lat="45.90304905812535" lon="12.029842778345069"><ele>351.0</ele><time>2026-05-01T10:33:58Z</time></trkpt><trkpt lat="45.903048346407815" lon="12.029671182151711"><ele>351.0</ele><time>2026-05-01T10:33:59Z</time></trkpt><trkpt lat="45.9030802433709" lon="12.029492462922866"><ele>350.0</ele><time>2026-05-01T10:34:00Z</time></trkpt><trkpt lat="45.90313825244734" lon="12.029322618137543"><ele>349.0</ele><time>2026-05-01T10:34:01Z</time></trkpt><trkpt lat="45.9032302397563" lon="12.029180408979464"><ele>348.0</ele><time>2026-05-01T10:34:02Z</time></trkpt><trkpt lat="45.90332978080563" lon="12.029066645597306"><ele>347.0</ele><time>2026-05-01T10:34:03Z</time></trkpt><trkpt lat="45.903418114959315" lon="12.02895756499018"><ele>352.25</ele><time>2026-05-01T10:34:04Z</time></trkpt><trkpt lat="45.903489799741706" lon="12.028830684818713"><ele>357.5</ele><time>2026-05-01T10:34:05Z</time></trkpt><trkpt lat="45.903532010338374" lon="12.028676266561412"><ele>362.75</ele><time>2026-05-01T10:34:06Z</time></trkpt><trkpt lat="45.90352884194085" lon="12.028497566266275"><ele>368.0</ele><time>2026-05-01T10:34:07Z</time></trkpt><trkpt lat="45.90347396186586" lon="12.028328870894336"><ele>368.2</ele><time>2026-05-01T10:34:08Z</time></trkpt><trkpt lat="45.903423486520666" lon="12.028182900456308"><ele>368.4</ele><time>2026-05-01T10:34:09Z</time></trkpt><trkpt lat="45.90337045716757" lon="12.028072888722367"><ele>368.59999999999997</ele><time>2026-05-01T10:34:10Z</time></trkpt><trkpt lat="45.90332154296162" lon="12.027969327089577"><ele>368.79999999999995</ele><time>2026-05-01T10:34:11Z</time></trkpt><trkpt lat="45.903257074386275" lon="12.027869296882276"><ele>369.0</ele><time>2026-05-01T10:34:12Z</time></trkpt><trkpt lat="45.90322958745668" lon="12.027749922587862"><ele>365.79999999999995</ele><time>2026-05-01T10:34:13Z</time></trkpt><trkpt lat="45.903216392285444" lon="12.027632159453509"><ele>362.59999999999997</ele><time>2026-05-01T10:34:14Z</time></trkpt><trkpt lat="45.90321726978004" lon="12.02750449893139"><ele>359.4</ele><time>2026-05-01T10:34:15Z</time></trkpt><trkpt lat="45.903233222376365" lon="12.027375290981327"><ele>356.2</ele><time>2026-05-01T10:34:16Z</time></trkpt><trkpt lat="45.903260036298825" lon="12.027244267221302"><ele>353.0</ele><time>2026-05-01T10:34:17Z</time></trkpt><trkpt lat="45.90329230282517" lon="12.027106548853203"><ele>353.79999999999995</ele><time>2026-05-01T10:34:18Z</time></trkpt><trkpt lat="45.90333706418006" lon="12.026968823700974"><ele>354.6</ele><time>2026-05-01T10:34:19Z</time></trkpt><trkpt lat="45.90339329588326" lon="12.026849163502774"><ele>355.4</ele><time>2026-05-01T10:34:20Z</time></trkpt><trkpt lat="45.903455913206066" lon="12.026742424294794"><ele>356.20000000000005</ele><time>2026-05-01T10:34:21Z</time></trkpt><trkpt lat="45.90352656941534" lon="12.0266405521674"><ele>357.0</ele><time>2026-05-01T10:34:22Z</time></trkpt><trkpt lat="45.903614689182746" lon="12.026552696120643"><ele>353.5</ele><time>2026-05-01T10:34:23Z</time></trkpt><trkpt lat="45.903712467815296" lon="12.026477388440295"><ele>350.0</ele><time>2026-05-01T10:34:24Z</time></trkpt><trkpt lat="45.90382004039116" lon="12.02641440080761"><ele>346.5</ele><time>2026-05-01T10:34:24.999Z</time></trkpt><trkpt lat="45.90393192615816" lon="12.026363584665374"><ele>343.0</ele><time>2026-05-01T10:34:25.999Z</time></trkpt><trkpt lat="45.90404937065238" lon="12.026319252418663"><ele>343.0</ele><time>2026-05-01T10:34:26.999Z</time></trkpt><trkpt lat="45.90416076243983" lon="12.026278106348226"><ele>343.0</ele><time>2026-05-01T10:34:27.999Z</time></trkpt><trkpt lat="45.90425490276856" lon="12.026235401415105"><ele>343.0</ele><time>2026-05-01T10:34:28.999Z</time></trkpt><trkpt lat="45.90433902947056" lon="12.026182656320715"><ele>343.0</ele><time>2026-05-01T10:34:29.999Z</time></trkpt><trkpt lat="45.90441079305994" lon="12.026114248776311"><ele>343.0</ele><time>2026-05-01T10:34:30.999Z</time></trkpt><trkpt lat="45.904469409232526" lon="12.026027528414106"><ele>345.59999999999997</ele><time>2026-05-01T10:34:31.999Z</time></trkpt><trkpt lat="45.90452447313198" lon="12.025932575427177"><ele>348.2</ele><time>2026-05-01T10:34:32.999Z</time></trkpt><trkpt lat="45.904567594200046" lon="12.025818294267392"><ele>350.8</ele><time>2026-05-01T10:34:33.999Z</time></trkpt><trkpt lat="45.904587646043545" lon="12.025686093075864"><ele>353.4</ele><time>2026-05-01T10:34:34.999Z</time></trkpt><trkpt lat="45.904591239152175" lon="12.025550672831418"><ele>356.0</ele><time>2026-05-01T10:34:35.999Z</time></trkpt><trkpt lat="45.904589275482905" lon="12.025415318781839"><ele>356.0</ele><time>2026-05-01T10:34:36.999Z</time></trkpt><trkpt lat="45.9045801386984" lon="12.025284115949608"><ele>356.0</ele><time>2026-05-01T10:34:37.999Z</time></trkpt><trkpt lat="45.90454353236881" lon="12.025179953475"><ele>356.0</ele><time>2026-05-01T10:34:38.999Z</time></trkpt><trkpt lat="45.90447322714206" lon="12.025094493926598"><ele>356.0</ele><time>2026-05-01T10:34:39.999Z</time></trkpt><trkpt lat="45.90437916610142" lon="12.025022349223159"><ele>356.0</ele><time>2026-05-01T10:34:40.999Z</time></trkpt><trkpt lat="45.9042666587802" lon="12.024949151247185"><ele>355.25</ele><time>2026-05-01T10:34:41.999Z</time></trkpt><trkpt lat="45.90414172540968" lon="12.024864559916141"><ele>354.5</ele><time>2026-05-01T10:34:42.999Z</time></trkpt><trkpt lat="45.90401634793744" lon="12.024774772991897"><ele>353.75</ele><time>2026-05-01T10:34:43.999Z</time></trkpt><trkpt lat="45.903906687928014" lon="12.024682817096574"><ele>353.0</ele><time>2026-05-01T10:34:44.999Z</time></trkpt><trkpt lat="45.903814054637486" lon="12.024580839678464"><ele>353.0</ele><time>2026-05-01T10:34:45.999Z</time></trkpt><trkpt lat="45.90373388524406" lon="12.024448349123434"><ele>353.0</ele><time>2026-05-01T10:34:46.999Z</time></trkpt><trkpt lat="45.90367027463381" lon="12.024285102882395"><ele>353.0</ele><time>2026-05-01T10:34:47.999Z</time></trkpt><trkpt lat="45.903615211043544" lon="12.02409564882379"><ele>353.0</ele><time>2026-05-01T10:34:48.999Z</time></trkpt><trkpt lat="45.90355810219302" lon="12.023907157869418"><ele>352.0</ele><time>2026-05-01T10:34:49.999Z</time></trkpt><trkpt lat="45.90350176407983" lon="12.0237248357066"><ele>351.0</ele><time>2026-05-01T10:34:50.999Z</time></trkpt><trkpt lat="45.90344214192878" lon="12.02353131619836"><ele>350.0</ele><time>2026-05-01T10:34:51.999Z</time></trkpt><trkpt lat="45.9033793471386" lon="12.023329940297744"><ele>349.0</ele><time>2026-05-01T10:34:52.999Z</time></trkpt><trkpt lat="45.903323497955306" lon="12.023144939003084"><ele>349.0</ele><time>2026-05-01T10:34:53.999Z</time></trkpt><trkpt lat="45.90327192389132" lon="12.022974032305441"><ele>349.0</ele><time>2026-05-01T10:34:54.999Z</time></trkpt><trkpt lat="45.903219222746785" lon="12.022819322959009"><ele>349.0</ele><time>2026-05-01T10:34:55.999Z</time></trkpt><trkpt lat="45.90315856515879" lon="12.022670236230002"><ele>349.0</ele><time>2026-05-01T10:34:56.999Z</time></trkpt><trkpt lat="45.903132616636476" lon="12.022494490772669"><ele>350.25</ele><time>2026-05-01T10:34:57.999Z</time></trkpt><trkpt lat="45.902996728984554" lon="12.022438890355756"><ele>351.5</ele><time>2026-05-01T10:34:58.999Z</time></trkpt><trkpt lat="45.90288712829723" lon="12.022343958327683"><ele>352.75</ele><time>2026-05-01T10:34:59.999Z</time></trkpt><trkpt lat="45.902765474366895" lon="12.022261110620342"><ele>354.0</ele><time>2026-05-01T10:35:00.999Z</time></trkpt><trkpt lat="45.902629211372535" lon="12.02217190858111"><ele>349.6666666666667</ele><time>2026-05-01T10:35:01.999Z</time></trkpt><trkpt lat="45.9024869374746" lon="12.022069779018382"><ele>345.33333333333337</ele><time>2026-05-01T10:35:02.999Z</time></trkpt><trkpt lat="45.90234651888782" lon="12.021961644018605"><ele>341.0</ele><time>2026-05-01T10:35:03.999Z</time></trkpt><trkpt lat="45.90220612688089" lon="12.021859992901318"><ele>341.0</ele><time>2026-05-01T10:35:04.999Z</time></trkpt><trkpt lat="45.90207484230092" lon="12.021767279899995"><ele>341.0</ele><time>2026-05-01T10:35:06Z</time></trkpt><trkpt lat="45.90195329220781" lon="12.021684231682086"><ele>341.0</ele><time>2026-05-01T10:35:07Z</time></trkpt><trkpt lat="45.90184169793386" lon="12.021605481020687"><ele>341.0</ele><time>2026-05-01T10:35:08Z</time></trkpt><trkpt lat="45.901742029734216" lon="12.021518680939513"><ele>339.75</ele><time>2026-05-01T10:35:09Z</time></trkpt><trkpt lat="45.90165574073855" lon="12.021404649599818"><ele>338.5</ele><time>2026-05-01T10:35:10Z</time></trkpt><trkpt lat="45.90157914070868" lon="12.021264014389443"><ele>337.25</ele><time>2026-05-01T10:35:11Z</time></trkpt><trkpt lat="45.901512497357224" lon="12.021116699329182"><ele>336.0</ele><time>2026-05-01T10:35:12Z</time></trkpt><trkpt lat="45.901447756170846" lon="12.020980866254044"><ele>336.0</ele><time>2026-05-01T10:35:13Z</time></trkpt><trkpt lat="45.90138388209945" lon="12.02085657029792"><ele>336.0</ele><time>2026-05-01T10:35:14Z</time></trkpt><trkpt lat="45.90132435192888" lon="12.020735495998078"><ele>336.0</ele><time>2026-05-01T10:35:15Z</time></trkpt><trkpt lat="45.90126898190836" lon="12.020621000960999"><ele>336.0</ele><time>2026-05-01T10:35:16Z</time></trkpt><trkpt lat="45.9012233135733" lon="12.020527197033493"><ele>336.0</ele><time>2026-05-01T10:35:17Z</time></trkpt><trkpt lat="45.90118282426734" lon="12.020436067562406"><ele>336.2857142857143</ele><time>2026-05-01T10:35:18Z</time></trkpt><trkpt lat="45.90114291065997" lon="12.02035615009582"><ele>336.57142857142856</ele><time>2026-05-01T10:35:19Z</time></trkpt><trkpt lat="45.90110047063851" lon="12.020275263444482"><ele>336.8571428571429</ele><time>2026-05-01T10:35:20Z</time></trkpt><trkpt lat="45.901052123900186" lon="12.020185784443376"><ele>337.1428571428571</ele><time>2026-05-01T10:35:21Z</time></trkpt><trkpt lat="45.90100504665646" lon="12.020097668190243"><ele>337.42857142857144</ele><time>2026-05-01T10:35:22Z</time></trkpt><trkpt lat="45.90096053863851" lon="12.020012557436198"><ele>337.7142857142857</ele><time>2026-05-01T10:35:23Z</time></trkpt><trkpt lat="45.90092058599449" lon="12.019930285900589"><ele>338.0</ele><time>2026-05-01T10:35:24Z</time></trkpt><trkpt lat="45.90088336383948" lon="12.019852682044801"><ele>336.1666666666667</ele><time>2026-05-01T10:35:25Z</time></trkpt><trkpt lat="45.90084551737118" lon="12.019772804606518"><ele>334.33333333333337</ele><time>2026-05-01T10:35:26Z</time></trkpt><trkpt lat="45.90081213460491" lon="12.019682740697329"><ele>332.5</ele><time>2026-05-01T10:35:27Z</time></trkpt><trkpt lat="45.9007808142308" lon="12.019585107667757"><ele>330.6666666666667</ele><time>2026-05-01T10:35:28Z</time></trkpt><trkpt lat="45.90075853635397" lon="12.019474787677538"><ele>328.8333333333333</ele><time>2026-05-01T10:35:29Z</time></trkpt><trkpt lat="45.90074056426137" lon="12.019352361474727"><ele>327.0</ele><time>2026-05-01T10:35:30Z</time></trkpt><trkpt lat="45.90073076001293" lon="12.019205831809641"><ele>326.0</ele><time>2026-05-01T10:35:31Z</time></trkpt><trkpt lat="45.900731996835425" lon="12.019061378613506"><ele>325.0</ele><time>2026-05-01T10:35:32Z</time></trkpt><trkpt lat="45.90072254213967" lon="12.018925348384148"><ele>324.0</ele><time>2026-05-01T10:35:33Z</time></trkpt><trkpt lat="45.90071570287011" lon="12.018797260765114"><ele>323.0</ele><time>2026-05-01T10:35:34Z</time></trkpt><trkpt lat="45.90070539702191" lon="12.01866945138216"><ele>322.0</ele><time>2026-05-01T10:35:35Z</time></trkpt><trkpt lat="45.90069638418714" lon="12.018536060579212"><ele>322.0</ele><time>2026-05-01T10:35:36Z</time></trkpt><trkpt lat="45.90068865858369" lon="12.018402477580999"><ele>322.0</ele><time>2026-05-01T10:35:37Z</time></trkpt><trkpt lat="45.90068042525185" lon="12.018263231904893"><ele>322.0</ele><time>2026-05-01T10:35:38Z</time></trkpt><trkpt lat="45.90066696217727" lon="12.018114048117852"><ele>322.0</ele><time>2026-05-01T10:35:39Z</time></trkpt><trkpt lat="45.90065390853755" lon="12.01796356850361"><ele>322.0</ele><time>2026-05-01T10:35:40Z</time></trkpt><trkpt lat="45.90063883270474" lon="12.017807925161055"><ele>321.5</ele><time>2026-05-01T10:35:41Z</time></trkpt><trkpt lat="45.90063393727119" lon="12.01764456792384"><ele>321.0</ele><time>2026-05-01T10:35:42Z</time></trkpt><trkpt lat="45.9006456067255" lon="12.017479980679314"><ele>320.5</ele><time>2026-05-01T10:35:43Z</time></trkpt><trkpt lat="45.90066003433051" lon="12.017308733210616"><ele>320.0</ele><time>2026-05-01T10:35:44Z</time></trkpt><trkpt lat="45.90068091478201" lon="12.01713646275452"><ele>319.0</ele><time>2026-05-01T10:35:45Z</time></trkpt><trkpt lat="45.90070266116536" lon="12.016963365503223"><ele>318.0</ele><time>2026-05-01T10:35:46Z</time></trkpt><trkpt lat="45.900721744825105" lon="12.01678549941941"><ele>317.0</ele><time>2026-05-01T10:35:47Z</time></trkpt><trkpt lat="45.90074072123919" lon="12.0166071872465"><ele>316.0</ele><time>2026-05-01T10:35:48Z</time></trkpt><trkpt lat="45.900759533311394" lon="12.016432448659577"><ele>314.75</ele><time>2026-05-01T10:35:49Z</time></trkpt><trkpt lat="45.90078502972069" lon="12.016251589519559"><ele>313.5</ele><time>2026-05-01T10:35:50Z</time></trkpt><trkpt lat="45.90080601606014" lon="12.01606344895083"><ele>312.25</ele><time>2026-05-01T10:35:51Z</time></trkpt><trkpt lat="45.900826377952725" lon="12.015875845502544"><ele>311.0</ele><time>2026-05-01T10:35:52Z</time></trkpt><trkpt lat="45.90085302073444" lon="12.0156915135141"><ele>311.25</ele><time>2026-05-01T10:35:53Z</time></trkpt><trkpt lat="45.90087567459357" lon="12.015501626833435"><ele>311.5</ele><time>2026-05-01T10:35:54Z</time></trkpt><trkpt lat="45.900896320146934" lon="12.015309022536268"><ele>311.75</ele><time>2026-05-01T10:35:55Z</time></trkpt><trkpt lat="45.90092274992627" lon="12.015115358270007"><ele>312.0</ele><time>2026-05-01T10:35:56Z</time></trkpt><trkpt lat="45.90095410826781" lon="12.014921820321986"><ele>312.0</ele><time>2026-05-01T10:35:57Z</time></trkpt><trkpt lat="45.90098686808805" lon="12.014739704834115"><ele>312.0</ele><time>2026-05-01T10:35:58Z</time></trkpt><trkpt lat="45.90102479521033" lon="12.014574106768947"><ele>312.0</ele><time>2026-05-01T10:35:59Z</time></trkpt><trkpt lat="45.9010602203973" lon="12.014417530544867"><ele>312.0</ele><time>2026-05-01T10:36:00Z</time></trkpt><trkpt lat="45.901094502158585" lon="12.014270539344363"><ele>311.1666666666667</ele><time>2026-05-01T10:36:01Z</time></trkpt><trkpt lat="45.90112801259883" lon="12.01413470395478"><ele>310.3333333333333</ele><time>2026-05-01T10:36:02Z</time></trkpt><trkpt lat="45.901162391221575" lon="12.014007471065568"><ele>309.5</ele><time>2026-05-01T10:36:03Z</time></trkpt><trkpt lat="45.90118934562543" lon="12.013897808972834"><ele>308.66666666666663</ele><time>2026-05-01T10:36:04Z</time></trkpt><trkpt lat="45.90121417929213" lon="12.013797457644877"><ele>307.8333333333333</ele><time>2026-05-01T10:36:05Z</time></trkpt><trkpt lat="45.901237947255964" lon="12.013701907047716"><ele>307.0</ele><time>2026-05-01T10:36:06Z</time></trkpt><trkpt lat="45.901260527852195" lon="12.013605230158426"><ele>307.0</ele><time>2026-05-01T10:36:07Z</time></trkpt><trkpt lat="45.901286460732386" lon="12.013502377873879"><ele>307.0</ele><time>2026-05-01T10:36:08Z</time></trkpt><trkpt lat="45.90131785570105" lon="12.013385570229701"><ele>307.0</ele><time>2026-05-01T10:36:09Z</time></trkpt><trkpt lat="45.90135402705956" lon="12.013263095960802"><ele>307.0</ele><time>2026-05-01T10:36:10Z</time></trkpt><trkpt lat="45.9013871360305" lon="12.013132655522085"><ele>307.0</ele><time>2026-05-01T10:36:11Z</time></trkpt><trkpt lat="45.90142130049306" lon="12.012996864645187"><ele>306.6</ele><time>2026-05-01T10:36:12Z</time></trkpt><trkpt lat="45.90145849634347" lon="12.012857548427968"><ele>306.2</ele><time>2026-05-01T10:36:13Z</time></trkpt><trkpt lat="45.90149905885016" lon="12.012716121366239"><ele>305.8</ele><time>2026-05-01T10:36:14Z</time></trkpt><trkpt lat="45.901535328766" lon="12.01256749247927"><ele>305.4</ele><time>2026-05-01T10:36:15Z</time></trkpt><trkpt lat="45.90157731337688" lon="12.012416956463452"><ele>305.0</ele><time>2026-05-01T10:36:16Z</time></trkpt><trkpt lat="45.901616778762275" lon="12.012268447634089"><ele>305.0</ele><time>2026-05-01T10:36:17Z</time></trkpt><trkpt lat="45.90165388770787" lon="12.01212185958645"><ele>305.0</ele><time>2026-05-01T10:36:18Z</time></trkpt><trkpt lat="45.90168985868399" lon="12.011983469064493"><ele>305.0</ele><time>2026-05-01T10:36:19Z</time></trkpt><trkpt lat="45.901725571375955" lon="12.01185109329841"><ele>305.0</ele><time>2026-05-01T10:36:20Z</time></trkpt><trkpt lat="45.90175970588208" lon="12.011720682095834"><ele>305.0</ele><time>2026-05-01T10:36:21Z</time></trkpt><trkpt lat="45.901792499546545" lon="12.011588615548431"><ele>304.4</ele><time>2026-05-01T10:36:22Z</time></trkpt><trkpt lat="45.901827938991254" lon="12.011455739655323"><ele>303.8</ele><time>2026-05-01T10:36:23Z</time></trkpt><trkpt lat="45.90186287096248" lon="12.01131845501246"><ele>303.2</ele><time>2026-05-01T10:36:24Z</time></trkpt><trkpt lat="45.90189478927576" lon="12.011175645316651"><ele>302.6</ele><time>2026-05-01T10:36:25Z</time></trkpt><trkpt lat="45.901932517101486" lon="12.011025510888059"><ele>302.0</ele><time>2026-05-01T10:36:26Z</time></trkpt><trkpt lat="45.9019738325112" lon="12.010865622787433"><ele>301.0</ele><time>2026-05-01T10:36:27Z</time></trkpt><trkpt lat="45.90201493812282" lon="12.010703403062541"><ele>300.0</ele><time>2026-05-01T10:36:28Z</time></trkpt><trkpt lat="45.90205586867761" lon="12.010540124689399"><ele>299.0</ele><time>2026-05-01T10:36:29Z</time></trkpt><trkpt lat="45.902100934982855" lon="12.010385758458968"><ele>298.0</ele><time>2026-05-01T10:36:30Z</time></trkpt><trkpt lat="45.90213909208241" lon="12.010233481780137"><ele>298.0</ele><time>2026-05-01T10:36:31Z</time></trkpt><trkpt lat="45.902181444712745" lon="12.010085450626844"><ele>298.0</ele><time>2026-05-01T10:36:31.999Z</time></trkpt><trkpt lat="45.902220218523965" lon="12.009933633509494"><ele>298.0</ele><time>2026-05-01T10:36:32.999Z</time></trkpt><trkpt lat="45.902260365257604" lon="12.009782179075852"><ele>298.0</ele><time>2026-05-01T10:36:33.999Z</time></trkpt><trkpt lat="45.9023006399503" lon="12.00962800067186"><ele>296.5</ele><time>2026-05-01T10:36:34.999Z</time></trkpt><trkpt lat="45.90233901866634" lon="12.0094696827269"><ele>295.0</ele><time>2026-05-01T10:36:35.999Z</time></trkpt><trkpt lat="45.90237538706846" lon="12.009310880980227"><ele>293.5</ele><time>2026-05-01T10:36:36.999Z</time></trkpt><trkpt lat="45.90240190132322" lon="12.009147171109378"><ele>292.0</ele><time>2026-05-01T10:36:37.999Z</time></trkpt><trkpt lat="45.902416668074935" lon="12.008978443811497"><ele>291.25</ele><time>2026-05-01T10:36:38.999Z</time></trkpt><trkpt lat="45.902415625232116" lon="12.008807558158301"><ele>290.5</ele><time>2026-05-01T10:36:39.999Z</time></trkpt><trkpt lat="45.90239954048106" lon="12.008634620571092"><ele>289.75</ele><time>2026-05-01T10:36:40.999Z</time></trkpt><trkpt lat="45.90238218307374" lon="12.008462892836272"><ele>289.0</ele><time>2026-05-01T10:36:41.999Z</time></trkpt><trkpt lat="45.90236767770126" lon="12.00829309637631"><ele>288.8</ele><time>2026-05-01T10:36:42.999Z</time></trkpt><trkpt lat="45.902352237699525" lon="12.008128244060822"><ele>288.59999999999997</ele><time>2026-05-01T10:36:43.999Z</time></trkpt><trkpt lat="45.902337300764415" lon="12.007966920483113"><ele>288.4</ele><time>2026-05-01T10:36:44.999Z</time></trkpt><trkpt lat="45.90232233275291" lon="12.007808431516686"><ele>288.2</ele><time>2026-05-01T10:36:45.999Z</time></trkpt><trkpt lat="45.90230822553072" lon="12.007653327613507"><ele>288.0</ele><time>2026-05-01T10:36:46.999Z</time></trkpt><trkpt lat="45.902296249995224" lon="12.007499342701465"><ele>287.6</ele><time>2026-05-01T10:36:47.999Z</time></trkpt><trkpt lat="45.90228248821743" lon="12.007338942635196"><ele>287.20000000000005</ele><time>2026-05-01T10:36:48.999Z</time></trkpt><trkpt lat="45.90226031706184" lon="12.007181908120003"><ele>286.8</ele><time>2026-05-01T10:36:49.999Z</time></trkpt><trkpt lat="45.902219877259604" lon="12.007037227822167"><ele>286.40000000000003</ele><time>2026-05-01T10:36:50.999Z</time></trkpt><trkpt lat="45.90216998306184" lon="12.006898520541345"><ele>286.0</ele><time>2026-05-01T10:36:51.999Z</time></trkpt><trkpt lat="45.90210505610574" lon="12.006768649066192"><ele>285.25</ele><time>2026-05-01T10:36:52.999Z</time></trkpt><trkpt lat="45.90204094800841" lon="12.006632310492867"><ele>284.5</ele><time>2026-05-01T10:36:53.999Z</time></trkpt><trkpt lat="45.90199444651209" lon="12.006485853171096"><ele>283.75</ele><time>2026-05-01T10:36:54.999Z</time></trkpt><trkpt lat="45.90196166479613" lon="12.006330871568956"><ele>283.0</ele><time>2026-05-01T10:36:55.999Z</time></trkpt><trkpt lat="45.90194759920517" lon="12.006168174587993"><ele>283.0</ele><time>2026-05-01T10:36:56.999Z</time></trkpt><trkpt lat="45.90196132637613" lon="12.005995682014143"><ele>283.0</ele><time>2026-05-01T10:36:57.999Z</time></trkpt><trkpt lat="45.90197878171631" lon="12.00582255933132"><ele>283.0</ele><time>2026-05-01T10:36:58.999Z</time></trkpt><trkpt lat="45.90200293136044" lon="12.00564928826241"><ele>283.0</ele><time>2026-05-01T10:36:59.999Z</time></trkpt><trkpt lat="45.902016956426486" lon="12.005487240778473"><ele>282.25</ele><time>2026-05-01T10:37:00.999Z</time></trkpt><trkpt lat="45.902011276694225" lon="12.005325939321805"><ele>281.5</ele><time>2026-05-01T10:37:01.999Z</time></trkpt><trkpt lat="45.90198723954998" lon="12.005169974888663"><ele>280.75</ele><time>2026-05-01T10:37:02.999Z</time></trkpt><trkpt lat="45.90193743558258" lon="12.005013556828947"><ele>280.0</ele><time>2026-05-01T10:37:03.999Z</time></trkpt><trkpt lat="45.901896638638085" lon="12.004850273116041"><ele>277.75</ele><time>2026-05-01T10:37:04.999Z</time></trkpt><trkpt lat="45.90184039610486" lon="12.004690143437596"><ele>275.5</ele><time>2026-05-01T10:37:05.999Z</time></trkpt><trkpt lat="45.90178412695444" lon="12.004530142246859"><ele>273.25</ele><time>2026-05-01T10:37:06.999Z</time></trkpt><trkpt lat="45.901715020050965" lon="12.004381598783766"><ele>271.0</ele><time>2026-05-01T10:37:07.999Z</time></trkpt><trkpt lat="45.90166415479839" lon="12.004227316756952"><ele>268.25</ele><time>2026-05-01T10:37:08.999Z</time></trkpt><trkpt lat="45.901613473233276" lon="12.004072881960125"><ele>265.5</ele><time>2026-05-01T10:37:09.999Z</time></trkpt><trkpt lat="45.90156297650008" lon="12.003915833744195"><ele>262.75</ele><time>2026-05-01T10:37:10.999Z</time></trkpt><trkpt lat="45.90151377660738" lon="12.003754225601432"><ele>260.0</ele><time>2026-05-01T10:37:12Z</time></trkpt><trkpt lat="45.90146734021391" lon="12.003596199860507"><ele>260.0</ele><time>2026-05-01T10:37:13Z</time></trkpt><trkpt lat="45.9014188747363" lon="12.0034394737076"><ele>260.0</ele><time>2026-05-01T10:37:14Z</time></trkpt><trkpt lat="45.9013748513484" lon="12.003279458328693"><ele>260.0</ele><time>2026-05-01T10:37:15Z</time></trkpt><trkpt lat="45.901338444645546" lon="12.003112143904724"><ele>260.0</ele><time>2026-05-01T10:37:16Z</time></trkpt><trkpt lat="45.901311752117046" lon="12.002933751821862"><ele>259.5</ele><time>2026-05-01T10:37:17Z</time></trkpt><trkpt lat="45.9012961152538" lon="12.002743561147954"><ele>259.0</ele><time>2026-05-01T10:37:18Z</time></trkpt><trkpt lat="45.901289837691635" lon="12.002546269061467"><ele>258.5</ele><time>2026-05-01T10:37:19Z</time></trkpt><trkpt lat="45.901282168446706" lon="12.002363874013794"><ele>258.0</ele><time>2026-05-01T10:37:20Z</time></trkpt><trkpt lat="45.90127396486013" lon="12.002190310631"><ele>258.0</ele><time>2026-05-01T10:37:21Z</time></trkpt><trkpt lat="45.9012671389637" lon="12.002035941164925"><ele>258.0</ele><time>2026-05-01T10:37:22Z</time></trkpt><trkpt lat="45.90126660199648" lon="12.00190573088141"><ele>258.0</ele><time>2026-05-01T10:37:23Z</time></trkpt><trkpt lat="45.90126879163104" lon="12.001796293448743"><ele>258.0</ele><time>2026-05-01T10:37:24Z</time></trkpt><trkpt lat="45.90127312797458" lon="12.00170126912275"><ele>258.0</ele><time>2026-05-01T10:37:25Z</time></trkpt><trkpt lat="45.901286872456225" lon="12.001550459133712"><ele>258.0</ele><time>2026-05-01T10:37:27Z</time></trkpt><trkpt lat="45.901294625967616" lon="12.00145582743525"><ele>257.6666666666667</ele><time>2026-05-01T10:37:29Z</time></trkpt><trkpt lat="45.901302765248026" lon="12.001365849177057"><ele>257.3333333333333</ele><time>2026-05-01T10:37:31Z</time></trkpt><trkpt lat="45.90131891595981" lon="12.001248446991669"><ele>257.0</ele><time>2026-05-01T10:37:34Z</time></trkpt><trkpt lat="45.90133400753756" lon="12.001117584354994"><ele>256.66666666666663</ele><time>2026-05-01T10:37:36Z</time></trkpt><trkpt lat="45.901366018265755" lon="12.000944687675716"><ele>256.3333333333333</ele><time>2026-05-01T10:37:38Z</time></trkpt><trkpt lat="45.901377509782264" lon="12.000841915413542"><ele>256.0</ele><time>2026-05-01T10:37:39Z</time></trkpt><trkpt lat="45.90138975639682" lon="12.00073267558515"><ele>255.4</ele><time>2026-05-01T10:37:40Z</time></trkpt><trkpt lat="45.90140309875395" lon="12.000616282507014"><ele>254.8</ele><time>2026-05-01T10:37:41Z</time></trkpt><trkpt lat="45.90141785544822" lon="12.000487551323348"><ele>254.20000000000002</ele><time>2026-05-01T10:37:42Z</time></trkpt><trkpt lat="45.90141911706808" lon="12.000340415070673"><ele>253.60000000000002</ele><time>2026-05-01T10:37:43Z</time></trkpt><trkpt lat="45.90143606700873" lon="12.000199064882818"><ele>253.0</ele><time>2026-05-01T10:37:44Z</time></trkpt><trkpt lat="45.90146651244253" lon="12.000069649633707"><ele>253.0</ele><time>2026-05-01T10:37:45Z</time></trkpt><trkpt lat="45.90148277904427" lon="11.999936352225559"><ele>253.0</ele><time>2026-05-01T10:37:46Z</time></trkpt><trkpt lat="45.901499393241984" lon="11.999800206446011"><ele>253.0</ele><time>2026-05-01T10:37:47Z</time></trkpt><trkpt lat="45.90151660712888" lon="11.999658856712783"><ele>253.0</ele><time>2026-05-01T10:37:48Z</time></trkpt><trkpt lat="45.90152026449721" lon="11.999508537589431"><ele>253.0</ele><time>2026-05-01T10:37:49Z</time></trkpt><trkpt lat="45.90155319970845" lon="11.999357585503013"><ele>253.0</ele><time>2026-05-01T10:37:50Z</time></trkpt><trkpt lat="45.90157154454872" lon="11.999206550148271"><ele>253.0</ele><time>2026-05-01T10:37:51Z</time></trkpt><trkpt lat="45.901589526026505" lon="11.999058506416496"><ele>253.0</ele><time>2026-05-01T10:37:52Z</time></trkpt><trkpt lat="45.90160815715149" lon="11.998905114091537"><ele>253.0</ele><time>2026-05-01T10:37:53Z</time></trkpt><trkpt lat="45.90162658145553" lon="11.998747129344656"><ele>253.0</ele><time>2026-05-01T10:37:54Z</time></trkpt><trkpt lat="45.90164279006282" lon="11.99859763395631"><ele>252.99999999999997</ele><time>2026-05-01T10:37:55Z</time></trkpt><trkpt lat="45.90165733070319" lon="11.998467510343701"><ele>253.0</ele><time>2026-05-01T10:37:56Z</time></trkpt><trkpt lat="45.901671171293906" lon="11.99834361299586"><ele>253.0</ele><time>2026-05-01T10:37:57Z</time></trkpt><trkpt lat="45.90168532563719" lon="11.998221256396798"><ele>253.0</ele><time>2026-05-01T10:37:58Z</time></trkpt><trkpt lat="45.9016837511033" lon="11.998097937621266"><ele>252.99999999999997</ele><time>2026-05-01T10:37:59Z</time></trkpt><trkpt lat="45.90169915258685" lon="11.997981421957492"><ele>253.0</ele><time>2026-05-01T10:38:00Z</time></trkpt><trkpt lat="45.901712492226636" lon="11.99786729704023"><ele>252.99999999999997</ele><time>2026-05-01T10:38:01Z</time></trkpt><trkpt lat="45.901740474968896" lon="11.99776615562064"><ele>253.0</ele><time>2026-05-01T10:38:02Z</time></trkpt><trkpt lat="45.90175204777282" lon="11.997654295287868"><ele>253.0</ele><time>2026-05-01T10:38:03Z</time></trkpt><trkpt lat="45.90175213928576" lon="11.997524890749537"><ele>253.0</ele><time>2026-05-01T10:38:04Z</time></trkpt><trkpt lat="45.90176571437485" lon="11.997387030119016"><ele>252.99999999999997</ele><time>2026-05-01T10:38:05Z</time></trkpt><trkpt lat="45.901782356771434" lon="11.997253790820835"><ele>253.0</ele><time>2026-05-01T10:38:06Z</time></trkpt><trkpt lat="45.901798716956804" lon="11.997126102178838"><ele>254.83333333333331</ele><time>2026-05-01T10:38:07Z</time></trkpt><trkpt lat="45.90181557815776" lon="11.997001851228054"><ele>256.66666666666663</ele><time>2026-05-01T10:38:08Z</time></trkpt><trkpt lat="45.90183076096415" lon="11.996873419412086"><ele>258.5</ele><time>2026-05-01T10:38:09Z</time></trkpt><trkpt lat="45.901843018091235" lon="11.996754901007707"><ele>260.3333333333333</ele><time>2026-05-01T10:38:10Z</time></trkpt><trkpt lat="45.901839239435844" lon="11.996633241059625"><ele>262.1666666666667</ele><time>2026-05-01T10:38:11Z</time></trkpt><trkpt lat="45.90184470177472" lon="11.996514340588305"><ele>264.0</ele><time>2026-05-01T10:38:12Z</time></trkpt><trkpt lat="45.90184408652361" lon="11.996405584807427"><ele>264.0</ele><time>2026-05-01T10:38:13Z</time></trkpt><trkpt lat="45.90184719274887" lon="11.996306328385339"><ele>264.0</ele><time>2026-05-01T10:38:14Z</time></trkpt><trkpt lat="45.90185050761803" lon="11.996148886743645"><ele>264.0</ele><time>2026-05-01T10:38:16Z</time></trkpt><trkpt lat="45.90184467196116" lon="11.99603891942777"><ele>264.0</ele><time>2026-05-01T10:38:19Z</time></trkpt><trkpt lat="45.90183485365071" lon="11.995914880650586"><ele>264.0</ele><time>2026-05-01T10:38:23Z</time></trkpt><trkpt lat="45.901828748768715" lon="11.995799658188957"><ele>264.0</ele><time>2026-05-01T10:38:26Z</time></trkpt><trkpt lat="45.90184069883572" lon="11.995672231587786"><ele>263.59999999999997</ele><time>2026-05-01T10:38:28Z</time></trkpt><trkpt lat="45.901862726496454" lon="11.99554243301818"><ele>263.2</ele><time>2026-05-01T10:38:30Z</time></trkpt><trkpt lat="45.901932279668536" lon="11.995379214688427"><ele>262.79999999999995</ele><time>2026-05-01T10:38:31.999Z</time></trkpt><trkpt lat="45.90199237107566" lon="11.995282167763015"><ele>262.4</ele><time>2026-05-01T10:38:32.999Z</time></trkpt><trkpt lat="45.902065152034666" lon="11.995170025760837"><ele>262.0</ele><time>2026-05-01T10:38:33.999Z</time></trkpt><trkpt lat="45.90216687227941" lon="11.995023265330657"><ele>262.0</ele><time>2026-05-01T10:38:34.999Z</time></trkpt><trkpt lat="45.9022532317949" lon="11.994873779524148"><ele>262.0</ele><time>2026-05-01T10:38:35.999Z</time></trkpt><trkpt lat="45.90233958262732" lon="11.994775265620342"><ele>262.0</ele><time>2026-05-01T10:38:36.999Z</time></trkpt><trkpt lat="45.90239113426232" lon="11.994671522109696"><ele>262.0</ele><time>2026-05-01T10:38:37.999Z</time></trkpt><trkpt lat="45.90244565692372" lon="11.994611401312222"><ele>262.0</ele><time>2026-05-01T10:38:38.999Z</time></trkpt><trkpt lat="45.90243806546009" lon="11.994507375877006"><ele>262.0</ele><time>2026-05-01T10:38:39.999Z</time></trkpt><trkpt lat="45.902410068734305" lon="11.994423422478107"><ele>262.0</ele><time>2026-05-01T10:38:40.999Z</time></trkpt><trkpt lat="45.90237144382871" lon="11.99434771718457"><ele>262.0</ele><time>2026-05-01T10:38:41.999Z</time></trkpt><trkpt lat="45.90231238165562" lon="11.994295247903294"><ele>262.0</ele><time>2026-05-01T10:38:42.999Z</time></trkpt><trkpt lat="45.90225217474562" lon="11.994266251609314"><ele>262.0</ele><time>2026-05-01T10:38:43.999Z</time></trkpt><trkpt lat="45.902146523901706" lon="11.994287940481579"><ele>262.0</ele><time>2026-05-01T10:38:45.999Z</time></trkpt><trkpt lat="45.90204773626999" lon="11.994328372464937"><ele>262.0</ele><time>2026-05-01T10:38:47.999Z</time></trkpt><trkpt lat="45.90194374576632" lon="11.994344544260752"><ele>262.0</ele><time>2026-05-01T10:38:49.999Z</time></trkpt><trkpt lat="45.901852606392" lon="11.994384767313969"><ele>262.0</ele><time>2026-05-01T10:38:51.999Z</time></trkpt><trkpt lat="45.90176321645092" lon="11.994408323817973"><ele>262.0</ele><time>2026-05-01T10:38:53.999Z</time></trkpt><trkpt lat="45.90166629620428" lon="11.994434667643853"><ele>262.0</ele><time>2026-05-01T10:38:55.999Z</time></trkpt><trkpt lat="45.90155282945124" lon="11.994446097235336"><ele>261.6</ele><time>2026-05-01T10:38:57.999Z</time></trkpt><trkpt lat="45.901426632316" lon="11.994460812943615"><ele>261.2</ele><time>2026-05-01T10:38:59.999Z</time></trkpt><trkpt lat="45.901358157513464" lon="11.994446643924183"><ele>260.8</ele><time>2026-05-01T10:39:00.999Z</time></trkpt><trkpt lat="45.90128955432347" lon="11.994448670604253"><ele>260.4</ele><time>2026-05-01T10:39:01.999Z</time></trkpt><trkpt lat="45.90117854420859" lon="11.994462694820266"><ele>260.0</ele><time>2026-05-01T10:39:03.999Z</time></trkpt><trkpt lat="45.90108516926497" lon="11.994407313795282"><ele>260.0</ele><time>2026-05-01T10:39:05.999Z</time></trkpt><trkpt lat="45.90103564608253" lon="11.994325643555914"><ele>260.0</ele><time>2026-05-01T10:39:06.999Z</time></trkpt><trkpt lat="45.900973087726875" lon="11.994246760131256"><ele>260.0</ele><time>2026-05-01T10:39:07.999Z</time></trkpt><trkpt lat="45.900909114665865" lon="11.994166290314569"><ele>260.0</ele><time>2026-05-01T10:39:08.999Z</time></trkpt><trkpt lat="45.900856222916765" lon="11.994099190223949"><ele>260.0</ele><time>2026-05-01T10:39:09.999Z</time></trkpt><trkpt lat="45.900772526898834" lon="11.993982452620083"><ele>260.0</ele><time>2026-05-01T10:39:11.999Z</time></trkpt><trkpt lat="45.90068997750119" lon="11.993863575561548"><ele>260.14285714285717</ele><time>2026-05-01T10:39:13.999Z</time></trkpt><trkpt lat="45.9006574350031" lon="11.993782793985941"><ele>260.2857142857143</ele><time>2026-05-01T10:39:14.999Z</time></trkpt><trkpt lat="45.90063381298994" lon="11.99368820623227"><ele>260.42857142857144</ele><time>2026-05-01T10:39:15.999Z</time></trkpt><trkpt lat="45.90061527384012" lon="11.993587172176488"><ele>260.57142857142856</ele><time>2026-05-01T10:39:16.999Z</time></trkpt><trkpt lat="45.900595725092465" lon="11.993489972009806"><ele>260.7142857142857</ele><time>2026-05-01T10:39:18Z</time></trkpt><trkpt lat="45.90057771243114" lon="11.993399517403342"><ele>260.8571428571429</ele><time>2026-05-01T10:39:19Z</time></trkpt><trkpt lat="45.900560175667195" lon="11.993305513541358"><ele>261.0</ele><time>2026-05-01T10:39:20Z</time></trkpt><trkpt lat="45.90054111073413" lon="11.993206194394562"><ele>261.6</ele><time>2026-05-01T10:39:21Z</time></trkpt><trkpt lat="45.900512522249926" lon="11.993106245233198"><ele>262.20000000000005</ele><time>2026-05-01T10:39:22Z</time></trkpt><trkpt lat="45.90047102076161" lon="11.992992969574304"><ele>262.79999999999995</ele><time>2026-05-01T10:39:23Z</time></trkpt><trkpt lat="45.90041337839584" lon="11.992868834470682"><ele>263.4</ele><time>2026-05-01T10:39:24Z</time></trkpt><trkpt lat="45.90034337197361" lon="11.992735640966007"><ele>264.0</ele><time>2026-05-01T10:39:25Z</time></trkpt><trkpt lat="45.90026071074858" lon="11.992599327389092"><ele>264.25</ele><time>2026-05-01T10:39:26Z</time></trkpt><trkpt lat="45.90017494537106" lon="11.99245888811148"><ele>264.5</ele><time>2026-05-01T10:39:27Z</time></trkpt><trkpt lat="45.900086683530716" lon="11.99230861241864"><ele>264.75</ele><time>2026-05-01T10:39:28Z</time></trkpt><trkpt lat="45.899994412452884" lon="11.99215294243066"><ele>265.0</ele><time>2026-05-01T10:39:29Z</time></trkpt><trkpt lat="45.899905917465006" lon="11.992003577057364"><ele>264.25</ele><time>2026-05-01T10:39:30Z</time></trkpt><trkpt lat="45.89983901952511" lon="11.991848502914271"><ele>263.5</ele><time>2026-05-01T10:39:31Z</time></trkpt><trkpt lat="45.89976375696124" lon="11.99170946723287"><ele>262.75</ele><time>2026-05-01T10:39:32Z</time></trkpt><trkpt lat="45.89968871111422" lon="11.991564652282571"><ele>262.0</ele><time>2026-05-01T10:39:33Z</time></trkpt><trkpt lat="45.89960430892813" lon="11.991425842994943"><ele>262.0</ele><time>2026-05-01T10:39:34Z</time></trkpt><trkpt lat="45.89954155315148" lon="11.991267362380606"><ele>262.0</ele><time>2026-05-01T10:39:35Z</time></trkpt><trkpt lat="45.89949057871924" lon="11.991106316956197"><ele>262.0</ele><time>2026-05-01T10:39:36Z</time></trkpt><trkpt lat="45.89945190813861" lon="11.9909382099376"><ele>262.0</ele><time>2026-05-01T10:39:37Z</time></trkpt><trkpt lat="45.899430321030714" lon="11.990775253396425"><ele>262.75</ele><time>2026-05-01T10:39:38Z</time></trkpt><trkpt lat="45.89942478511605" lon="11.990610660118342"><ele>263.5</ele><time>2026-05-01T10:39:39Z</time></trkpt><trkpt lat="45.899436334996295" lon="11.990446450976409"><ele>264.25</ele><time>2026-05-01T10:39:40Z</time></trkpt><trkpt lat="45.8994556460476" lon="11.990273127296728"><ele>265.0</ele><time>2026-05-01T10:39:41Z</time></trkpt><trkpt lat="45.899478867463365" lon="11.990099931605899"><ele>264.75</ele><time>2026-05-01T10:39:42Z</time></trkpt><trkpt lat="45.89949763487082" lon="11.989923826989116"><ele>264.5</ele><time>2026-05-01T10:39:43Z</time></trkpt><trkpt lat="45.899529576911526" lon="11.989747966020674"><ele>264.25</ele><time>2026-05-01T10:39:44Z</time></trkpt><trkpt lat="45.89955069922659" lon="11.989569015722644"><ele>264.0</ele><time>2026-05-01T10:39:45Z</time></trkpt><trkpt lat="45.899571443337344" lon="11.989393269589788"><ele>264.0</ele><time>2026-05-01T10:39:46Z</time></trkpt><trkpt lat="45.89958618076951" lon="11.989210874419811"><ele>264.0</ele><time>2026-05-01T10:39:47Z</time></trkpt><trkpt lat="45.89961295110003" lon="11.98902371963081"><ele>264.0</ele><time>2026-05-01T10:39:48Z</time></trkpt><trkpt lat="45.899625542873956" lon="11.988832604172073"><ele>264.0</ele><time>2026-05-01T10:39:49Z</time></trkpt><trkpt lat="45.899652779701526" lon="11.988629757486493"><ele>263.25</ele><time>2026-05-01T10:39:50Z</time></trkpt><trkpt lat="45.89967516082309" lon="11.988429534184334"><ele>262.5</ele><time>2026-05-01T10:39:51Z</time></trkpt><trkpt lat="45.89969790514984" lon="11.988241015932394"><ele>261.75</ele><time>2026-05-01T10:39:52Z</time></trkpt><trkpt lat="45.89971674605187" lon="11.988074302205266"><ele>261.0</ele><time>2026-05-01T10:39:53Z</time></trkpt><trkpt lat="45.89973234340973" lon="11.9879153498684"><ele>259.40000000000003</ele><time>2026-05-01T10:39:54Z</time></trkpt><trkpt lat="45.89975129805622" lon="11.987761935039755"><ele>257.8</ele><time>2026-05-01T10:39:55Z</time></trkpt><trkpt lat="45.899761901818984" lon="11.987618790890044"><ele>256.20000000000005</ele><time>2026-05-01T10:39:56Z</time></trkpt><trkpt lat="45.89976317684794" lon="11.987486489716632"><ele>254.60000000000002</ele><time>2026-05-01T10:39:57Z</time></trkpt><trkpt lat="45.8997371744929" lon="11.987358042658812"><ele>253.0</ele><time>2026-05-01T10:39:58Z</time></trkpt><trkpt lat="45.89967937191367" lon="11.987247577331004"><ele>252.75</ele><time>2026-05-01T10:39:59Z</time></trkpt><trkpt lat="45.899584904541165" lon="11.987170941604488"><ele>252.5</ele><time>2026-05-01T10:40:00Z</time></trkpt><trkpt lat="45.89945792487409" lon="11.987119256132358"><ele>252.25</ele><time>2026-05-01T10:40:01Z</time></trkpt><trkpt lat="45.89932576888449" lon="11.987034127804424"><ele>252.0</ele><time>2026-05-01T10:40:02Z</time></trkpt><trkpt lat="45.89920857727104" lon="11.986941817244348"><ele>252.0</ele><time>2026-05-01T10:40:03Z</time></trkpt><trkpt lat="45.89910647942169" lon="11.986847567421096"><ele>252.0</ele><time>2026-05-01T10:40:04Z</time></trkpt><trkpt lat="45.89900360419001" lon="11.986755292127661"><ele>252.0</ele><time>2026-05-01T10:40:05Z</time></trkpt><trkpt lat="45.89890451580179" lon="11.986666413493603"><ele>252.0</ele><time>2026-05-01T10:40:06Z</time></trkpt><trkpt lat="45.898808241682275" lon="11.98658005913843"><ele>251.2</ele><time>2026-05-01T10:40:07Z</time></trkpt><trkpt lat="45.898717346083764" lon="11.986493356980704"><ele>250.39999999999998</ele><time>2026-05-01T10:40:08Z</time></trkpt><trkpt lat="45.89862808279438" lon="11.986408802835454"><ele>249.60000000000002</ele><time>2026-05-01T10:40:09Z</time></trkpt><trkpt lat="45.898531260676286" lon="11.986344198748187"><ele>248.8</ele><time>2026-05-01T10:40:10Z</time></trkpt><trkpt lat="45.89844845412634" lon="11.986258164366879"><ele>248.0</ele><time>2026-05-01T10:40:11Z</time></trkpt><trkpt lat="45.89836603742667" lon="11.986175518816118"><ele>248.00000000000003</ele><time>2026-05-01T10:40:12Z</time></trkpt><trkpt lat="45.898284143695" lon="11.986088905674862"><ele>248.0</ele><time>2026-05-01T10:40:13Z</time></trkpt><trkpt lat="45.89821694993265" lon="11.985980140150344"><ele>248.0</ele><time>2026-05-01T10:40:14Z</time></trkpt><trkpt lat="45.898141806690916" lon="11.98592424917707"><ele>248.0</ele><time>2026-05-01T10:40:15Z</time></trkpt><trkpt lat="45.89808249526701" lon="11.985854820578453"><ele>248.00000000000003</ele><time>2026-05-01T10:40:16Z</time></trkpt><trkpt lat="45.89802654204286" lon="11.98579405970967"><ele>248.0</ele><time>2026-05-01T10:40:17Z</time></trkpt><trkpt lat="45.897969411340476" lon="11.985740981117312"><ele>247.71428571428572</ele><time>2026-05-01T10:40:18Z</time></trkpt><trkpt lat="45.89790971866691" lon="11.985693852394666"><ele>247.42857142857144</ele><time>2026-05-01T10:40:19Z</time></trkpt><trkpt lat="45.89784246989884" lon="11.985646763063977"><ele>247.14285714285717</ele><time>2026-05-01T10:40:20Z</time></trkpt><trkpt lat="45.89777388118601" lon="11.985611241468286"><ele>246.8571428571429</ele><time>2026-05-01T10:40:21Z</time></trkpt><trkpt lat="45.89770879511423" lon="11.985582745873359"><ele>246.57142857142858</ele><time>2026-05-01T10:40:22Z</time></trkpt><trkpt lat="45.89764541144054" lon="11.98554884543903"><ele>246.28571428571433</ele><time>2026-05-01T10:40:23Z</time></trkpt><trkpt lat="45.89758279427765" lon="11.985524059874843"><ele>246.00000000000003</ele><time>2026-05-01T10:40:24Z</time></trkpt><trkpt lat="45.897514708099614" lon="11.98549951742068"><ele>245.60000000000002</ele><time>2026-05-01T10:40:26Z</time></trkpt><trkpt lat="45.89745219165861" lon="11.985448422246327"><ele>245.20000000000002</ele><time>2026-05-01T10:40:29Z</time></trkpt><trkpt lat="45.8973928798795" lon="11.985405567740688"><ele>244.79999999999998</ele><time>2026-05-01T10:40:31Z</time></trkpt><trkpt lat="45.89733375668326" lon="11.98536092318611"><ele>244.39999999999998</ele><time>2026-05-01T10:40:34Z</time></trkpt><trkpt lat="45.897395466573634" lon="11.98518848806757"><ele>244.0</ele><time>2026-05-01T10:40:36.999Z</time></trkpt><trkpt lat="45.89746635539768" lon="11.985048783237533"><ele>243.33333333333331</ele><time>2026-05-01T10:40:38.999Z</time></trkpt><trkpt lat="45.8974854987025" lon="11.984944997416363"><ele>242.66666666666666</ele><time>2026-05-01T10:40:39.999Z</time></trkpt><trkpt lat="45.897511430484386" lon="11.984840742707824"><ele>242.0</ele><time>2026-05-01T10:40:40.999Z</time></trkpt><trkpt lat="45.897536372314676" lon="11.984734288267935"><ele>241.33333333333331</ele><time>2026-05-01T10:40:41.999Z</time></trkpt><trkpt lat="45.89756657723726" lon="11.98462010106902"><ele>240.66666666666666</ele><time>2026-05-01T10:40:42.999Z</time></trkpt><trkpt lat="45.89760031700733" lon="11.984500113425016"><ele>240.0</ele><time>2026-05-01T10:40:43.999Z</time></trkpt><trkpt lat="45.89763455860657" lon="11.984366065138298"><ele>240.0</ele><time>2026-05-01T10:40:44.999Z</time></trkpt><trkpt lat="45.89768171499022" lon="11.984229220069405"><ele>240.0</ele><time>2026-05-01T10:40:45.999Z</time></trkpt><trkpt lat="45.89773673365754" lon="11.984095002429303"><ele>240.0</ele><time>2026-05-01T10:40:46.999Z</time></trkpt><trkpt lat="45.897805286698855" lon="11.983970827395957"><ele>240.0</ele><time>2026-05-01T10:40:47.999Z</time></trkpt><trkpt lat="45.897865210336406" lon="11.983841879541849"><ele>240.0</ele><time>2026-05-01T10:40:48.999Z</time></trkpt><trkpt lat="45.89790389119802" lon="11.98369105311102"><ele>239.75</ele><time>2026-05-01T10:40:49.999Z</time></trkpt><trkpt lat="45.89791728801334" lon="11.98352137105746"><ele>239.5</ele><time>2026-05-01T10:40:50.999Z</time></trkpt><trkpt lat="45.89789543317194" lon="11.983337678870466"><ele>239.25</ele><time>2026-05-01T10:40:51.999Z</time></trkpt><trkpt lat="45.89784600326985" lon="11.983142456328952"><ele>239.0</ele><time>2026-05-01T10:40:52.999Z</time></trkpt><trkpt lat="45.897788584903886" lon="11.982942455768567"><ele>239.0</ele><time>2026-05-01T10:40:53.999Z</time></trkpt><trkpt lat="45.897729952694995" lon="11.982741322438548"><ele>239.0</ele><time>2026-05-01T10:40:54.999Z</time></trkpt><trkpt lat="45.89767254800197" lon="11.982541531598008"><ele>239.0</ele><time>2026-05-01T10:40:55.999Z</time></trkpt><trkpt lat="45.897609934590385" lon="11.982348471193788"><ele>237.0</ele><time>2026-05-01T10:40:56.999Z</time></trkpt><trkpt lat="45.8975514193282" lon="11.982149968573776"><ele>235.0</ele><time>2026-05-01T10:40:57.999Z</time></trkpt><trkpt lat="45.89749472508995" lon="11.981954684913788"><ele>233.0</ele><time>2026-05-01T10:40:58.999Z</time></trkpt><trkpt lat="45.8974377353521" lon="11.98176053582343"><ele>231.0</ele><time>2026-05-01T10:40:59.999Z</time></trkpt><trkpt lat="45.89738080774612" lon="11.981568023185176"><ele>231.0</ele><time>2026-05-01T10:41:00.999Z</time></trkpt><trkpt lat="45.89732983728298" lon="11.981374619927125"><ele>231.0</ele><time>2026-05-01T10:41:01.999Z</time></trkpt><trkpt lat="45.89727314313257" lon="11.981180591173928"><ele>231.0</ele><time>2026-05-01T10:41:02.999Z</time></trkpt><trkpt lat="45.89721445633155" lon="11.980983197954222"><ele>231.0</ele><time>2026-05-01T10:41:03.999Z</time></trkpt><trkpt lat="45.89715549510764" lon="11.98078275102994"><ele>231.33333333333331</ele><time>2026-05-01T10:41:04.999Z</time></trkpt><trkpt lat="45.89709563965708" lon="11.980570189257758"><ele>231.66666666666666</ele><time>2026-05-01T10:41:05.999Z</time></trkpt><trkpt lat="45.89703191453095" lon="11.980349438141262"><ele>232.0</ele><time>2026-05-01T10:41:06.999Z</time></trkpt><trkpt lat="45.896966857597775" lon="11.980125643723683"><ele>231.66666666666666</ele><time>2026-05-01T10:41:07.999Z</time></trkpt><trkpt lat="45.896902708923875" lon="11.979900643986927"><ele>231.33333333333331</ele><time>2026-05-01T10:41:08.999Z</time></trkpt><trkpt lat="45.896839440870856" lon="11.979675287753821"><ele>231.0</ele><time>2026-05-01T10:41:09.999Z</time></trkpt><trkpt lat="45.89677540760172" lon="11.979450659203453"><ele>229.33333333333331</ele><time>2026-05-01T10:41:10.999Z</time></trkpt><trkpt lat="45.896706967437325" lon="11.979223822385554"><ele>227.66666666666666</ele><time>2026-05-01T10:41:11.999Z</time></trkpt><trkpt lat="45.89664088522861" lon="11.97899809360265"><ele>226.0</ele><time>2026-05-01T10:41:12.999Z</time></trkpt><trkpt lat="45.89657884418045" lon="11.978775018569582"><ele>225.66666666666666</ele><time>2026-05-01T10:41:13.999Z</time></trkpt><trkpt lat="45.89651280125927" lon="11.978549585183439"><ele>225.33333333333331</ele><time>2026-05-01T10:41:14.999Z</time></trkpt><trkpt lat="45.89644919318717" lon="11.97832295474427"><ele>225.0</ele><time>2026-05-01T10:41:15.999Z</time></trkpt><trkpt lat="45.89638630101216" lon="11.978094023435776"><ele>225.0</ele><time>2026-05-01T10:41:16.999Z</time></trkpt><trkpt lat="45.896320014459945" lon="11.977866067574766"><ele>225.0</ele><time>2026-05-01T10:41:17.999Z</time></trkpt><trkpt lat="45.896255625490014" lon="11.977640460477124"><ele>225.0</ele><time>2026-05-01T10:41:18.999Z</time></trkpt><trkpt lat="45.89618900905592" lon="11.977418869184547"><ele>225.0</ele><time>2026-05-01T10:41:19.999Z</time></trkpt><trkpt lat="45.896122091718205" lon="11.977192755583447"><ele>225.0</ele><time>2026-05-01T10:41:20.999Z</time></trkpt><trkpt lat="45.89605221710516" lon="11.97696220402488"><ele>225.0</ele><time>2026-05-01T10:41:21.999Z</time></trkpt><trkpt lat="45.895985152057605" lon="11.976748484054584"><ele>225.75</ele><time>2026-05-01T10:41:22.999Z</time></trkpt><trkpt lat="45.895926968250066" lon="11.976551816157217"><ele>226.5</ele><time>2026-05-01T10:41:24Z</time></trkpt><trkpt lat="45.89587667972333" lon="11.976375454732725"><ele>227.25</ele><time>2026-05-01T10:41:25Z</time></trkpt><trkpt lat="45.89582613018385" lon="11.976215752634474"><ele>228.0</ele><time>2026-05-01T10:41:26Z</time></trkpt><trkpt lat="45.89578270864132" lon="11.97605877921335"><ele>228.0</ele><time>2026-05-01T10:41:27Z</time></trkpt><trkpt lat="45.895741048611896" lon="11.975898830059256"><ele>228.0</ele><time>2026-05-01T10:41:28Z</time></trkpt><trkpt lat="45.8956979974996" lon="11.975727626050881"><ele>228.0</ele><time>2026-05-01T10:41:29Z</time></trkpt><trkpt lat="45.8956513045387" lon="11.975543288612272"><ele>228.0</ele><time>2026-05-01T10:41:30Z</time></trkpt><trkpt lat="45.89559868930408" lon="11.975349287976432"><ele>228.0</ele><time>2026-05-01T10:41:31Z</time></trkpt><trkpt lat="45.89554891339227" lon="11.975145387797145"><ele>228.0</ele><time>2026-05-01T10:41:32Z</time></trkpt><trkpt lat="45.89551026546829" lon="11.974926496952488"><ele>228.0</ele><time>2026-05-01T10:41:33Z</time></trkpt><trkpt lat="45.89548479524518" lon="11.974699002246618"><ele>229.33333333333331</ele><time>2026-05-01T10:41:34Z</time></trkpt><trkpt lat="45.89547319247845" lon="11.974468417154883"><ele>230.66666666666666</ele><time>2026-05-01T10:41:35Z</time></trkpt><trkpt lat="45.89547864274003" lon="11.974240028293181"><ele>232.0</ele><time>2026-05-01T10:41:36Z</time></trkpt><trkpt lat="45.895496771826856" lon="11.974014400614264"><ele>233.33333333333331</ele><time>2026-05-01T10:41:37Z</time></trkpt><trkpt lat="45.89552608137704" lon="11.973793800569057"><ele>234.66666666666669</ele><time>2026-05-01T10:41:38Z</time></trkpt><trkpt lat="45.895566134825884" lon="11.973579434404437"><ele>236.0</ele><time>2026-05-01T10:41:39Z</time></trkpt><trkpt lat="45.89560327172697" lon="11.973365759288289"><ele>234.75</ele><time>2026-05-01T10:41:40Z</time></trkpt><trkpt lat="45.89563971970264" lon="11.973154480339602"><ele>233.5</ele><time>2026-05-01T10:41:41Z</time></trkpt><trkpt lat="45.89567737709292" lon="11.972952917010138"><ele>232.25</ele><time>2026-05-01T10:41:42Z</time></trkpt><trkpt lat="45.895710430387275" lon="11.972758969745225"><ele>231.0</ele><time>2026-05-01T10:41:43Z</time></trkpt><trkpt lat="45.89574348845128" lon="11.97257348118866"><ele>230.0</ele><time>2026-05-01T10:41:44Z</time></trkpt><trkpt lat="45.89577533201416" lon="11.972392216898369"><ele>229.0</ele><time>2026-05-01T10:41:45Z</time></trkpt><trkpt lat="45.895804894134685" lon="11.972215980071775"><ele>228.0</ele><time>2026-05-01T10:41:46Z</time></trkpt><trkpt lat="45.89583440502236" lon="11.972045770969844"><ele>227.0</ele><time>2026-05-01T10:41:47Z</time></trkpt><trkpt lat="45.89586344411129" lon="11.97188186107507"><ele>227.0</ele><time>2026-05-01T10:41:48Z</time></trkpt><trkpt lat="45.89589379731606" lon="11.9717200633989"><ele>227.0</ele><time>2026-05-01T10:41:49Z</time></trkpt><trkpt lat="45.89592519557386" lon="11.971550860333023"><ele>227.0</ele><time>2026-05-01T10:41:50Z</time></trkpt><trkpt lat="45.8959606192817" lon="11.971378955436027"><ele>227.0</ele><time>2026-05-01T10:41:51Z</time></trkpt><trkpt lat="45.895994110277606" lon="11.9712021141756"><ele>230.75</ele><time>2026-05-01T10:41:52Z</time></trkpt><trkpt lat="45.89602367768044" lon="11.971022612109516"><ele>234.5</ele><time>2026-05-01T10:41:53Z</time></trkpt><trkpt lat="45.896051941013184" lon="11.970842212574683"><ele>238.25</ele><time>2026-05-01T10:41:54Z</time></trkpt><trkpt lat="45.89607378357499" lon="11.970658348224097"><ele>242.0</ele><time>2026-05-01T10:41:55Z</time></trkpt><trkpt lat="45.89608366460357" lon="11.970465312879439"><ele>242.0</ele><time>2026-05-01T10:41:56Z</time></trkpt><trkpt lat="45.89607940157085" lon="11.970254001664811"><ele>242.0</ele><time>2026-05-01T10:41:57Z</time></trkpt><trkpt lat="45.89607977998752" lon="11.970035558208853"><ele>242.0</ele><time>2026-05-01T10:41:58Z</time></trkpt><trkpt lat="45.896095199755834" lon="11.969823216016941"><ele>242.0</ele><time>2026-05-01T10:41:59Z</time></trkpt><trkpt lat="45.89612184950022" lon="11.969610517556212"><ele>242.0</ele><time>2026-05-01T10:42:00Z</time></trkpt><trkpt lat="45.896146434834584" lon="11.969413442424171"><ele>242.0</ele><time>2026-05-01T10:42:01Z</time></trkpt><trkpt lat="45.896161798359024" lon="11.969222842785703"><ele>242.0</ele><time>2026-05-01T10:42:02Z</time></trkpt><trkpt lat="45.896174877123215" lon="11.969039930339573"><ele>242.0</ele><time>2026-05-01T10:42:03Z</time></trkpt><trkpt lat="45.89618275893976" lon="11.968873440113711"><ele>242.0</ele><time>2026-05-01T10:42:04Z</time></trkpt><trkpt lat="45.896194468231506" lon="11.968692469767001"><ele>242.0</ele><time>2026-05-01T10:42:05Z</time></trkpt><trkpt lat="45.896209269698666" lon="11.968488991375448"><ele>242.0</ele><time>2026-05-01T10:42:06Z</time></trkpt><trkpt lat="45.89622345586431" lon="11.968284018458553"><ele>242.0</ele><time>2026-05-01T10:42:07Z</time></trkpt><trkpt lat="45.89623438453313" lon="11.96809308545817"><ele>241.6</ele><time>2026-05-01T10:42:08Z</time></trkpt><trkpt lat="45.89624025184697" lon="11.96791529040146"><ele>241.2</ele><time>2026-05-01T10:42:09Z</time></trkpt><trkpt lat="45.89624611631091" lon="11.967765504780287"><ele>240.8</ele><time>2026-05-01T10:42:10Z</time></trkpt><trkpt lat="45.896249013845235" lon="11.967631700269086"><ele>240.4</ele><time>2026-05-01T10:42:11Z</time></trkpt><trkpt lat="45.89625801261828" lon="11.967500694857758"><ele>240.0</ele><time>2026-05-01T10:42:12Z</time></trkpt><trkpt lat="45.896272574707346" lon="11.967364914214961"><ele>239.6</ele><time>2026-05-01T10:42:13Z</time></trkpt><trkpt lat="45.89628861608" lon="11.967234504152783"><ele>239.2</ele><time>2026-05-01T10:42:14Z</time></trkpt><trkpt lat="45.89629152319259" lon="11.967108012392675"><ele>238.8</ele><time>2026-05-01T10:42:15Z</time></trkpt><trkpt lat="45.89629836726939" lon="11.96697175767988"><ele>238.4</ele><time>2026-05-01T10:42:16Z</time></trkpt><trkpt lat="45.89631107440692" lon="11.966836302722747"><ele>238.0</ele><time>2026-05-01T10:42:17Z</time></trkpt><trkpt lat="45.896322008773396" lon="11.966707084225302"><ele>237.66666666666666</ele><time>2026-05-01T10:42:18Z</time></trkpt><trkpt lat="45.89632896242238" lon="11.9665792360567"><ele>237.33333333333331</ele><time>2026-05-01T10:42:19Z</time></trkpt><trkpt lat="45.8963344282457" lon="11.966453374259507"><ele>237.0</ele><time>2026-05-01T10:42:20Z</time></trkpt><trkpt lat="45.89633838888261" lon="11.966319578890532"><ele>236.66666666666669</ele><time>2026-05-01T10:42:21Z</time></trkpt><trkpt lat="45.896346385698486" lon="11.96618777018362"><ele>236.33333333333334</ele><time>2026-05-01T10:42:22Z</time></trkpt><trkpt lat="45.89634992325143" lon="11.966068151760405"><ele>236.0</ele><time>2026-05-01T10:42:23Z</time></trkpt><trkpt lat="45.89634693849694" lon="11.965958790237345"><ele>235.33333333333334</ele><time>2026-05-01T10:42:24Z</time></trkpt><trkpt lat="45.89633372868577" lon="11.965851938815284"><ele>234.66666666666669</ele><time>2026-05-01T10:42:25Z</time></trkpt><trkpt lat="45.89630643060829" lon="11.965754184487885"><ele>234.0</ele><time>2026-05-01T10:42:26Z</time></trkpt><trkpt lat="45.89626325029043" lon="11.96566529198268"><ele>233.33333333333331</ele><time>2026-05-01T10:42:27Z</time></trkpt><trkpt lat="45.8962050983638" lon="11.965580790439704"><ele>232.66666666666666</ele><time>2026-05-01T10:42:28Z</time></trkpt><trkpt lat="45.89614977881353" lon="11.965500820524785"><ele>232.0</ele><time>2026-05-01T10:42:29Z</time></trkpt><trkpt lat="45.89609382740079" lon="11.965418032149202"><ele>232.0</ele><time>2026-05-01T10:42:30Z</time></trkpt><trkpt lat="45.89604923996" lon="11.965308685438307"><ele>232.0</ele><time>2026-05-01T10:42:31Z</time></trkpt><trkpt lat="45.89600805758108" lon="11.96517210250038"><ele>232.0</ele><time>2026-05-01T10:42:32Z</time></trkpt><trkpt lat="45.895961765454146" lon="11.965013483720341"><ele>232.0</ele><time>2026-05-01T10:42:33Z</time></trkpt><trkpt lat="45.89591018334266" lon="11.964830894583454"><ele>232.0</ele><time>2026-05-01T10:42:34Z</time></trkpt><trkpt lat="45.895852694179744" lon="11.964626188670403"><ele>229.0</ele><time>2026-05-01T10:42:35Z</time></trkpt><trkpt lat="45.89578932099932" lon="11.964402953812941"><ele>226.0</ele><time>2026-05-01T10:42:36Z</time></trkpt><trkpt lat="45.895723936226844" lon="11.964165698934218"><ele>223.0</ele><time>2026-05-01T10:42:37Z</time></trkpt><trkpt lat="45.895653436055184" lon="11.963919066263523"><ele>222.66666666666666</ele><time>2026-05-01T10:42:38Z</time></trkpt><trkpt lat="45.89558506351616" lon="11.963681191920337"><ele>222.33333333333331</ele><time>2026-05-01T10:42:39Z</time></trkpt><trkpt lat="45.895522707610255" lon="11.963463129882662"><ele>222.0</ele><time>2026-05-01T10:42:39.999Z</time></trkpt><trkpt lat="45.895465149088835" lon="11.963263456166503"><ele>222.75</ele><time>2026-05-01T10:42:40.999Z</time></trkpt><trkpt lat="45.89540919646971" lon="11.96307290446176"><ele>223.5</ele><time>2026-05-01T10:42:41.999Z</time></trkpt><trkpt lat="45.8953616363996" lon="11.962912457785388"><ele>224.25</ele><time>2026-05-01T10:42:42.999Z</time></trkpt><trkpt lat="45.895322766847464" lon="11.962765660993673"><ele>225.0</ele><time>2026-05-01T10:42:43.999Z</time></trkpt><trkpt lat="45.895303062661895" lon="11.962605304608886"><ele>225.4</ele><time>2026-05-01T10:42:44.999Z</time></trkpt><trkpt lat="45.895316658851286" lon="11.96246967585633"><ele>225.8</ele><time>2026-05-01T10:42:45.999Z</time></trkpt><trkpt lat="45.895358528976594" lon="11.962315619823704"><ele>226.2</ele><time>2026-05-01T10:42:46.999Z</time></trkpt><trkpt lat="45.895402546856104" lon="11.962164671746224"><ele>226.6</ele><time>2026-05-01T10:42:47.999Z</time></trkpt><trkpt lat="45.89545227117729" lon="11.962027548245688"><ele>227.0</ele><time>2026-05-01T10:42:48.999Z</time></trkpt><trkpt lat="45.89552404360528" lon="11.961906200664219"><ele>227.0</ele><time>2026-05-01T10:42:49.999Z</time></trkpt><trkpt lat="45.895623371615685" lon="11.961805045186143"><ele>227.0</ele><time>2026-05-01T10:42:50.999Z</time></trkpt><trkpt lat="45.89572947262291" lon="11.961732685035964"><ele>227.0</ele><time>2026-05-01T10:42:51.999Z</time></trkpt><trkpt lat="45.895824109388066" lon="11.961673087568501"><ele>227.0</ele><time>2026-05-01T10:42:52.999Z</time></trkpt><trkpt lat="45.89590148619451" lon="11.961597142352776"><ele>227.0</ele><time>2026-05-01T10:42:53.999Z</time></trkpt><trkpt lat="45.89596310638675" lon="11.961513635873056"><ele>227.33333333333334</ele><time>2026-05-01T10:42:54.999Z</time></trkpt><trkpt lat="45.89601026816818" lon="11.961442493090818"><ele>227.66666666666669</ele><time>2026-05-01T10:42:55.999Z</time></trkpt><trkpt lat="45.89604634362703" lon="11.961362982041669"><ele>228.0</ele><time>2026-05-01T10:42:56.999Z</time></trkpt><trkpt lat="45.89608154994516" lon="11.961262613979667"><ele>228.33333333333331</ele><time>2026-05-01T10:42:57.999Z</time></trkpt><trkpt lat="45.89607530681013" lon="11.96112086536593"><ele>228.66666666666666</ele><time>2026-05-01T10:42:58.999Z</time></trkpt><trkpt lat="45.89601227457161" lon="11.960997275983626"><ele>229.0</ele><time>2026-05-01T10:42:59.999Z</time></trkpt><trkpt lat="45.895925387338224" lon="11.960910010652565"><ele>226.5</ele><time>2026-05-01T10:43:00.999Z</time></trkpt><trkpt lat="45.895809975084006" lon="11.960873958327527"><ele>224.0</ele><time>2026-05-01T10:43:01.999Z</time></trkpt><trkpt lat="45.895660230638406" lon="11.96087026326338"><ele>221.5</ele><time>2026-05-01T10:43:02.999Z</time></trkpt><trkpt lat="45.89553032009836" lon="11.960829586718976"><ele>219.0</ele><time>2026-05-01T10:43:03.999Z</time></trkpt><trkpt lat="45.89541722745528" lon="11.960808838372733"><ele>218.39999999999998</ele><time>2026-05-01T10:43:04.999Z</time></trkpt><trkpt lat="45.89531224523156" lon="11.960762772238649"><ele>217.79999999999998</ele><time>2026-05-01T10:43:05.999Z</time></trkpt><trkpt lat="45.89523559108941" lon="11.960674951989283"><ele>217.20000000000002</ele><time>2026-05-01T10:43:06.999Z</time></trkpt><trkpt lat="45.89519863438489" lon="11.960533438017002"><ele>216.60000000000002</ele><time>2026-05-01T10:43:07.999Z</time></trkpt><trkpt lat="45.895170816840384" lon="11.960362397310488"><ele>216.0</ele><time>2026-05-01T10:43:08.999Z</time></trkpt><trkpt lat="45.89516664375886" lon="11.960189496384862"><ele>216.75</ele><time>2026-05-01T10:43:09.999Z</time></trkpt><trkpt lat="45.89517669562363" lon="11.960031823375726"><ele>217.5</ele><time>2026-05-01T10:43:10.999Z</time></trkpt><trkpt lat="45.89519139709408" lon="11.95987174978951"><ele>218.25</ele><time>2026-05-01T10:43:11.999Z</time></trkpt><trkpt lat="45.895241949990066" lon="11.959700674521809"><ele>219.0</ele><time>2026-05-01T10:43:12.999Z</time></trkpt><trkpt lat="45.895327450543675" lon="11.959522692334478"><ele>219.0</ele><time>2026-05-01T10:43:13.999Z</time></trkpt><trkpt lat="45.89544697650112" lon="11.959324249634868"><ele>219.0</ele><time>2026-05-01T10:43:14.999Z</time></trkpt><trkpt lat="45.8955713951968" lon="11.95910576866063"><ele>219.0</ele><time>2026-05-01T10:43:15.999Z</time></trkpt><trkpt lat="45.895676531361175" lon="11.958912036253693"><ele>215.33333333333331</ele><time>2026-05-01T10:43:16.999Z</time></trkpt><trkpt lat="45.89577293736302" lon="11.958730759177552"><ele>211.66666666666666</ele><time>2026-05-01T10:43:17.999Z</time></trkpt><trkpt lat="45.89585534044186" lon="11.958541822287378"><ele>208.0</ele><time>2026-05-01T10:43:18.999Z</time></trkpt><trkpt lat="45.89591290021374" lon="11.958322165702803"><ele>215.0</ele><time>2026-05-01T10:43:19.999Z</time></trkpt><trkpt lat="45.89594991180505" lon="11.958054299966053"><ele>222.0</ele><time>2026-05-01T10:43:20.999Z</time></trkpt><trkpt lat="45.895988080223965" lon="11.957757845486073"><ele>229.0</ele><time>2026-05-01T10:43:21.999Z</time></trkpt><trkpt lat="45.89604539703661" lon="11.957434306146673"><ele>229.0</ele><time>2026-05-01T10:43:22.999Z</time></trkpt><trkpt lat="45.896079001312366" lon="11.957068054837228"><ele>229.0</ele><time>2026-05-01T10:43:23.999Z</time></trkpt><trkpt lat="45.89613094472347" lon="11.956697239505921"><ele>226.0</ele><time>2026-05-01T10:43:24.999Z</time></trkpt><trkpt lat="45.89617436444062" lon="11.956401558358493"><ele>223.0</ele><time>2026-05-01T10:43:25.999Z</time></trkpt><trkpt lat="45.896224290343206" lon="11.95616388366401"><ele>220.0</ele><time>2026-05-01T10:43:26.999Z</time></trkpt><trkpt lat="45.89625656775693" lon="11.955938044141773"><ele>217.5</ele><time>2026-05-01T10:43:27.999Z</time></trkpt><trkpt lat="45.896285984616696" lon="11.955728307159063"><ele>215.0</ele><time>2026-05-01T10:43:28.999Z</time></trkpt><trkpt lat="45.896313044726796" lon="11.95554403625431"><ele>212.5</ele><time>2026-05-01T10:43:30Z</time></trkpt><trkpt lat="45.896329235091464" lon="11.95537456066171"><ele>210.0</ele><time>2026-05-01T10:43:31Z</time></trkpt><trkpt lat="45.896365223418826" lon="11.955217886913498"><ele>210.0</ele><time>2026-05-01T10:43:32Z</time></trkpt><trkpt lat="45.89640125679957" lon="11.95506833594893"><ele>210.0</ele><time>2026-05-01T10:43:33Z</time></trkpt><trkpt lat="45.89644167875343" lon="11.954927432940142"><ele>210.0</ele><time>2026-05-01T10:43:34Z</time></trkpt><trkpt lat="45.89648257437303" lon="11.95478443464894"><ele>210.0</ele><time>2026-05-01T10:43:35Z</time></trkpt><trkpt lat="45.89653029695992" lon="11.954647810853096"><ele>210.0</ele><time>2026-05-01T10:43:36Z</time></trkpt><trkpt lat="45.89658327250177" lon="11.95452434051808"><ele>207.83333333333334</ele><time>2026-05-01T10:43:37Z</time></trkpt><trkpt lat="45.89663621028896" lon="11.954406902411485"><ele>205.66666666666669</ele><time>2026-05-01T10:43:38Z</time></trkpt><trkpt lat="45.89669201244073" lon="11.95429442976588"><ele>203.5</ele><time>2026-05-01T10:43:39Z</time></trkpt><trkpt lat="45.896746525082456" lon="11.95419037961843"><ele>201.33333333333334</ele><time>2026-05-01T10:43:40Z</time></trkpt><trkpt lat="45.89679907564181" lon="11.954091294251317"><ele>199.16666666666669</ele><time>2026-05-01T10:43:41Z</time></trkpt><trkpt lat="45.89684387193863" lon="11.954003378521074"><ele>197.0</ele><time>2026-05-01T10:43:42Z</time></trkpt><trkpt lat="45.896882860269436" lon="11.953916661496095"><ele>196.14285714285714</ele><time>2026-05-01T10:43:43Z</time></trkpt><trkpt lat="45.896922081527265" lon="11.953839396156436"><ele>195.28571428571428</ele><time>2026-05-01T10:43:44Z</time></trkpt><trkpt lat="45.89696278301294" lon="11.953768488006183"><ele>194.42857142857144</ele><time>2026-05-01T10:43:45Z</time></trkpt><trkpt lat="45.89700829652576" lon="11.953704816358503"><ele>193.57142857142856</ele><time>2026-05-01T10:43:46Z</time></trkpt><trkpt lat="45.89707388802043" lon="11.953623141908768"><ele>192.7142857142857</ele><time>2026-05-01T10:43:48Z</time></trkpt><trkpt lat="45.89712400696837" lon="11.953551429100022"><ele>191.85714285714286</ele><time>2026-05-01T10:43:51Z</time></trkpt><trkpt lat="45.89718883123899" lon="11.953454014938808"><ele>191.0</ele><time>2026-05-01T10:43:57Z</time></trkpt><trkpt lat="45.89729151021148" lon="11.953312876628292"><ele>192.20000000000002</ele><time>2026-05-01T10:43:59Z</time></trkpt><trkpt lat="45.89736026918243" lon="11.953243644999171"><ele>193.4</ele><time>2026-05-01T10:44:00Z</time></trkpt><trkpt lat="45.897432360783974" lon="11.953165754460548"><ele>194.6</ele><time>2026-05-01T10:44:01Z</time></trkpt><trkpt lat="45.89750830176247" lon="11.953085103985106"><ele>195.8</ele><time>2026-05-01T10:44:02Z</time></trkpt><trkpt lat="45.89759137270961" lon="11.95300182222541"><ele>197.0</ele><time>2026-05-01T10:44:03Z</time></trkpt><trkpt lat="45.89768186315639" lon="11.952923147455717"><ele>197.0</ele><time>2026-05-01T10:44:04Z</time></trkpt><trkpt lat="45.89778303173727" lon="11.952844598893918"><ele>197.0</ele><time>2026-05-01T10:44:05Z</time></trkpt><trkpt lat="45.897911023257535" lon="11.952754228501695"><ele>197.0</ele><time>2026-05-01T10:44:06Z</time></trkpt><trkpt lat="45.89806072147198" lon="11.952666029104806"><ele>197.0</ele><time>2026-05-01T10:44:07Z</time></trkpt><trkpt lat="45.89822727764564" lon="11.952588128126955"><ele>195.33333333333334</ele><time>2026-05-01T10:44:08Z</time></trkpt><trkpt lat="45.89840917775752" lon="11.95250189446755"><ele>193.66666666666669</ele><time>2026-05-01T10:44:09Z</time></trkpt><trkpt lat="45.898581561923834" lon="11.952414017431177"><ele>192.0</ele><time>2026-05-01T10:44:10Z</time></trkpt><trkpt lat="45.89873737458718" lon="11.952338868135755"><ele>192.0</ele><time>2026-05-01T10:44:11Z</time></trkpt><trkpt lat="45.89889071233995" lon="11.95226577303194"><ele>192.0</ele><time>2026-05-01T10:44:12Z</time></trkpt><trkpt lat="45.899041497091844" lon="11.95219235129616"><ele>192.0</ele><time>2026-05-01T10:44:13Z</time></trkpt><trkpt lat="45.89918598318655" lon="11.952121780376997"><ele>200.0</ele><time>2026-05-01T10:44:14Z</time></trkpt><trkpt lat="45.89932249441791" lon="11.952059078967032"><ele>208.0</ele><time>2026-05-01T10:44:15Z</time></trkpt><trkpt lat="45.899448325990264" lon="11.95199708301942"><ele>216.0</ele><time>2026-05-01T10:44:16Z</time></trkpt><trkpt lat="45.89956585601086" lon="11.951937917433266"><ele>224.0</ele><time>2026-05-01T10:44:17Z</time></trkpt><trkpt lat="45.89967956087503" lon="11.951884074252842"><ele>224.0</ele><time>2026-05-01T10:44:18Z</time></trkpt><trkpt lat="45.89979203249614" lon="11.951838021991051"><ele>223.99999999999997</ele><time>2026-05-01T10:44:19Z</time></trkpt><trkpt lat="45.89990214954255" lon="11.951794209970245"><ele>223.99999999999997</ele><time>2026-05-01T10:44:20Z</time></trkpt><trkpt lat="45.89999945717273" lon="11.951759086483404"><ele>224.0</ele><time>2026-05-01T10:44:21Z</time></trkpt><trkpt lat="45.90008965323158" lon="11.951731855474527"><ele>224.0</ele><time>2026-05-01T10:44:22Z</time></trkpt><trkpt lat="45.90017289704182" lon="11.95170583956836"><ele>218.2</ele><time>2026-05-01T10:44:23Z</time></trkpt><trkpt lat="45.90023678827854" lon="11.951673719282576"><ele>212.39999999999998</ele><time>2026-05-01T10:44:24Z</time></trkpt><trkpt lat="45.90031921940823" lon="11.951643264761103"><ele>206.6</ele><time>2026-05-01T10:44:26Z</time></trkpt><trkpt lat="45.90029766636727" lon="11.951449909336661"><ele>200.8</ele><time>2026-05-01T10:44:27Z</time></trkpt><trkpt lat="45.90026074701269" lon="11.951352115600429"><ele>195.0</ele><time>2026-05-01T10:44:28Z</time></trkpt><trkpt lat="45.90023462155617" lon="11.951232022708345"><ele>195.0</ele><time>2026-05-01T10:44:29Z</time></trkpt><trkpt lat="45.9002239690203" lon="11.951085455036695"><ele>195.0</ele><time>2026-05-01T10:44:30Z</time></trkpt><trkpt lat="45.90021605576312" lon="11.950932691766141"><ele>195.0</ele><time>2026-05-01T10:44:31Z</time></trkpt><trkpt lat="45.90020484132506" lon="11.950777036959776"><ele>195.0</ele><time>2026-05-01T10:44:32Z</time></trkpt><trkpt lat="45.90019585753104" lon="11.950623213370445"><ele>195.0</ele><time>2026-05-01T10:44:33Z</time></trkpt><trkpt lat="45.900187398637634" lon="11.950466305922692"><ele>190.0</ele><time>2026-05-01T10:44:34Z</time></trkpt><trkpt lat="45.90017594306201" lon="11.950305648593151"><ele>185.0</ele><time>2026-05-01T10:44:35Z</time></trkpt><trkpt lat="45.9001644946689" lon="11.950141797787454"><ele>180.0</ele><time>2026-05-01T10:44:36Z</time></trkpt><trkpt lat="45.900153678378246" lon="11.949966603291427"><ele>175.0</ele><time>2026-05-01T10:44:37Z</time></trkpt><trkpt lat="45.90014261956569" lon="11.949774452309887"><ele>175.0</ele><time>2026-05-01T10:44:38Z</time></trkpt><trkpt lat="45.90012878677876" lon="11.949571471527209"><ele>175.0</ele><time>2026-05-01T10:44:38.999Z</time></trkpt><trkpt lat="45.90011299059225" lon="11.94936640657306"><ele>175.0</ele><time>2026-05-01T10:44:39.999Z</time></trkpt><trkpt lat="45.90009789085355" lon="11.949160449933073"><ele>175.0</ele><time>2026-05-01T10:44:40.999Z</time></trkpt><trkpt lat="45.90008568485435" lon="11.94896396194801"><ele>174.25</ele><time>2026-05-01T10:44:41.999Z</time></trkpt><trkpt lat="45.90007508688698" lon="11.948769011256985"><ele>173.5</ele><time>2026-05-01T10:44:42.999Z</time></trkpt><trkpt lat="45.900063846200645" lon="11.94857886146043"><ele>172.75</ele><time>2026-05-01T10:44:43.999Z</time></trkpt><trkpt lat="45.90005145175607" lon="11.948391617081375"><ele>172.0</ele><time>2026-05-01T10:44:44.999Z</time></trkpt><trkpt lat="45.90003784699857" lon="11.948210321552464"><ele>172.0</ele><time>2026-05-01T10:44:45.999Z</time></trkpt><trkpt lat="45.90002676470142" lon="11.948030573735387"><ele>172.0</ele><time>2026-05-01T10:44:46.999Z</time></trkpt><trkpt lat="45.90001817316767" lon="11.947852019400655"><ele>172.0</ele><time>2026-05-01T10:44:47.999Z</time></trkpt><trkpt lat="45.90000817284471" lon="11.947677635201428"><ele>172.0</ele><time>2026-05-01T10:44:48.999Z</time></trkpt><trkpt lat="45.899993680755315" lon="11.947500630055346"><ele>171.66666666666669</ele><time>2026-05-01T10:44:49.999Z</time></trkpt><trkpt lat="45.89997984436476" lon="11.947308897114937"><ele>171.33333333333334</ele><time>2026-05-01T10:44:50.999Z</time></trkpt><trkpt lat="45.8999676274065" lon="11.947094317530869"><ele>171.0</ele><time>2026-05-01T10:44:51.999Z</time></trkpt><trkpt lat="45.89995137686996" lon="11.946857334311277"><ele>172.66666666666666</ele><time>2026-05-01T10:44:52.999Z</time></trkpt><trkpt lat="45.8999353951453" lon="11.946607529169835"><ele>174.33333333333331</ele><time>2026-05-01T10:44:53.999Z</time></trkpt><trkpt lat="45.899920456205905" lon="11.946378263635316"><ele>176.0</ele><time>2026-05-01T10:44:54.999Z</time></trkpt><trkpt lat="45.89990453849512" lon="11.94615690204952"><ele>176.0</ele><time>2026-05-01T10:44:55.999Z</time></trkpt><trkpt lat="45.89989249411236" lon="11.945943554695987"><ele>176.0</ele><time>2026-05-01T10:44:56.999Z</time></trkpt><trkpt lat="45.89988113777249" lon="11.945737062760175"><ele>176.0</ele><time>2026-05-01T10:44:57.999Z</time></trkpt><trkpt lat="45.89986948403179" lon="11.945540398985191"><ele>176.0</ele><time>2026-05-01T10:44:58.999Z</time></trkpt><trkpt lat="45.899857157912905" lon="11.945361188760474"><ele>176.75</ele><time>2026-05-01T10:44:59.999Z</time></trkpt><trkpt lat="45.899840294467936" lon="11.94516830553977"><ele>177.5</ele><time>2026-05-01T10:45:00.999Z</time></trkpt><trkpt lat="45.899830288250065" lon="11.944971837335679"><ele>178.25</ele><time>2026-05-01T10:45:01.999Z</time></trkpt><trkpt lat="45.89981986116514" lon="11.944775648485647"><ele>179.0</ele><time>2026-05-01T10:45:02.999Z</time></trkpt><trkpt lat="45.899808901015625" lon="11.944607724564062"><ele>179.0</ele><time>2026-05-01T10:45:03.999Z</time></trkpt><trkpt lat="45.8997980381271" lon="11.944450980198797"><ele>179.0</ele><time>2026-05-01T10:45:04.999Z</time></trkpt><trkpt lat="45.899784981140456" lon="11.944289256981484"><ele>179.0</ele><time>2026-05-01T10:45:05.999Z</time></trkpt><trkpt lat="45.899776500327505" lon="11.94412473899327"><ele>179.0</ele><time>2026-05-01T10:45:06.999Z</time></trkpt><trkpt lat="45.899769260470784" lon="11.94395550676934"><ele>178.39999999999998</ele><time>2026-05-01T10:45:07.999Z</time></trkpt><trkpt lat="45.899759563989775" lon="11.943790350175039"><ele>177.8</ele><time>2026-05-01T10:45:08.999Z</time></trkpt><trkpt lat="45.899747483961164" lon="11.943640820309927"><ele>177.2</ele><time>2026-05-01T10:45:09.999Z</time></trkpt><trkpt lat="45.89973696523368" lon="11.943505961809302"><ele>176.60000000000002</ele><time>2026-05-01T10:45:10.999Z</time></trkpt><trkpt lat="45.899732505885815" lon="11.943388895709905"><ele>176.0</ele><time>2026-05-01T10:45:11.999Z</time></trkpt><trkpt lat="45.899743876919274" lon="11.943282957477518"><ele>177.33333333333331</ele><time>2026-05-01T10:45:12.999Z</time></trkpt><trkpt lat="45.89976861327791" lon="11.94319064997734"><ele>178.66666666666666</ele><time>2026-05-01T10:45:13.999Z</time></trkpt><trkpt lat="45.89978049128668" lon="11.943100440743965"><ele>180.0</ele><time>2026-05-01T10:45:14.999Z</time></trkpt><trkpt lat="45.89976420008316" lon="11.943007546653575"><ele>181.33333333333334</ele><time>2026-05-01T10:45:15.999Z</time></trkpt><trkpt lat="45.899715629997544" lon="11.942919837360298"><ele>182.66666666666669</ele><time>2026-05-01T10:45:16.999Z</time></trkpt><trkpt lat="45.89964885509901" lon="11.942838576042774"><ele>184.0</ele><time>2026-05-01T10:45:17.999Z</time></trkpt><trkpt lat="45.89954151292627" lon="11.942849112462564"><ele>184.0</ele><time>2026-05-01T10:45:18.999Z</time></trkpt><trkpt lat="45.899443413423846" lon="11.942823871679517"><ele>184.0</ele><time>2026-05-01T10:45:19.999Z</time></trkpt><trkpt lat="45.8993428050566" lon="11.942778912027062"><ele>184.0</ele><time>2026-05-01T10:45:20.999Z</time></trkpt><trkpt lat="45.89922726374167" lon="11.94272547041075"><ele>184.0</ele><time>2026-05-01T10:45:21.999Z</time></trkpt><trkpt lat="45.89911344837638" lon="11.94268506571664"><ele>184.0</ele><time>2026-05-01T10:45:22.999Z</time></trkpt><trkpt lat="45.89899997546676" lon="11.942654967983803"><ele>183.0</ele><time>2026-05-01T10:45:23.999Z</time></trkpt><trkpt lat="45.898884060750994" lon="11.942625697690229"><ele>182.0</ele><time>2026-05-01T10:45:24.999Z</time></trkpt><trkpt lat="45.898758159898726" lon="11.942597285236316"><ele>181.0</ele><time>2026-05-01T10:45:25.999Z</time></trkpt><trkpt lat="45.89862021760466" lon="11.942583564205973"><ele>180.0</ele><time>2026-05-01T10:45:26.999Z</time></trkpt><trkpt lat="45.89845951005493" lon="11.942586299867141"><ele>178.0</ele><time>2026-05-01T10:45:27.999Z</time></trkpt><trkpt lat="45.89827647965566" lon="11.942606080899987"><ele>176.0</ele><time>2026-05-01T10:45:28.999Z</time></trkpt><trkpt lat="45.89806926055905" lon="11.942608484940836"><ele>174.0</ele><time>2026-05-01T10:45:29.999Z</time></trkpt><trkpt lat="45.89785506231114" lon="11.94265379504152"><ele>174.0</ele><time>2026-05-01T10:45:30.999Z</time></trkpt><trkpt lat="45.89762878580772" lon="11.942678616117899"><ele>174.0</ele><time>2026-05-01T10:45:31.999Z</time></trkpt><trkpt lat="45.89740632656305" lon="11.942692561216832"><ele>174.0</ele><time>2026-05-01T10:45:32.999Z</time></trkpt><trkpt lat="45.8971920449999" lon="11.94268657908488"><ele>174.0</ele><time>2026-05-01T10:45:33.999Z</time></trkpt><trkpt lat="45.89699555413212" lon="11.942669192377538"><ele>174.0</ele><time>2026-05-01T10:45:34.999Z</time></trkpt><trkpt lat="45.89682451485601" lon="11.942652015756419"><ele>174.5</ele><time>2026-05-01T10:45:36Z</time></trkpt><trkpt lat="45.89667009531486" lon="11.942635785401041"><ele>175.0</ele><time>2026-05-01T10:45:37Z</time></trkpt><trkpt lat="45.89652731171883" lon="11.942622585813599"><ele>175.5</ele><time>2026-05-01T10:45:38Z</time></trkpt><trkpt lat="45.89639143471283" lon="11.942606408004426"><ele>176.0</ele><time>2026-05-01T10:45:39Z</time></trkpt><trkpt lat="45.89625534982621" lon="11.94258383946452"><ele>176.0</ele><time>2026-05-01T10:45:40Z</time></trkpt><trkpt lat="45.896117598855824" lon="11.94256133871964"><ele>176.0</ele><time>2026-05-01T10:45:41Z</time></trkpt><trkpt lat="45.89598128638957" lon="11.942533720940524"><ele>176.0</ele><time>2026-05-01T10:45:42Z</time></trkpt><trkpt lat="45.895845197650715" lon="11.942506284362917"><ele>176.0</ele><time>2026-05-01T10:45:43Z</time></trkpt><trkpt lat="45.895708418873625" lon="11.942482947979853"><ele>177.75</ele><time>2026-05-01T10:45:44Z</time></trkpt><trkpt lat="45.895574439469684" lon="11.94246377293395"><ele>179.5</ele><time>2026-05-01T10:45:45Z</time></trkpt><trkpt lat="45.89544001557231" lon="11.942446771369797"><ele>181.25</ele><time>2026-05-01T10:45:46Z</time></trkpt><trkpt lat="45.895305318038545" lon="11.9424299815103"><ele>183.0</ele><time>2026-05-01T10:45:47Z</time></trkpt><trkpt lat="45.89517091988231" lon="11.94241125998535"><ele>181.75</ele><time>2026-05-01T10:45:48Z</time></trkpt><trkpt lat="45.895037974635805" lon="11.94239622379684"><ele>180.5</ele><time>2026-05-01T10:45:49Z</time></trkpt><trkpt lat="45.89490500049617" lon="11.942378223888932"><ele>179.25</ele><time>2026-05-01T10:45:50Z</time></trkpt><trkpt lat="45.89477184797102" lon="11.942361434508857"><ele>178.0</ele><time>2026-05-01T10:45:51Z</time></trkpt><trkpt lat="45.89463448317766" lon="11.942350789485845"><ele>178.0</ele><time>2026-05-01T10:45:52Z</time></trkpt><trkpt lat="45.894494545221285" lon="11.942349326994915"><ele>178.0</ele><time>2026-05-01T10:45:53Z</time></trkpt><trkpt lat="45.89435449111935" lon="11.942364942208124"><ele>178.0</ele><time>2026-05-01T10:45:54Z</time></trkpt><trkpt lat="45.89421619136791" lon="11.942402404589274"><ele>178.0</ele><time>2026-05-01T10:45:55Z</time></trkpt><trkpt lat="45.89407968616261" lon="11.942461996844198"><ele>179.33333333333334</ele><time>2026-05-01T10:45:56Z</time></trkpt><trkpt lat="45.89393953898557" lon="11.942537469073205"><ele>180.66666666666666</ele><time>2026-05-01T10:45:57Z</time></trkpt><trkpt lat="45.893793806504995" lon="11.94262323668244"><ele>182.0</ele><time>2026-05-01T10:45:58Z</time></trkpt><trkpt lat="45.89364564905027" lon="11.942719754085413"><ele>180.66666666666666</ele><time>2026-05-01T10:45:59Z</time></trkpt><trkpt lat="45.89349198940622" lon="11.94282816079229"><ele>179.33333333333334</ele><time>2026-05-01T10:46:00Z</time></trkpt><trkpt lat="45.89332943083378" lon="11.942943254549993"><ele>178.0</ele><time>2026-05-01T10:46:01Z</time></trkpt><trkpt lat="45.89316281371243" lon="11.943061672153352"><ele>178.0</ele><time>2026-05-01T10:46:02Z</time></trkpt><trkpt lat="45.8929916897378" lon="11.943183447883085"><ele>178.0</ele><time>2026-05-01T10:46:03Z</time></trkpt><trkpt lat="45.892818939991805" lon="11.943299319278028"><ele>178.0</ele><time>2026-05-01T10:46:04Z</time></trkpt><trkpt lat="45.89264191845326" lon="11.943404845184439"><ele>177.33333333333334</ele><time>2026-05-01T10:46:05Z</time></trkpt><trkpt lat="45.892459597767925" lon="11.943496618612981"><ele>176.66666666666666</ele><time>2026-05-01T10:46:06Z</time></trkpt><trkpt lat="45.892266662005106" lon="11.943570928903691"><ele>176.0</ele><time>2026-05-01T10:46:07Z</time></trkpt><trkpt lat="45.89206281284305" lon="11.943635224638333"><ele>176.0</ele><time>2026-05-01T10:46:08Z</time></trkpt><trkpt lat="45.89184870138036" lon="11.94369106960302"><ele>176.0</ele><time>2026-05-01T10:46:09Z</time></trkpt><trkpt lat="45.891620118745855" lon="11.94373511167648"><ele>176.0</ele><time>2026-05-01T10:46:10Z</time></trkpt><trkpt lat="45.89138605533438" lon="11.943781121753817"><ele>176.0</ele><time>2026-05-01T10:46:11Z</time></trkpt><trkpt lat="45.891167779462904" lon="11.94382086056962"><ele>176.0</ele><time>2026-05-01T10:46:12Z</time></trkpt><trkpt lat="45.89096565080918" lon="11.943835036398509"><ele>176.0</ele><time>2026-05-01T10:46:13Z</time></trkpt><trkpt lat="45.89076914635594" lon="11.94386885389239"><ele>176.0</ele><time>2026-05-01T10:46:14Z</time></trkpt><trkpt lat="45.89057244662068" lon="11.943903023851387"><ele>176.0</ele><time>2026-05-01T10:46:15Z</time></trkpt><trkpt lat="45.89039241331385" lon="11.943950634116703"><ele>176.0</ele><time>2026-05-01T10:46:16Z</time></trkpt><trkpt lat="45.89021817958099" lon="11.944026199389358"><ele>175.33333333333331</ele><time>2026-05-01T10:46:17Z</time></trkpt><trkpt lat="45.8900561409496" lon="11.94413186129415"><ele>174.66666666666666</ele><time>2026-05-01T10:46:18Z</time></trkpt><trkpt lat="45.88990750810834" lon="11.94426224157849"><ele>174.0</ele><time>2026-05-01T10:46:19Z</time></trkpt><trkpt lat="45.88975215082875" lon="11.944403420453376"><ele>174.0</ele><time>2026-05-01T10:46:20Z</time></trkpt><trkpt lat="45.88958747188731" lon="11.944554103798993"><ele>174.0</ele><time>2026-05-01T10:46:21Z</time></trkpt><trkpt lat="45.889416955933996" lon="11.944711903865871"><ele>174.0</ele><time>2026-05-01T10:46:22Z</time></trkpt><trkpt lat="45.88923864196554" lon="11.944873960093362"><ele>171.5</ele><time>2026-05-01T10:46:23Z</time></trkpt><trkpt lat="45.889049431459895" lon="11.945037141999563"><ele>169.0</ele><time>2026-05-01T10:46:24Z</time></trkpt><trkpt lat="45.88885282387477" lon="11.94520551847759"><ele>169.0</ele><time>2026-05-01T10:46:25Z</time></trkpt><trkpt lat="45.88865710889449" lon="11.945375159050187"><ele>169.0</ele><time>2026-05-01T10:46:26Z</time></trkpt><trkpt lat="45.888469598508316" lon="11.945544794915335"><ele>169.33333333333334</ele><time>2026-05-01T10:46:27Z</time></trkpt><trkpt lat="45.88829291156054" lon="11.945707480000245"><ele>169.66666666666666</ele><time>2026-05-01T10:46:28Z</time></trkpt><trkpt lat="45.888127363580814" lon="11.945856687983804"><ele>170.0</ele><time>2026-05-01T10:46:29Z</time></trkpt><trkpt lat="45.887966303349174" lon="11.946000500114058"><ele>170.0</ele><time>2026-05-01T10:46:30Z</time></trkpt><trkpt lat="45.8878058156197" lon="11.946146609850105"><ele>170.0</ele><time>2026-05-01T10:46:31Z</time></trkpt><trkpt lat="45.88764676137685" lon="11.94629264582385"><ele>170.0</ele><time>2026-05-01T10:46:32Z</time></trkpt><trkpt lat="45.88749322599503" lon="11.946433969277571"><ele>170.0</ele><time>2026-05-01T10:46:33Z</time></trkpt><trkpt lat="45.88735200873103" lon="11.946589714564658"><ele>170.0</ele><time>2026-05-01T10:46:34Z</time></trkpt><trkpt lat="45.88720690030965" lon="11.946723772388792"><ele>170.0</ele><time>2026-05-01T10:46:35Z</time></trkpt><trkpt lat="45.887058645843595" lon="11.946829817307643"><ele>170.0</ele><time>2026-05-01T10:46:36Z</time></trkpt><trkpt lat="45.88692209066688" lon="11.946950692107222"><ele>170.0</ele><time>2026-05-01T10:46:37Z</time></trkpt><trkpt lat="45.886786899193034" lon="11.947075275232935"><ele>170.0</ele><time>2026-05-01T10:46:38Z</time></trkpt><trkpt lat="45.88665194579513" lon="11.947213920915603"><ele>169.66666666666666</ele><time>2026-05-01T10:46:39Z</time></trkpt><trkpt lat="45.886522017686964" lon="11.94737607265675"><ele>169.33333333333334</ele><time>2026-05-01T10:46:40Z</time></trkpt><trkpt lat="45.886408641483854" lon="11.947560348206755"><ele>169.0</ele><time>2026-05-01T10:46:41Z</time></trkpt><trkpt lat="45.886303613083854" lon="11.94774880780328"><ele>169.0</ele><time>2026-05-01T10:46:42Z</time></trkpt><trkpt lat="45.88620595438289" lon="11.947939916330812"><ele>169.0</ele><time>2026-05-01T10:46:43Z</time></trkpt><trkpt lat="45.886111031164425" lon="11.948138648404504"><ele>169.0</ele><time>2026-05-01T10:46:44Z</time></trkpt><trkpt lat="45.88602208290749" lon="11.948362060094608"><ele>173.33333333333334</ele><time>2026-05-01T10:46:44.999Z</time></trkpt><trkpt lat="45.885917752085135" lon="11.948593370957509"><ele>177.66666666666666</ele><time>2026-05-01T10:46:45.999Z</time></trkpt><trkpt lat="45.88581973633306" lon="11.948846801549951"><ele>182.0</ele><time>2026-05-01T10:46:46.999Z</time></trkpt><trkpt lat="45.88572149196581" lon="11.949114165567396"><ele>178.0</ele><time>2026-05-01T10:46:47.999Z</time></trkpt><trkpt lat="45.885626492339966" lon="11.949388878246666"><ele>174.0</ele><time>2026-05-01T10:46:48.999Z</time></trkpt><trkpt lat="45.88553686015908" lon="11.949651571884006"><ele>170.0</ele><time>2026-05-01T10:46:49.999Z</time></trkpt><trkpt lat="45.885459854989634" lon="11.949900216807931"><ele>167.33333333333331</ele><time>2026-05-01T10:46:50.999Z</time></trkpt><trkpt lat="45.88539720770939" lon="11.950150648530919"><ele>164.66666666666666</ele><time>2026-05-01T10:46:51.999Z</time></trkpt><trkpt lat="45.88534048608757" lon="11.950406630799234"><ele>162.0</ele><time>2026-05-01T10:46:52.999Z</time></trkpt><trkpt lat="45.885282437084996" lon="11.950678424416472"><ele>164.0</ele><time>2026-05-01T10:46:53.999Z</time></trkpt><trkpt lat="45.885221246137064" lon="11.950967749680958"><ele>166.0</ele><time>2026-05-01T10:46:54.999Z</time></trkpt><trkpt lat="45.88515105493192" lon="11.95132621282381"><ele>175.0</ele><time>2026-05-01T10:46:55.999Z</time></trkpt><trkpt lat="45.885072030374936" lon="11.95170733671572"><ele>184.0</ele><time>2026-05-01T10:46:56.999Z</time></trkpt><trkpt lat="45.8850074151034" lon="11.952041775337658"><ele>184.0</ele><time>2026-05-01T10:46:57.999Z</time></trkpt><trkpt lat="45.884953990896946" lon="11.95237827509503"><ele>184.0</ele><time>2026-05-01T10:46:58.999Z</time></trkpt><trkpt lat="45.88489505656987" lon="11.952731093119585"><ele>180.5</ele><time>2026-05-01T10:46:59.999Z</time></trkpt><trkpt lat="45.88483638769497" lon="11.953097711449784"><ele>177.0</ele><time>2026-05-01T10:47:00.999Z</time></trkpt><trkpt lat="45.884780610767486" lon="11.953453140585017"><ele>175.33333333333334</ele><time>2026-05-01T10:47:01.999Z</time></trkpt><trkpt lat="45.88471396626693" lon="11.953774982181166"><ele>173.66666666666669</ele><time>2026-05-01T10:47:02.999Z</time></trkpt><trkpt lat="45.884629737405696" lon="11.95405142105891"><ele>172.0</ele><time>2026-05-01T10:47:03.999Z</time></trkpt><trkpt lat="45.88451751287537" lon="11.954307333417292"><ele>172.0</ele><time>2026-05-01T10:47:04.999Z</time></trkpt><trkpt lat="45.884382451679315" lon="11.954546854236956"><ele>172.0</ele><time>2026-05-01T10:47:05.999Z</time></trkpt><trkpt lat="45.8842344706963" lon="11.954787625747297"><ele>172.0</ele><time>2026-05-01T10:47:06.999Z</time></trkpt><trkpt lat="45.88408677449633" lon="11.955035492605502"><ele>171.0</ele><time>2026-05-01T10:47:07.999Z</time></trkpt><trkpt lat="45.88394262231826" lon="11.955280929954093"><ele>170.0</ele><time>2026-05-01T10:47:08.999Z</time></trkpt><trkpt lat="45.88381359812363" lon="11.955499062853953"><ele>169.0</ele><time>2026-05-01T10:47:09.999Z</time></trkpt><trkpt lat="45.88369389517571" lon="11.955703766059294"><ele>168.0</ele><time>2026-05-01T10:47:10.999Z</time></trkpt><trkpt lat="45.8835759138643" lon="11.955907010781699"><ele>167.0</ele><time>2026-05-01T10:47:11.999Z</time></trkpt><trkpt lat="45.883457309684694" lon="11.956105586827569"><ele>166.0</ele><time>2026-05-01T10:47:12.999Z</time></trkpt><trkpt lat="45.883344731395425" lon="11.956289947198448"><ele>166.66666666666669</ele><time>2026-05-01T10:47:13.999Z</time></trkpt><trkpt lat="45.883239740924104" lon="11.956453666140888"><ele>167.33333333333334</ele><time>2026-05-01T10:47:14.999Z</time></trkpt><trkpt lat="45.88313779334107" lon="11.956624974809072"><ele>168.0</ele><time>2026-05-01T10:47:15.999Z</time></trkpt><trkpt lat="45.88303055418455" lon="11.956802646190571"><ele>168.0</ele><time>2026-05-01T10:47:16.999Z</time></trkpt><trkpt lat="45.882916641723156" lon="11.95698861368051"><ele>168.0</ele><time>2026-05-01T10:47:17.999Z</time></trkpt><trkpt lat="45.88279914609753" lon="11.957182178690019"><ele>168.0</ele><time>2026-05-01T10:47:18.999Z</time></trkpt><trkpt lat="45.882680746936806" lon="11.957379817111324"><ele>168.33333333333334</ele><time>2026-05-01T10:47:19.999Z</time></trkpt><trkpt lat="45.882557905053126" lon="11.957576182147855"><ele>168.66666666666669</ele><time>2026-05-01T10:47:20.999Z</time></trkpt><trkpt lat="45.882431960700174" lon="11.957770693851804"><ele>169.0</ele><time>2026-05-01T10:47:21.999Z</time></trkpt><trkpt lat="45.88230707286429" lon="11.957961902178926"><ele>169.0</ele><time>2026-05-01T10:47:22.999Z</time></trkpt><trkpt lat="45.88218707697248" lon="11.958142793398183"><ele>169.0</ele><time>2026-05-01T10:47:23.999Z</time></trkpt><trkpt lat="45.88206213269215" lon="11.958297008214036"><ele>169.0</ele><time>2026-05-01T10:47:24.999Z</time></trkpt><trkpt lat="45.88195353108485" lon="11.958467745727432"><ele>170.0</ele><time>2026-05-01T10:47:25.999Z</time></trkpt><trkpt lat="45.88184883434091" lon="11.95865081456859"><ele>171.0</ele><time>2026-05-01T10:47:26.999Z</time></trkpt><trkpt lat="45.881742306968114" lon="11.958851241892734"><ele>172.0</ele><time>2026-05-01T10:47:27.999Z</time></trkpt><trkpt lat="45.8816537474881" lon="11.959071792523346"><ele>170.66666666666669</ele><time>2026-05-01T10:47:28.999Z</time></trkpt><trkpt lat="45.881553315136586" lon="11.95927351144809"><ele>169.33333333333334</ele><time>2026-05-01T10:47:29.999Z</time></trkpt><trkpt lat="45.881452636943656" lon="11.959470500138439"><ele>168.0</ele><time>2026-05-01T10:47:30.999Z</time></trkpt><trkpt lat="45.88135254899787" lon="11.959675293394637"><ele>168.0</ele><time>2026-05-01T10:47:31.999Z</time></trkpt><trkpt lat="45.881252671477135" lon="11.959885130475675"><ele>168.0</ele><time>2026-05-01T10:47:32.999Z</time></trkpt><trkpt lat="45.8811543515721" lon="11.96009536903101"><ele>168.0</ele><time>2026-05-01T10:47:33.999Z</time></trkpt><trkpt lat="45.88105718613921" lon="11.960296366464062"><ele>168.0</ele><time>2026-05-01T10:47:34.999Z</time></trkpt><trkpt lat="45.88096161272485" lon="11.960490092359276"><ele>168.0</ele><time>2026-05-01T10:47:35.999Z</time></trkpt><trkpt lat="45.8808639837344" lon="11.960675725278714"><ele>168.0</ele><time>2026-05-01T10:47:36.999Z</time></trkpt><trkpt lat="45.88076820233414" lon="11.960855359445512"><ele>169.33333333333334</ele><time>2026-05-01T10:47:37.999Z</time></trkpt><trkpt lat="45.88066387330005" lon="11.961032042806595"><ele>170.66666666666669</ele><time>2026-05-01T10:47:38.999Z</time></trkpt><trkpt lat="45.88055145208984" lon="11.961203660747776"><ele>172.0</ele><time>2026-05-01T10:47:39.999Z</time></trkpt><trkpt lat="45.88043490749656" lon="11.96136608512213"><ele>172.0</ele><time>2026-05-01T10:47:40.999Z</time></trkpt><trkpt lat="45.88032136889949" lon="11.961519172881548"><ele>172.0</ele><time>2026-05-01T10:47:42Z</time></trkpt><trkpt lat="45.880210577085684" lon="11.961664408030458"><ele>172.0</ele><time>2026-05-01T10:47:43Z</time></trkpt><trkpt lat="45.880107210046106" lon="11.961796080783355"><ele>172.0</ele><time>2026-05-01T10:47:44Z</time></trkpt><trkpt lat="45.88000842760997" lon="11.96192055847592"><ele>171.75</ele><time>2026-05-01T10:47:45Z</time></trkpt><trkpt lat="45.879910270896765" lon="11.962040149728928"><ele>171.5</ele><time>2026-05-01T10:47:46Z</time></trkpt><trkpt lat="45.879813142781096" lon="11.962162531459487"><ele>171.25</ele><time>2026-05-01T10:47:47Z</time></trkpt><trkpt lat="45.87972092543616" lon="11.962289313616834"><ele>171.0</ele><time>2026-05-01T10:47:48Z</time></trkpt><trkpt lat="45.879637753267225" lon="11.962399650986043"><ele>171.0</ele><time>2026-05-01T10:47:49Z</time></trkpt><trkpt lat="45.87955334833856" lon="11.962503741852167"><ele>171.0</ele><time>2026-05-01T10:47:50Z</time></trkpt><trkpt lat="45.879463788174014" lon="11.96260543747461"><ele>171.0</ele><time>2026-05-01T10:47:51Z</time></trkpt><trkpt lat="45.87935552516655" lon="11.962670735780888"><ele>171.0</ele><time>2026-05-01T10:47:52Z</time></trkpt><trkpt lat="45.87924706242686" lon="11.9627606079635"><ele>170.25</ele><time>2026-05-01T10:47:53Z</time></trkpt><trkpt lat="45.87911330833757" lon="11.962802985907288"><ele>169.5</ele><time>2026-05-01T10:47:54Z</time></trkpt><trkpt lat="45.87897030407633" lon="11.962850995614788"><ele>168.75</ele><time>2026-05-01T10:47:55Z</time></trkpt><trkpt lat="45.878815636692394" lon="11.96289974701019"><ele>168.0</ele><time>2026-05-01T10:47:56Z</time></trkpt><trkpt lat="45.87864528812171" lon="11.96292008477158"><ele>168.0</ele><time>2026-05-01T10:47:57Z</time></trkpt><trkpt lat="45.87847672211094" lon="11.962960491908017"><ele>168.0</ele><time>2026-05-01T10:47:58Z</time></trkpt><trkpt lat="45.878321319294145" lon="11.962991203799126"><ele>168.0</ele><time>2026-05-01T10:47:59Z</time></trkpt><trkpt lat="45.87817197955787" lon="11.963020144796563"><ele>170.5</ele><time>2026-05-01T10:48:00Z</time></trkpt><trkpt lat="45.87802755193181" lon="11.963051596300822"><ele>173.0</ele><time>2026-05-01T10:48:01Z</time></trkpt><trkpt lat="45.87787837623258" lon="11.96308544763343"><ele>175.5</ele><time>2026-05-01T10:48:02Z</time></trkpt><trkpt lat="45.877730719559864" lon="11.963118209190409"><ele>178.0</ele><time>2026-05-01T10:48:03Z</time></trkpt><trkpt lat="45.87758383344635" lon="11.963168852760953"><ele>178.33333333333334</ele><time>2026-05-01T10:48:04Z</time></trkpt><trkpt lat="45.877438527273796" lon="11.963193566407055"><ele>178.66666666666666</ele><time>2026-05-01T10:48:05Z</time></trkpt><trkpt lat="45.87728981012228" lon="11.963197384023612"><ele>179.0</ele><time>2026-05-01T10:48:06Z</time></trkpt><trkpt lat="45.877134807839575" lon="11.963222431369362"><ele>179.0</ele><time>2026-05-01T10:48:07Z</time></trkpt><trkpt lat="45.876977145943535" lon="11.963249338479738"><ele>179.0</ele><time>2026-05-01T10:48:08Z</time></trkpt><trkpt lat="45.87683210418055" lon="11.963277042812376"><ele>179.0</ele><time>2026-05-01T10:48:09Z</time></trkpt><trkpt lat="45.876695570268346" lon="11.96330563823963"><ele>179.0</ele><time>2026-05-01T10:48:10Z</time></trkpt><trkpt lat="45.87656468621592" lon="11.96333427120719"><ele>177.25</ele><time>2026-05-01T10:48:11Z</time></trkpt><trkpt lat="45.87643586549099" lon="11.963368401174645"><ele>175.5</ele><time>2026-05-01T10:48:12Z</time></trkpt><trkpt lat="45.87630826935289" lon="11.963408936375732"><ele>173.75</ele><time>2026-05-01T10:48:13Z</time></trkpt><trkpt lat="45.87618534817727" lon="11.963454184418733"><ele>172.0</ele><time>2026-05-01T10:48:14Z</time></trkpt><trkpt lat="45.8760659251252" lon="11.963501251378192"><ele>172.0</ele><time>2026-05-01T10:48:15Z</time></trkpt><trkpt lat="45.875945348133676" lon="11.963553930259025"><ele>172.0</ele><time>2026-05-01T10:48:16Z</time></trkpt><trkpt lat="45.87583725127739" lon="11.963635456018267"><ele>172.0</ele><time>2026-05-01T10:48:17Z</time></trkpt><trkpt lat="45.875725255863166" lon="11.963697522551223"><ele>172.0</ele><time>2026-05-01T10:48:18Z</time></trkpt><trkpt lat="45.87561175670755" lon="11.963769479447445"><ele>174.0</ele><time>2026-05-01T10:48:19Z</time></trkpt><trkpt lat="45.875492830632524" lon="11.963846433315217"><ele>176.0</ele><time>2026-05-01T10:48:20Z</time></trkpt><trkpt lat="45.87536899608291" lon="11.963925589888808"><ele>178.0</ele><time>2026-05-01T10:48:21Z</time></trkpt><trkpt lat="45.87524065330732" lon="11.964008676279256"><ele>180.0</ele><time>2026-05-01T10:48:22Z</time></trkpt><trkpt lat="45.87511121830306" lon="11.964088540210494"><ele>180.75</ele><time>2026-05-01T10:48:23Z</time></trkpt><trkpt lat="45.87498250187588" lon="11.964170848188346"><ele>181.5</ele><time>2026-05-01T10:48:24Z</time></trkpt><trkpt lat="45.87486469148887" lon="11.964247317271706"><ele>182.25</ele><time>2026-05-01T10:48:25Z</time></trkpt><trkpt lat="45.874756952055584" lon="11.96431422628575"><ele>183.0</ele><time>2026-05-01T10:48:26Z</time></trkpt><trkpt lat="45.87465737324911" lon="11.96437277767475"><ele>182.5</ele><time>2026-05-01T10:48:27Z</time></trkpt><trkpt lat="45.87456825416772" lon="11.964426063926759"><ele>182.0</ele><time>2026-05-01T10:48:28Z</time></trkpt><trkpt lat="45.87449810000158" lon="11.964465273794685"><ele>181.5</ele><time>2026-05-01T10:48:29Z</time></trkpt><trkpt lat="45.874422714352484" lon="11.964497307818696"><ele>181.0</ele><time>2026-05-01T10:48:31Z</time></trkpt><trkpt lat="45.874362769835216" lon="11.964528359448025"><ele>180.5</ele><time>2026-05-01T10:48:34Z</time></trkpt><trkpt lat="45.874298422704655" lon="11.964564437208875"><ele>180.0</ele><time>2026-05-01T10:48:51.999Z</time></trkpt><trkpt lat="45.874176059812754" lon="11.964638182044212"><ele>180.0</ele><time>2026-05-01T10:48:53.999Z</time></trkpt><trkpt lat="45.874087587851065" lon="11.964690651986905"><ele>180.0</ele><time>2026-05-01T10:48:54.999Z</time></trkpt><trkpt lat="45.87397332868821" lon="11.964741668126148"><ele>180.0</ele><time>2026-05-01T10:48:55.999Z</time></trkpt><trkpt lat="45.873834773850234" lon="11.964781455889792"><ele>180.0</ele><time>2026-05-01T10:48:56.999Z</time></trkpt><trkpt lat="45.873697156388324" lon="11.96480603224"><ele>180.0</ele><time>2026-05-01T10:48:57.999Z</time></trkpt><trkpt lat="45.873560131529196" lon="11.964803122301735"><ele>180.0</ele><time>2026-05-01T10:48:58.999Z</time></trkpt><trkpt lat="45.873423284376805" lon="11.964790532930763"><ele>180.0</ele><time>2026-05-01T10:48:59.999Z</time></trkpt><trkpt lat="45.873285842690535" lon="11.964745931455628"><ele>180.0</ele><time>2026-05-01T10:49:00.999Z</time></trkpt><trkpt lat="45.87315311405313" lon="11.96466353810032"><ele>181.0</ele><time>2026-05-01T10:49:01.999Z</time></trkpt><trkpt lat="45.87302739486851" lon="11.964569825685691"><ele>182.0</ele><time>2026-05-01T10:49:02.999Z</time></trkpt><trkpt lat="45.872916273910384" lon="11.964474214498047"><ele>183.0</ele><time>2026-05-01T10:49:03.999Z</time></trkpt><trkpt lat="45.872824026072166" lon="11.964388290334869"><ele>184.0</ele><time>2026-05-01T10:49:04.999Z</time></trkpt><trkpt lat="45.872735266356564" lon="11.964307464386042"><ele>184.0</ele><time>2026-05-01T10:49:05.999Z</time></trkpt><trkpt lat="45.872642076519824" lon="11.964223915536897"><ele>184.0</ele><time>2026-05-01T10:49:06.999Z</time></trkpt><trkpt lat="45.87255169034515" lon="11.964136318058355"><ele>184.0</ele><time>2026-05-01T10:49:07.999Z</time></trkpt><trkpt lat="45.87246431366845" lon="11.964048562355531"><ele>184.0</ele><time>2026-05-01T10:49:08.999Z</time></trkpt><trkpt lat="45.872387460774" lon="11.963958273690448"><ele>184.0</ele><time>2026-05-01T10:49:09.999Z</time></trkpt><trkpt lat="45.872318347784734" lon="11.963869218775434"><ele>184.2</ele><time>2026-05-01T10:49:10.999Z</time></trkpt><trkpt lat="45.872250632452925" lon="11.963782166902094"><ele>184.39999999999998</ele><time>2026-05-01T10:49:11.999Z</time></trkpt><trkpt lat="45.87218898355176" lon="11.963678918807227"><ele>184.6</ele><time>2026-05-01T10:49:12.999Z</time></trkpt><trkpt lat="45.87211893301425" lon="11.963564115793202"><ele>184.8</ele><time>2026-05-01T10:49:13.999Z</time></trkpt><trkpt lat="45.872042583936164" lon="11.963451641424436"><ele>185.0</ele><time>2026-05-01T10:49:14.999Z</time></trkpt><trkpt lat="45.871997683965375" lon="11.963264181776026"><ele>185.75</ele><time>2026-05-01T10:49:15.999Z</time></trkpt><trkpt lat="45.87193391522245" lon="11.963091053590528"><ele>186.5</ele><time>2026-05-01T10:49:16.999Z</time></trkpt><trkpt lat="45.87186366718051" lon="11.962899794112408"><ele>187.25</ele><time>2026-05-01T10:49:17.999Z</time></trkpt><trkpt lat="45.871790724118306" lon="11.962694368884518"><ele>188.0</ele><time>2026-05-01T10:49:18.999Z</time></trkpt><trkpt lat="45.87171332467909" lon="11.962474979954209"><ele>188.0</ele><time>2026-05-01T10:49:19.999Z</time></trkpt><trkpt lat="45.871629638682386" lon="11.962248485101403"><ele>188.0</ele><time>2026-05-01T10:49:20.999Z</time></trkpt><trkpt lat="45.87154530425571" lon="11.96201766703769"><ele>188.0</ele><time>2026-05-01T10:49:21.999Z</time></trkpt><trkpt lat="45.8714634937108" lon="11.96179157334666"><ele>189.66666666666666</ele><time>2026-05-01T10:49:22.999Z</time></trkpt><trkpt lat="45.871378656100575" lon="11.96156598108979"><ele>191.33333333333331</ele><time>2026-05-01T10:49:23.999Z</time></trkpt><trkpt lat="45.871291406133054" lon="11.96133935482145"><ele>193.0</ele><time>2026-05-01T10:49:24.999Z</time></trkpt><trkpt lat="45.87120812721728" lon="11.961111018960732"><ele>193.0</ele><time>2026-05-01T10:49:25.999Z</time></trkpt><trkpt lat="45.871124848314736" lon="11.960881044587051"><ele>193.0</ele><time>2026-05-01T10:49:26.999Z</time></trkpt><trkpt lat="45.87103932889801" lon="11.960648167191508"><ele>193.0</ele><time>2026-05-01T10:49:27.999Z</time></trkpt><trkpt lat="45.87095058209178" lon="11.960412739441647"><ele>194.0</ele><time>2026-05-01T10:49:28.999Z</time></trkpt><trkpt lat="45.8708595909501" lon="11.960167750932088"><ele>195.0</ele><time>2026-05-01T10:49:29.999Z</time></trkpt><trkpt lat="45.870768696058086" lon="11.959916944285606"><ele>196.0</ele><time>2026-05-01T10:49:30.999Z</time></trkpt><trkpt lat="45.8706797860956" lon="11.959670302602326"><ele>196.0</ele><time>2026-05-01T10:49:31.999Z</time></trkpt><trkpt lat="45.8705948865482" lon="11.959428389901962"><ele>196.0</ele><time>2026-05-01T10:49:32.999Z</time></trkpt><trkpt lat="45.87050681193616" lon="11.959192641118555"><ele>196.0</ele><time>2026-05-01T10:49:33.999Z</time></trkpt><trkpt lat="45.870417281905205" lon="11.958956193398093"><ele>196.0</ele><time>2026-05-01T10:49:34.999Z</time></trkpt><trkpt lat="45.87032254996609" lon="11.958713634488085"><ele>196.0</ele><time>2026-05-01T10:49:35.999Z</time></trkpt><trkpt lat="45.87022136393253" lon="11.95846428502592"><ele>196.0</ele><time>2026-05-01T10:49:36.999Z</time></trkpt><trkpt lat="45.870111733756445" lon="11.958207125782407"><ele>197.0</ele><time>2026-05-01T10:49:37.999Z</time></trkpt><trkpt lat="45.86999255326262" lon="11.957941615558655"><ele>198.0</ele><time>2026-05-01T10:49:38.999Z</time></trkpt><trkpt lat="45.869863352989846" lon="11.957667051790963"><ele>198.0</ele><time>2026-05-01T10:49:39.999Z</time></trkpt><trkpt lat="45.869726391127806" lon="11.957390178390511"><ele>198.0</ele><time>2026-05-01T10:49:40.999Z</time></trkpt><trkpt lat="45.86957573034832" lon="11.957100303670538"><ele>198.0</ele><time>2026-05-01T10:49:41.999Z</time></trkpt><trkpt lat="45.869413338207806" lon="11.956809102112866"><ele>198.0</ele><time>2026-05-01T10:49:42.999Z</time></trkpt><trkpt lat="45.86923972280194" lon="11.956522177350772"><ele>197.0</ele><time>2026-05-01T10:49:43.999Z</time></trkpt><trkpt lat="45.86906833774618" lon="11.9562407867077"><ele>196.0</ele><time>2026-05-01T10:49:44.999Z</time></trkpt><trkpt lat="45.868902947351835" lon="11.955967698700498"><ele>195.0</ele><time>2026-05-01T10:49:45.999Z</time></trkpt><trkpt lat="45.86874346778911" lon="11.955703220191849"><ele>194.0</ele><time>2026-05-01T10:49:46.999Z</time></trkpt><trkpt lat="45.868586690533974" lon="11.955450262514775"><ele>193.66666666666669</ele><time>2026-05-01T10:49:48Z</time></trkpt><trkpt lat="45.8684374292599" lon="11.9552064817826"><ele>193.33333333333331</ele><time>2026-05-01T10:49:49Z</time></trkpt><trkpt lat="45.86829092114112" lon="11.954972797122755"><ele>193.0</ele><time>2026-05-01T10:49:50Z</time></trkpt><trkpt lat="45.86814984868717" lon="11.954747224602853"><ele>193.0</ele><time>2026-05-01T10:49:51Z</time></trkpt><trkpt lat="45.86801713915246" lon="11.95452759387649"><ele>193.0</ele><time>2026-05-01T10:49:52Z</time></trkpt><trkpt lat="45.867891236303805" lon="11.954318456622499"><ele>193.0</ele><time>2026-05-01T10:49:53Z</time></trkpt><trkpt lat="45.86777535285753" lon="11.95412609426325"><ele>193.0</ele><time>2026-05-01T10:49:54Z</time></trkpt><trkpt lat="45.86767607795812" lon="11.953958983795397"><ele>193.0</ele><time>2026-05-01T10:49:55Z</time></trkpt><trkpt lat="45.86758994508665" lon="11.953814103669623"><ele>193.0</ele><time>2026-05-01T10:49:56Z</time></trkpt><trkpt lat="45.86751258852423" lon="11.953681331375064"><ele>193.0</ele><time>2026-05-01T10:49:57Z</time></trkpt><trkpt lat="45.86744253410915" lon="11.953556954092626"><ele>193.0</ele><time>2026-05-01T10:49:58Z</time></trkpt><trkpt lat="45.86738331412277" lon="11.953444330337568"><ele>193.0</ele><time>2026-05-01T10:49:59Z</time></trkpt><trkpt lat="45.86733706240946" lon="11.95332443633342"><ele>193.0</ele><time>2026-05-01T10:50:00Z</time></trkpt><trkpt lat="45.86730618247359" lon="11.953186236264925"><ele>193.0</ele><time>2026-05-01T10:50:01Z</time></trkpt><trkpt lat="45.86728464290075" lon="11.953041360272675"><ele>193.0</ele><time>2026-05-01T10:50:02Z</time></trkpt><trkpt lat="45.86724754188997" lon="11.952900481401421"><ele>193.0</ele><time>2026-05-01T10:50:03Z</time></trkpt><trkpt lat="45.86717337706242" lon="11.952783250534244"><ele>193.0</ele><time>2026-05-01T10:50:04Z</time></trkpt><trkpt lat="45.867066812359376" lon="11.952704097636405"><ele>193.0</ele><time>2026-05-01T10:50:05Z</time></trkpt><trkpt lat="45.86693309723406" lon="11.952614360942937"><ele>193.0</ele><time>2026-05-01T10:50:06Z</time></trkpt><trkpt lat="45.866804909517704" lon="11.952475923334127"><ele>192.66666666666666</ele><time>2026-05-01T10:50:07Z</time></trkpt><trkpt lat="45.866670954478614" lon="11.952348835864504"><ele>192.33333333333331</ele><time>2026-05-01T10:50:08Z</time></trkpt><trkpt lat="45.86656368363474" lon="11.952133145979085"><ele>192.0</ele><time>2026-05-01T10:50:09Z</time></trkpt><trkpt lat="45.866448145901245" lon="11.95195182174868"><ele>192.0</ele><time>2026-05-01T10:50:10Z</time></trkpt><trkpt lat="45.86634613406713" lon="11.95179889275857"><ele>192.0</ele><time>2026-05-01T10:50:11Z</time></trkpt><trkpt lat="45.86624867050455" lon="11.95165017446759"><ele>192.0</ele><time>2026-05-01T10:50:12Z</time></trkpt><trkpt lat="45.86614582827372" lon="11.95148217221971"><ele>192.0</ele><time>2026-05-01T10:50:13Z</time></trkpt><trkpt lat="45.86603946257029" lon="11.951307684059238"><ele>192.0</ele><time>2026-05-01T10:50:14Z</time></trkpt><trkpt lat="45.865927004371535" lon="11.95112890058664"><ele>192.0</ele><time>2026-05-01T10:50:15Z</time></trkpt><trkpt lat="45.86581593124181" lon="11.950951036588151"><ele>192.0</ele><time>2026-05-01T10:50:16Z</time></trkpt><trkpt lat="45.86570592819798" lon="11.950771884643498"><ele>192.0</ele><time>2026-05-01T10:50:17Z</time></trkpt><trkpt lat="45.8655986060295" lon="11.950595641910317"><ele>192.0</ele><time>2026-05-01T10:50:18Z</time></trkpt><trkpt lat="45.8654870596782" lon="11.950417441864225"><ele>192.0</ele><time>2026-05-01T10:50:19Z</time></trkpt><trkpt lat="45.865374283698706" lon="11.950235249099295"><ele>192.0</ele><time>2026-05-01T10:50:20Z</time></trkpt><trkpt lat="45.865262353031014" lon="11.950050420691117"><ele>192.0</ele><time>2026-05-01T10:50:21Z</time></trkpt><trkpt lat="45.865147683350585" lon="11.949860995847537"><ele>192.0</ele><time>2026-05-01T10:50:22Z</time></trkpt><trkpt lat="45.865028035120055" lon="11.949662941789597"><ele>191.66666666666666</ele><time>2026-05-01T10:50:23Z</time></trkpt><trkpt lat="45.86490247696338" lon="11.949459202454829"><ele>191.33333333333331</ele><time>2026-05-01T10:50:24Z</time></trkpt><trkpt lat="45.864769965740955" lon="11.949248235257487"><ele>191.0</ele><time>2026-05-01T10:50:25Z</time></trkpt><trkpt lat="45.86463468994232" lon="11.949026829435569"><ele>190.66666666666666</ele><time>2026-05-01T10:50:26Z</time></trkpt><trkpt lat="45.86449603038827" lon="11.948798745527064"><ele>190.33333333333334</ele><time>2026-05-01T10:50:27Z</time></trkpt><trkpt lat="45.864355461985305" lon="11.948568431201593"><ele>190.0</ele><time>2026-05-01T10:50:28Z</time></trkpt><trkpt lat="45.8642135091198" lon="11.948336521574525"><ele>189.66666666666669</ele><time>2026-05-01T10:50:29Z</time></trkpt><trkpt lat="45.864071434699376" lon="11.948104035049065"><ele>189.33333333333334</ele><time>2026-05-01T10:50:30Z</time></trkpt><trkpt lat="45.86393361278288" lon="11.947881229865217"><ele>189.0</ele><time>2026-05-01T10:50:31Z</time></trkpt><trkpt lat="45.86379939076377" lon="11.94766355617331"><ele>189.33333333333334</ele><time>2026-05-01T10:50:32Z</time></trkpt><trkpt lat="45.86367309034083" lon="11.947455495324158"><ele>189.66666666666669</ele><time>2026-05-01T10:50:33Z</time></trkpt><trkpt lat="45.86355136799554" lon="11.947251895858003"><ele>190.0</ele><time>2026-05-01T10:50:34Z</time></trkpt><trkpt lat="45.86343136805182" lon="11.947055197682614"><ele>190.0</ele><time>2026-05-01T10:50:35Z</time></trkpt><trkpt lat="45.863311183979256" lon="11.946859502396054"><ele>190.0</ele><time>2026-05-01T10:50:36Z</time></trkpt><trkpt lat="45.863187149489534" lon="11.946658266140302"><ele>190.0</ele><time>2026-05-01T10:50:37Z</time></trkpt><trkpt lat="45.8630638448408" lon="11.946454568849655"><ele>189.66666666666669</ele><time>2026-05-01T10:50:38Z</time></trkpt><trkpt lat="45.86293938816409" lon="11.946251546753286"><ele>189.33333333333334</ele><time>2026-05-01T10:50:39Z</time></trkpt><trkpt lat="45.86281439002309" lon="11.946047386650543"><ele>189.0</ele><time>2026-05-01T10:50:40Z</time></trkpt><trkpt lat="45.8626922944611" lon="11.945849791406241"><ele>189.0</ele><time>2026-05-01T10:50:41Z</time></trkpt><trkpt lat="45.86257358986143" lon="11.945657314320744"><ele>189.0</ele><time>2026-05-01T10:50:42Z</time></trkpt><trkpt lat="45.86245994862609" lon="11.94547221064313"><ele>189.0</ele><time>2026-05-01T10:50:43Z</time></trkpt><trkpt lat="45.86234752498186" lon="11.94528626069918"><ele>189.0</ele><time>2026-05-01T10:50:44Z</time></trkpt><trkpt lat="45.86223253207152" lon="11.945102202614594"><ele>189.0</ele><time>2026-05-01T10:50:45Z</time></trkpt><trkpt lat="45.86211767667113" lon="11.944918402067758"><ele>189.0</ele><time>2026-05-01T10:50:46Z</time></trkpt><trkpt lat="45.86200257790598" lon="11.944726540390112"><ele>188.66666666666666</ele><time>2026-05-01T10:50:47Z</time></trkpt><trkpt lat="45.861887495339786" lon="11.944531429123904"><ele>188.33333333333331</ele><time>2026-05-01T10:50:47.999Z</time></trkpt><trkpt lat="45.861771017648884" lon="11.944329029236794"><ele>188.0</ele><time>2026-05-01T10:50:48.999Z</time></trkpt><trkpt lat="45.86165524873362" lon="11.944106494575905"><ele>187.66666666666666</ele><time>2026-05-01T10:50:49.999Z</time></trkpt><trkpt lat="45.86153919584332" lon="11.94387293728123"><ele>187.33333333333334</ele><time>2026-05-01T10:50:50.999Z</time></trkpt><trkpt lat="45.8614261757089" lon="11.943637472731155"><ele>187.0</ele><time>2026-05-01T10:50:51.999Z</time></trkpt><trkpt lat="45.86131423868192" lon="11.943392141718412"><ele>187.0</ele><time>2026-05-01T10:50:52.999Z</time></trkpt><trkpt lat="45.86120315465444" lon="11.943136569252294"><ele>187.0</ele><time>2026-05-01T10:50:53.999Z</time></trkpt><trkpt lat="45.86109463611735" lon="11.94287484010123"><ele>187.0</ele><time>2026-05-01T10:50:54.999Z</time></trkpt><trkpt lat="45.860989778157546" lon="11.94261333997227"><ele>186.66666666666669</ele><time>2026-05-01T10:50:55.999Z</time></trkpt><trkpt lat="45.860889845121264" lon="11.942350636466374"><ele>186.33333333333334</ele><time>2026-05-01T10:50:56.999Z</time></trkpt><trkpt lat="45.86079597979789" lon="11.942093931260167"><ele>186.0</ele><time>2026-05-01T10:50:57.999Z</time></trkpt><trkpt lat="45.86071069275205" lon="11.941846635360976"><ele>185.66666666666666</ele><time>2026-05-01T10:50:58.999Z</time></trkpt><trkpt lat="45.86063345241023" lon="11.941607598944385"><ele>185.33333333333331</ele><time>2026-05-01T10:50:59.999Z</time></trkpt><trkpt lat="45.86055921446073" lon="11.941366704256758"><ele>185.0</ele><time>2026-05-01T10:51:00.999Z</time></trkpt><trkpt lat="45.86049457580342" lon="11.941129265777922"><ele>185.0</ele><time>2026-05-01T10:51:01.999Z</time></trkpt><trkpt lat="45.86043078560621" lon="11.940894141340205"><ele>185.0</ele><time>2026-05-01T10:51:02.999Z</time></trkpt><trkpt lat="45.860366161861876" lon="11.940649944882114"><ele>185.0</ele><time>2026-05-01T10:51:03.999Z</time></trkpt><trkpt lat="45.86030189446989" lon="11.940399805228996"><ele>185.66666666666666</ele><time>2026-05-01T10:51:04.999Z</time></trkpt><trkpt lat="45.86023763713364" lon="11.940143735120353"><ele>186.33333333333334</ele><time>2026-05-01T10:51:05.999Z</time></trkpt><trkpt lat="45.86017255765108" lon="11.939877736904084"><ele>187.0</ele><time>2026-05-01T10:51:06.999Z</time></trkpt><trkpt lat="45.8601063308006" lon="11.939607807315697"><ele>187.0</ele><time>2026-05-01T10:51:07.999Z</time></trkpt><trkpt lat="45.86004044598799" lon="11.93933182298455"><ele>187.0</ele><time>2026-05-01T10:51:08.999Z</time></trkpt><trkpt lat="45.8599719583491" lon="11.939053423798262"><ele>187.0</ele><time>2026-05-01T10:51:09.999Z</time></trkpt><trkpt lat="45.85990552050997" lon="11.938781971263099"><ele>186.66666666666669</ele><time>2026-05-01T10:51:10.999Z</time></trkpt><trkpt lat="45.859836981532936" lon="11.938509812487181"><ele>186.33333333333334</ele><time>2026-05-01T10:51:11.999Z</time></trkpt><trkpt lat="45.85976731338905" lon="11.938235604205547"><ele>186.0</ele><time>2026-05-01T10:51:12.999Z</time></trkpt><trkpt lat="45.859697975045" lon="11.937962593882611"><ele>186.0</ele><time>2026-05-01T10:51:13.999Z</time></trkpt><trkpt lat="45.85962984058657" lon="11.937690649729943"><ele>186.0</ele><time>2026-05-01T10:51:14.999Z</time></trkpt><trkpt lat="45.859562579393064" lon="11.937420524969873"><ele>186.0</ele><time>2026-05-01T10:51:15.999Z</time></trkpt><trkpt lat="45.85949669762866" lon="11.93714840867817"><ele>187.66666666666666</ele><time>2026-05-01T10:51:16.999Z</time></trkpt><trkpt lat="45.859428043734816" lon="11.936874402163564"><ele>189.33333333333331</ele><time>2026-05-01T10:51:17.999Z</time></trkpt><trkpt lat="45.85936006662293" lon="11.936599240295394"><ele>191.0</ele><time>2026-05-01T10:51:18.999Z</time></trkpt><trkpt lat="45.85929235669657" lon="11.936320251163808"><ele>189.33333333333331</ele><time>2026-05-01T10:51:19.999Z</time></trkpt><trkpt lat="45.85922407239497" lon="11.936037560744525"><ele>187.66666666666666</ele><time>2026-05-01T10:51:20.999Z</time></trkpt><trkpt lat="45.85915072718119" lon="11.935754254002227"><ele>186.0</ele><time>2026-05-01T10:51:21.999Z</time></trkpt><trkpt lat="45.85907872152764" lon="11.93546729419439"><ele>186.0</ele><time>2026-05-01T10:51:22.999Z</time></trkpt><trkpt lat="45.85900746130558" lon="11.935176466805283"><ele>186.0</ele><time>2026-05-01T10:51:23.999Z</time></trkpt><trkpt lat="45.85893520011384" lon="11.934882261858906"><ele>186.0</ele><time>2026-05-01T10:51:24.999Z</time></trkpt><trkpt lat="45.858864164560934" lon="11.934587985764727"><ele>186.33333333333334</ele><time>2026-05-01T10:51:25.999Z</time></trkpt><trkpt lat="45.858792134272136" lon="11.93430154947774"><ele>186.66666666666669</ele><time>2026-05-01T10:51:26.999Z</time></trkpt><trkpt lat="45.85872186632426" lon="11.93402436553092"><ele>187.0</ele><time>2026-05-01T10:51:27.999Z</time></trkpt><trkpt lat="45.85866020345384" lon="11.933766759581797"><ele>187.0</ele><time>2026-05-01T10:51:28.999Z</time></trkpt><trkpt lat="45.858602703866715" lon="11.933527889874894"><ele>187.0</ele><time>2026-05-01T10:51:29.999Z</time></trkpt><trkpt lat="45.858550471849725" lon="11.933305951243732"><ele>187.0</ele><time>2026-05-01T10:51:30.999Z</time></trkpt><trkpt lat="45.85850641977652" lon="11.933105472817722"><ele>187.25</ele><time>2026-05-01T10:51:31.999Z</time></trkpt><trkpt lat="45.85846352637637" lon="11.932918888469382"><ele>187.5</ele><time>2026-05-01T10:51:32.999Z</time></trkpt><trkpt lat="45.85842071413268" lon="11.932746336964868"><ele>187.75</ele><time>2026-05-01T10:51:33.999Z</time></trkpt><trkpt lat="45.85837772190445" lon="11.932579726803572"><ele>188.0</ele><time>2026-05-01T10:51:34.999Z</time></trkpt><trkpt lat="45.85833465815114" lon="11.932409530228966"><ele>188.0</ele><time>2026-05-01T10:51:35.999Z</time></trkpt><trkpt lat="45.85829250416931" lon="11.932235865803952"><ele>188.0</ele><time>2026-05-01T10:51:36.999Z</time></trkpt><trkpt lat="45.85824975692242" lon="11.932060852688656"><ele>188.0</ele><time>2026-05-01T10:51:37.999Z</time></trkpt><trkpt lat="45.858205115048165" lon="11.931885362184822"><ele>188.0</ele><time>2026-05-01T10:51:38.999Z</time></trkpt><trkpt lat="45.858160457734435" lon="11.931707890568115"><ele>188.0</ele><time>2026-05-01T10:51:39.999Z</time></trkpt><trkpt lat="45.85811453069623" lon="11.931529360958441"><ele>188.0</ele><time>2026-05-01T10:51:40.999Z</time></trkpt><trkpt lat="45.85806702440215" lon="11.931354628236313"><ele>188.0</ele><time>2026-05-01T10:51:41.999Z</time></trkpt><trkpt lat="45.85802036988116" lon="11.931184273735948"><ele>188.0</ele><time>2026-05-01T10:51:42.999Z</time></trkpt><trkpt lat="45.8579746235247" lon="11.9310146312806"><ele>188.5</ele><time>2026-05-01T10:51:43.999Z</time></trkpt><trkpt lat="45.85792556891898" lon="11.930835309218347"><ele>189.0</ele><time>2026-05-01T10:51:44.999Z</time></trkpt><trkpt lat="45.857876454655795" lon="11.930643984585675"><ele>189.5</ele><time>2026-05-01T10:51:45.999Z</time></trkpt><trkpt lat="45.857824823968784" lon="11.930451137855567"><ele>190.0</ele><time>2026-05-01T10:51:46.999Z</time></trkpt><trkpt lat="45.857774836658194" lon="11.930251141485845"><ele>190.0</ele><time>2026-05-01T10:51:47.999Z</time></trkpt><trkpt lat="45.85772478581613" lon="11.930046584452048"><ele>190.0</ele><time>2026-05-01T10:51:48.999Z</time></trkpt><trkpt lat="45.8576750337085" lon="11.929837520011455"><ele>190.0</ele><time>2026-05-01T10:51:49.999Z</time></trkpt><trkpt lat="45.85762235465718" lon="11.929623368233756"><ele>189.66666666666669</ele><time>2026-05-01T10:51:50.999Z</time></trkpt><trkpt lat="45.85756898978311" lon="11.9294049532513"><ele>189.33333333333334</ele><time>2026-05-01T10:51:51.999Z</time></trkpt><trkpt lat="45.85752077595784" lon="11.929178686363441"><ele>189.0</ele><time>2026-05-01T10:51:52.999Z</time></trkpt><trkpt lat="45.85746550861013" lon="11.928950259095148"><ele>190.33333333333331</ele><time>2026-05-01T10:51:54Z</time></trkpt><trkpt lat="45.85740999855752" lon="11.928714057035352"><ele>191.66666666666666</ele><time>2026-05-01T10:51:55Z</time></trkpt><trkpt lat="45.857351316012334" lon="11.92847397184041"><ele>193.0</ele><time>2026-05-01T10:51:56Z</time></trkpt><trkpt lat="45.85729193829948" lon="11.928231607008238"><ele>193.33333333333331</ele><time>2026-05-01T10:51:57Z</time></trkpt><trkpt lat="45.85723138708151" lon="11.927988062525156"><ele>193.66666666666669</ele><time>2026-05-01T10:51:58Z</time></trkpt><trkpt lat="45.85717102602302" lon="11.927746631101309"><ele>194.0</ele><time>2026-05-01T10:51:59Z</time></trkpt><trkpt lat="45.85711209567918" lon="11.927505173117641"><ele>194.0</ele><time>2026-05-01T10:52:00Z</time></trkpt><trkpt lat="45.85705230995699" lon="11.927262686836091"><ele>194.0</ele><time>2026-05-01T10:52:01Z</time></trkpt><trkpt lat="45.8569896330298" lon="11.927015292193785"><ele>194.0</ele><time>2026-05-01T10:52:02Z</time></trkpt><trkpt lat="45.85692692002368" lon="11.926761637843272"><ele>193.66666666666669</ele><time>2026-05-01T10:52:03Z</time></trkpt><trkpt lat="45.85686448806886" lon="11.926513776696849"><ele>193.33333333333331</ele><time>2026-05-01T10:52:04Z</time></trkpt><trkpt lat="45.85680137136364" lon="11.926276190074164"><ele>193.0</ele><time>2026-05-01T10:52:05Z</time></trkpt><trkpt lat="45.85674081777835" lon="11.926045935539829"><ele>192.33333333333331</ele><time>2026-05-01T10:52:06Z</time></trkpt><trkpt lat="45.85667775948751" lon="11.925830260091166"><ele>191.66666666666666</ele><time>2026-05-01T10:52:07Z</time></trkpt><trkpt lat="45.85662009534942" lon="11.925622607266902"><ele>191.0</ele><time>2026-05-01T10:52:08Z</time></trkpt><trkpt lat="45.85656400729276" lon="11.925423857307578"><ele>191.0</ele><time>2026-05-01T10:52:09Z</time></trkpt><trkpt lat="45.856506578734965" lon="11.925226571285403"><ele>191.0</ele><time>2026-05-01T10:52:10Z</time></trkpt><trkpt lat="45.85645098878261" lon="11.925026238231293"><ele>191.0</ele><time>2026-05-01T10:52:11Z</time></trkpt><trkpt lat="45.856393392501204" lon="11.924823681046627"><ele>192.0</ele><time>2026-05-01T10:52:12Z</time></trkpt><trkpt lat="45.85633576843601" lon="11.924618325038743"><ele>193.0</ele><time>2026-05-01T10:52:13Z</time></trkpt><trkpt lat="45.85627795526449" lon="11.924411358199968"><ele>194.0</ele><time>2026-05-01T10:52:14Z</time></trkpt><trkpt lat="45.856217597116995" lon="11.924202079513247"><ele>195.33333333333334</ele><time>2026-05-01T10:52:15Z</time></trkpt><trkpt lat="45.856157308637606" lon="11.923992521923772"><ele>196.66666666666669</ele><time>2026-05-01T10:52:16Z</time></trkpt><trkpt lat="45.85609645827823" lon="11.923781016392772"><ele>198.0</ele><time>2026-05-01T10:52:17Z</time></trkpt><trkpt lat="45.85603711936919" lon="11.923567985005834"><ele>198.33333333333331</ele><time>2026-05-01T10:52:18Z</time></trkpt><trkpt lat="45.855976844535064" lon="11.923355807779226"><ele>198.66666666666666</ele><time>2026-05-01T10:52:19Z</time></trkpt><trkpt lat="45.85591691698089" lon="11.923147085269141"><ele>199.0</ele><time>2026-05-01T10:52:20Z</time></trkpt><trkpt lat="45.8558589720543" lon="11.922939941338221"><ele>198.0</ele><time>2026-05-01T10:52:21Z</time></trkpt><trkpt lat="45.85580136336222" lon="11.922733934534008"><ele>197.0</ele><time>2026-05-01T10:52:22Z</time></trkpt><trkpt lat="45.85574383815121" lon="11.922528501387914"><ele>196.0</ele><time>2026-05-01T10:52:23Z</time></trkpt><trkpt lat="45.855681561838956" lon="11.922320705364083"><ele>196.0</ele><time>2026-05-01T10:52:24Z</time></trkpt><trkpt lat="45.855618274415406" lon="11.922102362246676"><ele>196.0</ele><time>2026-05-01T10:52:25Z</time></trkpt><trkpt lat="45.85555460103374" lon="11.921873373565546"><ele>196.0</ele><time>2026-05-01T10:52:26Z</time></trkpt><trkpt lat="45.8554893672409" lon="11.921636771531045"><ele>196.66666666666666</ele><time>2026-05-01T10:52:27Z</time></trkpt><trkpt lat="45.85542439062505" lon="11.921395958629798"><ele>197.33333333333331</ele><time>2026-05-01T10:52:28Z</time></trkpt><trkpt lat="45.85535433656202" lon="11.921153594660128"><ele>198.0</ele><time>2026-05-01T10:52:29Z</time></trkpt><trkpt lat="45.85528337576026" lon="11.920907747885705"><ele>197.66666666666669</ele><time>2026-05-01T10:52:30Z</time></trkpt><trkpt lat="45.85521206505873" lon="11.92065803091645"><ele>197.33333333333334</ele><time>2026-05-01T10:52:31Z</time></trkpt><trkpt lat="45.855139761433676" lon="11.920405992455555"><ele>197.0</ele><time>2026-05-01T10:52:32Z</time></trkpt><trkpt lat="45.855066931328935" lon="11.920151194652565"><ele>197.66666666666669</ele><time>2026-05-01T10:52:33Z</time></trkpt><trkpt lat="45.85499422990008" lon="11.919897055436119"><ele>198.33333333333331</ele><time>2026-05-01T10:52:34Z</time></trkpt><trkpt lat="45.85492197557746" lon="11.919642943082964"><ele>199.0</ele><time>2026-05-01T10:52:35Z</time></trkpt><trkpt lat="45.85484925918963" lon="11.919388834079891"><ele>199.33333333333331</ele><time>2026-05-01T10:52:36Z</time></trkpt><trkpt lat="45.85477851388189" lon="11.919136707400847"><ele>199.66666666666669</ele><time>2026-05-01T10:52:37Z</time></trkpt><trkpt lat="45.85470892849888" lon="11.918888867760971"><ele>200.0</ele><time>2026-05-01T10:52:38Z</time></trkpt><trkpt lat="45.854639488044384" lon="11.918648038862608"><ele>200.0</ele><time>2026-05-01T10:52:39Z</time></trkpt><trkpt lat="45.854567300528544" lon="11.918413066532107"><ele>200.0</ele><time>2026-05-01T10:52:40Z</time></trkpt><trkpt lat="45.854498742469886" lon="11.918176861708586"><ele>200.0</ele><time>2026-05-01T10:52:41Z</time></trkpt><trkpt lat="45.854428971181555" lon="11.917936851312396"><ele>199.66666666666669</ele><time>2026-05-01T10:52:42Z</time></trkpt><trkpt lat="45.8543600838077" lon="11.917698718715732"><ele>199.33333333333331</ele><time>2026-05-01T10:52:43Z</time></trkpt><trkpt lat="45.85429106153937" lon="11.917455912117068"><ele>199.0</ele><time>2026-05-01T10:52:44Z</time></trkpt><trkpt lat="45.85422065189611" lon="11.917206985869392"><ele>198.66666666666666</ele><time>2026-05-01T10:52:45Z</time></trkpt><trkpt lat="45.85414770669344" lon="11.91695360319313"><ele>198.33333333333331</ele><time>2026-05-01T10:52:46Z</time></trkpt><trkpt lat="45.854074861434206" lon="11.916700985199535"><ele>198.0</ele><time>2026-05-01T10:52:47Z</time></trkpt><trkpt lat="45.85400388594659" lon="11.916448109938791"><ele>198.66666666666669</ele><time>2026-05-01T10:52:48Z</time></trkpt><trkpt lat="45.85393225859766" lon="11.916196115806665"><ele>199.33333333333334</ele><time>2026-05-01T10:52:49Z</time></trkpt><trkpt lat="45.853862250785916" lon="11.915949798347672"><ele>200.0</ele><time>2026-05-01T10:52:50Z</time></trkpt><trkpt lat="45.85379795547383" lon="11.91571969006803"><ele>200.0</ele><time>2026-05-01T10:52:51Z</time></trkpt><trkpt lat="45.85374082420006" lon="11.915498196260494"><ele>200.0</ele><time>2026-05-01T10:52:52Z</time></trkpt><trkpt lat="45.85369280374858" lon="11.91528357842972"><ele>200.0</ele><time>2026-05-01T10:52:52.999Z</time></trkpt><trkpt lat="45.85365297645802" lon="11.915068800684917"><ele>200.66666666666669</ele><time>2026-05-01T10:52:53.999Z</time></trkpt><trkpt lat="45.85362168774312" lon="11.914857036957834"><ele>201.33333333333331</ele><time>2026-05-01T10:52:54.999Z</time></trkpt><trkpt lat="45.853595543291576" lon="11.914645019003729"><ele>202.0</ele><time>2026-05-01T10:52:55.999Z</time></trkpt><trkpt lat="45.85357503692802" lon="11.91443138122681"><ele>202.0</ele><time>2026-05-01T10:52:56.999Z</time></trkpt><trkpt lat="45.853558016173224" lon="11.914213349279787"><ele>202.0</ele><time>2026-05-01T10:52:57.999Z</time></trkpt><trkpt lat="45.853544289826885" lon="11.913988763225671"><ele>202.0</ele><time>2026-05-01T10:52:58.999Z</time></trkpt><trkpt lat="45.853536208698614" lon="11.91375500854819"><ele>202.0</ele><time>2026-05-01T10:52:59.999Z</time></trkpt><trkpt lat="45.85354196149801" lon="11.913506417622388"><ele>202.0</ele><time>2026-05-01T10:53:00.999Z</time></trkpt><trkpt lat="45.853556887921094" lon="11.913245016059205"><ele>202.0</ele><time>2026-05-01T10:53:01.999Z</time></trkpt><trkpt lat="45.85357984701819" lon="11.912973480818811"><ele>201.66666666666666</ele><time>2026-05-01T10:53:02.999Z</time></trkpt><trkpt lat="45.85360962874535" lon="11.912696371127073"><ele>201.33333333333331</ele><time>2026-05-01T10:53:03.999Z</time></trkpt><trkpt lat="45.85363973492936" lon="11.912426952646193"><ele>201.0</ele><time>2026-05-01T10:53:04.999Z</time></trkpt><trkpt lat="45.8536685163881" lon="11.912156789775828"><ele>201.66666666666669</ele><time>2026-05-01T10:53:05.999Z</time></trkpt><trkpt lat="45.85369635430488" lon="11.911888932252612"><ele>202.33333333333334</ele><time>2026-05-01T10:53:06.999Z</time></trkpt><trkpt lat="45.853726641056056" lon="11.911626759486476"><ele>203.0</ele><time>2026-05-01T10:53:07.999Z</time></trkpt><trkpt lat="45.85375905457" lon="11.911369280648238"><ele>203.0</ele><time>2026-05-01T10:53:08.999Z</time></trkpt><trkpt lat="45.853790347112806" lon="11.911114355440885"><ele>203.0</ele><time>2026-05-01T10:53:09.999Z</time></trkpt><trkpt lat="45.85381984507627" lon="11.91085851719848"><ele>203.0</ele><time>2026-05-01T10:53:10.999Z</time></trkpt><trkpt lat="45.85384849074421" lon="11.910600086064663"><ele>203.33333333333334</ele><time>2026-05-01T10:53:11.999Z</time></trkpt><trkpt lat="45.853875560850234" lon="11.910347037454374"><ele>203.66666666666669</ele><time>2026-05-01T10:53:12.999Z</time></trkpt><trkpt lat="45.85390155485886" lon="11.910099373142884"><ele>204.0</ele><time>2026-05-01T10:53:13.999Z</time></trkpt><trkpt lat="45.8539290006564" lon="11.909853459222846"><ele>204.0</ele><time>2026-05-01T10:53:14.999Z</time></trkpt><trkpt lat="45.85395556183652" lon="11.909609193552605"><ele>204.0</ele><time>2026-05-01T10:53:15.999Z</time></trkpt><trkpt lat="45.85399691712013" lon="11.909369705634946"><ele>204.0</ele><time>2026-05-01T10:53:16.999Z</time></trkpt><trkpt lat="45.85401777664851" lon="11.909123507335782"><ele>204.66666666666669</ele><time>2026-05-01T10:53:17.999Z</time></trkpt><trkpt lat="45.854030861591056" lon="11.908875318180351"><ele>205.33333333333334</ele><time>2026-05-01T10:53:18.999Z</time></trkpt><trkpt lat="45.85401945541321" lon="11.908625067370552"><ele>206.0</ele><time>2026-05-01T10:53:19.999Z</time></trkpt><trkpt lat="45.854036043856" lon="11.908374312471153"><ele>206.33333333333334</ele><time>2026-05-01T10:53:20.999Z</time></trkpt><trkpt lat="45.85402353985977" lon="11.908119780964043"><ele>206.66666666666669</ele><time>2026-05-01T10:53:21.999Z</time></trkpt><trkpt lat="45.85400569897737" lon="11.907866309035708"><ele>207.0</ele><time>2026-05-01T10:53:22.999Z</time></trkpt><trkpt lat="45.85397986506" lon="11.907612309660697"><ele>207.33333333333331</ele><time>2026-05-01T10:53:23.999Z</time></trkpt><trkpt lat="45.85393242756004" lon="11.90736143180317"><ele>207.66666666666666</ele><time>2026-05-01T10:53:24.999Z</time></trkpt><trkpt lat="45.85391109312783" lon="11.907095218975368"><ele>208.0</ele><time>2026-05-01T10:53:25.999Z</time></trkpt><trkpt lat="45.853872743605756" lon="11.90682978994894"><ele>208.0</ele><time>2026-05-01T10:53:26.999Z</time></trkpt><trkpt lat="45.85381980253562" lon="11.906571953681745"><ele>208.0</ele><time>2026-05-01T10:53:27.999Z</time></trkpt><trkpt lat="45.853786947333674" lon="11.90631055183338"><ele>208.0</ele><time>2026-05-01T10:53:28.999Z</time></trkpt><trkpt lat="45.85375565084237" lon="11.906064543573276"><ele>207.33333333333331</ele><time>2026-05-01T10:53:29.999Z</time></trkpt><trkpt lat="45.853728523539786" lon="11.905834959661977"><ele>206.66666666666669</ele><time>2026-05-01T10:53:30.999Z</time></trkpt><trkpt lat="45.85369817364617" lon="11.905610925149027"><ele>206.0</ele><time>2026-05-01T10:53:31.999Z</time></trkpt><trkpt lat="45.85367024552038" lon="11.905391612932174"><ele>206.0</ele><time>2026-05-01T10:53:32.999Z</time></trkpt><trkpt lat="45.85363997571979" lon="11.90516734831788"><ele>206.0</ele><time>2026-05-01T10:53:33.999Z</time></trkpt><trkpt lat="45.85360738121008" lon="11.90494470914589"><ele>206.0</ele><time>2026-05-01T10:53:34.999Z</time></trkpt><trkpt lat="45.85357878736857" lon="11.904726292843959"><ele>207.0</ele><time>2026-05-01T10:53:35.999Z</time></trkpt><trkpt lat="45.8535527362846" lon="11.904511373359115"><ele>208.0</ele><time>2026-05-01T10:53:36.999Z</time></trkpt><trkpt lat="45.85353416973266" lon="11.904298227134703"><ele>209.0</ele><time>2026-05-01T10:53:37.999Z</time></trkpt><trkpt lat="45.85351864452488" lon="11.904080515214023"><ele>209.66666666666669</ele><time>2026-05-01T10:53:38.999Z</time></trkpt><trkpt lat="45.853507264816" lon="11.903861075372268"><ele>210.33333333333331</ele><time>2026-05-01T10:53:39.999Z</time></trkpt><trkpt lat="45.85350026492842" lon="11.90364181774024"><ele>211.0</ele><time>2026-05-01T10:53:40.999Z</time></trkpt><trkpt lat="45.85349790952929" lon="11.9034214230521"><ele>211.66666666666666</ele><time>2026-05-01T10:53:41.999Z</time></trkpt><trkpt lat="45.853503781729685" lon="11.903198189615047"><ele>212.33333333333331</ele><time>2026-05-01T10:53:42.999Z</time></trkpt><trkpt lat="45.85353713181133" lon="11.902979502775061"><ele>213.0</ele><time>2026-05-01T10:53:43.999Z</time></trkpt><trkpt lat="45.85354497538955" lon="11.902749947254968"><ele>213.0</ele><time>2026-05-01T10:53:44.999Z</time></trkpt><trkpt lat="45.85356886006981" lon="11.902516889657864"><ele>213.0</ele><time>2026-05-01T10:53:45.999Z</time></trkpt><trkpt lat="45.85359085921188" lon="11.902276962193913"><ele>213.0</ele><time>2026-05-01T10:53:46.999Z</time></trkpt><trkpt lat="45.853614315930606" lon="11.902039675106408"><ele>213.0</ele><time>2026-05-01T10:53:47.999Z</time></trkpt><trkpt lat="45.853637182376474" lon="11.901808412622332"><ele>213.0</ele><time>2026-05-01T10:53:48.999Z</time></trkpt><trkpt lat="45.8536588689883" lon="11.901589144248863"><ele>213.0</ele><time>2026-05-01T10:53:49.999Z</time></trkpt><trkpt lat="45.85367680286171" lon="11.901372813604981"><ele>213.33333333333331</ele><time>2026-05-01T10:53:50.999Z</time></trkpt><trkpt lat="45.853689538294276" lon="11.90115242849132"><ele>213.66666666666666</ele><time>2026-05-01T10:53:51.999Z</time></trkpt><trkpt lat="45.85369333638598" lon="11.900930259495116"><ele>214.0</ele><time>2026-05-01T10:53:52.999Z</time></trkpt><trkpt lat="45.853692218701866" lon="11.900704700699267"><ele>214.66666666666666</ele><time>2026-05-01T10:53:53.999Z</time></trkpt><trkpt lat="45.85368133283377" lon="11.900473768682872"><ele>215.33333333333331</ele><time>2026-05-01T10:53:54.999Z</time></trkpt><trkpt lat="45.853666368933254" lon="11.900237889313884"><ele>216.0</ele><time>2026-05-01T10:53:55.999Z</time></trkpt><trkpt lat="45.85364759330332" lon="11.899996810182651"><ele>216.0</ele><time>2026-05-01T10:53:56.999Z</time></trkpt><trkpt lat="45.85362105369932" lon="11.899757867150996"><ele>216.0</ele><time>2026-05-01T10:53:57.999Z</time></trkpt><trkpt lat="45.8535859094787" lon="11.899522142556835"><ele>216.0</ele><time>2026-05-01T10:53:58.999Z</time></trkpt><trkpt lat="45.85353784737785" lon="11.899288374966357"><ele>215.66666666666669</ele><time>2026-05-01T10:54:00Z</time></trkpt><trkpt lat="45.85348482623729" lon="11.899053063207841"><ele>215.33333333333334</ele><time>2026-05-01T10:54:01Z</time></trkpt><trkpt lat="45.85343306829178" lon="11.898820721290498"><ele>215.0</ele><time>2026-05-01T10:54:02Z</time></trkpt><trkpt lat="45.85338541978893" lon="11.898599215906625"><ele>215.0</ele><time>2026-05-01T10:54:03Z</time></trkpt><trkpt lat="45.853338767887145" lon="11.898388048624726"><ele>215.0</ele><time>2026-05-01T10:54:04Z</time></trkpt><trkpt lat="45.853288495337296" lon="11.898174658219352"><ele>215.0</ele><time>2026-05-01T10:54:05Z</time></trkpt><trkpt lat="45.85324104209331" lon="11.897957602345757"><ele>215.0</ele><time>2026-05-01T10:54:06Z</time></trkpt><trkpt lat="45.85319284839881" lon="11.897738225317564"><ele>215.0</ele><time>2026-05-01T10:54:07Z</time></trkpt><trkpt lat="45.85314229395959" lon="11.897514224752074"><ele>215.0</ele><time>2026-05-01T10:54:08Z</time></trkpt><trkpt lat="45.85308858597051" lon="11.897284798717731"><ele>216.0</ele><time>2026-05-01T10:54:09Z</time></trkpt><trkpt lat="45.85305501655045" lon="11.897040819647518"><ele>217.0</ele><time>2026-05-01T10:54:10Z</time></trkpt><trkpt lat="45.85299303794032" lon="11.896783501113083"><ele>218.0</ele><time>2026-05-01T10:54:11Z</time></trkpt><trkpt lat="45.852931433472655" lon="11.896514238683684"><ele>218.0</ele><time>2026-05-01T10:54:12Z</time></trkpt><trkpt lat="45.852855486997534" lon="11.896237066135258"><ele>218.0</ele><time>2026-05-01T10:54:13Z</time></trkpt><trkpt lat="45.852794317061246" lon="11.895945378978654"><ele>218.0</ele><time>2026-05-01T10:54:14Z</time></trkpt><trkpt lat="45.85272506097664" lon="11.895647371110963"><ele>218.0</ele><time>2026-05-01T10:54:15Z</time></trkpt><trkpt lat="45.85264658226747" lon="11.89533374599003"><ele>218.0</ele><time>2026-05-01T10:54:16Z</time></trkpt><trkpt lat="45.85256284200357" lon="11.895008238461205"><ele>218.5</ele><time>2026-05-01T10:54:17Z</time></trkpt><trkpt lat="45.85248628281574" lon="11.894639366798774"><ele>219.0</ele><time>2026-05-01T10:54:18Z</time></trkpt><trkpt lat="45.85241227877067" lon="11.894260055572351"><ele>219.0</ele><time>2026-05-01T10:54:19Z</time></trkpt><trkpt lat="45.85233425271928" lon="11.89388054651064"><ele>219.0</ele><time>2026-05-01T10:54:20Z</time></trkpt><trkpt lat="45.852254326465996" lon="11.89350918450355"><ele>218.5</ele><time>2026-05-01T10:54:21Z</time></trkpt><trkpt lat="45.85216899627208" lon="11.89314531843587"><ele>218.0</ele><time>2026-05-01T10:54:22Z</time></trkpt><trkpt lat="45.85207308845973" lon="11.892791912563101"><ele>217.5</ele><time>2026-05-01T10:54:23Z</time></trkpt><trkpt lat="45.851959845782325" lon="11.892455089911287"><ele>217.0</ele><time>2026-05-01T10:54:24Z</time></trkpt><trkpt lat="45.8518296865484" lon="11.89213362771863"><ele>218.5</ele><time>2026-05-01T10:54:25Z</time></trkpt><trkpt lat="45.85168304317415" lon="11.891827391649485"><ele>220.0</ele><time>2026-05-01T10:54:26Z</time></trkpt><trkpt lat="45.851541305177236" lon="11.891512112027643"><ele>220.0</ele><time>2026-05-01T10:54:27Z</time></trkpt><trkpt lat="45.851386062050366" lon="11.891213613923096"><ele>220.0</ele><time>2026-05-01T10:54:28Z</time></trkpt><trkpt lat="45.85123500101754" lon="11.890925010569172"><ele>220.0</ele><time>2026-05-01T10:54:29Z</time></trkpt><trkpt lat="45.85109032922805" lon="11.890648615766187"><ele>220.0</ele><time>2026-05-01T10:54:30Z</time></trkpt><trkpt lat="45.8509330347348" lon="11.890396679851431"><ele>222.0</ele><time>2026-05-01T10:54:31Z</time></trkpt><trkpt lat="45.85079106812248" lon="11.89012428056239"><ele>224.0</ele><time>2026-05-01T10:54:32Z</time></trkpt><trkpt lat="45.850652899696826" lon="11.889859952776812"><ele>224.33333333333334</ele><time>2026-05-01T10:54:33Z</time></trkpt><trkpt lat="45.85052177899694" lon="11.88961002656029"><ele>224.66666666666669</ele><time>2026-05-01T10:54:34Z</time></trkpt><trkpt lat="45.85041797218133" lon="11.889369612813855"><ele>225.0</ele><time>2026-05-01T10:54:35Z</time></trkpt><trkpt lat="45.850315718238896" lon="11.889171616240182"><ele>225.5</ele><time>2026-05-01T10:54:36Z</time></trkpt><trkpt lat="45.85022463285873" lon="11.88899314338633"><ele>226.0</ele><time>2026-05-01T10:54:37Z</time></trkpt><trkpt lat="45.850125434942164" lon="11.888850513248666"><ele>226.5</ele><time>2026-05-01T10:54:38Z</time></trkpt><trkpt lat="45.85004482425679" lon="11.888695537332794"><ele>227.0</ele><time>2026-05-01T10:54:39Z</time></trkpt><trkpt lat="45.84996553683773" lon="11.888534021615932"><ele>227.25</ele><time>2026-05-01T10:54:40Z</time></trkpt><trkpt lat="45.8498988957223" lon="11.888370149441798"><ele>227.5</ele><time>2026-05-01T10:54:41Z</time></trkpt><trkpt lat="45.849842416623105" lon="11.888207235463241"><ele>227.75</ele><time>2026-05-01T10:54:42Z</time></trkpt><trkpt lat="45.84979667149784" lon="11.888057331629954"><ele>228.0</ele><time>2026-05-01T10:54:43Z</time></trkpt><trkpt lat="45.849754831684706" lon="11.887929120718267"><ele>228.0</ele><time>2026-05-01T10:54:44Z</time></trkpt><trkpt lat="45.84971445631247" lon="11.887820503746582"><ele>228.0</ele><time>2026-05-01T10:54:45Z</time></trkpt><trkpt lat="45.849677981454505" lon="11.887716639304285"><ele>228.0</ele><time>2026-05-01T10:54:46Z</time></trkpt><trkpt lat="45.84964625482979" lon="11.887619831558109"><ele>228.0</ele><time>2026-05-01T10:54:47Z</time></trkpt><trkpt lat="45.84961792558034" lon="11.887535289478391"><ele>228.0</ele><time>2026-05-01T10:54:48Z</time></trkpt><trkpt lat="45.849590015089234" lon="11.887438402406167"><ele>228.0</ele><time>2026-05-01T10:54:49Z</time></trkpt><trkpt lat="45.849561490871004" lon="11.887332601383372"><ele>228.33333333333334</ele><time>2026-05-01T10:54:50Z</time></trkpt><trkpt lat="45.849532684766764" lon="11.887217721020095"><ele>228.66666666666669</ele><time>2026-05-01T10:54:51Z</time></trkpt><trkpt lat="45.84950627780016" lon="11.887112446801481"><ele>229.0</ele><time>2026-05-01T10:54:52Z</time></trkpt><trkpt lat="45.84948491045127" lon="11.887002780433836"><ele>229.33333333333334</ele><time>2026-05-01T10:54:53Z</time></trkpt><trkpt lat="45.849462794720495" lon="11.88689442601576"><ele>229.66666666666669</ele><time>2026-05-01T10:54:53.999Z</time></trkpt><trkpt lat="45.849431592308356" lon="11.886785548947506"><ele>230.0</ele><time>2026-05-01T10:54:54.999Z</time></trkpt><trkpt lat="45.84939954325689" lon="11.88666573805965"><ele>230.6</ele><time>2026-05-01T10:54:55.999Z</time></trkpt><trkpt lat="45.84936782180168" lon="11.88653916121294"><ele>231.2</ele><time>2026-05-01T10:54:56.999Z</time></trkpt><trkpt lat="45.84933728222158" lon="11.88640754327399"><ele>231.8</ele><time>2026-05-01T10:54:57.999Z</time></trkpt><trkpt lat="45.84929876190516" lon="11.886256802834787"><ele>232.4</ele><time>2026-05-01T10:54:58.999Z</time></trkpt><trkpt lat="45.849260711901245" lon="11.886097666665869"><ele>233.0</ele><time>2026-05-01T10:54:59.999Z</time></trkpt><trkpt lat="45.8492307026781" lon="11.885936548636076"><ele>233.25</ele><time>2026-05-01T10:55:00.999Z</time></trkpt><trkpt lat="45.84919575747263" lon="11.885769194300789"><ele>233.5</ele><time>2026-05-01T10:55:01.999Z</time></trkpt><trkpt lat="45.84914964073869" lon="11.88557615901284"><ele>233.75</ele><time>2026-05-01T10:55:02.999Z</time></trkpt><trkpt lat="45.84910619730335" lon="11.885375750739342"><ele>234.0</ele><time>2026-05-01T10:55:03.999Z</time></trkpt><trkpt lat="45.849062077793754" lon="11.885173433638428"><ele>234.0</ele><time>2026-05-01T10:55:04.999Z</time></trkpt><trkpt lat="45.8490123426369" lon="11.884962677235459"><ele>234.0</ele><time>2026-05-01T10:55:05.999Z</time></trkpt><trkpt lat="45.84896468361418" lon="11.884748030146547"><ele>234.0</ele><time>2026-05-01T10:55:06.999Z</time></trkpt><trkpt lat="45.84892103110366" lon="11.884541678370752"><ele>234.0</ele><time>2026-05-01T10:55:07.999Z</time></trkpt><trkpt lat="45.84887667052175" lon="11.884338861941492"><ele>234.0</ele><time>2026-05-01T10:55:08.999Z</time></trkpt><trkpt lat="45.848841329573006" lon="11.884146030416833"><ele>234.0</ele><time>2026-05-01T10:55:09.999Z</time></trkpt><trkpt lat="45.84881398221604" lon="11.88395430269352"><ele>234.0</ele><time>2026-05-01T10:55:10.999Z</time></trkpt><trkpt lat="45.84879249044294" lon="11.88376094996174"><ele>234.25</ele><time>2026-05-01T10:55:11.999Z</time></trkpt><trkpt lat="45.84877264906042" lon="11.883565929153544"><ele>234.5</ele><time>2026-05-01T10:55:12.999Z</time></trkpt><trkpt lat="45.848746754337625" lon="11.883358974696439"><ele>234.75</ele><time>2026-05-01T10:55:13.999Z</time></trkpt><trkpt lat="45.84872323679675" lon="11.883144961431952"><ele>235.0</ele><time>2026-05-01T10:55:14.999Z</time></trkpt><trkpt lat="45.848700662948715" lon="11.882927930284758"><ele>236.0</ele><time>2026-05-01T10:55:15.999Z</time></trkpt><trkpt lat="45.84867849579536" lon="11.882714813252141"><ele>237.0</ele><time>2026-05-01T10:55:16.999Z</time></trkpt><trkpt lat="45.84865613049489" lon="11.882499341717"><ele>238.0</ele><time>2026-05-01T10:55:17.999Z</time></trkpt><trkpt lat="45.84863307893019" lon="11.882288940121747"><ele>238.0</ele><time>2026-05-01T10:55:18.999Z</time></trkpt><trkpt lat="45.84861135477043" lon="11.882078323738655"><ele>238.0</ele><time>2026-05-01T10:55:19.999Z</time></trkpt><trkpt lat="45.848591488587196" lon="11.881869920064403"><ele>238.0</ele><time>2026-05-01T10:55:20.999Z</time></trkpt><trkpt lat="45.84857162999721" lon="11.881663068873895"><ele>238.0</ele><time>2026-05-01T10:55:21.999Z</time></trkpt><trkpt lat="45.848551745741574" lon="11.881476605783273"><ele>238.5</ele><time>2026-05-01T10:55:22.999Z</time></trkpt><trkpt lat="45.84853119795394" lon="11.881287085206006"><ele>239.0</ele><time>2026-05-01T10:55:23.999Z</time></trkpt><trkpt lat="45.84851129090613" lon="11.881102065855067"><ele>239.5</ele><time>2026-05-01T10:55:24.999Z</time></trkpt><trkpt lat="45.84849321389449" lon="11.880922881120245"><ele>240.0</ele><time>2026-05-01T10:55:25.999Z</time></trkpt><trkpt lat="45.84847554563858" lon="11.880744932471801"><ele>240.25</ele><time>2026-05-01T10:55:26.999Z</time></trkpt><trkpt lat="45.84845915364257" lon="11.880568455642571"><ele>240.5</ele><time>2026-05-01T10:55:27.999Z</time></trkpt><trkpt lat="45.84844343670573" lon="11.880394499754324"><ele>240.75</ele><time>2026-05-01T10:55:28.999Z</time></trkpt><trkpt lat="45.84842583245104" lon="11.880221617308491"><ele>241.0</ele><time>2026-05-01T10:55:29.999Z</time></trkpt><trkpt lat="45.84840667891456" lon="11.880046876933987"><ele>241.75</ele><time>2026-05-01T10:55:30.999Z</time></trkpt><trkpt lat="45.848384981399406" lon="11.879865661018295"><ele>242.5</ele><time>2026-05-01T10:55:31.999Z</time></trkpt><trkpt lat="45.848365371770825" lon="11.879681617814905"><ele>243.25</ele><time>2026-05-01T10:55:32.999Z</time></trkpt><trkpt lat="45.848347326908616" lon="11.879496348180988"><ele>244.0</ele><time>2026-05-01T10:55:33.999Z</time></trkpt><trkpt lat="45.84832814184398" lon="11.879306955246994"><ele>244.5</ele><time>2026-05-01T10:55:34.999Z</time></trkpt><trkpt lat="45.84830771548088" lon="11.879116591877256"><ele>245.0</ele><time>2026-05-01T10:55:35.999Z</time></trkpt><trkpt lat="45.848287710908004" lon="11.878920983123376"><ele>245.5</ele><time>2026-05-01T10:55:36.999Z</time></trkpt><trkpt lat="45.84826659723129" lon="11.878726048640518"><ele>246.0</ele><time>2026-05-01T10:55:37.999Z</time></trkpt><trkpt lat="45.84824531391793" lon="11.878528129083525"><ele>246.75</ele><time>2026-05-01T10:55:38.999Z</time></trkpt><trkpt lat="45.848226525817125" lon="11.878330197717494"><ele>247.5</ele><time>2026-05-01T10:55:39.999Z</time></trkpt><trkpt lat="45.84821094189439" lon="11.878135485567173"><ele>248.25</ele><time>2026-05-01T10:55:40.999Z</time></trkpt><trkpt lat="45.84819193871577" lon="11.877942029452003"><ele>249.0</ele><time>2026-05-01T10:55:41.999Z</time></trkpt><trkpt lat="45.84817839149534" lon="11.877748642572248"><ele>249.5</ele><time>2026-05-01T10:55:42.999Z</time></trkpt><trkpt lat="45.84818676288636" lon="11.877552286561071"><ele>250.0</ele><time>2026-05-01T10:55:43.999Z</time></trkpt><trkpt lat="45.8482304693301" lon="11.8773720957039"><ele>250.5</ele><time>2026-05-01T10:55:44.999Z</time></trkpt><trkpt lat="45.84830460581684" lon="11.87720422786793"><ele>251.0</ele><time>2026-05-01T10:55:45.999Z</time></trkpt><trkpt lat="45.848406770115396" lon="11.877042168193203"><ele>251.0</ele><time>2026-05-01T10:55:46.999Z</time></trkpt><trkpt lat="45.8485362411158" lon="11.876894136397672"><ele>251.0</ele><time>2026-05-01T10:55:47.999Z</time></trkpt><trkpt lat="45.848684513488905" lon="11.876767214042529"><ele>251.0</ele><time>2026-05-01T10:55:48.999Z</time></trkpt><trkpt lat="45.848829858874645" lon="11.876650497945484"><ele>251.0</ele><time>2026-05-01T10:55:49.999Z</time></trkpt><trkpt lat="45.84895175636454" lon="11.876544941028728"><ele>251.0</ele><time>2026-05-01T10:55:50.999Z</time></trkpt><trkpt lat="45.849063943913414" lon="11.876449521683828"><ele>251.0</ele><time>2026-05-01T10:55:51.999Z</time></trkpt><trkpt lat="45.84917775879284" lon="11.876358836898008"><ele>251.0</ele><time>2026-05-01T10:55:52.999Z</time></trkpt><trkpt lat="45.84929765835123" lon="11.876261503507356"><ele>252.25</ele><time>2026-05-01T10:55:53.999Z</time></trkpt><trkpt lat="45.849417061981036" lon="11.87616069099878"><ele>253.5</ele><time>2026-05-01T10:55:54.999Z</time></trkpt><trkpt lat="45.849528844804105" lon="11.876066811753683"><ele>254.75</ele><time>2026-05-01T10:55:55.999Z</time></trkpt><trkpt lat="45.84963797448845" lon="11.875982080597364"><ele>256.0</ele><time>2026-05-01T10:55:56.999Z</time></trkpt><trkpt lat="45.84974225626359" lon="11.875900067732315"><ele>256.5</ele><time>2026-05-01T10:55:57.999Z</time></trkpt><trkpt lat="45.84984525517706" lon="11.875812806291007"><ele>257.0</ele><time>2026-05-01T10:55:58.999Z</time></trkpt><trkpt lat="45.849951242006874" lon="11.875721496313222"><ele>257.5</ele><time>2026-05-01T10:55:59.999Z</time></trkpt><trkpt lat="45.85005908338295" lon="11.875631593545421"><ele>258.0</ele><time>2026-05-01T10:56:00.999Z</time></trkpt><trkpt lat="45.850169400389795" lon="11.875536202496571"><ele>258.75</ele><time>2026-05-01T10:56:01.999Z</time></trkpt><trkpt lat="45.85027770502965" lon="11.875437998870307"><ele>259.5</ele><time>2026-05-01T10:56:02.999Z</time></trkpt><trkpt lat="45.850383765304585" lon="11.875338564270436"><ele>260.25</ele><time>2026-05-01T10:56:03.999Z</time></trkpt><trkpt lat="45.850483876269074" lon="11.875230723879048"><ele>261.0</ele><time>2026-05-01T10:56:04.999Z</time></trkpt><trkpt lat="45.85056813700779" lon="11.875122936967053"><ele>261.40000000000003</ele><time>2026-05-01T10:56:06Z</time></trkpt><trkpt lat="45.85064209812912" lon="11.87502007309497"><ele>261.8</ele><time>2026-05-01T10:56:07Z</time></trkpt><trkpt lat="45.85071387072089" lon="11.87490625634996"><ele>262.20000000000005</ele><time>2026-05-01T10:56:08Z</time></trkpt><trkpt lat="45.85078341388983" lon="11.874785530550238"><ele>262.6</ele><time>2026-05-01T10:56:09Z</time></trkpt><trkpt lat="45.85085572394392" lon="11.874666643860031"><ele>263.0</ele><time>2026-05-01T10:56:10Z</time></trkpt><trkpt lat="45.85092519378311" lon="11.874552649694072"><ele>264.1666666666667</ele><time>2026-05-01T10:56:11Z</time></trkpt><trkpt lat="45.850985141033945" lon="11.874450621691874"><ele>265.33333333333337</ele><time>2026-05-01T10:56:12Z</time></trkpt><trkpt lat="45.851037113808594" lon="11.874363117460888"><ele>266.5</ele><time>2026-05-01T10:56:13Z</time></trkpt><trkpt lat="45.85108578859871" lon="11.874278019126239"><ele>267.6666666666667</ele><time>2026-05-01T10:56:14Z</time></trkpt><trkpt lat="45.851137731164144" lon="11.874188675839116"><ele>268.8333333333333</ele><time>2026-05-01T10:56:15Z</time></trkpt><trkpt lat="45.85118519562076" lon="11.874104795583296"><ele>270.0</ele><time>2026-05-01T10:56:16Z</time></trkpt><trkpt lat="45.85122859313488" lon="11.874008905458416"><ele>270.0</ele><time>2026-05-01T10:56:17Z</time></trkpt><trkpt lat="45.851263891660224" lon="11.873898018799629"><ele>270.0</ele><time>2026-05-01T10:56:18Z</time></trkpt><trkpt lat="45.85128316159548" lon="11.87377333373556"><ele>270.0</ele><time>2026-05-01T10:56:19Z</time></trkpt><trkpt lat="45.85128010986562" lon="11.87363828754369"><ele>270.0</ele><time>2026-05-01T10:56:20Z</time></trkpt><trkpt lat="45.8512609230584" lon="11.873505252707739"><ele>270.0</ele><time>2026-05-01T10:56:21Z</time></trkpt><trkpt lat="45.851216889814616" lon="11.873377434396128"><ele>270.0</ele><time>2026-05-01T10:56:22Z</time></trkpt><trkpt lat="45.8511662489825" lon="11.873251496211546"><ele>270.0</ele><time>2026-05-01T10:56:23Z</time></trkpt><trkpt lat="45.851112207907974" lon="11.873120410613618"><ele>270.0</ele><time>2026-05-01T10:56:24Z</time></trkpt><trkpt lat="45.85105434412814" lon="11.872984517120484"><ele>270.0</ele><time>2026-05-01T10:56:25Z</time></trkpt><trkpt lat="45.850994381828684" lon="11.872833015694336"><ele>270.0</ele><time>2026-05-01T10:56:26Z</time></trkpt><trkpt lat="45.85092641405789" lon="11.872678098933095"><ele>269.0</ele><time>2026-05-01T10:56:27Z</time></trkpt><trkpt lat="45.850855061101605" lon="11.872517320005684"><ele>268.0</ele><time>2026-05-01T10:56:28Z</time></trkpt><trkpt lat="45.85078401099074" lon="11.872357625751539"><ele>267.0</ele><time>2026-05-01T10:56:29Z</time></trkpt><trkpt lat="45.85069961788933" lon="11.872211056292864"><ele>266.0</ele><time>2026-05-01T10:56:30Z</time></trkpt><trkpt lat="45.85061150262054" lon="11.872071626608498"><ele>266.0</ele><time>2026-05-01T10:56:31Z</time></trkpt><trkpt lat="45.850515805094" lon="11.87194297997016"><ele>266.0</ele><time>2026-05-01T10:56:32Z</time></trkpt><trkpt lat="45.85041836664791" lon="11.871826558087374"><ele>266.0</ele><time>2026-05-01T10:56:33Z</time></trkpt><trkpt lat="45.85032094152799" lon="11.87172743683138"><ele>266.0</ele><time>2026-05-01T10:56:34Z</time></trkpt><trkpt lat="45.85022591167346" lon="11.871640274198496"><ele>266.0</ele><time>2026-05-01T10:56:35Z</time></trkpt><trkpt lat="45.85012911997129" lon="11.87155201984705"><ele>266.0</ele><time>2026-05-01T10:56:36Z</time></trkpt><trkpt lat="45.85003218603331" lon="11.871460658977707"><ele>266.0</ele><time>2026-05-01T10:56:37Z</time></trkpt><trkpt lat="45.84992628843564" lon="11.87137035184337"><ele>266.0</ele><time>2026-05-01T10:56:38Z</time></trkpt><trkpt lat="45.84981469489123" lon="11.871278385385235"><ele>266.0</ele><time>2026-05-01T10:56:39Z</time></trkpt><trkpt lat="45.849702171015956" lon="11.871176563618597"><ele>266.0</ele><time>2026-05-01T10:56:40Z</time></trkpt><trkpt lat="45.849590763014106" lon="11.871076977964755"><ele>266.0</ele><time>2026-05-01T10:56:41Z</time></trkpt><trkpt lat="45.84948079367852" lon="11.870980714582965"><ele>266.0</ele><time>2026-05-01T10:56:42Z</time></trkpt><trkpt lat="45.84937114554132" lon="11.870882814225462"><ele>265.25</ele><time>2026-05-01T10:56:43Z</time></trkpt><trkpt lat="45.84926144004052" lon="11.870782981043522"><ele>264.5</ele><time>2026-05-01T10:56:44Z</time></trkpt><trkpt lat="45.849150746526625" lon="11.87068228724773"><ele>263.75</ele><time>2026-05-01T10:56:45Z</time></trkpt><trkpt lat="45.849039521686386" lon="11.870582037918949"><ele>263.0</ele><time>2026-05-01T10:56:46Z</time></trkpt><trkpt lat="45.84892472065849" lon="11.8704792081632"><ele>263.0</ele><time>2026-05-01T10:56:47Z</time></trkpt><trkpt lat="45.848812246082424" lon="11.870376656116902"><ele>263.0</ele><time>2026-05-01T10:56:48Z</time></trkpt><trkpt lat="45.84870307482112" lon="11.870278889902526"><ele>263.0</ele><time>2026-05-01T10:56:49Z</time></trkpt><trkpt lat="45.848595262383526" lon="11.870185575292982"><ele>263.0</ele><time>2026-05-01T10:56:50Z</time></trkpt><trkpt lat="45.848487433106044" lon="11.870092782635801"><ele>261.75</ele><time>2026-05-01T10:56:51Z</time></trkpt><trkpt lat="45.84837947503581" lon="11.869997545845306"><ele>260.5</ele><time>2026-05-01T10:56:52Z</time></trkpt><trkpt lat="45.848271623383994" lon="11.869904491264863"><ele>259.25</ele><time>2026-05-01T10:56:53Z</time></trkpt><trkpt lat="45.84816643987598" lon="11.869813324040326"><ele>258.0</ele><time>2026-05-01T10:56:54Z</time></trkpt><trkpt lat="45.84806122316103" lon="11.86971860341714"><ele>258.0</ele><time>2026-05-01T10:56:55Z</time></trkpt><trkpt lat="45.84795588810481" lon="11.869624385635028"><ele>258.0</ele><time>2026-05-01T10:56:56Z</time></trkpt><trkpt lat="45.84785198515153" lon="11.869531579742741"><ele>258.0</ele><time>2026-05-01T10:56:57Z</time></trkpt><trkpt lat="45.84774700980052" lon="11.869440463071317"><ele>258.0</ele><time>2026-05-01T10:56:57.999Z</time></trkpt><trkpt lat="45.847641776968445" lon="11.86935051919784"><ele>259.25</ele><time>2026-05-01T10:56:58.999Z</time></trkpt><trkpt lat="45.847535735514526" lon="11.869258091003683"><ele>260.5</ele><time>2026-05-01T10:56:59.999Z</time></trkpt><trkpt lat="45.84742765467881" lon="11.869163214105727"><ele>261.75</ele><time>2026-05-01T10:57:00.999Z</time></trkpt><trkpt lat="45.84731997575538" lon="11.86906694561255"><ele>263.0</ele><time>2026-05-01T10:57:01.999Z</time></trkpt><trkpt lat="45.84721347674763" lon="11.868973668306523"><ele>263.0</ele><time>2026-05-01T10:57:02.999Z</time></trkpt><trkpt lat="45.8471076466262" lon="11.868883112601551"><ele>263.0</ele><time>2026-05-01T10:57:03.999Z</time></trkpt><trkpt lat="45.847007449725126" lon="11.868789930876256"><ele>263.0</ele><time>2026-05-01T10:57:04.999Z</time></trkpt><trkpt lat="45.84690715582999" lon="11.868696559698641"><ele>263.0</ele><time>2026-05-01T10:57:05.999Z</time></trkpt><trkpt lat="45.84680664698866" lon="11.868606925083318"><ele>263.5</ele><time>2026-05-01T10:57:06.999Z</time></trkpt><trkpt lat="45.84670444572273" lon="11.868517142921142"><ele>264.0</ele><time>2026-05-01T10:57:07.999Z</time></trkpt><trkpt lat="45.84660109362073" lon="11.868426718401423"><ele>264.5</ele><time>2026-05-01T10:57:08.999Z</time></trkpt><trkpt lat="45.8464979518099" lon="11.868337120683751"><ele>265.0</ele><time>2026-05-01T10:57:09.999Z</time></trkpt><trkpt lat="45.84639308306074" lon="11.868244532761896"><ele>265.0</ele><time>2026-05-01T10:57:10.999Z</time></trkpt><trkpt lat="45.8462855914589" lon="11.868148476575742"><ele>265.0</ele><time>2026-05-01T10:57:11.999Z</time></trkpt><trkpt lat="45.84617614278473" lon="11.868048522089964"><ele>265.0</ele><time>2026-05-01T10:57:12.999Z</time></trkpt><trkpt lat="45.846062946633765" lon="11.867943808580026"><ele>265.0</ele><time>2026-05-01T10:57:13.999Z</time></trkpt><trkpt lat="45.84595136168679" lon="11.86782575001952"><ele>265.0</ele><time>2026-05-01T10:57:14.999Z</time></trkpt><trkpt lat="45.8458471531998" lon="11.86769262317461"><ele>265.0</ele><time>2026-05-01T10:57:15.999Z</time></trkpt><trkpt lat="45.8457445596784" lon="11.86754331676754"><ele>265.0</ele><time>2026-05-01T10:57:16.999Z</time></trkpt><trkpt lat="45.845651460199775" lon="11.867378746980034"><ele>265.0</ele><time>2026-05-01T10:57:17.999Z</time></trkpt><trkpt lat="45.84557398197211" lon="11.867204117858845"><ele>265.25</ele><time>2026-05-01T10:57:18.999Z</time></trkpt><trkpt lat="45.8455094280449" lon="11.867026618943473"><ele>265.5</ele><time>2026-05-01T10:57:19.999Z</time></trkpt><trkpt lat="45.84544903686958" lon="11.86685090918173"><ele>265.75</ele><time>2026-05-01T10:57:20.999Z</time></trkpt><trkpt lat="45.845399235210095" lon="11.866674357335068"><ele>266.0</ele><time>2026-05-01T10:57:21.999Z</time></trkpt><trkpt lat="45.84536335783685" lon="11.866492468065404"><ele>266.75</ele><time>2026-05-01T10:57:22.999Z</time></trkpt><trkpt lat="45.845334037905026" lon="11.866295772819853"><ele>267.5</ele><time>2026-05-01T10:57:23.999Z</time></trkpt><trkpt lat="45.84530509633999" lon="11.866105658549278"><ele>268.25</ele><time>2026-05-01T10:57:24.999Z</time></trkpt><trkpt lat="45.84528531551348" lon="11.865891532398365"><ele>269.0</ele><time>2026-05-01T10:57:25.999Z</time></trkpt><trkpt lat="45.84526884284205" lon="11.865682379531238"><ele>269.0</ele><time>2026-05-01T10:57:26.999Z</time></trkpt><trkpt lat="45.84524780141609" lon="11.865501783504522"><ele>269.0</ele><time>2026-05-01T10:57:27.999Z</time></trkpt><trkpt lat="45.84523224930428" lon="11.865328500071172"><ele>269.0</ele><time>2026-05-01T10:57:28.999Z</time></trkpt><trkpt lat="45.84521825781066" lon="11.865157850994612"><ele>269.0</ele><time>2026-05-01T10:57:29.999Z</time></trkpt><trkpt lat="45.8452010256623" lon="11.864977231723904"><ele>269.5</ele><time>2026-05-01T10:57:30.999Z</time></trkpt><trkpt lat="45.84518375220612" lon="11.864798078709887"><ele>270.0</ele><time>2026-05-01T10:57:31.999Z</time></trkpt><trkpt lat="45.84516571792161" lon="11.864623525084113"><ele>270.5</ele><time>2026-05-01T10:57:32.999Z</time></trkpt><trkpt lat="45.84514983329477" lon="11.864444577190898"><ele>271.0</ele><time>2026-05-01T10:57:33.999Z</time></trkpt><trkpt lat="45.84513314117854" lon="11.864264200239418"><ele>274.75</ele><time>2026-05-01T10:57:34.999Z</time></trkpt><trkpt lat="45.84511710716004" lon="11.86409309981915"><ele>278.5</ele><time>2026-05-01T10:57:35.999Z</time></trkpt><trkpt lat="45.84510438985663" lon="11.863925644940673"><ele>282.25</ele><time>2026-05-01T10:57:36.999Z</time></trkpt><trkpt lat="45.8450895612078" lon="11.863760624422317"><ele>286.0</ele><time>2026-05-01T10:57:37.999Z</time></trkpt><trkpt lat="45.84507336837192" lon="11.863593313616478"><ele>287.75</ele><time>2026-05-01T10:57:38.999Z</time></trkpt><trkpt lat="45.84505884984909" lon="11.863423876651586"><ele>289.5</ele><time>2026-05-01T10:57:39.999Z</time></trkpt><trkpt lat="45.845042486248246" lon="11.863251864682585"><ele>291.25</ele><time>2026-05-01T10:57:40.999Z</time></trkpt><trkpt lat="45.84502244050906" lon="11.863079237523467"><ele>293.0</ele><time>2026-05-01T10:57:41.999Z</time></trkpt><trkpt lat="45.84499744442372" lon="11.862905072946283"><ele>293.0</ele><time>2026-05-01T10:57:42.999Z</time></trkpt><trkpt lat="45.84497453607942" lon="11.862733816664822"><ele>293.0</ele><time>2026-05-01T10:57:43.999Z</time></trkpt><trkpt lat="45.84495583064139" lon="11.862566403061287"><ele>293.0</ele><time>2026-05-01T10:57:44.999Z</time></trkpt><trkpt lat="45.8449405938358" lon="11.862398292663986"><ele>293.0</ele><time>2026-05-01T10:57:45.999Z</time></trkpt><trkpt lat="45.84494080889868" lon="11.862232293551681"><ele>295.75</ele><time>2026-05-01T10:57:46.999Z</time></trkpt><trkpt lat="45.84494531679646" lon="11.862058798632702"><ele>298.5</ele><time>2026-05-01T10:57:47.999Z</time></trkpt><trkpt lat="45.84495030609381" lon="11.861881745989129"><ele>301.25</ele><time>2026-05-01T10:57:48.999Z</time></trkpt><trkpt lat="45.84495396625874" lon="11.861711758195096"><ele>304.0</ele><time>2026-05-01T10:57:49.999Z</time></trkpt><trkpt lat="45.84495886604846" lon="11.861548160663139"><ele>304.4</ele><time>2026-05-01T10:57:50.999Z</time></trkpt><trkpt lat="45.844969559329414" lon="11.861398425931664"><ele>304.79999999999995</ele><time>2026-05-01T10:57:51.999Z</time></trkpt><trkpt lat="45.844991139739264" lon="11.861254234483871"><ele>305.20000000000005</ele><time>2026-05-01T10:57:52.999Z</time></trkpt><trkpt lat="45.84502899315607" lon="11.86112182424732"><ele>305.6</ele><time>2026-05-01T10:57:53.999Z</time></trkpt><trkpt lat="45.84508698517982" lon="11.860995459665896"><ele>306.0</ele><time>2026-05-01T10:57:54.999Z</time></trkpt><trkpt lat="45.845154946499584" lon="11.860872166193749"><ele>310.8</ele><time>2026-05-01T10:57:55.999Z</time></trkpt><trkpt lat="45.84521578985146" lon="11.86075538022745"><ele>315.6</ele><time>2026-05-01T10:57:56.999Z</time></trkpt><trkpt lat="45.845273731058384" lon="11.860645038092883"><ele>320.4</ele><time>2026-05-01T10:57:57.999Z</time></trkpt><trkpt lat="45.84532797642591" lon="11.860537382944761"><ele>325.2</ele><time>2026-05-01T10:57:58.999Z</time></trkpt><trkpt lat="45.84538265519416" lon="11.860430941816029"><ele>330.0</ele><time>2026-05-01T10:57:59.999Z</time></trkpt><trkpt lat="45.845431437697286" lon="11.860321083148532"><ele>330.0</ele><time>2026-05-01T10:58:00.999Z</time></trkpt><trkpt lat="45.84546499077673" lon="11.860202455188904"><ele>330.0</ele><time>2026-05-01T10:58:01.999Z</time></trkpt><trkpt lat="45.84547088772929" lon="11.860076600841257"><ele>330.0</ele><time>2026-05-01T10:58:02.999Z</time></trkpt><trkpt lat="45.84544853506567" lon="11.859948470815675"><ele>330.0</ele><time>2026-05-01T10:58:03.999Z</time></trkpt><trkpt lat="45.845391965177654" lon="11.859837152962964"><ele>330.0</ele><time>2026-05-01T10:58:04.999Z</time></trkpt><trkpt lat="45.845306767138844" lon="11.85975126151017"><ele>330.2</ele><time>2026-05-01T10:58:05.999Z</time></trkpt><trkpt lat="45.84520472451229" lon="11.85967676644954"><ele>330.4</ele><time>2026-05-01T10:58:06.999Z</time></trkpt><trkpt lat="45.845103089936856" lon="11.859599214233855"><ele>330.6</ele><time>2026-05-01T10:58:07.999Z</time></trkpt><trkpt lat="45.845014705832945" lon="11.85952607397263"><ele>330.8</ele><time>2026-05-01T10:58:08.999Z</time></trkpt><trkpt lat="45.8449306345024" lon="11.859453683597605"><ele>331.0</ele><time>2026-05-01T10:58:09.999Z</time></trkpt><trkpt lat="45.844843435161664" lon="11.859389657531716"><ele>330.6</ele><time>2026-05-01T10:58:10.999Z</time></trkpt><trkpt lat="45.844754281877165" lon="11.859318914362323"><ele>330.20000000000005</ele><time>2026-05-01T10:58:12Z</time></trkpt><trkpt lat="45.84466720136414" lon="11.85924507284944"><ele>329.79999999999995</ele><time>2026-05-01T10:58:13Z</time></trkpt><trkpt lat="45.84458524247765" lon="11.859178434097853"><ele>329.4</ele><time>2026-05-01T10:58:14Z</time></trkpt><trkpt lat="45.84450830653839" lon="11.859131675988433"><ele>329.0</ele><time>2026-05-01T10:58:15Z</time></trkpt><trkpt lat="45.84442155986745" lon="11.859126711643453"><ele>329.0</ele><time>2026-05-01T10:58:16Z</time></trkpt><trkpt lat="45.84432758705177" lon="11.859179343864307"><ele>329.0</ele><time>2026-05-01T10:58:17Z</time></trkpt><trkpt lat="45.84424367394507" lon="11.85926766991429"><ele>329.0</ele><time>2026-05-01T10:58:18Z</time></trkpt><trkpt lat="45.84417634942689" lon="11.859378153994177"><ele>329.0</ele><time>2026-05-01T10:58:19Z</time></trkpt><trkpt lat="45.8441292079606" lon="11.85950127740846"><ele>329.0</ele><time>2026-05-01T10:58:20Z</time></trkpt><trkpt lat="45.844079175737406" lon="11.859631512192164"><ele>327.79999999999995</ele><time>2026-05-01T10:58:21Z</time></trkpt><trkpt lat="45.84404193649809" lon="11.85976701200534"><ele>326.59999999999997</ele><time>2026-05-01T10:58:22Z</time></trkpt><trkpt lat="45.84401503372668" lon="11.859904788567501"><ele>325.4</ele><time>2026-05-01T10:58:23Z</time></trkpt><trkpt lat="45.844021833952326" lon="11.860054009631215"><ele>324.2</ele><time>2026-05-01T10:58:24Z</time></trkpt><trkpt lat="45.84405607398016" lon="11.860214848865608"><ele>323.0</ele><time>2026-05-01T10:58:25Z</time></trkpt><trkpt lat="45.844079817306934" lon="11.860381884949524"><ele>322.59999999999997</ele><time>2026-05-01T10:58:26Z</time></trkpt><trkpt lat="45.844099985423156" lon="11.860534111912123"><ele>322.2</ele><time>2026-05-01T10:58:27Z</time></trkpt><trkpt lat="45.84410629405092" lon="11.860671814665878"><ele>321.8</ele><time>2026-05-01T10:58:28Z</time></trkpt><trkpt lat="45.84409565834839" lon="11.860804648195696"><ele>321.4</ele><time>2026-05-01T10:58:29Z</time></trkpt><trkpt lat="45.844051007454546" lon="11.860917379170182"><ele>321.0</ele><time>2026-05-01T10:58:30Z</time></trkpt><trkpt lat="45.84401260722738" lon="11.861043689588127"><ele>319.25</ele><time>2026-05-01T10:58:31Z</time></trkpt><trkpt lat="45.84393604803541" lon="11.861160881384707"><ele>317.5</ele><time>2026-05-01T10:58:32Z</time></trkpt><trkpt lat="45.843816999105115" lon="11.861218132437875"><ele>315.75</ele><time>2026-05-01T10:58:33Z</time></trkpt><trkpt lat="45.84369995140445" lon="11.861246767136958"><ele>314.0</ele><time>2026-05-01T10:58:34Z</time></trkpt><trkpt lat="45.84358086362401" lon="11.861239429741975"><ele>314.0</ele><time>2026-05-01T10:58:35Z</time></trkpt><trkpt lat="45.843464452970586" lon="11.861211989022836"><ele>314.0</ele><time>2026-05-01T10:58:36Z</time></trkpt><trkpt lat="45.843369702595254" lon="11.861122112066255"><ele>314.0</ele><time>2026-05-01T10:58:37Z</time></trkpt><trkpt lat="45.8432915336105" lon="11.861004537811278"><ele>314.0</ele><time>2026-05-01T10:58:38Z</time></trkpt><trkpt lat="45.843222829926006" lon="11.860870618131464"><ele>317.5</ele><time>2026-05-01T10:58:39Z</time></trkpt><trkpt lat="45.84316148864948" lon="11.860710287025208"><ele>321.0</ele><time>2026-05-01T10:58:40Z</time></trkpt><trkpt lat="45.84309261855238" lon="11.860548739461203"><ele>324.5</ele><time>2026-05-01T10:58:41Z</time></trkpt><trkpt lat="45.84302660703885" lon="11.860393866727751"><ele>328.0</ele><time>2026-05-01T10:58:42Z</time></trkpt><trkpt lat="45.842966929790734" lon="11.860253644005494"><ele>328.0</ele><time>2026-05-01T10:58:43Z</time></trkpt><trkpt lat="45.842896618491444" lon="11.860130271496322"><ele>328.0</ele><time>2026-05-01T10:58:44Z</time></trkpt><trkpt lat="45.84283732099712" lon="11.85999128949832"><ele>328.0</ele><time>2026-05-01T10:58:45Z</time></trkpt><trkpt lat="45.84279324909951" lon="11.8598390400907"><ele>328.0</ele><time>2026-05-01T10:58:46Z</time></trkpt><trkpt lat="45.84273646339047" lon="11.85970122330526"><ele>328.79999999999995</ele><time>2026-05-01T10:58:47Z</time></trkpt><trkpt lat="45.84267970144801" lon="11.859566645034127"><ele>329.6</ele><time>2026-05-01T10:58:48Z</time></trkpt><trkpt lat="45.84260894067338" lon="11.859446032067424"><ele>330.4</ele><time>2026-05-01T10:58:49Z</time></trkpt><trkpt lat="45.842554666881405" lon="11.85931298276635"><ele>331.20000000000005</ele><time>2026-05-01T10:58:50Z</time></trkpt><trkpt lat="45.84251391406925" lon="11.859175111491954"><ele>332.0</ele><time>2026-05-01T10:58:51Z</time></trkpt><trkpt lat="45.84245035656316" lon="11.859077022077283"><ele>332.20000000000005</ele><time>2026-05-01T10:58:52Z</time></trkpt><trkpt lat="45.842404143637886" lon="11.858974419109092"><ele>332.4</ele><time>2026-05-01T10:58:53Z</time></trkpt><trkpt lat="45.84234599108986" lon="11.858873673459366"><ele>332.6</ele><time>2026-05-01T10:58:54Z</time></trkpt><trkpt lat="45.84225260610798" lon="11.858821703503182"><ele>332.79999999999995</ele><time>2026-05-01T10:58:55Z</time></trkpt><trkpt lat="45.84214833889193" lon="11.858879716262873"><ele>333.0</ele><time>2026-05-01T10:58:56Z</time></trkpt><trkpt lat="45.842052958688114" lon="11.85893674181826"><ele>333.0</ele><time>2026-05-01T10:58:57Z</time></trkpt><trkpt lat="45.841952187327536" lon="11.858998726436639"><ele>333.0</ele><time>2026-05-01T10:58:58Z</time></trkpt><trkpt lat="45.84185077303457" lon="11.859057247544957"><ele>333.0</ele><time>2026-05-01T10:58:59Z</time></trkpt><trkpt lat="45.841753266105286" lon="11.859101523251978"><ele>333.0</ele><time>2026-05-01T10:59:00Z</time></trkpt><trkpt lat="45.84165233468628" lon="11.859134624333569"><ele>333.0</ele><time>2026-05-01T10:59:01Z</time></trkpt><trkpt lat="45.84154333397038" lon="11.859160744535794"><ele>334.0</ele><time>2026-05-01T10:59:02Z</time></trkpt><trkpt lat="45.84142488004137" lon="11.859169575932118"><ele>335.0</ele><time>2026-05-01T10:59:02.999Z</time></trkpt><trkpt lat="45.84130254892132" lon="11.85915460757323"><ele>336.0</ele><time>2026-05-01T10:59:03.999Z</time></trkpt><trkpt lat="45.841171393790155" lon="11.859117226438487"><ele>337.0</ele><time>2026-05-01T10:59:04.999Z</time></trkpt><trkpt lat="45.841049979845586" lon="11.859037893167175"><ele>337.0</ele><time>2026-05-01T10:59:05.999Z</time></trkpt><trkpt lat="45.84092248954722" lon="11.858964262242038"><ele>337.0</ele><time>2026-05-01T10:59:06.999Z</time></trkpt><trkpt lat="45.8407968044687" lon="11.858891559882485"><ele>337.0</ele><time>2026-05-01T10:59:07.999Z</time></trkpt><trkpt lat="45.84066760695343" lon="11.858815230649492"><ele>337.0</ele><time>2026-05-01T10:59:08.999Z</time></trkpt><trkpt lat="45.84053296774959" lon="11.858736184296802"><ele>337.0</ele><time>2026-05-01T10:59:09.999Z</time></trkpt><trkpt lat="45.84039502413041" lon="11.858655202801911"><ele>337.0</ele><time>2026-05-01T10:59:10.999Z</time></trkpt><trkpt lat="45.84025522054978" lon="11.858573129222975"><ele>337.0</ele><time>2026-05-01T10:59:11.999Z</time></trkpt><trkpt lat="45.84011726132362" lon="11.85849230652113"><ele>337.0</ele><time>2026-05-01T10:59:12.999Z</time></trkpt><trkpt lat="45.83997307287662" lon="11.858407834568768"><ele>337.0</ele><time>2026-05-01T10:59:13.999Z</time></trkpt><trkpt lat="45.83981343831743" lon="11.858314177218642"><ele>337.0</ele><time>2026-05-01T10:59:14.999Z</time></trkpt><trkpt lat="45.839645402687786" lon="11.85821557810453"><ele>337.0</ele><time>2026-05-01T10:59:15.999Z</time></trkpt><trkpt lat="45.839468559443816" lon="11.85811180813986"><ele>336.66666666666663</ele><time>2026-05-01T10:59:16.999Z</time></trkpt><trkpt lat="45.83928496003276" lon="11.858005797521225"><ele>336.3333333333333</ele><time>2026-05-01T10:59:17.999Z</time></trkpt><trkpt lat="45.83910388127052" lon="11.857901242348058"><ele>336.0</ele><time>2026-05-01T10:59:18.999Z</time></trkpt><trkpt lat="45.838923181176646" lon="11.85779607238023"><ele>336.0</ele><time>2026-05-01T10:59:19.999Z</time></trkpt><trkpt lat="45.83874323305594" lon="11.857691123269287"><ele>336.0</ele><time>2026-05-01T10:59:20.999Z</time></trkpt><trkpt lat="45.83856101602107" lon="11.857610640204866"><ele>336.0</ele><time>2026-05-01T10:59:21.999Z</time></trkpt><trkpt lat="45.83839650675907" lon="11.857513494108941"><ele>335.6666666666667</ele><time>2026-05-01T10:59:22.999Z</time></trkpt><trkpt lat="45.83824615095728" lon="11.85742446446198"><ele>335.33333333333337</ele><time>2026-05-01T10:59:23.999Z</time></trkpt><trkpt lat="45.8380957793177" lon="11.857335159868832"><ele>335.0</ele><time>2026-05-01T10:59:24.999Z</time></trkpt><trkpt lat="45.83794587946541" lon="11.857243128885216"><ele>335.0</ele><time>2026-05-01T10:59:25.999Z</time></trkpt><trkpt lat="45.837803154192315" lon="11.857128771310746"><ele>335.0</ele><time>2026-05-01T10:59:26.999Z</time></trkpt><trkpt lat="45.837673174698566" lon="11.85698640819028"><ele>335.0</ele><time>2026-05-01T10:59:27.999Z</time></trkpt><trkpt lat="45.83755039635409" lon="11.856831260811182"><ele>335.0</ele><time>2026-05-01T10:59:28.999Z</time></trkpt><trkpt lat="45.8374367459232" lon="11.856668781838817"><ele>335.0</ele><time>2026-05-01T10:59:29.999Z</time></trkpt><trkpt lat="45.837332350022734" lon="11.856498435456043"><ele>335.0</ele><time>2026-05-01T10:59:30.999Z</time></trkpt><trkpt lat="45.83723760757195" lon="11.856314907522227"><ele>335.0</ele><time>2026-05-01T10:59:31.999Z</time></trkpt><trkpt lat="45.83715478723458" lon="11.856117454738225"><ele>335.0</ele><time>2026-05-01T10:59:32.999Z</time></trkpt><trkpt lat="45.83708760079562" lon="11.855906405694318"><ele>335.0</ele><time>2026-05-01T10:59:33.999Z</time></trkpt><trkpt lat="45.83702283518434" lon="11.855691657559602"><ele>336.0</ele><time>2026-05-01T10:59:34.999Z</time></trkpt><trkpt lat="45.836952101450166" lon="11.855477074614685"><ele>337.0</ele><time>2026-05-01T10:59:35.999Z</time></trkpt><trkpt lat="45.83688038711673" lon="11.855258092756372"><ele>338.0</ele><time>2026-05-01T10:59:36.999Z</time></trkpt><trkpt lat="45.836811981923326" lon="11.85503943327538"><ele>337.0</ele><time>2026-05-01T10:59:37.999Z</time></trkpt><trkpt lat="45.836744078439516" lon="11.854823607865052"><ele>336.0</ele><time>2026-05-01T10:59:38.999Z</time></trkpt><trkpt lat="45.83667839817119" lon="11.854609015815882"><ele>335.0</ele><time>2026-05-01T10:59:39.999Z</time></trkpt><trkpt lat="45.83661361921663" lon="11.854401813992675"><ele>336.6666666666667</ele><time>2026-05-01T10:59:40.999Z</time></trkpt><trkpt lat="45.83654654919783" lon="11.854196177977762"><ele>338.3333333333333</ele><time>2026-05-01T10:59:41.999Z</time></trkpt><trkpt lat="45.836481679090795" lon="11.853986712709577"><ele>340.0</ele><time>2026-05-01T10:59:42.999Z</time></trkpt><trkpt lat="45.83641550105351" lon="11.853776340303087"><ele>340.0</ele><time>2026-05-01T10:59:43.999Z</time></trkpt><trkpt lat="45.83634991223883" lon="11.853568382946216"><ele>340.0</ele><time>2026-05-01T10:59:44.999Z</time></trkpt><trkpt lat="45.83628462767922" lon="11.853360798864198"><ele>340.0</ele><time>2026-05-01T10:59:45.999Z</time></trkpt><trkpt lat="45.83621753918578" lon="11.853150196932642"><ele>340.3333333333333</ele><time>2026-05-01T10:59:46.999Z</time></trkpt><trkpt lat="45.83615049469292" lon="11.852939901061115"><ele>340.6666666666667</ele><time>2026-05-01T10:59:47.999Z</time></trkpt><trkpt lat="45.8360841973693" lon="11.852729128917812"><ele>341.0</ele><time>2026-05-01T10:59:48.999Z</time></trkpt><trkpt lat="45.8360180530896" lon="11.852519138147482"><ele>339.6666666666667</ele><time>2026-05-01T10:59:49.999Z</time></trkpt><trkpt lat="45.83595385774558" lon="11.852304645687644"><ele>338.3333333333333</ele><time>2026-05-01T10:59:50.999Z</time></trkpt><trkpt lat="45.83589550236906" lon="11.852086729141588"><ele>337.0</ele><time>2026-05-01T10:59:51.999Z</time></trkpt><trkpt lat="45.835844535565954" lon="11.851864092749087"><ele>337.0</ele><time>2026-05-01T10:59:52.999Z</time></trkpt><trkpt lat="45.83579876670597" lon="11.851632759418615"><ele>337.0</ele><time>2026-05-01T10:59:53.999Z</time></trkpt><trkpt lat="45.83575850543716" lon="11.851395113921114"><ele>337.0</ele><time>2026-05-01T10:59:54.999Z</time></trkpt><trkpt lat="45.83572026937193" lon="11.851151708652846"><ele>337.3333333333333</ele><time>2026-05-01T10:59:55.999Z</time></trkpt><trkpt lat="45.83568167865631" lon="11.850905058043379"><ele>337.6666666666667</ele><time>2026-05-01T10:59:56.999Z</time></trkpt><trkpt lat="45.83564085264295" lon="11.850655738801704"><ele>338.0</ele><time>2026-05-01T10:59:57.999Z</time></trkpt><trkpt lat="45.83559914176864" lon="11.850402896943796"><ele>338.0</ele><time>2026-05-01T10:59:58.999Z</time></trkpt><trkpt lat="45.835556347402395" lon="11.850151218442107"><ele>338.0</ele><time>2026-05-01T10:59:59.999Z</time></trkpt><trkpt lat="45.835513228480615" lon="11.849901236301413"><ele>338.0</ele><time>2026-05-01T11:00:00.999Z</time></trkpt><trkpt lat="45.8354723555884" lon="11.849655040683787"><ele>338.33333333333337</ele><time>2026-05-01T11:00:01.999Z</time></trkpt><trkpt lat="45.83543235514883" lon="11.849415458716736"><ele>338.6666666666667</ele><time>2026-05-01T11:00:02.999Z</time></trkpt><trkpt lat="45.835389118009445" lon="11.849182259766907"><ele>339.0</ele><time>2026-05-01T11:00:03.999Z</time></trkpt><trkpt lat="45.83532975944237" lon="11.848956413546562"><ele>339.0</ele><time>2026-05-01T11:00:04.999Z</time></trkpt><trkpt lat="45.83525041136819" lon="11.84874008688605"><ele>339.0</ele><time>2026-05-01T11:00:05.999Z</time></trkpt><trkpt lat="45.835148884205545" lon="11.84853828713539"><ele>339.0</ele><time>2026-05-01T11:00:06.999Z</time></trkpt><trkpt lat="45.83502676986952" lon="11.848353884785148"><ele>337.3333333333333</ele><time>2026-05-01T11:00:07.999Z</time></trkpt><trkpt lat="45.83488724258435" lon="11.848191854752748"><ele>335.66666666666663</ele><time>2026-05-01T11:00:08.999Z</time></trkpt><trkpt lat="45.83472739771644" lon="11.848059284750681"><ele>334.0</ele><time>2026-05-01T11:00:09.999Z</time></trkpt><trkpt lat="45.83455922187195" lon="11.847938561207911"><ele>334.0</ele><time>2026-05-01T11:00:10.999Z</time></trkpt><trkpt lat="45.83439519077329" lon="11.847825240176661"><ele>334.0</ele><time>2026-05-01T11:00:11.999Z</time></trkpt><trkpt lat="45.834235339418946" lon="11.84771220828367"><ele>334.0</ele><time>2026-05-01T11:00:12.999Z</time></trkpt><trkpt lat="45.83407793364437" lon="11.847596471814882"><ele>333.3333333333333</ele><time>2026-05-01T11:00:13.999Z</time></trkpt><trkpt lat="45.83392504247206" lon="11.847474829422442"><ele>332.6666666666667</ele><time>2026-05-01T11:00:14.999Z</time></trkpt><trkpt lat="45.83377857241091" lon="11.84734176613774"><ele>332.0</ele><time>2026-05-01T11:00:15.999Z</time></trkpt><trkpt lat="45.833637576611224" lon="11.84718879226441"><ele>332.0</ele><time>2026-05-01T11:00:16.999Z</time></trkpt><trkpt lat="45.83350196912494" lon="11.847013703727795"><ele>332.0</ele><time>2026-05-01T11:00:18Z</time></trkpt><trkpt lat="45.83337529166095" lon="11.846831874979246"><ele>332.0</ele><time>2026-05-01T11:00:19Z</time></trkpt><trkpt lat="45.833252895518484" lon="11.846662442338761"><ele>330.25</ele><time>2026-05-01T11:00:20Z</time></trkpt><trkpt lat="45.83313946120169" lon="11.84651211482704"><ele>328.5</ele><time>2026-05-01T11:00:21Z</time></trkpt><trkpt lat="45.833035559923985" lon="11.846369639386822"><ele>326.75</ele><time>2026-05-01T11:00:22Z</time></trkpt><trkpt lat="45.83293533868902" lon="11.846232870552102"><ele>325.0</ele><time>2026-05-01T11:00:23Z</time></trkpt><trkpt lat="45.832846182169924" lon="11.846100478947216"><ele>324.25</ele><time>2026-05-01T11:00:24Z</time></trkpt><trkpt lat="45.832772021282" lon="11.84594780781701"><ele>323.5</ele><time>2026-05-01T11:00:25Z</time></trkpt><trkpt lat="45.83272050581852" lon="11.84576315231297"><ele>322.75</ele><time>2026-05-01T11:00:26Z</time></trkpt><trkpt lat="45.83270202411749" lon="11.845554544734384"><ele>322.0</ele><time>2026-05-01T11:00:27Z</time></trkpt><trkpt lat="45.83272096785034" lon="11.845330130201853"><ele>321.3333333333333</ele><time>2026-05-01T11:00:28Z</time></trkpt><trkpt lat="45.83278139918094" lon="11.845102437391443"><ele>320.6666666666667</ele><time>2026-05-01T11:00:29Z</time></trkpt><trkpt lat="45.832865464061484" lon="11.844888107759484"><ele>320.0</ele><time>2026-05-01T11:00:30Z</time></trkpt><trkpt lat="45.83295041932125" lon="11.844688821202286"><ele>320.0</ele><time>2026-05-01T11:00:31Z</time></trkpt><trkpt lat="45.83303916163523" lon="11.844492970768501"><ele>320.0</ele><time>2026-05-01T11:00:32Z</time></trkpt><trkpt lat="45.833120024436475" lon="11.844298574171097"><ele>320.0</ele><time>2026-05-01T11:00:33Z</time></trkpt><trkpt lat="45.833199529950356" lon="11.844103006815013"><ele>319.6666666666667</ele><time>2026-05-01T11:00:34Z</time></trkpt><trkpt lat="45.83328310103971" lon="11.843906649078352"><ele>319.3333333333333</ele><time>2026-05-01T11:00:35Z</time></trkpt><trkpt lat="45.83336843916837" lon="11.84370722155549"><ele>319.0</ele><time>2026-05-01T11:00:36Z</time></trkpt><trkpt lat="45.8334544751201" lon="11.84350687475537"><ele>320.25</ele><time>2026-05-01T11:00:37Z</time></trkpt><trkpt lat="45.83353499230284" lon="11.843326784176707"><ele>321.5</ele><time>2026-05-01T11:00:38Z</time></trkpt><trkpt lat="45.83360556304635" lon="11.843168671711794"><ele>322.75</ele><time>2026-05-01T11:00:39Z</time></trkpt><trkpt lat="45.83366889430422" lon="11.843028580911783"><ele>324.0</ele><time>2026-05-01T11:00:40Z</time></trkpt><trkpt lat="45.83372167893365" lon="11.842902955436472"><ele>324.0</ele><time>2026-05-01T11:00:41Z</time></trkpt><trkpt lat="45.83375872996246" lon="11.84278360802548"><ele>324.0</ele><time>2026-05-01T11:00:42Z</time></trkpt><trkpt lat="45.83375295944761" lon="11.842658161602474"><ele>324.0</ele><time>2026-05-01T11:00:43Z</time></trkpt><trkpt lat="45.833696772937905" lon="11.842540199663201"><ele>324.0</ele><time>2026-05-01T11:00:44Z</time></trkpt><trkpt lat="45.833592847792275" lon="11.842442442756273"><ele>324.0</ele><time>2026-05-01T11:00:45Z</time></trkpt><trkpt lat="45.83345249629568" lon="11.842389761773909"><ele>322.3333333333333</ele><time>2026-05-01T11:00:46Z</time></trkpt><trkpt lat="45.833287439425426" lon="11.842313767881645"><ele>320.66666666666663</ele><time>2026-05-01T11:00:47Z</time></trkpt><trkpt lat="45.83311216952472" lon="11.84226323323645"><ele>319.0</ele><time>2026-05-01T11:00:48Z</time></trkpt><trkpt lat="45.83293247313822" lon="11.84218577142125"><ele>319.0</ele><time>2026-05-01T11:00:49Z</time></trkpt><trkpt lat="45.832770111838606" lon="11.842116149571428"><ele>319.0</ele><time>2026-05-01T11:00:50Z</time></trkpt><trkpt lat="45.832624186838274" lon="11.84204888770329"><ele>319.0</ele><time>2026-05-01T11:00:51Z</time></trkpt><trkpt lat="45.832490654906266" lon="11.841989140700528"><ele>318.75</ele><time>2026-05-01T11:00:52Z</time></trkpt><trkpt lat="45.83236612115209" lon="11.841945014572854"><ele>318.5</ele><time>2026-05-01T11:00:53Z</time></trkpt><trkpt lat="45.832260533047304" lon="11.841864253778805"><ele>318.25</ele><time>2026-05-01T11:00:54Z</time></trkpt><trkpt lat="45.83216500238118" lon="11.841798353166945"><ele>318.0</ele><time>2026-05-01T11:00:55Z</time></trkpt><trkpt lat="45.832101982468224" lon="11.841676360718905"><ele>318.0</ele><time>2026-05-01T11:00:56Z</time></trkpt><trkpt lat="45.83204461056019" lon="11.841502291804005"><ele>318.0</ele><time>2026-05-01T11:00:57Z</time></trkpt><trkpt lat="45.83198530691276" lon="11.84129661271278"><ele>318.0</ele><time>2026-05-01T11:00:58Z</time></trkpt><trkpt lat="45.831914521889345" lon="11.841078659603893"><ele>318.6666666666667</ele><time>2026-05-01T11:00:59Z</time></trkpt><trkpt lat="45.831838151304275" lon="11.840841334237606"><ele>319.33333333333337</ele><time>2026-05-01T11:01:00Z</time></trkpt><trkpt lat="45.8317610802919" lon="11.840589773703826"><ele>320.0</ele><time>2026-05-01T11:01:01Z</time></trkpt><trkpt lat="45.8316870187987" lon="11.840341852983489"><ele>316.33333333333337</ele><time>2026-05-01T11:01:02Z</time></trkpt><trkpt lat="45.83160939947715" lon="11.840104474875389"><ele>312.6666666666667</ele><time>2026-05-01T11:01:03Z</time></trkpt><trkpt lat="45.83152009172813" lon="11.839874493651248"><ele>309.0</ele><time>2026-05-01T11:01:04Z</time></trkpt><trkpt lat="45.831410340053345" lon="11.83965500388317"><ele>309.0</ele><time>2026-05-01T11:01:04.999Z</time></trkpt><trkpt lat="45.83129759818769" lon="11.83945636233248"><ele>309.0</ele><time>2026-05-01T11:01:05.999Z</time></trkpt><trkpt lat="45.831194575426494" lon="11.839270634875689"><ele>309.0</ele><time>2026-05-01T11:01:06.999Z</time></trkpt><trkpt lat="45.83109885132322" lon="11.839093775198867"><ele>309.75</ele><time>2026-05-01T11:01:07.999Z</time></trkpt><trkpt lat="45.831006441859984" lon="11.838921892865448"><ele>310.5</ele><time>2026-05-01T11:01:08.999Z</time></trkpt><trkpt lat="45.83090859763478" lon="11.838754393626239"><ele>311.25</ele><time>2026-05-01T11:01:09.999Z</time></trkpt><trkpt lat="45.83081798422553" lon="11.838597609330014"><ele>312.0</ele><time>2026-05-01T11:01:10.999Z</time></trkpt><trkpt lat="45.830731240311714" lon="11.838446909629505"><ele>310.5</ele><time>2026-05-01T11:01:11.999Z</time></trkpt><trkpt lat="45.830647083012735" lon="11.838314342567864"><ele>309.0</ele><time>2026-05-01T11:01:12.999Z</time></trkpt><trkpt lat="45.83055119824798" lon="11.838216790591554"><ele>307.5</ele><time>2026-05-01T11:01:13.999Z</time></trkpt><trkpt lat="45.83044332801042" lon="11.838173465465372"><ele>306.0</ele><time>2026-05-01T11:01:14.999Z</time></trkpt><trkpt lat="45.830320681851184" lon="11.83815615596658"><ele>306.0</ele><time>2026-05-01T11:01:15.999Z</time></trkpt><trkpt lat="45.830206969908716" lon="11.83825597527631"><ele>306.0</ele><time>2026-05-01T11:01:16.999Z</time></trkpt><trkpt lat="45.83011732821287" lon="11.838373796426838"><ele>306.0</ele><time>2026-05-01T11:01:17.999Z</time></trkpt><trkpt lat="45.830055637684815" lon="11.838546775197463"><ele>306.0</ele><time>2026-05-01T11:01:18.999Z</time></trkpt><trkpt lat="45.83001426027712" lon="11.838758809409356"><ele>303.6666666666667</ele><time>2026-05-01T11:01:19.999Z</time></trkpt><trkpt lat="45.82997054973767" lon="11.83899795963164"><ele>301.33333333333337</ele><time>2026-05-01T11:01:20.999Z</time></trkpt><trkpt lat="45.829918730725915" lon="11.839246711662874"><ele>299.0</ele><time>2026-05-01T11:01:21.999Z</time></trkpt><trkpt lat="45.82986836565572" lon="11.839512864759355"><ele>298.6666666666667</ele><time>2026-05-01T11:01:22.999Z</time></trkpt><trkpt lat="45.82981901534732" lon="11.839784454201242"><ele>298.3333333333333</ele><time>2026-05-01T11:01:23.999Z</time></trkpt><trkpt lat="45.82977700582362" lon="11.840049296500494"><ele>298.0</ele><time>2026-05-01T11:01:24.999Z</time></trkpt><trkpt lat="45.82975596848602" lon="11.840316799503826"><ele>298.0</ele><time>2026-05-01T11:01:25.999Z</time></trkpt><trkpt lat="45.8297498237597" lon="11.840577894729277"><ele>298.0</ele><time>2026-05-01T11:01:26.999Z</time></trkpt><trkpt lat="45.829741883095394" lon="11.840814020387006"><ele>298.0</ele><time>2026-05-01T11:01:27.999Z</time></trkpt><trkpt lat="45.829725014991986" lon="11.84101834764255"><ele>297.6</ele><time>2026-05-01T11:01:28.999Z</time></trkpt><trkpt lat="45.82970625047315" lon="11.841201354943179"><ele>297.20000000000005</ele><time>2026-05-01T11:01:29.999Z</time></trkpt><trkpt lat="45.82968930522694" lon="11.841359150609932"><ele>296.8</ele><time>2026-05-01T11:01:30.999Z</time></trkpt><trkpt lat="45.829661530126245" lon="11.84149241585052"><ele>296.40000000000003</ele><time>2026-05-01T11:01:31.999Z</time></trkpt><trkpt lat="45.82961468008721" lon="11.841594311096765"><ele>296.0</ele><time>2026-05-01T11:01:32.999Z</time></trkpt><trkpt lat="45.829522875297066" lon="11.841639385815084"><ele>296.0</ele><time>2026-05-01T11:01:33.999Z</time></trkpt><trkpt lat="45.82942780020471" lon="11.841656330038292"><ele>296.0</ele><time>2026-05-01T11:01:34.999Z</time></trkpt><trkpt lat="45.82933259731219" lon="11.84166898816858"><ele>296.0</ele><time>2026-05-01T11:01:35.999Z</time></trkpt><trkpt lat="45.8292471396512" lon="11.841602577805919"><ele>296.0</ele><time>2026-05-01T11:01:36.999Z</time></trkpt><trkpt lat="45.82919165091309" lon="11.841488050711412"><ele>296.0</ele><time>2026-05-01T11:01:37.999Z</time></trkpt><trkpt lat="45.82914960232169" lon="11.841336448871145"><ele>297.0</ele><time>2026-05-01T11:01:38.999Z</time></trkpt><trkpt lat="45.82910958318413" lon="11.841164300221838"><ele>298.0</ele><time>2026-05-01T11:01:39.999Z</time></trkpt><trkpt lat="45.82907425871435" lon="11.84098037892146"><ele>299.0</ele><time>2026-05-01T11:01:40.999Z</time></trkpt><trkpt lat="45.82903070066411" lon="11.84081492336156"><ele>300.0</ele><time>2026-05-01T11:01:41.999Z</time></trkpt><trkpt lat="45.82899905964933" lon="11.840646793238196"><ele>300.0</ele><time>2026-05-01T11:01:42.999Z</time></trkpt><trkpt lat="45.82896454362171" lon="11.840492051313506"><ele>300.0</ele><time>2026-05-01T11:01:43.999Z</time></trkpt><trkpt lat="45.82892894709977" lon="11.840347842348358"><ele>300.0</ele><time>2026-05-01T11:01:44.999Z</time></trkpt><trkpt lat="45.828880995185116" lon="11.840214110134646"><ele>300.0</ele><time>2026-05-01T11:01:45.999Z</time></trkpt><trkpt lat="45.828816806603434" lon="11.840090407387098"><ele>300.0</ele><time>2026-05-01T11:01:46.999Z</time></trkpt><trkpt lat="45.82872590059388" lon="11.840006702447765"><ele>299.75</ele><time>2026-05-01T11:01:47.999Z</time></trkpt><trkpt lat="45.82861150050771" lon="11.839947566138186"><ele>299.5</ele><time>2026-05-01T11:01:48.999Z</time></trkpt><trkpt lat="45.828472919327226" lon="11.839985092278791"><ele>299.25</ele><time>2026-05-01T11:01:49.999Z</time></trkpt><trkpt lat="45.828337646241366" lon="11.840018748173248"><ele>299.0</ele><time>2026-05-01T11:01:50.999Z</time></trkpt><trkpt lat="45.828201637047854" lon="11.840029759080476"><ele>298.75</ele><time>2026-05-01T11:01:51.999Z</time></trkpt><trkpt lat="45.828072399550265" lon="11.840082354818696"><ele>298.5</ele><time>2026-05-01T11:01:52.999Z</time></trkpt><trkpt lat="45.827942903305576" lon="11.8401089647864"><ele>298.25</ele><time>2026-05-01T11:01:53.999Z</time></trkpt><trkpt lat="45.827816731267966" lon="11.840126810297486"><ele>298.0</ele><time>2026-05-01T11:01:54.999Z</time></trkpt><trkpt lat="45.82770949163021" lon="11.840135646393994"><ele>296.8</ele><time>2026-05-01T11:01:55.999Z</time></trkpt><trkpt lat="45.827601627631026" lon="11.840129672318753"><ele>295.6</ele><time>2026-05-01T11:01:56.999Z</time></trkpt><trkpt lat="45.827507872664086" lon="11.84007151204561"><ele>294.4</ele><time>2026-05-01T11:01:57.999Z</time></trkpt><trkpt lat="45.827412709052105" lon="11.840025172227296"><ele>293.2</ele><time>2026-05-01T11:01:58.999Z</time></trkpt><trkpt lat="45.82734027893718" lon="11.839905237859478"><ele>292.0</ele><time>2026-05-01T11:01:59.999Z</time></trkpt><trkpt lat="45.82729272543725" lon="11.83973096343267"><ele>292.0</ele><time>2026-05-01T11:02:00.999Z</time></trkpt><trkpt lat="45.827261101027844" lon="11.839522899857457"><ele>292.0</ele><time>2026-05-01T11:02:01.999Z</time></trkpt><trkpt lat="45.8272219516079" lon="11.839347865860065"><ele>292.0</ele><time>2026-05-01T11:02:02.999Z</time></trkpt><trkpt lat="45.82719141241729" lon="11.839199225767418"><ele>292.0</ele><time>2026-05-01T11:02:03.999Z</time></trkpt><trkpt lat="45.82715981324536" lon="11.839053190616948"><ele>292.2</ele><time>2026-05-01T11:02:04.999Z</time></trkpt><trkpt lat="45.82712992570017" lon="11.838923090408747"><ele>292.4</ele><time>2026-05-01T11:02:05.999Z</time></trkpt><trkpt lat="45.82710448075085" lon="11.838802891566502"><ele>292.6</ele><time>2026-05-01T11:02:06.999Z</time></trkpt><trkpt lat="45.827081196778565" lon="11.838683434613175"><ele>292.8</ele><time>2026-05-01T11:02:07.999Z</time></trkpt><trkpt lat="45.82705395313952" lon="11.838559202902609"><ele>293.0</ele><time>2026-05-01T11:02:08.999Z</time></trkpt><trkpt lat="45.82702671705418" lon="11.838429629927488"><ele>293.4</ele><time>2026-05-01T11:02:09.999Z</time></trkpt><trkpt lat="45.82699681870778" lon="11.83829528797823"><ele>293.8</ele><time>2026-05-01T11:02:10.999Z</time></trkpt><trkpt lat="45.82696603373465" lon="11.838156675376366"><ele>294.2</ele><time>2026-05-01T11:02:11.999Z</time></trkpt><trkpt lat="45.82693161003895" lon="11.8380147490023"><ele>294.6</ele><time>2026-05-01T11:02:12.999Z</time></trkpt><trkpt lat="45.82690046190984" lon="11.837865127637343"><ele>295.0</ele><time>2026-05-01T11:02:13.999Z</time></trkpt><trkpt lat="45.826871607547844" lon="11.83770141587849"><ele>294.4</ele><time>2026-05-01T11:02:14.999Z</time></trkpt><trkpt lat="45.82684163061931" lon="11.837556347519172"><ele>293.8</ele><time>2026-05-01T11:02:15.999Z</time></trkpt><trkpt lat="45.826815382458406" lon="11.837425345829516"><ele>293.2</ele><time>2026-05-01T11:02:16.999Z</time></trkpt><trkpt lat="45.826782027975746" lon="11.837298528081003"><ele>292.6</ele><time>2026-05-01T11:02:17.999Z</time></trkpt><trkpt lat="45.82675495993388" lon="11.837175056869249"><ele>292.0</ele><time>2026-05-01T11:02:18.999Z</time></trkpt><trkpt lat="45.82672859578183" lon="11.83705055298461"><ele>290.8333333333333</ele><time>2026-05-01T11:02:19.999Z</time></trkpt><trkpt lat="45.82670245311498" lon="11.836927175828016"><ele>289.66666666666663</ele><time>2026-05-01T11:02:20.999Z</time></trkpt><trkpt lat="45.82667712600265" lon="11.836806304645714"><ele>288.5</ele><time>2026-05-01T11:02:21.999Z</time></trkpt><trkpt lat="45.82664726156383" lon="11.836678852380107"><ele>287.3333333333333</ele><time>2026-05-01T11:02:23Z</time></trkpt><trkpt lat="45.82661955601583" lon="11.836551734823324"><ele>286.1666666666667</ele><time>2026-05-01T11:02:24Z</time></trkpt><trkpt lat="45.82659945453226" lon="11.836436139399503"><ele>285.0</ele><time>2026-05-01T11:02:25Z</time></trkpt><trkpt lat="45.82658207076631" lon="11.836330883506564"><ele>285.0</ele><time>2026-05-01T11:02:26Z</time></trkpt><trkpt lat="45.826560601949076" lon="11.836237187772726"><ele>285.0</ele><time>2026-05-01T11:02:27Z</time></trkpt><trkpt lat="45.82653038821113" lon="11.836095275129601"><ele>285.0</ele><time>2026-05-01T11:02:29Z</time></trkpt><trkpt lat="45.826521055927635" lon="11.835999610149159"><ele>285.0</ele><time>2026-05-01T11:02:31Z</time></trkpt><trkpt lat="45.826511051520384" lon="11.8358908391946"><ele>285.0</ele><time>2026-05-01T11:02:35Z</time></trkpt><trkpt lat="45.82648366592745" lon="11.835806925532578"><ele>285.0</ele><time>2026-05-01T11:02:39Z</time></trkpt><trkpt lat="45.82656406267066" lon="11.83576525446587"><ele>285.1666666666667</ele><time>2026-05-01T11:02:41Z</time></trkpt><trkpt lat="45.82655760859851" lon="11.835668508575608"><ele>285.3333333333333</ele><time>2026-05-01T11:10:49Z</time></trkpt><trkpt lat="45.82649574521167" lon="11.835641445006907"><ele>285.5</ele><time>2026-05-01T11:11:01Z</time></trkpt><trkpt lat="45.82641284823893" lon="11.835657675057474"><ele>285.66666666666663</ele><time>2026-05-01T11:11:07Z</time></trkpt><trkpt lat="45.826360791955324" lon="11.83560417442063"><ele>285.8333333333333</ele><time>2026-05-01T11:11:08Z</time></trkpt><trkpt lat="45.82630635546023" lon="11.835525150860963"><ele>286.0</ele><time>2026-05-01T11:11:09Z</time></trkpt><trkpt lat="45.826230790845315" lon="11.835432826932545"><ele>286.0</ele><time>2026-05-01T11:11:10Z</time></trkpt><trkpt lat="45.826143787994724" lon="11.835329755644207"><ele>286.0</ele><time>2026-05-01T11:11:11Z</time></trkpt><trkpt lat="45.826045621534725" lon="11.83523113131305"><ele>286.0</ele><time>2026-05-01T11:11:12Z</time></trkpt><trkpt lat="45.82594975731135" lon="11.835130730258046"><ele>286.0</ele><time>2026-05-01T11:11:13Z</time></trkpt><trkpt lat="45.825856088961714" lon="11.835031647511816"><ele>285.40000000000003</ele><time>2026-05-01T11:11:14Z</time></trkpt><trkpt lat="45.825765177552185" lon="11.834933456632818"><ele>284.8</ele><time>2026-05-01T11:11:15Z</time></trkpt><trkpt lat="45.82567273254785" lon="11.83483598313037"><ele>284.20000000000005</ele><time>2026-05-01T11:11:16Z</time></trkpt><trkpt lat="45.82558386726923" lon="11.834739788625818"><ele>283.6</ele><time>2026-05-01T11:11:17Z</time></trkpt><trkpt lat="45.8254993551416" lon="11.83465205143288"><ele>283.0</ele><time>2026-05-01T11:11:18Z</time></trkpt><trkpt lat="45.825411184693614" lon="11.834560789038777"><ele>283.0</ele><time>2026-05-01T11:11:19Z</time></trkpt><trkpt lat="45.8253225120116" lon="11.834471479152239"><ele>283.0</ele><time>2026-05-01T11:11:20Z</time></trkpt><trkpt lat="45.82524058237062" lon="11.834384115797263"><ele>283.0</ele><time>2026-05-01T11:11:21Z</time></trkpt><trkpt lat="45.82516611336497" lon="11.834300329112121"><ele>283.0</ele><time>2026-05-01T11:11:22Z</time></trkpt><trkpt lat="45.825082533384226" lon="11.834210773742724"><ele>283.0</ele><time>2026-05-01T11:11:22.999Z</time></trkpt><trkpt lat="45.825001677123204" lon="11.834125130237895"><ele>281.75</ele><time>2026-05-01T11:11:23.999Z</time></trkpt><trkpt lat="45.824906718091256" lon="11.834035510052898"><ele>280.5</ele><time>2026-05-01T11:11:24.999Z</time></trkpt><trkpt lat="45.82481941550572" lon="11.83393518589036"><ele>279.25</ele><time>2026-05-01T11:11:25.999Z</time></trkpt><trkpt lat="45.82471873297957" lon="11.833829675940194"><ele>278.0</ele><time>2026-05-01T11:11:26.999Z</time></trkpt><trkpt lat="45.82461080422463" lon="11.833714042436014"><ele>278.0</ele><time>2026-05-01T11:11:27.999Z</time></trkpt><trkpt lat="45.82449396233556" lon="11.83358890134394"><ele>278.0</ele><time>2026-05-01T11:11:28.999Z</time></trkpt><trkpt lat="45.824364655487734" lon="11.83346018638218"><ele>278.0</ele><time>2026-05-01T11:11:29.999Z</time></trkpt><trkpt lat="45.82423051976907" lon="11.833315526668036"><ele>276.33333333333337</ele><time>2026-05-01T11:11:30.999Z</time></trkpt><trkpt lat="45.82409769543101" lon="11.833170162079677"><ele>274.6666666666667</ele><time>2026-05-01T11:11:31.999Z</time></trkpt><trkpt lat="45.82397538062315" lon="11.833041157400565"><ele>273.0</ele><time>2026-05-01T11:11:32.999Z</time></trkpt><trkpt lat="45.82386942502733" lon="11.832927804015384"><ele>273.0</ele><time>2026-05-01T11:11:33.999Z</time></trkpt><trkpt lat="45.823773507142484" lon="11.83281642538214"><ele>273.0</ele><time>2026-05-01T11:11:34.999Z</time></trkpt><trkpt lat="45.823686955314294" lon="11.832706374357327"><ele>273.0</ele><time>2026-05-01T11:11:35.999Z</time></trkpt><trkpt lat="45.823602927454274" lon="11.832589091008213"><ele>273.0</ele><time>2026-05-01T11:11:36.999Z</time></trkpt><trkpt lat="45.823521301441254" lon="11.832468907175059"><ele>272.25</ele><time>2026-05-01T11:11:37.999Z</time></trkpt><trkpt lat="45.82344627989939" lon="11.832349154986257"><ele>271.5</ele><time>2026-05-01T11:11:38.999Z</time></trkpt><trkpt lat="45.823380208787356" lon="11.83222468189621"><ele>270.75</ele><time>2026-05-01T11:11:39.999Z</time></trkpt><trkpt lat="45.82331744558983" lon="11.832083943104761"><ele>270.0</ele><time>2026-05-01T11:11:40.999Z</time></trkpt><trkpt lat="45.82324808719229" lon="11.831941220625497"><ele>270.0</ele><time>2026-05-01T11:11:41.999Z</time></trkpt><trkpt lat="45.823166703620345" lon="11.831801552468342"><ele>270.0</ele><time>2026-05-01T11:11:42.999Z</time></trkpt><trkpt lat="45.82308022528089" lon="11.831637545227121"><ele>270.0</ele><time>2026-05-01T11:11:43.999Z</time></trkpt><trkpt lat="45.82298698176192" lon="11.831466572249273"><ele>270.0</ele><time>2026-05-01T11:11:44.999Z</time></trkpt><trkpt lat="45.82288877208213" lon="11.83128984257948"><ele>270.0</ele><time>2026-05-01T11:11:45.999Z</time></trkpt><trkpt lat="45.82278902878936" lon="11.831105635022212"><ele>270.0</ele><time>2026-05-01T11:11:46.999Z</time></trkpt><trkpt lat="45.8226966586358" lon="11.830932966946254"><ele>270.0</ele><time>2026-05-01T11:11:47.999Z</time></trkpt><trkpt lat="45.82260920361113" lon="11.83077094501164"><ele>268.75</ele><time>2026-05-01T11:11:48.999Z</time></trkpt><trkpt lat="45.82252629627214" lon="11.830611464463587"><ele>267.5</ele><time>2026-05-01T11:11:49.999Z</time></trkpt><trkpt lat="45.82244054188033" lon="11.830453294950246"><ele>266.25</ele><time>2026-05-01T11:11:50.999Z</time></trkpt><trkpt lat="45.82235871132548" lon="11.830300415800146"><ele>265.0</ele><time>2026-05-01T11:11:51.999Z</time></trkpt><trkpt lat="45.82228726339387" lon="11.830159125726388"><ele>264.8</ele><time>2026-05-01T11:11:52.999Z</time></trkpt><trkpt lat="45.82221841716758" lon="11.83003059643833"><ele>264.6</ele><time>2026-05-01T11:11:53.999Z</time></trkpt><trkpt lat="45.822148371882186" lon="11.829909073504357"><ele>264.4</ele><time>2026-05-01T11:11:54.999Z</time></trkpt><trkpt lat="45.82208121042889" lon="11.829799404054791"><ele>264.2</ele><time>2026-05-01T11:11:55.999Z</time></trkpt><trkpt lat="45.822010801663566" lon="11.829693864389537"><ele>264.0</ele><time>2026-05-01T11:11:56.999Z</time></trkpt><trkpt lat="45.82194488032451" lon="11.829573159079397"><ele>264.0</ele><time>2026-05-01T11:11:57.999Z</time></trkpt><trkpt lat="45.82190160172951" lon="11.829424412024592"><ele>264.0</ele><time>2026-05-01T11:11:58.999Z</time></trkpt><trkpt lat="45.821871482141354" lon="11.829233835777574"><ele>264.0</ele><time>2026-05-01T11:11:59.999Z</time></trkpt><trkpt lat="45.821822772460116" lon="11.829027144328089"><ele>264.0</ele><time>2026-05-01T11:12:00.999Z</time></trkpt><trkpt lat="45.82177287491664" lon="11.828832205666796"><ele>263.0</ele><time>2026-05-01T11:12:01.999Z</time></trkpt><trkpt lat="45.821726243876" lon="11.828646340429538"><ele>262.0</ele><time>2026-05-01T11:12:02.999Z</time></trkpt><trkpt lat="45.82167850295233" lon="11.828461453413867"><ele>261.0</ele><time>2026-05-01T11:12:03.999Z</time></trkpt><trkpt lat="45.82163022274153" lon="11.828275987392786"><ele>260.0</ele><time>2026-05-01T11:12:04.999Z</time></trkpt><trkpt lat="45.82157931453857" lon="11.828086889804306"><ele>260.0</ele><time>2026-05-01T11:12:05.999Z</time></trkpt><trkpt lat="45.82152777626731" lon="11.827891750924785"><ele>260.0</ele><time>2026-05-01T11:12:06.999Z</time></trkpt><trkpt lat="45.82147866805124" lon="11.827690999172233"><ele>260.0</ele><time>2026-05-01T11:12:07.999Z</time></trkpt><trkpt lat="45.82142868831857" lon="11.827489626194104"><ele>260.0</ele><time>2026-05-01T11:12:08.999Z</time></trkpt><trkpt lat="45.82137705600169" lon="11.827282409133087"><ele>259.6666666666667</ele><time>2026-05-01T11:12:09.999Z</time></trkpt><trkpt lat="45.82132330216694" lon="11.827072034582375"><ele>259.3333333333333</ele><time>2026-05-01T11:12:10.999Z</time></trkpt><trkpt lat="45.821270349997796" lon="11.826865441081457"><ele>259.0</ele><time>2026-05-01T11:12:11.999Z</time></trkpt><trkpt lat="45.82121962330117" lon="11.826662947973329"><ele>258.3333333333333</ele><time>2026-05-01T11:12:12.999Z</time></trkpt><trkpt lat="45.82116966278406" lon="11.826460321968584"><ele>257.6666666666667</ele><time>2026-05-01T11:12:13.999Z</time></trkpt><trkpt lat="45.82111841459782" lon="11.826256218177468"><ele>257.0</ele><time>2026-05-01T11:12:14.999Z</time></trkpt><trkpt lat="45.82106700752632" lon="11.826052571284256"><ele>256.6666666666667</ele><time>2026-05-01T11:12:15.999Z</time></trkpt><trkpt lat="45.82101711371376" lon="11.82584420606808"><ele>256.3333333333333</ele><time>2026-05-01T11:12:16.999Z</time></trkpt><trkpt lat="45.82096983782873" lon="11.825633393981404"><ele>256.0</ele><time>2026-05-01T11:12:17.999Z</time></trkpt><trkpt lat="45.82092177493757" lon="11.825415521811813"><ele>254.66666666666666</ele><time>2026-05-01T11:12:18.999Z</time></trkpt><trkpt lat="45.820872170999706" lon="11.825190088636505"><ele>253.33333333333331</ele><time>2026-05-01T11:12:19.999Z</time></trkpt><trkpt lat="45.82082201396529" lon="11.82495532308731"><ele>252.0</ele><time>2026-05-01T11:12:20.999Z</time></trkpt><trkpt lat="45.82077204307537" lon="11.824722637217546"><ele>251.33333333333331</ele><time>2026-05-01T11:12:21.999Z</time></trkpt><trkpt lat="45.82072079458633" lon="11.824492559644224"><ele>250.66666666666666</ele><time>2026-05-01T11:12:22.999Z</time></trkpt><trkpt lat="45.820670751678776" lon="11.824265910798536"><ele>250.0</ele><time>2026-05-01T11:12:23.999Z</time></trkpt><trkpt lat="45.82062210493377" lon="11.824042691305605"><ele>250.0</ele><time>2026-05-01T11:12:24.999Z</time></trkpt><trkpt lat="45.82057157859314" lon="11.82382285787299"><ele>250.0</ele><time>2026-05-01T11:12:25.999Z</time></trkpt><trkpt lat="45.820524213309675" lon="11.823604912834126"><ele>250.0</ele><time>2026-05-01T11:12:26.999Z</time></trkpt><trkpt lat="45.82048032400529" lon="11.823395595792798"><ele>250.0</ele><time>2026-05-01T11:12:27.999Z</time></trkpt><trkpt lat="45.82043572122308" lon="11.823197403480812"><ele>250.0</ele><time>2026-05-01T11:12:28.999Z</time></trkpt><trkpt lat="45.82039408302568" lon="11.82300258869162"><ele>250.0</ele><time>2026-05-01T11:12:29.999Z</time></trkpt><trkpt lat="45.82035243542429" lon="11.82280517009262"><ele>250.0</ele><time>2026-05-01T11:12:30.999Z</time></trkpt><trkpt lat="45.82030889876401" lon="11.822607283809965"><ele>249.75</ele><time>2026-05-01T11:12:31.999Z</time></trkpt><trkpt lat="45.820266133689344" lon="11.822413634635467"><ele>249.5</ele><time>2026-05-01T11:12:32.999Z</time></trkpt><trkpt lat="45.82022336412697" lon="11.822224531654904"><ele>249.25</ele><time>2026-05-01T11:12:33.999Z</time></trkpt><trkpt lat="45.82018196994796" lon="11.82204011484384"><ele>249.0</ele><time>2026-05-01T11:12:34.999Z</time></trkpt><trkpt lat="45.82014453038914" lon="11.821857355951762"><ele>248.0</ele><time>2026-05-01T11:12:35.999Z</time></trkpt><trkpt lat="45.82010611522294" lon="11.821670679475869"><ele>247.0</ele><time>2026-05-01T11:12:36.999Z</time></trkpt><trkpt lat="45.820068114019875" lon="11.82147502189848"><ele>246.0</ele><time>2026-05-01T11:12:37.999Z</time></trkpt><trkpt lat="45.82002831746626" lon="11.821260835413677"><ele>245.0</ele><time>2026-05-01T11:12:38.999Z</time></trkpt><trkpt lat="45.819988805779914" lon="11.821029561216855"><ele>244.33333333333334</ele><time>2026-05-01T11:12:39.999Z</time></trkpt><trkpt lat="45.819948156463575" lon="11.8207793696411"><ele>243.66666666666669</ele><time>2026-05-01T11:12:40.999Z</time></trkpt><trkpt lat="45.819901034263644" lon="11.82051389471334"><ele>243.0</ele><time>2026-05-01T11:12:41.999Z</time></trkpt><trkpt lat="45.81985984721031" lon="11.820246139537392"><ele>242.0</ele><time>2026-05-01T11:12:42.999Z</time></trkpt><trkpt lat="45.8198226154088" lon="11.819983080063071"><ele>241.0</ele><time>2026-05-01T11:12:43.999Z</time></trkpt><trkpt lat="45.819772365094565" lon="11.819724925418512"><ele>240.0</ele><time>2026-05-01T11:12:44.999Z</time></trkpt><trkpt lat="45.819703647604854" lon="11.819478018833554"><ele>239.0</ele><time>2026-05-01T11:12:45.999Z</time></trkpt><trkpt lat="45.81961975139286" lon="11.81924281336973"><ele>238.0</ele><time>2026-05-01T11:12:46.999Z</time></trkpt><trkpt lat="45.819522983032236" lon="11.81901736591426"><ele>237.0</ele><time>2026-05-01T11:12:47.999Z</time></trkpt><trkpt lat="45.819421031812524" lon="11.81879022092378"><ele>236.33333333333331</ele><time>2026-05-01T11:12:48.999Z</time></trkpt><trkpt lat="45.81931572551573" lon="11.818552330604804"><ele>235.66666666666666</ele><time>2026-05-01T11:12:49.999Z</time></trkpt><trkpt lat="45.81921305651417" lon="11.818299620400857"><ele>235.0</ele><time>2026-05-01T11:12:50.999Z</time></trkpt><trkpt lat="45.8191114088039" lon="11.818055155605869"><ele>234.0</ele><time>2026-05-01T11:12:52Z</time></trkpt><trkpt lat="45.81901801463193" lon="11.817831567315375"><ele>233.0</ele><time>2026-05-01T11:12:53Z</time></trkpt><trkpt lat="45.81893581501697" lon="11.817624299153488"><ele>232.0</ele><time>2026-05-01T11:12:54Z</time></trkpt><trkpt lat="45.81886115689918" lon="11.817441223619713"><ele>231.5</ele><time>2026-05-01T11:12:55Z</time></trkpt><trkpt lat="45.81878992763048" lon="11.817267413960009"><ele>231.0</ele><time>2026-05-01T11:12:56Z</time></trkpt><trkpt lat="45.818720919242004" lon="11.817097804619417"><ele>230.5</ele><time>2026-05-01T11:12:57Z</time></trkpt><trkpt lat="45.818659905203425" lon="11.816945045619761"><ele>230.0</ele><time>2026-05-01T11:12:58Z</time></trkpt><trkpt lat="45.818601523313525" lon="11.816800583272762"><ele>229.4</ele><time>2026-05-01T11:12:59Z</time></trkpt><trkpt lat="45.818546192213105" lon="11.816662132592914"><ele>228.8</ele><time>2026-05-01T11:13:00Z</time></trkpt><trkpt lat="45.81849021684814" lon="11.81652322567015"><ele>228.2</ele><time>2026-05-01T11:13:01Z</time></trkpt><trkpt lat="45.818433132396706" lon="11.816386203593769"><ele>227.6</ele><time>2026-05-01T11:13:02Z</time></trkpt><trkpt lat="45.818376430952284" lon="11.816251099083688"><ele>227.0</ele><time>2026-05-01T11:13:03Z</time></trkpt><trkpt lat="45.81832150844858" lon="11.81611564875336"><ele>225.5</ele><time>2026-05-01T11:13:04Z</time></trkpt><trkpt lat="45.81826643029711" lon="11.815974652240488"><ele>224.0</ele><time>2026-05-01T11:13:05Z</time></trkpt><trkpt lat="45.818213718467995" lon="11.815820196720836"><ele>222.5</ele><time>2026-05-01T11:13:06Z</time></trkpt><trkpt lat="45.818168053555" lon="11.815652805328968"><ele>221.0</ele><time>2026-05-01T11:13:07Z</time></trkpt><trkpt lat="45.81812895205329" lon="11.815472052601494"><ele>221.0</ele><time>2026-05-01T11:13:08Z</time></trkpt><trkpt lat="45.818088650247" lon="11.815284943455659"><ele>221.0</ele><time>2026-05-01T11:13:09Z</time></trkpt><trkpt lat="45.818045785278436" lon="11.815099823597885"><ele>221.0</ele><time>2026-05-01T11:13:10Z</time></trkpt><trkpt lat="45.81800541023148" lon="11.814916970305047"><ele>221.0</ele><time>2026-05-01T11:13:11Z</time></trkpt><trkpt lat="45.81796469261474" lon="11.814734405004087"><ele>221.0</ele><time>2026-05-01T11:13:12Z</time></trkpt><trkpt lat="45.81792128626345" lon="11.81455242197971"><ele>221.0</ele><time>2026-05-01T11:13:13Z</time></trkpt><trkpt lat="45.8178758130473" lon="11.814365858984988"><ele>221.0</ele><time>2026-05-01T11:13:14Z</time></trkpt><trkpt lat="45.81783004827995" lon="11.814171629030543"><ele>221.0</ele><time>2026-05-01T11:13:15Z</time></trkpt><trkpt lat="45.817784947920714" lon="11.813969668942939"><ele>221.25</ele><time>2026-05-01T11:13:16Z</time></trkpt><trkpt lat="45.81773919140097" lon="11.813773528170817"><ele>221.5</ele><time>2026-05-01T11:13:17Z</time></trkpt><trkpt lat="45.81769137389491" lon="11.813577442264775"><ele>221.75</ele><time>2026-05-01T11:13:18Z</time></trkpt><trkpt lat="45.81764477580384" lon="11.813378037353292"><ele>222.0</ele><time>2026-05-01T11:13:19Z</time></trkpt><trkpt lat="45.81759817354778" lon="11.813176577037444"><ele>219.33333333333331</ele><time>2026-05-01T11:13:20Z</time></trkpt><trkpt lat="45.817551579802505" lon="11.812974767834099"><ele>216.66666666666666</ele><time>2026-05-01T11:13:21Z</time></trkpt><trkpt lat="45.81750589505688" lon="11.812768997629444"><ele>214.0</ele><time>2026-05-01T11:13:22Z</time></trkpt><trkpt lat="45.817459222500254" lon="11.812561760470812"><ele>214.0</ele><time>2026-05-01T11:13:23Z</time></trkpt><trkpt lat="45.81741147809992" lon="11.812358209178592"><ele>214.0</ele><time>2026-05-01T11:13:24Z</time></trkpt><trkpt lat="45.817364996923395" lon="11.81215894424275"><ele>214.0</ele><time>2026-05-01T11:13:25Z</time></trkpt><trkpt lat="45.81732005847083" lon="11.811966057476102"><ele>214.0</ele><time>2026-05-01T11:13:25.999Z</time></trkpt><trkpt lat="45.81727669907494" lon="11.811775097161771"><ele>214.25</ele><time>2026-05-01T11:13:26.999Z</time></trkpt><trkpt lat="45.8172334825252" lon="11.811589397270652"><ele>214.5</ele><time>2026-05-01T11:13:27.999Z</time></trkpt><trkpt lat="45.81719002413482" lon="11.811406001076906"><ele>214.75</ele><time>2026-05-01T11:13:28.999Z</time></trkpt><trkpt lat="45.81714935832603" lon="11.811222114154608"><ele>215.0</ele><time>2026-05-01T11:13:29.999Z</time></trkpt><trkpt lat="45.817108507980926" lon="11.81104389164717"><ele>215.0</ele><time>2026-05-01T11:13:30.999Z</time></trkpt><trkpt lat="45.81706708236346" lon="11.81087203136788"><ele>215.0</ele><time>2026-05-01T11:13:31.999Z</time></trkpt><trkpt lat="45.81702739805815" lon="11.810697907723199"><ele>215.0</ele><time>2026-05-01T11:13:32.999Z</time></trkpt><trkpt lat="45.81698620268749" lon="11.810518224118182"><ele>215.0</ele><time>2026-05-01T11:13:33.999Z</time></trkpt><trkpt lat="45.8169445014932" lon="11.810336581627233"><ele>215.5</ele><time>2026-05-01T11:13:34.999Z</time></trkpt><trkpt lat="45.81690445285816" lon="11.810154760199739"><ele>216.0</ele><time>2026-05-01T11:13:35.999Z</time></trkpt><trkpt lat="45.81686140562459" lon="11.809965425881463"><ele>216.5</ele><time>2026-05-01T11:13:36.999Z</time></trkpt><trkpt lat="45.81681630708968" lon="11.80977268890627"><ele>217.0</ele><time>2026-05-01T11:13:37.999Z</time></trkpt><trkpt lat="45.816772637906325" lon="11.809578583814112"><ele>214.66666666666666</ele><time>2026-05-01T11:13:38.999Z</time></trkpt><trkpt lat="45.81672503651175" lon="11.809376450956105"><ele>212.33333333333331</ele><time>2026-05-01T11:13:39.999Z</time></trkpt><trkpt lat="45.81667721354314" lon="11.809167999307087"><ele>210.0</ele><time>2026-05-01T11:13:40.999Z</time></trkpt><trkpt lat="45.81662819780917" lon="11.808953070722714"><ele>210.0</ele><time>2026-05-01T11:13:41.999Z</time></trkpt><trkpt lat="45.816579500852235" lon="11.80873128630996"><ele>210.0</ele><time>2026-05-01T11:13:42.999Z</time></trkpt><trkpt lat="45.81652864346739" lon="11.808508723570899"><ele>210.0</ele><time>2026-05-01T11:13:43.999Z</time></trkpt><trkpt lat="45.81647842517328" lon="11.808283270636432"><ele>209.66666666666669</ele><time>2026-05-01T11:13:44.999Z</time></trkpt><trkpt lat="45.81643017535657" lon="11.808059868142646"><ele>209.33333333333334</ele><time>2026-05-01T11:13:45.999Z</time></trkpt><trkpt lat="45.8163826830009" lon="11.807843241554295"><ele>209.0</ele><time>2026-05-01T11:13:46.999Z</time></trkpt><trkpt lat="45.81633721773728" lon="11.807644817294387"><ele>209.0</ele><time>2026-05-01T11:13:47.999Z</time></trkpt><trkpt lat="45.816294643861355" lon="11.807465780980134"><ele>209.0</ele><time>2026-05-01T11:13:48.999Z</time></trkpt><trkpt lat="45.81625569973902" lon="11.807302092500377"><ele>209.0</ele><time>2026-05-01T11:13:49.999Z</time></trkpt><trkpt lat="45.816217105589985" lon="11.807147225604247"><ele>209.0</ele><time>2026-05-01T11:13:50.999Z</time></trkpt><trkpt lat="45.8161826714722" lon="11.807013582766768"><ele>209.0</ele><time>2026-05-01T11:13:51.999Z</time></trkpt><trkpt lat="45.816150332286554" lon="11.806884114127826"><ele>209.0</ele><time>2026-05-01T11:13:52.999Z</time></trkpt><trkpt lat="45.8161227615558" lon="11.80674560670753"><ele>209.0</ele><time>2026-05-01T11:13:53.999Z</time></trkpt><trkpt lat="45.816105702902554" lon="11.806591795756468"><ele>209.0</ele><time>2026-05-01T11:13:54.999Z</time></trkpt><trkpt lat="45.81607246258159" lon="11.806429182136082"><ele>209.0</ele><time>2026-05-01T11:13:55.999Z</time></trkpt><trkpt lat="45.81602595587824" lon="11.806234136416183"><ele>208.66666666666669</ele><time>2026-05-01T11:13:56.999Z</time></trkpt><trkpt lat="45.81599807469294" lon="11.806011117353744"><ele>208.33333333333331</ele><time>2026-05-01T11:13:57.999Z</time></trkpt><trkpt lat="45.815972732249506" lon="11.805764558118938"><ele>208.0</ele><time>2026-05-01T11:13:58.999Z</time></trkpt><trkpt lat="45.81595256495633" lon="11.805535662662814"><ele>206.0</ele><time>2026-05-01T11:13:59.999Z</time></trkpt><trkpt lat="45.8159321501562" lon="11.805330133379709"><ele>204.0</ele><time>2026-05-01T11:14:00.999Z</time></trkpt><trkpt lat="45.8159097559595" lon="11.805124653944087"><ele>202.0</ele><time>2026-05-01T11:14:01.999Z</time></trkpt><trkpt lat="45.81588902470387" lon="11.804920432507727"><ele>200.0</ele><time>2026-05-01T11:14:02.999Z</time></trkpt><trkpt lat="45.81587057087763" lon="11.804716975966107"><ele>199.5</ele><time>2026-05-01T11:14:03.999Z</time></trkpt><trkpt lat="45.8158539553068" lon="11.804519869213246"><ele>199.0</ele><time>2026-05-01T11:14:04.999Z</time></trkpt><trkpt lat="45.815837438644856" lon="11.80432114001877"><ele>198.5</ele><time>2026-05-01T11:14:05.999Z</time></trkpt><trkpt lat="45.81581737338157" lon="11.804117960780674"><ele>198.0</ele><time>2026-05-01T11:14:06.999Z</time></trkpt><trkpt lat="45.81579224674355" lon="11.803910823109511"><ele>198.0</ele><time>2026-05-01T11:14:07.999Z</time></trkpt><trkpt lat="45.81577029005344" lon="11.803697699676846"><ele>198.0</ele><time>2026-05-01T11:14:08.999Z</time></trkpt><trkpt lat="45.8157480488517" lon="11.80347353373958"><ele>198.0</ele><time>2026-05-01T11:14:09.999Z</time></trkpt><trkpt lat="45.81572490083605" lon="11.803220924129851"><ele>198.66666666666669</ele><time>2026-05-01T11:14:10.999Z</time></trkpt><trkpt lat="45.81570070404998" lon="11.80295603678656"><ele>199.33333333333334</ele><time>2026-05-01T11:14:11.999Z</time></trkpt><trkpt lat="45.81567650422349" lon="11.80269534406824"><ele>200.0</ele><time>2026-05-01T11:14:12.999Z</time></trkpt><trkpt lat="45.81565200093466" lon="11.802441869839535"><ele>200.0</ele><time>2026-05-01T11:14:13.999Z</time></trkpt><trkpt lat="45.8156271957852" lon="11.802192879942458"><ele>200.0</ele><time>2026-05-01T11:14:14.999Z</time></trkpt><trkpt lat="45.81560357144857" lon="11.801944664775226"><ele>200.0</ele><time>2026-05-01T11:14:15.999Z</time></trkpt><trkpt lat="45.815579977312666" lon="11.80169464947136"><ele>199.33333333333334</ele><time>2026-05-01T11:14:16.999Z</time></trkpt><trkpt lat="45.815555383224" lon="11.801446471158833"><ele>198.66666666666669</ele><time>2026-05-01T11:14:17.999Z</time></trkpt><trkpt lat="45.81553347166355" lon="11.80121563868259"><ele>198.0</ele><time>2026-05-01T11:14:18.999Z</time></trkpt><trkpt lat="45.815514004346085" lon="11.800998262789971"><ele>197.75</ele><time>2026-05-01T11:14:19.999Z</time></trkpt><trkpt lat="45.815494214649405" lon="11.800783508190651"><ele>197.5</ele><time>2026-05-01T11:14:20.999Z</time></trkpt><trkpt lat="45.81547665545835" lon="11.8005732139128"><ele>197.25</ele><time>2026-05-01T11:14:21.999Z</time></trkpt><trkpt lat="45.81546056184529" lon="11.80036456857123"><ele>197.0</ele><time>2026-05-01T11:14:22.999Z</time></trkpt><trkpt lat="45.81544767058735" lon="11.800152519975486"><ele>196.0</ele><time>2026-05-01T11:14:23.999Z</time></trkpt><trkpt lat="45.815443424836076" lon="11.799935030034094"><ele>195.0</ele><time>2026-05-01T11:14:24.999Z</time></trkpt><trkpt lat="45.81544355075088" lon="11.799713457849473"><ele>194.0</ele><time>2026-05-01T11:14:25.999Z</time></trkpt><trkpt lat="45.81544491810475" lon="11.799491782889243"><ele>193.66666666666669</ele><time>2026-05-01T11:14:26.999Z</time></trkpt><trkpt lat="45.81544626921097" lon="11.799272264649163"><ele>193.33333333333331</ele><time>2026-05-01T11:14:27.999Z</time></trkpt><trkpt lat="45.81544662508771" lon="11.799052142502278"><ele>193.0</ele><time>2026-05-01T11:14:28.999Z</time></trkpt><trkpt lat="45.81544784338303" lon="11.798828064314723"><ele>193.0</ele><time>2026-05-01T11:14:29.999Z</time></trkpt><trkpt lat="45.815449496921374" lon="11.798595838778716"><ele>193.0</ele><time>2026-05-01T11:14:30.999Z</time></trkpt><trkpt lat="45.81545149165249" lon="11.798358708998382"><ele>193.0</ele><time>2026-05-01T11:14:31.999Z</time></trkpt><trkpt lat="45.81545401403715" lon="11.798121423877932"><ele>192.0</ele><time>2026-05-01T11:14:32.999Z</time></trkpt><trkpt lat="45.81545528262373" lon="11.797882823192326"><ele>191.0</ele><time>2026-05-01T11:14:33.999Z</time></trkpt><trkpt lat="45.81545678534669" lon="11.79763516498986"><ele>190.0</ele><time>2026-05-01T11:14:34.999Z</time></trkpt><trkpt lat="45.81545664913196" lon="11.79737996727559"><ele>188.66666666666669</ele><time>2026-05-01T11:14:35.999Z</time></trkpt><trkpt lat="45.81545630969425" lon="11.797119863156189"><ele>187.33333333333334</ele><time>2026-05-01T11:14:36.999Z</time></trkpt><trkpt lat="45.815456274084745" lon="11.796854829808435"><ele>186.0</ele><time>2026-05-01T11:14:37.999Z</time></trkpt><trkpt lat="45.815458753091995" lon="11.79657707517094"><ele>185.33333333333334</ele><time>2026-05-01T11:14:38.999Z</time></trkpt><trkpt lat="45.81546281528267" lon="11.796284448674093"><ele>184.66666666666669</ele><time>2026-05-01T11:14:39.999Z</time></trkpt><trkpt lat="45.81546536231104" lon="11.795993258775122"><ele>184.0</ele><time>2026-05-01T11:14:40.999Z</time></trkpt><trkpt lat="45.81546809362225" lon="11.795719799010536"><ele>184.0</ele><time>2026-05-01T11:14:41.999Z</time></trkpt><trkpt lat="45.8154724046225" lon="11.79547207586354"><ele>184.0</ele><time>2026-05-01T11:14:42.999Z</time></trkpt><trkpt lat="45.81547402015063" lon="11.795247184519363"><ele>184.0</ele><time>2026-05-01T11:14:43.999Z</time></trkpt><trkpt lat="45.81547641610504" lon="11.795035193148781"><ele>184.5</ele><time>2026-05-01T11:14:44.999Z</time></trkpt><trkpt lat="45.815476570163504" lon="11.794832337966294"><ele>185.0</ele><time>2026-05-01T11:14:45.999Z</time></trkpt><trkpt lat="45.815478508672356" lon="11.79463335597867"><ele>185.5</ele><time>2026-05-01T11:14:46.999Z</time></trkpt><trkpt lat="45.81548076647382" lon="11.79443402730922"><ele>186.0</ele><time>2026-05-01T11:14:47.999Z</time></trkpt><trkpt lat="45.815477319929784" lon="11.794233568922722"><ele>186.0</ele><time>2026-05-01T11:14:48.999Z</time></trkpt><trkpt lat="45.815467058746954" lon="11.794030289347583"><ele>186.0</ele><time>2026-05-01T11:14:49.999Z</time></trkpt><trkpt lat="45.81544981484974" lon="11.793821356563592"><ele>186.0</ele><time>2026-05-01T11:14:50.999Z</time></trkpt><trkpt lat="45.81541174908529" lon="11.793604670024681"><ele>186.0</ele><time>2026-05-01T11:14:51.999Z</time></trkpt><trkpt lat="45.81535241018853" lon="11.793382669953717"><ele>185.33333333333334</ele><time>2026-05-01T11:14:52.999Z</time></trkpt><trkpt lat="45.815279349146444" lon="11.79316775421704"><ele>184.66666666666669</ele><time>2026-05-01T11:14:53.999Z</time></trkpt><trkpt lat="45.815188262863636" lon="11.792960708633583"><ele>184.0</ele><time>2026-05-01T11:14:54.999Z</time></trkpt><trkpt lat="45.81506791938341" lon="11.792770474565069"><ele>186.66666666666669</ele><time>2026-05-01T11:14:55.999Z</time></trkpt><trkpt lat="45.81492462016841" lon="11.792594837913926"><ele>189.33333333333334</ele><time>2026-05-01T11:14:56.999Z</time></trkpt><trkpt lat="45.81474584236644" lon="11.792455541503731"><ele>192.0</ele><time>2026-05-01T11:14:58Z</time></trkpt><trkpt lat="45.81456125010968" lon="11.79232911378065"><ele>192.0</ele><time>2026-05-01T11:14:59Z</time></trkpt><trkpt lat="45.8143886579246" lon="11.792195686616955"><ele>192.0</ele><time>2026-05-01T11:15:00Z</time></trkpt><trkpt lat="45.81422582797075" lon="11.792046887207515"><ele>192.0</ele><time>2026-05-01T11:15:01Z</time></trkpt><trkpt lat="45.81407359749165" lon="11.791887200889235"><ele>191.66666666666666</ele><time>2026-05-01T11:15:02Z</time></trkpt><trkpt lat="45.813934983579095" lon="11.79172708033718"><ele>191.33333333333331</ele><time>2026-05-01T11:15:03Z</time></trkpt><trkpt lat="45.81380641365955" lon="11.791578139264594"><ele>191.0</ele><time>2026-05-01T11:15:04Z</time></trkpt><trkpt lat="45.81368346126863" lon="11.791439171477167"><ele>191.0</ele><time>2026-05-01T11:15:05Z</time></trkpt><trkpt lat="45.81356221080884" lon="11.79130310245515"><ele>191.0</ele><time>2026-05-01T11:15:06Z</time></trkpt><trkpt lat="45.81344360487068" lon="11.79116506570167"><ele>191.0</ele><time>2026-05-01T11:15:07Z</time></trkpt><trkpt lat="45.813324886882526" lon="11.791024632801333"><ele>190.66666666666666</ele><time>2026-05-01T11:15:08Z</time></trkpt><trkpt lat="45.81320367029729" lon="11.790884345833199"><ele>190.33333333333334</ele><time>2026-05-01T11:15:09Z</time></trkpt><trkpt lat="45.813083096744435" lon="11.790742953313382"><ele>190.0</ele><time>2026-05-01T11:15:10Z</time></trkpt><trkpt lat="45.8129639101975" lon="11.790604461635589"><ele>190.0</ele><time>2026-05-01T11:15:11Z</time></trkpt><trkpt lat="45.812844844767" lon="11.790469265601986"><ele>190.0</ele><time>2026-05-01T11:15:12Z</time></trkpt><trkpt lat="45.812728097152274" lon="11.790331608030977"><ele>190.0</ele><time>2026-05-01T11:15:13Z</time></trkpt><trkpt lat="45.812611191975385" lon="11.790193911318484"><ele>189.75</ele><time>2026-05-01T11:15:14Z</time></trkpt><trkpt lat="45.8124966014728" lon="11.790059582380655"><ele>189.5</ele><time>2026-05-01T11:15:15Z</time></trkpt><trkpt lat="45.81238600946151" lon="11.789932747333173"><ele>189.25</ele><time>2026-05-01T11:15:16Z</time></trkpt><trkpt lat="45.812271851578224" lon="11.78980410084644"><ele>189.0</ele><time>2026-05-01T11:15:17Z</time></trkpt><trkpt lat="45.812151058955834" lon="11.78967022875925"><ele>189.0</ele><time>2026-05-01T11:15:18Z</time></trkpt><trkpt lat="45.81202177870744" lon="11.789525074443151"><ele>189.0</ele><time>2026-05-01T11:15:19Z</time></trkpt><trkpt lat="45.8118996232442" lon="11.789349150556733"><ele>189.0</ele><time>2026-05-01T11:15:20Z</time></trkpt><trkpt lat="45.8117540010445" lon="11.789205225428477"><ele>187.33333333333334</ele><time>2026-05-01T11:15:21Z</time></trkpt><trkpt lat="45.811618504791404" lon="11.789043541898746"><ele>185.66666666666669</ele><time>2026-05-01T11:15:22Z</time></trkpt><trkpt lat="45.81148428933861" lon="11.788885260255986"><ele>184.0</ele><time>2026-05-01T11:15:23Z</time></trkpt><trkpt lat="45.81135293066574" lon="11.788729808260928"><ele>184.0</ele><time>2026-05-01T11:15:24Z</time></trkpt><trkpt lat="45.81122492394839" lon="11.788576702478931"><ele>184.0</ele><time>2026-05-01T11:15:25Z</time></trkpt><trkpt lat="45.8110992625868" lon="11.788425421174681"><ele>184.0</ele><time>2026-05-01T11:15:26Z</time></trkpt><trkpt lat="45.81097935795076" lon="11.788282340646292"><ele>183.0</ele><time>2026-05-01T11:15:27Z</time></trkpt><trkpt lat="45.810863739307" lon="11.788144126050561"><ele>182.0</ele><time>2026-05-01T11:15:28Z</time></trkpt><trkpt lat="45.810748178452876" lon="11.788007583969085"><ele>181.0</ele><time>2026-05-01T11:15:29Z</time></trkpt><trkpt lat="45.810632785160244" lon="11.787870927740245"><ele>181.0</ele><time>2026-05-01T11:15:29.999Z</time></trkpt><trkpt lat="45.81051974808119" lon="11.787734676673612"><ele>181.0</ele><time>2026-05-01T11:15:30.999Z</time></trkpt><trkpt lat="45.81040689671131" lon="11.78759783938902"><ele>181.0</ele><time>2026-05-01T11:15:31.999Z</time></trkpt><trkpt lat="45.810293106381195" lon="11.78745618607392"><ele>181.0</ele><time>2026-05-01T11:15:32.999Z</time></trkpt><trkpt lat="45.81017814809597" lon="11.78730616081147"><ele>181.0</ele><time>2026-05-01T11:15:33.999Z</time></trkpt><trkpt lat="45.81006570822145" lon="11.787137901775047"><ele>181.0</ele><time>2026-05-01T11:15:34.999Z</time></trkpt><trkpt lat="45.80996363870809" lon="11.786945413106995"><ele>181.0</ele><time>2026-05-01T11:15:35.999Z</time></trkpt><trkpt lat="45.80987074223831" lon="11.786735315199104"><ele>181.0</ele><time>2026-05-01T11:15:36.999Z</time></trkpt><trkpt lat="45.809786323494265" lon="11.786514990152078"><ele>181.0</ele><time>2026-05-01T11:15:37.999Z</time></trkpt><trkpt lat="45.80970975082706" lon="11.786291082341945"><ele>181.0</ele><time>2026-05-01T11:15:38.999Z</time></trkpt><trkpt lat="45.80963802396614" lon="11.786068514430468"><ele>182.0</ele><time>2026-05-01T11:15:39.999Z</time></trkpt><trkpt lat="45.80956973101083" lon="11.785849044437294"><ele>183.0</ele><time>2026-05-01T11:15:40.999Z</time></trkpt><trkpt lat="45.80950215038173" lon="11.785637411774683"><ele>184.0</ele><time>2026-05-01T11:15:41.999Z</time></trkpt><trkpt lat="45.80943313759209" lon="11.785428836537461"><ele>184.0</ele><time>2026-05-01T11:15:42.999Z</time></trkpt><trkpt lat="45.80936802416948" lon="11.785224518858202"><ele>184.0</ele><time>2026-05-01T11:15:43.999Z</time></trkpt><trkpt lat="45.80930998709973" lon="11.785037757066092"><ele>184.0</ele><time>2026-05-01T11:15:44.999Z</time></trkpt><trkpt lat="45.809253267923125" lon="11.784861083909828"><ele>184.0</ele><time>2026-05-01T11:15:45.999Z</time></trkpt><trkpt lat="45.80920131462932" lon="11.784695501956753"><ele>183.0</ele><time>2026-05-01T11:15:46.999Z</time></trkpt><trkpt lat="45.80915151769967" lon="11.78453564324177"><ele>182.0</ele><time>2026-05-01T11:15:47.999Z</time></trkpt><trkpt lat="45.80910273265873" lon="11.784382653631713"><ele>181.0</ele><time>2026-05-01T11:15:48.999Z</time></trkpt><trkpt lat="45.80905547226203" lon="11.784229634844865"><ele>180.0</ele><time>2026-05-01T11:15:49.999Z</time></trkpt><trkpt lat="45.80900908733185" lon="11.784077757960397"><ele>180.0</ele><time>2026-05-01T11:15:50.999Z</time></trkpt><trkpt lat="45.80896097636727" lon="11.783925817162793"><ele>180.0</ele><time>2026-05-01T11:15:51.999Z</time></trkpt><trkpt lat="45.8089130046353" lon="11.783775711558798"><ele>180.0</ele><time>2026-05-01T11:15:52.999Z</time></trkpt><trkpt lat="45.80886639115816" lon="11.783632404468019"><ele>180.0</ele><time>2026-05-01T11:15:53.999Z</time></trkpt><trkpt lat="45.80882271493873" lon="11.783493715032915"><ele>180.0</ele><time>2026-05-01T11:15:54.999Z</time></trkpt><trkpt lat="45.8087806819019" lon="11.783363065058166"><ele>180.66666666666666</ele><time>2026-05-01T11:15:55.999Z</time></trkpt><trkpt lat="45.80874445662666" lon="11.783244493706604"><ele>181.33333333333334</ele><time>2026-05-01T11:15:56.999Z</time></trkpt><trkpt lat="45.80871329608732" lon="11.783139710820267"><ele>182.0</ele><time>2026-05-01T11:15:57.999Z</time></trkpt><trkpt lat="45.80868201850658" lon="11.783042338998243"><ele>182.66666666666669</ele><time>2026-05-01T11:15:58.999Z</time></trkpt><trkpt lat="45.80864800654273" lon="11.782944602816405"><ele>183.33333333333334</ele><time>2026-05-01T11:15:59.999Z</time></trkpt><trkpt lat="45.80861527937297" lon="11.782850760322297"><ele>184.0</ele><time>2026-05-01T11:16:00.999Z</time></trkpt><trkpt lat="45.80858308271099" lon="11.782754238507767"><ele>184.33333333333334</ele><time>2026-05-01T11:16:01.999Z</time></trkpt><trkpt lat="45.80854759372711" lon="11.782652188923926"><ele>184.66666666666669</ele><time>2026-05-01T11:16:02.999Z</time></trkpt><trkpt lat="45.808509877417876" lon="11.782538053686118"><ele>185.0</ele><time>2026-05-01T11:16:03.999Z</time></trkpt><trkpt lat="45.80847302797476" lon="11.782420327007262"><ele>185.33333333333334</ele><time>2026-05-01T11:16:04.999Z</time></trkpt><trkpt lat="45.80843555962753" lon="11.782298174072313"><ele>185.66666666666666</ele><time>2026-05-01T11:16:05.999Z</time></trkpt><trkpt lat="45.80839681932322" lon="11.782170150301226"><ele>186.0</ele><time>2026-05-01T11:16:06.999Z</time></trkpt><trkpt lat="45.80835694486712" lon="11.782040409206843"><ele>184.5</ele><time>2026-05-01T11:16:07.999Z</time></trkpt><trkpt lat="45.80831554868018" lon="11.781913689016486"><ele>183.0</ele><time>2026-05-01T11:16:08.999Z</time></trkpt><trkpt lat="45.80827634390694" lon="11.781794521192026"><ele>181.5</ele><time>2026-05-01T11:16:09.999Z</time></trkpt><trkpt lat="45.80823975481095" lon="11.78168069330718"><ele>180.0</ele><time>2026-05-01T11:16:10.999Z</time></trkpt><trkpt lat="45.80820565086616" lon="11.781574498043192"><ele>178.5</ele><time>2026-05-01T11:16:11.999Z</time></trkpt><trkpt lat="45.80817199153406" lon="11.781472350165663"><ele>177.0</ele><time>2026-05-01T11:16:12.999Z</time></trkpt><trkpt lat="45.808139923858114" lon="11.781377824625189"><ele>177.0</ele><time>2026-05-01T11:16:13.999Z</time></trkpt><trkpt lat="45.808109946205114" lon="11.781286016761104"><ele>177.0</ele><time>2026-05-01T11:16:14.999Z</time></trkpt><trkpt lat="45.80808265921806" lon="11.78120038778568"><ele>177.0</ele><time>2026-05-01T11:16:15.999Z</time></trkpt><trkpt lat="45.80803420396122" lon="11.78104965624107"><ele>177.0</ele><time>2026-05-01T11:16:17.999Z</time></trkpt><trkpt lat="45.80798877136387" lon="11.78090238498384"><ele>177.0</ele><time>2026-05-01T11:16:19.999Z</time></trkpt><trkpt lat="45.80793621221144" lon="11.780739246423387"><ele>177.0</ele><time>2026-05-01T11:16:21.999Z</time></trkpt><trkpt lat="45.8079031897991" lon="11.780641903198408"><ele>177.0</ele><time>2026-05-01T11:16:22.999Z</time></trkpt><trkpt lat="45.807865313572364" lon="11.78052539859464"><ele>177.0</ele><time>2026-05-01T11:16:23.999Z</time></trkpt><trkpt lat="45.807823269516184" lon="11.780390478289862"><ele>177.0</ele><time>2026-05-01T11:16:24.999Z</time></trkpt><trkpt lat="45.80777691158169" lon="11.780245485949234"><ele>177.0</ele><time>2026-05-01T11:16:25.999Z</time></trkpt><trkpt lat="45.80772941060588" lon="11.780095328145606"><ele>176.75</ele><time>2026-05-01T11:16:26.999Z</time></trkpt><trkpt lat="45.807680153306926" lon="11.779942300901954"><ele>176.5</ele><time>2026-05-01T11:16:27.999Z</time></trkpt><trkpt lat="45.80762927234432" lon="11.779785960673928"><ele>176.25</ele><time>2026-05-01T11:16:28.999Z</time></trkpt><trkpt lat="45.807577822925154" lon="11.779624779683282"><ele>176.0</ele><time>2026-05-01T11:16:29.999Z</time></trkpt><trkpt lat="45.807524315934415" lon="11.77945954123877"><ele>174.75</ele><time>2026-05-01T11:16:30.999Z</time></trkpt><trkpt lat="45.80747156258216" lon="11.779298074397909"><ele>173.5</ele><time>2026-05-01T11:16:31.999Z</time></trkpt><trkpt lat="45.80741901594551" lon="11.779139236486637"><ele>172.25</ele><time>2026-05-01T11:16:32.999Z</time></trkpt><trkpt lat="45.80736755203474" lon="11.778981821329062"><ele>171.0</ele><time>2026-05-01T11:16:33.999Z</time></trkpt><trkpt lat="45.807315824275754" lon="11.778822156368692"><ele>171.0</ele><time>2026-05-01T11:16:34.999Z</time></trkpt><trkpt lat="45.807265508842725" lon="11.778660767071111"><ele>171.0</ele><time>2026-05-01T11:16:35.999Z</time></trkpt><trkpt lat="45.80721424185959" lon="11.778499344011076"><ele>171.0</ele><time>2026-05-01T11:16:36.999Z</time></trkpt><trkpt lat="45.80716172278932" lon="11.778337597396533"><ele>171.0</ele><time>2026-05-01T11:16:37.999Z</time></trkpt><trkpt lat="45.8071075987783" lon="11.778173733492801"><ele>171.5</ele><time>2026-05-01T11:16:38.999Z</time></trkpt><trkpt lat="45.807054056180434" lon="11.778008020899259"><ele>172.0</ele><time>2026-05-01T11:16:39.999Z</time></trkpt><trkpt lat="45.80699821378913" lon="11.777837744770304"><ele>172.5</ele><time>2026-05-01T11:16:40.999Z</time></trkpt><trkpt lat="45.80694254777068" lon="11.777665519789629"><ele>173.0</ele><time>2026-05-01T11:16:41.999Z</time></trkpt><trkpt lat="45.80688546181109" lon="11.777486383153988"><ele>173.0</ele><time>2026-05-01T11:16:42.999Z</time></trkpt><trkpt lat="45.80682378335264" lon="11.777296016489846"><ele>173.0</ele><time>2026-05-01T11:16:43.999Z</time></trkpt><trkpt lat="45.80675887186581" lon="11.777094959604113"><ele>173.0</ele><time>2026-05-01T11:16:44.999Z</time></trkpt><trkpt lat="45.806694796756" lon="11.776886177935237"><ele>173.33333333333331</ele><time>2026-05-01T11:16:45.999Z</time></trkpt><trkpt lat="45.80662978336936" lon="11.77667417472684"><ele>173.66666666666666</ele><time>2026-05-01T11:16:46.999Z</time></trkpt><trkpt lat="45.80656106345196" lon="11.776466650715726"><ele>174.0</ele><time>2026-05-01T11:16:47.999Z</time></trkpt><trkpt lat="45.80649266026032" lon="11.776259074527145"><ele>174.0</ele><time>2026-05-01T11:16:48.999Z</time></trkpt><trkpt lat="45.80642931421753" lon="11.77607232459816"><ele>174.0</ele><time>2026-05-01T11:16:49.999Z</time></trkpt><trkpt lat="45.80637308144066" lon="11.775905998692549"><ele>174.0</ele><time>2026-05-01T11:16:50.999Z</time></trkpt><trkpt lat="45.8063251506195" lon="11.775763132009523"><ele>174.0</ele><time>2026-05-01T11:16:51.999Z</time></trkpt><trkpt lat="45.806282210130576" lon="11.775632500109152"><ele>174.2</ele><time>2026-05-01T11:16:52.999Z</time></trkpt><trkpt lat="45.80625516530093" lon="11.775498676808793"><ele>174.39999999999998</ele><time>2026-05-01T11:16:53.999Z</time></trkpt><trkpt lat="45.80621096727217" lon="11.77536817415325"><ele>174.6</ele><time>2026-05-01T11:16:54.999Z</time></trkpt><trkpt lat="45.80615294480688" lon="11.775243573147153"><ele>174.8</ele><time>2026-05-01T11:16:55.999Z</time></trkpt><trkpt lat="45.8061071199633" lon="11.775103142123616"><ele>175.0</ele><time>2026-05-01T11:16:56.999Z</time></trkpt><trkpt lat="45.80606039164162" lon="11.77496184789031"><ele>175.25</ele><time>2026-05-01T11:16:57.999Z</time></trkpt><trkpt lat="45.80601322453414" lon="11.774820728247468"><ele>175.5</ele><time>2026-05-01T11:16:58.999Z</time></trkpt><trkpt lat="45.80596195594746" lon="11.774676783935119"><ele>175.75</ele><time>2026-05-01T11:16:59.999Z</time></trkpt><trkpt lat="45.80591191416199" lon="11.774527125075398"><ele>176.0</ele><time>2026-05-01T11:17:00.999Z</time></trkpt><trkpt lat="45.80585893161559" lon="11.7743723505054"><ele>176.0</ele><time>2026-05-01T11:17:01.999Z</time></trkpt><trkpt lat="45.80580333116191" lon="11.77421455605453"><ele>176.0</ele><time>2026-05-01T11:17:03Z</time></trkpt><trkpt lat="45.80574527870355" lon="11.774048005781852"><ele>176.0</ele><time>2026-05-01T11:17:04Z</time></trkpt><trkpt lat="45.805686087608" lon="11.77387769417838"><ele>176.0</ele><time>2026-05-01T11:17:05Z</time></trkpt><trkpt lat="45.80562305446053" lon="11.77370383465472"><ele>176.0</ele><time>2026-05-01T11:17:06Z</time></trkpt><trkpt lat="45.80555984842979" lon="11.773523438704139"><ele>176.0</ele><time>2026-05-01T11:17:07Z</time></trkpt><trkpt lat="45.805497556231884" lon="11.773344293919223"><ele>176.0</ele><time>2026-05-01T11:17:08Z</time></trkpt><trkpt lat="45.80543306096263" lon="11.773165797938736"><ele>176.0</ele><time>2026-05-01T11:17:09Z</time></trkpt><trkpt lat="45.80536756375739" lon="11.772982064469167"><ele>176.0</ele><time>2026-05-01T11:17:10Z</time></trkpt><trkpt lat="45.80529955808901" lon="11.772797488774339"><ele>176.0</ele><time>2026-05-01T11:17:11Z</time></trkpt><trkpt lat="45.80523214604724" lon="11.77261344083941"><ele>176.0</ele><time>2026-05-01T11:17:12Z</time></trkpt><trkpt lat="45.80516442688163" lon="11.772427016398382"><ele>176.0</ele><time>2026-05-01T11:17:13Z</time></trkpt><trkpt lat="45.80509707970441" lon="11.772235074234178"><ele>176.66666666666666</ele><time>2026-05-01T11:17:14Z</time></trkpt><trkpt lat="45.80502785083208" lon="11.772040245193468"><ele>177.33333333333334</ele><time>2026-05-01T11:17:15Z</time></trkpt><trkpt lat="45.804956533707745" lon="11.77184040500055"><ele>178.0</ele><time>2026-05-01T11:17:16Z</time></trkpt><trkpt lat="45.804882943618956" lon="11.771635954149321"><ele>179.0</ele><time>2026-05-01T11:17:17Z</time></trkpt><trkpt lat="45.8048061628439" lon="11.7714308611391"><ele>180.0</ele><time>2026-05-01T11:17:18Z</time></trkpt><trkpt lat="45.80473183212253" lon="11.771217973889039"><ele>181.0</ele><time>2026-05-01T11:17:19Z</time></trkpt><trkpt lat="45.80465679129878" lon="11.771001798186623"><ele>181.66666666666669</ele><time>2026-05-01T11:17:20Z</time></trkpt><trkpt lat="45.80457848765736" lon="11.770784315316847"><ele>182.33333333333334</ele><time>2026-05-01T11:17:21Z</time></trkpt><trkpt lat="45.80450122448179" lon="11.770565513755187"><ele>183.0</ele><time>2026-05-01T11:17:22Z</time></trkpt><trkpt lat="45.804422950842095" lon="11.770346058036015"><ele>183.33333333333334</ele><time>2026-05-01T11:17:23Z</time></trkpt><trkpt lat="45.8043416690368" lon="11.770128658762602"><ele>183.66666666666669</ele><time>2026-05-01T11:17:24Z</time></trkpt><trkpt lat="45.80425916284136" lon="11.769913556731133"><ele>184.0</ele><time>2026-05-01T11:17:25Z</time></trkpt><trkpt lat="45.80417789310004" lon="11.76970183665725"><ele>184.0</ele><time>2026-05-01T11:17:26Z</time></trkpt><trkpt lat="45.80409739169546" lon="11.769498998864565"><ele>184.0</ele><time>2026-05-01T11:17:27Z</time></trkpt><trkpt lat="45.8040202851951" lon="11.769298301472245"><ele>184.0</ele><time>2026-05-01T11:17:28Z</time></trkpt><trkpt lat="45.80394583640031" lon="11.769101771248726"><ele>184.66666666666669</ele><time>2026-05-01T11:17:29Z</time></trkpt><trkpt lat="45.80387292127951" lon="11.768908932513341"><ele>185.33333333333334</ele><time>2026-05-01T11:17:30Z</time></trkpt><trkpt lat="45.80379829499972" lon="11.76872124611153"><ele>186.0</ele><time>2026-05-01T11:17:30.999Z</time></trkpt><trkpt lat="45.80371535375137" lon="11.768539344474915"><ele>186.0</ele><time>2026-05-01T11:17:31.999Z</time></trkpt><trkpt lat="45.80362687769575" lon="11.768361086571328"><ele>186.0</ele><time>2026-05-01T11:17:32.999Z</time></trkpt><trkpt lat="45.803535747878115" lon="11.768180070411416"><ele>186.0</ele><time>2026-05-01T11:17:33.999Z</time></trkpt><trkpt lat="45.80344456638676" lon="11.76799663307024"><ele>186.0</ele><time>2026-05-01T11:17:34.999Z</time></trkpt><trkpt lat="45.80335401464168" lon="11.767811290845183"><ele>186.0</ele><time>2026-05-01T11:17:35.999Z</time></trkpt><trkpt lat="45.80326459810732" lon="11.767625724404281"><ele>186.0</ele><time>2026-05-01T11:17:36.999Z</time></trkpt><trkpt lat="45.80318277478609" lon="11.767435032370292"><ele>187.33333333333334</ele><time>2026-05-01T11:17:37.999Z</time></trkpt><trkpt lat="45.80310970786558" lon="11.767236324013329"><ele>188.66666666666669</ele><time>2026-05-01T11:17:38.999Z</time></trkpt><trkpt lat="45.803051583365544" lon="11.767027389847367"><ele>190.0</ele><time>2026-05-01T11:17:39.999Z</time></trkpt><trkpt lat="45.80301186475807" lon="11.76680880823515"><ele>190.33333333333334</ele><time>2026-05-01T11:17:40.999Z</time></trkpt><trkpt lat="45.802984949438475" lon="11.76658936645733"><ele>190.66666666666666</ele><time>2026-05-01T11:17:41.999Z</time></trkpt><trkpt lat="45.80296724682665" lon="11.766378032097167"><ele>191.0</ele><time>2026-05-01T11:17:42.999Z</time></trkpt><trkpt lat="45.80294295201694" lon="11.76615810328606"><ele>191.5</ele><time>2026-05-01T11:17:43.999Z</time></trkpt><trkpt lat="45.80289856648435" lon="11.765955086801782"><ele>192.0</ele><time>2026-05-01T11:17:44.999Z</time></trkpt><trkpt lat="45.80283414790221" lon="11.765762836625594"><ele>192.5</ele><time>2026-05-01T11:17:45.999Z</time></trkpt><trkpt lat="45.80275287671642" lon="11.765578493991962"><ele>193.0</ele><time>2026-05-01T11:17:46.999Z</time></trkpt><trkpt lat="45.802660885066295" lon="11.765408592482984"><ele>195.0</ele><time>2026-05-01T11:17:47.999Z</time></trkpt><trkpt lat="45.80256489278517" lon="11.765248493499906"><ele>197.0</ele><time>2026-05-01T11:17:48.999Z</time></trkpt><trkpt lat="45.80246878259314" lon="11.765098721305176"><ele>199.0</ele><time>2026-05-01T11:17:49.999Z</time></trkpt><trkpt lat="45.802375696206894" lon="11.764945389512485"><ele>201.0</ele><time>2026-05-01T11:17:50.999Z</time></trkpt><trkpt lat="45.802281808204036" lon="11.764791478476099"><ele>201.0</ele><time>2026-05-01T11:17:51.999Z</time></trkpt><trkpt lat="45.80218691324657" lon="11.764636402231313"><ele>201.0</ele><time>2026-05-01T11:17:52.999Z</time></trkpt><trkpt lat="45.80209245412795" lon="11.76449216928065"><ele>201.0</ele><time>2026-05-01T11:17:53.999Z</time></trkpt><trkpt lat="45.80200598812273" lon="11.764361163663638"><ele>201.0</ele><time>2026-05-01T11:17:54.999Z</time></trkpt><trkpt lat="45.801917714891125" lon="11.764240609697701"><ele>200.0</ele><time>2026-05-01T11:17:55.999Z</time></trkpt><trkpt lat="45.80183077144989" lon="11.764108142207336"><ele>199.0</ele><time>2026-05-01T11:17:56.999Z</time></trkpt><trkpt lat="45.8017009544584" lon="11.7640327982512"><ele>198.0</ele><time>2026-05-01T11:17:57.999Z</time></trkpt><trkpt lat="45.801561540107336" lon="11.763952434954751"><ele>197.0</ele><time>2026-05-01T11:17:58.999Z</time></trkpt><trkpt lat="45.801413914682364" lon="11.763879627673633"><ele>197.0</ele><time>2026-05-01T11:17:59.999Z</time></trkpt><trkpt lat="45.8012607102666" lon="11.76380402506519"><ele>197.0</ele><time>2026-05-01T11:18:00.999Z</time></trkpt><trkpt lat="45.80110493509638" lon="11.763725993054441"><ele>197.0</ele><time>2026-05-01T11:18:01.999Z</time></trkpt><trkpt lat="45.80095491075382" lon="11.763655063185851"><ele>196.39999999999998</ele><time>2026-05-01T11:18:02.999Z</time></trkpt><trkpt lat="45.80082033483264" lon="11.763589120175347"><ele>195.79999999999998</ele><time>2026-05-01T11:18:03.999Z</time></trkpt><trkpt lat="45.800708490617914" lon="11.763536636275337"><ele>195.2</ele><time>2026-05-01T11:18:04.999Z</time></trkpt><trkpt lat="45.800622878810884" lon="11.763493570654315"><ele>194.6</ele><time>2026-05-01T11:18:05.999Z</time></trkpt><trkpt lat="45.80052986169789" lon="11.763454457609459"><ele>194.0</ele><time>2026-05-01T11:18:07.999Z</time></trkpt><trkpt lat="45.8004623327535" lon="11.763424742241396"><ele>193.00000000000003</ele><time>2026-05-01T11:18:09.999Z</time></trkpt><trkpt lat="45.80043237176429" lon="11.763342708379938"><ele>192.0</ele><time>2026-05-01T11:18:11.999Z</time></trkpt><trkpt lat="45.800512854491885" lon="11.76328333068364"><ele>191.0</ele><time>2026-05-01T11:18:13.999Z</time></trkpt><trkpt lat="45.80062363184626" lon="11.76321540748548"><ele>190.0</ele><time>2026-05-01T11:18:15.999Z</time></trkpt><trkpt lat="45.80069636724491" lon="11.763187175634407"><ele>189.0</ele><time>2026-05-01T11:18:16.999Z</time></trkpt><trkpt lat="45.800772728667965" lon="11.76314358551701"><ele>188.0</ele><time>2026-05-01T11:18:17.999Z</time></trkpt><trkpt lat="45.80083901998555" lon="11.763079380536938"><ele>188.0</ele><time>2026-05-01T11:18:18.999Z</time></trkpt><trkpt lat="45.80089119363311" lon="11.762991593139544"><ele>188.0</ele><time>2026-05-01T11:18:19.999Z</time></trkpt><trkpt lat="45.800923882371166" lon="11.762884820659488"><ele>188.0</ele><time>2026-05-01T11:18:20.999Z</time></trkpt><trkpt lat="45.80092591787266" lon="11.762772346065676"><ele>188.0</ele><time>2026-05-01T11:18:21.999Z</time></trkpt><trkpt lat="45.800917702634905" lon="11.762669247490198"><ele>188.0</ele><time>2026-05-01T11:18:22.999Z</time></trkpt><trkpt lat="45.800908908698155" lon="11.762559661425358"><ele>188.0</ele><time>2026-05-01T11:18:23.999Z</time></trkpt><trkpt lat="45.80090031060426" lon="11.762463303866488"><ele>187.42857142857142</ele><time>2026-05-01T11:18:24.999Z</time></trkpt><trkpt lat="45.800888917249914" lon="11.762373644732946"><ele>186.85714285714283</ele><time>2026-05-01T11:18:25.999Z</time></trkpt><trkpt lat="45.80087348879356" lon="11.762281243044631"><ele>186.28571428571428</ele><time>2026-05-01T11:18:26.999Z</time></trkpt><trkpt lat="45.8008587759583" lon="11.762190392935338"><ele>185.71428571428572</ele><time>2026-05-01T11:18:27.999Z</time></trkpt><trkpt lat="45.80084763803865" lon="11.762094363023222"><ele>185.14285714285714</ele><time>2026-05-01T11:18:28.999Z</time></trkpt><trkpt lat="45.80083214499941" lon="11.761994000162389"><ele>184.57142857142858</ele><time>2026-05-01T11:18:29.999Z</time></trkpt><trkpt lat="45.800814267740414" lon="11.761893378015209"><ele>184.0</ele><time>2026-05-01T11:18:30.999Z</time></trkpt><trkpt lat="45.80080152268861" lon="11.761802163374941"><ele>183.83333333333334</ele><time>2026-05-01T11:18:31.999Z</time></trkpt><trkpt lat="45.800787611585676" lon="11.761707850959358"><ele>183.66666666666669</ele><time>2026-05-01T11:18:32.999Z</time></trkpt><trkpt lat="45.80077456707739" lon="11.761607054348111"><ele>183.5</ele><time>2026-05-01T11:18:33.999Z</time></trkpt><trkpt lat="45.800764089600634" lon="11.761503267487049"><ele>183.33333333333334</ele><time>2026-05-01T11:18:34.999Z</time></trkpt><trkpt lat="45.80075507540892" lon="11.761392091620921"><ele>183.16666666666666</ele><time>2026-05-01T11:18:35.999Z</time></trkpt><trkpt lat="45.80074924205123" lon="11.761272942699447"><ele>183.0</ele><time>2026-05-01T11:18:36.999Z</time></trkpt><trkpt lat="45.800754983632345" lon="11.761156644842309"><ele>183.0</ele><time>2026-05-01T11:18:37.999Z</time></trkpt><trkpt lat="45.80077483008254" lon="11.76104167161164"><ele>183.0</ele><time>2026-05-01T11:18:38.999Z</time></trkpt><trkpt lat="45.80080393824155" lon="11.760926261466754"><ele>183.0</ele><time>2026-05-01T11:18:39.999Z</time></trkpt><trkpt lat="45.80084448670149" lon="11.760814010925644"><ele>183.0</ele><time>2026-05-01T11:18:40.999Z</time></trkpt><trkpt lat="45.80089606641042" lon="11.760709489100272"><ele>183.0</ele><time>2026-05-01T11:18:41.999Z</time></trkpt><trkpt lat="45.80094516009759" lon="11.760611034302913"><ele>183.0</ele><time>2026-05-01T11:18:42.999Z</time></trkpt><trkpt lat="45.80099484019347" lon="11.760519285326149"><ele>183.33333333333334</ele><time>2026-05-01T11:18:43.999Z</time></trkpt><trkpt lat="45.801047277750186" lon="11.760429346408872"><ele>183.66666666666666</ele><time>2026-05-01T11:18:44.999Z</time></trkpt><trkpt lat="45.801105489180785" lon="11.760342117681814"><ele>184.0</ele><time>2026-05-01T11:18:45.999Z</time></trkpt><trkpt lat="45.80116781157339" lon="11.760255209674341"><ele>184.33333333333331</ele><time>2026-05-01T11:18:46.999Z</time></trkpt><trkpt lat="45.80123434428762" lon="11.760168726819595"><ele>184.66666666666666</ele><time>2026-05-01T11:18:47.999Z</time></trkpt><trkpt lat="45.801304913087904" lon="11.760080543953867"><ele>185.0</ele><time>2026-05-01T11:18:48.999Z</time></trkpt><trkpt lat="45.8013768327653" lon="11.759988789254734"><ele>185.0</ele><time>2026-05-01T11:18:49.999Z</time></trkpt><trkpt lat="45.80145145856581" lon="11.75989543666527"><ele>185.0</ele><time>2026-05-01T11:18:50.999Z</time></trkpt><trkpt lat="45.80152593608773" lon="11.759799247752857"><ele>185.0</ele><time>2026-05-01T11:18:51.999Z</time></trkpt><trkpt lat="45.80159558702234" lon="11.759706798287617"><ele>185.0</ele><time>2026-05-01T11:18:52.999Z</time></trkpt><trkpt lat="45.80166110120704" lon="11.759617415483476"><ele>185.0</ele><time>2026-05-01T11:18:53.999Z</time></trkpt><trkpt lat="45.80171953276352" lon="11.759520622777071"><ele>185.0</ele><time>2026-05-01T11:18:54.999Z</time></trkpt><trkpt lat="45.80176679762376" lon="11.759415570460748"><ele>185.0</ele><time>2026-05-01T11:18:55.999Z</time></trkpt><trkpt lat="45.80179301854264" lon="11.75929720309541"><ele>185.0</ele><time>2026-05-01T11:18:56.999Z</time></trkpt><trkpt lat="45.80180826084982" lon="11.759165043368858"><ele>185.0</ele><time>2026-05-01T11:18:57.999Z</time></trkpt><trkpt lat="45.80181642724024" lon="11.759025281353473"><ele>185.0</ele><time>2026-05-01T11:18:58.999Z</time></trkpt><trkpt lat="45.80182401679298" lon="11.758894095964044"><ele>185.5</ele><time>2026-05-01T11:18:59.999Z</time></trkpt><trkpt lat="45.801852347668806" lon="11.758777007846696"><ele>186.0</ele><time>2026-05-01T11:19:00.999Z</time></trkpt><trkpt lat="45.80187703020226" lon="11.758681737467947"><ele>186.5</ele><time>2026-05-01T11:19:01.999Z</time></trkpt><trkpt lat="45.80189943446323" lon="11.758596230580842"><ele>187.0</ele><time>2026-05-01T11:19:02.999Z</time></trkpt><trkpt lat="45.80192145825058" lon="11.758508167395368"><ele>187.5</ele><time>2026-05-01T11:19:03.999Z</time></trkpt><trkpt lat="45.80195903187341" lon="11.758372926995406"><ele>188.0</ele><time>2026-05-01T11:19:05.999Z</time></trkpt><trkpt lat="45.80199185365957" lon="11.758271524507377"><ele>188.16666666666666</ele><time>2026-05-01T11:19:07.999Z</time></trkpt><trkpt lat="45.80201945758638" lon="11.758170783893144"><ele>188.33333333333331</ele><time>2026-05-01T11:19:10Z</time></trkpt><trkpt lat="45.802044737808124" lon="11.758079582037382"><ele>188.5</ele><time>2026-05-01T11:19:12Z</time></trkpt><trkpt lat="45.80206410832586" lon="11.757975780940079"><ele>188.66666666666666</ele><time>2026-05-01T11:19:26Z</time></trkpt><trkpt lat="45.802111768949686" lon="11.757914612737956"><ele>188.83333333333334</ele><time>2026-05-01T11:19:31Z</time></trkpt><trkpt lat="45.80221554942145" lon="11.757938594778103"><ele>189.0</ele><time>2026-05-01T11:19:32Z</time></trkpt><trkpt lat="45.80232175611503" lon="11.757898723779062"><ele>189.0</ele><time>2026-05-01T11:19:33Z</time></trkpt><trkpt lat="45.802443294177166" lon="11.757836879469183"><ele>189.0</ele><time>2026-05-01T11:19:33.999Z</time></trkpt><trkpt lat="45.80257925331213" lon="11.757749103033591"><ele>189.0</ele><time>2026-05-01T11:19:34.999Z</time></trkpt><trkpt lat="45.80270438654293" lon="11.757671815393158"><ele>189.0</ele><time>2026-05-01T11:19:35.999Z</time></trkpt><trkpt lat="45.802810932758746" lon="11.75760582569589"><ele>190.0</ele><time>2026-05-01T11:19:36.999Z</time></trkpt><trkpt lat="45.80291971214193" lon="11.757539076809287"><ele>191.0</ele><time>2026-05-01T11:19:37.999Z</time></trkpt><trkpt lat="45.80302807657045" lon="11.757467275375106"><ele>192.0</ele><time>2026-05-01T11:19:38.999Z</time></trkpt><trkpt lat="45.80313603322231" lon="11.757395902174709"><ele>193.0</ele><time>2026-05-01T11:19:39.999Z</time></trkpt><trkpt lat="45.80323905025484" lon="11.757330244056982"><ele>193.0</ele><time>2026-05-01T11:19:40.999Z</time></trkpt><trkpt lat="45.80332867348361" lon="11.757270735057277"><ele>193.0</ele><time>2026-05-01T11:19:41.999Z</time></trkpt><trkpt lat="45.80341761235444" lon="11.757215449127903"><ele>193.0</ele><time>2026-05-01T11:19:42.999Z</time></trkpt><trkpt lat="45.80350745053079" lon="11.75716054382727"><ele>193.0</ele><time>2026-05-01T11:19:43.999Z</time></trkpt><trkpt lat="45.80359936566955" lon="11.757105290321354"><ele>193.0</ele><time>2026-05-01T11:19:44.999Z</time></trkpt><trkpt lat="45.803693213505206" lon="11.757050075882445"><ele>193.16666666666666</ele><time>2026-05-01T11:19:45.999Z</time></trkpt><trkpt lat="45.803786982819716" lon="11.75699252771646"><ele>193.33333333333331</ele><time>2026-05-01T11:19:46.999Z</time></trkpt><trkpt lat="45.80387269514447" lon="11.756938433270564"><ele>193.5</ele><time>2026-05-01T11:19:47.999Z</time></trkpt><trkpt lat="45.80394563069501" lon="11.756889972643952"><ele>193.66666666666669</ele><time>2026-05-01T11:19:48.999Z</time></trkpt><trkpt lat="45.80402231352377" lon="11.756839806805804"><ele>193.83333333333334</ele><time>2026-05-01T11:19:49.999Z</time></trkpt><trkpt lat="45.804090850092706" lon="11.756795437711252"><ele>194.0</ele><time>2026-05-01T11:19:50.999Z</time></trkpt><trkpt lat="45.80416082162067" lon="11.756749520158175"><ele>195.39999999999998</ele><time>2026-05-01T11:19:51.999Z</time></trkpt><trkpt lat="45.80423425745853" lon="11.756680221325874"><ele>196.8</ele><time>2026-05-01T11:19:52.999Z</time></trkpt><trkpt lat="45.80431270706601" lon="11.75658505778055"><ele>198.2</ele><time>2026-05-01T11:19:53.999Z</time></trkpt><trkpt lat="45.80439893963676" lon="11.756469343634356"><ele>199.60000000000002</ele><time>2026-05-01T11:19:54.999Z</time></trkpt><trkpt lat="45.80449971093373" lon="11.756371427553116"><ele>201.0</ele><time>2026-05-01T11:19:55.999Z</time></trkpt><trkpt lat="45.804612600348456" lon="11.756313511826528"><ele>203.0</ele><time>2026-05-01T11:19:56.999Z</time></trkpt><trkpt lat="45.80473240330693" lon="11.756288668425341"><ele>205.0</ele><time>2026-05-01T11:19:57.999Z</time></trkpt><trkpt lat="45.80486240960017" lon="11.756313744709471"><ele>207.0</ele><time>2026-05-01T11:19:58.999Z</time></trkpt><trkpt lat="45.805002516028196" lon="11.756372951841202"><ele>209.0</ele><time>2026-05-01T11:19:59.999Z</time></trkpt><trkpt lat="45.805163657996346" lon="11.75643495583906"><ele>214.0</ele><time>2026-05-01T11:20:00.999Z</time></trkpt><trkpt lat="45.80533658223248" lon="11.756492738627001"><ele>219.0</ele><time>2026-05-01T11:20:01.999Z</time></trkpt><trkpt lat="45.80549506025579" lon="11.75655660281016"><ele>224.0</ele><time>2026-05-01T11:20:02.999Z</time></trkpt><trkpt lat="45.805643077209176" lon="11.756603877262078"><ele>224.0</ele><time>2026-05-01T11:20:03.999Z</time></trkpt><trkpt lat="45.805780809856714" lon="11.75663888503846"><ele>224.0</ele><time>2026-05-01T11:20:04.999Z</time></trkpt><trkpt lat="45.80591065052991" lon="11.756665889011403"><ele>224.0</ele><time>2026-05-01T11:20:05.999Z</time></trkpt><trkpt lat="45.80605541238182" lon="11.756688986236886"><ele>224.0</ele><time>2026-05-01T11:20:06.999Z</time></trkpt><trkpt lat="45.80621609572591" lon="11.75671147401401"><ele>227.5</ele><time>2026-05-01T11:20:07.999Z</time></trkpt><trkpt lat="45.80636978573222" lon="11.756732976957673"><ele>231.0</ele><time>2026-05-01T11:20:08.999Z</time></trkpt><trkpt lat="45.80650454269428" lon="11.756748580621665"><ele>234.5</ele><time>2026-05-01T11:20:09.999Z</time></trkpt><trkpt lat="45.80664291748679" lon="11.756763936174307"><ele>238.0</ele><time>2026-05-01T11:20:10.999Z</time></trkpt><trkpt lat="45.80678125425571" lon="11.756771448217975"><ele>239.25</ele><time>2026-05-01T11:20:11.999Z</time></trkpt><trkpt lat="45.80692003396397" lon="11.756776846130435"><ele>240.5</ele><time>2026-05-01T11:20:12.999Z</time></trkpt><trkpt lat="45.80705013552003" lon="11.756779419698793"><ele>241.75</ele><time>2026-05-01T11:20:13.999Z</time></trkpt><trkpt lat="45.80717045720344" lon="11.756780390108707"><ele>243.0</ele><time>2026-05-01T11:20:14.999Z</time></trkpt><trkpt lat="45.80728978182545" lon="11.756782908876223"><ele>243.0</ele><time>2026-05-01T11:20:15.999Z</time></trkpt><trkpt lat="45.807402025607416" lon="11.756791968832461"><ele>243.0</ele><time>2026-05-01T11:20:16.999Z</time></trkpt><trkpt lat="45.807491024016706" lon="11.756809614608182"><ele>243.0</ele><time>2026-05-01T11:20:17.999Z</time></trkpt><trkpt lat="45.807572127393804" lon="11.756839533063019"><ele>243.0</ele><time>2026-05-01T11:20:18.999Z</time></trkpt><trkpt lat="45.80763343630224" lon="11.756879029272937"><ele>243.0</ele><time>2026-05-01T11:20:19.999Z</time></trkpt><trkpt lat="45.80773507232665" lon="11.75691640850505"><ele>243.0</ele><time>2026-05-01T11:20:21.999Z</time></trkpt><trkpt lat="45.80779268875821" lon="11.756860365214278"><ele>243.0</ele><time>2026-05-01T11:20:22.999Z</time></trkpt><trkpt lat="45.807816199506995" lon="11.756759376639737"><ele>243.0</ele><time>2026-05-01T11:20:23.999Z</time></trkpt><trkpt lat="45.80781518242331" lon="11.756663046400277"><ele>243.0</ele><time>2026-05-01T11:20:24.999Z</time></trkpt><trkpt lat="45.80771271520559" lon="11.756586508626166"><ele>243.0</ele><time>2026-05-01T11:20:25.999Z</time></trkpt><trkpt lat="45.80759187468895" lon="11.756575349731666"><ele>243.0</ele><time>2026-05-01T11:20:26.999Z</time></trkpt><trkpt lat="45.8074293709084" lon="11.75656171068768"><ele>243.0</ele><time>2026-05-01T11:20:27.999Z</time></trkpt><trkpt lat="45.80725444950252" lon="11.756521803721572"><ele>243.0</ele><time>2026-05-01T11:20:28.999Z</time></trkpt><trkpt lat="45.807063205036506" lon="11.756467650428856"><ele>243.0</ele><time>2026-05-01T11:20:29.999Z</time></trkpt><trkpt lat="45.806904756310416" lon="11.75642018340489"><ele>241.75</ele><time>2026-05-01T11:20:30.999Z</time></trkpt><trkpt lat="45.80676955090754" lon="11.756379608555713"><ele>240.5</ele><time>2026-05-01T11:20:31.999Z</time></trkpt><trkpt lat="45.806637987020565" lon="11.756333697413588"><ele>239.25</ele><time>2026-05-01T11:20:32.999Z</time></trkpt><trkpt lat="45.80649744729715" lon="11.75625549386789"><ele>238.0</ele><time>2026-05-01T11:20:33.999Z</time></trkpt><trkpt lat="45.806355686880764" lon="11.756158658261027"><ele>238.0</ele><time>2026-05-01T11:20:34.999Z</time></trkpt><trkpt lat="45.806205393199804" lon="11.756056704734938"><ele>238.0</ele><time>2026-05-01T11:20:35.999Z</time></trkpt><trkpt lat="45.80606015565798" lon="11.75596974947339"><ele>238.0</ele><time>2026-05-01T11:20:36.999Z</time></trkpt><trkpt lat="45.80592185383819" lon="11.755886478274975"><ele>244.5</ele><time>2026-05-01T11:20:37.999Z</time></trkpt><trkpt lat="45.80578405547063" lon="11.755795531926235"><ele>251.0</ele><time>2026-05-01T11:20:38.999Z</time></trkpt><trkpt lat="45.80565186512807" lon="11.755696885899466"><ele>257.5</ele><time>2026-05-01T11:20:39.999Z</time></trkpt><trkpt lat="45.80552772232521" lon="11.755593203837384"><ele>264.0</ele><time>2026-05-01T11:20:40.999Z</time></trkpt><trkpt lat="45.80541247992762" lon="11.755488505705321"><ele>264.0</ele><time>2026-05-01T11:20:41.999Z</time></trkpt><trkpt lat="45.80530172365423" lon="11.755365001531537"><ele>264.0</ele><time>2026-05-01T11:20:42.999Z</time></trkpt><trkpt lat="45.805193351988635" lon="11.755217866239901"><ele>264.0</ele><time>2026-05-01T11:20:43.999Z</time></trkpt><trkpt lat="45.80508075411069" lon="11.755068425163612"><ele>264.0</ele><time>2026-05-01T11:20:44.999Z</time></trkpt><trkpt lat="45.80496065109162" lon="11.754915497059924"><ele>267.6666666666667</ele><time>2026-05-01T11:20:45.999Z</time></trkpt><trkpt lat="45.80484769198558" lon="11.754739379625443"><ele>271.33333333333337</ele><time>2026-05-01T11:20:46.999Z</time></trkpt><trkpt lat="45.80472643581458" lon="11.754577155811132"><ele>275.0</ele><time>2026-05-01T11:20:47.999Z</time></trkpt><trkpt lat="45.80460041376966" lon="11.754412553036449"><ele>273.6666666666667</ele><time>2026-05-01T11:20:48.999Z</time></trkpt><trkpt lat="45.80447124409095" lon="11.754252173663243"><ele>272.3333333333333</ele><time>2026-05-01T11:20:49.999Z</time></trkpt><trkpt lat="45.80435575981368" lon="11.754084521725554"><ele>271.0</ele><time>2026-05-01T11:20:50.999Z</time></trkpt><trkpt lat="45.80424506016431" lon="11.753902243709604"><ele>271.0</ele><time>2026-05-01T11:20:51.999Z</time></trkpt><trkpt lat="45.804137055826594" lon="11.753721264920184"><ele>271.0</ele><time>2026-05-01T11:20:52.999Z</time></trkpt><trkpt lat="45.80403104433646" lon="11.753543182408151"><ele>271.0</ele><time>2026-05-01T11:20:53.999Z</time></trkpt><trkpt lat="45.80392702294159" lon="11.753368246806527"><ele>281.0</ele><time>2026-05-01T11:20:54.999Z</time></trkpt><trkpt lat="45.80382372885123" lon="11.753189793164106"><ele>291.0</ele><time>2026-05-01T11:20:55.999Z</time></trkpt><trkpt lat="45.80371892944119" lon="11.753013915092714"><ele>301.0</ele><time>2026-05-01T11:20:56.999Z</time></trkpt><trkpt lat="45.80361703042721" lon="11.752845550059401"><ele>296.0</ele><time>2026-05-01T11:20:57.999Z</time></trkpt><trkpt lat="45.80352262438415" lon="11.752676022953038"><ele>291.0</ele><time>2026-05-01T11:20:58.999Z</time></trkpt><trkpt lat="45.80343113674934" lon="11.752492362823753"><ele>286.0</ele><time>2026-05-01T11:20:59.999Z</time></trkpt><trkpt lat="45.80334752586123" lon="11.752285237873002"><ele>286.0</ele><time>2026-05-01T11:21:00.999Z</time></trkpt><trkpt lat="45.803269053496294" lon="11.752056744150028"><ele>286.0</ele><time>2026-05-01T11:21:01.999Z</time></trkpt><trkpt lat="45.80318632355501" lon="11.751813342481945"><ele>286.0</ele><time>2026-05-01T11:21:02.999Z</time></trkpt><trkpt lat="45.803101403592024" lon="11.751563060483784"><ele>298.0</ele><time>2026-05-01T11:21:03.999Z</time></trkpt><trkpt lat="45.80301945872356" lon="11.751321547867164"><ele>310.0</ele><time>2026-05-01T11:21:04.999Z</time></trkpt><trkpt lat="45.802943636249836" lon="11.751094884893606"><ele>322.0</ele><time>2026-05-01T11:21:05.999Z</time></trkpt><trkpt lat="45.80287223601127" lon="11.750875203570313"><ele>329.0</ele><time>2026-05-01T11:21:06.999Z</time></trkpt><trkpt lat="45.80280588089958" lon="11.750665779327504"><ele>336.0</ele><time>2026-05-01T11:21:07.999Z</time></trkpt><trkpt lat="45.80274175938061" lon="11.750461544049054"><ele>343.0</ele><time>2026-05-01T11:21:08.999Z</time></trkpt><trkpt lat="45.80268213961834" lon="11.750268315757108"><ele>337.0</ele><time>2026-05-01T11:21:09.999Z</time></trkpt><trkpt lat="45.80263087128282" lon="11.75009568133252"><ele>331.0</ele><time>2026-05-01T11:21:10.999Z</time></trkpt><trkpt lat="45.80258359798934" lon="11.749950037087533"><ele>325.0</ele><time>2026-05-01T11:21:11.999Z</time></trkpt><trkpt lat="45.802514867325485" lon="11.749806337246998"><ele>319.0</ele><time>2026-05-01T11:21:12.999Z</time></trkpt><trkpt lat="45.8024020710872" lon="11.749690183253266"><ele>319.0</ele><time>2026-05-01T11:21:14Z</time></trkpt><trkpt lat="45.80226389776918" lon="11.749584515749063"><ele>319.0</ele><time>2026-05-01T11:21:15Z</time></trkpt><trkpt lat="45.80210014356388" lon="11.749481217185068"><ele>319.0</ele><time>2026-05-01T11:21:16Z</time></trkpt><trkpt lat="45.801938094900045" lon="11.749381125302232"><ele>320.75</ele><time>2026-05-01T11:21:17Z</time></trkpt><trkpt lat="45.80180294617433" lon="11.749290258301194"><ele>322.5</ele><time>2026-05-01T11:21:18Z</time></trkpt><trkpt lat="45.80168672978933" lon="11.74918002661094"><ele>324.25</ele><time>2026-05-01T11:21:19Z</time></trkpt><trkpt lat="45.801577108059554" lon="11.74902805310559"><ele>326.0</ele><time>2026-05-01T11:21:20Z</time></trkpt><trkpt lat="45.80146811746633" lon="11.748833685650396"><ele>326.0</ele><time>2026-05-01T11:21:21Z</time></trkpt><trkpt lat="45.8013522310604" lon="11.748614837327054"><ele>326.0</ele><time>2026-05-01T11:21:22Z</time></trkpt><trkpt lat="45.8012356011738" lon="11.74839504194554"><ele>326.0</ele><time>2026-05-01T11:21:23Z</time></trkpt><trkpt lat="45.80112609770648" lon="11.748181705350847"><ele>325.25</ele><time>2026-05-01T11:21:24Z</time></trkpt><trkpt lat="45.80102897028597" lon="11.747984234802695"><ele>324.5</ele><time>2026-05-01T11:21:25Z</time></trkpt><trkpt lat="45.80094942891054" lon="11.74781180543503"><ele>323.75</ele><time>2026-05-01T11:21:26Z</time></trkpt><trkpt lat="45.80088198731215" lon="11.74766348321799"><ele>323.0</ele><time>2026-05-01T11:21:27Z</time></trkpt><trkpt lat="45.80081241647234" lon="11.747523417246676"><ele>327.1666666666667</ele><time>2026-05-01T11:21:28Z</time></trkpt><trkpt lat="45.80074044569932" lon="11.747407703686093"><ele>331.33333333333337</ele><time>2026-05-01T11:21:29Z</time></trkpt><trkpt lat="45.80066511230159" lon="11.747332167781428"><ele>335.5</ele><time>2026-05-01T11:21:30Z</time></trkpt><trkpt lat="45.8006026321069" lon="11.747251426291037"><ele>339.6666666666667</ele><time>2026-05-01T11:21:31Z</time></trkpt><trkpt lat="45.8005493704156" lon="11.747182932988878"><ele>343.8333333333333</ele><time>2026-05-01T11:21:32Z</time></trkpt><trkpt lat="45.800523210543325" lon="11.747100071618828"><ele>348.0</ele><time>2026-05-01T11:21:33Z</time></trkpt><trkpt lat="45.80053519987221" lon="11.747011316968724"><ele>348.0</ele><time>2026-05-01T11:21:34Z</time></trkpt><trkpt lat="45.80059726709415" lon="11.746957543461315"><ele>348.0</ele><time>2026-05-01T11:21:35Z</time></trkpt><trkpt lat="45.800675261281455" lon="11.746992828908619"><ele>348.0</ele><time>2026-05-01T11:21:36Z</time></trkpt><trkpt lat="45.80072189920314" lon="11.747127863462774"><ele>348.0</ele><time>2026-05-01T11:21:36.999Z</time></trkpt><trkpt lat="45.800791499407296" lon="11.747305529769596"><ele>348.0</ele><time>2026-05-01T11:21:37.999Z</time></trkpt><trkpt lat="45.80090269521165" lon="11.747463380995534"><ele>353.3333333333333</ele><time>2026-05-01T11:21:38.999Z</time></trkpt><trkpt lat="45.80106224595221" lon="11.747640823560804"><ele>358.66666666666663</ele><time>2026-05-01T11:21:39.999Z</time></trkpt><trkpt lat="45.801230501478045" lon="11.747837336038597"><ele>364.0</ele><time>2026-05-01T11:21:40.999Z</time></trkpt><trkpt lat="45.801388356393375" lon="11.748025319738385"><ele>364.0</ele><time>2026-05-01T11:21:41.999Z</time></trkpt><trkpt lat="45.801518931769266" lon="11.748171790309042"><ele>364.0</ele><time>2026-05-01T11:21:42.999Z</time></trkpt><trkpt lat="45.80162929847744" lon="11.748316626928313"><ele>364.0</ele><time>2026-05-01T11:21:43.999Z</time></trkpt><trkpt lat="45.80173908428762" lon="11.748445620653039"><ele>362.2</ele><time>2026-05-01T11:21:44.999Z</time></trkpt><trkpt lat="45.801825329614864" lon="11.748544921217979"><ele>360.4</ele><time>2026-05-01T11:21:45.999Z</time></trkpt><trkpt lat="45.80190918939135" lon="11.748625074707432"><ele>358.6</ele><time>2026-05-01T11:21:46.999Z</time></trkpt><trkpt lat="45.8020095881232" lon="11.748697699638374"><ele>356.8</ele><time>2026-05-01T11:21:47.999Z</time></trkpt><trkpt lat="45.802120758592565" lon="11.748761723217465"><ele>355.0</ele><time>2026-05-01T11:21:48.999Z</time></trkpt><trkpt lat="45.80223991138257" lon="11.748801037804633"><ele>355.0</ele><time>2026-05-01T11:21:49.999Z</time></trkpt><trkpt lat="45.80236507056929" lon="11.748817222390485"><ele>355.0</ele><time>2026-05-01T11:21:50.999Z</time></trkpt><trkpt lat="45.80248806920809" lon="11.748824213682802"><ele>355.0</ele><time>2026-05-01T11:21:51.999Z</time></trkpt><trkpt lat="45.802598324739684" lon="11.748833060278777"><ele>355.0</ele><time>2026-05-01T11:21:52.999Z</time></trkpt><trkpt lat="45.80271205671784" lon="11.748834318343809"><ele>362.2</ele><time>2026-05-01T11:21:53.999Z</time></trkpt><trkpt lat="45.802809738153776" lon="11.74884928503785"><ele>369.4</ele><time>2026-05-01T11:21:54.999Z</time></trkpt><trkpt lat="45.802911731162524" lon="11.748860214606134"><ele>376.6</ele><time>2026-05-01T11:21:55.999Z</time></trkpt><trkpt lat="45.803004676658254" lon="11.748897560454347"><ele>383.8</ele><time>2026-05-01T11:21:56.999Z</time></trkpt><trkpt lat="45.803097236966906" lon="11.748983374914776"><ele>391.0</ele><time>2026-05-01T11:21:57.999Z</time></trkpt><trkpt lat="45.80319528441102" lon="11.749117093029428"><ele>391.0</ele><time>2026-05-01T11:21:58.999Z</time></trkpt><trkpt lat="45.80329318783938" lon="11.74930178868697"><ele>391.0</ele><time>2026-05-01T11:21:59.999Z</time></trkpt><trkpt lat="45.80343177075383" lon="11.749493654797623"><ele>391.0</ele><time>2026-05-01T11:22:00.999Z</time></trkpt><trkpt lat="45.8035658337385" lon="11.749747927786006"><ele>394.0</ele><time>2026-05-01T11:22:01.999Z</time></trkpt><trkpt lat="45.803705605112064" lon="11.750037567142543"><ele>397.0</ele><time>2026-05-01T11:22:02.999Z</time></trkpt><trkpt lat="45.803852948950734" lon="11.750339087188639"><ele>397.0</ele><time>2026-05-01T11:22:03.999Z</time></trkpt><trkpt lat="45.80398472107199" lon="11.750633930318324"><ele>397.0</ele><time>2026-05-01T11:22:04.999Z</time></trkpt><trkpt lat="45.80410257719623" lon="11.750884274750385"><ele>401.5</ele><time>2026-05-01T11:22:05.999Z</time></trkpt><trkpt lat="45.804194838697214" lon="11.75108334307006"><ele>406.0</ele><time>2026-05-01T11:22:06.999Z</time></trkpt><trkpt lat="45.804262927475726" lon="11.751278463045344"><ele>410.5</ele><time>2026-05-01T11:22:07.999Z</time></trkpt><trkpt lat="45.804344736971075" lon="11.751423359692378"><ele>415.0</ele><time>2026-05-01T11:22:08.999Z</time></trkpt><trkpt lat="45.80446271776828" lon="11.751574424402305"><ele>415.0</ele><time>2026-05-01T11:22:09.999Z</time></trkpt><trkpt lat="45.80460879537621" lon="11.751706388822294"><ele>415.0</ele><time>2026-05-01T11:22:10.999Z</time></trkpt><trkpt lat="45.804792443092815" lon="11.751846827026"><ele>415.0</ele><time>2026-05-01T11:22:11.999Z</time></trkpt><trkpt lat="45.80501174978843" lon="11.752026504338703"><ele>417.5</ele><time>2026-05-01T11:22:12.999Z</time></trkpt><trkpt lat="45.80527414732697" lon="11.752239157146112"><ele>420.0</ele><time>2026-05-01T11:22:13.999Z</time></trkpt><trkpt lat="45.80552434009573" lon="11.75244512759726"><ele>420.0</ele><time>2026-05-01T11:22:14.999Z</time></trkpt><trkpt lat="45.80573641280592" lon="11.752610428217388"><ele>420.0</ele><time>2026-05-01T11:22:15.999Z</time></trkpt><trkpt lat="45.805933220018645" lon="11.752778286697668"><ele>416.66666666666663</ele><time>2026-05-01T11:22:16.999Z</time></trkpt><trkpt lat="45.806117912635195" lon="11.752934443563914"><ele>413.3333333333333</ele><time>2026-05-01T11:22:17.999Z</time></trkpt><trkpt lat="45.806282267668564" lon="11.753070436855888"><ele>410.0</ele><time>2026-05-01T11:22:18.999Z</time></trkpt><trkpt lat="45.806436491128885" lon="11.753179262364457"><ele>410.0</ele><time>2026-05-01T11:22:19.999Z</time></trkpt><trkpt lat="45.806579537578294" lon="11.753272575071467"><ele>410.0</ele><time>2026-05-01T11:22:20.999Z</time></trkpt><trkpt lat="45.806724641707994" lon="11.753345132984775"><ele>410.0</ele><time>2026-05-01T11:22:21.999Z</time></trkpt><trkpt lat="45.806862008938616" lon="11.753388789860532"><ele>415.0</ele><time>2026-05-01T11:22:22.999Z</time></trkpt><trkpt lat="45.80700206536124" lon="11.753408267467877"><ele>420.0</ele><time>2026-05-01T11:22:23.999Z</time></trkpt><trkpt lat="45.807143533254525" lon="11.753406216946177"><ele>425.0</ele><time>2026-05-01T11:22:24.999Z</time></trkpt><trkpt lat="45.80728691283555" lon="11.753345502530136"><ele>430.0</ele><time>2026-05-01T11:22:25.999Z</time></trkpt><trkpt lat="45.80744635419414" lon="11.753282599323063"><ele>430.0</ele><time>2026-05-01T11:22:26.999Z</time></trkpt><trkpt lat="45.807626106883674" lon="11.753246549976616"><ele>430.0</ele><time>2026-05-01T11:22:27.999Z</time></trkpt><trkpt lat="45.80782662425596" lon="11.753232480348675"><ele>430.0</ele><time>2026-05-01T11:22:28.999Z</time></trkpt><trkpt lat="45.80804786565356" lon="11.753187177450195"><ele>425.5</ele><time>2026-05-01T11:22:29.999Z</time></trkpt><trkpt lat="45.80828772207486" lon="11.753135579634696"><ele>421.0</ele><time>2026-05-01T11:22:30.999Z</time></trkpt><trkpt lat="45.80853246906857" lon="11.753045961937657"><ele>418.0</ele><time>2026-05-01T11:22:31.999Z</time></trkpt><trkpt lat="45.80876783800782" lon="11.752938320513941"><ele>415.0</ele><time>2026-05-01T11:22:32.999Z</time></trkpt><trkpt lat="45.80897293293285" lon="11.752840513911709"><ele>415.0</ele><time>2026-05-01T11:22:33.999Z</time></trkpt><trkpt lat="45.80915283260396" lon="11.7527653559352"><ele>415.0</ele><time>2026-05-01T11:22:34.999Z</time></trkpt><trkpt lat="45.80930985209137" lon="11.752707962950048"><ele>415.0</ele><time>2026-05-01T11:22:35.999Z</time></trkpt><trkpt lat="45.809449191181926" lon="11.75265178266251"><ele>420.75</ele><time>2026-05-01T11:22:36.999Z</time></trkpt><trkpt lat="45.80956963803371" lon="11.752592800926772"><ele>426.5</ele><time>2026-05-01T11:22:37.999Z</time></trkpt><trkpt lat="45.80968954527351" lon="11.752470830891998"><ele>432.25</ele><time>2026-05-01T11:22:38.999Z</time></trkpt><trkpt lat="45.80981185862139" lon="11.752314162537914"><ele>438.0</ele><time>2026-05-01T11:22:39.999Z</time></trkpt><trkpt lat="45.80992451718172" lon="11.752159553607024"><ele>438.0</ele><time>2026-05-01T11:22:40.999Z</time></trkpt><trkpt lat="45.81002956149774" lon="11.752059472035617"><ele>438.0</ele><time>2026-05-01T11:22:41.999Z</time></trkpt><trkpt lat="45.81016371047742" lon="11.752013203989504"><ele>438.0</ele><time>2026-05-01T11:22:42.999Z</time></trkpt><trkpt lat="45.81031415167026" lon="11.751993283289261"><ele>438.0</ele><time>2026-05-01T11:22:43.999Z</time></trkpt><trkpt lat="45.810446640009594" lon="11.751970033727106"><ele>440.8333333333333</ele><time>2026-05-01T11:22:44.999Z</time></trkpt><trkpt lat="45.810574165911795" lon="11.75195758408932"><ele>443.66666666666663</ele><time>2026-05-01T11:22:45.999Z</time></trkpt><trkpt lat="45.81066414995785" lon="11.751929776199587"><ele>446.5</ele><time>2026-05-01T11:22:46.999Z</time></trkpt><trkpt lat="45.81073220878539" lon="11.751891257109959"><ele>449.3333333333333</ele><time>2026-05-01T11:22:47.999Z</time></trkpt><trkpt lat="45.81076181512723" lon="11.751796560648264"><ele>452.16666666666663</ele><time>2026-05-01T11:22:48.999Z</time></trkpt><trkpt lat="45.81073627505359" lon="11.751698426661001"><ele>455.0</ele><time>2026-05-01T11:22:49.999Z</time></trkpt><trkpt lat="45.81065066108981" lon="11.751647743645078"><ele>455.0</ele><time>2026-05-01T11:22:50.999Z</time></trkpt><trkpt lat="45.81053649519476" lon="11.751683142208591"><ele>455.0</ele><time>2026-05-01T11:22:51.999Z</time></trkpt><trkpt lat="45.81039879793071" lon="11.751763875521464"><ele>455.0</ele><time>2026-05-01T11:22:52.999Z</time></trkpt><trkpt lat="45.81021683123817" lon="11.75182639380605"><ele>449.3333333333333</ele><time>2026-05-01T11:22:53.999Z</time></trkpt><trkpt lat="45.810041035474555" lon="11.751851031614477"><ele>443.66666666666663</ele><time>2026-05-01T11:22:54.999Z</time></trkpt><trkpt lat="45.80986615242881" lon="11.751894322879282"><ele>438.0</ele><time>2026-05-01T11:22:55.999Z</time></trkpt><trkpt lat="45.809713230093585" lon="11.75203310215908"><ele>438.0</ele><time>2026-05-01T11:22:56.999Z</time></trkpt><trkpt lat="45.80957308963706" lon="11.752148707588105"><ele>438.0</ele><time>2026-05-01T11:22:57.999Z</time></trkpt><trkpt lat="45.80942383886362" lon="11.752207705582336"><ele>438.0</ele><time>2026-05-01T11:22:58.999Z</time></trkpt><trkpt lat="45.809248718689865" lon="11.752247813494261"><ele>444.33333333333337</ele><time>2026-05-01T11:22:59.999Z</time></trkpt><trkpt lat="45.80905330037307" lon="11.752282564122414"><ele>450.6666666666667</ele><time>2026-05-01T11:23:00.999Z</time></trkpt><trkpt lat="45.80884363275051" lon="11.752319589329172"><ele>457.0</ele><time>2026-05-01T11:23:01.999Z</time></trkpt><trkpt lat="45.80862947551332" lon="11.752352494651415"><ele>460.6666666666667</ele><time>2026-05-01T11:23:02.999Z</time></trkpt><trkpt lat="45.80842180581923" lon="11.752375514132273"><ele>464.33333333333337</ele><time>2026-05-01T11:23:03.999Z</time></trkpt><trkpt lat="45.80821677827881" lon="11.752377274768616"><ele>468.0</ele><time>2026-05-01T11:23:04.999Z</time></trkpt><trkpt lat="45.80800559502696" lon="11.752355668987267"><ele>468.0</ele><time>2026-05-01T11:23:05.999Z</time></trkpt><trkpt lat="45.80781145709547" lon="11.75232910893169"><ele>468.0</ele><time>2026-05-01T11:23:06.999Z</time></trkpt><trkpt lat="45.80762617648224" lon="11.752305067222633"><ele>468.0</ele><time>2026-05-01T11:23:07.999Z</time></trkpt><trkpt lat="45.8074623084639" lon="11.752283914069174"><ele>467.75</ele><time>2026-05-01T11:23:08.999Z</time></trkpt><trkpt lat="45.807318835593726" lon="11.752263155188958"><ele>467.5</ele><time>2026-05-01T11:23:09.999Z</time></trkpt><trkpt lat="45.80718644956784" lon="11.752215223577906"><ele>467.25</ele><time>2026-05-01T11:23:10.999Z</time></trkpt><trkpt lat="45.80705717687615" lon="11.75210483983522"><ele>467.0</ele><time>2026-05-01T11:23:11.999Z</time></trkpt><trkpt lat="45.806899189277125" lon="11.751996689526521"><ele>473.75</ele><time>2026-05-01T11:23:12.999Z</time></trkpt><trkpt lat="45.80677813339029" lon="11.751861842883715"><ele>480.5</ele><time>2026-05-01T11:23:13.999Z</time></trkpt><trkpt lat="45.80666205596715" lon="11.751758985353725"><ele>487.25</ele><time>2026-05-01T11:23:14.999Z</time></trkpt><trkpt lat="45.80657155141289" lon="11.751609362055932"><ele>494.0</ele><time>2026-05-01T11:23:15.999Z</time></trkpt><trkpt lat="45.8064900952781" lon="11.751403589430948"><ele>494.0</ele><time>2026-05-01T11:23:16.999Z</time></trkpt><trkpt lat="45.80638304071345" lon="11.751165120235589"><ele>494.0</ele><time>2026-05-01T11:23:17.999Z</time></trkpt><trkpt lat="45.80625530311003" lon="11.750918489417261"><ele>494.0</ele><time>2026-05-01T11:23:18.999Z</time></trkpt><trkpt lat="45.806133758021744" lon="11.750718854784475"><ele>492.3333333333333</ele><time>2026-05-01T11:23:20Z</time></trkpt><trkpt lat="45.80600512767532" lon="11.750556232352661"><ele>490.66666666666663</ele><time>2026-05-01T11:23:21Z</time></trkpt><trkpt lat="45.80584835976121" lon="11.750433923899534"><ele>489.0</ele><time>2026-05-01T11:23:22Z</time></trkpt><trkpt lat="45.80570216427385" lon="11.750332357784137"><ele>489.0</ele><time>2026-05-01T11:23:23Z</time></trkpt><trkpt lat="45.80558823454598" lon="11.750226877795313"><ele>489.0</ele><time>2026-05-01T11:23:24Z</time></trkpt><trkpt lat="45.805493565432585" lon="11.750101600557382"><ele>489.0</ele><time>2026-05-01T11:23:25Z</time></trkpt><trkpt lat="45.805425866580066" lon="11.7499496325667"><ele>489.0</ele><time>2026-05-01T11:23:26Z</time></trkpt><trkpt lat="45.80539190783644" lon="11.749742807069019"><ele>492.0</ele><time>2026-05-01T11:23:27Z</time></trkpt><trkpt lat="45.805341576380535" lon="11.749486129436919"><ele>495.0</ele><time>2026-05-01T11:23:28Z</time></trkpt><trkpt lat="45.805259748580454" lon="11.749187672999492"><ele>498.0</ele><time>2026-05-01T11:23:29Z</time></trkpt><trkpt lat="45.80515769981813" lon="11.748858643587617"><ele>510.0</ele><time>2026-05-01T11:23:30Z</time></trkpt><trkpt lat="45.8050534832827" lon="11.748496274932645"><ele>522.0</ele><time>2026-05-01T11:23:31Z</time></trkpt><trkpt lat="45.80495009167991" lon="11.74815668971723"><ele>522.0</ele><time>2026-05-01T11:23:32Z</time></trkpt><trkpt lat="45.80485744989465" lon="11.747852148599272"><ele>522.0</ele><time>2026-05-01T11:23:33Z</time></trkpt><trkpt lat="45.804754029981886" lon="11.747579603058789"><ele>522.0</ele><time>2026-05-01T11:23:34Z</time></trkpt><trkpt lat="45.804643448714174" lon="11.747305350404426"><ele>524.0</ele><time>2026-05-01T11:23:35Z</time></trkpt><trkpt lat="45.80449231015655" lon="11.747055861450075"><ele>526.0</ele><time>2026-05-01T11:23:36Z</time></trkpt><trkpt lat="45.804325739748315" lon="11.746802822985694"><ele>526.0</ele><time>2026-05-01T11:23:37Z</time></trkpt><trkpt lat="45.80417264810087" lon="11.74657697575925"><ele>526.0</ele><time>2026-05-01T11:23:38Z</time></trkpt><trkpt lat="45.804042182129756" lon="11.746382708138714"><ele>526.0</ele><time>2026-05-01T11:23:39Z</time></trkpt><trkpt lat="45.803914708073634" lon="11.746202549088911"><ele>531.5</ele><time>2026-05-01T11:23:39.999Z</time></trkpt><trkpt lat="45.803830058738654" lon="11.74600289229991"><ele>537.0</ele><time>2026-05-01T11:23:40.999Z</time></trkpt><trkpt lat="45.80378013123556" lon="11.74580742531538"><ele>542.5</ele><time>2026-05-01T11:23:41.999Z</time></trkpt><trkpt lat="45.80375865410587" lon="11.745612189218377"><ele>548.0</ele><time>2026-05-01T11:23:42.999Z</time></trkpt><trkpt lat="45.803801946265445" lon="11.745420669835116"><ele>551.3333333333333</ele><time>2026-05-01T11:23:43.999Z</time></trkpt><trkpt lat="45.80385422280524" lon="11.74519953494931"><ele>554.6666666666666</ele><time>2026-05-01T11:23:44.999Z</time></trkpt><trkpt lat="45.80391873105792" lon="11.744982165613221"><ele>558.0</ele><time>2026-05-01T11:23:45.999Z</time></trkpt><trkpt lat="45.80393843404838" lon="11.744804965797215"><ele>558.0</ele><time>2026-05-01T11:23:46.999Z</time></trkpt><trkpt lat="45.80393851163831" lon="11.744658029284462"><ele>558.0</ele><time>2026-05-01T11:23:47.999Z</time></trkpt><trkpt lat="45.80392475112516" lon="11.74453724173003"><ele>558.0</ele><time>2026-05-01T11:23:48.999Z</time></trkpt><trkpt lat="45.80390060364421" lon="11.744430314901052"><ele>558.0</ele><time>2026-05-01T11:23:49.999Z</time></trkpt><trkpt lat="45.80381265213328" lon="11.744390328149212"><ele>558.0</ele><time>2026-05-01T11:23:50.999Z</time></trkpt><trkpt lat="45.803732004321304" lon="11.744399164414133"><ele>558.0</ele><time>2026-05-01T11:23:51.999Z</time></trkpt><trkpt lat="45.80364030199512" lon="11.744482378525069"><ele>558.0</ele><time>2026-05-01T11:23:52.999Z</time></trkpt><trkpt lat="45.8035490529816" lon="11.744555657627759"><ele>558.0</ele><time>2026-05-01T11:23:53.999Z</time></trkpt><trkpt lat="45.803443595808496" lon="11.744562446607949"><ele>558.0</ele><time>2026-05-01T11:23:54.999Z</time></trkpt><trkpt lat="45.80334700563326" lon="11.74450992822506"><ele>558.0</ele><time>2026-05-01T11:23:55.999Z</time></trkpt><trkpt lat="45.80324268288316" lon="11.744407113644106"><ele>558.0</ele><time>2026-05-01T11:23:56.999Z</time></trkpt><trkpt lat="45.80309811144898" lon="11.744281971850654"><ele>557.1999999999999</ele><time>2026-05-01T11:23:57.999Z</time></trkpt><trkpt lat="45.802980380446975" lon="11.744152342766236"><ele>556.4</ele><time>2026-05-01T11:23:58.999Z</time></trkpt><trkpt lat="45.80287631025244" lon="11.744092883597462"><ele>555.5999999999999</ele><time>2026-05-01T11:23:59.999Z</time></trkpt><trkpt lat="45.802793652834374" lon="11.744064600721696"><ele>554.8</ele><time>2026-05-01T11:24:00.999Z</time></trkpt><trkpt lat="45.80273420926886" lon="11.744011949714285"><ele>554.0</ele><time>2026-05-01T11:24:01.999Z</time></trkpt><trkpt lat="45.80272213357615" lon="11.74392288328469"><ele>554.0</ele><time>2026-05-01T11:24:02.999Z</time></trkpt><trkpt lat="45.80276065105365" lon="11.743814255777892"><ele>554.0</ele><time>2026-05-01T11:24:03.999Z</time></trkpt><trkpt lat="45.802846994639125" lon="11.74378716568775"><ele>554.0</ele><time>2026-05-01T11:24:04.999Z</time></trkpt><trkpt lat="45.80295117277958" lon="11.74384991469407"><ele>554.0</ele><time>2026-05-01T11:24:05.999Z</time></trkpt><trkpt lat="45.803093967846124" lon="11.74395789058853"><ele>554.0</ele><time>2026-05-01T11:24:06.999Z</time></trkpt><trkpt lat="45.80326255026732" lon="11.744050239062746"><ele>554.0</ele><time>2026-05-01T11:24:07.999Z</time></trkpt><trkpt lat="45.80340720845044" lon="11.744071315163815"><ele>554.0</ele><time>2026-05-01T11:24:08.999Z</time></trkpt><trkpt lat="45.80356454300557" lon="11.744040229334304"><ele>554.0</ele><time>2026-05-01T11:24:09.999Z</time></trkpt><trkpt lat="45.80373587010706" lon="11.74396235188663"><ele>557.3333333333333</ele><time>2026-05-01T11:24:10.999Z</time></trkpt><trkpt lat="45.80390876561974" lon="11.74385079602354"><ele>560.6666666666666</ele><time>2026-05-01T11:24:11.999Z</time></trkpt><trkpt lat="45.80404683132409" lon="11.743767279422107"><ele>564.0</ele><time>2026-05-01T11:24:12.999Z</time></trkpt><trkpt lat="45.80416270031348" lon="11.743711141206871"><ele>564.0</ele><time>2026-05-01T11:24:13.999Z</time></trkpt><trkpt lat="45.80425750030243" lon="11.74368959335456"><ele>564.0</ele><time>2026-05-01T11:24:14.999Z</time></trkpt><trkpt lat="45.80434795227727" lon="11.743717837825846"><ele>564.0</ele><time>2026-05-01T11:24:15.999Z</time></trkpt><trkpt lat="45.80440979182659" lon="11.743835869940558"><ele>564.0</ele><time>2026-05-01T11:24:16.999Z</time></trkpt><trkpt lat="45.804434551858314" lon="11.74399874389595"><ele>564.0</ele><time>2026-05-01T11:24:17.999Z</time></trkpt><trkpt lat="45.80443513136556" lon="11.744221200805406"><ele>573.6666666666666</ele><time>2026-05-01T11:24:18.999Z</time></trkpt><trkpt lat="45.80446258112543" lon="11.744474233220588"><ele>583.3333333333333</ele><time>2026-05-01T11:24:19.999Z</time></trkpt><trkpt lat="45.80452558848988" lon="11.744728950186364"><ele>593.0</ele><time>2026-05-01T11:24:20.999Z</time></trkpt><trkpt lat="45.80460909304542" lon="11.744964412430193"><ele>593.0</ele><time>2026-05-01T11:24:21.999Z</time></trkpt><trkpt lat="45.80471141015019" lon="11.74516737898024"><ele>593.0</ele><time>2026-05-01T11:24:22.999Z</time></trkpt><trkpt lat="45.80480347353934" lon="11.745364144791392"><ele>593.0</ele><time>2026-05-01T11:24:23.999Z</time></trkpt><trkpt lat="45.804870324271235" lon="11.74558260755848"><ele>590.6666666666666</ele><time>2026-05-01T11:24:24.999Z</time></trkpt><trkpt lat="45.80492315929599" lon="11.745806459839494"><ele>588.3333333333334</ele><time>2026-05-01T11:24:25.999Z</time></trkpt><trkpt lat="45.80499662544514" lon="11.746023197166176"><ele>586.0</ele><time>2026-05-01T11:24:26.999Z</time></trkpt><trkpt lat="45.8050565440978" lon="11.74623370206585"><ele>589.3333333333334</ele><time>2026-05-01T11:24:27.999Z</time></trkpt><trkpt lat="45.80512528703367" lon="11.746461592686886"><ele>592.6666666666666</ele><time>2026-05-01T11:24:28.999Z</time></trkpt><trkpt lat="45.80521531023421" lon="11.746687822330472"><ele>596.0</ele><time>2026-05-01T11:24:29.999Z</time></trkpt><trkpt lat="45.80533803495487" lon="11.746930443015144"><ele>596.0</ele><time>2026-05-01T11:24:30.999Z</time></trkpt><trkpt lat="45.80544284294499" lon="11.747187469352948"><ele>596.0</ele><time>2026-05-01T11:24:31.999Z</time></trkpt><trkpt lat="45.8055321585878" lon="11.747427590885216"><ele>596.0</ele><time>2026-05-01T11:24:32.999Z</time></trkpt><trkpt lat="45.805614625208655" lon="11.747628167335826"><ele>589.0</ele><time>2026-05-01T11:24:33.999Z</time></trkpt><trkpt lat="45.805707652123324" lon="11.747804231233506"><ele>582.0</ele><time>2026-05-01T11:24:34.999Z</time></trkpt><trkpt lat="45.805833523529245" lon="11.747963882350536"><ele>575.0</ele><time>2026-05-01T11:24:35.999Z</time></trkpt><trkpt lat="45.80597735116545" lon="11.748111002229608"><ele>581.0</ele><time>2026-05-01T11:24:36.999Z</time></trkpt><trkpt lat="45.80609613735442" lon="11.748244809683506"><ele>587.0</ele><time>2026-05-01T11:24:37.999Z</time></trkpt><trkpt lat="45.80619322502855" lon="11.748355788076676"><ele>593.0</ele><time>2026-05-01T11:24:38.999Z</time></trkpt><trkpt lat="45.806275534078" lon="11.748420845779458"><ele>599.0</ele><time>2026-05-01T11:24:39.999Z</time></trkpt><trkpt lat="45.80635520168557" lon="11.74844311153007"><ele>599.0</ele><time>2026-05-01T11:24:40.999Z</time></trkpt><trkpt lat="45.80643130095627" lon="11.748400160432684"><ele>599.0</ele><time>2026-05-01T11:24:41.999Z</time></trkpt><trkpt lat="45.806484760608804" lon="11.748303942917822"><ele>599.0</ele><time>2026-05-01T11:24:42.999Z</time></trkpt><trkpt lat="45.80647074935862" lon="11.74817233286605"><ele>599.0</ele><time>2026-05-01T11:24:43.999Z</time></trkpt><trkpt lat="45.80640467508699" lon="11.748058271832985"><ele>599.0</ele><time>2026-05-01T11:24:44.999Z</time></trkpt><trkpt lat="45.80629133187581" lon="11.747976206427072"><ele>599.0</ele><time>2026-05-01T11:24:45.999Z</time></trkpt><trkpt lat="45.80617301342727" lon="11.747877529320471"><ele>599.0</ele><time>2026-05-01T11:24:46.999Z</time></trkpt><trkpt lat="45.806067457930645" lon="11.747715016759832"><ele>599.0</ele><time>2026-05-01T11:24:47.999Z</time></trkpt><trkpt lat="45.80597321954706" lon="11.7475149354717"><ele>598.0</ele><time>2026-05-01T11:24:48.999Z</time></trkpt><trkpt lat="45.805881266885756" lon="11.747265304989412"><ele>597.0</ele><time>2026-05-01T11:24:49.999Z</time></trkpt><trkpt lat="45.80580440736495" lon="11.746986922865934"><ele>596.0</ele><time>2026-05-01T11:24:50.999Z</time></trkpt><trkpt lat="45.8057549988545" lon="11.746689499240496"><ele>602.0</ele><time>2026-05-01T11:24:51.999Z</time></trkpt><trkpt lat="45.80573544821114" lon="11.74641254928099"><ele>608.0</ele><time>2026-05-01T11:24:52.999Z</time></trkpt><trkpt lat="45.805737257987644" lon="11.746122645583643"><ele>614.0</ele><time>2026-05-01T11:24:53.999Z</time></trkpt><trkpt lat="45.80576162705549" lon="11.745855262314192"><ele>615.6666666666666</ele><time>2026-05-01T11:24:54.999Z</time></trkpt><trkpt lat="45.805802226762154" lon="11.745626174371665"><ele>617.3333333333334</ele><time>2026-05-01T11:24:55.999Z</time></trkpt><trkpt lat="45.80583461300777" lon="11.745412887811185"><ele>619.0</ele><time>2026-05-01T11:24:56.999Z</time></trkpt><trkpt lat="45.805825571689624" lon="11.745193306976441"><ele>621.0</ele><time>2026-05-01T11:24:57.999Z</time></trkpt><trkpt lat="45.805770514774174" lon="11.744966720352595"><ele>623.0</ele><time>2026-05-01T11:24:58.999Z</time></trkpt><trkpt lat="45.80572709736856" lon="11.744714917316283"><ele>625.0</ele><time>2026-05-01T11:24:59.999Z</time></trkpt><trkpt lat="45.805694147316636" lon="11.744451332501743"><ele>628.0</ele><time>2026-05-01T11:25:00.999Z</time></trkpt><trkpt lat="45.805697245423254" lon="11.744180780876633"><ele>631.0</ele><time>2026-05-01T11:25:01.999Z</time></trkpt><trkpt lat="45.80572193602557" lon="11.74392957816027"><ele>634.0</ele><time>2026-05-01T11:25:02.999Z</time></trkpt><trkpt lat="45.80575670059786" lon="11.743658197171838"><ele>633.3333333333334</ele><time>2026-05-01T11:25:03.999Z</time></trkpt><trkpt lat="45.80583677235414" lon="11.743388089031349"><ele>632.6666666666666</ele><time>2026-05-01T11:25:04.999Z</time></trkpt><trkpt lat="45.805923436998626" lon="11.743123503853434"><ele>632.0</ele><time>2026-05-01T11:25:05.999Z</time></trkpt><trkpt lat="45.8059898855436" lon="11.742902173897892"><ele>638.4000000000001</ele><time>2026-05-01T11:25:06.999Z</time></trkpt><trkpt lat="45.80603406699225" lon="11.742724665132583"><ele>644.8000000000001</ele><time>2026-05-01T11:25:07.999Z</time></trkpt><trkpt lat="45.80606721249062" lon="11.74257781497252"><ele>651.2</ele><time>2026-05-01T11:25:08.999Z</time></trkpt><trkpt lat="45.806092894620406" lon="11.742464416859887"><ele>657.6</ele><time>2026-05-01T11:25:09.999Z</time></trkpt><trkpt lat="45.806136482076845" lon="11.742386792409226"><ele>664.0</ele><time>2026-05-01T11:25:10.999Z</time></trkpt><trkpt lat="45.806255803372174" lon="11.742449480140843"><ele>664.0</ele><time>2026-05-01T11:25:12.999Z</time></trkpt><trkpt lat="45.80623591040143" lon="11.74258682742457"><ele>664.0</ele><time>2026-05-01T11:25:13.999Z</time></trkpt><trkpt lat="45.8061899768687" lon="11.74273041446997"><ele>664.0</ele><time>2026-05-01T11:25:14.999Z</time></trkpt><trkpt lat="45.80615091898298" lon="11.742946667335357"><ele>664.0</ele><time>2026-05-01T11:25:15.999Z</time></trkpt><trkpt lat="45.806110350032256" lon="11.743160222311232"><ele>664.0</ele><time>2026-05-01T11:25:16.999Z</time></trkpt><trkpt lat="45.806105500024536" lon="11.743358948125815"><ele>664.0</ele><time>2026-05-01T11:25:17.999Z</time></trkpt><trkpt lat="45.80613486872931" lon="11.743561782819642"><ele>664.0</ele><time>2026-05-01T11:25:18.999Z</time></trkpt><trkpt lat="45.80620405678897" lon="11.74379130792542"><ele>662.0</ele><time>2026-05-01T11:25:19.999Z</time></trkpt><trkpt lat="45.80629836965551" lon="11.744036792704206"><ele>660.0</ele><time>2026-05-01T11:25:20.999Z</time></trkpt><trkpt lat="45.80640222265561" lon="11.744268239563453"><ele>658.0</ele><time>2026-05-01T11:25:21.999Z</time></trkpt><trkpt lat="45.80652103653346" lon="11.744477105399763"><ele>659.0</ele><time>2026-05-01T11:25:22.999Z</time></trkpt><trkpt lat="45.806655251882326" lon="11.74462866535926"><ele>660.0</ele><time>2026-05-01T11:25:23.998Z</time></trkpt><trkpt lat="45.80679356094895" lon="11.744738039694697"><ele>661.0</ele><time>2026-05-01T11:25:24.998Z</time></trkpt><trkpt lat="45.80695441215746" lon="11.744795756233241"><ele>661.0</ele><time>2026-05-01T11:25:26Z</time></trkpt><trkpt lat="45.8070937078868" lon="11.744817021272418"><ele>661.0</ele><time>2026-05-01T11:25:27Z</time></trkpt><trkpt lat="45.807212687797765" lon="11.744814489860813"><ele>661.0</ele><time>2026-05-01T11:25:28Z</time></trkpt><trkpt lat="45.80731250135797" lon="11.744799094806968"><ele>661.0</ele><time>2026-05-01T11:25:29Z</time></trkpt><trkpt lat="45.80740520408039" lon="11.744763875765468"><ele>661.0</ele><time>2026-05-01T11:25:30Z</time></trkpt><trkpt lat="45.80748190939216" lon="11.744720219210166"><ele>661.0</ele><time>2026-05-01T11:25:31Z</time></trkpt><trkpt lat="45.80753810708515" lon="11.744679161290863"><ele>661.0</ele><time>2026-05-01T11:25:32Z</time></trkpt><trkpt lat="45.80760772634885" lon="11.744611625949513"><ele>661.0</ele><time>2026-05-01T11:25:34Z</time></trkpt><trkpt lat="45.80770316871516" lon="11.744472188972336"><ele>661.0</ele><time>2026-05-01T11:25:36Z</time></trkpt><trkpt lat="45.807778714457875" lon="11.744398008801792"><ele>663.0</ele><time>2026-05-01T11:25:37Z</time></trkpt><trkpt lat="45.807864892601565" lon="11.744304118324633"><ele>665.0</ele><time>2026-05-01T11:25:38Z</time></trkpt><trkpt lat="45.807964446420286" lon="11.744176536947204"><ele>667.0</ele><time>2026-05-01T11:25:39Z</time></trkpt><trkpt lat="45.808101800616846" lon="11.744008799693257"><ele>669.0</ele><time>2026-05-01T11:25:40Z</time></trkpt><trkpt lat="45.80826332012405" lon="11.743819327566648"><ele>669.0</ele><time>2026-05-01T11:25:41Z</time></trkpt><trkpt lat="45.80841961911275" lon="11.743660986661737"><ele>669.0</ele><time>2026-05-01T11:25:42Z</time></trkpt><trkpt lat="45.808571665885275" lon="11.743534280586491"><ele>669.0</ele><time>2026-05-01T11:25:43Z</time></trkpt><trkpt lat="45.80874801911273" lon="11.743428001414735"><ele>676.6666666666666</ele><time>2026-05-01T11:25:43.999Z</time></trkpt><trkpt lat="45.808930462780296" lon="11.743338630225638"><ele>684.3333333333333</ele><time>2026-05-01T11:25:44.999Z</time></trkpt><trkpt lat="45.80909212960054" lon="11.743282290603094"><ele>692.0</ele><time>2026-05-01T11:25:45.999Z</time></trkpt><trkpt lat="45.809239889408474" lon="11.743254296791935"><ele>694.0</ele><time>2026-05-01T11:25:46.999Z</time></trkpt><trkpt lat="45.809358475521385" lon="11.743251286034535"><ele>696.0</ele><time>2026-05-01T11:25:47.999Z</time></trkpt><trkpt lat="45.809454635477266" lon="11.743258328116847"><ele>698.0</ele><time>2026-05-01T11:25:48.999Z</time></trkpt><trkpt lat="45.809531360677504" lon="11.743304603005134"><ele>700.0</ele><time>2026-05-01T11:25:49.999Z</time></trkpt><trkpt lat="45.80959304610303" lon="11.743400524670554"><ele>702.0</ele><time>2026-05-01T11:25:50.999Z</time></trkpt><trkpt lat="45.80962748160631" lon="11.743553151324354"><ele>702.0</ele><time>2026-05-01T11:25:51.999Z</time></trkpt><trkpt lat="45.80963270955442" lon="11.743765511469705"><ele>702.0</ele><time>2026-05-01T11:25:52.999Z</time></trkpt><trkpt lat="45.809668247762595" lon="11.743940330810972"><ele>702.0</ele><time>2026-05-01T11:25:53.999Z</time></trkpt><trkpt lat="45.80974194411445" lon="11.744100822028377"><ele>702.0</ele><time>2026-05-01T11:25:54.999Z</time></trkpt><trkpt lat="45.80986279651403" lon="11.744254005101915"><ele>700.75</ele><time>2026-05-01T11:25:55.999Z</time></trkpt><trkpt lat="45.809991588081004" lon="11.744387186336665"><ele>699.5</ele><time>2026-05-01T11:25:56.999Z</time></trkpt><trkpt lat="45.81007621738733" lon="11.744537173712345"><ele>698.25</ele><time>2026-05-01T11:25:57.999Z</time></trkpt><trkpt lat="45.81010872416077" lon="11.744697020582475"><ele>697.0</ele><time>2026-05-01T11:25:58.999Z</time></trkpt><trkpt lat="45.81008902445153" lon="11.744879633229731"><ele>697.0</ele><time>2026-05-01T11:25:59.999Z</time></trkpt><trkpt lat="45.81006042004211" lon="11.745090868524349"><ele>697.0</ele><time>2026-05-01T11:26:00.999Z</time></trkpt><trkpt lat="45.810066931986746" lon="11.745300978800183"><ele>697.0</ele><time>2026-05-01T11:26:01.999Z</time></trkpt><trkpt lat="45.810094197651104" lon="11.74549484970501"><ele>697.0</ele><time>2026-05-01T11:26:02.999Z</time></trkpt><trkpt lat="45.81017237396862" lon="11.745673800737665"><ele>700.25</ele><time>2026-05-01T11:26:03.999Z</time></trkpt><trkpt lat="45.81025329203943" lon="11.745810254115264"><ele>703.5</ele><time>2026-05-01T11:26:04.999Z</time></trkpt><trkpt lat="45.8103489378429" lon="11.745904173476372"><ele>706.75</ele><time>2026-05-01T11:26:05.999Z</time></trkpt><trkpt lat="45.81048027036965" lon="11.745961648539692"><ele>710.0</ele><time>2026-05-01T11:26:06.999Z</time></trkpt><trkpt lat="45.810654578737505" lon="11.745964012622668"><ele>710.0</ele><time>2026-05-01T11:26:07.999Z</time></trkpt><trkpt lat="45.81088135776234" lon="11.745975259505663"><ele>710.0</ele><time>2026-05-01T11:26:08.999Z</time></trkpt><trkpt lat="45.81116519208784" lon="11.745934127594824"><ele>714.0</ele><time>2026-05-01T11:26:09.999Z</time></trkpt><trkpt lat="45.81148315935715" lon="11.74590332197618"><ele>718.0</ele><time>2026-05-01T11:26:10.999Z</time></trkpt><trkpt lat="45.811791361582515" lon="11.745894333084989"><ele>722.5</ele><time>2026-05-01T11:26:11.999Z</time></trkpt><trkpt lat="45.8120594220909" lon="11.745887702141864"><ele>727.0</ele><time>2026-05-01T11:26:12.999Z</time></trkpt><trkpt lat="45.81229385720189" lon="11.745868562425413"><ele>727.0</ele><time>2026-05-01T11:26:13.999Z</time></trkpt><trkpt lat="45.81249999137914" lon="11.745891588342364"><ele>727.0</ele><time>2026-05-01T11:26:14.999Z</time></trkpt><trkpt lat="45.81267290102501" lon="11.745928650047226"><ele>727.0</ele><time>2026-05-01T11:26:15.999Z</time></trkpt><trkpt lat="45.81283686596301" lon="11.745954290431326"><ele>728.6666666666667</ele><time>2026-05-01T11:26:16.999Z</time></trkpt><trkpt lat="45.81300307786944" lon="11.745935727354695"><ele>730.3333333333334</ele><time>2026-05-01T11:26:17.999Z</time></trkpt><trkpt lat="45.813166939961384" lon="11.74586546368632"><ele>732.0</ele><time>2026-05-01T11:26:18.999Z</time></trkpt><trkpt lat="45.81331924633284" lon="11.745765189881931"><ele>732.0</ele><time>2026-05-01T11:26:19.999Z</time></trkpt><trkpt lat="45.813458191481025" lon="11.745762688744493"><ele>732.0</ele><time>2026-05-01T11:26:20.999Z</time></trkpt><trkpt lat="45.81360394380414" lon="11.74576594709131"><ele>732.0</ele><time>2026-05-01T11:26:21.999Z</time></trkpt><trkpt lat="45.81375035077957" lon="11.74580792860805"><ele>732.0</ele><time>2026-05-01T11:26:22.999Z</time></trkpt><trkpt lat="45.81387043233151" lon="11.745846727100153"><ele>730.6666666666666</ele><time>2026-05-01T11:26:23.999Z</time></trkpt><trkpt lat="45.81396592890943" lon="11.745882013549705"><ele>729.3333333333334</ele><time>2026-05-01T11:26:24.999Z</time></trkpt><trkpt lat="45.81404693768816" lon="11.745921053359732"><ele>728.0</ele><time>2026-05-01T11:26:25.999Z</time></trkpt><trkpt lat="45.81411311444744" lon="11.745969742443823"><ele>726.6666666666667</ele><time>2026-05-01T11:26:26.999Z</time></trkpt><trkpt lat="45.81422665770926" lon="11.74598621186153"><ele>725.3333333333334</ele><time>2026-05-01T11:26:28.999Z</time></trkpt><trkpt lat="45.81426568281285" lon="11.745899854055757"><ele>724.0</ele><time>2026-05-01T11:26:29.999Z</time></trkpt><trkpt lat="45.81425223992573" lon="11.745797182577977"><ele>724.0</ele><time>2026-05-01T11:26:30.999Z</time></trkpt><trkpt lat="45.8141915202828" lon="11.745723166288341"><ele>724.0</ele><time>2026-05-01T11:26:31.999Z</time></trkpt><trkpt lat="45.814105126001394" lon="11.745702613269497"><ele>724.0</ele><time>2026-05-01T11:26:32.999Z</time></trkpt><trkpt lat="45.81399172630155" lon="11.745723583441817"><ele>724.0</ele><time>2026-05-01T11:26:33.999Z</time></trkpt><trkpt lat="45.81385198644955" lon="11.74570019301245"><ele>724.0</ele><time>2026-05-01T11:26:34.999Z</time></trkpt><trkpt lat="45.813698583109215" lon="11.745621834158822"><ele>724.0</ele><time>2026-05-01T11:26:35.999Z</time></trkpt><trkpt lat="45.81356781778421" lon="11.745576767292128"><ele>724.0</ele><time>2026-05-01T11:26:36.999Z</time></trkpt><trkpt lat="45.813443058523255" lon="11.745550506639168"><ele>724.0</ele><time>2026-05-01T11:26:37.999Z</time></trkpt><trkpt lat="45.81331527154485" lon="11.745525822428707"><ele>724.0</ele><time>2026-05-01T11:26:38.999Z</time></trkpt><trkpt lat="45.81319119345766" lon="11.745501415495932"><ele>726.0</ele><time>2026-05-01T11:26:39.999Z</time></trkpt><trkpt lat="45.81307167083926" lon="11.745454768249001"><ele>728.0</ele><time>2026-05-01T11:26:40.999Z</time></trkpt><trkpt lat="45.81294905576756" lon="11.745385214301505"><ele>730.0</ele><time>2026-05-01T11:26:41.999Z</time></trkpt><trkpt lat="45.81282104582464" lon="11.74529250764184"><ele>732.0</ele><time>2026-05-01T11:26:42.999Z</time></trkpt><trkpt lat="45.812690238484564" lon="11.745207240469519"><ele>737.25</ele><time>2026-05-01T11:26:43.999Z</time></trkpt><trkpt lat="45.81256912763025" lon="11.74512624952354"><ele>742.5</ele><time>2026-05-01T11:26:44.999Z</time></trkpt><trkpt lat="45.81247035117465" lon="11.745033147245985"><ele>747.75</ele><time>2026-05-01T11:26:45.999Z</time></trkpt><trkpt lat="45.812363730353034" lon="11.744982560648962"><ele>753.0</ele><time>2026-05-01T11:26:46.999Z</time></trkpt><trkpt lat="45.812272605287106" lon="11.744914780250753"><ele>753.0</ele><time>2026-05-01T11:26:47.999Z</time></trkpt><trkpt lat="45.812178612673904" lon="11.744844421829194"><ele>753.0</ele><time>2026-05-01T11:26:48.999Z</time></trkpt><trkpt lat="45.81208823943803" lon="11.74477909380539"><ele>753.0</ele><time>2026-05-01T11:26:49.999Z</time></trkpt><trkpt lat="45.81200577868756" lon="11.74471454453796"><ele>753.0</ele><time>2026-05-01T11:26:50.999Z</time></trkpt><trkpt lat="45.81193264961969" lon="11.74464033173697"><ele>753.0</ele><time>2026-05-01T11:26:51.999Z</time></trkpt><trkpt lat="45.81186179095884" lon="11.744547497585232"><ele>753.5999999999999</ele><time>2026-05-01T11:26:52.999Z</time></trkpt><trkpt lat="45.81179424489325" lon="11.744439251068423"><ele>754.1999999999999</ele><time>2026-05-01T11:26:53.999Z</time></trkpt><trkpt lat="45.811747924222665" lon="11.744306178982475"><ele>754.8</ele><time>2026-05-01T11:26:54.999Z</time></trkpt><trkpt lat="45.81172075760043" lon="11.74414722487254"><ele>755.4</ele><time>2026-05-01T11:26:55.999Z</time></trkpt><trkpt lat="45.8117105821824" lon="11.743961749667712"><ele>756.0</ele><time>2026-05-01T11:26:56.999Z</time></trkpt><trkpt lat="45.811706193539415" lon="11.743789567283192"><ele>756.0</ele><time>2026-05-01T11:26:57.999Z</time></trkpt><trkpt lat="45.81171587586563" lon="11.743632715550927"><ele>756.0</ele><time>2026-05-01T11:26:58.999Z</time></trkpt><trkpt lat="45.811749539076835" lon="11.743481583191588"><ele>756.0</ele><time>2026-05-01T11:26:59.999Z</time></trkpt><trkpt lat="45.81179370307764" lon="11.743338330210625"><ele>756.0</ele><time>2026-05-01T11:27:00.999Z</time></trkpt><trkpt lat="45.811832695860126" lon="11.743210051772333"><ele>756.0</ele><time>2026-05-01T11:27:01.999Z</time></trkpt><trkpt lat="45.8118550008995" lon="11.743082604776605"><ele>759.5</ele><time>2026-05-01T11:27:02.999Z</time></trkpt><trkpt lat="45.81185623545912" lon="11.742968296182667"><ele>763.0</ele><time>2026-05-01T11:27:03.999Z</time></trkpt><trkpt lat="45.811840210981416" lon="11.742846359514576"><ele>766.5</ele><time>2026-05-01T11:27:04.999Z</time></trkpt><trkpt lat="45.8117941008843" lon="11.742672103760707"><ele>770.0</ele><time>2026-05-01T11:27:05.999Z</time></trkpt><trkpt lat="45.81170118958851" lon="11.742451831089802"><ele>770.0</ele><time>2026-05-01T11:27:06.999Z</time></trkpt><trkpt lat="45.81158930031733" lon="11.742186571162744"><ele>770.0</ele><time>2026-05-01T11:27:07.999Z</time></trkpt><trkpt lat="45.811499537386574" lon="11.741992819483396"><ele>770.0</ele><time>2026-05-01T11:27:08.999Z</time></trkpt><trkpt lat="45.81146099825086" lon="11.741813131983731"><ele>771.5</ele><time>2026-05-01T11:27:09.999Z</time></trkpt><trkpt lat="45.811453884592645" lon="11.741644397932491"><ele>773.0</ele><time>2026-05-01T11:27:10.999Z</time></trkpt><trkpt lat="45.81146757060834" lon="11.741479731974984"><ele>774.5</ele><time>2026-05-01T11:27:11.999Z</time></trkpt><trkpt lat="45.8115011146246" lon="11.741321330811292"><ele>776.0</ele><time>2026-05-01T11:27:12.999Z</time></trkpt><trkpt lat="45.811574007856905" lon="11.741164825552126"><ele>778.3333333333334</ele><time>2026-05-01T11:27:13.999Z</time></trkpt><trkpt lat="45.81168656811093" lon="11.74098745044602"><ele>780.6666666666667</ele><time>2026-05-01T11:27:14.999Z</time></trkpt><trkpt lat="45.81179803118097" lon="11.740803591328714"><ele>783.0</ele><time>2026-05-01T11:27:15.999Z</time></trkpt><trkpt lat="45.81189069549654" lon="11.740668104555157"><ele>785.5</ele><time>2026-05-01T11:27:16.999Z</time></trkpt><trkpt lat="45.811981894173634" lon="11.740577155903132"><ele>788.0</ele><time>2026-05-01T11:27:17.999Z</time></trkpt><trkpt lat="45.812108606542985" lon="11.740530257663226"><ele>790.5</ele><time>2026-05-01T11:27:18.999Z</time></trkpt><trkpt lat="45.81225120913425" lon="11.740530221293579"><ele>793.0</ele><time>2026-05-01T11:27:19.999Z</time></trkpt><trkpt lat="45.81240911466879" lon="11.740575373204184"><ele>793.0</ele><time>2026-05-01T11:27:20.999Z</time></trkpt><trkpt lat="45.81257693484196" lon="11.740650602696867"><ele>793.0</ele><time>2026-05-01T11:27:21.999Z</time></trkpt><trkpt lat="45.81275364408949" lon="11.740757942274197"><ele>793.0</ele><time>2026-05-01T11:27:22.999Z</time></trkpt><trkpt lat="45.81293455876926" lon="11.740888133203203"><ele>792.6666666666666</ele><time>2026-05-01T11:27:23.999Z</time></trkpt><trkpt lat="45.81309322941661" lon="11.741006270996495"><ele>792.3333333333333</ele><time>2026-05-01T11:27:24.999Z</time></trkpt><trkpt lat="45.81324648614136" lon="11.741114659857434"><ele>792.0</ele><time>2026-05-01T11:27:25.999Z</time></trkpt><trkpt lat="45.81340483758834" lon="11.741204279567986"><ele>785.0</ele><time>2026-05-01T11:27:26.999Z</time></trkpt><trkpt lat="45.81356690836701" lon="11.741259119468873"><ele>778.0</ele><time>2026-05-01T11:27:27.999Z</time></trkpt><trkpt lat="45.81373836691311" lon="11.741277184766364"><ele>771.0</ele><time>2026-05-01T11:27:28.999Z</time></trkpt><trkpt lat="45.813919809073106" lon="11.741253877691197"><ele>771.0</ele><time>2026-05-01T11:27:29.998Z</time></trkpt><trkpt lat="45.81410528321212" lon="11.741198316384438"><ele>771.0</ele><time>2026-05-01T11:27:31Z</time></trkpt><trkpt lat="45.814262057092066" lon="11.741128772647214"><ele>771.0</ele><time>2026-05-01T11:27:32Z</time></trkpt><trkpt lat="45.814391811251106" lon="11.741041386933318"><ele>773.6666666666667</ele><time>2026-05-01T11:27:33Z</time></trkpt><trkpt lat="45.81450080440111" lon="11.740919796297923"><ele>776.3333333333334</ele><time>2026-05-01T11:27:34Z</time></trkpt><trkpt lat="45.81460586126638" lon="11.740734186901497"><ele>779.0</ele><time>2026-05-01T11:27:35Z</time></trkpt><trkpt lat="45.814717277955225" lon="11.740487073736647"><ele>779.0</ele><time>2026-05-01T11:27:36Z</time></trkpt><trkpt lat="45.814846604382325" lon="11.740274135906487"><ele>779.0</ele><time>2026-05-01T11:27:37Z</time></trkpt><trkpt lat="45.81493980523176" lon="11.740074979263763"><ele>779.0</ele><time>2026-05-01T11:27:38Z</time></trkpt><trkpt lat="45.81504487870946" lon="11.73993480673218"><ele>784.25</ele><time>2026-05-01T11:27:39Z</time></trkpt><trkpt lat="45.815170740862996" lon="11.739851425590752"><ele>789.5</ele><time>2026-05-01T11:27:40Z</time></trkpt><trkpt lat="45.815318102496676" lon="11.739816212104953"><ele>794.75</ele><time>2026-05-01T11:27:41Z</time></trkpt><trkpt lat="45.815450284063495" lon="11.73983201754122"><ele>800.0</ele><time>2026-05-01T11:27:42Z</time></trkpt><trkpt lat="45.815549500178506" lon="11.739917303267143"><ele>800.0</ele><time>2026-05-01T11:27:43Z</time></trkpt><trkpt lat="45.81564497699498" lon="11.740008039943117"><ele>800.0</ele><time>2026-05-01T11:27:44Z</time></trkpt><trkpt lat="45.815668820163026" lon="11.74019736071944"><ele>800.0</ele><time>2026-05-01T11:27:45Z</time></trkpt><trkpt lat="45.815713190407855" lon="11.740422896137208"><ele>800.0</ele><time>2026-05-01T11:27:46Z</time></trkpt><trkpt lat="45.815741345960824" lon="11.740707035669084"><ele>800.0</ele><time>2026-05-01T11:27:46.999Z</time></trkpt><trkpt lat="45.815747267570025" lon="11.740949712395796"><ele>800.0</ele><time>2026-05-01T11:27:47.999Z</time></trkpt><trkpt lat="45.815729090105535" lon="11.741156294842895"><ele>800.0</ele><time>2026-05-01T11:27:48.999Z</time></trkpt><trkpt lat="45.81570773919942" lon="11.74132636267882"><ele>800.0</ele><time>2026-05-01T11:27:49.999Z</time></trkpt><trkpt lat="45.81573582779634" lon="11.74150234885784"><ele>800.0</ele><time>2026-05-01T11:27:50.999Z</time></trkpt><trkpt lat="45.81580558327776" lon="11.74169273235056"><ele>800.0</ele><time>2026-05-01T11:27:51.999Z</time></trkpt><trkpt lat="45.8158859022116" lon="11.741853167683464"><ele>800.0</ele><time>2026-05-01T11:27:52.999Z</time></trkpt><trkpt lat="45.815943702455485" lon="11.741982790306905"><ele>800.0</ele><time>2026-05-01T11:27:53.999Z</time></trkpt><trkpt lat="45.81602248994802" lon="11.742067234872309"><ele>796.3333333333334</ele><time>2026-05-01T11:27:54.999Z</time></trkpt><trkpt lat="45.81614374899589" lon="11.74210357496049"><ele>792.6666666666667</ele><time>2026-05-01T11:27:55.999Z</time></trkpt><trkpt lat="45.81630479677242" lon="11.742099733828272"><ele>789.0</ele><time>2026-05-01T11:27:56.999Z</time></trkpt><trkpt lat="45.81648686579417" lon="11.74211523115929"><ele>789.0</ele><time>2026-05-01T11:27:57.999Z</time></trkpt><trkpt lat="45.81666623671022" lon="11.742142864757248"><ele>789.0</ele><time>2026-05-01T11:27:58.999Z</time></trkpt><trkpt lat="45.81678224947707" lon="11.742156169283984"><ele>789.0</ele><time>2026-05-01T11:27:59.999Z</time></trkpt><trkpt lat="45.81687169735653" lon="11.742150555358796"><ele>789.0</ele><time>2026-05-01T11:28:00.999Z</time></trkpt><trkpt lat="45.81695990589899" lon="11.742074360396545"><ele>784.6666666666667</ele><time>2026-05-01T11:28:01.999Z</time></trkpt><trkpt lat="45.817043353975016" lon="11.74192177859086"><ele>780.3333333333334</ele><time>2026-05-01T11:28:02.999Z</time></trkpt><trkpt lat="45.81714710359175" lon="11.74171875518083"><ele>776.0</ele><time>2026-05-01T11:28:03.999Z</time></trkpt><trkpt lat="45.8172350027944" lon="11.741493854818184"><ele>783.8</ele><time>2026-05-01T11:28:04.999Z</time></trkpt><trkpt lat="45.81729842880739" lon="11.741342789393675"><ele>791.5999999999999</ele><time>2026-05-01T11:28:05.999Z</time></trkpt><trkpt lat="45.817369666610105" lon="11.741255602587172"><ele>799.4</ele><time>2026-05-01T11:28:06.999Z</time></trkpt><trkpt lat="45.81744233897226" lon="11.7412195843317"><ele>807.2</ele><time>2026-05-01T11:28:07.999Z</time></trkpt><trkpt lat="45.81754436466611" lon="11.741233145383354"><ele>815.0</ele><time>2026-05-01T11:28:08.999Z</time></trkpt><trkpt lat="45.81768965679848" lon="11.741278779334722"><ele>816.5</ele><time>2026-05-01T11:28:09.999Z</time></trkpt><trkpt lat="45.81782037583287" lon="11.741379674334171"><ele>818.0</ele><time>2026-05-01T11:28:10.999Z</time></trkpt><trkpt lat="45.81790957684617" lon="11.741479030768536"><ele>819.5</ele><time>2026-05-01T11:28:11.999Z</time></trkpt><trkpt lat="45.81798541090252" lon="11.741608528896831"><ele>821.0</ele><time>2026-05-01T11:28:12.999Z</time></trkpt><trkpt lat="45.81804864746061" lon="11.741708977350306"><ele>821.0</ele><time>2026-05-01T11:28:13.999Z</time></trkpt><trkpt lat="45.818118981788935" lon="11.741775362658267"><ele>821.0</ele><time>2026-05-01T11:28:14.999Z</time></trkpt><trkpt lat="45.818208297469674" lon="11.741792364637456"><ele>821.0</ele><time>2026-05-01T11:28:15.999Z</time></trkpt><trkpt lat="45.818302686473174" lon="11.74175209856878"><ele>821.0</ele><time>2026-05-01T11:28:16.999Z</time></trkpt><trkpt lat="45.818426372512306" lon="11.74165191987121"><ele>821.0</ele><time>2026-05-01T11:28:17.999Z</time></trkpt><trkpt lat="45.818561810135975" lon="11.74148698578901"><ele>819.3333333333334</ele><time>2026-05-01T11:28:18.999Z</time></trkpt><trkpt lat="45.81871435664255" lon="11.741284815036119"><ele>817.6666666666667</ele><time>2026-05-01T11:28:19.999Z</time></trkpt><trkpt lat="45.818820049476386" lon="11.741145339662035"><ele>816.0</ele><time>2026-05-01T11:28:20.999Z</time></trkpt><trkpt lat="45.81889485657539" lon="11.741008349118175"><ele>819.25</ele><time>2026-05-01T11:28:21.999Z</time></trkpt><trkpt lat="45.81899893916888" lon="11.740945875877568"><ele>822.5</ele><time>2026-05-01T11:28:22.999Z</time></trkpt><trkpt lat="45.819145906042905" lon="11.74095225850181"><ele>825.75</ele><time>2026-05-01T11:28:23.999Z</time></trkpt><trkpt lat="45.81931623568258" lon="11.741000465419496"><ele>829.0</ele><time>2026-05-01T11:28:24.999Z</time></trkpt><trkpt lat="45.81949485021996" lon="11.741044922993535"><ele>830.75</ele><time>2026-05-01T11:28:25.999Z</time></trkpt><trkpt lat="45.81962217878683" lon="11.74110859971655"><ele>832.5</ele><time>2026-05-01T11:28:26.999Z</time></trkpt><trkpt lat="45.81972858278164" lon="11.74120517758002"><ele>834.25</ele><time>2026-05-01T11:28:27.999Z</time></trkpt><trkpt lat="45.81982209006435" lon="11.741363091396698"><ele>836.0</ele><time>2026-05-01T11:28:28.999Z</time></trkpt><trkpt lat="45.8198882722846" lon="11.741522646313845"><ele>836.0000000000001</ele><time>2026-05-01T11:28:29.999Z</time></trkpt><trkpt lat="45.81994796613631" lon="11.74164359826499"><ele>836.0</ele><time>2026-05-01T11:28:30.999Z</time></trkpt><trkpt lat="45.82001279382331" lon="11.741742959967356"><ele>836.0</ele><time>2026-05-01T11:28:31.999Z</time></trkpt><trkpt lat="45.820078435165065" lon="11.741800645224831"><ele>836.0</ele><time>2026-05-01T11:28:32.999Z</time></trkpt><trkpt lat="45.820149140697936" lon="11.741833993317229"><ele>836.0000000000001</ele><time>2026-05-01T11:28:33.999Z</time></trkpt><trkpt lat="45.82022615223824" lon="11.741839182752175"><ele>836.0</ele><time>2026-05-01T11:28:34.999Z</time></trkpt><trkpt lat="45.820304787056756" lon="11.741835763164566"><ele>834.1999999999999</ele><time>2026-05-01T11:28:35.999Z</time></trkpt><trkpt lat="45.8203841415808" lon="11.741846575329982"><ele>832.4</ele><time>2026-05-01T11:28:36.999Z</time></trkpt><trkpt lat="45.82046491246854" lon="11.741872158527626"><ele>830.6</ele><time>2026-05-01T11:28:37.999Z</time></trkpt><trkpt lat="45.82055545175397" lon="11.74191458031249"><ele>828.8</ele><time>2026-05-01T11:28:38.999Z</time></trkpt><trkpt lat="45.82065612708723" lon="11.741990110563844"><ele>827.0</ele><time>2026-05-01T11:28:39.999Z</time></trkpt><trkpt lat="45.82076715153267" lon="11.742075921132525"><ele>827.0</ele><time>2026-05-01T11:28:40.999Z</time></trkpt><trkpt lat="45.82088135399968" lon="11.742141062428939"><ele>827.0</ele><time>2026-05-01T11:28:41.999Z</time></trkpt><trkpt lat="45.820997177537876" lon="11.742170272895473"><ele>827.0</ele><time>2026-05-01T11:28:42.999Z</time></trkpt><trkpt lat="45.821116494332294" lon="11.74213473668208"><ele>827.0</ele><time>2026-05-01T11:28:43.999Z</time></trkpt><trkpt lat="45.82122700736868" lon="11.742064260962286"><ele>832.25</ele><time>2026-05-01T11:28:44.999Z</time></trkpt><trkpt lat="45.82131676732945" lon="11.742005871693928"><ele>837.5</ele><time>2026-05-01T11:28:45.999Z</time></trkpt><trkpt lat="45.82140597502733" lon="11.741977598024116"><ele>842.75</ele><time>2026-05-01T11:28:46.999Z</time></trkpt><trkpt lat="45.82148719545561" lon="11.741972019730161"><ele>848.0</ele><time>2026-05-01T11:28:47.999Z</time></trkpt><trkpt lat="45.821627804613016" lon="11.742192142838846"><ele>848.0</ele><time>2026-05-01T11:28:48.999Z</time></trkpt><trkpt lat="45.82171011238541" lon="11.742281620490498"><ele>848.0</ele><time>2026-05-01T11:28:49.999Z</time></trkpt><trkpt lat="45.821809348400905" lon="11.742327632030053"><ele>848.0</ele><time>2026-05-01T11:28:50.999Z</time></trkpt><trkpt lat="45.82192161927847" lon="11.74230326277709"><ele>848.0</ele><time>2026-05-01T11:28:51.999Z</time></trkpt><trkpt lat="45.82201240298908" lon="11.742262734212945"><ele>848.0</ele><time>2026-05-01T11:28:52.999Z</time></trkpt><trkpt lat="45.82212739346546" lon="11.742307315219701"><ele>849.3333333333334</ele><time>2026-05-01T11:28:55Z</time></trkpt><trkpt lat="45.822216839287094" lon="11.742332702195082"><ele>850.6666666666667</ele><time>2026-05-01T11:28:56Z</time></trkpt><trkpt lat="45.822290108485056" lon="11.742366724740974"><ele>852.0</ele><time>2026-05-01T11:28:57Z</time></trkpt><trkpt lat="45.822367460531694" lon="11.742429189923824"><ele>853.3333333333333</ele><time>2026-05-01T11:28:58Z</time></trkpt><trkpt lat="45.82245982488002" lon="11.742474649958162"><ele>854.6666666666666</ele><time>2026-05-01T11:28:59Z</time></trkpt><trkpt lat="45.82254373582797" lon="11.742537355966508"><ele>856.0</ele><time>2026-05-01T11:29:00Z</time></trkpt><trkpt lat="45.822621444275825" lon="11.742587863535881"><ele>857.0</ele><time>2026-05-01T11:29:01Z</time></trkpt><trkpt lat="45.822698124785646" lon="11.742642240485015"><ele>857.9999999999999</ele><time>2026-05-01T11:29:02Z</time></trkpt><trkpt lat="45.82278023930464" lon="11.74268152606595"><ele>858.9999999999999</ele><time>2026-05-01T11:29:03Z</time></trkpt><trkpt lat="45.82287459493837" lon="11.742694407399842"><ele>860.0</ele><time>2026-05-01T11:29:04Z</time></trkpt><trkpt lat="45.82298056635607" lon="11.74268943529151"><ele>861.0</ele><time>2026-05-01T11:29:05Z</time></trkpt><trkpt lat="45.82309841240803" lon="11.742677320642601"><ele>861.0</ele><time>2026-05-01T11:29:06Z</time></trkpt><trkpt lat="45.82321144961864" lon="11.74267232906057"><ele>860.9999999999999</ele><time>2026-05-01T11:29:07Z</time></trkpt><trkpt lat="45.82331174454619" lon="11.742642758152348"><ele>860.9999999999999</ele><time>2026-05-01T11:29:08Z</time></trkpt><trkpt lat="45.823401492665774" lon="11.742577161816937"><ele>861.0</ele><time>2026-05-01T11:29:09Z</time></trkpt><trkpt lat="45.823479893830736" lon="11.742452396608538"><ele>861.0</ele><time>2026-05-01T11:29:10Z</time></trkpt><trkpt lat="45.82354897950804" lon="11.742296925667675"><ele>858.1999999999999</ele><time>2026-05-01T11:29:11Z</time></trkpt><trkpt lat="45.82360230576143" lon="11.742157909818948"><ele>855.3999999999999</ele><time>2026-05-01T11:29:12Z</time></trkpt><trkpt lat="45.82365616763601" lon="11.742040880302417"><ele>852.6</ele><time>2026-05-01T11:29:13Z</time></trkpt><trkpt lat="45.823714983294906" lon="11.741932336066816"><ele>849.8</ele><time>2026-05-01T11:29:14Z</time></trkpt><trkpt lat="45.82378156876407" lon="11.741825711661408"><ele>847.0</ele><time>2026-05-01T11:29:15Z</time></trkpt><trkpt lat="45.8238490955547" lon="11.74172108748769"><ele>847.0</ele><time>2026-05-01T11:29:16Z</time></trkpt><trkpt lat="45.82389998851931" lon="11.741619293924643"><ele>847.0</ele><time>2026-05-01T11:29:17Z</time></trkpt><trkpt lat="45.82393752269244" lon="11.741510847581122"><ele>847.0</ele><time>2026-05-01T11:29:18Z</time></trkpt><trkpt lat="45.82397264938946" lon="11.741389744705092"><ele>847.0</ele><time>2026-05-01T11:29:19Z</time></trkpt><trkpt lat="45.82399828490354" lon="11.741261097113897"><ele>847.0</ele><time>2026-05-01T11:29:20Z</time></trkpt><trkpt lat="45.82401631016441" lon="11.741117882800907"><ele>847.4000000000001</ele><time>2026-05-01T11:29:21Z</time></trkpt><trkpt lat="45.82402424706403" lon="11.74095839861736"><ele>847.8000000000001</ele><time>2026-05-01T11:29:22Z</time></trkpt><trkpt lat="45.82403389960789" lon="11.740817577686427"><ele>848.2</ele><time>2026-05-01T11:29:23Z</time></trkpt><trkpt lat="45.82404043072771" lon="11.740682029504823"><ele>848.6</ele><time>2026-05-01T11:29:24Z</time></trkpt><trkpt lat="45.82405253599185" lon="11.740554593757087"><ele>849.0</ele><time>2026-05-01T11:29:25Z</time></trkpt><trkpt lat="45.82406659088974" lon="11.740420576697234"><ele>849.0</ele><time>2026-05-01T11:29:26Z</time></trkpt><trkpt lat="45.8240868943027" lon="11.740286018076805"><ele>849.0</ele><time>2026-05-01T11:29:27Z</time></trkpt><trkpt lat="45.824115259085524" lon="11.740145455747635"><ele>849.0</ele><time>2026-05-01T11:29:28Z</time></trkpt><trkpt lat="45.824146683663976" lon="11.74000517190353"><ele>849.0</ele><time>2026-05-01T11:29:29Z</time></trkpt><trkpt lat="45.82417245718039" lon="11.739864910389242"><ele>849.0</ele><time>2026-05-01T11:29:30Z</time></trkpt><trkpt lat="45.824191771373656" lon="11.739735991445025"><ele>850.8000000000001</ele><time>2026-05-01T11:29:30.999Z</time></trkpt><trkpt lat="45.82420069580238" lon="11.73961506627293"><ele>852.6</ele><time>2026-05-01T11:29:31.999Z</time></trkpt><trkpt lat="45.824206694429904" lon="11.739485496469033"><ele>854.4</ele><time>2026-05-01T11:29:32.999Z</time></trkpt><trkpt lat="45.82421719582684" lon="11.73934615511787"><ele>856.2</ele><time>2026-05-01T11:29:33.999Z</time></trkpt><trkpt lat="45.824232591386135" lon="11.739203759375648"><ele>858.0</ele><time>2026-05-01T11:29:34.999Z</time></trkpt><trkpt lat="45.82425663743111" lon="11.739060229216781"><ele>858.5999999999999</ele><time>2026-05-01T11:29:36Z</time></trkpt><trkpt lat="45.82428482949806" lon="11.73890990248409"><ele>859.1999999999999</ele><time>2026-05-01T11:29:37Z</time></trkpt><trkpt lat="45.82432153704849" lon="11.738755491668801"><ele>859.8</ele><time>2026-05-01T11:29:38Z</time></trkpt><trkpt lat="45.82435661482148" lon="11.738606356673653"><ele>860.4</ele><time>2026-05-01T11:29:39Z</time></trkpt><trkpt lat="45.82438264102835" lon="11.738457901954764"><ele>861.0</ele><time>2026-05-01T11:29:40Z</time></trkpt><trkpt lat="45.82438023825625" lon="11.738298187579323"><ele>861.0</ele><time>2026-05-01T11:29:41Z</time></trkpt><trkpt lat="45.82435432972894" lon="11.738128231370682"><ele>861.0</ele><time>2026-05-01T11:29:42Z</time></trkpt><trkpt lat="45.82425806044074" lon="11.737973150913085"><ele>861.0</ele><time>2026-05-01T11:29:43Z</time></trkpt><trkpt lat="45.82417123406193" lon="11.737795480224701"><ele>861.0</ele><time>2026-05-01T11:29:44Z</time></trkpt><trkpt lat="45.82407469556932" lon="11.73766902795519"><ele>860.0</ele><time>2026-05-01T11:29:45Z</time></trkpt><trkpt lat="45.823981187440715" lon="11.737559460863498"><ele>858.9999999999999</ele><time>2026-05-01T11:29:46Z</time></trkpt><trkpt lat="45.82390512663123" lon="11.737472097381701"><ele>857.9999999999999</ele><time>2026-05-01T11:29:47Z</time></trkpt><trkpt lat="45.82384117204196" lon="11.737381649815397"><ele>857.0</ele><time>2026-05-01T11:29:48Z</time></trkpt><trkpt lat="45.82382872335401" lon="11.737259778096742"><ele>856.0</ele><time>2026-05-01T11:29:49Z</time></trkpt><trkpt lat="45.82386606069659" lon="11.737135330158775"><ele>856.0</ele><time>2026-05-01T11:29:50Z</time></trkpt><trkpt lat="45.82396577388941" lon="11.737062760689769"><ele>856.0</ele><time>2026-05-01T11:29:51Z</time></trkpt><trkpt lat="45.82409295014051" lon="11.736986169816884"><ele>856.0</ele><time>2026-05-01T11:29:52Z</time></trkpt><trkpt lat="45.82420272461571" lon="11.736913647615735"><ele>856.0</ele><time>2026-05-01T11:29:53Z</time></trkpt><trkpt lat="45.82434016617245" lon="11.73691698777607"><ele>856.6666666666666</ele><time>2026-05-01T11:29:54Z</time></trkpt><trkpt lat="45.82446814780025" lon="11.737032621683536"><ele>857.3333333333333</ele><time>2026-05-01T11:29:55Z</time></trkpt><trkpt lat="45.824637475185945" lon="11.737133185516516"><ele>858.0</ele><time>2026-05-01T11:29:56Z</time></trkpt><trkpt lat="45.824788877873395" lon="11.73729418513575"><ele>858.0</ele><time>2026-05-01T11:29:57Z</time></trkpt><trkpt lat="45.82491776948291" lon="11.737415795421668"><ele>858.0</ele><time>2026-05-01T11:29:58Z</time></trkpt><trkpt lat="45.825044100279946" lon="11.737541241413647"><ele>858.0</ele><time>2026-05-01T11:29:59Z</time></trkpt><trkpt lat="45.825122003835105" lon="11.737758637383045"><ele>862.25</ele><time>2026-05-01T11:30:00Z</time></trkpt><trkpt lat="45.82518818032579" lon="11.737951713514104"><ele>866.5</ele><time>2026-05-01T11:30:01Z</time></trkpt><trkpt lat="45.825263116077124" lon="11.738099617948064"><ele>870.75</ele><time>2026-05-01T11:30:02Z</time></trkpt><trkpt lat="45.82537240668639" lon="11.7382013786071"><ele>875.0</ele><time>2026-05-01T11:30:03Z</time></trkpt><trkpt lat="45.825505878751144" lon="11.738276442358742"><ele>875.0</ele><time>2026-05-01T11:30:04Z</time></trkpt><trkpt lat="45.82561426680488" lon="11.73834929363508"><ele>875.0</ele><time>2026-05-01T11:30:05Z</time></trkpt><trkpt lat="45.82570135871597" lon="11.738490489911639"><ele>875.0</ele><time>2026-05-01T11:30:06Z</time></trkpt><trkpt lat="45.82575021965716" lon="11.738673391110648"><ele>875.0</ele><time>2026-05-01T11:30:07Z</time></trkpt><trkpt lat="45.82582016224571" lon="11.738845982804062"><ele>874.25</ele><time>2026-05-01T11:30:08Z</time></trkpt><trkpt lat="45.82587480118966" lon="11.739002304355433"><ele>873.5</ele><time>2026-05-01T11:30:09Z</time></trkpt><trkpt lat="45.825977985171804" lon="11.739110930458768"><ele>872.75</ele><time>2026-05-01T11:30:10Z</time></trkpt><trkpt lat="45.82604241764545" lon="11.739240045302044"><ele>872.0</ele><time>2026-05-01T11:30:11Z</time></trkpt><trkpt lat="45.82608920119764" lon="11.7394019499929"><ele>881.25</ele><time>2026-05-01T11:30:12Z</time></trkpt><trkpt lat="45.826094834935546" lon="11.739599501215475"><ele>890.5</ele><time>2026-05-01T11:30:13Z</time></trkpt><trkpt lat="45.82611563648435" lon="11.739799723478562"><ele>899.75</ele><time>2026-05-01T11:30:14Z</time></trkpt><trkpt lat="45.82612165711761" lon="11.740008428699879"><ele>909.0</ele><time>2026-05-01T11:30:15Z</time></trkpt><trkpt lat="45.82613776588566" lon="11.740223476415412"><ele>909.75</ele><time>2026-05-01T11:30:16Z</time></trkpt><trkpt lat="45.82615771651604" lon="11.740418404094283"><ele>910.5</ele><time>2026-05-01T11:30:17Z</time></trkpt><trkpt lat="45.82617749682978" lon="11.740586237339715"><ele>911.25</ele><time>2026-05-01T11:30:18Z</time></trkpt><trkpt lat="45.82619857057984" lon="11.740762757113684"><ele>912.0</ele><time>2026-05-01T11:30:19Z</time></trkpt><trkpt lat="45.82622398860577" lon="11.740934512184637"><ele>910.25</ele><time>2026-05-01T11:30:20Z</time></trkpt><trkpt lat="45.82625585172643" lon="11.741107549948886"><ele>908.5</ele><time>2026-05-01T11:30:21Z</time></trkpt><trkpt lat="45.82630351503833" lon="11.741285438465589"><ele>906.75</ele><time>2026-05-01T11:30:22Z</time></trkpt><trkpt lat="45.826362832609306" lon="11.74146397409316"><ele>905.0</ele><time>2026-05-01T11:30:23Z</time></trkpt><trkpt lat="45.82643064641433" lon="11.741643453139735"><ele>905.0</ele><time>2026-05-01T11:30:24Z</time></trkpt><trkpt lat="45.82648997784871" lon="11.74180271878587"><ele>905.0</ele><time>2026-05-01T11:30:25Z</time></trkpt><trkpt lat="45.82654547647185" lon="11.741948054078572"><ele>905.0</ele><time>2026-05-01T11:30:26Z</time></trkpt><trkpt lat="45.826604578872455" lon="11.742094357239258"><ele>905.0</ele><time>2026-05-01T11:30:27Z</time></trkpt><trkpt lat="45.82667551294501" lon="11.742228770256666"><ele>906.25</ele><time>2026-05-01T11:30:28Z</time></trkpt><trkpt lat="45.826766419703766" lon="11.742355808430938"><ele>907.5</ele><time>2026-05-01T11:30:29Z</time></trkpt><trkpt lat="45.826884905978034" lon="11.74246701053195"><ele>908.75</ele><time>2026-05-01T11:30:30Z</time></trkpt><trkpt lat="45.82701043098734" lon="11.742563482905847"><ele>910.0</ele><time>2026-05-01T11:30:31Z</time></trkpt><trkpt lat="45.827142424859034" lon="11.742620499705007"><ele>910.0</ele><time>2026-05-01T11:30:32Z</time></trkpt><trkpt lat="45.8272760023563" lon="11.742661373701416"><ele>910.0</ele><time>2026-05-01T11:30:33Z</time></trkpt><trkpt lat="45.82741982406694" lon="11.742669753108936"><ele>910.0</ele><time>2026-05-01T11:30:34Z</time></trkpt><trkpt lat="45.82758106327841" lon="11.742639232683356"><ele>910.0</ele><time>2026-05-01T11:30:35Z</time></trkpt><trkpt lat="45.8277555475126" lon="11.742588924974406"><ele>914.0</ele><time>2026-05-01T11:30:36Z</time></trkpt><trkpt lat="45.827934143444715" lon="11.742523365962569"><ele>918.0</ele><time>2026-05-01T11:30:37Z</time></trkpt><trkpt lat="45.82807178719753" lon="11.742484919555947"><ele>922.0</ele><time>2026-05-01T11:30:38Z</time></trkpt><trkpt lat="45.82818698401089" lon="11.742514831703557"><ele>926.0</ele><time>2026-05-01T11:30:39Z</time></trkpt><trkpt lat="45.82827968524483" lon="11.742554530671182"><ele>926.0</ele><time>2026-05-01T11:30:40Z</time></trkpt><trkpt lat="45.82835282520863" lon="11.74267183358921"><ele>926.0</ele><time>2026-05-01T11:30:41Z</time></trkpt><trkpt lat="45.82840523785205" lon="11.742825790914193"><ele>926.0</ele><time>2026-05-01T11:30:42Z</time></trkpt><trkpt lat="45.828419872282474" lon="11.743025076328143"><ele>926.0</ele><time>2026-05-01T11:30:43Z</time></trkpt><trkpt lat="45.82843608942403" lon="11.743260038738963"><ele>925.25</ele><time>2026-05-01T11:30:44Z</time></trkpt><trkpt lat="45.82843585030359" lon="11.743490807062525"><ele>924.5</ele><time>2026-05-01T11:30:45Z</time></trkpt><trkpt lat="45.828427471814315" lon="11.743695606601023"><ele>923.75</ele><time>2026-05-01T11:30:46Z</time></trkpt><trkpt lat="45.828425634665415" lon="11.743859988413444"><ele>923.0</ele><time>2026-05-01T11:30:47Z</time></trkpt><trkpt lat="45.82843682372514" lon="11.744021229001882"><ele>922.75</ele><time>2026-05-01T11:30:48Z</time></trkpt><trkpt lat="45.828458134364865" lon="11.744186144282123"><ele>922.5</ele><time>2026-05-01T11:30:49Z</time></trkpt><trkpt lat="45.82848215402606" lon="11.744332677912785"><ele>922.25</ele><time>2026-05-01T11:30:50Z</time></trkpt><trkpt lat="45.82850857471847" lon="11.744481439304705"><ele>922.0</ele><time>2026-05-01T11:30:51Z</time></trkpt><trkpt lat="45.82854932023844" lon="11.74464576590271"><ele>927.5</ele><time>2026-05-01T11:30:52Z</time></trkpt><trkpt lat="45.82861090143338" lon="11.744800253618822"><ele>933.0</ele><time>2026-05-01T11:30:53Z</time></trkpt><trkpt lat="45.82867565327726" lon="11.744925927232332"><ele>938.5</ele><time>2026-05-01T11:30:54Z</time></trkpt><trkpt lat="45.82875353206656" lon="11.745038575559395"><ele>944.0</ele><time>2026-05-01T11:30:55Z</time></trkpt><trkpt lat="45.828847735912696" lon="11.745131785975424"><ele>938.0</ele><time>2026-05-01T11:30:56Z</time></trkpt><trkpt lat="45.828945385494755" lon="11.745212469402519"><ele>932.0</ele><time>2026-05-01T11:30:57Z</time></trkpt><trkpt lat="45.82905252504127" lon="11.745281950820942"><ele>926.0</ele><time>2026-05-01T11:30:58Z</time></trkpt><trkpt lat="45.829165185553094" lon="11.745324726626063"><ele>920.0</ele><time>2026-05-01T11:30:59Z</time></trkpt><trkpt lat="45.82927343235006" lon="11.745331536937336"><ele>922.4</ele><time>2026-05-01T11:31:00Z</time></trkpt><trkpt lat="45.82937737900317" lon="11.745327531663822"><ele>924.8</ele><time>2026-05-01T11:31:01Z</time></trkpt><trkpt lat="45.82947452380217" lon="11.745324783584781"><ele>927.2</ele><time>2026-05-01T11:31:02Z</time></trkpt><trkpt lat="45.8295695425447" lon="11.745321600267989"><ele>929.6</ele><time>2026-05-01T11:31:03Z</time></trkpt><trkpt lat="45.82965041962324" lon="11.745331664587344"><ele>932.0</ele><time>2026-05-01T11:31:04Z</time></trkpt><trkpt lat="45.82972212224737" lon="11.745351388352336"><ele>932.0000000000001</ele><time>2026-05-01T11:31:05Z</time></trkpt><trkpt lat="45.82980844222069" lon="11.745388604586797"><ele>932.0</ele><time>2026-05-01T11:31:07Z</time></trkpt><trkpt lat="45.829880591087075" lon="11.745446107426643"><ele>932.0</ele><time>2026-05-01T11:31:10Z</time></trkpt><trkpt lat="45.82996169316547" lon="11.745422831393833"><ele>932.0</ele><time>2026-05-01T11:31:12Z</time></trkpt><trkpt lat="45.83000192569285" lon="11.745352607944534"><ele>932.0000000000001</ele><time>2026-05-01T11:31:13Z</time></trkpt><trkpt lat="45.82999625257758" lon="11.745238371737736"><ele>932.0</ele><time>2026-05-01T11:31:14Z</time></trkpt><trkpt lat="45.82993944399393" lon="11.745160466237664"><ele>935.4000000000001</ele><time>2026-05-01T11:31:15Z</time></trkpt><trkpt lat="45.82985142091539" lon="11.745154773091134"><ele>938.8000000000001</ele><time>2026-05-01T11:31:16Z</time></trkpt><trkpt lat="45.82974181512449" lon="11.745164144007019"><ele>942.2</ele><time>2026-05-01T11:31:17Z</time></trkpt><trkpt lat="45.82961744306013" lon="11.74513660565939"><ele>945.6</ele><time>2026-05-01T11:31:18Z</time></trkpt><trkpt lat="45.82950252609853" lon="11.745086235670186"><ele>949.0</ele><time>2026-05-01T11:31:19Z</time></trkpt><trkpt lat="45.829399084157295" lon="11.745027555784201"><ele>948.0</ele><time>2026-05-01T11:31:20Z</time></trkpt><trkpt lat="45.82930393461164" lon="11.74496697262938"><ele>947.0000000000001</ele><time>2026-05-01T11:31:21Z</time></trkpt><trkpt lat="45.82922019205422" lon="11.744896184417053"><ele>946.0000000000001</ele><time>2026-05-01T11:31:22Z</time></trkpt><trkpt lat="45.82914192670069" lon="11.744820448633767"><ele>945.0</ele><time>2026-05-01T11:31:23Z</time></trkpt><trkpt lat="45.829072459607474" lon="11.744733533556158"><ele>944.0</ele><time>2026-05-01T11:31:24Z</time></trkpt><trkpt lat="45.8290322023787" lon="11.744644211388403"><ele>944.0</ele><time>2026-05-01T11:31:25Z</time></trkpt><trkpt lat="45.82900921642706" lon="11.74455095887587"><ele>944.0000000000001</ele><time>2026-05-01T11:31:26Z</time></trkpt><trkpt lat="45.82900405809377" lon="11.74444035158774"><ele>944.0000000000001</ele><time>2026-05-01T11:31:27Z</time></trkpt><trkpt lat="45.82900236956603" lon="11.74429780155773"><ele>944.0</ele><time>2026-05-01T11:31:28Z</time></trkpt><trkpt lat="45.82900989603346" lon="11.744127827440437"><ele>944.0</ele><time>2026-05-01T11:31:29Z</time></trkpt><trkpt lat="45.82901732215492" lon="11.743947563095729"><ele>948.5</ele><time>2026-05-01T11:31:30Z</time></trkpt><trkpt lat="45.8290255685069" lon="11.743778866530647"><ele>953.0</ele><time>2026-05-01T11:31:31Z</time></trkpt><trkpt lat="45.82903981761078" lon="11.74360645367368"><ele>957.5</ele><time>2026-05-01T11:31:32Z</time></trkpt><trkpt lat="45.82906702409432" lon="11.743438783204837"><ele>962.0</ele><time>2026-05-01T11:31:33Z</time></trkpt><trkpt lat="45.829098186841534" lon="11.74327824543322"><ele>962.5</ele><time>2026-05-01T11:31:33.999Z</time></trkpt><trkpt lat="45.829127899864844" lon="11.743116874746965"><ele>963.0</ele><time>2026-05-01T11:31:34.999Z</time></trkpt><trkpt lat="45.82916235487157" lon="11.742943618887058"><ele>963.5</ele><time>2026-05-01T11:31:35.999Z</time></trkpt><trkpt lat="45.82921450075463" lon="11.742771579722978"><ele>964.0</ele><time>2026-05-01T11:31:36.999Z</time></trkpt><trkpt lat="45.829284062725186" lon="11.742596750739258"><ele>971.0</ele><time>2026-05-01T11:31:37.999Z</time></trkpt><trkpt lat="45.82934779283484" lon="11.742412943907848"><ele>978.0</ele><time>2026-05-01T11:31:38.999Z</time></trkpt><trkpt lat="45.82939792653276" lon="11.74221848829078"><ele>985.0</ele><time>2026-05-01T11:31:39.999Z</time></trkpt><trkpt lat="45.82943192871006" lon="11.742030203789195"><ele>992.0</ele><time>2026-05-01T11:31:41Z</time></trkpt><trkpt lat="45.82947205882853" lon="11.7418776018853"><ele>992.0</ele><time>2026-05-01T11:31:42Z</time></trkpt><trkpt lat="45.829520101563666" lon="11.741732802871933"><ele>992.0</ele><time>2026-05-01T11:31:43Z</time></trkpt><trkpt lat="45.82957276084633" lon="11.741590990749103"><ele>992.0</ele><time>2026-05-01T11:31:44Z</time></trkpt><trkpt lat="45.82963073782408" lon="11.741457826847922"><ele>992.0</ele><time>2026-05-01T11:31:45Z</time></trkpt><trkpt lat="45.82968442389082" lon="11.741346554418923"><ele>992.0</ele><time>2026-05-01T11:31:46Z</time></trkpt><trkpt lat="45.82972693862104" lon="11.741250292642613"><ele>992.0000000000001</ele><time>2026-05-01T11:31:47Z</time></trkpt><trkpt lat="45.82976391514053" lon="11.741150821685613"><ele>992.0</ele><time>2026-05-01T11:31:48Z</time></trkpt><trkpt lat="45.82979876379599" lon="11.741047620813395"><ele>992.0</ele><time>2026-05-01T11:31:49Z</time></trkpt><trkpt lat="45.829799529862875" lon="11.740941944526314"><ele>992.0</ele><time>2026-05-01T11:31:50Z</time></trkpt><trkpt lat="45.829752719410166" lon="11.740833045911339"><ele>992.0000000000001</ele><time>2026-05-01T11:31:51Z</time></trkpt><trkpt lat="45.82968269508003" lon="11.740732056274243"><ele>992.0</ele><time>2026-05-01T11:31:52Z</time></trkpt><trkpt lat="45.82956748641098" lon="11.740747716974857"><ele>991.25</ele><time>2026-05-01T11:31:53Z</time></trkpt><trkpt lat="45.82944571487794" lon="11.740724128699249"><ele>990.5</ele><time>2026-05-01T11:31:54Z</time></trkpt><trkpt lat="45.8293067663739" lon="11.74072162085363"><ele>989.75</ele><time>2026-05-01T11:31:55Z</time></trkpt><trkpt lat="45.829169778279244" lon="11.740724607313975"><ele>989.0</ele><time>2026-05-01T11:31:56Z</time></trkpt><trkpt lat="45.829044595160234" lon="11.740703669242516"><ele>986.0</ele><time>2026-05-01T11:31:57Z</time></trkpt><trkpt lat="45.8289340832901" lon="11.740687425179914"><ele>983.0000000000001</ele><time>2026-05-01T11:31:58Z</time></trkpt><trkpt lat="45.82883283905699" lon="11.74068197467439"><ele>980.0000000000001</ele><time>2026-05-01T11:31:59Z</time></trkpt><trkpt lat="45.82874620557411" lon="11.740657606981648"><ele>977.0</ele><time>2026-05-01T11:32:00Z</time></trkpt><trkpt lat="45.82864757788054" lon="11.740637573161349"><ele>974.0</ele><time>2026-05-01T11:32:01Z</time></trkpt><trkpt lat="45.82856399150534" lon="11.7406289243045"><ele>973.8333333333334</ele><time>2026-05-01T11:32:02Z</time></trkpt><trkpt lat="45.82847476869999" lon="11.740612378253866"><ele>973.6666666666667</ele><time>2026-05-01T11:32:03Z</time></trkpt><trkpt lat="45.82838209920434" lon="11.740596768036204"><ele>973.5</ele><time>2026-05-01T11:32:04Z</time></trkpt><trkpt lat="45.82829724203173" lon="11.74055521498873"><ele>973.3333333333333</ele><time>2026-05-01T11:32:05Z</time></trkpt><trkpt lat="45.82822629387586" lon="11.740487194982123"><ele>973.1666666666666</ele><time>2026-05-01T11:32:06Z</time></trkpt><trkpt lat="45.82817843795208" lon="11.740385570597889"><ele>973.0</ele><time>2026-05-01T11:32:07Z</time></trkpt><trkpt lat="45.82814483982424" lon="11.740248607476424"><ele>974.8</ele><time>2026-05-01T11:32:08Z</time></trkpt><trkpt lat="45.82812555325897" lon="11.740100284739507"><ele>976.5999999999999</ele><time>2026-05-01T11:32:09Z</time></trkpt><trkpt lat="45.82813482233445" lon="11.73995555139045"><ele>978.4000000000001</ele><time>2026-05-01T11:32:10Z</time></trkpt><trkpt lat="45.828177176974954" lon="11.739816270545695"><ele>980.2</ele><time>2026-05-01T11:32:11Z</time></trkpt><trkpt lat="45.82824774574138" lon="11.73968573967074"><ele>982.0</ele><time>2026-05-01T11:32:12Z</time></trkpt><trkpt lat="45.82831731442746" lon="11.739580362244322"><ele>982.0</ele><time>2026-05-01T11:32:13Z</time></trkpt><trkpt lat="45.828368196954635" lon="11.73947960930931"><ele>982.0</ele><time>2026-05-01T11:32:14Z</time></trkpt><trkpt lat="45.828401946755" lon="11.739351998801313"><ele>982.0</ele><time>2026-05-01T11:32:15Z</time></trkpt><trkpt lat="45.828410947749276" lon="11.739200707951861"><ele>982.0</ele><time>2026-05-01T11:32:16Z</time></trkpt><trkpt lat="45.82839850363359" lon="11.739037132510724"><ele>982.0</ele><time>2026-05-01T11:32:17Z</time></trkpt><trkpt lat="45.82836297012056" lon="11.738865822481074"><ele>983.75</ele><time>2026-05-01T11:32:18Z</time></trkpt><trkpt lat="45.82830189444803" lon="11.73869819478245"><ele>985.5</ele><time>2026-05-01T11:32:19Z</time></trkpt><trkpt lat="45.82825852384542" lon="11.7385447573655"><ele>987.25</ele><time>2026-05-01T11:32:20Z</time></trkpt><trkpt lat="45.82821365633973" lon="11.738398164851079"><ele>989.0</ele><time>2026-05-01T11:32:21Z</time></trkpt><trkpt lat="45.82818539016754" lon="11.738223945640632"><ele>991.5</ele><time>2026-05-01T11:32:22Z</time></trkpt><trkpt lat="45.828163453327534" lon="11.738044412273954"><ele>994.0</ele><time>2026-05-01T11:32:23Z</time></trkpt><trkpt lat="45.82815391214143" lon="11.7378748958139"><ele>996.5</ele><time>2026-05-01T11:32:24Z</time></trkpt><trkpt lat="45.828157077983406" lon="11.737716669979088"><ele>999.0</ele><time>2026-05-01T11:32:25Z</time></trkpt><trkpt lat="45.82816724011869" lon="11.737546345798746"><ele>999.6</ele><time>2026-05-01T11:32:26Z</time></trkpt><trkpt lat="45.8281936789194" lon="11.73737143580156"><ele>1000.2</ele><time>2026-05-01T11:32:27Z</time></trkpt><trkpt lat="45.828235943514315" lon="11.737211151794106"><ele>1000.8000000000001</ele><time>2026-05-01T11:32:28Z</time></trkpt><trkpt lat="45.82827971953596" lon="11.737085152757263"><ele>1001.4000000000001</ele><time>2026-05-01T11:32:29Z</time></trkpt><trkpt lat="45.82833225390815" lon="11.736977687332747"><ele>1002.0</ele><time>2026-05-01T11:32:30Z</time></trkpt><trkpt lat="45.82840520954521" lon="11.736876813582109"><ele>1001.75</ele><time>2026-05-01T11:32:31Z</time></trkpt><trkpt lat="45.82849704954489" lon="11.736803349756864"><ele>1001.5</ele><time>2026-05-01T11:32:32Z</time></trkpt><trkpt lat="45.82861203610321" lon="11.736759914884537"><ele>1001.25</ele><time>2026-05-01T11:32:33Z</time></trkpt><trkpt lat="45.828744418537795" lon="11.736747784535206"><ele>1001.0</ele><time>2026-05-01T11:32:34Z</time></trkpt><trkpt lat="45.82887200143686" lon="11.736739851515928"><ele>1001.0</ele><time>2026-05-01T11:32:35Z</time></trkpt><trkpt lat="45.82899041691046" lon="11.736733558283765"><ele>1001.0</ele><time>2026-05-01T11:32:36Z</time></trkpt><trkpt lat="45.82911109168951" lon="11.736730970851445"><ele>1001.0</ele><time>2026-05-01T11:32:37Z</time></trkpt><trkpt lat="45.829238266021854" lon="11.736749524406692"><ele>1001.0</ele><time>2026-05-01T11:32:38Z</time></trkpt><trkpt lat="45.82936731743478" lon="11.736809593858268"><ele>999.0</ele><time>2026-05-01T11:32:39Z</time></trkpt><trkpt lat="45.829513503684915" lon="11.736832850215414"><ele>997.0</ele><time>2026-05-01T11:32:40Z</time></trkpt><trkpt lat="45.82966128947165" lon="11.736881971161326"><ele>995.0</ele><time>2026-05-01T11:32:41Z</time></trkpt><trkpt lat="45.82982073616421" lon="11.736905707228711"><ele>1002.25</ele><time>2026-05-01T11:32:42Z</time></trkpt><trkpt lat="45.829971971995576" lon="11.736924050136237"><ele>1009.5</ele><time>2026-05-01T11:32:43Z</time></trkpt><trkpt lat="45.830113746558844" lon="11.736948361583172"><ele>1016.75</ele><time>2026-05-01T11:32:44Z</time></trkpt><trkpt lat="45.83025253492261" lon="11.736982176587487"><ele>1024.0</ele><time>2026-05-01T11:32:45Z</time></trkpt><trkpt lat="45.83039747068578" lon="11.737011256288145"><ele>1026.3333333333333</ele><time>2026-05-01T11:32:46Z</time></trkpt><trkpt lat="45.83055368560529" lon="11.737042305289823"><ele>1028.6666666666667</ele><time>2026-05-01T11:32:47Z</time></trkpt><trkpt lat="45.83074280340082" lon="11.737000889216333"><ele>1031.0</ele><time>2026-05-01T11:32:48Z</time></trkpt><trkpt lat="45.830927964829755" lon="11.736949594486884"><ele>1035.25</ele><time>2026-05-01T11:32:49Z</time></trkpt><trkpt lat="45.83107531930061" lon="11.73693066152187"><ele>1039.5</ele><time>2026-05-01T11:32:50Z</time></trkpt><trkpt lat="45.83120692606768" lon="11.736921193525447"><ele>1043.75</ele><time>2026-05-01T11:32:51Z</time></trkpt><trkpt lat="45.83132370407041" lon="11.736931070318997"><ele>1048.0</ele><time>2026-05-01T11:32:52Z</time></trkpt><trkpt lat="45.83142523871586" lon="11.736891954126495"><ele>1040.75</ele><time>2026-05-01T11:32:53Z</time></trkpt><trkpt lat="45.83151618702487" lon="11.736818553821156"><ele>1033.5</ele><time>2026-05-01T11:32:54Z</time></trkpt><trkpt lat="45.83159627569939" lon="11.736702348077156"><ele>1026.25</ele><time>2026-05-01T11:32:55Z</time></trkpt><trkpt lat="45.831642847681415" lon="11.736536222575294"><ele>1019.0</ele><time>2026-05-01T11:32:56Z</time></trkpt><trkpt lat="45.831680951536384" lon="11.736374018524284"><ele>1019.0</ele><time>2026-05-01T11:32:57Z</time></trkpt><trkpt lat="45.831711684989045" lon="11.736230741841544"><ele>1019.0000000000001</ele><time>2026-05-01T11:32:58Z</time></trkpt><trkpt lat="45.83175476364583" lon="11.73609680622442"><ele>1019.0000000000001</ele><time>2026-05-01T11:32:59Z</time></trkpt><trkpt lat="45.831821205476786" lon="11.736013565680393"><ele>1019.0</ele><time>2026-05-01T11:33:00Z</time></trkpt><trkpt lat="45.831896337312614" lon="11.735944316094727"><ele>1019.0</ele><time>2026-05-01T11:33:01Z</time></trkpt><trkpt lat="45.83199778160803" lon="11.735953342912852"><ele>1019.6</ele><time>2026-05-01T11:33:02Z</time></trkpt><trkpt lat="45.832090590315666" lon="11.735964733458317"><ele>1020.2</ele><time>2026-05-01T11:33:03Z</time></trkpt><trkpt lat="45.832183907957" lon="11.735963648059752"><ele>1020.8000000000001</ele><time>2026-05-01T11:33:04Z</time></trkpt><trkpt lat="45.83228185053475" lon="11.735948293344832"><ele>1021.4000000000001</ele><time>2026-05-01T11:33:05Z</time></trkpt><trkpt lat="45.832376415070776" lon="11.735947328434001"><ele>1022.0</ele><time>2026-05-01T11:33:06Z</time></trkpt><trkpt lat="45.832469680014285" lon="11.735923682839616"><ele>1022.0</ele><time>2026-05-01T11:33:07Z</time></trkpt><trkpt lat="45.83255919555001" lon="11.73587294375344"><ele>1022.0</ele><time>2026-05-01T11:33:08Z</time></trkpt><trkpt lat="45.83264558160566" lon="11.735783193619776"><ele>1022.0</ele><time>2026-05-01T11:33:09Z</time></trkpt><trkpt lat="45.83271340982971" lon="11.735646860190727"><ele>1022.0</ele><time>2026-05-01T11:33:10Z</time></trkpt><trkpt lat="45.832768033718" lon="11.735510848531032"><ele>1022.0</ele><time>2026-05-01T11:33:11Z</time></trkpt><trkpt lat="45.83281241644085" lon="11.73538401534272"><ele>1021.4000000000001</ele><time>2026-05-01T11:33:12Z</time></trkpt><trkpt lat="45.832862329752224" lon="11.735280478229342"><ele>1020.8000000000001</ele><time>2026-05-01T11:33:13Z</time></trkpt><trkpt lat="45.8329341606524" lon="11.735200389339685"><ele>1020.2</ele><time>2026-05-01T11:33:14Z</time></trkpt><trkpt lat="45.833040581638734" lon="11.735191332649258"><ele>1019.6</ele><time>2026-05-01T11:33:15Z</time></trkpt><trkpt lat="45.833165321895756" lon="11.735169009550171"><ele>1019.0</ele><time>2026-05-01T11:33:16Z</time></trkpt><trkpt lat="45.83328075087278" lon="11.735116941055146"><ele>1019.0</ele><time>2026-05-01T11:33:17Z</time></trkpt><trkpt lat="45.83339581547783" lon="11.735085985428118"><ele>1019.0000000000001</ele><time>2026-05-01T11:33:18Z</time></trkpt><trkpt lat="45.83350318697809" lon="11.73506108647679"><ele>1019.0000000000001</ele><time>2026-05-01T11:33:19Z</time></trkpt><trkpt lat="45.8336089618694" lon="11.735028946251608"><ele>1019.0</ele><time>2026-05-01T11:33:20Z</time></trkpt><trkpt lat="45.83371466037655" lon="11.734966050884786"><ele>1019.0</ele><time>2026-05-01T11:33:21Z</time></trkpt><trkpt lat="45.83381882020815" lon="11.734873803391945"><ele>1019.6</ele><time>2026-05-01T11:33:22Z</time></trkpt><trkpt lat="45.83390070400659" lon="11.734783094414974"><ele>1020.2</ele><time>2026-05-01T11:33:23Z</time></trkpt><trkpt lat="45.83397856669208" lon="11.73469072955123"><ele>1020.8000000000001</ele><time>2026-05-01T11:33:24Z</time></trkpt><trkpt lat="45.83405428427343" lon="11.734588438695031"><ele>1021.4000000000001</ele><time>2026-05-01T11:33:25Z</time></trkpt><trkpt lat="45.834129949283" lon="11.734482506430982"><ele>1022.0</ele><time>2026-05-01T11:33:26Z</time></trkpt><trkpt lat="45.83419806442157" lon="11.73438815459728"><ele>1022.0</ele><time>2026-05-01T11:33:27Z</time></trkpt><trkpt lat="45.83425763036126" lon="11.734301169553751"><ele>1022.0</ele><time>2026-05-01T11:33:28Z</time></trkpt><trkpt lat="45.8343215913019" lon="11.734215511526982"><ele>1022.0</ele><time>2026-05-01T11:33:29Z</time></trkpt><trkpt lat="45.834392073828035" lon="11.734135626842177"><ele>1022.0</ele><time>2026-05-01T11:33:30Z</time></trkpt><trkpt lat="45.83448218960565" lon="11.734064609537839"><ele>1022.0</ele><time>2026-05-01T11:33:31Z</time></trkpt><trkpt lat="45.8345890134889" lon="11.734011214787524"><ele>1022.0</ele><time>2026-05-01T11:33:32Z</time></trkpt><trkpt lat="45.83468253461532" lon="11.733980311876417"><ele>1022.0</ele><time>2026-05-01T11:33:33Z</time></trkpt><trkpt lat="45.834773844717766" lon="11.733964557892653"><ele>1022.0</ele><time>2026-05-01T11:33:34Z</time></trkpt><trkpt lat="45.834863487935955" lon="11.733974253923515"><ele>1022.0</ele><time>2026-05-01T11:33:35Z</time></trkpt><trkpt lat="45.8349460229691" lon="11.734025901339738"><ele>1022.0</ele><time>2026-05-01T11:33:36Z</time></trkpt><trkpt lat="45.835003693124314" lon="11.734126981367137"><ele>1022.0</ele><time>2026-05-01T11:33:36.999Z</time></trkpt><trkpt lat="45.83502949654793" lon="11.734271182835629"><ele>1022.0</ele><time>2026-05-01T11:33:37.999Z</time></trkpt><trkpt lat="45.83505063239245" lon="11.73442153928994"><ele>1022.0</ele><time>2026-05-01T11:33:38.999Z</time></trkpt><trkpt lat="45.835088689052334" lon="11.734562771012703"><ele>1022.0</ele><time>2026-05-01T11:33:39.999Z</time></trkpt><trkpt lat="45.83516780401434" lon="11.734690570424158"><ele>1022.0</ele><time>2026-05-01T11:33:40.999Z</time></trkpt><trkpt lat="45.83528924831324" lon="11.734810239705485"><ele>1017.3333333333334</ele><time>2026-05-01T11:33:41.999Z</time></trkpt><trkpt lat="45.835427436196966" lon="11.734949556193133"><ele>1012.6666666666667</ele><time>2026-05-01T11:33:42.999Z</time></trkpt><trkpt lat="45.83558909901648" lon="11.735105800357127"><ele>1008.0</ele><time>2026-05-01T11:33:43.999Z</time></trkpt><trkpt lat="45.8357576429931" lon="11.735298109146061"><ele>1006.6666666666667</ele><time>2026-05-01T11:33:44.999Z</time></trkpt><trkpt lat="45.83591698851719" lon="11.735492552700984"><ele>1005.3333333333334</ele><time>2026-05-01T11:33:45.999Z</time></trkpt><trkpt lat="45.83604886886073" lon="11.735688055395379"><ele>1004.0</ele><time>2026-05-01T11:33:47Z</time></trkpt><trkpt lat="45.836195233210915" lon="11.735823011248959"><ele>1003.3333333333334</ele><time>2026-05-01T11:33:48Z</time></trkpt><trkpt lat="45.836351667353966" lon="11.7359105903259"><ele>1002.6666666666667</ele><time>2026-05-01T11:33:49Z</time></trkpt><trkpt lat="45.83652716304645" lon="11.735972055121602"><ele>1002.0</ele><time>2026-05-01T11:33:50Z</time></trkpt><trkpt lat="45.83669170444999" lon="11.736003274996019"><ele>1002.25</ele><time>2026-05-01T11:33:51Z</time></trkpt><trkpt lat="45.836835912349606" lon="11.736047816101756"><ele>1002.5</ele><time>2026-05-01T11:33:52Z</time></trkpt><trkpt lat="45.83695134224228" lon="11.736127325838792"><ele>1002.75</ele><time>2026-05-01T11:33:53Z</time></trkpt><trkpt lat="45.83704174715477" lon="11.73620067510407"><ele>1003.0</ele><time>2026-05-01T11:33:54Z</time></trkpt><trkpt lat="45.83710670823911" lon="11.73624899401285"><ele>1002.9999999999999</ele><time>2026-05-01T11:33:55Z</time></trkpt><trkpt lat="45.837167494708716" lon="11.736288203380148"><ele>1003.0</ele><time>2026-05-01T11:33:57Z</time></trkpt><trkpt lat="45.837223938879056" lon="11.736341558217376"><ele>1003.0</ele><time>2026-05-01T11:34:01Z</time></trkpt><trkpt lat="45.83727785863933" lon="11.736389607597612"><ele>1003.0</ele><time>2026-05-01T11:34:05Z</time></trkpt><trkpt lat="45.837335122219976" lon="11.736314821214563"><ele>1002.9999999999999</ele><time>2026-05-01T11:38:27Z</time></trkpt><trkpt lat="45.83749128862818" lon="11.736373309151984"><ele>1003.0</ele><time>2026-05-01T11:38:29Z</time></trkpt><trkpt lat="45.83761352861626" lon="11.73647039170111"><ele>1002.25</ele><time>2026-05-01T11:38:30Z</time></trkpt><trkpt lat="45.83774121124029" lon="11.736601017107871"><ele>1001.5</ele><time>2026-05-01T11:38:31Z</time></trkpt><trkpt lat="45.83786946141435" lon="11.736718568330263"><ele>1000.75</ele><time>2026-05-01T11:38:32Z</time></trkpt><trkpt lat="45.837978377595576" lon="11.736780388145512"><ele>1000.0</ele><time>2026-05-01T11:38:33Z</time></trkpt><trkpt lat="45.838107845522096" lon="11.736787923112166"><ele>1000.0</ele><time>2026-05-01T11:38:34Z</time></trkpt><trkpt lat="45.83824249956744" lon="11.736772027075858"><ele>1000.0</ele><time>2026-05-01T11:38:35Z</time></trkpt><trkpt lat="45.83836019391941" lon="11.736770629332435"><ele>1000.0</ele><time>2026-05-01T11:38:36Z</time></trkpt><trkpt lat="45.838459976075775" lon="11.736772476441544"><ele>1000.0</ele><time>2026-05-01T11:38:37Z</time></trkpt><trkpt lat="45.83855303744874" lon="11.736776096939844"><ele>1000.0</ele><time>2026-05-01T11:38:38Z</time></trkpt><trkpt lat="45.83865861540218" lon="11.73677887424793"><ele>999.4</ele><time>2026-05-01T11:38:39Z</time></trkpt><trkpt lat="45.83877030152257" lon="11.736781489122622"><ele>998.8</ele><time>2026-05-01T11:38:40Z</time></trkpt><trkpt lat="45.838873972314836" lon="11.736778165794536"><ele>998.2</ele><time>2026-05-01T11:38:41Z</time></trkpt><trkpt lat="45.838979249745385" lon="11.736773098989394"><ele>997.6</ele><time>2026-05-01T11:38:42Z</time></trkpt><trkpt lat="45.83908451669807" lon="11.736775530562424"><ele>997.0</ele><time>2026-05-01T11:38:43Z</time></trkpt><trkpt lat="45.83919409472783" lon="11.73680362845635"><ele>998.5</ele><time>2026-05-01T11:38:44Z</time></trkpt><trkpt lat="45.839308748332954" lon="11.736880401433686"><ele>1000.0</ele><time>2026-05-01T11:38:45Z</time></trkpt><trkpt lat="45.839414474270825" lon="11.736989633115618"><ele>1001.5</ele><time>2026-05-01T11:38:46Z</time></trkpt><trkpt lat="45.83950399749068" lon="11.73708942176675"><ele>1003.0</ele><time>2026-05-01T11:38:47Z</time></trkpt><trkpt lat="45.839583806578524" lon="11.737174982231643"><ele>1003.0</ele><time>2026-05-01T11:38:48Z</time></trkpt><trkpt lat="45.8396606983851" lon="11.737251188935783"><ele>1003.0</ele><time>2026-05-01T11:38:49Z</time></trkpt><trkpt lat="45.839734387043556" lon="11.73732024357055"><ele>1003.0</ele><time>2026-05-01T11:38:50Z</time></trkpt><trkpt lat="45.83982218958222" lon="11.737384195795835"><ele>1003.0</ele><time>2026-05-01T11:38:51Z</time></trkpt><trkpt lat="45.8399198962279" lon="11.73744014026757"><ele>1003.0</ele><time>2026-05-01T11:38:52Z</time></trkpt><trkpt lat="45.84001915807153" lon="11.737505178707943"><ele>1003.0</ele><time>2026-05-01T11:38:53Z</time></trkpt><trkpt lat="45.84010331580919" lon="11.737615906339908"><ele>1003.0</ele><time>2026-05-01T11:38:54Z</time></trkpt><trkpt lat="45.8402028605818" lon="11.737709745252747"><ele>1003.0</ele><time>2026-05-01T11:38:55Z</time></trkpt><trkpt lat="45.84028417718151" lon="11.737839642726023"><ele>1003.0</ele><time>2026-05-01T11:38:56Z</time></trkpt><trkpt lat="45.84036265406535" lon="11.737988971468695"><ele>1001.5</ele><time>2026-05-01T11:38:57Z</time></trkpt><trkpt lat="45.840447434836484" lon="11.738158672642031"><ele>1000.0</ele><time>2026-05-01T11:38:58Z</time></trkpt><trkpt lat="45.84052631073371" lon="11.73834948842875"><ele>998.5</ele><time>2026-05-01T11:38:59Z</time></trkpt><trkpt lat="45.84058680013898" lon="11.738516778057198"><ele>997.0</ele><time>2026-05-01T11:39:00Z</time></trkpt><trkpt lat="45.84064823090879" lon="11.73865915646558"><ele>997.0</ele><time>2026-05-01T11:39:01Z</time></trkpt><trkpt lat="45.840726940005254" lon="11.738786669094303"><ele>997.0</ele><time>2026-05-01T11:39:02Z</time></trkpt><trkpt lat="45.840836264910095" lon="11.738895270205763"><ele>997.0</ele><time>2026-05-01T11:39:03Z</time></trkpt><trkpt lat="45.84097412938133" lon="11.738980913229636"><ele>997.0</ele><time>2026-05-01T11:39:04Z</time></trkpt><trkpt lat="45.84108746059044" lon="11.739067428068289"><ele>999.5</ele><time>2026-05-01T11:39:05Z</time></trkpt><trkpt lat="45.84117438411498" lon="11.739171249868596"><ele>1002.0</ele><time>2026-05-01T11:39:06Z</time></trkpt><trkpt lat="45.841259915031536" lon="11.739294729384236"><ele>1004.5</ele><time>2026-05-01T11:39:07Z</time></trkpt><trkpt lat="45.84132989927479" lon="11.739456976458772"><ele>1007.0</ele><time>2026-05-01T11:39:08Z</time></trkpt><trkpt lat="45.84140179300698" lon="11.73963590360573"><ele>1007.0</ele><time>2026-05-01T11:39:09Z</time></trkpt><trkpt lat="45.841473405024225" lon="11.73979180743236"><ele>1007.0</ele><time>2026-05-01T11:39:10Z</time></trkpt><trkpt lat="45.84154145262903" lon="11.739925538683286"><ele>1007.0</ele><time>2026-05-01T11:39:11Z</time></trkpt><trkpt lat="45.841620081145855" lon="11.74005111154208"><ele>1007.0</ele><time>2026-05-01T11:39:12Z</time></trkpt><trkpt lat="45.84171187889949" lon="11.740171746629427"><ele>1006.25</ele><time>2026-05-01T11:39:13Z</time></trkpt><trkpt lat="45.84180147454627" lon="11.74027416376268"><ele>1005.5</ele><time>2026-05-01T11:39:14Z</time></trkpt><trkpt lat="45.841896382709365" lon="11.74035698061821"><ele>1004.75</ele><time>2026-05-01T11:39:15Z</time></trkpt><trkpt lat="45.841997667089075" lon="11.740431823172369"><ele>1004.0</ele><time>2026-05-01T11:39:16Z</time></trkpt><trkpt lat="45.84210268258016" lon="11.740498021000809"><ele>1004.0</ele><time>2026-05-01T11:39:17Z</time></trkpt><trkpt lat="45.842199144153255" lon="11.740543359991397"><ele>1004.0000000000001</ele><time>2026-05-01T11:39:18Z</time></trkpt><trkpt lat="45.8422926685344" lon="11.74056869574911"><ele>1004.0000000000001</ele><time>2026-05-01T11:39:19Z</time></trkpt><trkpt lat="45.84239833315436" lon="11.74056728085567"><ele>1004.0</ele><time>2026-05-01T11:39:20Z</time></trkpt><trkpt lat="45.84252021895485" lon="11.740536678520495"><ele>1004.0</ele><time>2026-05-01T11:39:21Z</time></trkpt><trkpt lat="45.842631709646774" lon="11.740532188894493"><ele>1009.2</ele><time>2026-05-01T11:39:22Z</time></trkpt><trkpt lat="45.84271527199351" lon="11.740570624938538"><ele>1014.4000000000001</ele><time>2026-05-01T11:39:23Z</time></trkpt><trkpt lat="45.8427882275991" lon="11.740667172147143"><ele>1019.6</ele><time>2026-05-01T11:39:24Z</time></trkpt><trkpt lat="45.842827753502206" lon="11.74080880562838"><ele>1024.8</ele><time>2026-05-01T11:39:25Z</time></trkpt><trkpt lat="45.84284645191707" lon="11.740968956156886"><ele>1030.0</ele><time>2026-05-01T11:39:26Z</time></trkpt><trkpt lat="45.84285761342917" lon="11.741151379685851"><ele>1030.0</ele><time>2026-05-01T11:39:27Z</time></trkpt><trkpt lat="45.84288400466614" lon="11.741316981023695"><ele>1030.0</ele><time>2026-05-01T11:39:28Z</time></trkpt><trkpt lat="45.84291440757911" lon="11.741489500582537"><ele>1030.0</ele><time>2026-05-01T11:39:29Z</time></trkpt><trkpt lat="45.84294771257189" lon="11.741651337267381"><ele>1030.0</ele><time>2026-05-01T11:39:30Z</time></trkpt><trkpt lat="45.84297746148529" lon="11.741811921951282"><ele>1028.25</ele><time>2026-05-01T11:39:31Z</time></trkpt><trkpt lat="45.84299840153931" lon="11.741979897583299"><ele>1026.5</ele><time>2026-05-01T11:39:32Z</time></trkpt><trkpt lat="45.843007405262334" lon="11.74215158026521"><ele>1024.75</ele><time>2026-05-01T11:39:33Z</time></trkpt><trkpt lat="45.84300587394345" lon="11.742331606370197"><ele>1023.0</ele><time>2026-05-01T11:39:34Z</time></trkpt><trkpt lat="45.843002413021104" lon="11.74246535400627"><ele>1023.0</ele><time>2026-05-01T11:39:35Z</time></trkpt><trkpt lat="45.8429813404995" lon="11.742598101020626"><ele>1023.0</ele><time>2026-05-01T11:39:36Z</time></trkpt><trkpt lat="45.84297477506564" lon="11.742714218393763"><ele>1023.0</ele><time>2026-05-01T11:39:37Z</time></trkpt><trkpt lat="45.84299355466441" lon="11.742823981594578"><ele>1023.0</ele><time>2026-05-01T11:39:38Z</time></trkpt><trkpt lat="45.843048323427965" lon="11.742935758332425"><ele>1023.0</ele><time>2026-05-01T11:39:39Z</time></trkpt><trkpt lat="45.84312888826845" lon="11.743054233797528"><ele>1023.0</ele><time>2026-05-01T11:39:40Z</time></trkpt><trkpt lat="45.84322287928831" lon="11.743187748063592"><ele>1023.0</ele><time>2026-05-01T11:39:41Z</time></trkpt><trkpt lat="45.843318252033725" lon="11.743331108681762"><ele>1023.0</ele><time>2026-05-01T11:39:42Z</time></trkpt><trkpt lat="45.843411193293576" lon="11.7434913300967"><ele>1023.0</ele><time>2026-05-01T11:39:43Z</time></trkpt><trkpt lat="45.843495810478096" lon="11.743660940678932"><ele>1023.0</ele><time>2026-05-01T11:39:44Z</time></trkpt><trkpt lat="45.8435735229218" lon="11.743826040521874"><ele>1023.0</ele><time>2026-05-01T11:39:45Z</time></trkpt><trkpt lat="45.84366792205287" lon="11.743985732854629"><ele>1023.0</ele><time>2026-05-01T11:39:46Z</time></trkpt><trkpt lat="45.84377351021105" lon="11.744129914736249"><ele>1023.0</ele><time>2026-05-01T11:39:47Z</time></trkpt><trkpt lat="45.84386584842222" lon="11.744258745274088"><ele>1017.75</ele><time>2026-05-01T11:39:47.999Z</time></trkpt><trkpt lat="45.843956835516686" lon="11.744390378693542"><ele>1012.5</ele><time>2026-05-01T11:39:48.999Z</time></trkpt><trkpt lat="45.84406012567321" lon="11.744530384541605"><ele>1007.25</ele><time>2026-05-01T11:39:49.999Z</time></trkpt><trkpt lat="45.84416636020758" lon="11.744648091400396"><ele>1002.0</ele><time>2026-05-01T11:39:50.999Z</time></trkpt><trkpt lat="45.8442622556814" lon="11.744779459247043"><ele>1005.25</ele><time>2026-05-01T11:39:51.999Z</time></trkpt><trkpt lat="45.844354188105214" lon="11.744903780266808"><ele>1008.5</ele><time>2026-05-01T11:39:52.999Z</time></trkpt><trkpt lat="45.84444555239622" lon="11.745016816137221"><ele>1011.75</ele><time>2026-05-01T11:39:53.999Z</time></trkpt><trkpt lat="45.84455553862838" lon="11.745112124329413"><ele>1015.0</ele><time>2026-05-01T11:39:54.999Z</time></trkpt><trkpt lat="45.84467355939654" lon="11.745180133194987"><ele>1015.0</ele><time>2026-05-01T11:39:55.999Z</time></trkpt><trkpt lat="45.84478636603497" lon="11.74522383905694"><ele>1015.0</ele><time>2026-05-01T11:39:56.999Z</time></trkpt><trkpt lat="45.84489126827097" lon="11.745237117484297"><ele>1015.0</ele><time>2026-05-01T11:39:57.999Z</time></trkpt><trkpt lat="45.84499567767712" lon="11.745194869112652"><ele>1015.0</ele><time>2026-05-01T11:39:58.999Z</time></trkpt><trkpt lat="45.845096340711805" lon="11.745084337358353"><ele>1012.3333333333333</ele><time>2026-05-01T11:39:59.999Z</time></trkpt><trkpt lat="45.845229682341184" lon="11.744947324870111"><ele>1009.6666666666667</ele><time>2026-05-01T11:40:00.999Z</time></trkpt><trkpt lat="45.84539732762384" lon="11.74482812474723"><ele>1007.0</ele><time>2026-05-01T11:40:01.999Z</time></trkpt><trkpt lat="45.84555700455164" lon="11.744716319361409"><ele>1007.0</ele><time>2026-05-01T11:40:02.999Z</time></trkpt><trkpt lat="45.84568364635305" lon="11.74466058877371"><ele>1007.0</ele><time>2026-05-01T11:40:04Z</time></trkpt><trkpt lat="45.84579874446183" lon="11.74458389072466"><ele>1007.0</ele><time>2026-05-01T11:40:05Z</time></trkpt><trkpt lat="45.84590687484975" lon="11.744500643806823"><ele>1007.0</ele><time>2026-05-01T11:40:06Z</time></trkpt><trkpt lat="45.846009632457296" lon="11.74437772708039"><ele>1006.5</ele><time>2026-05-01T11:40:07Z</time></trkpt><trkpt lat="45.84611022563261" lon="11.744290416803613"><ele>1006.0</ele><time>2026-05-01T11:40:08Z</time></trkpt><trkpt lat="45.846200840208475" lon="11.744177409180844"><ele>1005.5</ele><time>2026-05-01T11:40:09Z</time></trkpt><trkpt lat="45.8462782692173" lon="11.744069998163422"><ele>1005.0</ele><time>2026-05-01T11:40:10Z</time></trkpt><trkpt lat="45.84634726092203" lon="11.74392618120827"><ele>1005.0</ele><time>2026-05-01T11:40:11Z</time></trkpt><trkpt lat="45.8464252418067" lon="11.743782552856457"><ele>1005.0</ele><time>2026-05-01T11:40:12Z</time></trkpt><trkpt lat="45.84650398977018" lon="11.743626574453652"><ele>1005.0</ele><time>2026-05-01T11:40:13Z</time></trkpt><trkpt lat="45.84656211117707" lon="11.743492940197488"><ele>1005.0</ele><time>2026-05-01T11:40:14Z</time></trkpt><trkpt lat="45.84662331349485" lon="11.743371544028358"><ele>1007.4</ele><time>2026-05-01T11:40:15Z</time></trkpt><trkpt lat="45.846698334232" lon="11.743263227481414"><ele>1009.8</ele><time>2026-05-01T11:40:16Z</time></trkpt><trkpt lat="45.84677916803054" lon="11.74319724239967"><ele>1012.2</ele><time>2026-05-01T11:40:17Z</time></trkpt><trkpt lat="45.84688309718545" lon="11.743199552133422"><ele>1014.6</ele><time>2026-05-01T11:40:18Z</time></trkpt><trkpt lat="45.846977545105744" lon="11.743205774734792"><ele>1017.0</ele><time>2026-05-01T11:40:19Z</time></trkpt><trkpt lat="45.847063690100725" lon="11.743281984409993"><ele>1015.4000000000001</ele><time>2026-05-01T11:40:20Z</time></trkpt><trkpt lat="45.84715022236893" lon="11.743376003816744"><ele>1013.8000000000001</ele><time>2026-05-01T11:40:21Z</time></trkpt><trkpt lat="45.847221716865285" lon="11.743483077347566"><ele>1012.2</ele><time>2026-05-01T11:40:22Z</time></trkpt><trkpt lat="45.847278815743394" lon="11.74360328844896"><ele>1010.6</ele><time>2026-05-01T11:40:23Z</time></trkpt><trkpt lat="45.8473182690631" lon="11.743713934562411"><ele>1009.0</ele><time>2026-05-01T11:40:24Z</time></trkpt><trkpt lat="45.847354893371985" lon="11.743817221329683"><ele>1008.9999999999999</ele><time>2026-05-01T11:40:25Z</time></trkpt><trkpt lat="45.847397672405066" lon="11.74390462217917"><ele>1009.0</ele><time>2026-05-01T11:40:26Z</time></trkpt><trkpt lat="45.847441062830505" lon="11.743980700873145"><ele>1009.0</ele><time>2026-05-01T11:40:27Z</time></trkpt><trkpt lat="45.847496658887955" lon="11.74404416980125"><ele>1009.0</ele><time>2026-05-01T11:40:28Z</time></trkpt><trkpt lat="45.84756997938972" lon="11.744079206076247"><ele>1008.9999999999999</ele><time>2026-05-01T11:40:29Z</time></trkpt><trkpt lat="45.84765229476351" lon="11.744071597539003"><ele>1009.0</ele><time>2026-05-01T11:40:30Z</time></trkpt><trkpt lat="45.84774247868407" lon="11.74401074703404"><ele>1007.0</ele><time>2026-05-01T11:40:31Z</time></trkpt><trkpt lat="45.84786818358637" lon="11.743943135463157"><ele>1005.0</ele><time>2026-05-01T11:40:32Z</time></trkpt><trkpt lat="45.848009027694076" lon="11.743825018268721"><ele>1003.0</ele><time>2026-05-01T11:40:33Z</time></trkpt><trkpt lat="45.84817931145874" lon="11.74375021751548"><ele>1003.0</ele><time>2026-05-01T11:40:34Z</time></trkpt><trkpt lat="45.848320091143876" lon="11.743688403901743"><ele>1003.0</ele><time>2026-05-01T11:40:35Z</time></trkpt><trkpt lat="45.848448602374376" lon="11.743597495633725"><ele>1003.0</ele><time>2026-05-01T11:40:36Z</time></trkpt><trkpt lat="45.848576658925964" lon="11.743453607205304"><ele>1006.0</ele><time>2026-05-01T11:40:37Z</time></trkpt><trkpt lat="45.848705056263036" lon="11.743303393682774"><ele>1009.0</ele><time>2026-05-01T11:40:38Z</time></trkpt><trkpt lat="45.84881034122538" lon="11.743187654216388"><ele>1012.0</ele><time>2026-05-01T11:40:39Z</time></trkpt><trkpt lat="45.84890507387573" lon="11.743092080582263"><ele>1015.0</ele><time>2026-05-01T11:40:40Z</time></trkpt><trkpt lat="45.849001806536236" lon="11.743022281807805"><ele>1015.0</ele><time>2026-05-01T11:40:41Z</time></trkpt><trkpt lat="45.849132145565086" lon="11.7429508594935"><ele>1015.0</ele><time>2026-05-01T11:40:42Z</time></trkpt><trkpt lat="45.849281436473234" lon="11.74291448283882"><ele>1015.0</ele><time>2026-05-01T11:40:43Z</time></trkpt><trkpt lat="45.849433963447396" lon="11.742892839273637"><ele>1015.0</ele><time>2026-05-01T11:40:44Z</time></trkpt><trkpt lat="45.84957131258088" lon="11.74283283762154"><ele>1012.25</ele><time>2026-05-01T11:40:45Z</time></trkpt><trkpt lat="45.84969698165714" lon="11.742792051318611"><ele>1009.5</ele><time>2026-05-01T11:40:46Z</time></trkpt><trkpt lat="45.84980563495695" lon="11.742748337954492"><ele>1006.75</ele><time>2026-05-01T11:40:47Z</time></trkpt><trkpt lat="45.84992041919293" lon="11.742710031725245"><ele>1004.0</ele><time>2026-05-01T11:40:48Z</time></trkpt><trkpt lat="45.850040735422844" lon="11.742760397339522"><ele>1002.2</ele><time>2026-05-01T11:40:49Z</time></trkpt><trkpt lat="45.850150303668485" lon="11.742809552376732"><ele>1000.4000000000001</ele><time>2026-05-01T11:40:50Z</time></trkpt><trkpt lat="45.85025309172737" lon="11.742871177407222"><ele>998.6</ele><time>2026-05-01T11:40:51Z</time></trkpt><trkpt lat="45.850355999192324" lon="11.742906286971568"><ele>996.8</ele><time>2026-05-01T11:40:52Z</time></trkpt><trkpt lat="45.85046078334068" lon="11.742897769140445"><ele>995.0</ele><time>2026-05-01T11:40:53Z</time></trkpt><trkpt lat="45.85058187468842" lon="11.742817711826538"><ele>996.25</ele><time>2026-05-01T11:40:54Z</time></trkpt><trkpt lat="45.85072239559252" lon="11.742710055003656"><ele>997.5</ele><time>2026-05-01T11:40:55Z</time></trkpt><trkpt lat="45.85083354340428" lon="11.742627897794458"><ele>998.75</ele><time>2026-05-01T11:40:56Z</time></trkpt><trkpt lat="45.85093202025687" lon="11.74256979659117"><ele>1000.0</ele><time>2026-05-01T11:40:57Z</time></trkpt><trkpt lat="45.85102905929629" lon="11.742501752761255"><ele>1000.0</ele><time>2026-05-01T11:40:58Z</time></trkpt><trkpt lat="45.85112546588497" lon="11.742422511906435"><ele>1000.0</ele><time>2026-05-01T11:40:59Z</time></trkpt><trkpt lat="45.851211458350534" lon="11.742291692584578"><ele>1000.0</ele><time>2026-05-01T11:41:00Z</time></trkpt><trkpt lat="45.851299483930795" lon="11.742120959432016"><ele>1000.0</ele><time>2026-05-01T11:41:01Z</time></trkpt><trkpt lat="45.85139257575129" lon="11.741941658139451"><ele>1006.6666666666666</ele><time>2026-05-01T11:41:02Z</time></trkpt><trkpt lat="45.8514800555644" lon="11.741760642064111"><ele>1013.3333333333333</ele><time>2026-05-01T11:41:03Z</time></trkpt><trkpt lat="45.85155582256679" lon="11.741554663648845"><ele>1020.0</ele><time>2026-05-01T11:41:04Z</time></trkpt><trkpt lat="45.851621241127035" lon="11.741363302223657"><ele>1020.0</ele><time>2026-05-01T11:41:05Z</time></trkpt><trkpt lat="45.85169751723297" lon="11.7411820866022"><ele>1020.0</ele><time>2026-05-01T11:41:06Z</time></trkpt><trkpt lat="45.8517873685482" lon="11.741011210880524"><ele>1020.0</ele><time>2026-05-01T11:41:07Z</time></trkpt><trkpt lat="45.85189482275609" lon="11.740855444996798"><ele>1020.0</ele><time>2026-05-01T11:41:08Z</time></trkpt><trkpt lat="45.85199873859834" lon="11.740709870658241"><ele>1019.5</ele><time>2026-05-01T11:41:09Z</time></trkpt><trkpt lat="45.85208375526481" lon="11.740534281380834"><ele>1019.0</ele><time>2026-05-01T11:41:10Z</time></trkpt><trkpt lat="45.85215012208376" lon="11.7403543658008"><ele>1018.5</ele><time>2026-05-01T11:41:11Z</time></trkpt><trkpt lat="45.85220515133885" lon="11.740201183416369"><ele>1018.0</ele><time>2026-05-01T11:41:12Z</time></trkpt><trkpt lat="45.85225336404246" lon="11.740051113126523"><ele>1018.0</ele><time>2026-05-01T11:41:13Z</time></trkpt><trkpt lat="45.85228144989425" lon="11.739915435884825"><ele>1018.0</ele><time>2026-05-01T11:41:14Z</time></trkpt><trkpt lat="45.85229581042085" lon="11.739785630025658"><ele>1018.0</ele><time>2026-05-01T11:41:15Z</time></trkpt><trkpt lat="45.85227539163433" lon="11.739633108608867"><ele>1018.0</ele><time>2026-05-01T11:41:16Z</time></trkpt><trkpt lat="45.852218587862595" lon="11.739468607952169"><ele>1018.0</ele><time>2026-05-01T11:41:17Z</time></trkpt><trkpt lat="45.852130515055414" lon="11.739293084004801"><ele>1019.25</ele><time>2026-05-01T11:41:18Z</time></trkpt><trkpt lat="45.852056302643156" lon="11.73913595070495"><ele>1020.5</ele><time>2026-05-01T11:41:19Z</time></trkpt><trkpt lat="45.85197792244406" lon="11.739010324607559"><ele>1021.75</ele><time>2026-05-01T11:41:20Z</time></trkpt><trkpt lat="45.8518971533833" lon="11.73890177929761"><ele>1023.0</ele><time>2026-05-01T11:41:21Z</time></trkpt><trkpt lat="45.851839616237015" lon="11.738791669658864"><ele>1023.0</ele><time>2026-05-01T11:41:22Z</time></trkpt><trkpt lat="45.85180613391052" lon="11.738655516249587"><ele>1023.0</ele><time>2026-05-01T11:41:23Z</time></trkpt><trkpt lat="45.851804631931316" lon="11.738499327505602"><ele>1023.0</ele><time>2026-05-01T11:41:24Z</time></trkpt><trkpt lat="45.8518472525421" lon="11.738355417956564"><ele>1023.0</ele><time>2026-05-01T11:41:25Z</time></trkpt><trkpt lat="45.85194188624752" lon="11.73823841591954"><ele>1023.0</ele><time>2026-05-01T11:41:26Z</time></trkpt><trkpt lat="45.85207134360371" lon="11.738155008049477"><ele>1024.0</ele><time>2026-05-01T11:41:27Z</time></trkpt><trkpt lat="45.85220516429874" lon="11.738050451996294"><ele>1025.0</ele><time>2026-05-01T11:41:28Z</time></trkpt><trkpt lat="45.852303842287135" lon="11.737922824079634"><ele>1026.0</ele><time>2026-05-01T11:41:29Z</time></trkpt><trkpt lat="45.85238928795148" lon="11.73779738554331"><ele>1027.0</ele><time>2026-05-01T11:41:30Z</time></trkpt><trkpt lat="45.85246611357203" lon="11.737689370403798"><ele>1029.0</ele><time>2026-05-01T11:41:31Z</time></trkpt><trkpt lat="45.85251193882866" lon="11.737569980295282"><ele>1031.0</ele><time>2026-05-01T11:41:32Z</time></trkpt><trkpt lat="45.85254199170836" lon="11.737432654448394"><ele>1033.0</ele><time>2026-05-01T11:41:33Z</time></trkpt><trkpt lat="45.85253620570486" lon="11.737265259064648"><ele>1035.0</ele><time>2026-05-01T11:41:34Z</time></trkpt><trkpt lat="45.85252285100279" lon="11.737105859853967"><ele>1037.0</ele><time>2026-05-01T11:41:35Z</time></trkpt><trkpt lat="45.85252373265576" lon="11.736967473791394"><ele>1038.2</ele><time>2026-05-01T11:41:36Z</time></trkpt><trkpt lat="45.85252182176077" lon="11.736836935423687"><ele>1039.4</ele><time>2026-05-01T11:41:37Z</time></trkpt><trkpt lat="45.85254082814805" lon="11.736715516035874"><ele>1040.6</ele><time>2026-05-01T11:41:38Z</time></trkpt><trkpt lat="45.85256009097426" lon="11.736607394699126"><ele>1041.8</ele><time>2026-05-01T11:41:39Z</time></trkpt><trkpt lat="45.85261769143631" lon="11.736491531759402"><ele>1043.0</ele><time>2026-05-01T11:41:40Z</time></trkpt><trkpt lat="45.85270645572378" lon="11.73639286255987"><ele>1044.5</ele><time>2026-05-01T11:41:41Z</time></trkpt><trkpt lat="45.852798093814506" lon="11.736305503461562"><ele>1046.0</ele><time>2026-05-01T11:41:42Z</time></trkpt><trkpt lat="45.85289819319024" lon="11.736207822481706"><ele>1047.5</ele><time>2026-05-01T11:41:43Z</time></trkpt><trkpt lat="45.85299466480165" lon="11.736111708306172"><ele>1049.0</ele><time>2026-05-01T11:41:44Z</time></trkpt><trkpt lat="45.85309644601353" lon="11.736036846274127"><ele>1049.0</ele><time>2026-05-01T11:41:45Z</time></trkpt><trkpt lat="45.85319000676097" lon="11.73592752530628"><ele>1049.0</ele><time>2026-05-01T11:41:46Z</time></trkpt><trkpt lat="45.85328678047018" lon="11.735838613199078"><ele>1049.0</ele><time>2026-05-01T11:41:47Z</time></trkpt><trkpt lat="45.85337972175824" lon="11.735754662702464"><ele>1049.0</ele><time>2026-05-01T11:41:48Z</time></trkpt><trkpt lat="45.8534762265057" lon="11.735680733762793"><ele>1045.6000000000001</ele><time>2026-05-01T11:41:49Z</time></trkpt><trkpt lat="45.85359632121368" lon="11.735639761839213"><ele>1042.2</ele><time>2026-05-01T11:41:49.999Z</time></trkpt><trkpt lat="45.85370660957383" lon="11.735602348993405"><ele>1038.8000000000002</ele><time>2026-05-01T11:41:50.999Z</time></trkpt><trkpt lat="45.85380243917763" lon="11.735558423438702"><ele>1035.4</ele><time>2026-05-01T11:41:51.999Z</time></trkpt><trkpt lat="45.85388890166008" lon="11.735485238925966"><ele>1032.0</ele><time>2026-05-01T11:41:52.999Z</time></trkpt><trkpt lat="45.85395015578054" lon="11.735359492526925"><ele>1035.0</ele><time>2026-05-01T11:41:53.999Z</time></trkpt><trkpt lat="45.854010605321136" lon="11.735218383700616"><ele>1038.0</ele><time>2026-05-01T11:41:54.999Z</time></trkpt><trkpt lat="45.85408502835548" lon="11.735112613993037"><ele>1041.0</ele><time>2026-05-01T11:41:55.999Z</time></trkpt><trkpt lat="45.85418789278665" lon="11.735068883501985"><ele>1044.0</ele><time>2026-05-01T11:41:56.999Z</time></trkpt><trkpt lat="45.85430811558535" lon="11.735059491864284"><ele>1047.0</ele><time>2026-05-01T11:41:57.999Z</time></trkpt><trkpt lat="45.854416376981305" lon="11.735031695018417"><ele>1047.0</ele><time>2026-05-01T11:41:58.999Z</time></trkpt><trkpt lat="45.85450746252874" lon="11.734960931444716"><ele>1047.0</ele><time>2026-05-01T11:41:59.999Z</time></trkpt><trkpt lat="45.854624843192624" lon="11.734927214217631"><ele>1047.0</ele><time>2026-05-01T11:42:00.999Z</time></trkpt><trkpt lat="45.854728065032056" lon="11.734821156643573"><ele>1047.0</ele><time>2026-05-01T11:42:01.999Z</time></trkpt><trkpt lat="45.85476893348882" lon="11.734634615631512"><ele>1047.0</ele><time>2026-05-01T11:42:02.999Z</time></trkpt><trkpt lat="45.854864308674344" lon="11.73457250910048"><ele>1047.0</ele><time>2026-05-01T11:42:03.999Z</time></trkpt><trkpt lat="45.854968108474395" lon="11.734557547157019"><ele>1047.0</ele><time>2026-05-01T11:42:04.999Z</time></trkpt><trkpt lat="45.85507978513645" lon="11.734592300803694"><ele>1047.0</ele><time>2026-05-01T11:42:05.999Z</time></trkpt><trkpt lat="45.85519979167483" lon="11.734661156390056"><ele>1049.0</ele><time>2026-05-01T11:42:06.999Z</time></trkpt><trkpt lat="45.855307633898725" lon="11.734785478331485"><ele>1051.0</ele><time>2026-05-01T11:42:07.999Z</time></trkpt><trkpt lat="45.85539653263877" lon="11.734868663824534"><ele>1053.0</ele><time>2026-05-01T11:42:08.999Z</time></trkpt><trkpt lat="45.85548450236136" lon="11.734964840432601"><ele>1055.0</ele><time>2026-05-01T11:42:10Z</time></trkpt><trkpt lat="45.85558591300933" lon="11.735046309072098"><ele>1055.0</ele><time>2026-05-01T11:42:11Z</time></trkpt><trkpt lat="45.855712080934076" lon="11.735082430316348"><ele>1055.0</ele><time>2026-05-01T11:42:12Z</time></trkpt><trkpt lat="45.85584280526345" lon="11.735098519699468"><ele>1055.0</ele><time>2026-05-01T11:42:13Z</time></trkpt><trkpt lat="45.8559385578082" lon="11.735101515586477"><ele>1055.0</ele><time>2026-05-01T11:42:14Z</time></trkpt><trkpt lat="45.856011142961904" lon="11.7350950530685"><ele>1055.0</ele><time>2026-05-01T11:42:15Z</time></trkpt><trkpt lat="45.85608814739856" lon="11.735021389477636"><ele>1054.4</ele><time>2026-05-01T11:42:16Z</time></trkpt><trkpt lat="45.85616284222592" lon="11.734931520479797"><ele>1053.8</ele><time>2026-05-01T11:42:17Z</time></trkpt><trkpt lat="45.856220808619206" lon="11.73482718611455"><ele>1053.2</ele><time>2026-05-01T11:42:18Z</time></trkpt><trkpt lat="45.85629174929224" lon="11.734710356179196"><ele>1052.6</ele><time>2026-05-01T11:42:19Z</time></trkpt><trkpt lat="45.856360045438606" lon="11.73458331699018"><ele>1052.0</ele><time>2026-05-01T11:42:20Z</time></trkpt><trkpt lat="45.85640470179855" lon="11.734436086279713"><ele>1054.0</ele><time>2026-05-01T11:42:21Z</time></trkpt><trkpt lat="45.856443443211745" lon="11.73430912292588"><ele>1056.0</ele><time>2026-05-01T11:42:22Z</time></trkpt><trkpt lat="45.85649789893835" lon="11.734215711875294"><ele>1058.0</ele><time>2026-05-01T11:42:23Z</time></trkpt><trkpt lat="45.85657570987511" lon="11.734155921523769"><ele>1060.0</ele><time>2026-05-01T11:42:24Z</time></trkpt><trkpt lat="45.85667129409909" lon="11.734115198648977"><ele>1062.0</ele><time>2026-05-01T11:42:25Z</time></trkpt><trkpt lat="45.85677405158521" lon="11.734066081029898"><ele>1061.4</ele><time>2026-05-01T11:42:26Z</time></trkpt><trkpt lat="45.8568588046969" lon="11.733973636078169"><ele>1060.8000000000002</ele><time>2026-05-01T11:42:27Z</time></trkpt><trkpt lat="45.85692615736041" lon="11.733815833120643"><ele>1060.2</ele><time>2026-05-01T11:42:28Z</time></trkpt><trkpt lat="45.85698991774637" lon="11.73367981287895"><ele>1059.6000000000001</ele><time>2026-05-01T11:42:29Z</time></trkpt><trkpt lat="45.85704760454866" lon="11.733583626394793"><ele>1059.0</ele><time>2026-05-01T11:42:30Z</time></trkpt><trkpt lat="45.85710558527465" lon="11.73352870334935"><ele>1059.0</ele><time>2026-05-01T11:42:31Z</time></trkpt><trkpt lat="45.857166920523376" lon="11.733501889508306"><ele>1059.0</ele><time>2026-05-01T11:42:32Z</time></trkpt><trkpt lat="45.85723414119312" lon="11.733507819133205"><ele>1059.0</ele><time>2026-05-01T11:42:33Z</time></trkpt><trkpt lat="45.857302763952866" lon="11.733556502775837"><ele>1059.0</ele><time>2026-05-01T11:42:34Z</time></trkpt><trkpt lat="45.85737341919972" lon="11.733615308354384"><ele>1059.0</ele><time>2026-05-01T11:42:35Z</time></trkpt><trkpt lat="45.8574646980801" lon="11.733649029511682"><ele>1059.0</ele><time>2026-05-01T11:42:36Z</time></trkpt><trkpt lat="45.85756668825336" lon="11.733657697112942"><ele>1059.2</ele><time>2026-05-01T11:42:37Z</time></trkpt><trkpt lat="45.85765998622743" lon="11.733636534509218"><ele>1059.4</ele><time>2026-05-01T11:42:38Z</time></trkpt><trkpt lat="45.8577464629242" lon="11.733573434648909"><ele>1059.6</ele><time>2026-05-01T11:42:39Z</time></trkpt><trkpt lat="45.85782143495718" lon="11.73347968766124"><ele>1059.8</ele><time>2026-05-01T11:42:40Z</time></trkpt><trkpt lat="45.857900066822154" lon="11.733392982029642"><ele>1060.0</ele><time>2026-05-01T11:42:41Z</time></trkpt><trkpt lat="45.85798133810909" lon="11.733325512021123"><ele>1060.0</ele><time>2026-05-01T11:42:42Z</time></trkpt><trkpt lat="45.858064478549416" lon="11.733272260057667"><ele>1060.0</ele><time>2026-05-01T11:42:43Z</time></trkpt><trkpt lat="45.85815099509266" lon="11.73323414763762"><ele>1060.0</ele><time>2026-05-01T11:42:44Z</time></trkpt><trkpt lat="45.85823544283617" lon="11.733189270350007"><ele>1060.0</ele><time>2026-05-01T11:42:45Z</time></trkpt><trkpt lat="45.8583140604546" lon="11.733129490982874"><ele>1060.0</ele><time>2026-05-01T11:42:46Z</time></trkpt><trkpt lat="45.85836936431411" lon="11.733033864859724"><ele>1060.0</ele><time>2026-05-01T11:42:47Z</time></trkpt><trkpt lat="45.8583962617037" lon="11.732902018828609"><ele>1060.0</ele><time>2026-05-01T11:42:48Z</time></trkpt><trkpt lat="45.85840035783684" lon="11.732754275813923"><ele>1060.0</ele><time>2026-05-01T11:42:49Z</time></trkpt><trkpt lat="45.85839996919349" lon="11.732618823779394"><ele>1060.0</ele><time>2026-05-01T11:42:50Z</time></trkpt><trkpt lat="45.858404958350036" lon="11.732510069359952"><ele>1060.0</ele><time>2026-05-01T11:42:51Z</time></trkpt><trkpt lat="45.858428565228216" lon="11.73241919272677"><ele>1060.0</ele><time>2026-05-01T11:42:52Z</time></trkpt><trkpt lat="45.85848076998665" lon="11.73234792421419"><ele>1060.0</ele><time>2026-05-01T11:42:53Z</time></trkpt><trkpt lat="45.85856592401095" lon="11.732331640799334"><ele>1063.2</ele><time>2026-05-01T11:42:54Z</time></trkpt><trkpt lat="45.85866426079282" lon="11.732345654596498"><ele>1066.4</ele><time>2026-05-01T11:42:55Z</time></trkpt><trkpt lat="45.858754532986666" lon="11.732397058374339"><ele>1069.6</ele><time>2026-05-01T11:42:56Z</time></trkpt><trkpt lat="45.8588430878346" lon="11.73250541049351"><ele>1072.8</ele><time>2026-05-01T11:42:57Z</time></trkpt><trkpt lat="45.85893053546544" lon="11.73263746869155"><ele>1076.0</ele><time>2026-05-01T11:42:58Z</time></trkpt><trkpt lat="45.859007598108015" lon="11.732770541443093"><ele>1076.2</ele><time>2026-05-01T11:42:59Z</time></trkpt><trkpt lat="45.85907828947638" lon="11.732882601691735"><ele>1076.3999999999999</ele><time>2026-05-01T11:43:00Z</time></trkpt><trkpt lat="45.85914198117738" lon="11.732992566999796"><ele>1076.6</ele><time>2026-05-01T11:43:01Z</time></trkpt><trkpt lat="45.859181215773475" lon="11.733116685102448"><ele>1076.8</ele><time>2026-05-01T11:43:02Z</time></trkpt><trkpt lat="45.859180902713234" lon="11.733245539870257"><ele>1077.0</ele><time>2026-05-01T11:43:03Z</time></trkpt><trkpt lat="45.85912653646298" lon="11.733371240097199"><ele>1077.0</ele><time>2026-05-01T11:43:04Z</time></trkpt><trkpt lat="45.85903409281956" lon="11.733475960591916"><ele>1077.0</ele><time>2026-05-01T11:43:05Z</time></trkpt><trkpt lat="45.85895646399205" lon="11.73354986596819"><ele>1077.0</ele><time>2026-05-01T11:43:06Z</time></trkpt><trkpt lat="45.858917642163625" lon="11.733703797576792"><ele>1077.0</ele><time>2026-05-01T11:43:07Z</time></trkpt><trkpt lat="45.858894325877245" lon="11.733881887189678"><ele>1079.2</ele><time>2026-05-01T11:43:08Z</time></trkpt><trkpt lat="45.85887254821608" lon="11.734048157798856"><ele>1081.4</ele><time>2026-05-01T11:43:09Z</time></trkpt><trkpt lat="45.85884800713268" lon="11.734203751592814"><ele>1083.6</ele><time>2026-05-01T11:43:10Z</time></trkpt><trkpt lat="45.85882273723109" lon="11.734360040721018"><ele>1085.8</ele><time>2026-05-01T11:43:11Z</time></trkpt><trkpt lat="45.85877963518949" lon="11.734499389305721"><ele>1088.0</ele><time>2026-05-01T11:43:12Z</time></trkpt><trkpt lat="45.85873984504074" lon="11.734637952817241"><ele>1090.8</ele><time>2026-05-01T11:43:13Z</time></trkpt><trkpt lat="45.858698059778014" lon="11.734782140083082"><ele>1093.6</ele><time>2026-05-01T11:43:14Z</time></trkpt><trkpt lat="45.85866434353856" lon="11.734925660844333"><ele>1096.4</ele><time>2026-05-01T11:43:15Z</time></trkpt><trkpt lat="45.85862820273978" lon="11.735072752461624"><ele>1099.2</ele><time>2026-05-01T11:43:16Z</time></trkpt><trkpt lat="45.85858928019792" lon="11.735226864868594"><ele>1102.0</ele><time>2026-05-01T11:43:17Z</time></trkpt><trkpt lat="45.858550004754406" lon="11.735388049465836"><ele>1103.4</ele><time>2026-05-01T11:43:18Z</time></trkpt><trkpt lat="45.85851389884191" lon="11.735538883642908"><ele>1104.8000000000002</ele><time>2026-05-01T11:43:19Z</time></trkpt><trkpt lat="45.858477686618414" lon="11.735675661120426"><ele>1106.2</ele><time>2026-05-01T11:43:20Z</time></trkpt><trkpt lat="45.858449401713074" lon="11.735806881826921"><ele>1107.6000000000001</ele><time>2026-05-01T11:43:21Z</time></trkpt><trkpt lat="45.85843080320496" lon="11.735947632654817"><ele>1109.0</ele><time>2026-05-01T11:43:22Z</time></trkpt><trkpt lat="45.85843833245602" lon="11.736113948374925"><ele>1109.5</ele><time>2026-05-01T11:43:23Z</time></trkpt><trkpt lat="45.858476817487734" lon="11.736304650569735"><ele>1110.0</ele><time>2026-05-01T11:43:24Z</time></trkpt><trkpt lat="45.85850556308304" lon="11.736490666121428"><ele>1110.5</ele><time>2026-05-01T11:43:25Z</time></trkpt><trkpt lat="45.85852372858877" lon="11.736674602849613"><ele>1111.0</ele><time>2026-05-01T11:43:26Z</time></trkpt><trkpt lat="45.858528148906835" lon="11.736857834203915"><ele>1113.0</ele><time>2026-05-01T11:43:27Z</time></trkpt><trkpt lat="45.8585173878752" lon="11.73701240673085"><ele>1115.0</ele><time>2026-05-01T11:43:28Z</time></trkpt><trkpt lat="45.858468944671685" lon="11.7371650084874"><ele>1117.0</ele><time>2026-05-01T11:43:29Z</time></trkpt><trkpt lat="45.85837833978231" lon="11.737290665959195"><ele>1119.0</ele><time>2026-05-01T11:43:30Z</time></trkpt><trkpt lat="45.858274048668115" lon="11.73740433668982"><ele>1115.25</ele><time>2026-05-01T11:43:31Z</time></trkpt><trkpt lat="45.85819720146738" lon="11.737515116746804"><ele>1111.5</ele><time>2026-05-01T11:43:32Z</time></trkpt><trkpt lat="45.85814083923827" lon="11.737640061699057"><ele>1107.75</ele><time>2026-05-01T11:43:33Z</time></trkpt><trkpt lat="45.8581143673526" lon="11.737813140783413"><ele>1104.0</ele><time>2026-05-01T11:43:34Z</time></trkpt><trkpt lat="45.8580964567176" lon="11.738008495089328"><ele>1104.0</ele><time>2026-05-01T11:43:35Z</time></trkpt><trkpt lat="45.85807295875674" lon="11.738154787683863"><ele>1104.0</ele><time>2026-05-01T11:43:36Z</time></trkpt><trkpt lat="45.85804786313219" lon="11.738292809629614"><ele>1104.0</ele><time>2026-05-01T11:43:37Z</time></trkpt><trkpt lat="45.8580274512615" lon="11.73842710661449"><ele>1104.0</ele><time>2026-05-01T11:43:38Z</time></trkpt><trkpt lat="45.858017787075994" lon="11.738560425496802"><ele>1104.0</ele><time>2026-05-01T11:43:39Z</time></trkpt><trkpt lat="45.85804612203612" lon="11.738715177011597"><ele>1104.25</ele><time>2026-05-01T11:43:40Z</time></trkpt><trkpt lat="45.858095891468636" lon="11.738875026279905"><ele>1104.5</ele><time>2026-05-01T11:43:41Z</time></trkpt><trkpt lat="45.85815116631943" lon="11.739043320843795"><ele>1104.75</ele><time>2026-05-01T11:43:42Z</time></trkpt><trkpt lat="45.85818485897815" lon="11.739200362125299"><ele>1105.0</ele><time>2026-05-01T11:43:43Z</time></trkpt><trkpt lat="45.85819413889564" lon="11.739373213514174"><ele>1103.0</ele><time>2026-05-01T11:43:44Z</time></trkpt><trkpt lat="45.85820967937179" lon="11.73952991376989"><ele>1101.0</ele><time>2026-05-01T11:43:45Z</time></trkpt><trkpt lat="45.858284412589285" lon="11.739707096114193"><ele>1099.0</ele><time>2026-05-01T11:43:46Z</time></trkpt><trkpt lat="45.8583691098701" lon="11.739889782290522"><ele>1097.0</ele><time>2026-05-01T11:43:47Z</time></trkpt><trkpt lat="45.858445839969185" lon="11.740052946730035"><ele>1101.25</ele><time>2026-05-01T11:43:48Z</time></trkpt><trkpt lat="45.8585052630219" lon="11.740192375860733"><ele>1105.5</ele><time>2026-05-01T11:43:49Z</time></trkpt><trkpt lat="45.85857943272951" lon="11.74031242774194"><ele>1109.75</ele><time>2026-05-01T11:43:50Z</time></trkpt><trkpt lat="45.8586672491751" lon="11.740423710964096"><ele>1114.0</ele><time>2026-05-01T11:43:51Z</time></trkpt><trkpt lat="45.85877087566075" lon="11.740515882945346"><ele>1114.0</ele><time>2026-05-01T11:43:52Z</time></trkpt><trkpt lat="45.85886308169867" lon="11.740584684021337"><ele>1114.0</ele><time>2026-05-01T11:43:53Z</time></trkpt><trkpt lat="45.85894216885388" lon="11.740651531547076"><ele>1114.0</ele><time>2026-05-01T11:43:53.999Z</time></trkpt><trkpt lat="45.8590220846002" lon="11.740731160114045"><ele>1114.0</ele><time>2026-05-01T11:43:54.999Z</time></trkpt><trkpt lat="45.85908287799967" lon="11.740837830839116"><ele>1114.0</ele><time>2026-05-01T11:43:55.999Z</time></trkpt><trkpt lat="45.85910671910486" lon="11.74098785726245"><ele>1112.5</ele><time>2026-05-01T11:43:56.999Z</time></trkpt><trkpt lat="45.85909755280311" lon="11.741166219365068"><ele>1111.0</ele><time>2026-05-01T11:43:57.999Z</time></trkpt><trkpt lat="45.85909445871064" lon="11.741318829621566"><ele>1109.5</ele><time>2026-05-01T11:43:58.999Z</time></trkpt><trkpt lat="45.85914574246483" lon="11.741445721272484"><ele>1108.0</ele><time>2026-05-01T11:43:59.999Z</time></trkpt><trkpt lat="45.85924336294304" lon="11.741572840510369"><ele>1113.75</ele><time>2026-05-01T11:44:00.999Z</time></trkpt><trkpt lat="45.85932520652861" lon="11.741732305483799"><ele>1119.5</ele><time>2026-05-01T11:44:01.999Z</time></trkpt><trkpt lat="45.85936852018132" lon="11.741926230587241"><ele>1125.25</ele><time>2026-05-01T11:44:02.999Z</time></trkpt><trkpt lat="45.85942895447675" lon="11.74207012105794"><ele>1131.0</ele><time>2026-05-01T11:44:03.999Z</time></trkpt><trkpt lat="45.85948318915135" lon="11.742196954729515"><ele>1131.0</ele><time>2026-05-01T11:44:04.999Z</time></trkpt><trkpt lat="45.85956076711619" lon="11.742328809780567"><ele>1131.0</ele><time>2026-05-01T11:44:05.999Z</time></trkpt><trkpt lat="45.859638633792855" lon="11.742439894262786"><ele>1131.0</ele><time>2026-05-01T11:44:06.999Z</time></trkpt><trkpt lat="45.859723134559395" lon="11.742545432235394"><ele>1131.0</ele><time>2026-05-01T11:44:07.999Z</time></trkpt><trkpt lat="45.85981382197109" lon="11.742658143431287"><ele>1129.25</ele><time>2026-05-01T11:44:08.999Z</time></trkpt><trkpt lat="45.859903847311074" lon="11.742771730296324"><ele>1127.5</ele><time>2026-05-01T11:44:09.999Z</time></trkpt><trkpt lat="45.85998243760989" lon="11.742890224950001"><ele>1125.75</ele><time>2026-05-01T11:44:10.999Z</time></trkpt><trkpt lat="45.86004606908492" lon="11.743025827559773"><ele>1124.0</ele><time>2026-05-01T11:44:11.999Z</time></trkpt><trkpt lat="45.86010313272709" lon="11.74317296756168"><ele>1132.0</ele><time>2026-05-01T11:44:12.999Z</time></trkpt><trkpt lat="45.86015731152949" lon="11.743331789157807"><ele>1140.0</ele><time>2026-05-01T11:44:13.999Z</time></trkpt><trkpt lat="45.86020527445415" lon="11.743489153646872"><ele>1148.0</ele><time>2026-05-01T11:44:15Z</time></trkpt><trkpt lat="45.86024716796245" lon="11.743643942646724"><ele>1156.0</ele><time>2026-05-01T11:44:16Z</time></trkpt><trkpt lat="45.86028320014658" lon="11.743805356879264"><ele>1156.0</ele><time>2026-05-01T11:44:17Z</time></trkpt><trkpt lat="45.86031564153845" lon="11.743957571062218"><ele>1156.0</ele><time>2026-05-01T11:44:18Z</time></trkpt><trkpt lat="45.8603460730161" lon="11.744095805869849"><ele>1156.0</ele><time>2026-05-01T11:44:19Z</time></trkpt><trkpt lat="45.86036955421899" lon="11.744208977470363"><ele>1156.0</ele><time>2026-05-01T11:44:20Z</time></trkpt><trkpt lat="45.860382334383544" lon="11.744309775071166"><ele>1156.0</ele><time>2026-05-01T11:44:21Z</time></trkpt><trkpt lat="45.860381288287826" lon="11.744412678457477"><ele>1156.0</ele><time>2026-05-01T11:44:22Z</time></trkpt><trkpt lat="45.860352922854936" lon="11.744493710985719"><ele>1156.0</ele><time>2026-05-01T11:44:23Z</time></trkpt><trkpt lat="45.86028423769989" lon="11.744519919235119"><ele>1156.0</ele><time>2026-05-01T11:44:24Z</time></trkpt><trkpt lat="45.86021135772644" lon="11.744466548244464"><ele>1156.0</ele><time>2026-05-01T11:44:25Z</time></trkpt><trkpt lat="45.86012865134622" lon="11.744340618775636"><ele>1156.0</ele><time>2026-05-01T11:44:26Z</time></trkpt><trkpt lat="45.86002474872955" lon="11.744215201093327"><ele>1156.0</ele><time>2026-05-01T11:44:27Z</time></trkpt><trkpt lat="45.859919496584354" lon="11.744177091437237"><ele>1153.0</ele><time>2026-05-01T11:44:28Z</time></trkpt><trkpt lat="45.859780864571746" lon="11.74420108577862"><ele>1150.0</ele><time>2026-05-01T11:44:29Z</time></trkpt><trkpt lat="45.85961693069729" lon="11.744250446804985"><ele>1147.0</ele><time>2026-05-01T11:44:30Z</time></trkpt><trkpt lat="45.85949546915978" lon="11.74432543521724"><ele>1144.0</ele><time>2026-05-01T11:44:31Z</time></trkpt><trkpt lat="45.859359031667786" lon="11.744381962030017"><ele>1145.5</ele><time>2026-05-01T11:44:32Z</time></trkpt><trkpt lat="45.85923332536694" lon="11.744424092732002"><ele>1147.0</ele><time>2026-05-01T11:44:33Z</time></trkpt><trkpt lat="45.859104347270744" lon="11.744447099741398"><ele>1148.5</ele><time>2026-05-01T11:44:34Z</time></trkpt><trkpt lat="45.85898814526756" lon="11.744466196823058"><ele>1150.0</ele><time>2026-05-01T11:44:35Z</time></trkpt><trkpt lat="45.85889324801276" lon="11.744484101684415"><ele>1150.0</ele><time>2026-05-01T11:44:36Z</time></trkpt><trkpt lat="45.85880014929272" lon="11.74450762142094"><ele>1150.0</ele><time>2026-05-01T11:44:37Z</time></trkpt><trkpt lat="45.858711950114" lon="11.744544944346856"><ele>1150.0</ele><time>2026-05-01T11:44:38Z</time></trkpt><trkpt lat="45.85863737757695" lon="11.744625482133742"><ele>1150.0</ele><time>2026-05-01T11:44:39Z</time></trkpt><trkpt lat="45.85857827839653" lon="11.744731452681478"><ele>1150.0</ele><time>2026-05-01T11:44:40Z</time></trkpt><trkpt lat="45.85855270289983" lon="11.74488338037591"><ele>1150.0</ele><time>2026-05-01T11:44:41Z</time></trkpt><trkpt lat="45.85855172592291" lon="11.745070074110547"><ele>1150.0</ele><time>2026-05-01T11:44:42Z</time></trkpt><trkpt lat="45.858531600542804" lon="11.745260447888885"><ele>1150.0</ele><time>2026-05-01T11:44:43Z</time></trkpt><trkpt lat="45.858508415531226" lon="11.745454732724358"><ele>1150.0</ele><time>2026-05-01T11:44:44Z</time></trkpt><trkpt lat="45.85848993514976" lon="11.745655573777762"><ele>1155.6666666666665</ele><time>2026-05-01T11:44:45Z</time></trkpt><trkpt lat="45.858475252664235" lon="11.74586972976081"><ele>1161.3333333333333</ele><time>2026-05-01T11:44:46Z</time></trkpt><trkpt lat="45.85847369418778" lon="11.746095242261127"><ele>1167.0</ele><time>2026-05-01T11:44:47Z</time></trkpt><trkpt lat="45.85847243088894" lon="11.746302780629234"><ele>1169.5</ele><time>2026-05-01T11:44:48Z</time></trkpt><trkpt lat="45.85845403118069" lon="11.74650233818476"><ele>1172.0</ele><time>2026-05-01T11:44:49Z</time></trkpt><trkpt lat="45.85843925816985" lon="11.746702199282106"><ele>1174.5</ele><time>2026-05-01T11:44:50Z</time></trkpt><trkpt lat="45.85842458526129" lon="11.746910168414825"><ele>1177.0</ele><time>2026-05-01T11:44:51Z</time></trkpt><trkpt lat="45.858413012644334" lon="11.747103364772611"><ele>1172.75</ele><time>2026-05-01T11:44:52Z</time></trkpt><trkpt lat="45.85840272007468" lon="11.747293380041178"><ele>1168.5</ele><time>2026-05-01T11:44:53Z</time></trkpt><trkpt lat="45.85839179674558" lon="11.747481544079642"><ele>1164.25</ele><time>2026-05-01T11:44:54Z</time></trkpt><trkpt lat="45.85837790893382" lon="11.74765594830211"><ele>1160.0</ele><time>2026-05-01T11:44:55Z</time></trkpt><trkpt lat="45.85835207473093" lon="11.74782770648853"><ele>1160.0</ele><time>2026-05-01T11:44:56Z</time></trkpt><trkpt lat="45.85833839174389" lon="11.748008785675722"><ele>1160.0</ele><time>2026-05-01T11:44:57Z</time></trkpt><trkpt lat="45.85834570324145" lon="11.748217252066244"><ele>1160.0</ele><time>2026-05-01T11:44:58Z</time></trkpt><trkpt lat="45.858365598488135" lon="11.74842909986598"><ele>1160.0</ele><time>2026-05-01T11:44:59Z</time></trkpt><trkpt lat="45.85838253123805" lon="11.748622485764193"><ele>1160.75</ele><time>2026-05-01T11:45:00Z</time></trkpt><trkpt lat="45.858401573961864" lon="11.748801209729102"><ele>1161.5</ele><time>2026-05-01T11:45:01Z</time></trkpt><trkpt lat="45.85842054650558" lon="11.748969190254124"><ele>1162.25</ele><time>2026-05-01T11:45:02Z</time></trkpt><trkpt lat="45.85845711197062" lon="11.749137350059108"><ele>1163.0</ele><time>2026-05-01T11:45:03Z</time></trkpt><trkpt lat="45.85852756327122" lon="11.749306495641294"><ele>1171.25</ele><time>2026-05-01T11:45:04Z</time></trkpt><trkpt lat="45.85859744939946" lon="11.74945983551124"><ele>1179.5</ele><time>2026-05-01T11:45:05Z</time></trkpt><trkpt lat="45.85864966030439" lon="11.749603050694015"><ele>1187.75</ele><time>2026-05-01T11:45:06Z</time></trkpt><trkpt lat="45.85867592123565" lon="11.749776577344466"><ele>1196.0</ele><time>2026-05-01T11:45:07Z</time></trkpt><trkpt lat="45.858648444140144" lon="11.74995712949827"><ele>1196.0</ele><time>2026-05-01T11:45:08Z</time></trkpt><trkpt lat="45.858628608325105" lon="11.750144830298826"><ele>1196.0</ele><time>2026-05-01T11:45:09Z</time></trkpt><trkpt lat="45.85860770837322" lon="11.75033755656678"><ele>1196.0</ele><time>2026-05-01T11:45:10Z</time></trkpt><trkpt lat="45.8586029119175" lon="11.750520119803905"><ele>1196.0</ele><time>2026-05-01T11:45:11Z</time></trkpt><trkpt lat="45.85860094545773" lon="11.75068860566148"><ele>1197.0</ele><time>2026-05-01T11:45:12Z</time></trkpt><trkpt lat="45.85862115508905" lon="11.750852518979302"><ele>1198.0</ele><time>2026-05-01T11:45:13Z</time></trkpt><trkpt lat="45.85863180619498" lon="11.750984679211294"><ele>1199.0</ele><time>2026-05-01T11:45:14Z</time></trkpt><trkpt lat="45.8586296329858" lon="11.75112825749274"><ele>1200.0</ele><time>2026-05-01T11:45:15Z</time></trkpt><trkpt lat="45.85860892802949" lon="11.751282251272386"><ele>1201.0</ele><time>2026-05-01T11:45:16Z</time></trkpt><trkpt lat="45.85856462815031" lon="11.751441220939796"><ele>1202.0</ele><time>2026-05-01T11:45:17Z</time></trkpt><trkpt lat="45.858512879849336" lon="11.75160887750818"><ele>1203.0</ele><time>2026-05-01T11:45:18Z</time></trkpt><trkpt lat="45.85846558387948" lon="11.751759879868192"><ele>1204.0</ele><time>2026-05-01T11:45:19Z</time></trkpt><trkpt lat="45.858416327759315" lon="11.751905173731245"><ele>1205.0</ele><time>2026-05-01T11:45:20Z</time></trkpt><trkpt lat="45.858379685092004" lon="11.752059007578517"><ele>1201.4</ele><time>2026-05-01T11:45:21Z</time></trkpt><trkpt lat="45.858359881566486" lon="11.752215040550515"><ele>1197.8</ele><time>2026-05-01T11:45:22Z</time></trkpt><trkpt lat="45.85835005498599" lon="11.752375068613905"><ele>1194.2</ele><time>2026-05-01T11:45:23Z</time></trkpt><trkpt lat="45.85834889757307" lon="11.752532573805805"><ele>1190.6</ele><time>2026-05-01T11:45:24Z</time></trkpt><trkpt lat="45.85835232107834" lon="11.752691536755012"><ele>1187.0</ele><time>2026-05-01T11:45:25Z</time></trkpt><trkpt lat="45.85835572299048" lon="11.752858095567152"><ele>1187.0</ele><time>2026-05-01T11:45:26Z</time></trkpt><trkpt lat="45.858368592141076" lon="11.753031874316319"><ele>1187.0</ele><time>2026-05-01T11:45:27Z</time></trkpt><trkpt lat="45.858398973394976" lon="11.753218156249165"><ele>1187.0</ele><time>2026-05-01T11:45:28Z</time></trkpt><trkpt lat="45.8584369414379" lon="11.75340835039836"><ele>1187.0</ele><time>2026-05-01T11:45:29Z</time></trkpt><trkpt lat="45.858469876095114" lon="11.753591530366574"><ele>1198.0</ele><time>2026-05-01T11:45:30Z</time></trkpt><trkpt lat="45.858500536341104" lon="11.753770668207519"><ele>1209.0</ele><time>2026-05-01T11:45:31Z</time></trkpt><trkpt lat="45.858527161199476" lon="11.753950712766242"><ele>1220.0</ele><time>2026-05-01T11:45:32Z</time></trkpt><trkpt lat="45.85855171441255" lon="11.75413231837651"><ele>1231.0</ele><time>2026-05-01T11:45:33Z</time></trkpt><trkpt lat="45.85857987038636" lon="11.754322577482073"><ele>1232.0</ele><time>2026-05-01T11:45:34Z</time></trkpt><trkpt lat="45.85860905407506" lon="11.754521335039534"><ele>1233.0</ele><time>2026-05-01T11:45:35Z</time></trkpt><trkpt lat="45.85863392607556" lon="11.754716315511626"><ele>1234.0</ele><time>2026-05-01T11:45:36Z</time></trkpt><trkpt lat="45.85866163936898" lon="11.754908758379898"><ele>1235.0</ele><time>2026-05-01T11:45:37Z</time></trkpt><trkpt lat="45.85869672748718" lon="11.75509624100085"><ele>1234.25</ele><time>2026-05-01T11:45:38Z</time></trkpt><trkpt lat="45.858731970452226" lon="11.755285490537224"><ele>1233.5</ele><time>2026-05-01T11:45:39Z</time></trkpt><trkpt lat="45.85877498086576" lon="11.7554732818878"><ele>1232.75</ele><time>2026-05-01T11:45:40Z</time></trkpt><trkpt lat="45.85880968086431" lon="11.75566368254126"><ele>1232.0</ele><time>2026-05-01T11:45:41Z</time></trkpt><trkpt lat="45.85883755568566" lon="11.75584962802278"><ele>1231.0</ele><time>2026-05-01T11:45:42Z</time></trkpt><trkpt lat="45.8588541893135" lon="11.756036736251016"><ele>1230.0</ele><time>2026-05-01T11:45:43Z</time></trkpt><trkpt lat="45.85886242506537" lon="11.756231416379057"><ele>1229.0</ele><time>2026-05-01T11:45:44Z</time></trkpt><trkpt lat="45.85886586090839" lon="11.756434450716638"><ele>1228.0</ele><time>2026-05-01T11:45:45Z</time></trkpt><trkpt lat="45.858872127007565" lon="11.756633127215139"><ele>1228.0</ele><time>2026-05-01T11:45:46Z</time></trkpt><trkpt lat="45.85887130838058" lon="11.756835826298149"><ele>1228.0</ele><time>2026-05-01T11:45:47Z</time></trkpt><trkpt lat="45.85891584008907" lon="11.757040310605447"><ele>1228.0</ele><time>2026-05-01T11:45:48Z</time></trkpt><trkpt lat="45.85895410780409" lon="11.757238483365914"><ele>1228.0</ele><time>2026-05-01T11:45:49Z</time></trkpt><trkpt lat="45.85897574584431" lon="11.757411649921247"><ele>1226.75</ele><time>2026-05-01T11:45:50Z</time></trkpt><trkpt lat="45.85898983802231" lon="11.757583602861425"><ele>1225.5</ele><time>2026-05-01T11:45:51Z</time></trkpt><trkpt lat="45.85898985432562" lon="11.757756389467005"><ele>1224.25</ele><time>2026-05-01T11:45:52Z</time></trkpt><trkpt lat="45.858995197397064" lon="11.757920187939972"><ele>1223.0</ele><time>2026-05-01T11:45:53Z</time></trkpt><trkpt lat="45.859034994574955" lon="11.758085138115474"><ele>1222.5</ele><time>2026-05-01T11:45:54Z</time></trkpt><trkpt lat="45.85910377229936" lon="11.758248265537759"><ele>1222.0</ele><time>2026-05-01T11:45:55Z</time></trkpt><trkpt lat="45.85919248179351" lon="11.758428289258374"><ele>1221.5</ele><time>2026-05-01T11:45:55.999Z</time></trkpt><trkpt lat="45.85928945832945" lon="11.758615773193384"><ele>1221.0</ele><time>2026-05-01T11:45:56.999Z</time></trkpt><trkpt lat="45.85939355346179" lon="11.758792445509322"><ele>1223.75</ele><time>2026-05-01T11:45:57.999Z</time></trkpt><trkpt lat="45.85949703856257" lon="11.758966457091061"><ele>1226.5</ele><time>2026-05-01T11:45:58.999Z</time></trkpt><trkpt lat="45.85958184615321" lon="11.759132123362857"><ele>1229.25</ele><time>2026-05-01T11:45:59.999Z</time></trkpt><trkpt lat="45.85965426608555" lon="11.759297634018825"><ele>1232.0</ele><time>2026-05-01T11:46:00.999Z</time></trkpt><trkpt lat="45.8597143501742" lon="11.759454477912886"><ele>1232.0</ele><time>2026-05-01T11:46:01.999Z</time></trkpt><trkpt lat="45.85978140089411" lon="11.759607782061488"><ele>1232.0</ele><time>2026-05-01T11:46:02.999Z</time></trkpt><trkpt lat="45.85986614815468" lon="11.759752666240969"><ele>1232.0</ele><time>2026-05-01T11:46:03.999Z</time></trkpt><trkpt lat="45.859951693961094" lon="11.759909794938634"><ele>1232.0</ele><time>2026-05-01T11:46:04.999Z</time></trkpt><trkpt lat="45.860010877163866" lon="11.760107136204217"><ele>1229.75</ele><time>2026-05-01T11:46:05.999Z</time></trkpt><trkpt lat="45.860065708813785" lon="11.760284419604146"><ele>1227.5</ele><time>2026-05-01T11:46:06.999Z</time></trkpt><trkpt lat="45.86011806277631" lon="11.760431312383137"><ele>1225.25</ele><time>2026-05-01T11:46:07.999Z</time></trkpt><trkpt lat="45.86019796191585" lon="11.7605706676769"><ele>1223.0</ele><time>2026-05-01T11:46:08.999Z</time></trkpt><trkpt lat="45.86029552235578" lon="11.760696638929241"><ele>1224.75</ele><time>2026-05-01T11:46:09.999Z</time></trkpt><trkpt lat="45.86038803164432" lon="11.760817771284215"><ele>1226.5</ele><time>2026-05-01T11:46:10.999Z</time></trkpt><trkpt lat="45.860465914923665" lon="11.760918267564987"><ele>1228.25</ele><time>2026-05-01T11:46:11.999Z</time></trkpt><trkpt lat="45.86055250101773" lon="11.76101606401126"><ele>1230.0</ele><time>2026-05-01T11:46:12.999Z</time></trkpt><trkpt lat="45.86066102305262" lon="11.761068478090452"><ele>1230.0</ele><time>2026-05-01T11:46:13.999Z</time></trkpt><trkpt lat="45.86079438839078" lon="11.761060756191078"><ele>1230.0</ele><time>2026-05-01T11:46:14.999Z</time></trkpt><trkpt lat="45.860946082088795" lon="11.761026304943746"><ele>1230.0</ele><time>2026-05-01T11:46:15.999Z</time></trkpt><trkpt lat="45.86107864167384" lon="11.761003155068355"><ele>1230.0</ele><time>2026-05-01T11:46:16.999Z</time></trkpt><trkpt lat="45.861201410005584" lon="11.761004300333074"><ele>1232.4</ele><time>2026-05-01T11:46:17.999Z</time></trkpt><trkpt lat="45.8613217506548" lon="11.761021442793803"><ele>1234.8</ele><time>2026-05-01T11:46:18.999Z</time></trkpt><trkpt lat="45.861416663587164" lon="11.761055258349822"><ele>1237.2</ele><time>2026-05-01T11:46:19.999Z</time></trkpt><trkpt lat="45.86151317106433" lon="11.761111347099252"><ele>1239.6</ele><time>2026-05-01T11:46:21Z</time></trkpt><trkpt lat="45.86158868787161" lon="11.761219353400191"><ele>1242.0</ele><time>2026-05-01T11:46:22Z</time></trkpt><trkpt lat="45.861630083142174" lon="11.761361547210676"><ele>1242.0</ele><time>2026-05-01T11:46:23Z</time></trkpt><trkpt lat="45.861676477711725" lon="11.761474509150382"><ele>1242.0</ele><time>2026-05-01T11:46:24Z</time></trkpt><trkpt lat="45.86176570153831" lon="11.761540776696066"><ele>1242.0</ele><time>2026-05-01T11:46:25Z</time></trkpt><trkpt lat="45.861882906878236" lon="11.761548853501758"><ele>1242.0</ele><time>2026-05-01T11:46:26Z</time></trkpt><trkpt lat="45.862021576164324" lon="11.761516210472726"><ele>1244.5</ele><time>2026-05-01T11:46:27Z</time></trkpt><trkpt lat="45.8621487587832" lon="11.761501358661624"><ele>1247.0</ele><time>2026-05-01T11:46:28Z</time></trkpt><trkpt lat="45.86226876121715" lon="11.761512952869447"><ele>1249.5</ele><time>2026-05-01T11:46:29Z</time></trkpt><trkpt lat="45.862390253866096" lon="11.761571746834086"><ele>1252.0</ele><time>2026-05-01T11:46:30Z</time></trkpt><trkpt lat="45.86247995847089" lon="11.761713696512096"><ele>1252.0</ele><time>2026-05-01T11:46:31Z</time></trkpt><trkpt lat="45.86259436587708" lon="11.761845748319669"><ele>1252.0</ele><time>2026-05-01T11:46:32Z</time></trkpt><trkpt lat="45.86270320883962" lon="11.76192852328403"><ele>1252.0</ele><time>2026-05-01T11:46:33Z</time></trkpt><trkpt lat="45.862815696646095" lon="11.761984426519515"><ele>1252.0</ele><time>2026-05-01T11:46:34Z</time></trkpt><trkpt lat="45.862910034497894" lon="11.762034087607764"><ele>1254.0</ele><time>2026-05-01T11:46:35Z</time></trkpt><trkpt lat="45.86299715565982" lon="11.762093462482932"><ele>1256.0</ele><time>2026-05-01T11:46:36Z</time></trkpt><trkpt lat="45.86307224230942" lon="11.762186071266276"><ele>1258.0</ele><time>2026-05-01T11:46:37Z</time></trkpt><trkpt lat="45.86312033303212" lon="11.762339220046101"><ele>1260.0</ele><time>2026-05-01T11:46:38Z</time></trkpt><trkpt lat="45.86313893726961" lon="11.762526168462527"><ele>1262.0</ele><time>2026-05-01T11:46:39Z</time></trkpt><trkpt lat="45.86316592514625" lon="11.762716569273378"><ele>1262.0</ele><time>2026-05-01T11:46:40Z</time></trkpt><trkpt lat="45.86320275792871" lon="11.762886451304224"><ele>1262.0</ele><time>2026-05-01T11:46:41Z</time></trkpt><trkpt lat="45.86325396225573" lon="11.763056036363652"><ele>1262.0</ele><time>2026-05-01T11:46:42Z</time></trkpt><trkpt lat="45.863317079014784" lon="11.7631985180448"><ele>1262.0</ele><time>2026-05-01T11:46:43Z</time></trkpt><trkpt lat="45.863373584469464" lon="11.763312135011839"><ele>1262.0</ele><time>2026-05-01T11:46:44Z</time></trkpt><trkpt lat="45.863435998119584" lon="11.763402163917952"><ele>1262.0</ele><time>2026-05-01T11:46:45Z</time></trkpt><trkpt lat="45.863530117593164" lon="11.763456095432778"><ele>1262.0</ele><time>2026-05-01T11:46:46Z</time></trkpt><trkpt lat="45.863652766644556" lon="11.76347283992063"><ele>1262.0</ele><time>2026-05-01T11:46:47Z</time></trkpt><trkpt lat="45.863784455524694" lon="11.76348453509524"><ele>1262.0</ele><time>2026-05-01T11:46:48Z</time></trkpt><trkpt lat="45.863896868273365" lon="11.763503083108656"><ele>1264.75</ele><time>2026-05-01T11:46:49Z</time></trkpt><trkpt lat="45.86400393429296" lon="11.763548587073002"><ele>1267.5</ele><time>2026-05-01T11:46:50Z</time></trkpt><trkpt lat="45.86410040020391" lon="11.763640047674283"><ele>1270.25</ele><time>2026-05-01T11:46:51Z</time></trkpt><trkpt lat="45.86418260928438" lon="11.763786312431911"><ele>1273.0</ele><time>2026-05-01T11:46:52Z</time></trkpt><trkpt lat="45.86425835972753" lon="11.763945034556423"><ele>1276.1666666666665</ele><time>2026-05-01T11:46:53Z</time></trkpt><trkpt lat="45.864322663631434" lon="11.764063742622076"><ele>1279.3333333333333</ele><time>2026-05-01T11:46:54Z</time></trkpt><trkpt lat="45.86438502892542" lon="11.764150486763919"><ele>1282.5</ele><time>2026-05-01T11:46:55Z</time></trkpt><trkpt lat="45.86443847565169" lon="11.764235794501527"><ele>1285.6666666666667</ele><time>2026-05-01T11:46:56Z</time></trkpt><trkpt lat="45.86446655004573" lon="11.764348248384197"><ele>1288.8333333333335</ele><time>2026-05-01T11:46:57Z</time></trkpt><trkpt lat="45.86445075473877" lon="11.764482088946353"><ele>1292.0</ele><time>2026-05-01T11:46:58Z</time></trkpt><trkpt lat="45.86435237555989" lon="11.764571203235361"><ele>1290.0</ele><time>2026-05-01T11:46:59Z</time></trkpt><trkpt lat="45.86425252639477" lon="11.764670062504656"><ele>1288.0</ele><time>2026-05-01T11:47:00Z</time></trkpt><trkpt lat="45.86414356434896" lon="11.76468095976742"><ele>1286.0</ele><time>2026-05-01T11:47:01Z</time></trkpt><trkpt lat="45.864046342367764" lon="11.764566634483547"><ele>1284.0</ele><time>2026-05-01T11:47:02Z</time></trkpt><trkpt lat="45.863941317834694" lon="11.764527097491953"><ele>1284.0</ele><time>2026-05-01T11:47:03Z</time></trkpt><trkpt lat="45.86382211013526" lon="11.76448652597914"><ele>1284.0</ele><time>2026-05-01T11:47:04Z</time></trkpt><trkpt lat="45.86367517695141" lon="11.764549765731532"><ele>1284.0</ele><time>2026-05-01T11:47:05Z</time></trkpt><trkpt lat="45.86355965742627" lon="11.764593549839478"><ele>1284.0</ele><time>2026-05-01T11:47:06Z</time></trkpt><trkpt lat="45.86346345612717" lon="11.76463952472895"><ele>1285.8000000000002</ele><time>2026-05-01T11:47:07Z</time></trkpt><trkpt lat="45.863370965040836" lon="11.764721307514003"><ele>1287.6000000000001</ele><time>2026-05-01T11:47:08Z</time></trkpt><trkpt lat="45.86328138153427" lon="11.764799806663452"><ele>1289.4</ele><time>2026-05-01T11:47:09Z</time></trkpt><trkpt lat="45.86320567004158" lon="11.764872601927603"><ele>1291.2</ele><time>2026-05-01T11:47:10Z</time></trkpt><trkpt lat="45.86312239642574" lon="11.764924104443836"><ele>1293.0</ele><time>2026-05-01T11:47:11Z</time></trkpt><trkpt lat="45.863040329735576" lon="11.764891505335402"><ele>1293.0</ele><time>2026-05-01T11:47:12Z</time></trkpt><trkpt lat="45.863003645471245" lon="11.764763847428892"><ele>1293.0</ele><time>2026-05-01T11:47:13Z</time></trkpt><trkpt lat="45.862940596682755" lon="11.764675071576173"><ele>1293.0</ele><time>2026-05-01T11:47:14Z</time></trkpt><trkpt lat="45.86289031804241" lon="11.764586268150172"><ele>1293.0</ele><time>2026-05-01T11:47:15Z</time></trkpt><trkpt lat="45.86283661598654" lon="11.764490874585794"><ele>1293.0</ele><time>2026-05-01T11:47:16Z</time></trkpt><trkpt lat="45.86275972085417" lon="11.76445138365105"><ele>1293.0</ele><time>2026-05-01T11:47:17Z</time></trkpt><trkpt lat="45.862674803507005" lon="11.76447601818718"><ele>1293.2</ele><time>2026-05-01T11:47:18Z</time></trkpt><trkpt lat="45.86258883946954" lon="11.764526681678285"><ele>1293.4</ele><time>2026-05-01T11:47:19Z</time></trkpt><trkpt lat="45.86250598159773" lon="11.7645940333964"><ele>1293.6000000000001</ele><time>2026-05-01T11:47:20Z</time></trkpt><trkpt lat="45.86241763453977" lon="11.764681597958454"><ele>1293.8000000000002</ele><time>2026-05-01T11:47:21Z</time></trkpt><trkpt lat="45.862325934747695" lon="11.764794844685216"><ele>1294.0</ele><time>2026-05-01T11:47:22Z</time></trkpt><trkpt lat="45.862226760970614" lon="11.764915436470405"><ele>1294.0</ele><time>2026-05-01T11:47:23Z</time></trkpt><trkpt lat="45.86212620889061" lon="11.76502657622849"><ele>1294.0</ele><time>2026-05-01T11:47:24Z</time></trkpt><trkpt lat="45.86204033531104" lon="11.765114417010121"><ele>1294.0</ele><time>2026-05-01T11:47:25Z</time></trkpt><trkpt lat="45.861957598911175" lon="11.765194782707656"><ele>1294.0</ele><time>2026-05-01T11:47:26Z</time></trkpt><trkpt lat="45.8618790711568" lon="11.765275819698964"><ele>1294.0</ele><time>2026-05-01T11:47:27Z</time></trkpt><trkpt lat="45.86181204888228" lon="11.765367126199124"><ele>1295.2</ele><time>2026-05-01T11:47:28Z</time></trkpt><trkpt lat="45.861758173362496" lon="11.765477365565488"><ele>1296.4</ele><time>2026-05-01T11:47:29Z</time></trkpt><trkpt lat="45.8617144571676" lon="11.765604611209257"><ele>1297.6</ele><time>2026-05-01T11:47:30Z</time></trkpt><trkpt lat="45.86167449066844" lon="11.765748976348336"><ele>1298.8</ele><time>2026-05-01T11:47:31Z</time></trkpt><trkpt lat="45.86163233977229" lon="11.765905922774335"><ele>1300.0</ele><time>2026-05-01T11:47:32Z</time></trkpt><trkpt lat="45.86157756285998" lon="11.766068420319074"><ele>1302.75</ele><time>2026-05-01T11:47:33Z</time></trkpt><trkpt lat="45.86150918540466" lon="11.76622370397339"><ele>1305.5</ele><time>2026-05-01T11:47:34Z</time></trkpt><trkpt lat="45.86143358566464" lon="11.76636953573635"><ele>1308.25</ele><time>2026-05-01T11:47:35Z</time></trkpt><trkpt lat="45.86136732358542" lon="11.766510920146652"><ele>1311.0</ele><time>2026-05-01T11:47:36Z</time></trkpt><trkpt lat="45.86132323239681" lon="11.766662930676947"><ele>1311.0</ele><time>2026-05-01T11:47:37Z</time></trkpt><trkpt lat="45.86130816594635" lon="11.766831350105095"><ele>1311.0</ele><time>2026-05-01T11:47:38Z</time></trkpt><trkpt lat="45.861326629641404" lon="11.76698972441218"><ele>1311.0</ele><time>2026-05-01T11:47:39Z</time></trkpt><trkpt lat="45.86137699316569" lon="11.767107457752932"><ele>1311.0</ele><time>2026-05-01T11:47:40Z</time></trkpt><trkpt lat="45.861476715227425" lon="11.767206376859171"><ele>1311.0</ele><time>2026-05-01T11:47:41Z</time></trkpt><trkpt lat="45.86160534403117" lon="11.767292525939766"><ele>1310.1999999999998</ele><time>2026-05-01T11:47:42Z</time></trkpt><trkpt lat="45.86174647256866" lon="11.7673576486833"><ele>1309.3999999999999</ele><time>2026-05-01T11:47:43Z</time></trkpt><trkpt lat="45.86185668617724" lon="11.767386634586696"><ele>1308.6</ele><time>2026-05-01T11:47:44Z</time></trkpt><trkpt lat="45.86194410914787" lon="11.767397644641639"><ele>1307.8</ele><time>2026-05-01T11:47:45Z</time></trkpt><trkpt lat="45.86201902985751" lon="11.767414138475079"><ele>1307.0</ele><time>2026-05-01T11:47:46Z</time></trkpt><trkpt lat="45.86209234119539" lon="11.767465845537684"><ele>1311.8</ele><time>2026-05-01T11:47:47Z</time></trkpt><trkpt lat="45.86213375126593" lon="11.767564995348764"><ele>1316.6</ele><time>2026-05-01T11:47:48Z</time></trkpt><trkpt lat="45.86213794456433" lon="11.767701888819527"><ele>1321.3999999999999</ele><time>2026-05-01T11:47:49Z</time></trkpt><trkpt lat="45.862110928164945" lon="11.76787162077042"><ele>1326.1999999999998</ele><time>2026-05-01T11:47:50Z</time></trkpt><trkpt lat="45.86209941690901" lon="11.768019483605638"><ele>1331.0</ele><time>2026-05-01T11:47:51Z</time></trkpt><trkpt lat="45.86212146329609" lon="11.768155106492006"><ele>1331.0</ele><time>2026-05-01T11:47:52Z</time></trkpt><trkpt lat="45.862172732836285" lon="11.76827609092782"><ele>1331.0</ele><time>2026-05-01T11:47:53Z</time></trkpt><trkpt lat="45.862252396117185" lon="11.768372286219032"><ele>1331.0</ele><time>2026-05-01T11:47:54Z</time></trkpt><trkpt lat="45.86232175844535" lon="11.768436995847654"><ele>1331.0</ele><time>2026-05-01T11:47:55Z</time></trkpt><trkpt lat="45.86235771232862" lon="11.76852816953108"><ele>1331.0</ele><time>2026-05-01T11:47:56Z</time></trkpt><trkpt lat="45.862352297188146" lon="11.768654082244986"><ele>1331.0</ele><time>2026-05-01T11:47:57Z</time></trkpt><trkpt lat="45.86226381594308" lon="11.768746262312526"><ele>1333.1999999999998</ele><time>2026-05-01T11:47:58Z</time></trkpt><trkpt lat="45.862159514677074" lon="11.768834278235321"><ele>1335.3999999999999</ele><time>2026-05-01T11:47:58.999Z</time></trkpt><trkpt lat="45.86207817489925" lon="11.768937311048717"><ele>1337.6</ele><time>2026-05-01T11:47:59.999Z</time></trkpt><trkpt lat="45.86200036608105" lon="11.769029338019955"><ele>1339.8</ele><time>2026-05-01T11:48:00.999Z</time></trkpt><trkpt lat="45.861946408354925" lon="11.769126916743588"><ele>1342.0</ele><time>2026-05-01T11:48:01.999Z</time></trkpt><trkpt lat="45.86192709473362" lon="11.769241362887257"><ele>1342.0</ele><time>2026-05-01T11:48:02.999Z</time></trkpt><trkpt lat="45.86193263183352" lon="11.769354517850358"><ele>1342.0</ele><time>2026-05-01T11:48:03.999Z</time></trkpt><trkpt lat="45.86194580675571" lon="11.769443203489521"><ele>1342.0</ele><time>2026-05-01T11:48:04.999Z</time></trkpt><trkpt lat="45.86196685019103" lon="11.769533516648695"><ele>1342.0</ele><time>2026-05-01T11:48:05.999Z</time></trkpt><trkpt lat="45.86199145344166" lon="11.76962465691315"><ele>1342.0</ele><time>2026-05-01T11:48:06.999Z</time></trkpt><trkpt lat="45.86201096914277" lon="11.769712817792316"><ele>1342.0</ele><time>2026-05-01T11:48:07.999Z</time></trkpt><trkpt lat="45.862039378828584" lon="11.769804805783643"><ele>1342.0</ele><time>2026-05-01T11:48:08.999Z</time></trkpt><trkpt lat="45.86206683381757" lon="11.769908233731119"><ele>1344.3999999999999</ele><time>2026-05-01T11:48:09.999Z</time></trkpt><trkpt lat="45.862071578839014" lon="11.770027372837534"><ele>1346.8</ele><time>2026-05-01T11:48:10.999Z</time></trkpt><trkpt lat="45.86202000388351" lon="11.770142974555316"><ele>1349.2</ele><time>2026-05-01T11:48:11.999Z</time></trkpt><trkpt lat="45.861941761116356" lon="11.770253686291847"><ele>1351.6</ele><time>2026-05-01T11:48:12.999Z</time></trkpt><trkpt lat="45.86188254302271" lon="11.770369562364621"><ele>1354.0</ele><time>2026-05-01T11:48:13.999Z</time></trkpt><trkpt lat="45.86183239065519" lon="11.770479184571656"><ele>1356.2</ele><time>2026-05-01T11:48:14.999Z</time></trkpt><trkpt lat="45.86178901471155" lon="11.770603318960807"><ele>1358.4</ele><time>2026-05-01T11:48:15.999Z</time></trkpt><trkpt lat="45.86174515442735" lon="11.770733839171921"><ele>1360.6</ele><time>2026-05-01T11:48:16.999Z</time></trkpt><trkpt lat="45.86170675408481" lon="11.77086870294642"><ele>1362.8</ele><time>2026-05-01T11:48:17.999Z</time></trkpt><trkpt lat="45.86167401595364" lon="11.77100042441856"><ele>1365.0</ele><time>2026-05-01T11:48:18.999Z</time></trkpt><trkpt lat="45.86165429342537" lon="11.771136370052455"><ele>1360.4</ele><time>2026-05-01T11:48:19.999Z</time></trkpt><trkpt lat="45.86164541356343" lon="11.771277578041497"><ele>1355.8</ele><time>2026-05-01T11:48:20.999Z</time></trkpt><trkpt lat="45.86164890384401" lon="11.77142125126939"><ele>1351.1999999999998</ele><time>2026-05-01T11:48:21.999Z</time></trkpt><trkpt lat="45.861650142266534" lon="11.771562967236305"><ele>1346.6</ele><time>2026-05-01T11:48:22.999Z</time></trkpt><trkpt lat="45.86163310404527" lon="11.771703116405883"><ele>1342.0</ele><time>2026-05-01T11:48:23.999Z</time></trkpt><trkpt lat="45.86159746160663" lon="11.771830758761212"><ele>1343.1666666666665</ele><time>2026-05-01T11:48:24.999Z</time></trkpt><trkpt lat="45.86154920645669" lon="11.771942629660716"><ele>1344.3333333333333</ele><time>2026-05-01T11:48:25.999Z</time></trkpt><trkpt lat="45.86151585404909" lon="11.772039901412205"><ele>1345.5</ele><time>2026-05-01T11:48:27Z</time></trkpt><trkpt lat="45.861497518510106" lon="11.772141629238154"><ele>1346.6666666666667</ele><time>2026-05-01T11:48:28Z</time></trkpt><trkpt lat="45.86149192825638" lon="11.772251541669547"><ele>1347.8333333333335</ele><time>2026-05-01T11:48:29Z</time></trkpt><trkpt lat="45.861493108643344" lon="11.77237139298839"><ele>1349.0</ele><time>2026-05-01T11:48:30Z</time></trkpt><trkpt lat="45.86150492555536" lon="11.7725073084828"><ele>1349.0</ele><time>2026-05-01T11:48:31Z</time></trkpt><trkpt lat="45.86152533950047" lon="11.77265580088176"><ele>1349.0</ele><time>2026-05-01T11:48:32Z</time></trkpt><trkpt lat="45.86155597927885" lon="11.772812405375529"><ele>1349.0</ele><time>2026-05-01T11:48:33Z</time></trkpt><trkpt lat="45.861593924990096" lon="11.772970993960723"><ele>1349.0</ele><time>2026-05-01T11:48:34Z</time></trkpt><trkpt lat="45.86164088264681" lon="11.773132503199152"><ele>1349.75</ele><time>2026-05-01T11:48:35Z</time></trkpt><trkpt lat="45.861690397158725" lon="11.773301171732259"><ele>1350.5</ele><time>2026-05-01T11:48:36Z</time></trkpt><trkpt lat="45.86173930683264" lon="11.773475984204385"><ele>1351.25</ele><time>2026-05-01T11:48:37Z</time></trkpt><trkpt lat="45.86178217720289" lon="11.773638306437178"><ele>1352.0</ele><time>2026-05-01T11:48:38Z</time></trkpt><trkpt lat="45.86180606504825" lon="11.773784672329208"><ele>1352.3999999999999</ele><time>2026-05-01T11:48:39Z</time></trkpt><trkpt lat="45.861807843428565" lon="11.77391910357995"><ele>1352.8</ele><time>2026-05-01T11:48:40Z</time></trkpt><trkpt lat="45.86179783254764" lon="11.774050416334102"><ele>1353.2</ele><time>2026-05-01T11:48:41Z</time></trkpt><trkpt lat="45.861779357688945" lon="11.774181510434609"><ele>1353.6</ele><time>2026-05-01T11:48:42Z</time></trkpt><trkpt lat="45.86176365953109" lon="11.774309945126982"><ele>1354.0</ele><time>2026-05-01T11:48:43Z</time></trkpt><trkpt lat="45.86175108370379" lon="11.774442902273348"><ele>1354.8000000000002</ele><time>2026-05-01T11:48:44Z</time></trkpt><trkpt lat="45.8617345921171" lon="11.774580408086063"><ele>1355.6000000000001</ele><time>2026-05-01T11:48:45Z</time></trkpt><trkpt lat="45.86171961239522" lon="11.774715934975543"><ele>1356.4</ele><time>2026-05-01T11:48:46Z</time></trkpt><trkpt lat="45.861724645507344" lon="11.774862845822637"><ele>1357.2</ele><time>2026-05-01T11:48:47Z</time></trkpt><trkpt lat="45.86174960422029" lon="11.775019397770572"><ele>1358.0</ele><time>2026-05-01T11:48:48Z</time></trkpt><trkpt lat="45.86178699237809" lon="11.775187094741197"><ele>1364.25</ele><time>2026-05-01T11:48:49Z</time></trkpt><trkpt lat="45.86183274893608" lon="11.77536091858231"><ele>1370.5</ele><time>2026-05-01T11:48:50Z</time></trkpt><trkpt lat="45.861876637410795" lon="11.77551906771954"><ele>1376.75</ele><time>2026-05-01T11:48:51Z</time></trkpt><trkpt lat="45.86191993804458" lon="11.775666036472677"><ele>1383.0</ele><time>2026-05-01T11:48:52Z</time></trkpt><trkpt lat="45.86196650052081" lon="11.775804596438862"><ele>1383.0</ele><time>2026-05-01T11:48:53Z</time></trkpt><trkpt lat="45.86202531015253" lon="11.775932467626493"><ele>1383.0</ele><time>2026-05-01T11:48:54Z</time></trkpt><trkpt lat="45.86210583610901" lon="11.776055382289877"><ele>1383.0</ele><time>2026-05-01T11:48:55Z</time></trkpt><trkpt lat="45.86220211541266" lon="11.776179954834994"><ele>1383.0</ele><time>2026-05-01T11:48:56Z</time></trkpt><trkpt lat="45.86230033428662" lon="11.776302656501116"><ele>1385.5</ele><time>2026-05-01T11:48:57Z</time></trkpt><trkpt lat="45.86238983546935" lon="11.776416561945524"><ele>1388.0</ele><time>2026-05-01T11:48:58Z</time></trkpt><trkpt lat="45.86247577921573" lon="11.776518761023826"><ele>1390.5</ele><time>2026-05-01T11:48:59Z</time></trkpt><trkpt lat="45.862561102137796" lon="11.776616554197826"><ele>1393.0</ele><time>2026-05-01T11:49:00Z</time></trkpt><trkpt lat="45.86264529380115" lon="11.776716928815333"><ele>1393.0</ele><time>2026-05-01T11:49:01Z</time></trkpt><trkpt lat="45.86272918607589" lon="11.776823971427897"><ele>1393.0</ele><time>2026-05-01T11:49:02Z</time></trkpt><trkpt lat="45.86281005461084" lon="11.776941082990106"><ele>1393.0</ele><time>2026-05-01T11:49:03Z</time></trkpt><trkpt lat="45.862895012696775" lon="11.77704456585016"><ele>1393.0</ele><time>2026-05-01T11:49:04Z</time></trkpt><trkpt lat="45.86298967525046" lon="11.777123973605644"><ele>1393.0</ele><time>2026-05-01T11:49:05Z</time></trkpt><trkpt lat="45.86309423718689" lon="11.777166937033623"><ele>1392.2</ele><time>2026-05-01T11:49:06Z</time></trkpt><trkpt lat="45.86319866623426" lon="11.777189989164803"><ele>1391.4</ele><time>2026-05-01T11:49:07Z</time></trkpt><trkpt lat="45.86328489602905" lon="11.777214980521853"><ele>1390.6000000000001</ele><time>2026-05-01T11:49:08Z</time></trkpt><trkpt lat="45.86334921871976" lon="11.777265100515724"><ele>1389.8000000000002</ele><time>2026-05-01T11:49:09Z</time></trkpt><trkpt lat="45.863398663903574" lon="11.777332614362523"><ele>1389.0</ele><time>2026-05-01T11:49:10Z</time></trkpt><trkpt lat="45.863456039169684" lon="11.777483587958415"><ele>1389.0</ele><time>2026-05-01T11:49:12Z</time></trkpt><trkpt lat="45.863527074827225" lon="11.77762729142768"><ele>1389.0</ele><time>2026-05-01T11:49:14Z</time></trkpt><trkpt lat="45.86358520610788" lon="11.777698011084636"><ele>1389.0</ele><time>2026-05-01T11:49:15Z</time></trkpt><trkpt lat="45.86365112547356" lon="11.777764185890529"><ele>1389.0</ele><time>2026-05-01T11:49:16Z</time></trkpt><trkpt lat="45.863739101244526" lon="11.77781161290614"><ele>1389.0</ele><time>2026-05-01T11:49:17Z</time></trkpt><trkpt lat="45.86384564281881" lon="11.777820462081495"><ele>1389.0</ele><time>2026-05-01T11:49:18Z</time></trkpt><trkpt lat="45.86395825690232" lon="11.77779137293432"><ele>1389.0</ele><time>2026-05-01T11:49:19Z</time></trkpt><trkpt lat="45.864070180000965" lon="11.777744153839775"><ele>1389.0</ele><time>2026-05-01T11:49:20Z</time></trkpt><trkpt lat="45.86417818098759" lon="11.777680315648485"><ele>1389.0</ele><time>2026-05-01T11:49:21Z</time></trkpt><trkpt lat="45.864280224240865" lon="11.777593718774755"><ele>1388.75</ele><time>2026-05-01T11:49:22Z</time></trkpt><trkpt lat="45.86437342183606" lon="11.777484294783818"><ele>1388.5</ele><time>2026-05-01T11:49:23Z</time></trkpt><trkpt lat="45.86445668078619" lon="11.777360682386682"><ele>1388.25</ele><time>2026-05-01T11:49:24Z</time></trkpt><trkpt lat="45.86453023651574" lon="11.77723758304268"><ele>1388.0</ele><time>2026-05-01T11:49:25Z</time></trkpt><trkpt lat="45.86460001261962" lon="11.777126474713508"><ele>1388.0</ele><time>2026-05-01T11:49:26Z</time></trkpt><trkpt lat="45.864672319834234" lon="11.777017938655455"><ele>1388.0</ele><time>2026-05-01T11:49:27Z</time></trkpt><trkpt lat="45.86474286735778" lon="11.776907575847368"><ele>1388.0</ele><time>2026-05-01T11:49:28Z</time></trkpt><trkpt lat="45.86481807001097" lon="11.776792945450975"><ele>1388.0</ele><time>2026-05-01T11:49:29Z</time></trkpt><trkpt lat="45.86489642396113" lon="11.77667777144138"><ele>1388.0</ele><time>2026-05-01T11:49:30Z</time></trkpt><trkpt lat="45.86497842070335" lon="11.776563866247916"><ele>1390.75</ele><time>2026-05-01T11:49:31Z</time></trkpt><trkpt lat="45.86506394491131" lon="11.77644413831992"><ele>1393.5</ele><time>2026-05-01T11:49:32Z</time></trkpt><trkpt lat="45.865155144889776" lon="11.776326858004795"><ele>1396.25</ele><time>2026-05-01T11:49:33Z</time></trkpt><trkpt lat="45.86524636417184" lon="11.776218325314485"><ele>1399.0</ele><time>2026-05-01T11:49:34Z</time></trkpt><trkpt lat="45.86533139485635" lon="11.77610619796364"><ele>1400.0</ele><time>2026-05-01T11:49:35Z</time></trkpt><trkpt lat="45.86541081002511" lon="11.77598934850923"><ele>1401.0</ele><time>2026-05-01T11:49:36Z</time></trkpt><trkpt lat="45.86548842899207" lon="11.775868242925458"><ele>1402.0</ele><time>2026-05-01T11:49:37Z</time></trkpt><trkpt lat="45.865563016362344" lon="11.775743530545189"><ele>1403.0</ele><time>2026-05-01T11:49:38Z</time></trkpt><trkpt lat="45.86564072440077" lon="11.775609886338719"><ele>1403.0</ele><time>2026-05-01T11:49:39Z</time></trkpt><trkpt lat="45.86571796353837" lon="11.775475980318802"><ele>1403.0</ele><time>2026-05-01T11:49:40Z</time></trkpt><trkpt lat="45.86579422713663" lon="11.775352113397076"><ele>1403.0</ele><time>2026-05-01T11:49:41Z</time></trkpt><trkpt lat="45.865866942400906" lon="11.775236519123558"><ele>1403.0</ele><time>2026-05-01T11:49:42Z</time></trkpt><trkpt lat="45.86593441868566" lon="11.775123971082786"><ele>1403.0</ele><time>2026-05-01T11:49:43Z</time></trkpt><trkpt lat="45.86599699129272" lon="11.77501109415935"><ele>1406.0</ele><time>2026-05-01T11:49:44Z</time></trkpt><trkpt lat="45.86605459850511" lon="11.774904173182158"><ele>1409.0</ele><time>2026-05-01T11:49:45Z</time></trkpt><trkpt lat="45.866113360205475" lon="11.774784617474769"><ele>1412.0</ele><time>2026-05-01T11:49:46Z</time></trkpt><trkpt lat="45.866167119494065" lon="11.774651477159315"><ele>1415.0</ele><time>2026-05-01T11:49:47Z</time></trkpt><trkpt lat="45.866218343872006" lon="11.77450858371776"><ele>1418.0</ele><time>2026-05-01T11:49:48Z</time></trkpt><trkpt lat="45.866263525341274" lon="11.774372389097"><ele>1420.0</ele><time>2026-05-01T11:49:49Z</time></trkpt><trkpt lat="45.86630053818056" lon="11.774249731160376"><ele>1422.0</ele><time>2026-05-01T11:49:50Z</time></trkpt><trkpt lat="45.866332780495135" lon="11.77414646218908"><ele>1424.0</ele><time>2026-05-01T11:49:51Z</time></trkpt><trkpt lat="45.86637884005198" lon="11.774061229666662"><ele>1426.0</ele><time>2026-05-01T11:49:52Z</time></trkpt><trkpt lat="45.86645653323855" lon="11.774003816982217"><ele>1428.0</ele><time>2026-05-01T11:49:53Z</time></trkpt><trkpt lat="45.86653683904193" lon="11.774018288969922"><ele>1430.0</ele><time>2026-05-01T11:49:54Z</time></trkpt><trkpt lat="45.86662578458281" lon="11.774126904664524"><ele>1430.0</ele><time>2026-05-01T11:49:55Z</time></trkpt><trkpt lat="45.866722462083594" lon="11.774273946257482"><ele>1430.0</ele><time>2026-05-01T11:49:56Z</time></trkpt><trkpt lat="45.866824355569015" lon="11.774442734672585"><ele>1430.0</ele><time>2026-05-01T11:49:57Z</time></trkpt><trkpt lat="45.86688707478295" lon="11.77461395323161"><ele>1430.0</ele><time>2026-05-01T11:49:58Z</time></trkpt><trkpt lat="45.866934487388164" lon="11.77479507951478"><ele>1436.25</ele><time>2026-05-01T11:49:59Z</time></trkpt><trkpt lat="45.86695623943564" lon="11.774967417420246"><ele>1442.5</ele><time>2026-05-01T11:50:00Z</time></trkpt><trkpt lat="45.86695997656749" lon="11.775163239166194"><ele>1448.75</ele><time>2026-05-01T11:50:00.999Z</time></trkpt><trkpt lat="45.866956063869154" lon="11.775347585438166"><ele>1455.0</ele><time>2026-05-01T11:50:01.999Z</time></trkpt><trkpt lat="45.86695602017087" lon="11.775518888090822"><ele>1455.5</ele><time>2026-05-01T11:50:02.999Z</time></trkpt><trkpt lat="45.86695517297241" lon="11.775699848701407"><ele>1456.0</ele><time>2026-05-01T11:50:03.999Z</time></trkpt><trkpt lat="45.86695076998497" lon="11.775883517543473"><ele>1456.5</ele><time>2026-05-01T11:50:04.999Z</time></trkpt><trkpt lat="45.86694612590874" lon="11.776059695768916"><ele>1457.0</ele><time>2026-05-01T11:50:05.999Z</time></trkpt><trkpt lat="45.866930856425626" lon="11.776236791891698"><ele>1458.0</ele><time>2026-05-01T11:50:06.999Z</time></trkpt><trkpt lat="45.86689801067088" lon="11.776404147279427"><ele>1459.0</ele><time>2026-05-01T11:50:07.999Z</time></trkpt><trkpt lat="45.86685960252198" lon="11.776570970515436"><ele>1460.0</ele><time>2026-05-01T11:50:08.999Z</time></trkpt><trkpt lat="45.86681797882531" lon="11.776742523988059"><ele>1461.0</ele><time>2026-05-01T11:50:09.999Z</time></trkpt><trkpt lat="45.86678080471095" lon="11.776916091376277"><ele>1455.5</ele><time>2026-05-01T11:50:10.999Z</time></trkpt><trkpt lat="45.86675851137508" lon="11.777089942796792"><ele>1450.0</ele><time>2026-05-01T11:50:11.999Z</time></trkpt><trkpt lat="45.86673892454383" lon="11.777258368429898"><ele>1444.5</ele><time>2026-05-01T11:50:12.999Z</time></trkpt><trkpt lat="45.86671823013112" lon="11.777425360240601"><ele>1439.0</ele><time>2026-05-01T11:50:13.999Z</time></trkpt><trkpt lat="45.866686880044945" lon="11.77759477179667"><ele>1440.75</ele><time>2026-05-01T11:50:14.999Z</time></trkpt><trkpt lat="45.86664231977934" lon="11.777763240533016"><ele>1442.5</ele><time>2026-05-01T11:50:15.999Z</time></trkpt><trkpt lat="45.86659823165465" lon="11.777933488713426"><ele>1444.25</ele><time>2026-05-01T11:50:16.999Z</time></trkpt><trkpt lat="45.86656520893699" lon="11.778102615685254"><ele>1446.0</ele><time>2026-05-01T11:50:17.999Z</time></trkpt><trkpt lat="45.86655047473118" lon="11.778281341511779"><ele>1446.0</ele><time>2026-05-01T11:50:18.999Z</time></trkpt><trkpt lat="45.86654714839473" lon="11.778468495625345"><ele>1446.0</ele><time>2026-05-01T11:50:19.999Z</time></trkpt><trkpt lat="45.86654674952236" lon="11.778668033916434"><ele>1446.0</ele><time>2026-05-01T11:50:20.999Z</time></trkpt><trkpt lat="45.866544996151696" lon="11.778850303599333"><ele>1446.0</ele><time>2026-05-01T11:50:21.999Z</time></trkpt><trkpt lat="45.86654060722126" lon="11.779020185098428"><ele>1448.0</ele><time>2026-05-01T11:50:22.999Z</time></trkpt><trkpt lat="45.86653276021843" lon="11.779186588009855"><ele>1450.0</ele><time>2026-05-01T11:50:23.999Z</time></trkpt><trkpt lat="45.866518303670816" lon="11.77935401682662"><ele>1452.0</ele><time>2026-05-01T11:50:24.999Z</time></trkpt><trkpt lat="45.86647566467417" lon="11.779525225462091"><ele>1454.0</ele><time>2026-05-01T11:50:25.999Z</time></trkpt><trkpt lat="45.86641047293214" lon="11.77968105658451"><ele>1456.25</ele><time>2026-05-01T11:50:26.999Z</time></trkpt><trkpt lat="45.866367512069296" lon="11.779825925612897"><ele>1458.5</ele><time>2026-05-01T11:50:27.999Z</time></trkpt><trkpt lat="45.866363978133144" lon="11.77999392254434"><ele>1460.75</ele><time>2026-05-01T11:50:28.999Z</time></trkpt><trkpt lat="45.86638303909971" lon="11.780182115894487"><ele>1463.0</ele><time>2026-05-01T11:50:29.999Z</time></trkpt><trkpt lat="45.86640575739455" lon="11.780340407574096"><ele>1463.4</ele><time>2026-05-01T11:50:30.999Z</time></trkpt><trkpt lat="45.866418827145864" lon="11.7804893289496"><ele>1463.8000000000002</ele><time>2026-05-01T11:50:31.999Z</time></trkpt><trkpt lat="45.86643351264029" lon="11.780644618702263"><ele>1464.2</ele><time>2026-05-01T11:50:33Z</time></trkpt><trkpt lat="45.8664591790491" lon="11.780800581259312"><ele>1464.6</ele><time>2026-05-01T11:50:34Z</time></trkpt><trkpt lat="45.86647753228469" lon="11.780954186866483"><ele>1465.0</ele><time>2026-05-01T11:50:35Z</time></trkpt><trkpt lat="45.866519135227485" lon="11.781098988276637"><ele>1465.0</ele><time>2026-05-01T11:50:36Z</time></trkpt><trkpt lat="45.866564700009036" lon="11.781237307706947"><ele>1465.0</ele><time>2026-05-01T11:50:37Z</time></trkpt><trkpt lat="45.8666176830413" lon="11.78136132351671"><ele>1465.0</ele><time>2026-05-01T11:50:38Z</time></trkpt><trkpt lat="45.86663036958572" lon="11.781507784881809"><ele>1465.0</ele><time>2026-05-01T11:50:39Z</time></trkpt><trkpt lat="45.866594805333484" lon="11.78165327795385"><ele>1465.0</ele><time>2026-05-01T11:50:40Z</time></trkpt><trkpt lat="45.86657633523283" lon="11.781803371039258"><ele>1464.0</ele><time>2026-05-01T11:50:41Z</time></trkpt><trkpt lat="45.8665506572787" lon="11.781916053588741"><ele>1463.0</ele><time>2026-05-01T11:50:42Z</time></trkpt><trkpt lat="45.8665433077471" lon="11.782030314272943"><ele>1462.0</ele><time>2026-05-01T11:50:43Z</time></trkpt><trkpt lat="45.86655423915357" lon="11.782155051721267"><ele>1461.0</ele><time>2026-05-01T11:50:44Z</time></trkpt><trkpt lat="45.86659012846716" lon="11.782284522650803"><ele>1460.0</ele><time>2026-05-01T11:50:45Z</time></trkpt><trkpt lat="45.86664364952168" lon="11.782418177352111"><ele>1460.0</ele><time>2026-05-01T11:50:46Z</time></trkpt><trkpt lat="45.86671940646544" lon="11.782537838463847"><ele>1460.0</ele><time>2026-05-01T11:50:47Z</time></trkpt><trkpt lat="45.86681148198319" lon="11.78262983981257"><ele>1460.0</ele><time>2026-05-01T11:50:48Z</time></trkpt><trkpt lat="45.86690581213432" lon="11.782716296880857"><ele>1460.0</ele><time>2026-05-01T11:50:49Z</time></trkpt><trkpt lat="45.867005694512386" lon="11.782818394463442"><ele>1463.0</ele><time>2026-05-01T11:50:50Z</time></trkpt><trkpt lat="45.867086411951576" lon="11.782908078372612"><ele>1466.0</ele><time>2026-05-01T11:50:51Z</time></trkpt><trkpt lat="45.867163542306145" lon="11.782992434834167"><ele>1469.0</ele><time>2026-05-01T11:50:52Z</time></trkpt><trkpt lat="45.86724885243874" lon="11.783084089222271"><ele>1472.0</ele><time>2026-05-01T11:50:53Z</time></trkpt><trkpt lat="45.86733612735719" lon="11.783178620204323"><ele>1475.0</ele><time>2026-05-01T11:50:54Z</time></trkpt><trkpt lat="45.86742187254906" lon="11.783274703996247"><ele>1475.0</ele><time>2026-05-01T11:50:55Z</time></trkpt><trkpt lat="45.86750547276995" lon="11.783371739543208"><ele>1475.0</ele><time>2026-05-01T11:50:56Z</time></trkpt><trkpt lat="45.86758559956847" lon="11.78346775218214"><ele>1475.0</ele><time>2026-05-01T11:50:57Z</time></trkpt><trkpt lat="45.86765270729407" lon="11.783545218792824"><ele>1475.0</ele><time>2026-05-01T11:50:58Z</time></trkpt><trkpt lat="45.8677107961194" lon="11.783610877893347"><ele>1475.0</ele><time>2026-05-01T11:50:59Z</time></trkpt><trkpt lat="45.86777160725199" lon="11.783679885990422"><ele>1475.0</ele><time>2026-05-01T11:51:00Z</time></trkpt><trkpt lat="45.86782076217093" lon="11.783759120021184"><ele>1475.4</ele><time>2026-05-01T11:51:01Z</time></trkpt><trkpt lat="45.86783721625426" lon="11.78386669004989"><ele>1475.8</ele><time>2026-05-01T11:51:02Z</time></trkpt><trkpt lat="45.86781109848513" lon="11.783988654149084"><ele>1476.1999999999998</ele><time>2026-05-01T11:51:03Z</time></trkpt><trkpt lat="45.86773359699478" lon="11.784099102507446"><ele>1476.6</ele><time>2026-05-01T11:51:04Z</time></trkpt><trkpt lat="45.86765063532698" lon="11.784204737862707"><ele>1477.0</ele><time>2026-05-01T11:51:05Z</time></trkpt><trkpt lat="45.86758154911363" lon="11.784290796065953"><ele>1478.6</ele><time>2026-05-01T11:51:06Z</time></trkpt><trkpt lat="45.867532483329995" lon="11.784391650299952"><ele>1480.1999999999998</ele><time>2026-05-01T11:51:07Z</time></trkpt><trkpt lat="45.8675145976604" lon="11.784527424962906"><ele>1481.8</ele><time>2026-05-01T11:51:08Z</time></trkpt><trkpt lat="45.86752348417321" lon="11.784682337378893"><ele>1483.4</ele><time>2026-05-01T11:51:09Z</time></trkpt><trkpt lat="45.867537796691" lon="11.784837917909385"><ele>1485.0</ele><time>2026-05-01T11:51:10Z</time></trkpt><trkpt lat="45.8675433335845" lon="11.784975725961388"><ele>1485.0</ele><time>2026-05-01T11:51:11Z</time></trkpt><trkpt lat="45.86754754396095" lon="11.78510350265094"><ele>1485.0</ele><time>2026-05-01T11:51:12Z</time></trkpt><trkpt lat="45.86754977229717" lon="11.78522390329307"><ele>1485.0</ele><time>2026-05-01T11:51:13Z</time></trkpt><trkpt lat="45.86754994872468" lon="11.785339659692085"><ele>1485.0</ele><time>2026-05-01T11:51:14Z</time></trkpt><trkpt lat="45.86754358693001" lon="11.785464787863795"><ele>1485.0</ele><time>2026-05-01T11:51:15Z</time></trkpt><trkpt lat="45.86751404335723" lon="11.785601564608863"><ele>1485.0</ele><time>2026-05-01T11:51:16Z</time></trkpt><trkpt lat="45.86744062532698" lon="11.785716313134797"><ele>1487.0</ele><time>2026-05-01T11:51:17Z</time></trkpt><trkpt lat="45.867374464462344" lon="11.785852326207223"><ele>1489.0</ele><time>2026-05-01T11:51:18Z</time></trkpt><trkpt lat="45.8673025240671" lon="11.785976081469157"><ele>1491.0</ele><time>2026-05-01T11:51:19Z</time></trkpt><trkpt lat="45.86725130484825" lon="11.786105045585083"><ele>1493.0</ele><time>2026-05-01T11:51:20Z</time></trkpt><trkpt lat="45.86721617642597" lon="11.786231102833467"><ele>1495.0</ele><time>2026-05-01T11:51:21Z</time></trkpt><trkpt lat="45.86719118194268" lon="11.786356124958772"><ele>1494.5</ele><time>2026-05-01T11:51:22Z</time></trkpt><trkpt lat="45.86718521190183" lon="11.786482303351477"><ele>1494.0</ele><time>2026-05-01T11:51:23Z</time></trkpt><trkpt lat="45.86719216735467" lon="11.786608122070298"><ele>1493.5</ele><time>2026-05-01T11:51:24Z</time></trkpt><trkpt lat="45.86720997261016" lon="11.786728327548563"><ele>1493.0</ele><time>2026-05-01T11:51:25Z</time></trkpt><trkpt lat="45.86722782589469" lon="11.786833946835271"><ele>1492.5</ele><time>2026-05-01T11:51:26Z</time></trkpt><trkpt lat="45.86724966854897" lon="11.78693425733942"><ele>1492.0</ele><time>2026-05-01T11:51:27Z</time></trkpt><trkpt lat="45.867276876278304" lon="11.787037699628796"><ele>1492.0</ele><time>2026-05-01T11:51:28Z</time></trkpt><trkpt lat="45.86732232386314" lon="11.787143224886034"><ele>1492.0</ele><time>2026-05-01T11:51:29Z</time></trkpt><trkpt lat="45.8673905066867" lon="11.787236669444459"><ele>1492.0</ele><time>2026-05-01T11:51:30Z</time></trkpt><trkpt lat="45.86748041998017" lon="11.787298535976344"><ele>1492.0</ele><time>2026-05-01T11:51:31Z</time></trkpt><trkpt lat="45.867580710374355" lon="11.787331632115642"><ele>1492.0</ele><time>2026-05-01T11:51:32Z</time></trkpt><trkpt lat="45.86768376326499" lon="11.787345412609094"><ele>1494.3999999999999</ele><time>2026-05-01T11:51:33Z</time></trkpt><trkpt lat="45.86778835421879" lon="11.787353157848703"><ele>1496.8</ele><time>2026-05-01T11:51:34Z</time></trkpt><trkpt lat="45.867891704028395" lon="11.787366162543899"><ele>1499.2</ele><time>2026-05-01T11:51:35Z</time></trkpt><trkpt lat="45.86799470717287" lon="11.787379562321563"><ele>1501.6</ele><time>2026-05-01T11:51:36Z</time></trkpt><trkpt lat="45.86810086089438" lon="11.787386094842882"><ele>1504.0</ele><time>2026-05-01T11:51:37Z</time></trkpt><trkpt lat="45.86821078861752" lon="11.787395872600584"><ele>1504.0</ele><time>2026-05-01T11:51:38Z</time></trkpt><trkpt lat="45.86832109859663" lon="11.787405042939362"><ele>1504.0</ele><time>2026-05-01T11:51:39Z</time></trkpt><trkpt lat="45.868426907376765" lon="11.787428480682447"><ele>1504.0</ele><time>2026-05-01T11:51:40Z</time></trkpt><trkpt lat="45.86853481709155" lon="11.787493536277543"><ele>1504.0</ele><time>2026-05-01T11:51:41Z</time></trkpt><trkpt lat="45.868622409240814" lon="11.78762977455503"><ele>1508.2</ele><time>2026-05-01T11:51:42Z</time></trkpt><trkpt lat="45.86872438755895" lon="11.787756779646713"><ele>1512.4</ele><time>2026-05-01T11:51:43Z</time></trkpt><trkpt lat="45.868800525161745" lon="11.787869694104176"><ele>1516.6</ele><time>2026-05-01T11:51:44Z</time></trkpt><trkpt lat="45.86886520579262" lon="11.787958526075073"><ele>1520.8</ele><time>2026-05-01T11:51:45Z</time></trkpt><trkpt lat="45.86891964843911" lon="11.788037743214243"><ele>1525.0</ele><time>2026-05-01T11:51:46Z</time></trkpt><trkpt lat="45.868972649430326" lon="11.788112783429296"><ele>1525.0</ele><time>2026-05-01T11:51:47Z</time></trkpt><trkpt lat="45.869022097891225" lon="11.78817962320547"><ele>1525.0</ele><time>2026-05-01T11:51:48Z</time></trkpt><trkpt lat="45.86906672201228" lon="11.788259250267485"><ele>1525.0</ele><time>2026-05-01T11:51:49Z</time></trkpt><trkpt lat="45.86908794161752" lon="11.788361189588205"><ele>1525.0</ele><time>2026-05-01T11:51:50Z</time></trkpt><trkpt lat="45.86908302098347" lon="11.78847696512579"><ele>1525.0</ele><time>2026-05-01T11:51:51Z</time></trkpt><trkpt lat="45.86905098191957" lon="11.788577939852317"><ele>1525.0</ele><time>2026-05-01T11:51:52Z</time></trkpt><trkpt lat="45.86897649136288" lon="11.788645287722572"><ele>1526.3333333333333</ele><time>2026-05-01T11:51:53Z</time></trkpt><trkpt lat="45.868887513927895" lon="11.788696401031995"><ele>1527.6666666666665</ele><time>2026-05-01T11:51:54Z</time></trkpt><trkpt lat="45.86878507084557" lon="11.788677944654665"><ele>1529.0</ele><time>2026-05-01T11:51:55Z</time></trkpt><trkpt lat="45.86869769052623" lon="11.788681286158898"><ele>1530.3333333333333</ele><time>2026-05-01T11:51:56Z</time></trkpt><trkpt lat="45.86861736422283" lon="11.788687793819904"><ele>1531.6666666666667</ele><time>2026-05-01T11:51:57Z</time></trkpt><trkpt lat="45.868541567594384" lon="11.788711981367275"><ele>1533.0</ele><time>2026-05-01T11:51:58Z</time></trkpt><trkpt lat="45.86847692701614" lon="11.788773661319938"><ele>1533.0</ele><time>2026-05-01T11:51:59Z</time></trkpt><trkpt lat="45.86846990765421" lon="11.788898407589388"><ele>1533.0</ele><time>2026-05-01T11:52:00Z</time></trkpt><trkpt lat="45.86849930780947" lon="11.78899184736348"><ele>1533.0</ele><time>2026-05-01T11:52:01Z</time></trkpt><trkpt lat="45.86855298986733" lon="11.789065557663854"><ele>1533.0</ele><time>2026-05-01T11:52:02Z</time></trkpt><trkpt lat="45.868645835445584" lon="11.789020356786946"><ele>1533.0</ele><time>2026-05-01T11:52:03Z</time></trkpt><trkpt lat="45.86873529328955" lon="11.788986655463733"><ele>1533.0</ele><time>2026-05-01T11:52:04Z</time></trkpt><trkpt lat="45.86882467075764" lon="11.788964376142584"><ele>1533.0</ele><time>2026-05-01T11:52:04.999Z</time></trkpt><trkpt lat="45.86890985725168" lon="11.788956113370858"><ele>1533.0</ele><time>2026-05-01T11:52:05.999Z</time></trkpt><trkpt lat="45.86899342883296" lon="11.788962571915537"><ele>1533.0</ele><time>2026-05-01T11:52:06.999Z</time></trkpt><trkpt lat="45.869071220093076" lon="11.78896709839856"><ele>1533.0</ele><time>2026-05-01T11:52:07.999Z</time></trkpt><trkpt lat="45.869194578691484" lon="11.788937025340891"><ele>1533.0</ele><time>2026-05-01T11:52:09.999Z</time></trkpt><trkpt lat="45.869292001363725" lon="11.788830759648993"><ele>1538.8333333333333</ele><time>2026-05-01T11:52:11.999Z</time></trkpt><trkpt lat="45.86931677264829" lon="11.78873875873151"><ele>1544.6666666666665</ele><time>2026-05-01T11:52:12.999Z</time></trkpt><trkpt lat="45.86932905312069" lon="11.788635708267202"><ele>1550.5</ele><time>2026-05-01T11:52:13.999Z</time></trkpt><trkpt lat="45.86933628701026" lon="11.78852215278051"><ele>1556.3333333333333</ele><time>2026-05-01T11:52:14.999Z</time></trkpt><trkpt lat="45.869344277247436" lon="11.788397296696434"><ele>1562.1666666666665</ele><time>2026-05-01T11:52:15.999Z</time></trkpt><trkpt lat="45.86935428051887" lon="11.788263345766351"><ele>1568.0</ele><time>2026-05-01T11:52:16.999Z</time></trkpt><trkpt lat="45.869381167934996" lon="11.788118127901312"><ele>1568.0</ele><time>2026-05-01T11:52:17.999Z</time></trkpt><trkpt lat="45.86938948058561" lon="11.787963334984042"><ele>1568.0</ele><time>2026-05-01T11:52:18.999Z</time></trkpt><trkpt lat="45.869386477196905" lon="11.787807388687742"><ele>1568.0</ele><time>2026-05-01T11:52:19.999Z</time></trkpt><trkpt lat="45.86941059021384" lon="11.78767037737521"><ele>1568.0</ele><time>2026-05-01T11:52:20.999Z</time></trkpt><trkpt lat="45.869447070457696" lon="11.787546327758134"><ele>1568.0</ele><time>2026-05-01T11:52:21.999Z</time></trkpt><trkpt lat="45.869508186121635" lon="11.787440646149927"><ele>1566.8000000000002</ele><time>2026-05-01T11:52:22.999Z</time></trkpt><trkpt lat="45.869555283720686" lon="11.787330944988854"><ele>1565.6</ele><time>2026-05-01T11:52:23.999Z</time></trkpt><trkpt lat="45.869550354999575" lon="11.787180596394789"><ele>1564.4</ele><time>2026-05-01T11:52:24.999Z</time></trkpt><trkpt lat="45.869502525114626" lon="11.787027360987327"><ele>1563.1999999999998</ele><time>2026-05-01T11:52:25.999Z</time></trkpt><trkpt lat="45.869473294831124" lon="11.786899455394238"><ele>1562.0</ele><time>2026-05-01T11:52:26.999Z</time></trkpt><trkpt lat="45.86945321253772" lon="11.786771370610898"><ele>1561.7142857142858</ele><time>2026-05-01T11:52:27.999Z</time></trkpt><trkpt lat="45.86943643419478" lon="11.7866401077657"><ele>1561.4285714285716</ele><time>2026-05-01T11:52:28.999Z</time></trkpt><trkpt lat="45.86942804510643" lon="11.786528987378071"><ele>1561.142857142857</ele><time>2026-05-01T11:52:29.999Z</time></trkpt><trkpt lat="45.86941680537597" lon="11.786430569957064"><ele>1560.857142857143</ele><time>2026-05-01T11:52:30.999Z</time></trkpt><trkpt lat="45.86940119344457" lon="11.786334613153405"><ele>1560.5714285714284</ele><time>2026-05-01T11:52:31.999Z</time></trkpt><trkpt lat="45.869376373946594" lon="11.786244725033177"><ele>1560.2857142857142</ele><time>2026-05-01T11:52:32.999Z</time></trkpt><trkpt lat="45.8693472983863" lon="11.786162212307076"><ele>1560.0</ele><time>2026-05-01T11:52:33.999Z</time></trkpt><trkpt lat="45.869323970445095" lon="11.786038703520019"><ele>1560.0</ele><time>2026-05-01T11:52:35.999Z</time></trkpt><trkpt lat="45.869356751399174" lon="11.785924583320806"><ele>1560.0</ele><time>2026-05-01T11:52:37.999Z</time></trkpt><trkpt lat="45.86944970841515" lon="11.785927044770546"><ele>1560.0</ele><time>2026-05-01T11:52:42Z</time></trkpt><trkpt lat="45.86948831544072" lon="11.786019906190036"><ele>1560.0</ele><time>2026-05-01T11:54:18.999Z</time></trkpt><trkpt lat="45.869508396916224" lon="11.786122559611009"><ele>1560.0</ele><time>2026-05-01T11:54:20.999Z</time></trkpt><trkpt lat="45.869506205571454" lon="11.786295245525325"><ele>1560.0</ele><time>2026-05-01T11:54:22.999Z</time></trkpt><trkpt lat="45.869513453588326" lon="11.786389833957358"><ele>1560.0</ele><time>2026-05-01T11:54:23.999Z</time></trkpt><trkpt lat="45.86953357750579" lon="11.786477844767626"><ele>1560.0</ele><time>2026-05-01T11:54:24.999Z</time></trkpt><trkpt lat="45.86958817582529" lon="11.786634248128165"><ele>1560.0</ele><time>2026-05-01T11:54:26.999Z</time></trkpt><trkpt lat="45.86963204848565" lon="11.786731120162345"><ele>1560.0</ele><time>2026-05-01T11:54:27.999Z</time></trkpt><trkpt lat="45.8696611583125" lon="11.786815603371412"><ele>1560.0</ele><time>2026-05-01T11:54:28.999Z</time></trkpt><trkpt lat="45.86970036049346" lon="11.786907008766732"><ele>1560.0</ele><time>2026-05-01T11:54:29.999Z</time></trkpt><trkpt lat="45.869742721158524" lon="11.787003484794207"><ele>1560.4</ele><time>2026-05-01T11:54:30.999Z</time></trkpt><trkpt lat="45.86979040467156" lon="11.787119321602434"><ele>1560.8</ele><time>2026-05-01T11:54:31.999Z</time></trkpt><trkpt lat="45.86984992252591" lon="11.787253449504732"><ele>1561.1999999999998</ele><time>2026-05-01T11:54:32.999Z</time></trkpt><trkpt lat="45.86989159597059" lon="11.787409800721498"><ele>1561.6</ele><time>2026-05-01T11:54:33.999Z</time></trkpt><trkpt lat="45.86988150242376" lon="11.787569992145864"><ele>1562.0</ele><time>2026-05-01T11:54:34.999Z</time></trkpt><trkpt lat="45.8698927589753" lon="11.78770232586486"><ele>1563.1999999999998</ele><time>2026-05-01T11:54:35.999Z</time></trkpt><trkpt lat="45.869891980794186" lon="11.787826947128202"><ele>1564.4</ele><time>2026-05-01T11:54:36.999Z</time></trkpt><trkpt lat="45.86990702869264" lon="11.787960357315962"><ele>1565.6</ele><time>2026-05-01T11:54:37.999Z</time></trkpt><trkpt lat="45.86990272418206" lon="11.788114421758593"><ele>1566.8000000000002</ele><time>2026-05-01T11:54:38.999Z</time></trkpt><trkpt lat="45.86991683105157" lon="11.788286843716843"><ele>1568.0</ele><time>2026-05-01T11:54:39.999Z</time></trkpt><trkpt lat="45.86994803832566" lon="11.78846797436847"><ele>1568.5</ele><time>2026-05-01T11:54:40.999Z</time></trkpt><trkpt lat="45.869968856050725" lon="11.78864082298352"><ele>1569.0</ele><time>2026-05-01T11:54:41.999Z</time></trkpt><trkpt lat="45.86996666991578" lon="11.788822023415563"><ele>1569.5</ele><time>2026-05-01T11:54:42.999Z</time></trkpt><trkpt lat="45.86999673892828" lon="11.78899726692378"><ele>1570.0</ele><time>2026-05-01T11:54:43.999Z</time></trkpt><trkpt lat="45.869998729381734" lon="11.789179467576202"><ele>1570.0</ele><time>2026-05-01T11:54:45Z</time></trkpt><trkpt lat="45.87000746436546" lon="11.78936122222471"><ele>1570.0</ele><time>2026-05-01T11:54:46Z</time></trkpt><trkpt lat="45.870023645789416" lon="11.789542139027754"><ele>1570.0</ele><time>2026-05-01T11:54:47Z</time></trkpt><trkpt lat="45.87004517587905" lon="11.789727749613538"><ele>1570.0</ele><time>2026-05-01T11:54:48Z</time></trkpt><trkpt lat="45.870073842092914" lon="11.789909276250581"><ele>1570.0</ele><time>2026-05-01T11:54:49Z</time></trkpt><trkpt lat="45.87010562559323" lon="11.790089912812743"><ele>1570.0</ele><time>2026-05-01T11:54:50Z</time></trkpt><trkpt lat="45.870134873386505" lon="11.790265947906647"><ele>1570.0</ele><time>2026-05-01T11:54:51Z</time></trkpt><trkpt lat="45.87016443651316" lon="11.790438513070097"><ele>1570.0</ele><time>2026-05-01T11:54:52Z</time></trkpt><trkpt lat="45.8701969924602" lon="11.790617678870088"><ele>1578.0</ele><time>2026-05-01T11:54:53Z</time></trkpt><trkpt lat="45.87023070517889" lon="11.790796987954305"><ele>1586.0</ele><time>2026-05-01T11:54:54Z</time></trkpt><trkpt lat="45.87025631613503" lon="11.790960952015789"><ele>1594.0</ele><time>2026-05-01T11:54:55Z</time></trkpt><trkpt lat="45.870273742645104" lon="11.791104436204922"><ele>1602.0</ele><time>2026-05-01T11:54:56Z</time></trkpt><trkpt lat="45.870266516897125" lon="11.791248360052924"><ele>1610.0</ele><time>2026-05-01T11:54:57Z</time></trkpt><trkpt lat="45.87022637351158" lon="11.791389954727988"><ele>1610.75</ele><time>2026-05-01T11:54:58Z</time></trkpt><trkpt lat="45.87015908547281" lon="11.791518005345557"><ele>1611.5</ele><time>2026-05-01T11:54:59Z</time></trkpt><trkpt lat="45.870040646428066" lon="11.791578763815195"><ele>1612.25</ele><time>2026-05-01T11:55:00Z</time></trkpt><trkpt lat="45.86990579633748" lon="11.791667704064977"><ele>1613.0</ele><time>2026-05-01T11:55:01Z</time></trkpt><trkpt lat="45.86973608531196" lon="11.791783710743207"><ele>1610.25</ele><time>2026-05-01T11:55:02Z</time></trkpt><trkpt lat="45.86958625701609" lon="11.791902274549301"><ele>1607.5</ele><time>2026-05-01T11:55:03Z</time></trkpt><trkpt lat="45.86945992531563" lon="11.79200917738276"><ele>1604.75</ele><time>2026-05-01T11:55:04Z</time></trkpt><trkpt lat="45.86934904569568" lon="11.792104643613433"><ele>1602.0</ele><time>2026-05-01T11:55:05Z</time></trkpt><trkpt lat="45.86925184178944" lon="11.792188335174586"><ele>1600.25</ele><time>2026-05-01T11:55:06Z</time></trkpt><trkpt lat="45.86914154779839" lon="11.792279678464107"><ele>1598.5</ele><time>2026-05-01T11:55:07Z</time></trkpt><trkpt lat="45.86903271345373" lon="11.792367849545554"><ele>1596.75</ele><time>2026-05-01T11:55:08Z</time></trkpt><trkpt lat="45.868926567485026" lon="11.792453842702066"><ele>1595.0</ele><time>2026-05-01T11:55:09Z</time></trkpt><trkpt lat="45.86882287788353" lon="11.792538655352665"><ele>1595.0</ele><time>2026-05-01T11:55:10Z</time></trkpt><trkpt lat="45.86873807439166" lon="11.792649562911395"><ele>1595.0</ele><time>2026-05-01T11:55:11Z</time></trkpt><trkpt lat="45.86865809786954" lon="11.792742476803426"><ele>1595.0</ele><time>2026-05-01T11:55:12Z</time></trkpt><trkpt lat="45.86859471178546" lon="11.792860151985673"><ele>1595.0</ele><time>2026-05-01T11:55:13Z</time></trkpt><trkpt lat="45.868550998061416" lon="11.793018602888017"><ele>1595.0</ele><time>2026-05-01T11:55:14Z</time></trkpt><trkpt lat="45.86852143383617" lon="11.793211811398427"><ele>1596.6666666666665</ele><time>2026-05-01T11:55:15Z</time></trkpt><trkpt lat="45.86848867793295" lon="11.793424243687085"><ele>1598.3333333333335</ele><time>2026-05-01T11:55:16Z</time></trkpt><trkpt lat="45.86845305208759" lon="11.79364015036079"><ele>1600.0</ele><time>2026-05-01T11:55:17Z</time></trkpt><trkpt lat="45.868416178544074" lon="11.793850129292547"><ele>1600.0</ele><time>2026-05-01T11:55:18Z</time></trkpt><trkpt lat="45.8683928092759" lon="11.794050205199813"><ele>1600.0</ele><time>2026-05-01T11:55:19Z</time></trkpt><trkpt lat="45.86838848778994" lon="11.79425629452774"><ele>1600.0</ele><time>2026-05-01T11:55:20Z</time></trkpt><trkpt lat="45.86839945956888" lon="11.79445031047028"><ele>1600.0</ele><time>2026-05-01T11:55:21Z</time></trkpt><trkpt lat="45.86840715902896" lon="11.794617774495043"><ele>1602.4</ele><time>2026-05-01T11:55:22Z</time></trkpt><trkpt lat="45.868412611903615" lon="11.79475911182244"><ele>1604.8</ele><time>2026-05-01T11:55:23Z</time></trkpt><trkpt lat="45.86841968421725" lon="11.79490925465013"><ele>1607.1999999999998</ele><time>2026-05-01T11:55:24Z</time></trkpt><trkpt lat="45.86842136988659" lon="11.79505272558995"><ele>1609.6</ele><time>2026-05-01T11:55:25Z</time></trkpt><trkpt lat="45.86839186909005" lon="11.795186368307078"><ele>1612.0</ele><time>2026-05-01T11:55:26Z</time></trkpt><trkpt lat="45.86831208290751" lon="11.79528213481751"><ele>1615.75</ele><time>2026-05-01T11:55:27Z</time></trkpt><trkpt lat="45.86822103189396" lon="11.795369019394418"><ele>1619.5</ele><time>2026-05-01T11:55:28Z</time></trkpt><trkpt lat="45.86813165623985" lon="11.795500923631453"><ele>1623.25</ele><time>2026-05-01T11:55:29Z</time></trkpt><trkpt lat="45.86805132517021" lon="11.795648245362909"><ele>1627.0</ele><time>2026-05-01T11:55:30Z</time></trkpt><trkpt lat="45.86799266581287" lon="11.795806803255413"><ele>1627.0</ele><time>2026-05-01T11:55:31Z</time></trkpt><trkpt lat="45.867944108553566" lon="11.79599407403706"><ele>1627.0</ele><time>2026-05-01T11:55:32Z</time></trkpt><trkpt lat="45.86787488187055" lon="11.796183748603994"><ele>1627.0</ele><time>2026-05-01T11:55:33Z</time></trkpt><trkpt lat="45.86775896003015" lon="11.796330355207177"><ele>1627.0</ele><time>2026-05-01T11:55:34Z</time></trkpt><trkpt lat="45.86768834104527" lon="11.796499253065237"><ele>1627.5</ele><time>2026-05-01T11:55:35Z</time></trkpt><trkpt lat="45.86763535982829" lon="11.796699316382648"><ele>1628.0</ele><time>2026-05-01T11:55:36Z</time></trkpt><trkpt lat="45.86759772327741" lon="11.796912407131702"><ele>1628.5</ele><time>2026-05-01T11:55:37Z</time></trkpt><trkpt lat="45.86755995846597" lon="11.797108375196105"><ele>1629.0</ele><time>2026-05-01T11:55:38Z</time></trkpt><trkpt lat="45.8675184032931" lon="11.797292796391323"><ele>1629.0</ele><time>2026-05-01T11:55:39Z</time></trkpt><trkpt lat="45.867477336204175" lon="11.797459070176096"><ele>1629.0</ele><time>2026-05-01T11:55:40Z</time></trkpt><trkpt lat="45.867417304786805" lon="11.797616535232763"><ele>1629.0</ele><time>2026-05-01T11:55:41Z</time></trkpt><trkpt lat="45.867317433319336" lon="11.797750179917214"><ele>1629.0</ele><time>2026-05-01T11:55:42Z</time></trkpt><trkpt lat="45.86719653850048" lon="11.797847571618389"><ele>1633.0</ele><time>2026-05-01T11:55:43Z</time></trkpt><trkpt lat="45.867059778500156" lon="11.797954344686408"><ele>1637.0</ele><time>2026-05-01T11:55:44Z</time></trkpt><trkpt lat="45.866901274101195" lon="11.798041753399787"><ele>1641.0</ele><time>2026-05-01T11:55:45Z</time></trkpt><trkpt lat="45.866773398414765" lon="11.79812872717101"><ele>1641.0</ele><time>2026-05-01T11:55:46Z</time></trkpt><trkpt lat="45.866650319372766" lon="11.798181728040023"><ele>1641.0</ele><time>2026-05-01T11:55:47Z</time></trkpt><trkpt lat="45.86653012595553" lon="11.798255240488905"><ele>1641.0</ele><time>2026-05-01T11:55:48Z</time></trkpt><trkpt lat="45.866399225955405" lon="11.798332536137334"><ele>1641.0</ele><time>2026-05-01T11:55:49Z</time></trkpt><trkpt lat="45.866271201536364" lon="11.79840239632018"><ele>1641.0</ele><time>2026-05-01T11:55:50Z</time></trkpt><trkpt lat="45.866149838736064" lon="11.798479919128049"><ele>1641.0</ele><time>2026-05-01T11:55:51Z</time></trkpt><trkpt lat="45.86603519816296" lon="11.798534116254812"><ele>1641.0</ele><time>2026-05-01T11:55:52Z</time></trkpt><trkpt lat="45.865935493299006" lon="11.798599475632619"><ele>1641.0</ele><time>2026-05-01T11:55:53Z</time></trkpt><trkpt lat="45.86586223943322" lon="11.798685931622188"><ele>1641.8</ele><time>2026-05-01T11:55:54Z</time></trkpt><trkpt lat="45.86580612011007" lon="11.798812287325756"><ele>1642.6</ele><time>2026-05-01T11:55:55Z</time></trkpt><trkpt lat="45.86578965491406" lon="11.79896860215806"><ele>1643.4</ele><time>2026-05-01T11:55:56Z</time></trkpt><trkpt lat="45.86580234170957" lon="11.79913419413331"><ele>1644.2</ele><time>2026-05-01T11:55:57Z</time></trkpt><trkpt lat="45.8658165904253" lon="11.79928301417674"><ele>1645.0</ele><time>2026-05-01T11:55:58Z</time></trkpt><trkpt lat="45.86583076641973" lon="11.799419791288566"><ele>1646.6</ele><time>2026-05-01T11:55:59Z</time></trkpt><trkpt lat="45.86586701459116" lon="11.79953982630392"><ele>1648.2</ele><time>2026-05-01T11:56:00Z</time></trkpt><trkpt lat="45.86592625939881" lon="11.799641230088408"><ele>1649.8000000000002</ele><time>2026-05-01T11:56:01Z</time></trkpt><trkpt lat="45.866012990613854" lon="11.799723246935415"><ele>1651.4</ele><time>2026-05-01T11:56:02Z</time></trkpt><trkpt lat="45.86611468291846" lon="11.799799850247739"><ele>1653.0</ele><time>2026-05-01T11:56:03Z</time></trkpt><trkpt lat="45.86622347886712" lon="11.799872875595707"><ele>1653.0</ele><time>2026-05-01T11:56:04Z</time></trkpt><trkpt lat="45.86634697694943" lon="11.799923052378524"><ele>1653.0</ele><time>2026-05-01T11:56:05Z</time></trkpt><trkpt lat="45.866480287886525" lon="11.79996104517545"><ele>1653.0</ele><time>2026-05-01T11:56:06Z</time></trkpt><trkpt lat="45.86662471416186" lon="11.799972614909086"><ele>1653.0</ele><time>2026-05-01T11:56:07Z</time></trkpt><trkpt lat="45.86679666801664" lon="11.799947984824872"><ele>1656.6666666666665</ele><time>2026-05-01T11:56:08Z</time></trkpt><trkpt lat="45.86698001892243" lon="11.799921325657584"><ele>1660.3333333333333</ele><time>2026-05-01T11:56:09Z</time></trkpt><trkpt lat="45.86715176051309" lon="11.799887327675187"><ele>1664.0</ele><time>2026-05-01T11:56:10Z</time></trkpt><trkpt lat="45.867292712650176" lon="11.799861376547994"><ele>1664.0</ele><time>2026-05-01T11:56:11Z</time></trkpt><trkpt lat="45.867421724671196" lon="11.799850295694242"><ele>1664.0</ele><time>2026-05-01T11:56:12Z</time></trkpt><trkpt lat="45.86754336950792" lon="11.799852791942792"><ele>1664.0</ele><time>2026-05-01T11:56:13Z</time></trkpt><trkpt lat="45.86765468519836" lon="11.799875800848143"><ele>1664.0</ele><time>2026-05-01T11:56:14Z</time></trkpt><trkpt lat="45.867758528891606" lon="11.799918261504613"><ele>1663.0</ele><time>2026-05-01T11:56:14.999Z</time></trkpt><trkpt lat="45.86786285984068" lon="11.799972952483401"><ele>1662.0</ele><time>2026-05-01T11:56:15.999Z</time></trkpt><trkpt lat="45.867964586711196" lon="11.80003488128671"><ele>1661.0</ele><time>2026-05-01T11:56:16.999Z</time></trkpt><trkpt lat="45.86806466635434" lon="11.800100415588707"><ele>1660.0</ele><time>2026-05-01T11:56:17.999Z</time></trkpt><trkpt lat="45.86816288767165" lon="11.80017039499058"><ele>1659.0</ele><time>2026-05-01T11:56:18.999Z</time></trkpt><trkpt lat="45.86825239904544" lon="11.800261183587184"><ele>1659.0</ele><time>2026-05-01T11:56:19.999Z</time></trkpt><trkpt lat="45.868337168339686" lon="11.800365246122269"><ele>1659.0</ele><time>2026-05-01T11:56:20.999Z</time></trkpt><trkpt lat="45.86842202519808" lon="11.800473766810176"><ele>1659.0</ele><time>2026-05-01T11:56:21.999Z</time></trkpt><trkpt lat="45.868503006836285" lon="11.800586411808709"><ele>1659.0</ele><time>2026-05-01T11:56:22.999Z</time></trkpt><trkpt lat="45.868577900457474" lon="11.80069996931711"><ele>1659.0</ele><time>2026-05-01T11:56:23.999Z</time></trkpt><trkpt lat="45.86865018921274" lon="11.80081196562103"><ele>1662.2</ele><time>2026-05-01T11:56:24.999Z</time></trkpt><trkpt lat="45.8687228001164" lon="11.80092379782091"><ele>1665.4</ele><time>2026-05-01T11:56:25.999Z</time></trkpt><trkpt lat="45.868799292321995" lon="11.801028878999267"><ele>1668.6</ele><time>2026-05-01T11:56:26.999Z</time></trkpt><trkpt lat="45.86887836473761" lon="11.801128998250183"><ele>1671.8</ele><time>2026-05-01T11:56:27.999Z</time></trkpt><trkpt lat="45.86895664824337" lon="11.801233081540902"><ele>1675.0</ele><time>2026-05-01T11:56:28.999Z</time></trkpt><trkpt lat="45.86903961417539" lon="11.80133969279791"><ele>1675.0</ele><time>2026-05-01T11:56:29.999Z</time></trkpt><trkpt lat="45.869135471863345" lon="11.801440358136738"><ele>1675.0</ele><time>2026-05-01T11:56:30.999Z</time></trkpt><trkpt lat="45.86923417614465" lon="11.8015430457376"><ele>1675.0</ele><time>2026-05-01T11:56:31.999Z</time></trkpt><trkpt lat="45.86932185576335" lon="11.80164263567736"><ele>1675.0</ele><time>2026-05-01T11:56:32.999Z</time></trkpt><trkpt lat="45.86941337226386" lon="11.80170485974081"><ele>1677.6</ele><time>2026-05-01T11:56:33.999Z</time></trkpt><trkpt lat="45.86951486084987" lon="11.801735585393617"><ele>1680.2</ele><time>2026-05-01T11:56:34.999Z</time></trkpt><trkpt lat="45.86962008829796" lon="11.801737962626836"><ele>1682.8000000000002</ele><time>2026-05-01T11:56:35.999Z</time></trkpt><trkpt lat="45.86973287505653" lon="11.801705106539194"><ele>1685.4</ele><time>2026-05-01T11:56:36.999Z</time></trkpt><trkpt lat="45.869846150695345" lon="11.801656431894862"><ele>1688.0</ele><time>2026-05-01T11:56:37.999Z</time></trkpt><trkpt lat="45.86996340678301" lon="11.80161088669799"><ele>1688.0</ele><time>2026-05-01T11:56:38.999Z</time></trkpt><trkpt lat="45.870085157351404" lon="11.801566595321258"><ele>1688.0</ele><time>2026-05-01T11:56:39.999Z</time></trkpt><trkpt lat="45.87021782064796" lon="11.801517253858258"><ele>1688.0</ele><time>2026-05-01T11:56:40.999Z</time></trkpt><trkpt lat="45.87036158110952" lon="11.801495361252433"><ele>1688.0</ele><time>2026-05-01T11:56:41.999Z</time></trkpt><trkpt lat="45.87050553799115" lon="11.801501817002093"><ele>1688.25</ele><time>2026-05-01T11:56:42.999Z</time></trkpt><trkpt lat="45.87062542879887" lon="11.801522344074737"><ele>1688.5</ele><time>2026-05-01T11:56:43.999Z</time></trkpt><trkpt lat="45.87073681424534" lon="11.801562309156242"><ele>1688.75</ele><time>2026-05-01T11:56:44.999Z</time></trkpt><trkpt lat="45.87085625072545" lon="11.80156725300233"><ele>1689.0</ele><time>2026-05-01T11:56:45.999Z</time></trkpt><trkpt lat="45.87096863510986" lon="11.801516883045899"><ele>1689.0</ele><time>2026-05-01T11:56:46.999Z</time></trkpt><trkpt lat="45.87106783957975" lon="11.801433174681266"><ele>1689.0</ele><time>2026-05-01T11:56:47.999Z</time></trkpt><trkpt lat="45.87116900504928" lon="11.801335387801133"><ele>1689.0</ele><time>2026-05-01T11:56:48.999Z</time></trkpt><trkpt lat="45.8712724615357" lon="11.801246361642345"><ele>1689.0</ele><time>2026-05-01T11:56:49.999Z</time></trkpt><trkpt lat="45.87137196283319" lon="11.801169117751536"><ele>1689.0</ele><time>2026-05-01T11:56:51Z</time></trkpt><trkpt lat="45.871475616333655" lon="11.801111371426396"><ele>1689.0</ele><time>2026-05-01T11:56:52Z</time></trkpt><trkpt lat="45.87160159154414" lon="11.801093450901687"><ele>1689.0</ele><time>2026-05-01T11:56:53Z</time></trkpt><trkpt lat="45.87174168308222" lon="11.801125011652626"><ele>1689.0</ele><time>2026-05-01T11:56:54Z</time></trkpt><trkpt lat="45.87187348889539" lon="11.801165132025444"><ele>1692.8000000000002</ele><time>2026-05-01T11:56:55Z</time></trkpt><trkpt lat="45.871984948022615" lon="11.801200535271777"><ele>1696.6000000000001</ele><time>2026-05-01T11:56:56Z</time></trkpt><trkpt lat="45.872090241738256" lon="11.801230953503552"><ele>1700.4</ele><time>2026-05-01T11:56:57Z</time></trkpt><trkpt lat="45.87218765264168" lon="11.801256947370927"><ele>1704.2</ele><time>2026-05-01T11:56:58Z</time></trkpt><trkpt lat="45.87226602411616" lon="11.801278164421907"><ele>1708.0</ele><time>2026-05-01T11:56:59Z</time></trkpt><trkpt lat="45.87233233099559" lon="11.80129624840811"><ele>1708.0000000000002</ele><time>2026-05-01T11:57:00Z</time></trkpt><trkpt lat="45.872396159338926" lon="11.801317883548167"><ele>1708.0</ele><time>2026-05-01T11:57:01Z</time></trkpt><trkpt lat="45.87248164891927" lon="11.801354553804483"><ele>1708.0</ele><time>2026-05-01T11:57:03Z</time></trkpt><trkpt lat="45.8725552299643" lon="11.801388581501708"><ele>1708.0</ele><time>2026-05-01T11:57:06Z</time></trkpt><trkpt lat="45.87262262528418" lon="11.801419579713855"><ele>1708.0000000000002</ele><time>2026-05-01T11:57:08Z</time></trkpt><trkpt lat="45.872706816522566" lon="11.801490160648527"><ele>1708.0</ele><time>2026-05-01T11:57:10Z</time></trkpt><trkpt lat="45.872780388075725" lon="11.801623334241999"><ele>1710.3333333333335</ele><time>2026-05-01T11:57:12Z</time></trkpt><trkpt lat="45.87282118366607" lon="11.801693614166966"><ele>1712.6666666666667</ele><time>2026-05-01T11:57:13Z</time></trkpt><trkpt lat="45.872894285311546" lon="11.801754927411562"><ele>1715.0</ele><time>2026-05-01T11:57:15Z</time></trkpt><trkpt lat="45.87289086711034" lon="11.801876949081754"><ele>1717.3333333333335</ele><time>2026-05-01T11:57:17Z</time></trkpt><trkpt lat="45.87295570576681" lon="11.801968758805346"><ele>1719.6666666666667</ele><time>2026-05-01T11:57:51Z</time></trkpt><trkpt lat="45.87298657374759" lon="11.802049954555027"><ele>1722.0</ele><time>2026-05-01T11:57:52Z</time></trkpt><trkpt lat="45.873015252800464" lon="11.802157105730124"><ele>1722.0</ele><time>2026-05-01T11:57:53Z</time></trkpt><trkpt lat="45.873039360824485" lon="11.802266031901476"><ele>1722.0</ele><time>2026-05-01T11:57:54Z</time></trkpt><trkpt lat="45.873053844492894" lon="11.802378637909896"><ele>1722.0</ele><time>2026-05-01T11:57:55Z</time></trkpt><trkpt lat="45.8730676406438" lon="11.80249283598745"><ele>1722.0</ele><time>2026-05-01T11:57:56Z</time></trkpt><trkpt lat="45.87307996529653" lon="11.802594367636107"><ele>1722.0</ele><time>2026-05-01T11:57:57Z</time></trkpt><trkpt lat="45.8730866569355" lon="11.802688390784347"><ele>1722.0</ele><time>2026-05-01T11:57:58Z</time></trkpt><trkpt lat="45.87308683921491" lon="11.802834879795869"><ele>1721.5</ele><time>2026-05-01T11:58:00Z</time></trkpt><trkpt lat="45.87309590917795" lon="11.802932348499972"><ele>1721.0</ele><time>2026-05-01T11:58:02Z</time></trkpt><trkpt lat="45.873112386210536" lon="11.803046797368511"><ele>1720.5</ele><time>2026-05-01T11:58:04Z</time></trkpt><trkpt lat="45.87315577762755" lon="11.803188117518909"><ele>1720.0</ele><time>2026-05-01T11:58:06Z</time></trkpt><trkpt lat="45.87319928395158" lon="11.803322328819103"><ele>1719.5</ele><time>2026-05-01T11:58:08Z</time></trkpt><trkpt lat="45.873238544784336" lon="11.803430298543427"><ele>1719.0</ele><time>2026-05-01T11:58:10Z</time></trkpt><trkpt lat="45.87328515117836" lon="11.803533183155196"><ele>1719.0000000000002</ele><time>2026-05-01T11:58:12Z</time></trkpt><trkpt lat="45.873352034923315" lon="11.803610286212404"><ele>1719.0</ele><time>2026-05-01T11:58:14Z</time></trkpt><trkpt lat="45.87342631623856" lon="11.803602266985877"><ele>1719.0</ele><time>2026-05-01T11:58:17Z</time></trkpt><trkpt lat="45.8734767369848" lon="11.80351196941554"><ele>1719.0</ele><time>2026-05-01T11:58:19.999Z</time></trkpt><trkpt lat="45.87340928431824" lon="11.803510254754116"><ele>1719.0</ele><time>2026-05-01T12:03:26Z</time></trkpt><trkpt lat="45.87334241866672" lon="11.803475518897622"><ele>1719.0000000000002</ele><time>2026-05-01T12:03:35Z</time></trkpt><trkpt lat="45.87329627587939" lon="11.803408729448558"><ele>1719.0</ele><time>2026-05-01T12:03:45Z</time></trkpt><trkpt lat="45.87326659732701" lon="11.803321358292598"><ele>1719.0</ele><time>2026-05-01T12:03:58Z</time></trkpt><trkpt lat="45.87326847885462" lon="11.803229858644015"><ele>1719.0</ele><time>2026-05-01T12:04:06Z</time></trkpt><trkpt lat="45.87324011268737" lon="11.80313783648509"><ele>1719.0</ele><time>2026-05-01T12:05:00.999Z</time></trkpt><trkpt lat="45.87322916455723" lon="11.80303876607764"><ele>1719.0</ele><time>2026-05-01T12:05:07.999Z</time></trkpt><trkpt lat="45.8732721026623" lon="11.80296244462272"><ele>1719.0</ele><time>2026-05-01T12:05:31Z</time></trkpt><trkpt lat="45.873292089745036" lon="11.803121237015826"><ele>1719.0</ele><time>2026-05-01T12:05:48Z</time></trkpt><trkpt lat="45.87328242873946" lon="11.803251813446431"><ele>1719.0</ele><time>2026-05-01T12:06:03.078Z</time></trkpt><trkpt lat="45.87330041535286" lon="11.803159227876122"><ele>1719.0</ele><time>2026-05-01T12:07:17.035Z</time></trkpt><trkpt lat="45.87331357080671" lon="11.802969914814971"><ele>1719.0</ele><time>2026-05-01T12:08:22.414Z</time></trkpt><trkpt lat="45.87323525934542" lon="11.803023332852426"><ele>1719.0</ele><time>2026-05-01T12:15:51.995Z</time></trkpt><trkpt lat="45.873214642313144" lon="11.803110334077747"><ele>1719.0</ele><time>2026-05-01T12:16:00Z</time></trkpt><trkpt lat="45.87328553736784" lon="11.803163731540915"><ele>1719.0</ele><time>2026-05-01T12:18:55Z</time></trkpt><trkpt lat="45.87329890041738" lon="11.803262283173046"><ele>1719.0000000000002</ele><time>2026-05-01T13:09:49Z</time></trkpt><trkpt lat="45.87330707558242" lon="11.803355610140267"><ele>1719.0</ele><time>2026-05-01T13:09:57Z</time></trkpt><trkpt lat="45.8733525455549" lon="11.803418306035324"><ele>1719.0</ele><time>2026-05-01T13:10:05.999Z</time></trkpt><trkpt lat="45.873397946398406" lon="11.803485027344323"><ele>1719.0</ele><time>2026-05-01T13:10:14.999Z</time></trkpt><trkpt lat="45.873457132072254" lon="11.803520075498474"><ele>1719.0</ele><time>2026-05-01T13:10:25Z</time></trkpt><trkpt lat="45.87340186008501" lon="11.803596477972144"><ele>1719.0000000000002</ele><time>2026-05-01T13:15:20Z</time></trkpt><trkpt lat="45.873350967647205" lon="11.803538360743232"><ele>1719.0</ele><time>2026-05-01T13:15:24Z</time></trkpt><trkpt lat="45.873277290149346" lon="11.803488452016863"><ele>1719.0</ele><time>2026-05-01T13:16:29.999Z</time></trkpt><trkpt lat="45.873220824403184" lon="11.803379557468803"><ele>1719.0</ele><time>2026-05-01T13:16:31.999Z</time></trkpt><trkpt lat="45.87318624302568" lon="11.80325238287056"><ele>1719.0</ele><time>2026-05-01T13:16:33.999Z</time></trkpt><trkpt lat="45.87315557139978" lon="11.803140186934954"><ele>1719.0</ele><time>2026-05-01T13:16:35.999Z</time></trkpt><trkpt lat="45.873122819255485" lon="11.803024209565253"><ele>1719.0</ele><time>2026-05-01T13:16:37.999Z</time></trkpt><trkpt lat="45.873102013293" lon="11.802895490797077"><ele>1719.0</ele><time>2026-05-01T13:16:39.999Z</time></trkpt><trkpt lat="45.87309282640766" lon="11.802759433130932"><ele>1719.0</ele><time>2026-05-01T13:16:41.999Z</time></trkpt><trkpt lat="45.87308354116888" lon="11.80260876311109"><ele>1719.0</ele><time>2026-05-01T13:16:44Z</time></trkpt><trkpt lat="45.8730667160241" lon="11.802455852314948"><ele>1719.0</ele><time>2026-05-01T13:16:46Z</time></trkpt><trkpt lat="45.873042328102464" lon="11.802296264131426"><ele>1719.0</ele><time>2026-05-01T13:16:48Z</time></trkpt><trkpt lat="45.873018070596835" lon="11.802136751451446"><ele>1719.6</ele><time>2026-05-01T13:16:50Z</time></trkpt><trkpt lat="45.87297478987848" lon="11.801978362568748"><ele>1720.2</ele><time>2026-05-01T13:16:52Z</time></trkpt><trkpt lat="45.87292096123332" lon="11.801789132758506"><ele>1720.7999999999997</ele><time>2026-05-01T13:16:54Z</time></trkpt><trkpt lat="45.87287470221041" lon="11.801688127056162"><ele>1721.3999999999999</ele><time>2026-05-01T13:16:55Z</time></trkpt><trkpt lat="45.872814010379805" lon="11.801584786404222"><ele>1722.0</ele><time>2026-05-01T13:16:56Z</time></trkpt><trkpt lat="45.872730885345746" lon="11.801503156389296"><ele>1722.8</ele><time>2026-05-01T13:16:57Z</time></trkpt><trkpt lat="45.87265548124816" lon="11.801411672543527"><ele>1723.6</ele><time>2026-05-01T13:16:58Z</time></trkpt><trkpt lat="45.87256845520411" lon="11.801342662445698"><ele>1724.3999999999999</ele><time>2026-05-01T13:16:59Z</time></trkpt><trkpt lat="45.87246716978809" lon="11.80129470655719"><ele>1725.1999999999998</ele><time>2026-05-01T13:17:00Z</time></trkpt><trkpt lat="45.87235800583492" lon="11.801261664920775"><ele>1726.0</ele><time>2026-05-01T13:17:01Z</time></trkpt><trkpt lat="45.87225536332082" lon="11.80121576567966"><ele>1722.4</ele><time>2026-05-01T13:17:02Z</time></trkpt><trkpt lat="45.872153204862904" lon="11.801189421349383"><ele>1718.8</ele><time>2026-05-01T13:17:03Z</time></trkpt><trkpt lat="45.872053481336394" lon="11.801165523289576"><ele>1715.2000000000003</ele><time>2026-05-01T13:17:04Z</time></trkpt><trkpt lat="45.8719544203405" lon="11.801138824860168"><ele>1711.6000000000001</ele><time>2026-05-01T13:17:05Z</time></trkpt><trkpt lat="45.87185474674263" lon="11.801109956859252"><ele>1708.0</ele><time>2026-05-01T13:17:06Z</time></trkpt><trkpt lat="45.8717545390192" lon="11.801083231831782"><ele>1703.25</ele><time>2026-05-01T13:17:07Z</time></trkpt><trkpt lat="45.87165193860338" lon="11.801059280739388"><ele>1698.5</ele><time>2026-05-01T13:17:08Z</time></trkpt><trkpt lat="45.87154427494488" lon="11.801044365663765"><ele>1693.75</ele><time>2026-05-01T13:17:09Z</time></trkpt><trkpt lat="45.8714217156284" lon="11.80107683852974"><ele>1689.0</ele><time>2026-05-01T13:17:10Z</time></trkpt><trkpt lat="45.871305245437455" lon="11.801182622302875"><ele>1689.0</ele><time>2026-05-01T13:17:11Z</time></trkpt><trkpt lat="45.87118928558952" lon="11.80128668493738"><ele>1689.0</ele><time>2026-05-01T13:17:12Z</time></trkpt><trkpt lat="45.87107631420289" lon="11.801361004272122"><ele>1689.0</ele><time>2026-05-01T13:17:13Z</time></trkpt><trkpt lat="45.870983333452294" lon="11.801438693273631"><ele>1689.0</ele><time>2026-05-01T13:17:14Z</time></trkpt><trkpt lat="45.87089853692584" lon="11.801509472997466"><ele>1689.4</ele><time>2026-05-01T13:17:15Z</time></trkpt><trkpt lat="45.8708024123128" lon="11.801493578487953"><ele>1689.8000000000002</ele><time>2026-05-01T13:17:16Z</time></trkpt><trkpt lat="45.87069982994994" lon="11.801492979588156"><ele>1690.1999999999998</ele><time>2026-05-01T13:17:17Z</time></trkpt><trkpt lat="45.870590141740465" lon="11.801460127375359"><ele>1690.6</ele><time>2026-05-01T13:17:18Z</time></trkpt><trkpt lat="45.87047356179885" lon="11.801449224863076"><ele>1691.0</ele><time>2026-05-01T13:17:19Z</time></trkpt><trkpt lat="45.870358221621125" lon="11.80145930976126"><ele>1691.0</ele><time>2026-05-01T13:17:20Z</time></trkpt><trkpt lat="45.87024433459492" lon="11.801483225389292"><ele>1691.0</ele><time>2026-05-01T13:17:21Z</time></trkpt><trkpt lat="45.870126070060806" lon="11.801514165115885"><ele>1691.0</ele><time>2026-05-01T13:17:22Z</time></trkpt><trkpt lat="45.87000258426766" lon="11.801554698649788"><ele>1691.0</ele><time>2026-05-01T13:17:23Z</time></trkpt><trkpt lat="45.86987945088845" lon="11.80160198366759"><ele>1690.4</ele><time>2026-05-01T13:17:24Z</time></trkpt><trkpt lat="45.86976788520821" lon="11.801648266105941"><ele>1689.8</ele><time>2026-05-01T13:17:25Z</time></trkpt><trkpt lat="45.86966428880068" lon="11.80165739213026"><ele>1689.2</ele><time>2026-05-01T13:17:26Z</time></trkpt><trkpt lat="45.869561796686554" lon="11.801676013300664"><ele>1688.6000000000001</ele><time>2026-05-01T13:17:27Z</time></trkpt><trkpt lat="45.86945541668786" lon="11.801675997666825"><ele>1688.0</ele><time>2026-05-01T13:17:28Z</time></trkpt><trkpt lat="45.869348937327516" lon="11.801618908019169"><ele>1684.75</ele><time>2026-05-01T13:17:29Z</time></trkpt><trkpt lat="45.86924928840035" lon="11.801533425662022"><ele>1681.5</ele><time>2026-05-01T13:17:30Z</time></trkpt><trkpt lat="45.869154203573395" lon="11.801432586749426"><ele>1678.25</ele><time>2026-05-01T13:17:31Z</time></trkpt><trkpt lat="45.86906079352931" lon="11.801318125813912"><ele>1675.0</ele><time>2026-05-01T13:17:32Z</time></trkpt><trkpt lat="45.86896643597657" lon="11.801198635381542"><ele>1675.0</ele><time>2026-05-01T13:17:33Z</time></trkpt><trkpt lat="45.868873265660035" lon="11.801079470772487"><ele>1675.0</ele><time>2026-05-01T13:17:34Z</time></trkpt><trkpt lat="45.868786077052" lon="11.800963136020197"><ele>1675.0</ele><time>2026-05-01T13:17:35Z</time></trkpt><trkpt lat="45.86870041623212" lon="11.800842262900707"><ele>1675.0</ele><time>2026-05-01T13:17:36Z</time></trkpt><trkpt lat="45.86861960283897" lon="11.80071643821275"><ele>1671.0</ele><time>2026-05-01T13:17:37Z</time></trkpt><trkpt lat="45.86854052215899" lon="11.800594228696024"><ele>1667.0</ele><time>2026-05-01T13:17:38Z</time></trkpt><trkpt lat="45.868458805783554" lon="11.800479176982618"><ele>1663.0</ele><time>2026-05-01T13:17:39Z</time></trkpt><trkpt lat="45.868369469431606" lon="11.8003636227883"><ele>1659.0</ele><time>2026-05-01T13:17:40Z</time></trkpt><trkpt lat="45.86826950415957" lon="11.80025133059396"><ele>1664.75</ele><time>2026-05-01T13:17:41Z</time></trkpt><trkpt lat="45.86816156918627" lon="11.800147085007058"><ele>1670.5</ele><time>2026-05-01T13:17:42Z</time></trkpt><trkpt lat="45.86804775437321" lon="11.800055682866443"><ele>1676.25</ele><time>2026-05-01T13:17:43Z</time></trkpt><trkpt lat="45.86792980091342" lon="11.79997255484826"><ele>1682.0</ele><time>2026-05-01T13:17:44Z</time></trkpt><trkpt lat="45.86781082991923" lon="11.799896764277984"><ele>1682.0</ele><time>2026-05-01T13:17:45Z</time></trkpt><trkpt lat="45.86768936175863" lon="11.799836358797723"><ele>1682.0</ele><time>2026-05-01T13:17:46Z</time></trkpt><trkpt lat="45.867560697303055" lon="11.799808357358305"><ele>1682.0</ele><time>2026-05-01T13:17:47Z</time></trkpt><trkpt lat="45.86742495193678" lon="11.799807236603307"><ele>1682.0</ele><time>2026-05-01T13:17:48Z</time></trkpt><trkpt lat="45.867287584231796" lon="11.799824435716108"><ele>1677.5</ele><time>2026-05-01T13:17:49Z</time></trkpt><trkpt lat="45.867153212487956" lon="11.79982676003831"><ele>1673.0</ele><time>2026-05-01T13:17:50Z</time></trkpt><trkpt lat="45.867033833556206" lon="11.799847160753053"><ele>1668.5</ele><time>2026-05-01T13:17:51Z</time></trkpt><trkpt lat="45.86692132739054" lon="11.799866037292723"><ele>1664.0</ele><time>2026-05-01T13:17:52Z</time></trkpt><trkpt lat="45.86680575656048" lon="11.799885450319229"><ele>1661.25</ele><time>2026-05-01T13:17:53Z</time></trkpt><trkpt lat="45.86668692434345" lon="11.79992215665034"><ele>1658.5</ele><time>2026-05-01T13:17:54Z</time></trkpt><trkpt lat="45.86656730223979" lon="11.79989617198107"><ele>1655.75</ele><time>2026-05-01T13:17:55Z</time></trkpt><trkpt lat="45.86644567925047" lon="11.799881697026349"><ele>1653.0</ele><time>2026-05-01T13:17:56Z</time></trkpt><trkpt lat="45.86632174939237" lon="11.79987500013107"><ele>1653.0</ele><time>2026-05-01T13:17:57Z</time></trkpt><trkpt lat="45.866202098921256" lon="11.799809853601118"><ele>1653.0</ele><time>2026-05-01T13:17:58Z</time></trkpt><trkpt lat="45.8660929585466" lon="11.799728973088971"><ele>1653.0</ele><time>2026-05-01T13:17:59Z</time></trkpt><trkpt lat="45.8659977546235" lon="11.799647183620708"><ele>1653.0</ele><time>2026-05-01T13:18:00Z</time></trkpt><trkpt lat="45.86592119928996" lon="11.799547408268971"><ele>1651.4</ele><time>2026-05-01T13:18:01Z</time></trkpt><trkpt lat="45.86586355502414" lon="11.799395529546453"><ele>1649.8000000000002</ele><time>2026-05-01T13:18:02Z</time></trkpt><trkpt lat="45.86583481264915" lon="11.799226575855414"><ele>1648.2</ele><time>2026-05-01T13:18:03Z</time></trkpt><trkpt lat="45.8658207626411" lon="11.79907653109027"><ele>1646.6</ele><time>2026-05-01T13:18:04Z</time></trkpt><trkpt lat="45.865817887752826" lon="11.798937959609411"><ele>1645.0</ele><time>2026-05-01T13:18:05Z</time></trkpt><trkpt lat="45.865836632576496" lon="11.798804258446703"><ele>1645.0</ele><time>2026-05-01T13:18:06Z</time></trkpt><trkpt lat="45.86589176905956" lon="11.798689706245186"><ele>1645.0</ele><time>2026-05-01T13:18:07Z</time></trkpt><trkpt lat="45.86598011552424" lon="11.798601961479214"><ele>1645.0</ele><time>2026-05-01T13:18:08Z</time></trkpt><trkpt lat="45.86609473661094" lon="11.798534155915394"><ele>1645.0</ele><time>2026-05-01T13:18:09Z</time></trkpt><trkpt lat="45.866211693883486" lon="11.798484656555166"><ele>1644.0</ele><time>2026-05-01T13:18:10Z</time></trkpt><trkpt lat="45.8663127751146" lon="11.79843654680811"><ele>1643.0</ele><time>2026-05-01T13:18:11Z</time></trkpt><trkpt lat="45.86641768932049" lon="11.798379589387087"><ele>1642.0</ele><time>2026-05-01T13:18:12Z</time></trkpt><trkpt lat="45.866526068106296" lon="11.798310608300817"><ele>1641.0</ele><time>2026-05-01T13:18:13Z</time></trkpt><trkpt lat="45.866636466477004" lon="11.798235404330672"><ele>1641.0</ele><time>2026-05-01T13:18:14Z</time></trkpt><trkpt lat="45.86675008641054" lon="11.798159714152076"><ele>1641.0</ele><time>2026-05-01T13:18:15Z</time></trkpt><trkpt lat="45.866868356670764" lon="11.798087764041776"><ele>1641.0</ele><time>2026-05-01T13:18:16Z</time></trkpt><trkpt lat="45.86698705692675" lon="11.798018382831904"><ele>1641.0</ele><time>2026-05-01T13:18:17Z</time></trkpt><trkpt lat="45.86710679898399" lon="11.797948690534524"><ele>1638.0</ele><time>2026-05-01T13:18:18Z</time></trkpt><trkpt lat="45.86721993284402" lon="11.79787489420993"><ele>1635.0</ele><time>2026-05-01T13:18:18.999Z</time></trkpt><trkpt lat="45.867322071783754" lon="11.797791504995294"><ele>1632.0</ele><time>2026-05-01T13:18:19.999Z</time></trkpt><trkpt lat="45.867415269088795" lon="11.797676070562297"><ele>1629.0</ele><time>2026-05-01T13:18:20.999Z</time></trkpt><trkpt lat="45.86748366797492" lon="11.797512674013287"><ele>1629.0</ele><time>2026-05-01T13:18:21.999Z</time></trkpt><trkpt lat="45.86752994092365" lon="11.797305322477573"><ele>1629.0</ele><time>2026-05-01T13:18:22.999Z</time></trkpt><trkpt lat="45.86758929177997" lon="11.79709039036265"><ele>1629.0</ele><time>2026-05-01T13:18:23.999Z</time></trkpt><trkpt lat="45.867625748122315" lon="11.796890329956627"><ele>1629.25</ele><time>2026-05-01T13:18:24.999Z</time></trkpt><trkpt lat="45.867661853958396" lon="11.796708895793317"><ele>1629.5</ele><time>2026-05-01T13:18:25.999Z</time></trkpt><trkpt lat="45.86768822569924" lon="11.796528284451771"><ele>1629.75</ele><time>2026-05-01T13:18:26.999Z</time></trkpt><trkpt lat="45.867760821971075" lon="11.796363453135802"><ele>1630.0</ele><time>2026-05-01T13:18:27.999Z</time></trkpt><trkpt lat="45.86785397521592" lon="11.796233594315519"><ele>1630.0</ele><time>2026-05-01T13:18:28.999Z</time></trkpt><trkpt lat="45.86793674383157" lon="11.796102059970448"><ele>1630.0</ele><time>2026-05-01T13:18:29.999Z</time></trkpt><trkpt lat="45.867988224658994" lon="11.795924097749388"><ele>1630.0</ele><time>2026-05-01T13:18:30.999Z</time></trkpt><trkpt lat="45.86804583705378" lon="11.795749535526967"><ele>1630.0</ele><time>2026-05-01T13:18:31.999Z</time></trkpt><trkpt lat="45.86808617526589" lon="11.795591672055496"><ele>1629.4</ele><time>2026-05-01T13:18:32.999Z</time></trkpt><trkpt lat="45.86817106096927" lon="11.795486012273678"><ele>1628.8</ele><time>2026-05-01T13:18:33.999Z</time></trkpt><trkpt lat="45.868243647514795" lon="11.795383096751399"><ele>1628.1999999999998</ele><time>2026-05-01T13:18:34.999Z</time></trkpt><trkpt lat="45.86833278132782" lon="11.795296449576776"><ele>1627.6</ele><time>2026-05-01T13:18:35.999Z</time></trkpt><trkpt lat="45.86840058371037" lon="11.795174144405388"><ele>1627.0</ele><time>2026-05-01T13:18:36.999Z</time></trkpt><trkpt lat="45.8684541247042" lon="11.795030465175262"><ele>1628.8</ele><time>2026-05-01T13:18:37.999Z</time></trkpt><trkpt lat="45.86843626847155" lon="11.794874280484464"><ele>1630.6</ele><time>2026-05-01T13:18:38.999Z</time></trkpt><trkpt lat="45.86844368078794" lon="11.79472538854061"><ele>1632.3999999999999</ele><time>2026-05-01T13:18:39.999Z</time></trkpt><trkpt lat="45.86843528881807" lon="11.794581600333961"><ele>1634.1999999999998</ele><time>2026-05-01T13:18:40.999Z</time></trkpt><trkpt lat="45.86842831099028" lon="11.794437059552925"><ele>1636.0</ele><time>2026-05-01T13:18:41.999Z</time></trkpt><trkpt lat="45.86842317181127" lon="11.794300566387903"><ele>1633.1999999999998</ele><time>2026-05-01T13:18:42.999Z</time></trkpt><trkpt lat="45.868422937456664" lon="11.79416913820692"><ele>1630.3999999999999</ele><time>2026-05-01T13:18:43.999Z</time></trkpt><trkpt lat="45.868426596888504" lon="11.794027822871676"><ele>1627.6</ele><time>2026-05-01T13:18:44.999Z</time></trkpt><trkpt lat="45.868440180804335" lon="11.793873400070375"><ele>1624.8</ele><time>2026-05-01T13:18:45.999Z</time></trkpt><trkpt lat="45.868462876118784" lon="11.793721304849033"><ele>1622.0</ele><time>2026-05-01T13:18:46.999Z</time></trkpt><trkpt lat="45.86848674533157" lon="11.793576151717078"><ele>1619.3999999999999</ele><time>2026-05-01T13:18:47.999Z</time></trkpt><trkpt lat="45.86849491356769" lon="11.793433526137617"><ele>1616.8</ele><time>2026-05-01T13:18:49Z</time></trkpt><trkpt lat="45.868516944189835" lon="11.793302496934814"><ele>1614.2</ele><time>2026-05-01T13:18:50Z</time></trkpt><trkpt lat="45.86853434602773" lon="11.793176186899256"><ele>1611.6</ele><time>2026-05-01T13:18:51Z</time></trkpt><trkpt lat="45.868555386238825" lon="11.793044437577208"><ele>1609.0</ele><time>2026-05-01T13:18:52Z</time></trkpt><trkpt lat="45.868590657354666" lon="11.792906063363027"><ele>1609.0</ele><time>2026-05-01T13:18:53Z</time></trkpt><trkpt lat="45.86864651054076" lon="11.792778270037449"><ele>1609.0</ele><time>2026-05-01T13:18:54Z</time></trkpt><trkpt lat="45.86873996342338" lon="11.792678722587945"><ele>1609.0</ele><time>2026-05-01T13:18:55Z</time></trkpt><trkpt lat="45.86884073614604" lon="11.792564607034185"><ele>1609.0</ele><time>2026-05-01T13:18:56Z</time></trkpt><trkpt lat="45.86896281747081" lon="11.792469916156689"><ele>1607.25</ele><time>2026-05-01T13:18:57Z</time></trkpt><trkpt lat="45.869084732028576" lon="11.79237081001733"><ele>1605.5</ele><time>2026-05-01T13:18:58Z</time></trkpt><trkpt lat="45.86920901890606" lon="11.792271950347802"><ele>1603.75</ele><time>2026-05-01T13:18:59Z</time></trkpt><trkpt lat="45.8693277574403" lon="11.792170093822037"><ele>1602.0</ele><time>2026-05-01T13:19:00Z</time></trkpt><trkpt lat="45.869435135363624" lon="11.792077028731784"><ele>1602.0</ele><time>2026-05-01T13:19:01Z</time></trkpt><trkpt lat="45.86953481615355" lon="11.791993051518967"><ele>1602.0</ele><time>2026-05-01T13:19:02Z</time></trkpt><trkpt lat="45.869628327002786" lon="11.791915616560281"><ele>1602.0</ele><time>2026-05-01T13:19:03Z</time></trkpt><trkpt lat="45.86971868101748" lon="11.791843683505027"><ele>1602.0</ele><time>2026-05-01T13:19:04Z</time></trkpt><trkpt lat="45.86981236810383" lon="11.791765701066762"><ele>1602.0</ele><time>2026-05-01T13:19:05Z</time></trkpt><trkpt lat="45.869911690326845" lon="11.791695760623623"><ele>1604.1999999999998</ele><time>2026-05-01T13:19:06Z</time></trkpt><trkpt lat="45.870007055087406" lon="11.791636058821478"><ele>1606.4</ele><time>2026-05-01T13:19:07Z</time></trkpt><trkpt lat="45.87009566930175" lon="11.79158147062016"><ele>1608.6</ele><time>2026-05-01T13:19:08Z</time></trkpt><trkpt lat="45.87017467947284" lon="11.791494794757082"><ele>1610.8000000000002</ele><time>2026-05-01T13:19:09Z</time></trkpt><trkpt lat="45.870257314282966" lon="11.79137699801359"><ele>1613.0</ele><time>2026-05-01T13:19:10Z</time></trkpt><trkpt lat="45.8703029640892" lon="11.791196110872605"><ele>1612.25</ele><time>2026-05-01T13:19:11Z</time></trkpt><trkpt lat="45.87029697506122" lon="11.790980284339863"><ele>1611.5</ele><time>2026-05-01T13:19:12Z</time></trkpt><trkpt lat="45.87026246159279" lon="11.790762979200496"><ele>1610.75</ele><time>2026-05-01T13:19:13Z</time></trkpt><trkpt lat="45.870229236268315" lon="11.79057249322516"><ele>1610.0</ele><time>2026-05-01T13:19:14Z</time></trkpt><trkpt lat="45.87019470513867" lon="11.7903859309997"><ele>1610.0</ele><time>2026-05-01T13:19:15Z</time></trkpt><trkpt lat="45.87016103522333" lon="11.790200406063454"><ele>1610.0</ele><time>2026-05-01T13:19:16Z</time></trkpt><trkpt lat="45.870128740741016" lon="11.79001429702506"><ele>1610.0</ele><time>2026-05-01T13:19:17Z</time></trkpt><trkpt lat="45.870098817092796" lon="11.789826880982464"><ele>1610.0</ele><time>2026-05-01T13:19:18Z</time></trkpt><trkpt lat="45.870070719468416" lon="11.789635964606957"><ele>1596.6666666666665</ele><time>2026-05-01T13:19:19Z</time></trkpt><trkpt lat="45.870049944242716" lon="11.789431690028094"><ele>1583.3333333333335</ele><time>2026-05-01T13:19:20Z</time></trkpt><trkpt lat="45.87003133372345" lon="11.78921257348048"><ele>1570.0</ele><time>2026-05-01T13:19:21Z</time></trkpt><trkpt lat="45.87001391240632" lon="11.788994267632624"><ele>1570.0</ele><time>2026-05-01T13:19:22Z</time></trkpt><trkpt lat="45.86999703516813" lon="11.788782779638678"><ele>1570.0</ele><time>2026-05-01T13:19:23Z</time></trkpt><trkpt lat="45.86997872057326" lon="11.788571679028061"><ele>1570.0</ele><time>2026-05-01T13:19:24Z</time></trkpt><trkpt lat="45.86995796852504" lon="11.788367104291346"><ele>1570.0</ele><time>2026-05-01T13:19:25Z</time></trkpt><trkpt lat="45.86993980124297" lon="11.78816642719628"><ele>1569.5</ele><time>2026-05-01T13:19:26Z</time></trkpt><trkpt lat="45.869927790167665" lon="11.787975443578102"><ele>1569.0</ele><time>2026-05-01T13:19:27Z</time></trkpt><trkpt lat="45.86992156242779" lon="11.787805523238179"><ele>1568.5</ele><time>2026-05-01T13:19:28Z</time></trkpt><trkpt lat="45.86991752701999" lon="11.787645559991022"><ele>1568.0</ele><time>2026-05-01T13:19:29Z</time></trkpt><trkpt lat="45.8699121533365" lon="11.787496717682052"><ele>1566.8000000000002</ele><time>2026-05-01T13:19:30Z</time></trkpt><trkpt lat="45.869886759101746" lon="11.78734822750078"><ele>1565.6</ele><time>2026-05-01T13:19:31Z</time></trkpt><trkpt lat="45.86985454829169" lon="11.78720569126572"><ele>1564.4</ele><time>2026-05-01T13:19:32Z</time></trkpt><trkpt lat="45.86980346083679" lon="11.787073734126013"><ele>1563.1999999999998</ele><time>2026-05-01T13:19:33Z</time></trkpt><trkpt lat="45.86974331493087" lon="11.786949549126069"><ele>1562.0</ele><time>2026-05-01T13:19:34Z</time></trkpt><trkpt lat="45.869690245889984" lon="11.78683100843863"><ele>1561.6666666666665</ele><time>2026-05-01T13:19:35Z</time></trkpt><trkpt lat="45.86964532242893" lon="11.786714057054033"><ele>1561.3333333333333</ele><time>2026-05-01T13:19:36Z</time></trkpt><trkpt lat="45.86960472188202" lon="11.786600726435275"><ele>1561.0</ele><time>2026-05-01T13:19:37Z</time></trkpt><trkpt lat="45.869570879249764" lon="11.786489789414231"><ele>1560.6666666666665</ele><time>2026-05-01T13:19:38Z</time></trkpt><trkpt lat="45.869544155769034" lon="11.786382559520604"><ele>1560.3333333333333</ele><time>2026-05-01T13:19:39Z</time></trkpt><trkpt lat="45.86953039868591" lon="11.78627244806115"><ele>1560.0</ele><time>2026-05-01T13:19:40Z</time></trkpt><trkpt lat="45.86952733444041" lon="11.786166190058752"><ele>1560.0</ele><time>2026-05-01T13:19:41Z</time></trkpt><trkpt lat="45.869527300268125" lon="11.786067502609033"><ele>1560.0</ele><time>2026-05-01T13:19:42Z</time></trkpt><trkpt lat="45.869508849677125" lon="11.785952664094852"><ele>1560.0</ele><time>2026-05-01T13:19:44Z</time></trkpt><trkpt lat="45.86946415098811" lon="11.785886986438483"><ele>1560.0</ele><time>2026-05-01T13:19:47Z</time></trkpt><trkpt lat="45.869384138852155" lon="11.785852723565622"><ele>1560.0</ele><time>2026-05-01T13:19:53Z</time></trkpt><trkpt lat="45.86930057920073" lon="11.78579709833886"><ele>1560.0</ele><time>2026-05-01T13:19:55Z</time></trkpt><trkpt lat="45.86929829552803" lon="11.785675503506166"><ele>1558.8333333333333</ele><time>2026-05-01T13:19:56Z</time></trkpt><trkpt lat="45.86932516343391" lon="11.785584104772218"><ele>1557.6666666666665</ele><time>2026-05-01T13:19:57Z</time></trkpt><trkpt lat="45.86937455968635" lon="11.785494057762232"><ele>1556.5</ele><time>2026-05-01T13:19:58Z</time></trkpt><trkpt lat="45.86943912290268" lon="11.785411169209528"><ele>1555.3333333333333</ele><time>2026-05-01T13:19:59Z</time></trkpt><trkpt lat="45.8695205903365" lon="11.785354573310622"><ele>1554.1666666666665</ele><time>2026-05-01T13:20:00Z</time></trkpt><trkpt lat="45.869609183654184" lon="11.785334556845184"><ele>1553.0</ele><time>2026-05-01T13:20:01Z</time></trkpt><trkpt lat="45.86970032142173" lon="11.785348730992222"><ele>1553.0</ele><time>2026-05-01T13:20:02Z</time></trkpt><trkpt lat="45.86979689780938" lon="11.78537570460482"><ele>1553.0</ele><time>2026-05-01T13:20:03Z</time></trkpt><trkpt lat="45.869895045319964" lon="11.785397718668879"><ele>1553.0</ele><time>2026-05-01T13:20:04Z</time></trkpt><trkpt lat="45.86999056605371" lon="11.785416012393512"><ele>1553.0</ele><time>2026-05-01T13:20:05Z</time></trkpt><trkpt lat="45.87008050562831" lon="11.785431032263116"><ele>1553.0</ele><time>2026-05-01T13:20:06Z</time></trkpt><trkpt lat="45.870171571179675" lon="11.78544427222633"><ele>1555.2</ele><time>2026-05-01T13:20:07Z</time></trkpt><trkpt lat="45.87026482493789" lon="11.785455068941806"><ele>1557.4</ele><time>2026-05-01T13:20:08Z</time></trkpt><trkpt lat="45.87036040250378" lon="11.78546114672308"><ele>1559.6000000000001</ele><time>2026-05-01T13:20:09Z</time></trkpt><trkpt lat="45.8704567678294" lon="11.785462377235966"><ele>1561.8000000000002</ele><time>2026-05-01T13:20:10Z</time></trkpt><trkpt lat="45.8705550936214" lon="11.785461107090281"><ele>1564.0</ele><time>2026-05-01T13:20:11Z</time></trkpt><trkpt lat="45.87065957251359" lon="11.785457595626585"><ele>1564.0</ele><time>2026-05-01T13:20:12Z</time></trkpt><trkpt lat="45.8707731354473" lon="11.785446927006172"><ele>1564.0</ele><time>2026-05-01T13:20:13Z</time></trkpt><trkpt lat="45.87089323027405" lon="11.785437388992872"><ele>1564.0</ele><time>2026-05-01T13:20:14Z</time></trkpt><trkpt lat="45.87102025822116" lon="11.785430675799423"><ele>1564.0</ele><time>2026-05-01T13:20:15Z</time></trkpt><trkpt lat="45.87115772040603" lon="11.785433515641829"><ele>1565.0</ele><time>2026-05-01T13:20:16Z</time></trkpt><trkpt lat="45.87129334357021" lon="11.785446710067493"><ele>1566.0</ele><time>2026-05-01T13:20:17Z</time></trkpt><trkpt lat="45.871418304517064" lon="11.785479674807341"><ele>1567.0</ele><time>2026-05-01T13:20:18Z</time></trkpt><trkpt lat="45.87153944710344" lon="11.785516613525836"><ele>1568.0</ele><time>2026-05-01T13:20:19Z</time></trkpt><trkpt lat="45.871657605188766" lon="11.785553397669112"><ele>1568.0</ele><time>2026-05-01T13:20:19.999Z</time></trkpt><trkpt lat="45.871773248947605" lon="11.785595056375694"><ele>1568.0</ele><time>2026-05-01T13:20:20.999Z</time></trkpt><trkpt lat="45.87188597732611" lon="11.78565761838308"><ele>1568.0</ele><time>2026-05-01T13:20:21.999Z</time></trkpt><trkpt lat="45.87199552596929" lon="11.785760854012599"><ele>1568.0</ele><time>2026-05-01T13:20:22.999Z</time></trkpt><trkpt lat="45.87209982885025" lon="11.785892815836847"><ele>1566.5</ele><time>2026-05-01T13:20:23.999Z</time></trkpt><trkpt lat="45.87219123531634" lon="11.786030698053736"><ele>1565.0</ele><time>2026-05-01T13:20:24.999Z</time></trkpt><trkpt lat="45.87226732079567" lon="11.786179292303624"><ele>1563.5</ele><time>2026-05-01T13:20:25.999Z</time></trkpt><trkpt lat="45.8723356468938" lon="11.786346425800058"><ele>1562.0</ele><time>2026-05-01T13:20:26.999Z</time></trkpt><trkpt lat="45.872392653125836" lon="11.786514548445709"><ele>1562.0</ele><time>2026-05-01T13:20:27.999Z</time></trkpt><trkpt lat="45.87244336789852" lon="11.786685338548029"><ele>1562.0</ele><time>2026-05-01T13:20:28.999Z</time></trkpt><trkpt lat="45.872486329090925" lon="11.786854294317955"><ele>1562.0</ele><time>2026-05-01T13:20:29.999Z</time></trkpt><trkpt lat="45.872524942798115" lon="11.7870254530763"><ele>1562.0</ele><time>2026-05-01T13:20:30.999Z</time></trkpt><trkpt lat="45.87255854479088" lon="11.787198171986997"><ele>1565.75</ele><time>2026-05-01T13:20:31.999Z</time></trkpt><trkpt lat="45.87258269162009" lon="11.78737866485365"><ele>1569.5</ele><time>2026-05-01T13:20:32.999Z</time></trkpt><trkpt lat="45.8725959336245" lon="11.787553235167126"><ele>1573.25</ele><time>2026-05-01T13:20:33.999Z</time></trkpt><trkpt lat="45.87260683066943" lon="11.787725686934328"><ele>1577.0</ele><time>2026-05-01T13:20:34.999Z</time></trkpt><trkpt lat="45.872622472319584" lon="11.787900089230076"><ele>1569.5</ele><time>2026-05-01T13:20:35.999Z</time></trkpt><trkpt lat="45.87266533643759" lon="11.788074113816867"><ele>1562.0</ele><time>2026-05-01T13:20:36.999Z</time></trkpt><trkpt lat="45.872719793309926" lon="11.788230795094224"><ele>1554.5</ele><time>2026-05-01T13:20:37.999Z</time></trkpt><trkpt lat="45.87275397807222" lon="11.78838121775316"><ele>1547.0</ele><time>2026-05-01T13:20:38.999Z</time></trkpt><trkpt lat="45.872774467496804" lon="11.788552838876097"><ele>1547.0</ele><time>2026-05-01T13:20:39.999Z</time></trkpt><trkpt lat="45.872779852775686" lon="11.788723930641396"><ele>1547.0</ele><time>2026-05-01T13:20:40.999Z</time></trkpt><trkpt lat="45.87276790911774" lon="11.788900383613642"><ele>1547.0</ele><time>2026-05-01T13:20:41.999Z</time></trkpt><trkpt lat="45.8727461145916" lon="11.789076979539368"><ele>1547.0</ele><time>2026-05-01T13:20:42.999Z</time></trkpt><trkpt lat="45.87271359769115" lon="11.789239808172523"><ele>1547.6</ele><time>2026-05-01T13:20:43.999Z</time></trkpt><trkpt lat="45.872676326117556" lon="11.789392069986995"><ele>1548.1999999999998</ele><time>2026-05-01T13:20:44.999Z</time></trkpt><trkpt lat="45.8726349959695" lon="11.789528864965396"><ele>1548.8</ele><time>2026-05-01T13:20:45.999Z</time></trkpt><trkpt lat="45.87258685834105" lon="11.789655007069682"><ele>1549.4</ele><time>2026-05-01T13:20:46.999Z</time></trkpt><trkpt lat="45.87253556890554" lon="11.78977871997818"><ele>1550.0</ele><time>2026-05-01T13:20:47.999Z</time></trkpt><trkpt lat="45.872486790700215" lon="11.789909408634294"><ele>1556.4</ele><time>2026-05-01T13:20:48.999Z</time></trkpt><trkpt lat="45.87243702306646" lon="11.790042708671892"><ele>1562.8</ele><time>2026-05-01T13:20:49.999Z</time></trkpt><trkpt lat="45.87239014009137" lon="11.790172053787083"><ele>1569.1999999999998</ele><time>2026-05-01T13:20:50.999Z</time></trkpt><trkpt lat="45.87234860004852" lon="11.790299188129609"><ele>1575.6</ele><time>2026-05-01T13:20:51.999Z</time></trkpt><trkpt lat="45.87232728131048" lon="11.790433421175369"><ele>1582.0</ele><time>2026-05-01T13:20:52.999Z</time></trkpt><trkpt lat="45.87234672536187" lon="11.790571709996781"><ele>1583.1999999999998</ele><time>2026-05-01T13:20:53.999Z</time></trkpt><trkpt lat="45.87239952781474" lon="11.79069525922908"><ele>1584.4</ele><time>2026-05-01T13:20:55Z</time></trkpt><trkpt lat="45.87248555632445" lon="11.790786980734355"><ele>1585.6</ele><time>2026-05-01T13:20:56Z</time></trkpt><trkpt lat="45.87259643992097" lon="11.790855878573918"><ele>1586.8000000000002</ele><time>2026-05-01T13:20:57Z</time></trkpt><trkpt lat="45.872679466368595" lon="11.790955023826173"><ele>1588.0</ele><time>2026-05-01T13:20:58Z</time></trkpt><trkpt lat="45.872768817910526" lon="11.791038114365476"><ele>1588.0</ele><time>2026-05-01T13:20:59Z</time></trkpt><trkpt lat="45.87285703071475" lon="11.791126652316343"><ele>1588.0</ele><time>2026-05-01T13:21:00Z</time></trkpt><trkpt lat="45.87295459478136" lon="11.791208391869132"><ele>1588.0</ele><time>2026-05-01T13:21:01Z</time></trkpt><trkpt lat="45.873042223020605" lon="11.79131715995174"><ele>1588.0</ele><time>2026-05-01T13:21:02Z</time></trkpt><trkpt lat="45.87312351827377" lon="11.791436893855266"><ele>1588.0</ele><time>2026-05-01T13:21:03Z</time></trkpt><trkpt lat="45.873183938883564" lon="11.791581425973954"><ele>1588.0</ele><time>2026-05-01T13:21:04Z</time></trkpt><trkpt lat="45.87323713710152" lon="11.791733877756279"><ele>1588.0</ele><time>2026-05-01T13:21:05Z</time></trkpt><trkpt lat="45.87328894576189" lon="11.791884599252466"><ele>1588.0</ele><time>2026-05-01T13:21:06Z</time></trkpt><trkpt lat="45.87334387682815" lon="11.792034479419007"><ele>1587.4</ele><time>2026-05-01T13:21:07Z</time></trkpt><trkpt lat="45.87340148772647" lon="11.79218311900118"><ele>1586.8000000000002</ele><time>2026-05-01T13:21:08Z</time></trkpt><trkpt lat="45.87345809255826" lon="11.792325557644917"><ele>1586.2</ele><time>2026-05-01T13:21:09Z</time></trkpt><trkpt lat="45.87350365301412" lon="11.792470373170321"><ele>1585.6</ele><time>2026-05-01T13:21:10Z</time></trkpt><trkpt lat="45.87353410653936" lon="11.792604264241433"><ele>1585.0</ele><time>2026-05-01T13:21:11Z</time></trkpt><trkpt lat="45.87356263550794" lon="11.792719409411122"><ele>1587.8</ele><time>2026-05-01T13:21:12Z</time></trkpt><trkpt lat="45.87360187099678" lon="11.792842205337545"><ele>1590.6</ele><time>2026-05-01T13:21:13Z</time></trkpt><trkpt lat="45.87363177168315" lon="11.792968122141101"><ele>1593.4</ele><time>2026-05-01T13:21:14Z</time></trkpt><trkpt lat="45.87367972199502" lon="11.793074933349864"><ele>1596.2</ele><time>2026-05-01T13:21:15Z</time></trkpt><trkpt lat="45.87375009294693" lon="11.793164906279374"><ele>1599.0</ele><time>2026-05-01T13:21:16Z</time></trkpt><trkpt lat="45.87380367097011" lon="11.793284062516864"><ele>1599.0</ele><time>2026-05-01T13:21:17Z</time></trkpt><trkpt lat="45.873863593356425" lon="11.793406944010938"><ele>1599.0</ele><time>2026-05-01T13:21:18Z</time></trkpt><trkpt lat="45.87389561157521" lon="11.793548216430098"><ele>1599.0</ele><time>2026-05-01T13:21:19Z</time></trkpt><trkpt lat="45.87390979871985" lon="11.793691483442164"><ele>1599.0</ele><time>2026-05-01T13:21:20Z</time></trkpt><trkpt lat="45.87391246286001" lon="11.79382940855714"><ele>1599.0</ele><time>2026-05-01T13:21:21Z</time></trkpt><trkpt lat="45.87389795573496" lon="11.793972983906944"><ele>1599.4</ele><time>2026-05-01T13:21:22Z</time></trkpt><trkpt lat="45.873864646199685" lon="11.794112538080746"><ele>1599.8000000000002</ele><time>2026-05-01T13:21:23Z</time></trkpt><trkpt lat="45.87382397492154" lon="11.794243462451927"><ele>1600.1999999999998</ele><time>2026-05-01T13:21:24Z</time></trkpt><trkpt lat="45.873788218639774" lon="11.794368260944664"><ele>1600.6</ele><time>2026-05-01T13:21:25Z</time></trkpt><trkpt lat="45.87376973665911" lon="11.794499756197455"><ele>1601.0</ele><time>2026-05-01T13:21:26Z</time></trkpt><trkpt lat="45.87375648427008" lon="11.794643381502745"><ele>1603.25</ele><time>2026-05-01T13:21:27Z</time></trkpt><trkpt lat="45.873802002884794" lon="11.794792220806134"><ele>1605.5</ele><time>2026-05-01T13:21:28Z</time></trkpt><trkpt lat="45.87389337536202" lon="11.794904800222966"><ele>1607.75</ele><time>2026-05-01T13:21:29Z</time></trkpt><trkpt lat="45.87398718472517" lon="11.795029310865331"><ele>1610.0</ele><time>2026-05-01T13:21:30Z</time></trkpt><trkpt lat="45.87407785646865" lon="11.79515574429021"><ele>1608.75</ele><time>2026-05-01T13:21:31Z</time></trkpt><trkpt lat="45.8741579222835" lon="11.79527159902824"><ele>1607.5</ele><time>2026-05-01T13:21:32Z</time></trkpt><trkpt lat="45.87423564273278" lon="11.795390312994925"><ele>1606.25</ele><time>2026-05-01T13:21:33Z</time></trkpt><trkpt lat="45.87432148782146" lon="11.795510468981952"><ele>1605.0</ele><time>2026-05-01T13:21:34Z</time></trkpt><trkpt lat="45.87442172505479" lon="11.795629161980061"><ele>1605.0</ele><time>2026-05-01T13:21:35Z</time></trkpt><trkpt lat="45.87452639839873" lon="11.795746560171544"><ele>1605.0</ele><time>2026-05-01T13:21:36Z</time></trkpt><trkpt lat="45.87463016115013" lon="11.795863343168993"><ele>1605.0</ele><time>2026-05-01T13:21:37Z</time></trkpt><trkpt lat="45.874730274312974" lon="11.795979684514393"><ele>1605.0</ele><time>2026-05-01T13:21:38Z</time></trkpt><trkpt lat="45.874820907392824" lon="11.79608493768527"><ele>1604.2</ele><time>2026-05-01T13:21:39Z</time></trkpt><trkpt lat="45.8749026287929" lon="11.796178775175475"><ele>1603.4</ele><time>2026-05-01T13:21:40Z</time></trkpt><trkpt lat="45.87499360497299" lon="11.796268266797098"><ele>1602.6</ele><time>2026-05-01T13:21:41Z</time></trkpt><trkpt lat="45.87509644517996" lon="11.79633699989265"><ele>1601.8</ele><time>2026-05-01T13:21:42Z</time></trkpt><trkpt lat="45.87520525895625" lon="11.796378297599038"><ele>1601.0</ele><time>2026-05-01T13:21:43Z</time></trkpt><trkpt lat="45.87530000252964" lon="11.796409242090624"><ele>1601.0</ele><time>2026-05-01T13:21:44Z</time></trkpt><trkpt lat="45.87538830909366" lon="11.796442663227154"><ele>1601.0</ele><time>2026-05-01T13:21:45Z</time></trkpt><trkpt lat="45.87546887224192" lon="11.796503402739825"><ele>1601.0</ele><time>2026-05-01T13:21:46Z</time></trkpt><trkpt lat="45.87553812331242" lon="11.796594349009421"><ele>1601.0</ele><time>2026-05-01T13:21:47Z</time></trkpt><trkpt lat="45.87559983460585" lon="11.796713055123744"><ele>1601.0</ele><time>2026-05-01T13:21:48Z</time></trkpt><trkpt lat="45.875650934813166" lon="11.796859989922057"><ele>1606.75</ele><time>2026-05-01T13:21:49Z</time></trkpt><trkpt lat="45.875711144421814" lon="11.79702668794484"><ele>1612.5</ele><time>2026-05-01T13:21:50Z</time></trkpt><trkpt lat="45.875791509170945" lon="11.79717012027785"><ele>1618.25</ele><time>2026-05-01T13:21:51Z</time></trkpt><trkpt lat="45.875880620049045" lon="11.797283576916541"><ele>1624.0</ele><time>2026-05-01T13:21:52Z</time></trkpt><trkpt lat="45.87596200870547" lon="11.797361806580628"><ele>1625.25</ele><time>2026-05-01T13:21:53Z</time></trkpt><trkpt lat="45.87605867197389" lon="11.797417241651262"><ele>1626.5</ele><time>2026-05-01T13:21:54Z</time></trkpt><trkpt lat="45.876169460367166" lon="11.797430871684648"><ele>1627.75</ele><time>2026-05-01T13:21:55Z</time></trkpt><trkpt lat="45.876284793049" lon="11.797399232909628"><ele>1629.0</ele><time>2026-05-01T13:21:56Z</time></trkpt><trkpt lat="45.876401293429375" lon="11.797304351493173"><ele>1629.0</ele><time>2026-05-01T13:21:57Z</time></trkpt><trkpt lat="45.87651763419285" lon="11.797184775961494"><ele>1629.0</ele><time>2026-05-01T13:21:58Z</time></trkpt><trkpt lat="45.87663117441371" lon="11.797098433388241"><ele>1629.0</ele><time>2026-05-01T13:21:59Z</time></trkpt><trkpt lat="45.876742728050075" lon="11.797016588105791"><ele>1629.0</ele><time>2026-05-01T13:22:00Z</time></trkpt><trkpt lat="45.876860284483634" lon="11.796935383697239"><ele>1631.5</ele><time>2026-05-01T13:22:01Z</time></trkpt><trkpt lat="45.876978060594745" lon="11.796850525037138"><ele>1634.0</ele><time>2026-05-01T13:22:02Z</time></trkpt><trkpt lat="45.87708863683624" lon="11.796756932514993"><ele>1636.5</ele><time>2026-05-01T13:22:03Z</time></trkpt><trkpt lat="45.877197100916995" lon="11.796683065190981"><ele>1639.0</ele><time>2026-05-01T13:22:04Z</time></trkpt><trkpt lat="45.877302507136335" lon="11.796638618838813"><ele>1635.2</ele><time>2026-05-01T13:22:05Z</time></trkpt><trkpt lat="45.87739937594301" lon="11.796594238484342"><ele>1631.4</ele><time>2026-05-01T13:22:06Z</time></trkpt><trkpt lat="45.877484581269286" lon="11.796554083553929"><ele>1627.6</ele><time>2026-05-01T13:22:07Z</time></trkpt><trkpt lat="45.877568631022996" lon="11.796518204902176"><ele>1623.8</ele><time>2026-05-01T13:22:08Z</time></trkpt><trkpt lat="45.87765614453183" lon="11.796507368649948"><ele>1620.0</ele><time>2026-05-01T13:22:09Z</time></trkpt><trkpt lat="45.877749464730805" lon="11.796553308189974"><ele>1620.0</ele><time>2026-05-01T13:22:10Z</time></trkpt><trkpt lat="45.877836100032376" lon="11.796635389241384"><ele>1620.0</ele><time>2026-05-01T13:22:11Z</time></trkpt><trkpt lat="45.87792035066325" lon="11.796737325870012"><ele>1620.0</ele><time>2026-05-01T13:22:12Z</time></trkpt><trkpt lat="45.878002959802004" lon="11.796831136341371"><ele>1620.0</ele><time>2026-05-01T13:22:13Z</time></trkpt><trkpt lat="45.878090252097074" lon="11.796901804897242"><ele>1620.0</ele><time>2026-05-01T13:22:14Z</time></trkpt><trkpt lat="45.8781863260277" lon="11.796931501365973"><ele>1620.0</ele><time>2026-05-01T13:22:15Z</time></trkpt><trkpt lat="45.878293077218615" lon="11.796898607305534"><ele>1620.0</ele><time>2026-05-01T13:22:16Z</time></trkpt><trkpt lat="45.878395248612584" lon="11.796805954191507"><ele>1620.0</ele><time>2026-05-01T13:22:17Z</time></trkpt><trkpt lat="45.87850900951606" lon="11.796671367766653"><ele>1620.0</ele><time>2026-05-01T13:22:18Z</time></trkpt><trkpt lat="45.87862111102327" lon="11.796577862159154"><ele>1623.5</ele><time>2026-05-01T13:22:19Z</time></trkpt><trkpt lat="45.878716374212736" lon="11.796452654446357"><ele>1627.0</ele><time>2026-05-01T13:22:20Z</time></trkpt><trkpt lat="45.87881833292488" lon="11.796343109991655"><ele>1630.5</ele><time>2026-05-01T13:22:21Z</time></trkpt><trkpt lat="45.87890682302658" lon="11.796250615341787"><ele>1634.0</ele><time>2026-05-01T13:22:22Z</time></trkpt><trkpt lat="45.87899685008974" lon="11.796184824384113"><ele>1634.0</ele><time>2026-05-01T13:22:23Z</time></trkpt><trkpt lat="45.87909155281379" lon="11.79612172727915"><ele>1634.0</ele><time>2026-05-01T13:22:24Z</time></trkpt><trkpt lat="45.879174470707554" lon="11.796059738990515"><ele>1634.0</ele><time>2026-05-01T13:22:25Z</time></trkpt><trkpt lat="45.87924489869725" lon="11.795980576555904"><ele>1634.0</ele><time>2026-05-01T13:22:26Z</time></trkpt><trkpt lat="45.87929387695652" lon="11.795852938551333"><ele>1634.0</ele><time>2026-05-01T13:22:27Z</time></trkpt><trkpt lat="45.87930936950827" lon="11.795695118420557"><ele>1633.3333333333333</ele><time>2026-05-01T13:22:27.999Z</time></trkpt><trkpt lat="45.879291576364935" lon="11.795537906743029"><ele>1632.6666666666665</ele><time>2026-05-01T13:22:28.999Z</time></trkpt><trkpt lat="45.879291942287175" lon="11.795397278297365"><ele>1632.0</ele><time>2026-05-01T13:22:29.999Z</time></trkpt><trkpt lat="45.87929234011075" lon="11.795290594029721"><ele>1631.3333333333335</ele><time>2026-05-01T13:22:30.999Z</time></trkpt><trkpt lat="45.87932279087722" lon="11.795202030327696"><ele>1630.6666666666667</ele><time>2026-05-01T13:22:31.999Z</time></trkpt><trkpt lat="45.87936101906818" lon="11.795115231579752"><ele>1630.0</ele><time>2026-05-01T13:22:32.999Z</time></trkpt><trkpt lat="45.879417563208456" lon="11.795039618187339"><ele>1627.8333333333335</ele><time>2026-05-01T13:22:33.999Z</time></trkpt><trkpt lat="45.87947209439067" lon="11.794954454319493"><ele>1625.6666666666667</ele><time>2026-05-01T13:22:34.999Z</time></trkpt><trkpt lat="45.87953518797144" lon="11.794885408608174"><ele>1623.5</ele><time>2026-05-01T13:22:35.999Z</time></trkpt><trkpt lat="45.879598908493925" lon="11.794808137517599"><ele>1621.3333333333335</ele><time>2026-05-01T13:22:36.999Z</time></trkpt><trkpt lat="45.87966593769549" lon="11.79473225526481"><ele>1619.1666666666667</ele><time>2026-05-01T13:22:37.999Z</time></trkpt><trkpt lat="45.879738861006366" lon="11.794653759363415"><ele>1617.0</ele><time>2026-05-01T13:22:38.999Z</time></trkpt><trkpt lat="45.87981481523239" lon="11.794570884212256"><ele>1617.0</ele><time>2026-05-01T13:22:39.999Z</time></trkpt><trkpt lat="45.87989570876513" lon="11.79448490270538"><ele>1617.0</ele><time>2026-05-01T13:22:40.999Z</time></trkpt><trkpt lat="45.87997902743412" lon="11.794389509033023"><ele>1617.0</ele><time>2026-05-01T13:22:41.999Z</time></trkpt><trkpt lat="45.88005493478419" lon="11.79426629308435"><ele>1617.0</ele><time>2026-05-01T13:22:42.999Z</time></trkpt><trkpt lat="45.88012098233846" lon="11.79411160647411"><ele>1617.0</ele><time>2026-05-01T13:22:43.999Z</time></trkpt><trkpt lat="45.88019022541793" lon="11.793973933756991"><ele>1619.25</ele><time>2026-05-01T13:22:44.999Z</time></trkpt><trkpt lat="45.88024809321549" lon="11.793846479887693"><ele>1621.5</ele><time>2026-05-01T13:22:45.999Z</time></trkpt><trkpt lat="45.88032713570585" lon="11.79373738835367"><ele>1623.75</ele><time>2026-05-01T13:22:46.999Z</time></trkpt><trkpt lat="45.88043796700029" lon="11.793653795693066"><ele>1626.0</ele><time>2026-05-01T13:22:47.999Z</time></trkpt><trkpt lat="45.880550023717774" lon="11.793566381193513"><ele>1626.0</ele><time>2026-05-01T13:22:48.999Z</time></trkpt><trkpt lat="45.880655510866006" lon="11.793509566138484"><ele>1626.0</ele><time>2026-05-01T13:22:49.999Z</time></trkpt><trkpt lat="45.88075518418022" lon="11.79344765023952"><ele>1626.0</ele><time>2026-05-01T13:22:50.999Z</time></trkpt><trkpt lat="45.88085017041752" lon="11.793348065412331"><ele>1626.0</ele><time>2026-05-01T13:22:51.999Z</time></trkpt><trkpt lat="45.88091676138154" lon="11.793203774094158"><ele>1623.6</ele><time>2026-05-01T13:22:52.999Z</time></trkpt><trkpt lat="45.88094311331176" lon="11.793048254056986"><ele>1621.1999999999998</ele><time>2026-05-01T13:22:53.999Z</time></trkpt><trkpt lat="45.88099116368763" lon="11.792916422166856"><ele>1618.8000000000002</ele><time>2026-05-01T13:22:54.999Z</time></trkpt><trkpt lat="45.88105501189193" lon="11.79278834018565"><ele>1616.4</ele><time>2026-05-01T13:22:55.999Z</time></trkpt><trkpt lat="45.881136018689006" lon="11.792677307653689"><ele>1614.0</ele><time>2026-05-01T13:22:56.999Z</time></trkpt><trkpt lat="45.88125126140345" lon="11.792644445034778"><ele>1614.0</ele><time>2026-05-01T13:22:57.999Z</time></trkpt><trkpt lat="45.88136847967078" lon="11.792654533994853"><ele>1614.0</ele><time>2026-05-01T13:22:58.999Z</time></trkpt><trkpt lat="45.88148421114279" lon="11.792697142829896"><ele>1614.0</ele><time>2026-05-01T13:22:59.999Z</time></trkpt><trkpt lat="45.881582827590314" lon="11.79274079884839"><ele>1614.0</ele><time>2026-05-01T13:23:01Z</time></trkpt><trkpt lat="45.88167861670026" lon="11.792764686779032"><ele>1614.0</ele><time>2026-05-01T13:23:02Z</time></trkpt><trkpt lat="45.88177888345452" lon="11.792742646232426"><ele>1615.5</ele><time>2026-05-01T13:23:03Z</time></trkpt><trkpt lat="45.88187287949144" lon="11.792660019684977"><ele>1617.0</ele><time>2026-05-01T13:23:04Z</time></trkpt><trkpt lat="45.88194054527099" lon="11.792511348164492"><ele>1618.5</ele><time>2026-05-01T13:23:05Z</time></trkpt><trkpt lat="45.882004932281575" lon="11.79234095151225"><ele>1620.0</ele><time>2026-05-01T13:23:06Z</time></trkpt><trkpt lat="45.88205548904501" lon="11.79217435036534"><ele>1620.0</ele><time>2026-05-01T13:23:07Z</time></trkpt><trkpt lat="45.88208744963962" lon="11.792009712752465"><ele>1620.0</ele><time>2026-05-01T13:23:08Z</time></trkpt><trkpt lat="45.88213203034896" lon="11.791865744970485"><ele>1620.0</ele><time>2026-05-01T13:23:09Z</time></trkpt><trkpt lat="45.88217899550677" lon="11.79172443104585"><ele>1620.0</ele><time>2026-05-01T13:23:10Z</time></trkpt><trkpt lat="45.88222367990658" lon="11.791574027718763"><ele>1615.25</ele><time>2026-05-01T13:23:11Z</time></trkpt><trkpt lat="45.88226821318503" lon="11.791420692108975"><ele>1610.5</ele><time>2026-05-01T13:23:12Z</time></trkpt><trkpt lat="45.882312412982124" lon="11.791268588341342"><ele>1605.75</ele><time>2026-05-01T13:23:13Z</time></trkpt><trkpt lat="45.8823566982587" lon="11.791116392702298"><ele>1601.0</ele><time>2026-05-01T13:23:14Z</time></trkpt><trkpt lat="45.8824041592195" lon="11.79096722594325"><ele>1602.75</ele><time>2026-05-01T13:23:15Z</time></trkpt><trkpt lat="45.882474087419915" lon="11.790834988423066"><ele>1604.5</ele><time>2026-05-01T13:23:16Z</time></trkpt><trkpt lat="45.88252059017142" lon="11.790684351431919"><ele>1606.25</ele><time>2026-05-01T13:23:17Z</time></trkpt><trkpt lat="45.88258350619344" lon="11.790546169839098"><ele>1608.0</ele><time>2026-05-01T13:23:18Z</time></trkpt><trkpt lat="45.88264251994308" lon="11.79040428205424"><ele>1608.0</ele><time>2026-05-01T13:23:19Z</time></trkpt><trkpt lat="45.88269857483577" lon="11.79026104466564"><ele>1608.0</ele><time>2026-05-01T13:23:20Z</time></trkpt><trkpt lat="45.8827656519424" lon="11.790118580668222"><ele>1608.0</ele><time>2026-05-01T13:23:21Z</time></trkpt><trkpt lat="45.882847951621656" lon="11.789984417100912"><ele>1608.0</ele><time>2026-05-01T13:23:22Z</time></trkpt><trkpt lat="45.882945747952625" lon="11.789853047187911"><ele>1602.0</ele><time>2026-05-01T13:23:23Z</time></trkpt><trkpt lat="45.883054252624326" lon="11.789723408037869"><ele>1596.0</ele><time>2026-05-01T13:23:24Z</time></trkpt><trkpt lat="45.88316260160056" lon="11.789593830180852"><ele>1590.0</ele><time>2026-05-01T13:23:25Z</time></trkpt><trkpt lat="45.88326320044439" lon="11.789463278376989"><ele>1584.0</ele><time>2026-05-01T13:23:26Z</time></trkpt><trkpt lat="45.88335138963858" lon="11.78932110013032"><ele>1582.25</ele><time>2026-05-01T13:23:27Z</time></trkpt><trkpt lat="45.88342646905287" lon="11.789186002589044"><ele>1580.5</ele><time>2026-05-01T13:23:28Z</time></trkpt><trkpt lat="45.8835132017614" lon="11.789073649288033"><ele>1578.75</ele><time>2026-05-01T13:23:29Z</time></trkpt><trkpt lat="45.88358881714714" lon="11.788929048824555"><ele>1577.0</ele><time>2026-05-01T13:23:30Z</time></trkpt><trkpt lat="45.883701278904475" lon="11.788846163955126"><ele>1577.0</ele><time>2026-05-01T13:23:31Z</time></trkpt><trkpt lat="45.8838008755727" lon="11.788739300688771"><ele>1577.0</ele><time>2026-05-01T13:23:32Z</time></trkpt><trkpt lat="45.883916632008805" lon="11.788673404197208"><ele>1577.0</ele><time>2026-05-01T13:23:33Z</time></trkpt><trkpt lat="45.88403571632791" lon="11.78862431300884"><ele>1577.0</ele><time>2026-05-01T13:23:34Z</time></trkpt><trkpt lat="45.884155307556874" lon="11.788591893439216"><ele>1577.0</ele><time>2026-05-01T13:23:35Z</time></trkpt><trkpt lat="45.88427446702919" lon="11.78855898645838"><ele>1577.0</ele><time>2026-05-01T13:23:36Z</time></trkpt><trkpt lat="45.884385894735885" lon="11.7885004129259"><ele>1577.0</ele><time>2026-05-01T13:23:37Z</time></trkpt><trkpt lat="45.88449675496882" lon="11.78844246602982"><ele>1577.0</ele><time>2026-05-01T13:23:38Z</time></trkpt><trkpt lat="45.88457194734166" lon="11.788305591283294"><ele>1575.0</ele><time>2026-05-01T13:23:39Z</time></trkpt><trkpt lat="45.884636170723006" lon="11.788146288856636"><ele>1573.0</ele><time>2026-05-01T13:23:40Z</time></trkpt><trkpt lat="45.88470492734064" lon="11.787980622522873"><ele>1571.0</ele><time>2026-05-01T13:23:41Z</time></trkpt><trkpt lat="45.88475927765639" lon="11.787801508763062"><ele>1569.0</ele><time>2026-05-01T13:23:42Z</time></trkpt><trkpt lat="45.884811161228214" lon="11.787623396667131"><ele>1565.75</ele><time>2026-05-01T13:23:43Z</time></trkpt><trkpt lat="45.884863122362106" lon="11.787441710175361"><ele>1562.5</ele><time>2026-05-01T13:23:44Z</time></trkpt><trkpt lat="45.88491120196071" lon="11.78725409418489"><ele>1559.25</ele><time>2026-05-01T13:23:45Z</time></trkpt><trkpt lat="45.884950516306034" lon="11.787053200694286"><ele>1556.0</ele><time>2026-05-01T13:23:46Z</time></trkpt><trkpt lat="45.88497798004601" lon="11.786842236198154"><ele>1553.0</ele><time>2026-05-01T13:23:47Z</time></trkpt><trkpt lat="45.88499907087631" lon="11.786624961546902"><ele>1550.0</ele><time>2026-05-01T13:23:48Z</time></trkpt><trkpt lat="45.885000202223665" lon="11.786403037573395"><ele>1547.0</ele><time>2026-05-01T13:23:49Z</time></trkpt><trkpt lat="45.88502338329011" lon="11.786202858238795"><ele>1544.0</ele><time>2026-05-01T13:23:50Z</time></trkpt><trkpt lat="45.885055117374804" lon="11.786000667243941"><ele>1548.25</ele><time>2026-05-01T13:23:51Z</time></trkpt><trkpt lat="45.885117972227896" lon="11.7858098541118"><ele>1552.5</ele><time>2026-05-01T13:23:52Z</time></trkpt><trkpt lat="45.88515510023805" lon="11.785610962304109"><ele>1556.75</ele><time>2026-05-01T13:23:53Z</time></trkpt><trkpt lat="45.88518713975355" lon="11.785415129646692"><ele>1561.0</ele><time>2026-05-01T13:23:54Z</time></trkpt><trkpt lat="45.88519262799147" lon="11.785195501946598"><ele>1558.75</ele><time>2026-05-01T13:23:55Z</time></trkpt><trkpt lat="45.88521227813363" lon="11.784999322074196"><ele>1556.5</ele><time>2026-05-01T13:23:56Z</time></trkpt><trkpt lat="45.8852167724496" lon="11.784821555413199"><ele>1554.25</ele><time>2026-05-01T13:23:57Z</time></trkpt><trkpt lat="45.885220980250644" lon="11.784655121526475"><ele>1552.0</ele><time>2026-05-01T13:23:58Z</time></trkpt><trkpt lat="45.88522538667894" lon="11.784484920310444"><ele>1549.0</ele><time>2026-05-01T13:23:59Z</time></trkpt><trkpt lat="45.88523211526989" lon="11.784315659432234"><ele>1546.0</ele><time>2026-05-01T13:24:00Z</time></trkpt><trkpt lat="45.88523076110547" lon="11.784142835963157"><ele>1543.0</ele><time>2026-05-01T13:24:01Z</time></trkpt><trkpt lat="45.88526498252763" lon="11.783970367307154"><ele>1540.0</ele><time>2026-05-01T13:24:02Z</time></trkpt><trkpt lat="45.88530728307875" lon="11.783795935524859"><ele>1540.0</ele><time>2026-05-01T13:24:03Z</time></trkpt><trkpt lat="45.88535242894364" lon="11.783612809928599"><ele>1540.0</ele><time>2026-05-01T13:24:04Z</time></trkpt><trkpt lat="45.885398339837884" lon="11.78341655819477"><ele>1540.0</ele><time>2026-05-01T13:24:05Z</time></trkpt><trkpt lat="45.885446686895676" lon="11.783216761574401"><ele>1540.0</ele><time>2026-05-01T13:24:06Z</time></trkpt><trkpt lat="45.88549290425287" lon="11.783017108285803"><ele>1537.0</ele><time>2026-05-01T13:24:07Z</time></trkpt><trkpt lat="45.88553671299393" lon="11.78283511030019"><ele>1534.0</ele><time>2026-05-01T13:24:08Z</time></trkpt><trkpt lat="45.88561339129016" lon="11.782687431317603"><ele>1531.0</ele><time>2026-05-01T13:24:09Z</time></trkpt><trkpt lat="45.88568802294009" lon="11.782519588480946"><ele>1528.0</ele><time>2026-05-01T13:24:10Z</time></trkpt><trkpt lat="45.885792995553494" lon="11.782381652054498"><ele>1526.5</ele><time>2026-05-01T13:24:11Z</time></trkpt><trkpt lat="45.88588563410838" lon="11.782253059083"><ele>1525.0</ele><time>2026-05-01T13:24:12Z</time></trkpt><trkpt lat="45.88597415371766" lon="11.782120306748993"><ele>1523.5</ele><time>2026-05-01T13:24:13Z</time></trkpt><trkpt lat="45.88604251394566" lon="11.781971047238441"><ele>1522.0</ele><time>2026-05-01T13:24:14Z</time></trkpt><trkpt lat="45.88611082675713" lon="11.781798543968845"><ele>1522.0</ele><time>2026-05-01T13:24:15Z</time></trkpt><trkpt lat="45.886163650015995" lon="11.78160748885493"><ele>1522.0</ele><time>2026-05-01T13:24:16Z</time></trkpt><trkpt lat="45.886200305909526" lon="11.781420452957208"><ele>1522.0</ele><time>2026-05-01T13:24:17Z</time></trkpt><trkpt lat="45.886258320582066" lon="11.781255467929022"><ele>1522.0</ele><time>2026-05-01T13:24:18Z</time></trkpt><trkpt lat="45.88633036648794" lon="11.781105156232693"><ele>1519.75</ele><time>2026-05-01T13:24:19Z</time></trkpt><trkpt lat="45.886415755771964" lon="11.780957122798984"><ele>1517.5</ele><time>2026-05-01T13:24:20Z</time></trkpt><trkpt lat="45.88651056761337" lon="11.780817556909124"><ele>1515.25</ele><time>2026-05-01T13:24:21Z</time></trkpt><trkpt lat="45.886624609978675" lon="11.780682386061628"><ele>1513.0</ele><time>2026-05-01T13:24:22Z</time></trkpt><trkpt lat="45.88675186431439" lon="11.780543676539727"><ele>1512.0</ele><time>2026-05-01T13:24:23Z</time></trkpt><trkpt lat="45.886869624617866" lon="11.780409472630154"><ele>1511.0</ele><time>2026-05-01T13:24:24Z</time></trkpt><trkpt lat="45.886977166648435" lon="11.780267579650097"><ele>1510.0</ele><time>2026-05-01T13:24:25Z</time></trkpt><trkpt lat="45.88706944561529" lon="11.780088644803639"><ele>1510.0</ele><time>2026-05-01T13:24:26Z</time></trkpt><trkpt lat="45.88715043041149" lon="11.779879872784182"><ele>1510.0</ele><time>2026-05-01T13:24:27Z</time></trkpt><trkpt lat="45.88721867991702" lon="11.779684649560934"><ele>1510.0</ele><time>2026-05-01T13:24:28Z</time></trkpt><trkpt lat="45.88728695510337" lon="11.779501464807115"><ele>1509.5</ele><time>2026-05-01T13:24:29Z</time></trkpt><trkpt lat="45.887300470631395" lon="11.779304547917585"><ele>1509.0</ele><time>2026-05-01T13:24:30Z</time></trkpt><trkpt lat="45.88731168467353" lon="11.779111846253219"><ele>1508.5</ele><time>2026-05-01T13:24:30.999Z</time></trkpt><trkpt lat="45.88733954802763" lon="11.778919042793927"><ele>1508.0</ele><time>2026-05-01T13:24:31.999Z</time></trkpt><trkpt lat="45.8873461929683" lon="11.778712872307093"><ele>1508.0</ele><time>2026-05-01T13:24:32.999Z</time></trkpt><trkpt lat="45.88738370031355" lon="11.778520078357538"><ele>1508.0</ele><time>2026-05-01T13:24:33.999Z</time></trkpt><trkpt lat="45.887420361027495" lon="11.778348808528529"><ele>1508.0</ele><time>2026-05-01T13:24:34.999Z</time></trkpt><trkpt lat="45.88748109986905" lon="11.778174477012351"><ele>1508.0</ele><time>2026-05-01T13:24:35.999Z</time></trkpt><trkpt lat="45.88757578573884" lon="11.77801547432925"><ele>1506.5</ele><time>2026-05-01T13:24:36.999Z</time></trkpt><trkpt lat="45.887677716230684" lon="11.77786013891267"><ele>1505.0</ele><time>2026-05-01T13:24:37.999Z</time></trkpt><trkpt lat="45.88775979368484" lon="11.777677635969635"><ele>1503.5</ele><time>2026-05-01T13:24:38.999Z</time></trkpt><trkpt lat="45.88781464326593" lon="11.777478021242976"><ele>1502.0</ele><time>2026-05-01T13:24:39.999Z</time></trkpt><trkpt lat="45.88784457888684" lon="11.777270610218052"><ele>1502.0</ele><time>2026-05-01T13:24:40.999Z</time></trkpt><trkpt lat="45.887886446747004" lon="11.777063859949681"><ele>1502.0</ele><time>2026-05-01T13:24:41.999Z</time></trkpt><trkpt lat="45.88791325916025" lon="11.776850845275039"><ele>1502.0</ele><time>2026-05-01T13:24:42.999Z</time></trkpt><trkpt lat="45.887941145912684" lon="11.776628489557929"><ele>1504.3333333333335</ele><time>2026-05-01T13:24:43.999Z</time></trkpt><trkpt lat="45.88796884680854" lon="11.776407615654392"><ele>1506.6666666666667</ele><time>2026-05-01T13:24:44.999Z</time></trkpt><trkpt lat="45.88799452431901" lon="11.77619022300194"><ele>1509.0</ele><time>2026-05-01T13:24:45.999Z</time></trkpt><trkpt lat="45.888018426707035" lon="11.775983187317323"><ele>1509.0</ele><time>2026-05-01T13:24:46.999Z</time></trkpt><trkpt lat="45.88803260396107" lon="11.775785346269215"><ele>1509.0</ele><time>2026-05-01T13:24:47.999Z</time></trkpt><trkpt lat="45.888015322784845" lon="11.77558572112196"><ele>1509.0</ele><time>2026-05-01T13:24:48.999Z</time></trkpt><trkpt lat="45.88800855782223" lon="11.775386721384464"><ele>1509.0</ele><time>2026-05-01T13:24:49.999Z</time></trkpt><trkpt lat="45.88800977613638" lon="11.775190614939063"><ele>1508.75</ele><time>2026-05-01T13:24:50.999Z</time></trkpt><trkpt lat="45.88802298809134" lon="11.774990491094165"><ele>1508.5</ele><time>2026-05-01T13:24:51.999Z</time></trkpt><trkpt lat="45.8880471125428" lon="11.77478016927698"><ele>1508.25</ele><time>2026-05-01T13:24:52.999Z</time></trkpt><trkpt lat="45.888088177173245" lon="11.774561227741579"><ele>1508.0</ele><time>2026-05-01T13:24:53.999Z</time></trkpt><trkpt lat="45.88813165392105" lon="11.774341436497927"><ele>1507.25</ele><time>2026-05-01T13:24:54.999Z</time></trkpt><trkpt lat="45.8881654249736" lon="11.774124013378634"><ele>1506.5</ele><time>2026-05-01T13:24:55.999Z</time></trkpt><trkpt lat="45.88819213729246" lon="11.773911321924635"><ele>1505.75</ele><time>2026-05-01T13:24:56.999Z</time></trkpt><trkpt lat="45.88821344852775" lon="11.773710413084153"><ele>1505.0</ele><time>2026-05-01T13:24:57.999Z</time></trkpt><trkpt lat="45.888233964412485" lon="11.77351988146079"><ele>1503.5</ele><time>2026-05-01T13:24:58.999Z</time></trkpt><trkpt lat="45.88824999676249" lon="11.77332691982516"><ele>1502.0</ele><time>2026-05-01T13:24:59.999Z</time></trkpt><trkpt lat="45.888256527149835" lon="11.77313070953736"><ele>1500.5</ele><time>2026-05-01T13:25:00.999Z</time></trkpt><trkpt lat="45.88825130792993" lon="11.772949547837127"><ele>1499.0</ele><time>2026-05-01T13:25:01.999Z</time></trkpt><trkpt lat="45.88823800923933" lon="11.772769781985891"><ele>1498.75</ele><time>2026-05-01T13:25:02.999Z</time></trkpt><trkpt lat="45.88820831449889" lon="11.772596154772097"><ele>1498.5</ele><time>2026-05-01T13:25:03.999Z</time></trkpt><trkpt lat="45.8881672359028" lon="11.772448691470148"><ele>1498.25</ele><time>2026-05-01T13:25:04.999Z</time></trkpt><trkpt lat="45.888135006343944" lon="11.772285886634588"><ele>1498.0</ele><time>2026-05-01T13:25:05.999Z</time></trkpt><trkpt lat="45.88808479470753" lon="11.772128801391284"><ele>1498.0</ele><time>2026-05-01T13:25:07Z</time></trkpt><trkpt lat="45.88803139151232" lon="11.771964576455604"><ele>1498.0</ele><time>2026-05-01T13:25:08Z</time></trkpt><trkpt lat="45.887966553987205" lon="11.771809567962219"><ele>1498.0</ele><time>2026-05-01T13:25:09Z</time></trkpt><trkpt lat="45.887917802150184" lon="11.771650471285223"><ele>1498.0</ele><time>2026-05-01T13:25:10Z</time></trkpt><trkpt lat="45.887871291745" lon="11.77149532719599"><ele>1498.0</ele><time>2026-05-01T13:25:11Z</time></trkpt><trkpt lat="45.887841759714185" lon="11.771348143429583"><ele>1498.0</ele><time>2026-05-01T13:25:12Z</time></trkpt><trkpt lat="45.887831338463755" lon="11.771196718112986"><ele>1498.0</ele><time>2026-05-01T13:25:13Z</time></trkpt><trkpt lat="45.88784388413985" lon="11.771053929859223"><ele>1498.0</ele><time>2026-05-01T13:25:14Z</time></trkpt><trkpt lat="45.887882350467585" lon="11.77090987579857"><ele>1498.0</ele><time>2026-05-01T13:25:15Z</time></trkpt><trkpt lat="45.88795049017441" lon="11.77079624587288"><ele>1495.8000000000002</ele><time>2026-05-01T13:25:16Z</time></trkpt><trkpt lat="45.88804094193612" lon="11.770718057268745"><ele>1493.6</ele><time>2026-05-01T13:25:17Z</time></trkpt><trkpt lat="45.88814306927187" lon="11.77067413153622"><ele>1491.4</ele><time>2026-05-01T13:25:18Z</time></trkpt><trkpt lat="45.88825023272078" lon="11.77065971017695"><ele>1489.1999999999998</ele><time>2026-05-01T13:25:19Z</time></trkpt><trkpt lat="45.88835620897822" lon="11.770662838330894"><ele>1487.0</ele><time>2026-05-01T13:25:20Z</time></trkpt><trkpt lat="45.88846850319943" lon="11.770675669146186"><ele>1484.0</ele><time>2026-05-01T13:25:21Z</time></trkpt><trkpt lat="45.888583424298645" lon="11.770692784530196"><ele>1481.0</ele><time>2026-05-01T13:25:22Z</time></trkpt><trkpt lat="45.888697631401804" lon="11.770708619111206"><ele>1478.0</ele><time>2026-05-01T13:25:23Z</time></trkpt><trkpt lat="45.888811058678115" lon="11.770720047747941"><ele>1475.0</ele><time>2026-05-01T13:25:24Z</time></trkpt><trkpt lat="45.88891767619448" lon="11.770733206003058"><ele>1475.0</ele><time>2026-05-01T13:25:25Z</time></trkpt><trkpt lat="45.889009680989474" lon="11.770742601231065"><ele>1475.0</ele><time>2026-05-01T13:25:26Z</time></trkpt><trkpt lat="45.88909956699379" lon="11.770752811860541"><ele>1475.0</ele><time>2026-05-01T13:25:27Z</time></trkpt><trkpt lat="45.88918758915446" lon="11.770764827085113"><ele>1475.0</ele><time>2026-05-01T13:25:28Z</time></trkpt><trkpt lat="45.88927511327891" lon="11.770775607026186"><ele>1475.0</ele><time>2026-05-01T13:25:29Z</time></trkpt><trkpt lat="45.88936498960687" lon="11.770780240209113"><ele>1475.0</ele><time>2026-05-01T13:25:30Z</time></trkpt><trkpt lat="45.88945683257207" lon="11.770768615039511"><ele>1474.6666666666667</ele><time>2026-05-01T13:25:31Z</time></trkpt><trkpt lat="45.88953754195251" lon="11.770745653053272"><ele>1474.3333333333335</ele><time>2026-05-01T13:25:32Z</time></trkpt><trkpt lat="45.88960046189568" lon="11.77072563356224"><ele>1474.0</ele><time>2026-05-01T13:25:33Z</time></trkpt><trkpt lat="45.88969116268592" lon="11.770690475879746"><ele>1473.6666666666667</ele><time>2026-05-01T13:25:35Z</time></trkpt><trkpt lat="45.88976071806511" lon="11.770669104441547"><ele>1473.3333333333333</ele><time>2026-05-01T13:26:39.999Z</time></trkpt><trkpt lat="45.88985125169726" lon="11.770625684104616"><ele>1473.0</ele><time>2026-05-01T13:26:41.999Z</time></trkpt><trkpt lat="45.88997618744544" lon="11.77055521176709"><ele>1472.9999999999998</ele><time>2026-05-01T13:26:43.999Z</time></trkpt><trkpt lat="45.89004649902222" lon="11.770499361279189"><ele>1473.0</ele><time>2026-05-01T13:26:44.999Z</time></trkpt><trkpt lat="45.89011166380217" lon="11.770437615400967"><ele>1473.0</ele><time>2026-05-01T13:26:45.999Z</time></trkpt><trkpt lat="45.89017027639299" lon="11.770375233994272"><ele>1473.0</ele><time>2026-05-01T13:26:46.999Z</time></trkpt><trkpt lat="45.89022506197274" lon="11.770310480044005"><ele>1473.0</ele><time>2026-05-01T13:26:47.999Z</time></trkpt><trkpt lat="45.890275728321875" lon="11.770242979506598"><ele>1472.9999999999998</ele><time>2026-05-01T13:26:48.999Z</time></trkpt><trkpt lat="45.8903267616254" lon="11.770184321957256"><ele>1473.0</ele><time>2026-05-01T13:26:49.999Z</time></trkpt><trkpt lat="45.89041563304978" lon="11.77007605314975"><ele>1470.4285714285713</ele><time>2026-05-01T13:26:51.999Z</time></trkpt><trkpt lat="45.89046824663714" lon="11.770024371442657"><ele>1467.857142857143</ele><time>2026-05-01T13:26:52.999Z</time></trkpt><trkpt lat="45.890520732143806" lon="11.769972317348712"><ele>1465.2857142857142</ele><time>2026-05-01T13:26:53.999Z</time></trkpt><trkpt lat="45.890578590708074" lon="11.769910327369407"><ele>1462.7142857142858</ele><time>2026-05-01T13:26:54.999Z</time></trkpt><trkpt lat="45.89064176088796" lon="11.76984562083672"><ele>1460.142857142857</ele><time>2026-05-01T13:26:55.999Z</time></trkpt><trkpt lat="45.890705123839716" lon="11.76978227505139"><ele>1457.5714285714284</ele><time>2026-05-01T13:26:56.999Z</time></trkpt><trkpt lat="45.890769725345336" lon="11.769719593575708"><ele>1455.0</ele><time>2026-05-01T13:26:57.999Z</time></trkpt><trkpt lat="45.89083391620957" lon="11.769656432713775"><ele>1455.0</ele><time>2026-05-01T13:26:58.999Z</time></trkpt><trkpt lat="45.89089843119488" lon="11.769592992984707"><ele>1455.0</ele><time>2026-05-01T13:26:59.999Z</time></trkpt><trkpt lat="45.89096238189774" lon="11.76952795333381"><ele>1455.0</ele><time>2026-05-01T13:27:00.999Z</time></trkpt><trkpt lat="45.891028052633274" lon="11.769463336964156"><ele>1455.0</ele><time>2026-05-01T13:27:01.999Z</time></trkpt><trkpt lat="45.891095908119325" lon="11.769395387714253"><ele>1455.0</ele><time>2026-05-01T13:27:02.999Z</time></trkpt><trkpt lat="45.89116418512746" lon="11.769325803878164"><ele>1455.0</ele><time>2026-05-01T13:27:03.999Z</time></trkpt><trkpt lat="45.8912345157946" lon="11.769260662559807"><ele>1452.6666666666667</ele><time>2026-05-01T13:27:04.999Z</time></trkpt><trkpt lat="45.89130299311239" lon="11.76919399344651"><ele>1450.3333333333333</ele><time>2026-05-01T13:27:05.999Z</time></trkpt><trkpt lat="45.89136814017505" lon="11.76912761548849"><ele>1448.0</ele><time>2026-05-01T13:27:06.999Z</time></trkpt><trkpt lat="45.89143082419868" lon="11.769060226785829"><ele>1445.6666666666665</ele><time>2026-05-01T13:27:07.999Z</time></trkpt><trkpt lat="45.8914912677355" lon="11.768998877442435"><ele>1443.3333333333333</ele><time>2026-05-01T13:27:08.999Z</time></trkpt><trkpt lat="45.891578844576244" lon="11.768926109595615"><ele>1441.0</ele><time>2026-05-01T13:27:10.999Z</time></trkpt><trkpt lat="45.891685765642485" lon="11.768890006665403"><ele>1441.0</ele><time>2026-05-01T13:27:13Z</time></trkpt><trkpt lat="45.89174991337449" lon="11.768897745975545"><ele>1441.0</ele><time>2026-05-01T13:27:14Z</time></trkpt><trkpt lat="45.89181182450183" lon="11.768943679710258"><ele>1441.0</ele><time>2026-05-01T13:27:15Z</time></trkpt><trkpt lat="45.8918549342124" lon="11.7690149770846"><ele>1441.0</ele><time>2026-05-01T13:27:16Z</time></trkpt><trkpt lat="45.89188226982269" lon="11.769098397548342"><ele>1441.0</ele><time>2026-05-01T13:27:17Z</time></trkpt><trkpt lat="45.89188773408726" lon="11.769201481946075"><ele>1441.0</ele><time>2026-05-01T13:27:18Z</time></trkpt><trkpt lat="45.891866151796165" lon="11.769320604838468"><ele>1441.0</ele><time>2026-05-01T13:27:19Z</time></trkpt><trkpt lat="45.89182452423403" lon="11.76944021804239"><ele>1440.0</ele><time>2026-05-01T13:27:20Z</time></trkpt><trkpt lat="45.891769893459255" lon="11.769560627516707"><ele>1439.0</ele><time>2026-05-01T13:27:21Z</time></trkpt><trkpt lat="45.89170675763568" lon="11.76968176461703"><ele>1438.0</ele><time>2026-05-01T13:27:22Z</time></trkpt><trkpt lat="45.89164471170464" lon="11.769792397553521"><ele>1437.0</ele><time>2026-05-01T13:27:23Z</time></trkpt><trkpt lat="45.891591863042876" lon="11.769873699754234"><ele>1436.0</ele><time>2026-05-01T13:27:24Z</time></trkpt><trkpt lat="45.89152194984935" lon="11.769972735228377"><ele>1436.0</ele><time>2026-05-01T13:27:26Z</time></trkpt><trkpt lat="45.89149048255676" lon="11.77005574210379"><ele>1436.0</ele><time>2026-05-01T13:29:52Z</time></trkpt><trkpt lat="45.89145674217794" lon="11.770145563301712"><ele>1436.0</ele><time>2026-05-01T13:30:32Z</time></trkpt><trkpt lat="45.891417369773926" lon="11.77025132226022"><ele>1436.0</ele><time>2026-05-01T13:30:34Z</time></trkpt><trkpt lat="45.8913774085426" lon="11.770380340077697"><ele>1436.0</ele><time>2026-05-01T13:30:36Z</time></trkpt><trkpt lat="45.891327054492486" lon="11.770565965711315"><ele>1432.1999999999998</ele><time>2026-05-01T13:30:38Z</time></trkpt><trkpt lat="45.8912681309338" lon="11.770668895184581"><ele>1428.3999999999999</ele><time>2026-05-01T13:30:39Z</time></trkpt><trkpt lat="45.891225677674015" lon="11.770799631664465"><ele>1424.6</ele><time>2026-05-01T13:30:39.999Z</time></trkpt><trkpt lat="45.89117755189837" lon="11.770941331601044"><ele>1420.8</ele><time>2026-05-01T13:30:40.999Z</time></trkpt><trkpt lat="45.89112441119574" lon="11.77108997766511"><ele>1417.0</ele><time>2026-05-01T13:30:41.999Z</time></trkpt><trkpt lat="45.891061039184635" lon="11.771263803248095"><ele>1414.1999999999998</ele><time>2026-05-01T13:30:42.999Z</time></trkpt><trkpt lat="45.89099590637208" lon="11.771432342810117"><ele>1411.4</ele><time>2026-05-01T13:30:43.999Z</time></trkpt><trkpt lat="45.89093856606758" lon="11.77157241698979"><ele>1408.6</ele><time>2026-05-01T13:30:44.999Z</time></trkpt><trkpt lat="45.89089450366861" lon="11.771693720962928"><ele>1405.8000000000002</ele><time>2026-05-01T13:30:45.999Z</time></trkpt><trkpt lat="45.89086146274271" lon="11.771802576903319"><ele>1403.0</ele><time>2026-05-01T13:30:46.999Z</time></trkpt><trkpt lat="45.89085797243079" lon="11.771911834308272"><ele>1404.1666666666667</ele><time>2026-05-01T13:30:47.999Z</time></trkpt><trkpt lat="45.89084295944209" lon="11.772008028463134"><ele>1405.3333333333335</ele><time>2026-05-01T13:30:48.999Z</time></trkpt><trkpt lat="45.89087536476883" lon="11.772114195481805"><ele>1406.5</ele><time>2026-05-01T13:30:49.999Z</time></trkpt><trkpt lat="45.89091305126687" lon="11.772223319571506"><ele>1407.6666666666667</ele><time>2026-05-01T13:30:50.999Z</time></trkpt><trkpt lat="45.89097465031409" lon="11.772322663062756"><ele>1408.8333333333333</ele><time>2026-05-01T13:30:51.999Z</time></trkpt><trkpt lat="45.89105427940805" lon="11.772400735018683"><ele>1410.0</ele><time>2026-05-01T13:30:52.999Z</time></trkpt><trkpt lat="45.89113137650228" lon="11.772494118818436"><ele>1410.0</ele><time>2026-05-01T13:30:53.999Z</time></trkpt><trkpt lat="45.89121592515934" lon="11.772581214247626"><ele>1410.0</ele><time>2026-05-01T13:30:54.999Z</time></trkpt><trkpt lat="45.89129617750764" lon="11.772652112133665"><ele>1410.0</ele><time>2026-05-01T13:30:55.999Z</time></trkpt><trkpt lat="45.89136903032491" lon="11.772754863295493"><ele>1410.0</ele><time>2026-05-01T13:30:56.999Z</time></trkpt><trkpt lat="45.89141553609956" lon="11.772881066062748"><ele>1410.0</ele><time>2026-05-01T13:30:57.999Z</time></trkpt><trkpt lat="45.89145782365298" lon="11.773020762393287"><ele>1411.8</ele><time>2026-05-01T13:30:58.999Z</time></trkpt><trkpt lat="45.89150081521825" lon="11.773163017003004"><ele>1413.6</ele><time>2026-05-01T13:30:59.999Z</time></trkpt><trkpt lat="45.891546517301016" lon="11.773298222399417"><ele>1415.4</ele><time>2026-05-01T13:31:00.999Z</time></trkpt><trkpt lat="45.89160295133549" lon="11.773423830048133"><ele>1417.2</ele><time>2026-05-01T13:31:01.999Z</time></trkpt><trkpt lat="45.8916951502009" lon="11.773524177428191"><ele>1419.0</ele><time>2026-05-01T13:31:02.999Z</time></trkpt><trkpt lat="45.89180329711568" lon="11.773603133926043"><ele>1419.0</ele><time>2026-05-01T13:31:03.999Z</time></trkpt><trkpt lat="45.89190560176002" lon="11.77367636462686"><ele>1419.0</ele><time>2026-05-01T13:31:04.999Z</time></trkpt><trkpt lat="45.89200085921785" lon="11.773746834829739"><ele>1419.0</ele><time>2026-05-01T13:31:05.999Z</time></trkpt><trkpt lat="45.89209300891271" lon="11.773817313895654"><ele>1419.0</ele><time>2026-05-01T13:31:06.999Z</time></trkpt><trkpt lat="45.89218093357845" lon="11.773888937967497"><ele>1419.0</ele><time>2026-05-01T13:31:07.999Z</time></trkpt><trkpt lat="45.8922644693151" lon="11.773968146059158"><ele>1419.0</ele><time>2026-05-01T13:31:08.999Z</time></trkpt><trkpt lat="45.892348518423404" lon="11.774057363799164"><ele>1419.0</ele><time>2026-05-01T13:31:09.999Z</time></trkpt><trkpt lat="45.89243348050324" lon="11.774155959497326"><ele>1419.0</ele><time>2026-05-01T13:31:10.999Z</time></trkpt><trkpt lat="45.892529821425796" lon="11.774268855944985"><ele>1419.0</ele><time>2026-05-01T13:31:11.999Z</time></trkpt><trkpt lat="45.892627893394724" lon="11.774383907599711"><ele>1416.25</ele><time>2026-05-01T13:31:12.999Z</time></trkpt><trkpt lat="45.892712920240584" lon="11.774484254955274"><ele>1413.5</ele><time>2026-05-01T13:31:13.999Z</time></trkpt><trkpt lat="45.89280217654271" lon="11.774583770948137"><ele>1410.75</ele><time>2026-05-01T13:31:14.999Z</time></trkpt><trkpt lat="45.892897602717795" lon="11.774681992589784"><ele>1408.0</ele><time>2026-05-01T13:31:15.999Z</time></trkpt><trkpt lat="45.89299524055822" lon="11.774766460271415"><ele>1408.0</ele><time>2026-05-01T13:31:16.999Z</time></trkpt><trkpt lat="45.89309346495929" lon="11.774844037662783"><ele>1408.0</ele><time>2026-05-01T13:31:17.999Z</time></trkpt><trkpt lat="45.89319963380701" lon="11.774926081892183"><ele>1408.0</ele><time>2026-05-01T13:31:18.999Z</time></trkpt><trkpt lat="45.89330792444089" lon="11.775006313141887"><ele>1408.0</ele><time>2026-05-01T13:31:19.999Z</time></trkpt><trkpt lat="45.89340626383397" lon="11.775079464005943"><ele>1404.6000000000001</ele><time>2026-05-01T13:31:20.999Z</time></trkpt><trkpt lat="45.89349810733415" lon="11.775145866317656"><ele>1401.2</ele><time>2026-05-01T13:31:21.999Z</time></trkpt><trkpt lat="45.8935920998408" lon="11.77520202259817"><ele>1397.8</ele><time>2026-05-01T13:31:22.999Z</time></trkpt><trkpt lat="45.893690584744846" lon="11.775244644481868"><ele>1394.4</ele><time>2026-05-01T13:31:23.999Z</time></trkpt><trkpt lat="45.89378644230192" lon="11.77528412632613"><ele>1391.0</ele><time>2026-05-01T13:31:25Z</time></trkpt><trkpt lat="45.89387427119196" lon="11.775318688108458"><ele>1391.0</ele><time>2026-05-01T13:31:26Z</time></trkpt><trkpt lat="45.8939623068004" lon="11.7753513635251"><ele>1391.0</ele><time>2026-05-01T13:31:27Z</time></trkpt><trkpt lat="45.894047918155955" lon="11.775387999651448"><ele>1391.0</ele><time>2026-05-01T13:31:28Z</time></trkpt><trkpt lat="45.8941319317122" lon="11.775445408838857"><ele>1391.0</ele><time>2026-05-01T13:31:29Z</time></trkpt><trkpt lat="45.894214115716885" lon="11.775527241504074"><ele>1391.0</ele><time>2026-05-01T13:31:30Z</time></trkpt><trkpt lat="45.89429616472584" lon="11.775626536829218"><ele>1390.6</ele><time>2026-05-01T13:31:31Z</time></trkpt><trkpt lat="45.894379080632454" lon="11.775728514414562"><ele>1390.1999999999998</ele><time>2026-05-01T13:31:32Z</time></trkpt><trkpt lat="45.89445517208853" lon="11.775834271193027"><ele>1389.8000000000002</ele><time>2026-05-01T13:31:33Z</time></trkpt><trkpt lat="45.89452039241455" lon="11.77594929988097"><ele>1389.4</ele><time>2026-05-01T13:31:34Z</time></trkpt><trkpt lat="45.8945913503672" lon="11.776065380974897"><ele>1389.0</ele><time>2026-05-01T13:31:35Z</time></trkpt><trkpt lat="45.89466330312905" lon="11.776181342128913"><ele>1389.0</ele><time>2026-05-01T13:31:36Z</time></trkpt><trkpt lat="45.8947357998914" lon="11.776295642102161"><ele>1389.0</ele><time>2026-05-01T13:31:37Z</time></trkpt><trkpt lat="45.89479901102051" lon="11.776405490177853"><ele>1389.0</ele><time>2026-05-01T13:31:38Z</time></trkpt><trkpt lat="45.89485135543473" lon="11.776510589111343"><ele>1389.0</ele><time>2026-05-01T13:31:39Z</time></trkpt><trkpt lat="45.89490046132581" lon="11.776613616272657"><ele>1389.0</ele><time>2026-05-01T13:31:40Z</time></trkpt><trkpt lat="45.894951127515945" lon="11.77671617806202"><ele>1389.0</ele><time>2026-05-01T13:31:41Z</time></trkpt><trkpt lat="45.89499548960259" lon="11.776826281538948"><ele>1389.0</ele><time>2026-05-01T13:31:42Z</time></trkpt><trkpt lat="45.895020582057896" lon="11.776964231445312"><ele>1389.0</ele><time>2026-05-01T13:31:43Z</time></trkpt><trkpt lat="45.89503129574102" lon="11.77711367674759"><ele>1389.0</ele><time>2026-05-01T13:31:44Z</time></trkpt><trkpt lat="45.894994255170054" lon="11.77726073540281"><ele>1389.0</ele><time>2026-05-01T13:31:45Z</time></trkpt><trkpt lat="45.8949493761741" lon="11.777441399086431"><ele>1392.0</ele><time>2026-05-01T13:31:46Z</time></trkpt><trkpt lat="45.894881831887986" lon="11.777645560622974"><ele>1395.0</ele><time>2026-05-01T13:31:47Z</time></trkpt><trkpt lat="45.89482301102926" lon="11.777870248211947"><ele>1398.0</ele><time>2026-05-01T13:31:48Z</time></trkpt><trkpt lat="45.89480201456269" lon="11.778072354149394"><ele>1399.0</ele><time>2026-05-01T13:31:49Z</time></trkpt><trkpt lat="45.89479816005418" lon="11.778264591326957"><ele>1400.0</ele><time>2026-05-01T13:31:50Z</time></trkpt><trkpt lat="45.89479955827638" lon="11.778446909151718"><ele>1401.0</ele><time>2026-05-01T13:31:51Z</time></trkpt><trkpt lat="45.89481781840448" lon="11.778616747042406"><ele>1402.0</ele><time>2026-05-01T13:31:52Z</time></trkpt><trkpt lat="45.8948529498959" lon="11.77878795001582"><ele>1402.0</ele><time>2026-05-01T13:31:53Z</time></trkpt><trkpt lat="45.89489970343708" lon="11.778965389595948"><ele>1402.0</ele><time>2026-05-01T13:31:54Z</time></trkpt><trkpt lat="45.89496794052703" lon="11.779144908676397"><ele>1402.0</ele><time>2026-05-01T13:31:55Z</time></trkpt><trkpt lat="45.89505000170231" lon="11.779305610631862"><ele>1402.0</ele><time>2026-05-01T13:31:56Z</time></trkpt><trkpt lat="45.8951280826114" lon="11.779433188256526"><ele>1402.25</ele><time>2026-05-01T13:31:57Z</time></trkpt><trkpt lat="45.89520061807321" lon="11.779552878136915"><ele>1402.5</ele><time>2026-05-01T13:31:58Z</time></trkpt><trkpt lat="45.8952860857695" lon="11.779667666372472"><ele>1402.75</ele><time>2026-05-01T13:31:59Z</time></trkpt><trkpt lat="45.89538080394774" lon="11.779771948207179"><ele>1403.0</ele><time>2026-05-01T13:32:00Z</time></trkpt><trkpt lat="45.89548505283266" lon="11.779858412923828"><ele>1403.0</ele><time>2026-05-01T13:32:01Z</time></trkpt><trkpt lat="45.89559702204342" lon="11.77991107628091"><ele>1403.0</ele><time>2026-05-01T13:32:02Z</time></trkpt><trkpt lat="45.895712363469805" lon="11.779941609859124"><ele>1403.0</ele><time>2026-05-01T13:32:03Z</time></trkpt><trkpt lat="45.89583460795627" lon="11.779944033491688"><ele>1403.0</ele><time>2026-05-01T13:32:04Z</time></trkpt><trkpt lat="45.89596654218115" lon="11.779910591781652"><ele>1404.5</ele><time>2026-05-01T13:32:05Z</time></trkpt><trkpt lat="45.89610263392499" lon="11.779860064989167"><ele>1406.0</ele><time>2026-05-01T13:32:06Z</time></trkpt><trkpt lat="45.89624168879225" lon="11.779818471737032"><ele>1407.5</ele><time>2026-05-01T13:32:07Z</time></trkpt><trkpt lat="45.89638047339814" lon="11.779809603114058"><ele>1409.0</ele><time>2026-05-01T13:32:08Z</time></trkpt><trkpt lat="45.89652217080736" lon="11.779838974039912"><ele>1409.0</ele><time>2026-05-01T13:32:09Z</time></trkpt><trkpt lat="45.896657364258395" lon="11.779885432998118"><ele>1409.0</ele><time>2026-05-01T13:32:10Z</time></trkpt><trkpt lat="45.896790567439965" lon="11.779956587020393"><ele>1409.0</ele><time>2026-05-01T13:32:11Z</time></trkpt><trkpt lat="45.896923849120675" lon="11.78003165930109"><ele>1409.0</ele><time>2026-05-01T13:32:12Z</time></trkpt><trkpt lat="45.8970526981644" lon="11.780094776512724"><ele>1413.0</ele><time>2026-05-01T13:32:13Z</time></trkpt><trkpt lat="45.897186745105216" lon="11.78013157448554"><ele>1417.0</ele><time>2026-05-01T13:32:14Z</time></trkpt><trkpt lat="45.897323818236465" lon="11.78014812192322"><ele>1421.0</ele><time>2026-05-01T13:32:15Z</time></trkpt><trkpt lat="45.897453334825634" lon="11.780157762389917"><ele>1425.0</ele><time>2026-05-01T13:32:16Z</time></trkpt><trkpt lat="45.897592039455866" lon="11.780140926380863"><ele>1427.0</ele><time>2026-05-01T13:32:17Z</time></trkpt><trkpt lat="45.897731097998495" lon="11.78011118416433"><ele>1429.0</ele><time>2026-05-01T13:32:18Z</time></trkpt><trkpt lat="45.8978740991896" lon="11.780083429353102"><ele>1431.0</ele><time>2026-05-01T13:32:19Z</time></trkpt><trkpt lat="45.89802438064745" lon="11.780066057028142"><ele>1433.0</ele><time>2026-05-01T13:32:20Z</time></trkpt><trkpt lat="45.898177003525646" lon="11.780062138050974"><ele>1433.0</ele><time>2026-05-01T13:32:21Z</time></trkpt><trkpt lat="45.89831577780509" lon="11.780076063359827"><ele>1433.0</ele><time>2026-05-01T13:32:22Z</time></trkpt><trkpt lat="45.89843978299788" lon="11.780106134741025"><ele>1433.0</ele><time>2026-05-01T13:32:23Z</time></trkpt><trkpt lat="45.89855202069385" lon="11.780168048807004"><ele>1433.0</ele><time>2026-05-01T13:32:24Z</time></trkpt><trkpt lat="45.89866348536782" lon="11.780244580395877"><ele>1430.5</ele><time>2026-05-01T13:32:25Z</time></trkpt><trkpt lat="45.89877326934765" lon="11.780329785719958"><ele>1428.0</ele><time>2026-05-01T13:32:26Z</time></trkpt><trkpt lat="45.8988778906587" lon="11.780427600580582"><ele>1425.5</ele><time>2026-05-01T13:32:27Z</time></trkpt><trkpt lat="45.89896239697132" lon="11.7805119827961"><ele>1423.0</ele><time>2026-05-01T13:32:28Z</time></trkpt><trkpt lat="45.8990527080996" lon="11.780589278757034"><ele>1423.0</ele><time>2026-05-01T13:32:29Z</time></trkpt><trkpt lat="45.8991517220364" lon="11.780661482643856"><ele>1423.0</ele><time>2026-05-01T13:32:30Z</time></trkpt><trkpt lat="45.89925860722343" lon="11.780708909264355"><ele>1423.0</ele><time>2026-05-01T13:32:31Z</time></trkpt><trkpt lat="45.89937750813619" lon="11.780738694363812"><ele>1423.0</ele><time>2026-05-01T13:32:32Z</time></trkpt><trkpt lat="45.899505179184686" lon="11.780757213530313"><ele>1425.25</ele><time>2026-05-01T13:32:33Z</time></trkpt><trkpt lat="45.89964137762949" lon="11.780760056246784"><ele>1427.5</ele><time>2026-05-01T13:32:34Z</time></trkpt><trkpt lat="45.899788302717205" lon="11.780760535901138"><ele>1429.75</ele><time>2026-05-01T13:32:35Z</time></trkpt><trkpt lat="45.89994769884085" lon="11.780773399249428"><ele>1432.0</ele><time>2026-05-01T13:32:36Z</time></trkpt><trkpt lat="45.90008043201029" lon="11.78078588938402"><ele>1433.0</ele><time>2026-05-01T13:32:37Z</time></trkpt><trkpt lat="45.900220131843675" lon="11.780799625819803"><ele>1434.0</ele><time>2026-05-01T13:32:38Z</time></trkpt><trkpt lat="45.90035679283267" lon="11.780813847607316"><ele>1435.0</ele><time>2026-05-01T13:32:39Z</time></trkpt><trkpt lat="45.9004909611902" lon="11.780820724939533"><ele>1436.0</ele><time>2026-05-01T13:32:40Z</time></trkpt><trkpt lat="45.900614104353764" lon="11.780828972916778"><ele>1436.0</ele><time>2026-05-01T13:32:41Z</time></trkpt><trkpt lat="45.900726917976634" lon="11.780839457318327"><ele>1436.0</ele><time>2026-05-01T13:32:42Z</time></trkpt><trkpt lat="45.90083574710671" lon="11.78084954234767"><ele>1436.0</ele><time>2026-05-01T13:32:43Z</time></trkpt><trkpt lat="45.90094415828946" lon="11.780858954079484"><ele>1436.0</ele><time>2026-05-01T13:32:44Z</time></trkpt><trkpt lat="45.901056579557114" lon="11.780868704811871"><ele>1436.0</ele><time>2026-05-01T13:32:45Z</time></trkpt><trkpt lat="45.90117595347201" lon="11.780876445317338"><ele>1436.25</ele><time>2026-05-01T13:32:45.999Z</time></trkpt><trkpt lat="45.90130705551644" lon="11.780890783566408"><ele>1436.5</ele><time>2026-05-01T13:32:46.999Z</time></trkpt><trkpt lat="45.90143805730807" lon="11.780919396816685"><ele>1436.75</ele><time>2026-05-01T13:32:47.999Z</time></trkpt><trkpt lat="45.90156919666634" lon="11.780965913408533"><ele>1437.0</ele><time>2026-05-01T13:32:48.999Z</time></trkpt><trkpt lat="45.90170379492722" lon="11.781031399341474"><ele>1437.5</ele><time>2026-05-01T13:32:49.999Z</time></trkpt><trkpt lat="45.901837942057846" lon="11.781094349057796"><ele>1438.0</ele><time>2026-05-01T13:32:50.999Z</time></trkpt><trkpt lat="45.90195245097739" lon="11.781157033270883"><ele>1438.5</ele><time>2026-05-01T13:32:51.999Z</time></trkpt><trkpt lat="45.90206256737632" lon="11.781211416105785"><ele>1439.0</ele><time>2026-05-01T13:32:52.999Z</time></trkpt><trkpt lat="45.90218232545976" lon="11.78127601611738"><ele>1439.0</ele><time>2026-05-01T13:32:53.999Z</time></trkpt><trkpt lat="45.90230284342127" lon="11.781353328182295"><ele>1439.0</ele><time>2026-05-01T13:32:54.999Z</time></trkpt><trkpt lat="45.90242243227558" lon="11.781441716030015"><ele>1439.0</ele><time>2026-05-01T13:32:55.999Z</time></trkpt><trkpt lat="45.90253513128678" lon="11.781533259962597"><ele>1439.0</ele><time>2026-05-01T13:32:56.999Z</time></trkpt><trkpt lat="45.90263996855233" lon="11.781630575120266"><ele>1442.25</ele><time>2026-05-01T13:32:57.999Z</time></trkpt><trkpt lat="45.90274347177689" lon="11.78174117863627"><ele>1445.5</ele><time>2026-05-01T13:32:58.999Z</time></trkpt><trkpt lat="45.902839530719255" lon="11.781869018320986"><ele>1448.75</ele><time>2026-05-01T13:32:59.999Z</time></trkpt><trkpt lat="45.90292702968518" lon="11.782028010104373"><ele>1452.0</ele><time>2026-05-01T13:33:00.999Z</time></trkpt><trkpt lat="45.903008188035464" lon="11.782200352603946"><ele>1452.0</ele><time>2026-05-01T13:33:01.999Z</time></trkpt><trkpt lat="45.90308798203308" lon="11.782384535842214"><ele>1452.0</ele><time>2026-05-01T13:33:02.999Z</time></trkpt><trkpt lat="45.903158042087604" lon="11.782539989063412"><ele>1452.0</ele><time>2026-05-01T13:33:03.999Z</time></trkpt><trkpt lat="45.90321317566961" lon="11.782674183529785"><ele>1452.0</ele><time>2026-05-01T13:33:04.999Z</time></trkpt><trkpt lat="45.903270345313175" lon="11.78281749905051"><ele>1450.25</ele><time>2026-05-01T13:33:05.999Z</time></trkpt><trkpt lat="45.9033100534015" lon="11.782986602199962"><ele>1448.5</ele><time>2026-05-01T13:33:06.999Z</time></trkpt><trkpt lat="45.90332671456685" lon="11.783164112501321"><ele>1446.75</ele><time>2026-05-01T13:33:07.999Z</time></trkpt><trkpt lat="45.90334089086818" lon="11.783328196128865"><ele>1445.0</ele><time>2026-05-01T13:33:08.999Z</time></trkpt><trkpt lat="45.90335585306739" lon="11.783454835492915"><ele>1445.0</ele><time>2026-05-01T13:33:09.999Z</time></trkpt><trkpt lat="45.90337515376351" lon="11.783554487825437"><ele>1445.0</ele><time>2026-05-01T13:33:10.999Z</time></trkpt><trkpt lat="45.903396843419685" lon="11.783641584584737"><ele>1445.0</ele><time>2026-05-01T13:33:11.999Z</time></trkpt><trkpt lat="45.90348319748055" lon="11.783767867207136"><ele>1445.0</ele><time>2026-05-01T13:33:13.999Z</time></trkpt><trkpt lat="45.90355238580133" lon="11.783798107108773"><ele>1445.0</ele><time>2026-05-01T13:33:14.999Z</time></trkpt><trkpt lat="45.903629486586496" lon="11.783825843047607"><ele>1445.0</ele><time>2026-05-01T13:33:15.999Z</time></trkpt><trkpt lat="45.903717158589906" lon="11.783854842533936"><ele>1445.0</ele><time>2026-05-01T13:33:16.999Z</time></trkpt><trkpt lat="45.90381216155505" lon="11.783863466654422"><ele>1445.0</ele><time>2026-05-01T13:33:17.999Z</time></trkpt><trkpt lat="45.90390025163089" lon="11.78383868022574"><ele>1445.0</ele><time>2026-05-01T13:33:18.999Z</time></trkpt><trkpt lat="45.90397460802657" lon="11.783779652141424"><ele>1445.0</ele><time>2026-05-01T13:33:19.999Z</time></trkpt><trkpt lat="45.90402263033135" lon="11.783680459595097"><ele>1445.0</ele><time>2026-05-01T13:33:20.999Z</time></trkpt><trkpt lat="45.9040435013718" lon="11.783555988933442"><ele>1445.0</ele><time>2026-05-01T13:33:21.999Z</time></trkpt><trkpt lat="45.90404990139154" lon="11.783417734502658"><ele>1446.8</ele><time>2026-05-01T13:33:22.999Z</time></trkpt><trkpt lat="45.904065994993225" lon="11.783284111484278"><ele>1448.6</ele><time>2026-05-01T13:33:23.999Z</time></trkpt><trkpt lat="45.90408582065239" lon="11.783155864159445"><ele>1450.4</ele><time>2026-05-01T13:33:24.999Z</time></trkpt><trkpt lat="45.904113224649045" lon="11.783039389247298"><ele>1452.2</ele><time>2026-05-01T13:33:25.999Z</time></trkpt><trkpt lat="45.90417126258573" lon="11.782941323723536"><ele>1454.0</ele><time>2026-05-01T13:33:26.999Z</time></trkpt><trkpt lat="45.9042171526583" lon="11.782816683927845"><ele>1454.8000000000002</ele><time>2026-05-01T13:33:27.999Z</time></trkpt><trkpt lat="45.90428775723624" lon="11.782710226770385"><ele>1455.6000000000001</ele><time>2026-05-01T13:33:28.999Z</time></trkpt><trkpt lat="45.90435681453948" lon="11.782607459947064"><ele>1456.4</ele><time>2026-05-01T13:33:29.999Z</time></trkpt><trkpt lat="45.904443826986025" lon="11.782516111190576"><ele>1457.2</ele><time>2026-05-01T13:33:31Z</time></trkpt><trkpt lat="45.90453882364069" lon="11.782460829222236"><ele>1458.0</ele><time>2026-05-01T13:33:32Z</time></trkpt><trkpt lat="45.90464311748866" lon="11.78243852204399"><ele>1458.0</ele><time>2026-05-01T13:33:33Z</time></trkpt><trkpt lat="45.90473560478012" lon="11.782422679750583"><ele>1458.0</ele><time>2026-05-01T13:33:34Z</time></trkpt><trkpt lat="45.9048072459834" lon="11.782398683112119"><ele>1458.0</ele><time>2026-05-01T13:33:35Z</time></trkpt><trkpt lat="45.90487986621404" lon="11.782361108891106"><ele>1458.0</ele><time>2026-05-01T13:33:36Z</time></trkpt><trkpt lat="45.90495516560808" lon="11.782298282561545"><ele>1458.0</ele><time>2026-05-01T13:33:37Z</time></trkpt><trkpt lat="45.90502852796681" lon="11.782220912654124"><ele>1458.0</ele><time>2026-05-01T13:33:38Z</time></trkpt><trkpt lat="45.90509661789663" lon="11.782125779009412"><ele>1458.2</ele><time>2026-05-01T13:33:39Z</time></trkpt><trkpt lat="45.90516670698886" lon="11.782032573240231"><ele>1458.4</ele><time>2026-05-01T13:33:40Z</time></trkpt><trkpt lat="45.905254438563674" lon="11.781933435325488"><ele>1458.6000000000001</ele><time>2026-05-01T13:33:41Z</time></trkpt><trkpt lat="45.905349853433364" lon="11.781837607960535"><ele>1458.8000000000002</ele><time>2026-05-01T13:33:42Z</time></trkpt><trkpt lat="45.90544113669849" lon="11.781756577213335"><ele>1459.0</ele><time>2026-05-01T13:33:43Z</time></trkpt><trkpt lat="45.905534652281204" lon="11.781676182988427"><ele>1459.0</ele><time>2026-05-01T13:33:44Z</time></trkpt><trkpt lat="45.90563324967059" lon="11.781589911772354"><ele>1459.0</ele><time>2026-05-01T13:33:45Z</time></trkpt><trkpt lat="45.90573646127824" lon="11.781511580192497"><ele>1459.0</ele><time>2026-05-01T13:33:46Z</time></trkpt><trkpt lat="45.90583888410802" lon="11.78144833929795"><ele>1459.0</ele><time>2026-05-01T13:33:47Z</time></trkpt><trkpt lat="45.90593679190641" lon="11.781395109116879"><ele>1459.0</ele><time>2026-05-01T13:33:48Z</time></trkpt><trkpt lat="45.90603794810387" lon="11.781346428203234"><ele>1456.0</ele><time>2026-05-01T13:33:49Z</time></trkpt><trkpt lat="45.90614445435915" lon="11.781308625617818"><ele>1453.0</ele><time>2026-05-01T13:33:50Z</time></trkpt><trkpt lat="45.9062595716445" lon="11.78128514426045"><ele>1450.0</ele><time>2026-05-01T13:33:51Z</time></trkpt><trkpt lat="45.906383358337884" lon="11.781272747056134"><ele>1447.0</ele><time>2026-05-01T13:33:52Z</time></trkpt><trkpt lat="45.90651019561971" lon="11.781258610237538"><ele>1447.0</ele><time>2026-05-01T13:33:53Z</time></trkpt><trkpt lat="45.90663903868321" lon="11.781237316568488"><ele>1447.0</ele><time>2026-05-01T13:33:54Z</time></trkpt><trkpt lat="45.90676262168166" lon="11.781214017298296"><ele>1447.0</ele><time>2026-05-01T13:33:55Z</time></trkpt><trkpt lat="45.906877133001665" lon="11.781180639701649"><ele>1447.0</ele><time>2026-05-01T13:33:56Z</time></trkpt><trkpt lat="45.90699174938876" lon="11.78114218853161"><ele>1449.5</ele><time>2026-05-01T13:33:57Z</time></trkpt><trkpt lat="45.907109618470656" lon="11.781092648592914"><ele>1452.0</ele><time>2026-05-01T13:33:58Z</time></trkpt><trkpt lat="45.90723074376229" lon="11.781047512171739"><ele>1454.5</ele><time>2026-05-01T13:33:59Z</time></trkpt><trkpt lat="45.90735631914534" lon="11.781016001737047"><ele>1457.0</ele><time>2026-05-01T13:34:00Z</time></trkpt><trkpt lat="45.90748025346953" lon="11.780995943491204"><ele>1455.0</ele><time>2026-05-01T13:34:01Z</time></trkpt><trkpt lat="45.907603938446705" lon="11.780999519155866"><ele>1453.0</ele><time>2026-05-01T13:34:02Z</time></trkpt><trkpt lat="45.90772665596235" lon="11.781030712194623"><ele>1451.0</ele><time>2026-05-01T13:34:03Z</time></trkpt><trkpt lat="45.907852886949385" lon="11.781090314165137"><ele>1449.0</ele><time>2026-05-01T13:34:04Z</time></trkpt><trkpt lat="45.90796892025564" lon="11.781155763285685"><ele>1445.2</ele><time>2026-05-01T13:34:05Z</time></trkpt><trkpt lat="45.90808014209636" lon="11.781214099419998"><ele>1441.4</ele><time>2026-05-01T13:34:06Z</time></trkpt><trkpt lat="45.90818640668414" lon="11.781264156579343"><ele>1437.6</ele><time>2026-05-01T13:34:07Z</time></trkpt><trkpt lat="45.90828588529488" lon="11.781313188046367"><ele>1433.8</ele><time>2026-05-01T13:34:08Z</time></trkpt><trkpt lat="45.90838810870634" lon="11.78137839496407"><ele>1430.0</ele><time>2026-05-01T13:34:09Z</time></trkpt><trkpt lat="45.9084912904322" lon="11.781479332339273"><ele>1430.0</ele><time>2026-05-01T13:34:10Z</time></trkpt><trkpt lat="45.90856948492307" lon="11.781628248981345"><ele>1430.0</ele><time>2026-05-01T13:34:11Z</time></trkpt><trkpt lat="45.90865321075185" lon="11.781813481890765"><ele>1430.0</ele><time>2026-05-01T13:34:12Z</time></trkpt><trkpt lat="45.908753143532216" lon="11.782017240237879"><ele>1426.3333333333335</ele><time>2026-05-01T13:34:13Z</time></trkpt><trkpt lat="45.908867286053706" lon="11.782233062807196"><ele>1422.6666666666667</ele><time>2026-05-01T13:34:14Z</time></trkpt><trkpt lat="45.90899383545963" lon="11.78243681213177"><ele>1419.0</ele><time>2026-05-01T13:34:15Z</time></trkpt><trkpt lat="45.90912978057951" lon="11.782610671391767"><ele>1414.0</ele><time>2026-05-01T13:34:16Z</time></trkpt><trkpt lat="45.9092417436617" lon="11.782799185509985"><ele>1409.0</ele><time>2026-05-01T13:34:17Z</time></trkpt><trkpt lat="45.90934693000058" lon="11.78298074875064"><ele>1404.0</ele><time>2026-05-01T13:34:18Z</time></trkpt><trkpt lat="45.9094316838145" lon="11.783151698863785"><ele>1404.0</ele><time>2026-05-01T13:34:19Z</time></trkpt><trkpt lat="45.90948773955838" lon="11.783313497801831"><ele>1404.0</ele><time>2026-05-01T13:34:20Z</time></trkpt><trkpt lat="45.90952875466159" lon="11.783468764183867"><ele>1404.0</ele><time>2026-05-01T13:34:21Z</time></trkpt><trkpt lat="45.90956978812252" lon="11.78359674264479"><ele>1404.0</ele><time>2026-05-01T13:34:22Z</time></trkpt><trkpt lat="45.90962964328376" lon="11.783702114392812"><ele>1404.0</ele><time>2026-05-01T13:34:23Z</time></trkpt><trkpt lat="45.909714119458705" lon="11.783786579097557"><ele>1401.0</ele><time>2026-05-01T13:34:24Z</time></trkpt><trkpt lat="45.90982180602612" lon="11.783844853363384"><ele>1398.0</ele><time>2026-05-01T13:34:25Z</time></trkpt><trkpt lat="45.909945362314254" lon="11.783877883788723"><ele>1395.0</ele><time>2026-05-01T13:34:26Z</time></trkpt><trkpt lat="45.910079808405555" lon="11.783888990784616"><ele>1392.0</ele><time>2026-05-01T13:34:27Z</time></trkpt><trkpt lat="45.91021622666602" lon="11.783932145240929"><ele>1389.6666666666667</ele><time>2026-05-01T13:34:28Z</time></trkpt><trkpt lat="45.9103478757644" lon="11.784034731454732"><ele>1387.3333333333335</ele><time>2026-05-01T13:34:29Z</time></trkpt><trkpt lat="45.91044934042582" lon="11.784218278258862"><ele>1385.0</ele><time>2026-05-01T13:34:30Z</time></trkpt><trkpt lat="45.91058629273732" lon="11.78442182445652"><ele>1383.6666666666667</ele><time>2026-05-01T13:34:31Z</time></trkpt><trkpt lat="45.91072854557291" lon="11.78465217592992"><ele>1382.3333333333333</ele><time>2026-05-01T13:34:32Z</time></trkpt><trkpt lat="45.91087715905865" lon="11.784880021096921"><ele>1381.0</ele><time>2026-05-01T13:34:33Z</time></trkpt><trkpt lat="45.91102026477371" lon="11.785073381520943"><ele>1382.0</ele><time>2026-05-01T13:34:34Z</time></trkpt><trkpt lat="45.91114646389307" lon="11.78524382989386"><ele>1383.0</ele><time>2026-05-01T13:34:35Z</time></trkpt><trkpt lat="45.91126558476626" lon="11.78541109973079"><ele>1384.0</ele><time>2026-05-01T13:34:36Z</time></trkpt><trkpt lat="45.9113885863471" lon="11.785568545358668"><ele>1384.0</ele><time>2026-05-01T13:34:37Z</time></trkpt><trkpt lat="45.911517695780844" lon="11.785713491978433"><ele>1384.0</ele><time>2026-05-01T13:34:38Z</time></trkpt><trkpt lat="45.9116510425702" lon="11.785843998067627"><ele>1384.0</ele><time>2026-05-01T13:34:39Z</time></trkpt><trkpt lat="45.911787248759104" lon="11.78596915100584"><ele>1387.6666666666665</ele><time>2026-05-01T13:34:40Z</time></trkpt><trkpt lat="45.91192313800456" lon="11.786094874944263"><ele>1391.3333333333333</ele><time>2026-05-01T13:34:41Z</time></trkpt><trkpt lat="45.912060480173274" lon="11.78621555155851"><ele>1395.0</ele><time>2026-05-01T13:34:42Z</time></trkpt><trkpt lat="45.91220018890689" lon="11.786329156680345"><ele>1395.0</ele><time>2026-05-01T13:34:43Z</time></trkpt><trkpt lat="45.91233799388205" lon="11.786453659760689"><ele>1395.0</ele><time>2026-05-01T13:34:44Z</time></trkpt><trkpt lat="45.91246593792991" lon="11.786574366810017"><ele>1395.0</ele><time>2026-05-01T13:34:45Z</time></trkpt><trkpt lat="45.91258535029392" lon="11.786693363444778"><ele>1397.3333333333333</ele><time>2026-05-01T13:34:46Z</time></trkpt><trkpt lat="45.91270824673137" lon="11.78682079266571"><ele>1399.6666666666665</ele><time>2026-05-01T13:34:47Z</time></trkpt><trkpt lat="45.91283020253942" lon="11.786952060918383"><ele>1402.0</ele><time>2026-05-01T13:34:48Z</time></trkpt><trkpt lat="45.9129550165954" lon="11.787088265542643"><ele>1402.0</ele><time>2026-05-01T13:34:49Z</time></trkpt><trkpt lat="45.91308192033365" lon="11.787232417729452"><ele>1402.0</ele><time>2026-05-01T13:34:49.999Z</time></trkpt><trkpt lat="45.91320557354546" lon="11.787385228287905"><ele>1402.0</ele><time>2026-05-01T13:34:50.999Z</time></trkpt><trkpt lat="45.913342625089406" lon="11.787532238587856"><ele>1398.3333333333333</ele><time>2026-05-01T13:34:51.999Z</time></trkpt><trkpt lat="45.91348641326" lon="11.787663070933386"><ele>1394.6666666666667</ele><time>2026-05-01T13:34:52.999Z</time></trkpt><trkpt lat="45.91363251302993" lon="11.787774372274331"><ele>1391.0</ele><time>2026-05-01T13:34:53.999Z</time></trkpt><trkpt lat="45.91376709093661" lon="11.787871759736603"><ele>1396.5</ele><time>2026-05-01T13:34:54.999Z</time></trkpt><trkpt lat="45.91389026760789" lon="11.787971658863665"><ele>1402.0</ele><time>2026-05-01T13:34:55.999Z</time></trkpt><trkpt lat="45.91401708003262" lon="11.78807232018189"><ele>1407.5</ele><time>2026-05-01T13:34:56.999Z</time></trkpt><trkpt lat="45.91412902152152" lon="11.788190687540208"><ele>1413.0</ele><time>2026-05-01T13:34:57.999Z</time></trkpt><trkpt lat="45.914218537406434" lon="11.78834885044746"><ele>1410.6666666666667</ele><time>2026-05-01T13:34:58.999Z</time></trkpt><trkpt lat="45.91431792802243" lon="11.788519939941898"><ele>1408.3333333333335</ele><time>2026-05-01T13:34:59.999Z</time></trkpt><trkpt lat="45.914421979046516" lon="11.788706896599146"><ele>1406.0</ele><time>2026-05-01T13:35:00.999Z</time></trkpt><trkpt lat="45.914508525625585" lon="11.788882212563085"><ele>1406.0</ele><time>2026-05-01T13:35:01.999Z</time></trkpt><trkpt lat="45.91459186956012" lon="11.789029789997244"><ele>1406.0</ele><time>2026-05-01T13:35:02.999Z</time></trkpt><trkpt lat="45.914661589271184" lon="11.789162918847586"><ele>1406.0</ele><time>2026-05-01T13:35:03.999Z</time></trkpt><trkpt lat="45.9147538184459" lon="11.789278256865526"><ele>1406.0</ele><time>2026-05-01T13:35:04.999Z</time></trkpt><trkpt lat="45.91485653099704" lon="11.789370826883674"><ele>1408.75</ele><time>2026-05-01T13:35:05.999Z</time></trkpt><trkpt lat="45.91495945147481" lon="11.789458729220588"><ele>1411.5</ele><time>2026-05-01T13:35:06.999Z</time></trkpt><trkpt lat="45.91509356606457" lon="11.789490766578648"><ele>1414.25</ele><time>2026-05-01T13:35:07.999Z</time></trkpt><trkpt lat="45.91523339163295" lon="11.789497153991437"><ele>1417.0</ele><time>2026-05-01T13:35:08.999Z</time></trkpt><trkpt lat="45.91535068679886" lon="11.789511323019843"><ele>1417.0</ele><time>2026-05-01T13:35:09.999Z</time></trkpt><trkpt lat="45.91545469113976" lon="11.789541845504852"><ele>1417.0</ele><time>2026-05-01T13:35:10.999Z</time></trkpt><trkpt lat="45.91549977371358" lon="11.789650399236105"><ele>1417.0</ele><time>2026-05-01T13:35:11.999Z</time></trkpt><trkpt lat="45.9155663050242" lon="11.789755700976913"><ele>1417.0</ele><time>2026-05-01T13:35:12.999Z</time></trkpt><trkpt lat="45.915609497163466" lon="11.789864871040981"><ele>1417.0</ele><time>2026-05-01T13:35:13.999Z</time></trkpt><trkpt lat="45.91566371714728" lon="11.789951382115886"><ele>1417.0</ele><time>2026-05-01T13:35:14.999Z</time></trkpt><trkpt lat="45.915731070017" lon="11.790031770002368"><ele>1417.0</ele><time>2026-05-01T13:35:15.999Z</time></trkpt><trkpt lat="45.91580640113809" lon="11.790111280054937"><ele>1417.0</ele><time>2026-05-01T13:35:16.999Z</time></trkpt><trkpt lat="45.915906817051976" lon="11.790170063559938"><ele>1417.0</ele><time>2026-05-01T13:35:17.999Z</time></trkpt><trkpt lat="45.91602253901046" lon="11.79022057103151"><ele>1417.0</ele><time>2026-05-01T13:35:18.999Z</time></trkpt><trkpt lat="45.91615172227168" lon="11.790236523515057"><ele>1424.0</ele><time>2026-05-01T13:35:19.999Z</time></trkpt><trkpt lat="45.91629191225356" lon="11.790239168063914"><ele>1431.0</ele><time>2026-05-01T13:35:20.999Z</time></trkpt><trkpt lat="45.91644772805362" lon="11.790240106029845"><ele>1438.0</ele><time>2026-05-01T13:35:21.999Z</time></trkpt><trkpt lat="45.916605079175355" lon="11.790233746432518"><ele>1437.3333333333333</ele><time>2026-05-01T13:35:22.999Z</time></trkpt><trkpt lat="45.916764262343804" lon="11.790210850630043"><ele>1436.6666666666667</ele><time>2026-05-01T13:35:23.999Z</time></trkpt><trkpt lat="45.91692058169753" lon="11.79017828607178"><ele>1436.0</ele><time>2026-05-01T13:35:24.999Z</time></trkpt><trkpt lat="45.91705746214518" lon="11.79014664120198"><ele>1430.8</ele><time>2026-05-01T13:35:25.999Z</time></trkpt><trkpt lat="45.91716031391008" lon="11.790122069736272"><ele>1425.6</ele><time>2026-05-01T13:35:26.999Z</time></trkpt><trkpt lat="45.917267615473605" lon="11.790096435212371"><ele>1420.4</ele><time>2026-05-01T13:35:27.999Z</time></trkpt><trkpt lat="45.917375898023955" lon="11.790052109790572"><ele>1415.2</ele><time>2026-05-01T13:35:28.999Z</time></trkpt><trkpt lat="45.91748670599356" lon="11.790049677034297"><ele>1410.0</ele><time>2026-05-01T13:35:29.999Z</time></trkpt><trkpt lat="45.91760637367436" lon="11.790072520464538"><ele>1409.0</ele><time>2026-05-01T13:35:30.999Z</time></trkpt><trkpt lat="45.9177454008965" lon="11.790104865292303"><ele>1408.0</ele><time>2026-05-01T13:35:31.999Z</time></trkpt><trkpt lat="45.91789529617381" lon="11.790162077922789"><ele>1407.0</ele><time>2026-05-01T13:35:32.999Z</time></trkpt><trkpt lat="45.91804599793107" lon="11.790180110815585"><ele>1406.0</ele><time>2026-05-01T13:35:33.999Z</time></trkpt><trkpt lat="45.91818120962565" lon="11.79019102499307"><ele>1407.75</ele><time>2026-05-01T13:35:34.999Z</time></trkpt><trkpt lat="45.91831348503678" lon="11.790177188104893"><ele>1409.5</ele><time>2026-05-01T13:35:35.999Z</time></trkpt><trkpt lat="45.91844023812386" lon="11.790194950608191"><ele>1411.25</ele><time>2026-05-01T13:35:37Z</time></trkpt><trkpt lat="45.91856407827239" lon="11.79020145184105"><ele>1413.0</ele><time>2026-05-01T13:35:38Z</time></trkpt><trkpt lat="45.91868887709208" lon="11.790215860769923"><ele>1413.0</ele><time>2026-05-01T13:35:39Z</time></trkpt><trkpt lat="45.91881227736808" lon="11.790227181379791"><ele>1413.0</ele><time>2026-05-01T13:35:40Z</time></trkpt><trkpt lat="45.918939183192066" lon="11.790228773699404"><ele>1413.0</ele><time>2026-05-01T13:35:41Z</time></trkpt><trkpt lat="45.91907326782871" lon="11.790222822248992"><ele>1413.0</ele><time>2026-05-01T13:35:42Z</time></trkpt><trkpt lat="45.919209854304064" lon="11.790233131768133"><ele>1408.5</ele><time>2026-05-01T13:35:43Z</time></trkpt><trkpt lat="45.919346375138275" lon="11.790236457404255"><ele>1404.0</ele><time>2026-05-01T13:35:44Z</time></trkpt><trkpt lat="45.91948220322969" lon="11.790236840155027"><ele>1399.5</ele><time>2026-05-01T13:35:45Z</time></trkpt><trkpt lat="45.91960600552361" lon="11.790239624861245"><ele>1395.0</ele><time>2026-05-01T13:35:46Z</time></trkpt><trkpt lat="45.91972460606059" lon="11.790240894985214"><ele>1395.0</ele><time>2026-05-01T13:35:47Z</time></trkpt><trkpt lat="45.91984003867686" lon="11.790254088871325"><ele>1395.0</ele><time>2026-05-01T13:35:48Z</time></trkpt><trkpt lat="45.91995285474814" lon="11.790246118735013"><ele>1395.0</ele><time>2026-05-01T13:35:49Z</time></trkpt><trkpt lat="45.920063828728" lon="11.790212538306022"><ele>1395.0</ele><time>2026-05-01T13:35:50Z</time></trkpt><trkpt lat="45.920170186843144" lon="11.790152858785657"><ele>1392.5</ele><time>2026-05-01T13:35:51Z</time></trkpt><trkpt lat="45.92027369412782" lon="11.790074703868793"><ele>1390.0</ele><time>2026-05-01T13:35:52Z</time></trkpt><trkpt lat="45.920388366725525" lon="11.79000076917043"><ele>1387.5</ele><time>2026-05-01T13:35:53Z</time></trkpt><trkpt lat="45.9204912479823" lon="11.789897501650286"><ele>1385.0</ele><time>2026-05-01T13:35:54Z</time></trkpt><trkpt lat="45.92059464805693" lon="11.78983282017555"><ele>1385.0</ele><time>2026-05-01T13:35:55Z</time></trkpt><trkpt lat="45.920684594015086" lon="11.789769929441507"><ele>1385.0</ele><time>2026-05-01T13:35:56Z</time></trkpt><trkpt lat="45.920775288949876" lon="11.789708540007812"><ele>1385.0</ele><time>2026-05-01T13:35:57Z</time></trkpt><trkpt lat="45.920860916992666" lon="11.789647953737349"><ele>1385.0</ele><time>2026-05-01T13:35:58Z</time></trkpt><trkpt lat="45.92094733473933" lon="11.789585996253773"><ele>1385.0</ele><time>2026-05-01T13:35:59Z</time></trkpt><trkpt lat="45.92103366824605" lon="11.78950750069987"><ele>1383.5</ele><time>2026-05-01T13:36:00Z</time></trkpt><trkpt lat="45.92111775744582" lon="11.789412198146323"><ele>1382.0</ele><time>2026-05-01T13:36:01Z</time></trkpt><trkpt lat="45.9211958223528" lon="11.789292392184269"><ele>1380.5</ele><time>2026-05-01T13:36:02Z</time></trkpt><trkpt lat="45.92128303346115" lon="11.789168921015468"><ele>1379.0</ele><time>2026-05-01T13:36:03Z</time></trkpt><trkpt lat="45.92138528633857" lon="11.789061965175598"><ele>1379.0</ele><time>2026-05-01T13:36:04Z</time></trkpt><trkpt lat="45.92150322809116" lon="11.788977823799321"><ele>1379.0</ele><time>2026-05-01T13:36:05Z</time></trkpt><trkpt lat="45.92163318605886" lon="11.788916145419215"><ele>1379.0</ele><time>2026-05-01T13:36:06Z</time></trkpt><trkpt lat="45.9217670776703" lon="11.788881460182209"><ele>1379.0</ele><time>2026-05-01T13:36:07Z</time></trkpt><trkpt lat="45.92189428228882" lon="11.788873232696655"><ele>1379.0</ele><time>2026-05-01T13:36:08Z</time></trkpt><trkpt lat="45.92201490621719" lon="11.788901663669115"><ele>1379.0</ele><time>2026-05-01T13:36:09Z</time></trkpt><trkpt lat="45.92212657616336" lon="11.788937539634182"><ele>1379.0</ele><time>2026-05-01T13:36:10Z</time></trkpt><trkpt lat="45.922240212732476" lon="11.788971774114875"><ele>1379.0</ele><time>2026-05-01T13:36:11Z</time></trkpt><trkpt lat="45.92235734541703" lon="11.788994396944043"><ele>1379.0</ele><time>2026-05-01T13:36:12Z</time></trkpt><trkpt lat="45.92247646889133" lon="11.78900612506425"><ele>1379.0</ele><time>2026-05-01T13:36:13Z</time></trkpt><trkpt lat="45.92259241622704" lon="11.789006699493633"><ele>1379.0</ele><time>2026-05-01T13:36:14Z</time></trkpt><trkpt lat="45.92270683134585" lon="11.788983656034445"><ele>1379.0</ele><time>2026-05-01T13:36:15Z</time></trkpt><trkpt lat="45.92282861407519" lon="11.788938197079366"><ele>1375.75</ele><time>2026-05-01T13:36:16Z</time></trkpt><trkpt lat="45.92295253130135" lon="11.788870986229288"><ele>1372.5</ele><time>2026-05-01T13:36:17Z</time></trkpt><trkpt lat="45.92308130028951" lon="11.788770782588639"><ele>1369.25</ele><time>2026-05-01T13:36:18Z</time></trkpt><trkpt lat="45.9232145344513" lon="11.78864599769096"><ele>1366.0</ele><time>2026-05-01T13:36:19Z</time></trkpt><trkpt lat="45.923348653161725" lon="11.788522238264747"><ele>1368.0</ele><time>2026-05-01T13:36:20Z</time></trkpt><trkpt lat="45.923469842500765" lon="11.788417331625515"><ele>1370.0</ele><time>2026-05-01T13:36:21Z</time></trkpt><trkpt lat="45.923583659481885" lon="11.78832352356769"><ele>1372.0</ele><time>2026-05-01T13:36:22Z</time></trkpt><trkpt lat="45.92369843101686" lon="11.788230973200914"><ele>1374.0</ele><time>2026-05-01T13:36:23Z</time></trkpt><trkpt lat="45.92381737265708" lon="11.788148369989397"><ele>1374.0</ele><time>2026-05-01T13:36:24Z</time></trkpt><trkpt lat="45.923949849356156" lon="11.78808898902696"><ele>1374.0</ele><time>2026-05-01T13:36:25Z</time></trkpt><trkpt lat="45.92408820821982" lon="11.788053435447875"><ele>1374.0</ele><time>2026-05-01T13:36:26Z</time></trkpt><trkpt lat="45.924232367739776" lon="11.788015255699571"><ele>1374.0</ele><time>2026-05-01T13:36:27Z</time></trkpt><trkpt lat="45.924384819868415" lon="11.78796781391221"><ele>1372.25</ele><time>2026-05-01T13:36:28Z</time></trkpt><trkpt lat="45.924512702664984" lon="11.787926842847611"><ele>1370.5</ele><time>2026-05-01T13:36:29Z</time></trkpt><trkpt lat="45.92462921777836" lon="11.787893097579854"><ele>1368.75</ele><time>2026-05-01T13:36:30Z</time></trkpt><trkpt lat="45.92473700564802" lon="11.787860519418121"><ele>1367.0</ele><time>2026-05-01T13:36:31Z</time></trkpt><trkpt lat="45.92484522790982" lon="11.787826222204398"><ele>1367.0</ele><time>2026-05-01T13:36:32Z</time></trkpt><trkpt lat="45.92496549726236" lon="11.787820020543242"><ele>1367.0</ele><time>2026-05-01T13:36:33Z</time></trkpt><trkpt lat="45.925098813368244" lon="11.787836684989148"><ele>1367.0</ele><time>2026-05-01T13:36:34Z</time></trkpt><trkpt lat="45.92524582613707" lon="11.787863191036736"><ele>1367.0</ele><time>2026-05-01T13:36:35Z</time></trkpt><trkpt lat="45.92539191078659" lon="11.787877267944362"><ele>1366.75</ele><time>2026-05-01T13:36:36Z</time></trkpt><trkpt lat="45.92553989024774" lon="11.787876555103196"><ele>1366.5</ele><time>2026-05-01T13:36:37Z</time></trkpt><trkpt lat="45.92567935357235" lon="11.787855254960096"><ele>1366.25</ele><time>2026-05-01T13:36:38Z</time></trkpt><trkpt lat="45.92582149970816" lon="11.78781173682711"><ele>1366.0</ele><time>2026-05-01T13:36:39Z</time></trkpt><trkpt lat="45.92596983617296" lon="11.787761410402709"><ele>1366.6666666666665</ele><time>2026-05-01T13:36:40Z</time></trkpt><trkpt lat="45.926120037083095" lon="11.787712917030996"><ele>1367.3333333333333</ele><time>2026-05-01T13:36:41Z</time></trkpt><trkpt lat="45.926267510581994" lon="11.787666168868347"><ele>1368.0</ele><time>2026-05-01T13:36:42Z</time></trkpt><trkpt lat="45.92640867196377" lon="11.78761723365701"><ele>1368.0</ele><time>2026-05-01T13:36:43Z</time></trkpt><trkpt lat="45.92655227622309" lon="11.7875668282549"><ele>1368.0</ele><time>2026-05-01T13:36:44Z</time></trkpt><trkpt lat="45.926694007479234" lon="11.787516671127435"><ele>1368.0</ele><time>2026-05-01T13:36:45Z</time></trkpt><trkpt lat="45.926824228006524" lon="11.787470415557046"><ele>1368.0</ele><time>2026-05-01T13:36:46Z</time></trkpt><trkpt lat="45.92694186899999" lon="11.787431698057963"><ele>1368.5</ele><time>2026-05-01T13:36:47Z</time></trkpt><trkpt lat="45.92706264563382" lon="11.787418571791415"><ele>1369.0</ele><time>2026-05-01T13:36:48Z</time></trkpt><trkpt lat="45.92719271173416" lon="11.787454889030917"><ele>1369.5</ele><time>2026-05-01T13:36:49Z</time></trkpt><trkpt lat="45.92732980692705" lon="11.787500068346798"><ele>1370.0</ele><time>2026-05-01T13:36:50Z</time></trkpt><trkpt lat="45.92746696405224" lon="11.787526674432106"><ele>1368.5</ele><time>2026-05-01T13:36:51Z</time></trkpt><trkpt lat="45.927595886412774" lon="11.78754464097688"><ele>1367.0</ele><time>2026-05-01T13:36:52Z</time></trkpt><trkpt lat="45.927713399037195" lon="11.787561757049923"><ele>1365.5</ele><time>2026-05-01T13:36:52.999Z</time></trkpt><trkpt lat="45.927818208940195" lon="11.787590545524134"><ele>1364.0</ele><time>2026-05-01T13:36:53.999Z</time></trkpt><trkpt lat="45.92790775199141" lon="11.787655792896366"><ele>1367.0</ele><time>2026-05-01T13:36:54.999Z</time></trkpt><trkpt lat="45.927984246593546" lon="11.787762484293"><ele>1370.0</ele><time>2026-05-01T13:36:55.999Z</time></trkpt><trkpt lat="45.92805206633556" lon="11.787861851941681"><ele>1373.0</ele><time>2026-05-01T13:36:56.999Z</time></trkpt><trkpt lat="45.928118700934846" lon="11.78793456519855"><ele>1376.0</ele><time>2026-05-01T13:36:57.999Z</time></trkpt><trkpt lat="45.92819516576461" lon="11.787971049411945"><ele>1379.0</ele><time>2026-05-01T13:36:58.999Z</time></trkpt><trkpt lat="45.92828001666671" lon="11.787958695718022"><ele>1379.0</ele><time>2026-05-01T13:36:59.999Z</time></trkpt><trkpt lat="45.92836541107107" lon="11.787895234502741"><ele>1379.0</ele><time>2026-05-01T13:37:00.999Z</time></trkpt><trkpt lat="45.92845537582195" lon="11.787820328873677"><ele>1379.0</ele><time>2026-05-01T13:37:01.999Z</time></trkpt><trkpt lat="45.92853557054539" lon="11.787718402860081"><ele>1379.0</ele><time>2026-05-01T13:37:02.999Z</time></trkpt><trkpt lat="45.92862312429234" lon="11.787630710574293"><ele>1379.0</ele><time>2026-05-01T13:37:03.999Z</time></trkpt><trkpt lat="45.92870639963206" lon="11.787533623378351"><ele>1377.2</ele><time>2026-05-01T13:37:04.999Z</time></trkpt><trkpt lat="45.928789458764825" lon="11.787444063392494"><ele>1375.4</ele><time>2026-05-01T13:37:05.999Z</time></trkpt><trkpt lat="45.92887154553673" lon="11.787362934752274"><ele>1373.6</ele><time>2026-05-01T13:37:06.999Z</time></trkpt><trkpt lat="45.92895774265659" lon="11.787279152329885"><ele>1371.8</ele><time>2026-05-01T13:37:07.999Z</time></trkpt><trkpt lat="45.929047512218546" lon="11.787186696422502"><ele>1370.0</ele><time>2026-05-01T13:37:08.999Z</time></trkpt><trkpt lat="45.92913970186426" lon="11.787092901192523"><ele>1369.75</ele><time>2026-05-01T13:37:09.999Z</time></trkpt><trkpt lat="45.92924506115563" lon="11.787003630283376"><ele>1369.5</ele><time>2026-05-01T13:37:10.999Z</time></trkpt><trkpt lat="45.929369493277335" lon="11.786939591722016"><ele>1369.25</ele><time>2026-05-01T13:37:11.999Z</time></trkpt><trkpt lat="45.92950374185851" lon="11.786899466067059"><ele>1369.0</ele><time>2026-05-01T13:37:12.999Z</time></trkpt><trkpt lat="45.929632660645304" lon="11.786859184039452"><ele>1365.5</ele><time>2026-05-01T13:37:13.999Z</time></trkpt><trkpt lat="45.92974883876256" lon="11.786805486123143"><ele>1362.0</ele><time>2026-05-01T13:37:14.999Z</time></trkpt><trkpt lat="45.92985502948445" lon="11.786738066142794"><ele>1358.5</ele><time>2026-05-01T13:37:15.999Z</time></trkpt><trkpt lat="45.92995202152923" lon="11.786660272688563"><ele>1355.0</ele><time>2026-05-01T13:37:16.999Z</time></trkpt><trkpt lat="45.93005105975914" lon="11.786581731726644"><ele>1353.4</ele><time>2026-05-01T13:37:17.999Z</time></trkpt><trkpt lat="45.930144646332366" lon="11.786509344108332"><ele>1351.8</ele><time>2026-05-01T13:37:18.999Z</time></trkpt><trkpt lat="45.93023199737003" lon="11.78643955843367"><ele>1350.1999999999998</ele><time>2026-05-01T13:37:19.999Z</time></trkpt><trkpt lat="45.93031894555668" lon="11.786369115915416"><ele>1348.6</ele><time>2026-05-01T13:37:20.999Z</time></trkpt><trkpt lat="45.93040665115959" lon="11.786303757254462"><ele>1347.0</ele><time>2026-05-01T13:37:21.999Z</time></trkpt><trkpt lat="45.930492752538214" lon="11.786242495647617"><ele>1347.0</ele><time>2026-05-01T13:37:22.999Z</time></trkpt><trkpt lat="45.930575037745115" lon="11.78619357612967"><ele>1347.0</ele><time>2026-05-01T13:37:23.999Z</time></trkpt><trkpt lat="45.9306475964988" lon="11.786147892127502"><ele>1347.0</ele><time>2026-05-01T13:37:24.999Z</time></trkpt><trkpt lat="45.93072916607003" lon="11.786044521850089"><ele>1347.0</ele><time>2026-05-01T13:37:26.999Z</time></trkpt><trkpt lat="45.93067954116686" lon="11.78591302934441"><ele>1347.0</ele><time>2026-05-01T13:37:28.999Z</time></trkpt><trkpt lat="45.93060829876265" lon="11.785875779764797"><ele>1344.5</ele><time>2026-05-01T13:37:29.999Z</time></trkpt><trkpt lat="45.930524615960614" lon="11.78589942934485"><ele>1342.0</ele><time>2026-05-01T13:37:30.999Z</time></trkpt><trkpt lat="45.93045444224115" lon="11.785915859034278"><ele>1339.5</ele><time>2026-05-01T13:37:31.999Z</time></trkpt><trkpt lat="45.93039180418714" lon="11.785931829825355"><ele>1337.0</ele><time>2026-05-01T13:37:32.999Z</time></trkpt><trkpt lat="45.93029385973316" lon="11.785923078804514"><ele>1334.5</ele><time>2026-05-01T13:37:34.999Z</time></trkpt><trkpt lat="45.93030779962711" lon="11.785757467515685"><ele>1332.0</ele><time>2026-05-01T13:37:36.999Z</time></trkpt><trkpt lat="45.93039071424644" lon="11.78572894176529"><ele>1332.0</ele><time>2026-05-01T13:37:37.999Z</time></trkpt><trkpt lat="45.93047278997551" lon="11.78572036353091"><ele>1332.0</ele><time>2026-05-01T13:37:38.999Z</time></trkpt><trkpt lat="45.93056005777829" lon="11.78569343925261"><ele>1332.0</ele><time>2026-05-01T13:37:39.999Z</time></trkpt><trkpt lat="45.93066814199719" lon="11.785649294891968"><ele>1332.0</ele><time>2026-05-01T13:37:40.999Z</time></trkpt><trkpt lat="45.93078739580355" lon="11.785598357789763"><ele>1332.0</ele><time>2026-05-01T13:37:42Z</time></trkpt><trkpt lat="45.93090732050565" lon="11.785545093322474"><ele>1330.6</ele><time>2026-05-01T13:37:43Z</time></trkpt><trkpt lat="45.93101522634281" lon="11.785498042357004"><ele>1329.1999999999998</ele><time>2026-05-01T13:37:44Z</time></trkpt><trkpt lat="45.931119336550715" lon="11.785466281848972"><ele>1327.8</ele><time>2026-05-01T13:37:45Z</time></trkpt><trkpt lat="45.9312203430749" lon="11.785477885957203"><ele>1326.4</ele><time>2026-05-01T13:37:46Z</time></trkpt><trkpt lat="45.931309567210896" lon="11.785553827470176"><ele>1325.0</ele><time>2026-05-01T13:37:47Z</time></trkpt><trkpt lat="45.931396083911594" lon="11.785667644101803"><ele>1325.0</ele><time>2026-05-01T13:37:48Z</time></trkpt><trkpt lat="45.93147061783622" lon="11.785757258367347"><ele>1325.0</ele><time>2026-05-01T13:37:49Z</time></trkpt><trkpt lat="45.9315409761656" lon="11.785817698317585"><ele>1325.0</ele><time>2026-05-01T13:37:50Z</time></trkpt><trkpt lat="45.93162188606052" lon="11.78581544521193"><ele>1325.0</ele><time>2026-05-01T13:37:51Z</time></trkpt><trkpt lat="45.9316971312728" lon="11.78575997186963"><ele>1325.0</ele><time>2026-05-01T13:37:52Z</time></trkpt><trkpt lat="45.931766839806635" lon="11.785639134180276"><ele>1322.0</ele><time>2026-05-01T13:37:53Z</time></trkpt><trkpt lat="45.93183758618495" lon="11.785474268875722"><ele>1319.0</ele><time>2026-05-01T13:37:54Z</time></trkpt><trkpt lat="45.9319330353873" lon="11.785299891753583"><ele>1316.0</ele><time>2026-05-01T13:37:55Z</time></trkpt><trkpt lat="45.932041166822465" lon="11.785141853737514"><ele>1313.0</ele><time>2026-05-01T13:37:56Z</time></trkpt><trkpt lat="45.93215871889386" lon="11.785033014116701"><ele>1313.0</ele><time>2026-05-01T13:37:57Z</time></trkpt><trkpt lat="45.93226056088083" lon="11.784888416318925"><ele>1313.0</ele><time>2026-05-01T13:37:58Z</time></trkpt><trkpt lat="45.9323798450521" lon="11.784785784854991"><ele>1313.0</ele><time>2026-05-01T13:37:59Z</time></trkpt><trkpt lat="45.93249276077357" lon="11.784681266828251"><ele>1313.0</ele><time>2026-05-01T13:38:00Z</time></trkpt><trkpt lat="45.93260993034173" lon="11.7846067144836"><ele>1306.6666666666667</ele><time>2026-05-01T13:38:01Z</time></trkpt><trkpt lat="45.932739083160314" lon="11.784502902934552"><ele>1300.3333333333333</ele><time>2026-05-01T13:38:02Z</time></trkpt><trkpt lat="45.93288423971518" lon="11.784421911453983"><ele>1294.0</ele><time>2026-05-01T13:38:03Z</time></trkpt><trkpt lat="45.933030866733894" lon="11.784337943854833"><ele>1294.0</ele><time>2026-05-01T13:38:04Z</time></trkpt><trkpt lat="45.933174614837085" lon="11.784249085018702"><ele>1294.0</ele><time>2026-05-01T13:38:05Z</time></trkpt><trkpt lat="45.93330558238011" lon="11.78415276186362"><ele>1294.0</ele><time>2026-05-01T13:38:06Z</time></trkpt><trkpt lat="45.93343516488292" lon="11.784046477954613"><ele>1292.0</ele><time>2026-05-01T13:38:07Z</time></trkpt><trkpt lat="45.93354086650294" lon="11.783872264495201"><ele>1290.0</ele><time>2026-05-01T13:38:08Z</time></trkpt><trkpt lat="45.933653393217156" lon="11.783704011127332"><ele>1288.0</ele><time>2026-05-01T13:38:09Z</time></trkpt><trkpt lat="45.933771547903206" lon="11.7835353408129"><ele>1288.0</ele><time>2026-05-01T13:38:10Z</time></trkpt><trkpt lat="45.93390034566778" lon="11.783375077441274"><ele>1288.0</ele><time>2026-05-01T13:38:11Z</time></trkpt><trkpt lat="45.93404330625743" lon="11.783233244005663"><ele>1288.0</ele><time>2026-05-01T13:38:12Z</time></trkpt><trkpt lat="45.934189180608804" lon="11.783107009486937"><ele>1289.6666666666665</ele><time>2026-05-01T13:38:13Z</time></trkpt><trkpt lat="45.93432955302735" lon="11.782979556124772"><ele>1291.3333333333333</ele><time>2026-05-01T13:38:14Z</time></trkpt><trkpt lat="45.934463109654594" lon="11.782861559021873"><ele>1293.0</ele><time>2026-05-01T13:38:15Z</time></trkpt><trkpt lat="45.93458246969741" lon="11.782756928505359"><ele>1292.5</ele><time>2026-05-01T13:38:16Z</time></trkpt><trkpt lat="45.934691296572026" lon="11.782655081055857"><ele>1292.0</ele><time>2026-05-01T13:38:17Z</time></trkpt><trkpt lat="45.93479344666885" lon="11.782546331063772"><ele>1291.5</ele><time>2026-05-01T13:38:18Z</time></trkpt><trkpt lat="45.93488840978774" lon="11.78241218090442"><ele>1291.0</ele><time>2026-05-01T13:38:19Z</time></trkpt><trkpt lat="45.934971961576025" lon="11.782238977014808"><ele>1291.0</ele><time>2026-05-01T13:38:20Z</time></trkpt><trkpt lat="45.935044754212605" lon="11.78203858491158"><ele>1291.0</ele><time>2026-05-01T13:38:21Z</time></trkpt><trkpt lat="45.93511807894864" lon="11.781841368940242"><ele>1291.0</ele><time>2026-05-01T13:38:22Z</time></trkpt><trkpt lat="45.93518278643184" lon="11.781674193642818"><ele>1291.0</ele><time>2026-05-01T13:38:23Z</time></trkpt><trkpt lat="45.93523078594819" lon="11.781531156015742"><ele>1289.4</ele><time>2026-05-01T13:38:24Z</time></trkpt><trkpt lat="45.93526070317433" lon="11.781429440673229"><ele>1287.8</ele><time>2026-05-01T13:38:25Z</time></trkpt><trkpt lat="45.935329012043304" lon="11.781302556246306"><ele>1286.2</ele><time>2026-05-01T13:38:27Z</time></trkpt><trkpt lat="45.93541713997701" lon="11.781319306503548"><ele>1284.6000000000001</ele><time>2026-05-01T13:38:28Z</time></trkpt><trkpt lat="45.93549550082595" lon="11.78140941728087"><ele>1283.0</ele><time>2026-05-01T13:38:29Z</time></trkpt><trkpt lat="45.93559552368483" lon="11.781519037383257"><ele>1283.0</ele><time>2026-05-01T13:38:30Z</time></trkpt><trkpt lat="45.93571347059928" lon="11.781633877190318"><ele>1283.0</ele><time>2026-05-01T13:38:31Z</time></trkpt><trkpt lat="45.93581387907997" lon="11.781721232354759"><ele>1283.0</ele><time>2026-05-01T13:38:32Z</time></trkpt><trkpt lat="45.93592104503067" lon="11.781781837700164"><ele>1283.0</ele><time>2026-05-01T13:38:33Z</time></trkpt><trkpt lat="45.936026814744324" lon="11.781816362452968"><ele>1281.5</ele><time>2026-05-01T13:38:34Z</time></trkpt><trkpt lat="45.936119949209136" lon="11.781841427639883"><ele>1280.0</ele><time>2026-05-01T13:38:35Z</time></trkpt><trkpt lat="45.93619902885907" lon="11.781866819010222"><ele>1278.5</ele><time>2026-05-01T13:38:36Z</time></trkpt><trkpt lat="45.936261410614385" lon="11.781885362820283"><ele>1277.0</ele><time>2026-05-01T13:38:37Z</time></trkpt><trkpt lat="45.936380953925" lon="11.78183735417971"><ele>1275.5</ele><time>2026-05-01T13:38:39Z</time></trkpt><trkpt lat="45.93642007111725" lon="11.78172848941539"><ele>1274.0</ele><time>2026-05-01T13:38:40Z</time></trkpt><trkpt lat="45.936433915736195" lon="11.781580809016035"><ele>1273.8</ele><time>2026-05-01T13:38:41Z</time></trkpt><trkpt lat="45.93645058491422" lon="11.781434212229097"><ele>1273.6000000000001</ele><time>2026-05-01T13:38:42Z</time></trkpt><trkpt lat="45.93646629263466" lon="11.78130015273738"><ele>1273.4</ele><time>2026-05-01T13:38:43Z</time></trkpt><trkpt lat="45.936473779224485" lon="11.781165891721969"><ele>1273.2</ele><time>2026-05-01T13:38:44Z</time></trkpt><trkpt lat="45.93646776510071" lon="11.78103537050621"><ele>1273.0</ele><time>2026-05-01T13:38:45Z</time></trkpt><trkpt lat="45.93646563005949" lon="11.780914624062056"><ele>1273.0</ele><time>2026-05-01T13:38:46Z</time></trkpt><trkpt lat="45.93645051035718" lon="11.780826127792796"><ele>1273.0</ele><time>2026-05-01T13:38:47Z</time></trkpt><trkpt lat="45.93656519201833" lon="11.780769534830931"><ele>1273.0</ele><time>2026-05-01T13:38:49Z</time></trkpt><trkpt lat="45.936621296930824" lon="11.780858085696126"><ele>1273.0</ele><time>2026-05-01T13:38:50Z</time></trkpt><trkpt lat="45.9366404366581" lon="11.780999826337009"><ele>1273.0</ele><time>2026-05-01T13:38:51Z</time></trkpt><trkpt lat="45.936669589225716" lon="11.781160747758427"><ele>1269.8</ele><time>2026-05-01T13:38:52Z</time></trkpt><trkpt lat="45.93673312161908" lon="11.78132425638352"><ele>1266.6</ele><time>2026-05-01T13:38:53Z</time></trkpt><trkpt lat="45.936792157514226" lon="11.78145393617098"><ele>1263.4</ele><time>2026-05-01T13:38:54Z</time></trkpt><trkpt lat="45.936844992843994" lon="11.781579011096039"><ele>1260.2</ele><time>2026-05-01T13:38:54.999Z</time></trkpt><trkpt lat="45.93689230522404" lon="11.78169773747034"><ele>1257.0</ele><time>2026-05-01T13:38:55.999Z</time></trkpt><trkpt lat="45.9369437873158" lon="11.781789803745877"><ele>1257.0</ele><time>2026-05-01T13:38:56.999Z</time></trkpt><trkpt lat="45.93701080998089" lon="11.7818328039953"><ele>1257.0</ele><time>2026-05-01T13:38:57.999Z</time></trkpt><trkpt lat="45.937086187864175" lon="11.78180838907113"><ele>1257.0</ele><time>2026-05-01T13:38:58.999Z</time></trkpt><trkpt lat="45.93714818481335" lon="11.781720951246648"><ele>1257.0</ele><time>2026-05-01T13:38:59.999Z</time></trkpt><trkpt lat="45.93718016968379" lon="11.781625823742395"><ele>1257.0</ele><time>2026-05-01T13:39:00.999Z</time></trkpt><trkpt lat="45.937169305443156" lon="11.781506003006998"><ele>1257.0</ele><time>2026-05-01T13:39:01.999Z</time></trkpt><trkpt lat="45.93713047955745" lon="11.78138925479024"><ele>1257.0</ele><time>2026-05-01T13:39:02.999Z</time></trkpt><trkpt lat="45.93709638323404" lon="11.781284884732315"><ele>1257.0</ele><time>2026-05-01T13:39:03.999Z</time></trkpt><trkpt lat="45.937099469684284" lon="11.781188753202214"><ele>1257.0</ele><time>2026-05-01T13:39:04.999Z</time></trkpt><trkpt lat="45.93715760658174" lon="11.781115130735579"><ele>1257.0</ele><time>2026-05-01T13:39:05.999Z</time></trkpt><trkpt lat="45.93725633585481" lon="11.781085410504438"><ele>1257.0</ele><time>2026-05-01T13:39:06.999Z</time></trkpt><trkpt lat="45.937368372198684" lon="11.781109391453578"><ele>1257.0</ele><time>2026-05-01T13:39:07.999Z</time></trkpt><trkpt lat="45.93746941333582" lon="11.781152816279306"><ele>1257.0</ele><time>2026-05-01T13:39:08.999Z</time></trkpt><trkpt lat="45.93754872339433" lon="11.781236539579945"><ele>1257.0</ele><time>2026-05-01T13:39:09.999Z</time></trkpt><trkpt lat="45.93761077104954" lon="11.781371792950932"><ele>1257.0</ele><time>2026-05-01T13:39:10.999Z</time></trkpt><trkpt lat="45.93765157293911" lon="11.781535993675648"><ele>1257.0</ele><time>2026-05-01T13:39:11.999Z</time></trkpt><trkpt lat="45.93765004146343" lon="11.781696606262427"><ele>1257.0</ele><time>2026-05-01T13:39:12.999Z</time></trkpt><trkpt lat="45.937588400877566" lon="11.78182422121918"><ele>1257.0</ele><time>2026-05-01T13:39:13.999Z</time></trkpt><trkpt lat="45.93753100204894" lon="11.781924025067786"><ele>1257.0</ele><time>2026-05-01T13:39:14.999Z</time></trkpt><trkpt lat="45.93746954566784" lon="11.782022831572109"><ele>1257.0</ele><time>2026-05-01T13:39:15.999Z</time></trkpt><trkpt lat="45.937424790932134" lon="11.78212045224189"><ele>1257.0</ele><time>2026-05-01T13:39:16.999Z</time></trkpt><trkpt lat="45.93740081538193" lon="11.782230135642575"><ele>1257.0</ele><time>2026-05-01T13:39:17.999Z</time></trkpt><trkpt lat="45.937396005682125" lon="11.782351996925719"><ele>1257.0</ele><time>2026-05-01T13:39:18.999Z</time></trkpt><trkpt lat="45.93741696389991" lon="11.782479371812103"><ele>1257.0</ele><time>2026-05-01T13:39:19.999Z</time></trkpt><trkpt lat="45.937440995910094" lon="11.782617809070112"><ele>1257.0</ele><time>2026-05-01T13:39:20.999Z</time></trkpt><trkpt lat="45.937466095269315" lon="11.782754937800778"><ele>1257.0</ele><time>2026-05-01T13:39:21.999Z</time></trkpt><trkpt lat="45.937501863710956" lon="11.782881021598705"><ele>1257.0</ele><time>2026-05-01T13:39:22.999Z</time></trkpt><trkpt lat="45.93756479521263" lon="11.782992558162885"><ele>1257.0</ele><time>2026-05-01T13:39:23.999Z</time></trkpt><trkpt lat="45.93765112765363" lon="11.783084761135376"><ele>1249.4</ele><time>2026-05-01T13:39:24.999Z</time></trkpt><trkpt lat="45.93771981706872" lon="11.783186338392422"><ele>1241.8000000000002</ele><time>2026-05-01T13:39:25.999Z</time></trkpt><trkpt lat="45.937736848261636" lon="11.783331254414529"><ele>1234.2</ele><time>2026-05-01T13:39:26.999Z</time></trkpt><trkpt lat="45.93776629215097" lon="11.783476761712722"><ele>1226.6000000000001</ele><time>2026-05-01T13:39:27.999Z</time></trkpt><trkpt lat="45.9378040926226" lon="11.783634818361737"><ele>1219.0</ele><time>2026-05-01T13:39:28.999Z</time></trkpt><trkpt lat="45.93782775445205" lon="11.783780147361176"><ele>1219.0</ele><time>2026-05-01T13:39:29.999Z</time></trkpt><trkpt lat="45.937849752560936" lon="11.783927011540657"><ele>1219.0</ele><time>2026-05-01T13:39:30.999Z</time></trkpt><trkpt lat="45.93787457275062" lon="11.78408289296934"><ele>1219.0</ele><time>2026-05-01T13:39:31.999Z</time></trkpt><trkpt lat="45.937892405499824" lon="11.784245034075253"><ele>1219.0</ele><time>2026-05-01T13:39:32.999Z</time></trkpt><trkpt lat="45.93791658714064" lon="11.784394472105932"><ele>1219.0</ele><time>2026-05-01T13:39:33.999Z</time></trkpt><trkpt lat="45.93795577914154" lon="11.784534330147345"><ele>1219.6000000000001</ele><time>2026-05-01T13:39:34.999Z</time></trkpt><trkpt lat="45.93799559423631" lon="11.784665655397514"><ele>1220.2</ele><time>2026-05-01T13:39:35.999Z</time></trkpt><trkpt lat="45.93805071015448" lon="11.784786063284114"><ele>1220.8000000000002</ele><time>2026-05-01T13:39:36.999Z</time></trkpt><trkpt lat="45.938124325892915" lon="11.784893850056974"><ele>1221.4</ele><time>2026-05-01T13:39:37.999Z</time></trkpt><trkpt lat="45.93820513776206" lon="11.784993625849227"><ele>1222.0</ele><time>2026-05-01T13:39:38.999Z</time></trkpt><trkpt lat="45.93828254812655" lon="11.785097910565263"><ele>1223.0</ele><time>2026-05-01T13:39:39.999Z</time></trkpt><trkpt lat="45.938350774451784" lon="11.785216384931134"><ele>1224.0</ele><time>2026-05-01T13:39:40.999Z</time></trkpt><trkpt lat="45.93840723387221" lon="11.785355610526294"><ele>1225.0</ele><time>2026-05-01T13:39:41.999Z</time></trkpt><trkpt lat="45.938469239799616" lon="11.78550822513062"><ele>1226.0</ele><time>2026-05-01T13:39:42.999Z</time></trkpt><trkpt lat="45.93853858509399" lon="11.785669078642995"><ele>1221.5</ele><time>2026-05-01T13:39:43.999Z</time></trkpt><trkpt lat="45.93861145460428" lon="11.785840407387392"><ele>1217.0</ele><time>2026-05-01T13:39:44.999Z</time></trkpt><trkpt lat="45.9386793808161" lon="11.786022015019881"><ele>1212.5</ele><time>2026-05-01T13:39:45.999Z</time></trkpt><trkpt lat="45.93873959530837" lon="11.786187696170655"><ele>1208.0</ele><time>2026-05-01T13:39:46.999Z</time></trkpt><trkpt lat="45.93880680909929" lon="11.786334489336115"><ele>1208.0</ele><time>2026-05-01T13:39:48Z</time></trkpt><trkpt lat="45.93889049863867" lon="11.786476263194118"><ele>1208.0</ele><time>2026-05-01T13:39:49Z</time></trkpt><trkpt lat="45.93897107598961" lon="11.786604793314213"><ele>1208.0</ele><time>2026-05-01T13:39:50Z</time></trkpt><trkpt lat="45.939038250827615" lon="11.786726344570145"><ele>1208.0</ele><time>2026-05-01T13:39:51Z</time></trkpt><trkpt lat="45.93910376790374" lon="11.786856330955414"><ele>1208.4</ele><time>2026-05-01T13:39:52Z</time></trkpt><trkpt lat="45.939164136366884" lon="11.786976130246122"><ele>1208.8</ele><time>2026-05-01T13:39:53Z</time></trkpt><trkpt lat="45.939221668299645" lon="11.787089572826458"><ele>1209.2</ele><time>2026-05-01T13:39:54Z</time></trkpt><trkpt lat="45.9392837435766" lon="11.787201945228993"><ele>1209.6</ele><time>2026-05-01T13:39:55Z</time></trkpt><trkpt lat="45.93935482973625" lon="11.787306756992496"><ele>1210.0</ele><time>2026-05-01T13:39:56Z</time></trkpt><trkpt lat="45.93943554711828" lon="11.78739461326771"><ele>1208.5</ele><time>2026-05-01T13:39:57Z</time></trkpt><trkpt lat="45.939532143103015" lon="11.78746688622469"><ele>1207.0</ele><time>2026-05-01T13:39:58Z</time></trkpt><trkpt lat="45.93963212112729" lon="11.787544131922175"><ele>1205.5</ele><time>2026-05-01T13:39:59Z</time></trkpt><trkpt lat="45.939731936038115" lon="11.787639443807711"><ele>1204.0</ele><time>2026-05-01T13:40:00Z</time></trkpt><trkpt lat="45.939827972133585" lon="11.787763893427487"><ele>1204.0</ele><time>2026-05-01T13:40:01Z</time></trkpt><trkpt lat="45.93992209385073" lon="11.787918843251585"><ele>1204.0</ele><time>2026-05-01T13:40:02Z</time></trkpt><trkpt lat="45.94001932921499" lon="11.788059082147328"><ele>1204.0</ele><time>2026-05-01T13:40:03Z</time></trkpt><trkpt lat="45.94012818353978" lon="11.788161410267481"><ele>1204.0</ele><time>2026-05-01T13:40:04Z</time></trkpt><trkpt lat="45.940243866958646" lon="11.788242336081046"><ele>1200.25</ele><time>2026-05-01T13:40:05Z</time></trkpt><trkpt lat="45.94034954575979" lon="11.788314429316324"><ele>1196.5</ele><time>2026-05-01T13:40:06Z</time></trkpt><trkpt lat="45.940448134802374" lon="11.788397185911316"><ele>1192.75</ele><time>2026-05-01T13:40:07Z</time></trkpt><trkpt lat="45.94055038799589" lon="11.788511414889594"><ele>1189.0</ele><time>2026-05-01T13:40:08Z</time></trkpt><trkpt lat="45.94064805814566" lon="11.78864305147331"><ele>1189.0</ele><time>2026-05-01T13:40:09Z</time></trkpt><trkpt lat="45.94074325013377" lon="11.788777048202675"><ele>1189.0</ele><time>2026-05-01T13:40:10Z</time></trkpt><trkpt lat="45.940830351802624" lon="11.7889011533989"><ele>1189.0</ele><time>2026-05-01T13:40:11Z</time></trkpt><trkpt lat="45.9409113255119" lon="11.78901201605763"><ele>1189.0</ele><time>2026-05-01T13:40:12Z</time></trkpt><trkpt lat="45.94098463742438" lon="11.789114938327955"><ele>1187.0</ele><time>2026-05-01T13:40:13Z</time></trkpt><trkpt lat="45.941054271088824" lon="11.789214408543787"><ele>1185.0</ele><time>2026-05-01T13:40:14Z</time></trkpt><trkpt lat="45.941123765211266" lon="11.789322213178414"><ele>1183.0</ele><time>2026-05-01T13:40:15Z</time></trkpt><trkpt lat="45.94119252784019" lon="11.789438594346478"><ele>1181.0</ele><time>2026-05-01T13:40:16Z</time></trkpt><trkpt lat="45.941254534676595" lon="11.789578139415763"><ele>1179.0</ele><time>2026-05-01T13:40:17Z</time></trkpt><trkpt lat="45.94130195351506" lon="11.789745417089476"><ele>1179.0</ele><time>2026-05-01T13:40:18Z</time></trkpt><trkpt lat="45.941328151429374" lon="11.789919135029383"><ele>1179.0</ele><time>2026-05-01T13:40:19Z</time></trkpt><trkpt lat="45.94134450854074" lon="11.790082968801576"><ele>1179.0</ele><time>2026-05-01T13:40:20Z</time></trkpt><trkpt lat="45.94143840798762" lon="11.790224096943211"><ele>1179.0</ele><time>2026-05-01T13:40:21Z</time></trkpt><trkpt lat="45.94155468196948" lon="11.7903685150805"><ele>1175.5</ele><time>2026-05-01T13:40:22Z</time></trkpt><trkpt lat="45.94164478141116" lon="11.790524463689982"><ele>1172.0</ele><time>2026-05-01T13:40:23Z</time></trkpt><trkpt lat="45.941729121264125" lon="11.790678945893328"><ele>1168.5</ele><time>2026-05-01T13:40:24Z</time></trkpt><trkpt lat="45.941819754152" lon="11.7908074091897"><ele>1165.0</ele><time>2026-05-01T13:40:25Z</time></trkpt><trkpt lat="45.941943223762436" lon="11.790908043459591"><ele>1169.4</ele><time>2026-05-01T13:40:26Z</time></trkpt><trkpt lat="45.94204419587344" lon="11.791015791615848"><ele>1173.8</ele><time>2026-05-01T13:40:27Z</time></trkpt><trkpt lat="45.94212640794238" lon="11.791086178157064"><ele>1178.2</ele><time>2026-05-01T13:40:28Z</time></trkpt><trkpt lat="45.94219498778904" lon="11.791153761950381"><ele>1182.6</ele><time>2026-05-01T13:40:29Z</time></trkpt><trkpt lat="45.9422673270675" lon="11.791220424252868"><ele>1187.0</ele><time>2026-05-01T13:40:30Z</time></trkpt><trkpt lat="45.942317165980974" lon="11.79132576400893"><ele>1187.0</ele><time>2026-05-01T13:40:31Z</time></trkpt><trkpt lat="45.94238363382313" lon="11.791413058704453"><ele>1187.0</ele><time>2026-05-01T13:40:32Z</time></trkpt><trkpt lat="45.94243881402997" lon="11.791532292838623"><ele>1187.0</ele><time>2026-05-01T13:40:33Z</time></trkpt><trkpt lat="45.942498495182626" lon="11.791617206144318"><ele>1187.0</ele><time>2026-05-01T13:40:34Z</time></trkpt><trkpt lat="45.942532235850344" lon="11.791713920846115"><ele>1187.0</ele><time>2026-05-01T13:40:35Z</time></trkpt><trkpt lat="45.94256330340022" lon="11.791813850477137"><ele>1187.0</ele><time>2026-05-01T13:40:36Z</time></trkpt><trkpt lat="45.94259938860501" lon="11.79191527932806"><ele>1182.3333333333335</ele><time>2026-05-01T13:40:37Z</time></trkpt><trkpt lat="45.94263955877161" lon="11.792023028875938"><ele>1177.6666666666667</ele><time>2026-05-01T13:40:38Z</time></trkpt><trkpt lat="45.94268137266222" lon="11.792124385324165"><ele>1173.0</ele><time>2026-05-01T13:40:39Z</time></trkpt><trkpt lat="45.94271779753356" lon="11.792231100080375"><ele>1168.3333333333333</ele><time>2026-05-01T13:40:40Z</time></trkpt><trkpt lat="45.94275902582073" lon="11.792338057670928"><ele>1163.6666666666665</ele><time>2026-05-01T13:40:41Z</time></trkpt><trkpt lat="45.9428057435473" lon="11.792437400002013"><ele>1159.0</ele><time>2026-05-01T13:40:42Z</time></trkpt><trkpt lat="45.942846202022636" lon="11.792515473703956"><ele>1159.0</ele><time>2026-05-01T13:40:43Z</time></trkpt><trkpt lat="45.942937951101406" lon="11.792645558277961"><ele>1159.0</ele><time>2026-05-01T13:40:45Z</time></trkpt><trkpt lat="45.94299994747568" lon="11.792720165922573"><ele>1159.0</ele><time>2026-05-01T13:40:46Z</time></trkpt><trkpt lat="45.943059292208844" lon="11.792792753276972"><ele>1159.0</ele><time>2026-05-01T13:40:47Z</time></trkpt><trkpt lat="45.943121943445625" lon="11.792859164400836"><ele>1159.0</ele><time>2026-05-01T13:40:48Z</time></trkpt><trkpt lat="45.94318358443143" lon="11.792911312133374"><ele>1159.0</ele><time>2026-05-01T13:40:49Z</time></trkpt><trkpt lat="45.9432569516233" lon="11.792964992344212"><ele>1158.8</ele><time>2026-05-01T13:40:50Z</time></trkpt><trkpt lat="45.94332715345468" lon="11.793038561803556"><ele>1158.6000000000001</ele><time>2026-05-01T13:40:51Z</time></trkpt><trkpt lat="45.943411554930364" lon="11.793079390717041"><ele>1158.4</ele><time>2026-05-01T13:40:52Z</time></trkpt><trkpt lat="45.94350404190435" lon="11.793115145496571"><ele>1158.2</ele><time>2026-05-01T13:40:53Z</time></trkpt><trkpt lat="45.943605533636344" lon="11.793149996618025"><ele>1158.0</ele><time>2026-05-01T13:40:54Z</time></trkpt><trkpt lat="45.94371021202926" lon="11.79318646744601"><ele>1158.0</ele><time>2026-05-01T13:40:55Z</time></trkpt><trkpt lat="45.94381661279228" lon="11.793232456774788"><ele>1158.0</ele><time>2026-05-01T13:40:56Z</time></trkpt><trkpt lat="45.943925126575465" lon="11.793284038480115"><ele>1158.0</ele><time>2026-05-01T13:40:57Z</time></trkpt><trkpt lat="45.94403533529549" lon="11.793335928486677"><ele>1158.0</ele><time>2026-05-01T13:40:58Z</time></trkpt><trkpt lat="45.94414383823544" lon="11.793385281489723"><ele>1157.4</ele><time>2026-05-01T13:40:58.999Z</time></trkpt><trkpt lat="45.94425121526637" lon="11.793425955337984"><ele>1156.8</ele><time>2026-05-01T13:40:59.999Z</time></trkpt><trkpt lat="45.94434810581099" lon="11.793496157008216"><ele>1156.2</ele><time>2026-05-01T13:41:00.999Z</time></trkpt><trkpt lat="45.94443330304592" lon="11.793584370635921"><ele>1155.6</ele><time>2026-05-01T13:41:01.999Z</time></trkpt><trkpt lat="45.944509535606905" lon="11.793684759422822"><ele>1155.0</ele><time>2026-05-01T13:41:02.999Z</time></trkpt><trkpt lat="45.944579117357904" lon="11.793789919009827"><ele>1155.0</ele><time>2026-05-01T13:41:03.999Z</time></trkpt><trkpt lat="45.944646804421744" lon="11.793885240882705"><ele>1155.0</ele><time>2026-05-01T13:41:04.999Z</time></trkpt><trkpt lat="45.94471509512234" lon="11.793983237596818"><ele>1155.0</ele><time>2026-05-01T13:41:05.999Z</time></trkpt><trkpt lat="45.944785212723666" lon="11.794068426584793"><ele>1155.0</ele><time>2026-05-01T13:41:06.999Z</time></trkpt><trkpt lat="45.94486967486597" lon="11.79414733287599"><ele>1155.0</ele><time>2026-05-01T13:41:07.999Z</time></trkpt><trkpt lat="45.94495810787796" lon="11.794202312010087"><ele>1155.2</ele><time>2026-05-01T13:41:08.999Z</time></trkpt><trkpt lat="45.94505302540425" lon="11.794253975687662"><ele>1155.4</ele><time>2026-05-01T13:41:09.999Z</time></trkpt><trkpt lat="45.94514126393628" lon="11.794305170084755"><ele>1155.6</ele><time>2026-05-01T13:41:10.999Z</time></trkpt><trkpt lat="45.94522924573027" lon="11.794355780901281"><ele>1155.8</ele><time>2026-05-01T13:41:11.999Z</time></trkpt><trkpt lat="45.94531740935055" lon="11.794407134059302"><ele>1156.0</ele><time>2026-05-01T13:41:12.999Z</time></trkpt><trkpt lat="45.94540014565964" lon="11.794442543742717"><ele>1156.0</ele><time>2026-05-01T13:41:13.999Z</time></trkpt><trkpt lat="45.94549033032688" lon="11.794462709961799"><ele>1156.0</ele><time>2026-05-01T13:41:14.999Z</time></trkpt><trkpt lat="45.94557295314456" lon="11.79447718567083"><ele>1156.0</ele><time>2026-05-01T13:41:15.999Z</time></trkpt><trkpt lat="45.94566097593838" lon="11.794477106043924"><ele>1156.0</ele><time>2026-05-01T13:41:16.999Z</time></trkpt><trkpt lat="45.94575739444006" lon="11.794466416667982"><ele>1156.0</ele><time>2026-05-01T13:41:17.999Z</time></trkpt><trkpt lat="45.94586248754113" lon="11.794461625391625"><ele>1152.25</ele><time>2026-05-01T13:41:18.999Z</time></trkpt><trkpt lat="45.945969663794244" lon="11.794469697435964"><ele>1148.5</ele><time>2026-05-01T13:41:19.999Z</time></trkpt><trkpt lat="45.946081179993875" lon="11.794493196386862"><ele>1144.75</ele><time>2026-05-01T13:41:20.999Z</time></trkpt><trkpt lat="45.946200198872006" lon="11.794530646094957"><ele>1141.0</ele><time>2026-05-01T13:41:21.999Z</time></trkpt><trkpt lat="45.94631950444365" lon="11.794574045201832"><ele>1141.0</ele><time>2026-05-01T13:41:22.999Z</time></trkpt><trkpt lat="45.946438065683815" lon="11.794609598319152"><ele>1141.0</ele><time>2026-05-01T13:41:23.999Z</time></trkpt><trkpt lat="45.9465628975755" lon="11.794633102248847"><ele>1141.0</ele><time>2026-05-01T13:41:24.999Z</time></trkpt><trkpt lat="45.94668467544085" lon="11.794655261762472"><ele>1141.0</ele><time>2026-05-01T13:41:25.999Z</time></trkpt><trkpt lat="45.94680504224614" lon="11.794687598786625"><ele>1138.0</ele><time>2026-05-01T13:41:26.999Z</time></trkpt><trkpt lat="45.94691644928459" lon="11.794726343793588"><ele>1135.0</ele><time>2026-05-01T13:41:27.999Z</time></trkpt><trkpt lat="45.94702312779422" lon="11.794759032983903"><ele>1132.0</ele><time>2026-05-01T13:41:28.999Z</time></trkpt><trkpt lat="45.94712200921842" lon="11.794797137874145"><ele>1129.0</ele><time>2026-05-01T13:41:29.999Z</time></trkpt><trkpt lat="45.94722458668057" lon="11.794846048993245"><ele>1126.0</ele><time>2026-05-01T13:41:30.999Z</time></trkpt><trkpt lat="45.94731554704432" lon="11.79492271092585"><ele>1126.0</ele><time>2026-05-01T13:41:31.999Z</time></trkpt><trkpt lat="45.947396261956904" lon="11.795021454344178"><ele>1126.0</ele><time>2026-05-01T13:41:32.999Z</time></trkpt><trkpt lat="45.94748376098012" lon="11.79511002343041"><ele>1126.0</ele><time>2026-05-01T13:41:33.999Z</time></trkpt><trkpt lat="45.94758314781755" lon="11.79517187082988"><ele>1126.0</ele><time>2026-05-01T13:41:34.999Z</time></trkpt><trkpt lat="45.94768806372788" lon="11.795210322363985"><ele>1126.0</ele><time>2026-05-01T13:41:35.999Z</time></trkpt><trkpt lat="45.947801304856206" lon="11.795226680112725"><ele>1126.2</ele><time>2026-05-01T13:41:36.999Z</time></trkpt><trkpt lat="45.94790646582555" lon="11.795239202137743"><ele>1126.3999999999999</ele><time>2026-05-01T13:41:37.999Z</time></trkpt><trkpt lat="45.94801064700664" lon="11.795261305906907"><ele>1126.6</ele><time>2026-05-01T13:41:38.999Z</time></trkpt><trkpt lat="45.94811385424551" lon="11.795285531871226"><ele>1126.8</ele><time>2026-05-01T13:41:39.999Z</time></trkpt><trkpt lat="45.94821365374224" lon="11.795324216242763"><ele>1127.0</ele><time>2026-05-01T13:41:40.999Z</time></trkpt><trkpt lat="45.948312723629016" lon="11.795383669154353"><ele>1120.5</ele><time>2026-05-01T13:41:41.999Z</time></trkpt><trkpt lat="45.94841315859208" lon="11.795466692462051"><ele>1114.0</ele><time>2026-05-01T13:41:42.999Z</time></trkpt><trkpt lat="45.948519550057924" lon="11.795570224117283"><ele>1107.5</ele><time>2026-05-01T13:41:43.999Z</time></trkpt><trkpt lat="45.94863438897801" lon="11.795670275223333"><ele>1101.0</ele><time>2026-05-01T13:41:44.999Z</time></trkpt><trkpt lat="45.94874162251058" lon="11.795742874794495"><ele>1101.0</ele><time>2026-05-01T13:41:45.999Z</time></trkpt><trkpt lat="45.9488505959176" lon="11.795794249483661"><ele>1101.0</ele><time>2026-05-01T13:41:46.999Z</time></trkpt><trkpt lat="45.94896712554915" lon="11.795850643828455"><ele>1101.0</ele><time>2026-05-01T13:41:47.999Z</time></trkpt><trkpt lat="45.94906802166313" lon="11.795923630718418"><ele>1101.0</ele><time>2026-05-01T13:41:48.999Z</time></trkpt><trkpt lat="45.94914488954137" lon="11.796036546076088"><ele>1099.8</ele><time>2026-05-01T13:41:49.999Z</time></trkpt><trkpt lat="45.949243669421755" lon="11.796097315972832"><ele>1098.6</ele><time>2026-05-01T13:41:50.999Z</time></trkpt><trkpt lat="45.9493345549131" lon="11.796129260267028"><ele>1097.4</ele><time>2026-05-01T13:41:51.999Z</time></trkpt><trkpt lat="45.9494428638875" lon="11.796133203769399"><ele>1096.2</ele><time>2026-05-01T13:41:52.999Z</time></trkpt><trkpt lat="45.949545756922" lon="11.79616902063612"><ele>1095.0</ele><time>2026-05-01T13:41:54Z</time></trkpt><trkpt lat="45.94964434072122" lon="11.796249547146072"><ele>1095.0</ele><time>2026-05-01T13:41:55Z</time></trkpt><trkpt lat="45.94973685779945" lon="11.796344485730893"><ele>1095.0</ele><time>2026-05-01T13:41:56Z</time></trkpt><trkpt lat="45.949843150036024" lon="11.79639652954562"><ele>1095.0</ele><time>2026-05-01T13:41:57Z</time></trkpt><trkpt lat="45.94995782634091" lon="11.796426796191032"><ele>1095.0</ele><time>2026-05-01T13:41:58Z</time></trkpt><trkpt lat="45.95007176332961" lon="11.79645119503675"><ele>1095.0</ele><time>2026-05-01T13:41:59Z</time></trkpt><trkpt lat="45.95017657074959" lon="11.79647776265494"><ele>1095.0</ele><time>2026-05-01T13:42:00Z</time></trkpt><trkpt lat="45.950285326408824" lon="11.796479026173213"><ele>1095.0</ele><time>2026-05-01T13:42:01Z</time></trkpt><trkpt lat="45.950398464912816" lon="11.79648710895317"><ele>1095.0</ele><time>2026-05-01T13:42:02Z</time></trkpt><trkpt lat="45.950512141838324" lon="11.796528649451403"><ele>1095.0</ele><time>2026-05-01T13:42:03Z</time></trkpt><trkpt lat="45.9506419278581" lon="11.79656523783623"><ele>1095.0</ele><time>2026-05-01T13:42:04Z</time></trkpt><trkpt lat="45.950773700817564" lon="11.796558134636891"><ele>1095.0</ele><time>2026-05-01T13:42:05Z</time></trkpt><trkpt lat="45.95091399769234" lon="11.796526046507434"><ele>1095.0</ele><time>2026-05-01T13:42:06Z</time></trkpt><trkpt lat="45.951047818602284" lon="11.796513479681387"><ele>1095.0</ele><time>2026-05-01T13:42:07Z</time></trkpt><trkpt lat="45.95116259261386" lon="11.796504777809204"><ele>1093.25</ele><time>2026-05-01T13:42:08Z</time></trkpt><trkpt lat="45.95126985943022" lon="11.796539437048523"><ele>1091.5</ele><time>2026-05-01T13:42:09Z</time></trkpt><trkpt lat="45.95137523481693" lon="11.796626595917061"><ele>1089.75</ele><time>2026-05-01T13:42:10Z</time></trkpt><trkpt lat="45.95146367743975" lon="11.796741640068886"><ele>1088.0</ele><time>2026-05-01T13:42:11Z</time></trkpt><trkpt lat="45.95153834907198" lon="11.796860014178266"><ele>1091.8</ele><time>2026-05-01T13:42:12Z</time></trkpt><trkpt lat="45.951612946430366" lon="11.796946849779168"><ele>1095.6</ele><time>2026-05-01T13:42:13Z</time></trkpt><trkpt lat="45.95170639599728" lon="11.797029333922888"><ele>1099.4</ele><time>2026-05-01T13:42:14Z</time></trkpt><trkpt lat="45.95182561576262" lon="11.797078018814116"><ele>1103.2</ele><time>2026-05-01T13:42:15Z</time></trkpt><trkpt lat="45.9519407354204" lon="11.79710578094402"><ele>1107.0</ele><time>2026-05-01T13:42:16Z</time></trkpt><trkpt lat="45.9520680801293" lon="11.797152368342726"><ele>1107.0</ele><time>2026-05-01T13:42:17Z</time></trkpt><trkpt lat="45.95219636749324" lon="11.797273902065992"><ele>1107.0</ele><time>2026-05-01T13:42:18Z</time></trkpt><trkpt lat="45.95233188249399" lon="11.797360831984504"><ele>1107.0</ele><time>2026-05-01T13:42:19Z</time></trkpt><trkpt lat="45.95245493621139" lon="11.797406955618696"><ele>1107.0</ele><time>2026-05-01T13:42:20Z</time></trkpt><trkpt lat="45.95258133401032" lon="11.797445686324654"><ele>1105.25</ele><time>2026-05-01T13:42:21Z</time></trkpt><trkpt lat="45.95270976452346" lon="11.797473754177334"><ele>1103.5</ele><time>2026-05-01T13:42:22Z</time></trkpt><trkpt lat="45.95282651507295" lon="11.797519241504178"><ele>1101.75</ele><time>2026-05-01T13:42:23Z</time></trkpt><trkpt lat="45.952926838249034" lon="11.797556851242366"><ele>1100.0</ele><time>2026-05-01T13:42:24Z</time></trkpt><trkpt lat="45.953035883443484" lon="11.797567461937547"><ele>1100.0</ele><time>2026-05-01T13:42:25Z</time></trkpt><trkpt lat="45.95315667198962" lon="11.797534735642085"><ele>1100.0</ele><time>2026-05-01T13:42:26Z</time></trkpt><trkpt lat="45.95327199327552" lon="11.797465475723326"><ele>1100.0</ele><time>2026-05-01T13:42:27Z</time></trkpt><trkpt lat="45.95337068824821" lon="11.797401340626578"><ele>1100.0</ele><time>2026-05-01T13:42:28Z</time></trkpt><trkpt lat="45.95347489962308" lon="11.797374543995442"><ele>1099.75</ele><time>2026-05-01T13:42:29Z</time></trkpt><trkpt lat="45.95357582763405" lon="11.79738875690886"><ele>1099.5</ele><time>2026-05-01T13:42:30Z</time></trkpt><trkpt lat="45.953682645853554" lon="11.797415193545897"><ele>1099.25</ele><time>2026-05-01T13:42:31Z</time></trkpt><trkpt lat="45.953818789626276" lon="11.79744836022518"><ele>1099.0</ele><time>2026-05-01T13:42:32Z</time></trkpt><trkpt lat="45.953922150941644" lon="11.797489436337495"><ele>1099.0</ele><time>2026-05-01T13:42:33Z</time></trkpt><trkpt lat="45.954036318428244" lon="11.79752799022556"><ele>1099.0</ele><time>2026-05-01T13:42:34Z</time></trkpt><trkpt lat="45.95414336300121" lon="11.797557953905446"><ele>1099.0</ele><time>2026-05-01T13:42:35Z</time></trkpt><trkpt lat="45.95426739780609" lon="11.797600153562849"><ele>1099.0</ele><time>2026-05-01T13:42:36Z</time></trkpt><trkpt lat="45.95438268580214" lon="11.797641922069774"><ele>1108.75</ele><time>2026-05-01T13:42:37Z</time></trkpt><trkpt lat="45.95450316707105" lon="11.797700232091167"><ele>1118.5</ele><time>2026-05-01T13:42:38Z</time></trkpt><trkpt lat="45.95462336473646" lon="11.797758575227931"><ele>1128.25</ele><time>2026-05-01T13:42:39Z</time></trkpt><trkpt lat="45.95474640371973" lon="11.797824300297055"><ele>1138.0</ele><time>2026-05-01T13:42:40Z</time></trkpt><trkpt lat="45.954862272615244" lon="11.797881732399377"><ele>1138.0</ele><time>2026-05-01T13:42:41Z</time></trkpt><trkpt lat="45.95497359326692" lon="11.79791657433877"><ele>1138.0</ele><time>2026-05-01T13:42:42Z</time></trkpt><trkpt lat="45.955082821843426" lon="11.797915794695864"><ele>1138.0</ele><time>2026-05-01T13:42:43Z</time></trkpt><trkpt lat="45.95519774241132" lon="11.79787059949662"><ele>1138.0</ele><time>2026-05-01T13:42:44Z</time></trkpt><trkpt lat="45.95529941620584" lon="11.797784008736363"><ele>1138.6</ele><time>2026-05-01T13:42:45Z</time></trkpt><trkpt lat="45.95539137880798" lon="11.797719487871605"><ele>1139.1999999999998</ele><time>2026-05-01T13:42:46Z</time></trkpt><trkpt lat="45.95547399552185" lon="11.797651078417811"><ele>1139.8</ele><time>2026-05-01T13:42:47Z</time></trkpt><trkpt lat="45.955573252011824" lon="11.797654170878896"><ele>1140.3999999999999</ele><time>2026-05-01T13:42:48Z</time></trkpt><trkpt lat="45.9556770336038" lon="11.79763268491304"><ele>1141.0</ele><time>2026-05-01T13:42:49Z</time></trkpt><trkpt lat="45.955785632018326" lon="11.797593029769146"><ele>1133.8</ele><time>2026-05-01T13:42:50Z</time></trkpt><trkpt lat="45.95589358155635" lon="11.797548631457444"><ele>1126.6</ele><time>2026-05-01T13:42:51Z</time></trkpt><trkpt lat="45.95598780071081" lon="11.797508035630042"><ele>1119.4</ele><time>2026-05-01T13:42:52Z</time></trkpt><trkpt lat="45.95607151090522" lon="11.797475678866794"><ele>1112.2</ele><time>2026-05-01T13:42:53Z</time></trkpt><trkpt lat="45.9561520949133" lon="11.797441433552557"><ele>1105.0</ele><time>2026-05-01T13:42:54Z</time></trkpt><trkpt lat="45.95623606499883" lon="11.797459593088181"><ele>1105.0</ele><time>2026-05-01T13:42:55Z</time></trkpt><trkpt lat="45.95632026339902" lon="11.797498603887727"><ele>1105.0</ele><time>2026-05-01T13:42:56Z</time></trkpt><trkpt lat="45.95642128614502" lon="11.797546094880932"><ele>1105.0</ele><time>2026-05-01T13:42:57Z</time></trkpt><trkpt lat="45.956518276332396" lon="11.79759274738247"><ele>1105.0</ele><time>2026-05-01T13:42:58Z</time></trkpt><trkpt lat="45.95662553781786" lon="11.797581827982775"><ele>1105.0</ele><time>2026-05-01T13:42:59Z</time></trkpt><trkpt lat="45.956729236043344" lon="11.797545830842568"><ele>1106.6</ele><time>2026-05-01T13:43:00Z</time></trkpt><trkpt lat="45.956828536230546" lon="11.79749330452944"><ele>1108.2</ele><time>2026-05-01T13:43:00.999Z</time></trkpt><trkpt lat="45.95691133341042" lon="11.797451633317218"><ele>1109.8</ele><time>2026-05-01T13:43:01.999Z</time></trkpt><trkpt lat="45.95698891150463" lon="11.797426019497445"><ele>1111.4</ele><time>2026-05-01T13:43:02.999Z</time></trkpt><trkpt lat="45.95706982424198" lon="11.797435471653845"><ele>1113.0</ele><time>2026-05-01T13:43:03.999Z</time></trkpt><trkpt lat="45.95716615377435" lon="11.797449316787956"><ele>1113.0</ele><time>2026-05-01T13:43:04.999Z</time></trkpt><trkpt lat="45.95726800226402" lon="11.797516209670768"><ele>1113.0</ele><time>2026-05-01T13:43:05.999Z</time></trkpt><trkpt lat="45.95737282186983" lon="11.79754101068746"><ele>1113.0</ele><time>2026-05-01T13:43:06.999Z</time></trkpt><trkpt lat="45.95747470752219" lon="11.797539807128576"><ele>1113.0</ele><time>2026-05-01T13:43:07.999Z</time></trkpt><trkpt lat="45.95757273643812" lon="11.79751257766827"><ele>1113.0</ele><time>2026-05-01T13:43:08.999Z</time></trkpt><trkpt lat="45.95767051635331" lon="11.797442294190075"><ele>1115.6</ele><time>2026-05-01T13:43:09.999Z</time></trkpt><trkpt lat="45.95776450218877" lon="11.797364304896961"><ele>1118.1999999999998</ele><time>2026-05-01T13:43:10.999Z</time></trkpt><trkpt lat="45.957858345900206" lon="11.7972795263022"><ele>1120.8</ele><time>2026-05-01T13:43:11.999Z</time></trkpt><trkpt lat="45.95794442532592" lon="11.797221655184794"><ele>1123.3999999999999</ele><time>2026-05-01T13:43:12.999Z</time></trkpt><trkpt lat="45.9580352967777" lon="11.797201790919072"><ele>1126.0</ele><time>2026-05-01T13:43:13.999Z</time></trkpt><trkpt lat="45.9581474563147" lon="11.797191484404127"><ele>1126.0</ele><time>2026-05-01T13:43:14.999Z</time></trkpt><trkpt lat="45.958255290731536" lon="11.797182443393382"><ele>1126.0</ele><time>2026-05-01T13:43:15.999Z</time></trkpt><trkpt lat="45.95834846270328" lon="11.797174507185652"><ele>1126.0</ele><time>2026-05-01T13:43:16.999Z</time></trkpt><trkpt lat="45.95844565465378" lon="11.797140024650734"><ele>1126.0</ele><time>2026-05-01T13:43:17.999Z</time></trkpt><trkpt lat="45.95854994615789" lon="11.797137799204961"><ele>1126.0</ele><time>2026-05-01T13:43:18.999Z</time></trkpt><trkpt lat="45.95865244955784" lon="11.797081909832867"><ele>1128.3999999999999</ele><time>2026-05-01T13:43:19.999Z</time></trkpt><trkpt lat="45.95874191269965" lon="11.796996988151877"><ele>1130.8</ele><time>2026-05-01T13:43:20.999Z</time></trkpt><trkpt lat="45.958820253504214" lon="11.796902827079085"><ele>1133.1999999999998</ele><time>2026-05-01T13:43:21.999Z</time></trkpt><trkpt lat="45.95889239307427" lon="11.796828077689046"><ele>1135.6</ele><time>2026-05-01T13:43:22.999Z</time></trkpt><trkpt lat="45.95898806622894" lon="11.79678069469162"><ele>1138.0</ele><time>2026-05-01T13:43:23.999Z</time></trkpt><trkpt lat="45.95909660407997" lon="11.796742337557085"><ele>1132.75</ele><time>2026-05-01T13:43:24.999Z</time></trkpt><trkpt lat="45.95920557132738" lon="11.796700925641844"><ele>1127.5</ele><time>2026-05-01T13:43:25.999Z</time></trkpt><trkpt lat="45.95931272893543" lon="11.796646884505773"><ele>1122.25</ele><time>2026-05-01T13:43:26.999Z</time></trkpt><trkpt lat="45.9594239405251" lon="11.796581191795843"><ele>1117.0</ele><time>2026-05-01T13:43:27.999Z</time></trkpt><trkpt lat="45.95953894223994" lon="11.796509802964808"><ele>1117.0</ele><time>2026-05-01T13:43:28.999Z</time></trkpt><trkpt lat="45.959662118303434" lon="11.796432929739133"><ele>1117.0</ele><time>2026-05-01T13:43:29.999Z</time></trkpt><trkpt lat="45.95978181179627" lon="11.796359156946979"><ele>1117.0</ele><time>2026-05-01T13:43:30.999Z</time></trkpt><trkpt lat="45.95989120438858" lon="11.79628672564614"><ele>1117.0</ele><time>2026-05-01T13:43:31.999Z</time></trkpt><trkpt lat="45.95998910477593" lon="11.796170046084963"><ele>1118.25</ele><time>2026-05-01T13:43:32.999Z</time></trkpt><trkpt lat="45.960071399956576" lon="11.796008106708792"><ele>1119.5</ele><time>2026-05-01T13:43:33.999Z</time></trkpt><trkpt lat="45.96016275102684" lon="11.795854126184588"><ele>1120.75</ele><time>2026-05-01T13:43:34.999Z</time></trkpt><trkpt lat="45.960256018690394" lon="11.795704835099318"><ele>1122.0</ele><time>2026-05-01T13:43:35.999Z</time></trkpt><trkpt lat="45.96034016522903" lon="11.795535211876189"><ele>1117.75</ele><time>2026-05-01T13:43:36.999Z</time></trkpt><trkpt lat="45.96042861903281" lon="11.795390982524529"><ele>1113.5</ele><time>2026-05-01T13:43:37.999Z</time></trkpt><trkpt lat="45.96050207152757" lon="11.795260082810751"><ele>1109.25</ele><time>2026-05-01T13:43:38.999Z</time></trkpt><trkpt lat="45.9605860502355" lon="11.79516215767909"><ele>1105.0</ele><time>2026-05-01T13:43:39.999Z</time></trkpt><trkpt lat="45.96065404388163" lon="11.795060415818718"><ele>1101.8</ele><time>2026-05-01T13:43:40.999Z</time></trkpt><trkpt lat="45.9607262581079" lon="11.794980985375592"><ele>1098.6</ele><time>2026-05-01T13:43:41.999Z</time></trkpt><trkpt lat="45.96080493322945" lon="11.794923538637581"><ele>1095.4</ele><time>2026-05-01T13:43:42.999Z</time></trkpt><trkpt lat="45.96090249930278" lon="11.794871304610256"><ele>1092.2</ele><time>2026-05-01T13:43:43.999Z</time></trkpt><trkpt lat="45.96101511961651" lon="11.79480520626634"><ele>1089.0</ele><time>2026-05-01T13:43:44.999Z</time></trkpt><trkpt lat="45.96112592882708" lon="11.794762503681008"><ele>1087.0</ele><time>2026-05-01T13:43:45.999Z</time></trkpt><trkpt lat="45.96122808785122" lon="11.794743841195698"><ele>1085.0</ele><time>2026-05-01T13:43:46.999Z</time></trkpt><trkpt lat="45.96131199959363" lon="11.794713009250005"><ele>1083.0</ele><time>2026-05-01T13:43:47.999Z</time></trkpt><trkpt lat="45.961405247780974" lon="11.794748432303077"><ele>1081.0</ele><time>2026-05-01T13:43:48.999Z</time></trkpt><trkpt lat="45.96149565677464" lon="11.794839170349402"><ele>1079.0</ele><time>2026-05-01T13:43:49.999Z</time></trkpt><trkpt lat="45.96157620078049" lon="11.794946566992188"><ele>1079.0</ele><time>2026-05-01T13:43:50.999Z</time></trkpt><trkpt lat="45.961654603548006" lon="11.795060154789248"><ele>1079.0</ele><time>2026-05-01T13:43:51.999Z</time></trkpt><trkpt lat="45.961718022442355" lon="11.79520277058781"><ele>1079.0</ele><time>2026-05-01T13:43:52.999Z</time></trkpt><trkpt lat="45.96178117526974" lon="11.795334887387877"><ele>1079.0</ele><time>2026-05-01T13:43:53.999Z</time></trkpt><trkpt lat="45.9618545622135" lon="11.795445506026491"><ele>1079.0</ele><time>2026-05-01T13:43:54.999Z</time></trkpt><trkpt lat="45.96190835594187" lon="11.795577087006638"><ele>1074.5</ele><time>2026-05-01T13:43:55.999Z</time></trkpt><trkpt lat="45.96194984586013" lon="11.79573255157469"><ele>1070.0</ele><time>2026-05-01T13:43:56.999Z</time></trkpt><trkpt lat="45.96197563401125" lon="11.795903043689668"><ele>1065.5</ele><time>2026-05-01T13:43:57.999Z</time></trkpt><trkpt lat="45.96199452067571" lon="11.796078947201401"><ele>1061.0</ele><time>2026-05-01T13:43:58.999Z</time></trkpt><trkpt lat="45.96202847561425" lon="11.79624577219718"><ele>1061.0</ele><time>2026-05-01T13:44:00Z</time></trkpt><trkpt lat="45.96204054473532" lon="11.796395066982873"><ele>1061.0</ele><time>2026-05-01T13:44:01Z</time></trkpt><trkpt lat="45.962057489726874" lon="11.796529993664086"><ele>1061.0</ele><time>2026-05-01T13:44:02Z</time></trkpt><trkpt lat="45.962076636581116" lon="11.796676664008851"><ele>1061.0</ele><time>2026-05-01T13:44:03Z</time></trkpt><trkpt lat="45.962035123177856" lon="11.796820434926632"><ele>1061.0</ele><time>2026-05-01T13:44:04Z</time></trkpt><trkpt lat="45.96198312216325" lon="11.796963205960248"><ele>1056.25</ele><time>2026-05-01T13:44:05Z</time></trkpt><trkpt lat="45.96191190397791" lon="11.79710735539867"><ele>1051.5</ele><time>2026-05-01T13:44:06Z</time></trkpt><trkpt lat="45.961839984406794" lon="11.79724908825718"><ele>1046.75</ele><time>2026-05-01T13:44:07Z</time></trkpt><trkpt lat="45.96177223292369" lon="11.797388065604677"><ele>1042.0</ele><time>2026-05-01T13:44:08Z</time></trkpt><trkpt lat="45.9617069375237" lon="11.797523875723314"><ele>1048.75</ele><time>2026-05-01T13:44:09Z</time></trkpt><trkpt lat="45.961642166966605" lon="11.797658725043686"><ele>1055.5</ele><time>2026-05-01T13:44:10Z</time></trkpt><trkpt lat="45.961578205402695" lon="11.797799583371832"><ele>1062.25</ele><time>2026-05-01T13:44:11Z</time></trkpt><trkpt lat="45.96151630640362" lon="11.797941724270354"><ele>1069.0</ele><time>2026-05-01T13:44:12Z</time></trkpt><trkpt lat="45.961473081085934" lon="11.798105033800876"><ele>1069.0</ele><time>2026-05-01T13:44:13Z</time></trkpt><trkpt lat="45.96145555520572" lon="11.798273795315389"><ele>1069.0</ele><time>2026-05-01T13:44:14Z</time></trkpt><trkpt lat="45.96140936910126" lon="11.798433839933052"><ele>1069.0</ele><time>2026-05-01T13:44:15Z</time></trkpt><trkpt lat="45.9613767595405" lon="11.798602340274813"><ele>1069.0</ele><time>2026-05-01T13:44:16Z</time></trkpt><trkpt lat="45.96134441757093" lon="11.798768737368201"><ele>1066.0</ele><time>2026-05-01T13:44:17Z</time></trkpt><trkpt lat="45.96131140515844" lon="11.79892788924745"><ele>1063.0</ele><time>2026-05-01T13:44:18Z</time></trkpt><trkpt lat="45.96129386150138" lon="11.799076740065729"><ele>1060.0</ele><time>2026-05-01T13:44:19Z</time></trkpt><trkpt lat="45.96126652708824" lon="11.7992073678264"><ele>1057.0</ele><time>2026-05-01T13:44:20Z</time></trkpt><trkpt lat="45.96123877352873" lon="11.799341645621034"><ele>1054.0</ele><time>2026-05-01T13:44:21Z</time></trkpt><trkpt lat="45.96121331447418" lon="11.799460531927302"><ele>1052.4</ele><time>2026-05-01T13:44:22Z</time></trkpt><trkpt lat="45.96117857830602" lon="11.799578829557033"><ele>1050.8000000000002</ele><time>2026-05-01T13:44:23Z</time></trkpt><trkpt lat="45.96113085564982" lon="11.79969445378329"><ele>1049.1999999999998</ele><time>2026-05-01T13:44:24Z</time></trkpt><trkpt lat="45.96107889806309" lon="11.79981649594603"><ele>1047.6</ele><time>2026-05-01T13:44:25Z</time></trkpt><trkpt lat="45.96101937738156" lon="11.799934317245315"><ele>1046.0</ele><time>2026-05-01T13:44:26Z</time></trkpt><trkpt lat="45.960954975593324" lon="11.800055328395121"><ele>1048.6</ele><time>2026-05-01T13:44:27Z</time></trkpt><trkpt lat="45.9608853352284" lon="11.800182908315543"><ele>1051.1999999999998</ele><time>2026-05-01T13:44:28Z</time></trkpt><trkpt lat="45.96081282836695" lon="11.800306099402787"><ele>1053.8000000000002</ele><time>2026-05-01T13:44:29Z</time></trkpt><trkpt lat="45.960739681279094" lon="11.800418535718705"><ele>1056.4</ele><time>2026-05-01T13:44:30Z</time></trkpt><trkpt lat="45.960666494594335" lon="11.800526503061658"><ele>1059.0</ele><time>2026-05-01T13:44:31Z</time></trkpt><trkpt lat="45.96059261838409" lon="11.800633289755401"><ele>1059.0</ele><time>2026-05-01T13:44:32Z</time></trkpt><trkpt lat="45.96051769746347" lon="11.80073216714608"><ele>1059.0</ele><time>2026-05-01T13:44:33Z</time></trkpt><trkpt lat="45.96044056126507" lon="11.800818631316448"><ele>1059.0</ele><time>2026-05-01T13:44:34Z</time></trkpt><trkpt lat="45.96036579359935" lon="11.800900854191285"><ele>1059.0</ele><time>2026-05-01T13:44:35Z</time></trkpt><trkpt lat="45.96029191364971" lon="11.800981948774313"><ele>1059.0</ele><time>2026-05-01T13:44:36Z</time></trkpt><trkpt lat="45.96021496462913" lon="11.801065874802275"><ele>1059.0</ele><time>2026-05-01T13:44:37Z</time></trkpt><trkpt lat="45.96013564110577" lon="11.801148586686706"><ele>1059.0</ele><time>2026-05-01T13:44:38Z</time></trkpt><trkpt lat="45.96005297920817" lon="11.80122261401115"><ele>1059.0</ele><time>2026-05-01T13:44:39Z</time></trkpt><trkpt lat="45.95995826232756" lon="11.801294479871622"><ele>1059.0</ele><time>2026-05-01T13:44:40Z</time></trkpt><trkpt lat="45.95985046731676" lon="11.80137174491939"><ele>1059.0</ele><time>2026-05-01T13:44:41Z</time></trkpt><trkpt lat="45.95973573990939" lon="11.801453979003966"><ele>1059.0</ele><time>2026-05-01T13:44:42Z</time></trkpt><trkpt lat="45.959620688311496" lon="11.801539078765096"><ele>1059.0</ele><time>2026-05-01T13:44:43Z</time></trkpt><trkpt lat="45.95950785383035" lon="11.801622892996582"><ele>1059.0</ele><time>2026-05-01T13:44:44Z</time></trkpt><trkpt lat="45.959410086448095" lon="11.801694262937376"><ele>1059.0</ele><time>2026-05-01T13:44:45Z</time></trkpt><trkpt lat="45.959315022420654" lon="11.801752307592878"><ele>1059.0</ele><time>2026-05-01T13:44:46Z</time></trkpt><trkpt lat="45.95922155908342" lon="11.801772116270362"><ele>1059.0</ele><time>2026-05-01T13:44:47Z</time></trkpt><trkpt lat="45.9591317514608" lon="11.801809441971068"><ele>1059.0</ele><time>2026-05-01T13:44:48Z</time></trkpt><trkpt lat="45.95906072179363" lon="11.80192835886959"><ele>1059.0</ele><time>2026-05-01T13:44:49Z</time></trkpt><trkpt lat="45.959032234831106" lon="11.802084252530372"><ele>1059.0</ele><time>2026-05-01T13:44:50Z</time></trkpt><trkpt lat="45.95899153031132" lon="11.802233634864203"><ele>1061.8</ele><time>2026-05-01T13:44:51Z</time></trkpt><trkpt lat="45.95896756783132" lon="11.802393242429066"><ele>1064.6000000000001</ele><time>2026-05-01T13:44:52Z</time></trkpt><trkpt lat="45.95891968576412" lon="11.802522712501188"><ele>1067.4</ele><time>2026-05-01T13:44:53Z</time></trkpt><trkpt lat="45.958887677103434" lon="11.802630615608638"><ele>1070.2</ele><time>2026-05-01T13:44:54Z</time></trkpt><trkpt lat="45.958873078867626" lon="11.80272858443321"><ele>1073.0</ele><time>2026-05-01T13:44:55Z</time></trkpt><trkpt lat="45.95894064572173" lon="11.802873070118926"><ele>1074.0</ele><time>2026-05-01T13:44:57Z</time></trkpt><trkpt lat="45.95901420974047" lon="11.802923888559592"><ele>1075.0</ele><time>2026-05-01T13:44:58Z</time></trkpt><trkpt lat="45.95910641934308" lon="11.802881453470416"><ele>1076.0</ele><time>2026-05-01T13:44:59Z</time></trkpt><trkpt lat="45.95917972218658" lon="11.80284416332076"><ele>1077.0</ele><time>2026-05-01T13:45:00Z</time></trkpt><trkpt lat="45.95925466008684" lon="11.802802580304387"><ele>1078.0</ele><time>2026-05-01T13:45:01Z</time></trkpt><trkpt lat="45.95932040410847" lon="11.802766154882564"><ele>1079.0</ele><time>2026-05-01T13:45:02Z</time></trkpt><trkpt lat="45.9593923795079" lon="11.802729006490003"><ele>1079.0</ele><time>2026-05-01T13:45:03Z</time></trkpt><trkpt lat="45.95947278379364" lon="11.802699669831032"><ele>1079.0</ele><time>2026-05-01T13:45:04Z</time></trkpt><trkpt lat="45.95954469112289" lon="11.80264867907699"><ele>1079.0</ele><time>2026-05-01T13:45:05Z</time></trkpt><trkpt lat="45.95962064605624" lon="11.802636322052544"><ele>1079.0</ele><time>2026-05-01T13:45:06Z</time></trkpt><trkpt lat="45.95969628650258" lon="11.802648351925692"><ele>1079.0</ele><time>2026-05-01T13:45:07Z</time></trkpt><trkpt lat="45.95977966277518" lon="11.802671941305732"><ele>1079.0</ele><time>2026-05-01T13:45:07.999Z</time></trkpt><trkpt lat="45.95986124206305" lon="11.802704324033444"><ele>1079.0</ele><time>2026-05-01T13:45:08.999Z</time></trkpt><trkpt lat="45.95994750498681" lon="11.802750782292366"><ele>1079.0</ele><time>2026-05-01T13:45:09.999Z</time></trkpt><trkpt lat="45.96003472935835" lon="11.802804207553352"><ele>1079.0</ele><time>2026-05-01T13:45:10.999Z</time></trkpt><trkpt lat="45.96012593542826" lon="11.802856448081398"><ele>1079.0</ele><time>2026-05-01T13:45:11.999Z</time></trkpt><trkpt lat="45.960223637568944" lon="11.80290952131222"><ele>1079.0</ele><time>2026-05-01T13:45:12.999Z</time></trkpt><trkpt lat="45.960308746477764" lon="11.802987775394076"><ele>1072.6000000000001</ele><time>2026-05-01T13:45:13.999Z</time></trkpt><trkpt lat="45.96038579810606" lon="11.80305242050678"><ele>1066.2</ele><time>2026-05-01T13:45:14.999Z</time></trkpt><trkpt lat="45.96046406662236" lon="11.80310696779967"><ele>1059.8000000000002</ele><time>2026-05-01T13:45:15.999Z</time></trkpt><trkpt lat="45.96050044293551" lon="11.8032314099108"><ele>1053.4</ele><time>2026-05-01T13:45:16.999Z</time></trkpt><trkpt lat="45.960529490441424" lon="11.803359804066671"><ele>1047.0</ele><time>2026-05-01T13:45:17.999Z</time></trkpt><trkpt lat="45.96056792088678" lon="11.80347711751087"><ele>1048.8333333333333</ele><time>2026-05-01T13:45:18.999Z</time></trkpt><trkpt lat="45.96058928549354" lon="11.8035914192592"><ele>1050.6666666666667</ele><time>2026-05-01T13:45:19.999Z</time></trkpt><trkpt lat="45.960618032997445" lon="11.803688915572408"><ele>1052.5</ele><time>2026-05-01T13:45:20.999Z</time></trkpt><trkpt lat="45.96065671718598" lon="11.803768414468674"><ele>1054.3333333333335</ele><time>2026-05-01T13:45:21.999Z</time></trkpt><trkpt lat="45.9607191303437" lon="11.803814605162854"><ele>1056.1666666666667</ele><time>2026-05-01T13:45:22.999Z</time></trkpt><trkpt lat="45.96079590090279" lon="11.803803539129298"><ele>1058.0</ele><time>2026-05-01T13:45:23.999Z</time></trkpt><trkpt lat="45.96088946812334" lon="11.803789079643574"><ele>1058.0</ele><time>2026-05-01T13:45:24.999Z</time></trkpt><trkpt lat="45.96098952682347" lon="11.803746925807658"><ele>1058.0</ele><time>2026-05-01T13:45:25.999Z</time></trkpt><trkpt lat="45.96109555866492" lon="11.803689985683434"><ele>1058.0</ele><time>2026-05-01T13:45:26.999Z</time></trkpt><trkpt lat="45.96119586359979" lon="11.803630330913968"><ele>1058.0</ele><time>2026-05-01T13:45:27.999Z</time></trkpt><trkpt lat="45.96128760248706" lon="11.803579686346175"><ele>1058.0</ele><time>2026-05-01T13:45:28.999Z</time></trkpt><trkpt lat="45.96137540870485" lon="11.803553801981154"><ele>1058.0</ele><time>2026-05-01T13:45:29.999Z</time></trkpt><trkpt lat="45.961453505490155" lon="11.803574225386308"><ele>1058.0</ele><time>2026-05-01T13:45:30.999Z</time></trkpt><trkpt lat="45.96154715027677" lon="11.80359097484933"><ele>1058.0</ele><time>2026-05-01T13:45:31.999Z</time></trkpt><trkpt lat="45.961634601359144" lon="11.803648201608286"><ele>1058.0</ele><time>2026-05-01T13:45:32.999Z</time></trkpt><trkpt lat="45.961712569338935" lon="11.803732063517193"><ele>1058.0</ele><time>2026-05-01T13:45:33.999Z</time></trkpt><trkpt lat="45.96177359263816" lon="11.803843638153047"><ele>1054.8</ele><time>2026-05-01T13:45:34.999Z</time></trkpt><trkpt lat="45.961833013031445" lon="11.803955935328236"><ele>1051.6</ele><time>2026-05-01T13:45:35.999Z</time></trkpt><trkpt lat="45.96188693946695" lon="11.804067490074523"><ele>1048.4</ele><time>2026-05-01T13:45:36.999Z</time></trkpt><trkpt lat="45.96198832819819" lon="11.804109940121835"><ele>1045.2</ele><time>2026-05-01T13:45:37.999Z</time></trkpt><trkpt lat="45.962105828728824" lon="11.804082041601584"><ele>1042.0</ele><time>2026-05-01T13:45:38.999Z</time></trkpt><trkpt lat="45.96223154325811" lon="11.804037662889622"><ele>1042.0</ele><time>2026-05-01T13:45:39.999Z</time></trkpt><trkpt lat="45.962341819999175" lon="11.803997761471184"><ele>1042.0</ele><time>2026-05-01T13:45:40.999Z</time></trkpt><trkpt lat="45.96243714772388" lon="11.803968042315061"><ele>1042.0</ele><time>2026-05-01T13:45:41.999Z</time></trkpt><trkpt lat="45.96252285479256" lon="11.8039626433675"><ele>1042.0</ele><time>2026-05-01T13:45:42.999Z</time></trkpt><trkpt lat="45.96261115835251" lon="11.803983778569085"><ele>1042.0</ele><time>2026-05-01T13:45:43.999Z</time></trkpt><trkpt lat="45.9626853646335" lon="11.804081966909132"><ele>1041.25</ele><time>2026-05-01T13:45:44.999Z</time></trkpt><trkpt lat="45.96273569183972" lon="11.80421768988239"><ele>1040.5</ele><time>2026-05-01T13:45:45.999Z</time></trkpt><trkpt lat="45.96276824186921" lon="11.804386142043768"><ele>1039.75</ele><time>2026-05-01T13:45:46.999Z</time></trkpt><trkpt lat="45.96280721641987" lon="11.804565066788703"><ele>1039.0</ele><time>2026-05-01T13:45:47.999Z</time></trkpt><trkpt lat="45.962875541968494" lon="11.804726086012838"><ele>1039.0</ele><time>2026-05-01T13:45:48.999Z</time></trkpt><trkpt lat="45.96297489828606" lon="11.804871850451928"><ele>1039.0</ele><time>2026-05-01T13:45:49.999Z</time></trkpt><trkpt lat="45.963078138178176" lon="11.805008010977845"><ele>1039.0</ele><time>2026-05-01T13:45:50.999Z</time></trkpt><trkpt lat="45.96317917419077" lon="11.805139412166985"><ele>1039.0</ele><time>2026-05-01T13:45:51.999Z</time></trkpt><trkpt lat="45.963279776606974" lon="11.80526954895648"><ele>1039.5</ele><time>2026-05-01T13:45:52.999Z</time></trkpt><trkpt lat="45.963378421739826" lon="11.805394597698033"><ele>1040.0</ele><time>2026-05-01T13:45:53.999Z</time></trkpt><trkpt lat="45.96346917392852" lon="11.805507054646498"><ele>1040.5</ele><time>2026-05-01T13:45:54.999Z</time></trkpt><trkpt lat="45.96356534997543" lon="11.805600581924253"><ele>1041.0</ele><time>2026-05-01T13:45:55.999Z</time></trkpt><trkpt lat="45.963675436915274" lon="11.80566146040797"><ele>1041.0</ele><time>2026-05-01T13:45:56.999Z</time></trkpt><trkpt lat="45.963795977061615" lon="11.805687450714604"><ele>1041.0</ele><time>2026-05-01T13:45:57.999Z</time></trkpt><trkpt lat="45.963917387309685" lon="11.805699656066183"><ele>1041.0</ele><time>2026-05-01T13:45:58.999Z</time></trkpt><trkpt lat="45.96403580109438" lon="11.805713396235975"><ele>1041.0</ele><time>2026-05-01T13:45:59.999Z</time></trkpt><trkpt lat="45.96414844151328" lon="11.80574498209082"><ele>1038.5</ele><time>2026-05-01T13:46:00.999Z</time></trkpt><trkpt lat="45.96424973394222" lon="11.805804625732929"><ele>1036.0</ele><time>2026-05-01T13:46:01.999Z</time></trkpt><trkpt lat="45.96433971713875" lon="11.80591674517454"><ele>1033.5</ele><time>2026-05-01T13:46:02.999Z</time></trkpt><trkpt lat="45.964417390712256" lon="11.806075115508557"><ele>1031.0</ele><time>2026-05-01T13:46:03.999Z</time></trkpt><trkpt lat="45.96450003964775" lon="11.806230014950748"><ele>1031.0</ele><time>2026-05-01T13:46:04.999Z</time></trkpt><trkpt lat="45.96461791366551" lon="11.806328137248647"><ele>1031.0</ele><time>2026-05-01T13:46:06Z</time></trkpt><trkpt lat="45.9647507154865" lon="11.806377637502658"><ele>1031.0</ele><time>2026-05-01T13:46:07Z</time></trkpt><trkpt lat="45.96487241755737" lon="11.806420922918699"><ele>1031.0</ele><time>2026-05-01T13:46:08Z</time></trkpt><trkpt lat="45.964955584210124" lon="11.806555930186319"><ele>1033.75</ele><time>2026-05-01T13:46:09Z</time></trkpt><trkpt lat="45.96503217205309" lon="11.80670976420226"><ele>1036.5</ele><time>2026-05-01T13:46:10Z</time></trkpt><trkpt lat="45.965123068737384" lon="11.806838364510496"><ele>1039.25</ele><time>2026-05-01T13:46:11Z</time></trkpt><trkpt lat="45.96522828281474" lon="11.806928403289152"><ele>1042.0</ele><time>2026-05-01T13:46:12Z</time></trkpt><trkpt lat="45.96535051530785" lon="11.806977372010495"><ele>1042.0</ele><time>2026-05-01T13:46:13Z</time></trkpt><trkpt lat="45.96547376286283" lon="11.806985122541038"><ele>1042.0</ele><time>2026-05-01T13:46:14Z</time></trkpt><trkpt lat="45.965590308600675" lon="11.806960106021435"><ele>1042.0</ele><time>2026-05-01T13:46:15Z</time></trkpt><trkpt lat="45.96570395495605" lon="11.806912162908468"><ele>1042.0</ele><time>2026-05-01T13:46:16Z</time></trkpt><trkpt lat="45.96581169742033" lon="11.806866809288916"><ele>1036.0</ele><time>2026-05-01T13:46:17Z</time></trkpt><trkpt lat="45.96592075940016" lon="11.806801006326722"><ele>1030.0</ele><time>2026-05-01T13:46:18Z</time></trkpt><trkpt lat="45.96602916541234" lon="11.806713407129623"><ele>1024.0</ele><time>2026-05-01T13:46:19Z</time></trkpt><trkpt lat="45.96612883565402" lon="11.806634522436674"><ele>1018.0</ele><time>2026-05-01T13:46:20Z</time></trkpt><trkpt lat="45.9662211908631" lon="11.806572928550214"><ele>1018.0</ele><time>2026-05-01T13:46:21Z</time></trkpt><trkpt lat="45.966333508928116" lon="11.806542297796453"><ele>1018.0</ele><time>2026-05-01T13:46:22Z</time></trkpt><trkpt lat="45.9664593118589" lon="11.8065666864785"><ele>1018.0</ele><time>2026-05-01T13:46:23Z</time></trkpt><trkpt lat="45.96657725444555" lon="11.806597128853287"><ele>1018.0</ele><time>2026-05-01T13:46:24Z</time></trkpt><trkpt lat="45.96668962606829" lon="11.806620203986945"><ele>1017.2</ele><time>2026-05-01T13:46:25Z</time></trkpt><trkpt lat="45.96679800802543" lon="11.806643958730703"><ele>1016.4</ele><time>2026-05-01T13:46:26Z</time></trkpt><trkpt lat="45.9668941907544" lon="11.806669211867574"><ele>1015.6000000000001</ele><time>2026-05-01T13:46:27Z</time></trkpt><trkpt lat="45.96698881525649" lon="11.80670218921796"><ele>1014.8000000000001</ele><time>2026-05-01T13:46:28Z</time></trkpt><trkpt lat="45.96708643305214" lon="11.806747702542866"><ele>1014.0</ele><time>2026-05-01T13:46:29Z</time></trkpt><trkpt lat="45.96717990880648" lon="11.806817205786578"><ele>1014.0</ele><time>2026-05-01T13:46:30Z</time></trkpt><trkpt lat="45.967269871450014" lon="11.806915201684472"><ele>1014.0</ele><time>2026-05-01T13:46:31Z</time></trkpt><trkpt lat="45.96736413157366" lon="11.80703226737894"><ele>1014.0</ele><time>2026-05-01T13:46:32Z</time></trkpt><trkpt lat="45.96746154390717" lon="11.80715354959799"><ele>1014.0</ele><time>2026-05-01T13:46:33Z</time></trkpt><trkpt lat="45.96756296334284" lon="11.807275943754409"><ele>1014.0</ele><time>2026-05-01T13:46:34Z</time></trkpt><trkpt lat="45.96767232784332" lon="11.807398445611474"><ele>1014.0</ele><time>2026-05-01T13:46:35Z</time></trkpt><trkpt lat="45.9677799062799" lon="11.807509485825609"><ele>1014.0</ele><time>2026-05-01T13:46:36Z</time></trkpt><trkpt lat="45.9678867269388" lon="11.80760040726391"><ele>1014.0</ele><time>2026-05-01T13:46:37Z</time></trkpt><trkpt lat="45.96799725609794" lon="11.80766565826134"><ele>1014.4000000000001</ele><time>2026-05-01T13:46:38Z</time></trkpt><trkpt lat="45.96810921605179" lon="11.807711141283955"><ele>1014.8000000000001</ele><time>2026-05-01T13:46:39Z</time></trkpt><trkpt lat="45.968217681828364" lon="11.807746596691333"><ele>1015.1999999999999</ele><time>2026-05-01T13:46:40Z</time></trkpt><trkpt lat="45.968323111697494" lon="11.807756662208805"><ele>1015.5999999999999</ele><time>2026-05-01T13:46:41Z</time></trkpt><trkpt lat="45.96842226797144" lon="11.807717497623617"><ele>1016.0</ele><time>2026-05-01T13:46:42Z</time></trkpt><trkpt lat="45.96852127767418" lon="11.807629642080272"><ele>1016.0</ele><time>2026-05-01T13:46:43Z</time></trkpt><trkpt lat="45.968625749513585" lon="11.80752722742467"><ele>1016.0</ele><time>2026-05-01T13:46:44Z</time></trkpt><trkpt lat="45.968741472142106" lon="11.807464975756059"><ele>1016.0</ele><time>2026-05-01T13:46:45Z</time></trkpt><trkpt lat="45.96886600022496" lon="11.807419209473393"><ele>1016.0</ele><time>2026-05-01T13:46:46Z</time></trkpt><trkpt lat="45.96898973845138" lon="11.807379157138765"><ele>1016.0</ele><time>2026-05-01T13:46:47Z</time></trkpt><trkpt lat="45.96910735374968" lon="11.807358576560864"><ele>1016.0</ele><time>2026-05-01T13:46:48Z</time></trkpt><trkpt lat="45.96921941987739" lon="11.807375822660877"><ele>1016.0</ele><time>2026-05-01T13:46:49Z</time></trkpt><trkpt lat="45.96932365369206" lon="11.807442707800984"><ele>1016.0</ele><time>2026-05-01T13:46:50Z</time></trkpt><trkpt lat="45.96943036262472" lon="11.807528100251506"><ele>1018.0</ele><time>2026-05-01T13:46:51Z</time></trkpt><trkpt lat="45.96955215306772" lon="11.807564154421481"><ele>1020.0</ele><time>2026-05-01T13:46:52Z</time></trkpt><trkpt lat="45.969676897550805" lon="11.80758840620694"><ele>1022.0</ele><time>2026-05-01T13:46:53Z</time></trkpt><trkpt lat="45.96979281471296" lon="11.80761191976339"><ele>1024.0</ele><time>2026-05-01T13:46:54Z</time></trkpt><trkpt lat="45.96989654335527" lon="11.80767340048046"><ele>1024.0</ele><time>2026-05-01T13:46:55Z</time></trkpt><trkpt lat="45.969980344254324" lon="11.807795214379757"><ele>1024.0</ele><time>2026-05-01T13:46:56Z</time></trkpt><trkpt lat="45.97005490912471" lon="11.80794740212269"><ele>1024.0</ele><time>2026-05-01T13:46:57Z</time></trkpt><trkpt lat="45.970119113141244" lon="11.80806545131351"><ele>1024.0</ele><time>2026-05-01T13:46:58Z</time></trkpt><trkpt lat="45.97017434593711" lon="11.808167827350838"><ele>1024.0</ele><time>2026-05-01T13:46:59Z</time></trkpt><trkpt lat="45.97023233634152" lon="11.80825156588113"><ele>1020.6</ele><time>2026-05-01T13:47:00Z</time></trkpt><trkpt lat="45.970307878967894" lon="11.808314771650013"><ele>1017.2</ele><time>2026-05-01T13:47:01Z</time></trkpt><trkpt lat="45.970395585107234" lon="11.80835240191792"><ele>1013.8000000000001</ele><time>2026-05-01T13:47:02Z</time></trkpt><trkpt lat="45.97049942443737" lon="11.808376386759655"><ele>1010.4000000000001</ele><time>2026-05-01T13:47:03Z</time></trkpt><trkpt lat="45.97060799084105" lon="11.808395964854546"><ele>1007.0</ele><time>2026-05-01T13:47:04Z</time></trkpt><trkpt lat="45.9707189030052" lon="11.80842340909547"><ele>1007.0</ele><time>2026-05-01T13:47:05Z</time></trkpt><trkpt lat="45.97083305658599" lon="11.808459233722903"><ele>1007.0</ele><time>2026-05-01T13:47:06Z</time></trkpt><trkpt lat="45.97095420484849" lon="11.808487250272035"><ele>1007.0</ele><time>2026-05-01T13:47:07Z</time></trkpt><trkpt lat="45.971082759079046" lon="11.808525587434778"><ele>1007.0</ele><time>2026-05-01T13:47:08Z</time></trkpt><trkpt lat="45.97120588604301" lon="11.808570042331624"><ele>1004.25</ele><time>2026-05-01T13:47:08.999Z</time></trkpt><trkpt lat="45.97132539719947" lon="11.808599281886185"><ele>1001.5</ele><time>2026-05-01T13:47:09.999Z</time></trkpt><trkpt lat="45.97144867977844" lon="11.80859248302047"><ele>998.75</ele><time>2026-05-01T13:47:10.999Z</time></trkpt><trkpt lat="45.9715826293192" lon="11.80852955310203"><ele>996.0</ele><time>2026-05-01T13:47:11.999Z</time></trkpt><trkpt lat="45.97174084566236" lon="11.808465988884798"><ele>996.0</ele><time>2026-05-01T13:47:12.999Z</time></trkpt><trkpt lat="45.97188616628645" lon="11.808428461711848"><ele>996.0</ele><time>2026-05-01T13:47:13.999Z</time></trkpt><trkpt lat="45.97202179752432" lon="11.80841355054576"><ele>996.0</ele><time>2026-05-01T13:47:14.999Z</time></trkpt><trkpt lat="45.97214048228938" lon="11.808411603420007"><ele>996.0</ele><time>2026-05-01T13:47:15.999Z</time></trkpt><trkpt lat="45.97225299792433" lon="11.808420373104186"><ele>996.0</ele><time>2026-05-01T13:47:16.999Z</time></trkpt><trkpt lat="45.97236868753221" lon="11.808428411361025"><ele>996.0</ele><time>2026-05-01T13:47:17.999Z</time></trkpt><trkpt lat="45.97248284824172" lon="11.808443142265237"><ele>996.0</ele><time>2026-05-01T13:47:18.999Z</time></trkpt><trkpt lat="45.97259532624291" lon="11.808480509737187"><ele>996.0</ele><time>2026-05-01T13:47:19.999Z</time></trkpt><trkpt lat="45.972703472852864" lon="11.808538464062684"><ele>1001.5</ele><time>2026-05-01T13:47:20.999Z</time></trkpt><trkpt lat="45.97281345109528" lon="11.808597313686704"><ele>1007.0</ele><time>2026-05-01T13:47:21.999Z</time></trkpt><trkpt lat="45.97292430130689" lon="11.808661728426925"><ele>1012.5</ele><time>2026-05-01T13:47:22.999Z</time></trkpt><trkpt lat="45.97303169878951" lon="11.80872078970815"><ele>1018.0</ele><time>2026-05-01T13:47:23.999Z</time></trkpt><trkpt lat="45.973135185402455" lon="11.8087619313236"><ele>1018.0</ele><time>2026-05-01T13:47:24.999Z</time></trkpt><trkpt lat="45.97324058470124" lon="11.8087442931217"><ele>1018.0</ele><time>2026-05-01T13:47:25.999Z</time></trkpt><trkpt lat="45.973366265403634" lon="11.808685431885825"><ele>1018.0</ele><time>2026-05-01T13:47:26.999Z</time></trkpt><trkpt lat="45.97349310173713" lon="11.808591028089936"><ele>1018.0</ele><time>2026-05-01T13:47:27.999Z</time></trkpt><trkpt lat="45.97361542773878" lon="11.808494867867921"><ele>1010.75</ele><time>2026-05-01T13:47:28.999Z</time></trkpt><trkpt lat="45.97372139028481" lon="11.808429003089309"><ele>1003.5</ele><time>2026-05-01T13:47:29.999Z</time></trkpt><trkpt lat="45.973825435171754" lon="11.808377872930475"><ele>996.25</ele><time>2026-05-01T13:47:30.999Z</time></trkpt><trkpt lat="45.973938736927884" lon="11.808349987076296"><ele>989.0</ele><time>2026-05-01T13:47:31.999Z</time></trkpt><trkpt lat="45.974054119371274" lon="11.808348032802796"><ele>989.0</ele><time>2026-05-01T13:47:32.999Z</time></trkpt><trkpt lat="45.9741790999904" lon="11.808373432342714"><ele>989.0</ele><time>2026-05-01T13:47:33.999Z</time></trkpt><trkpt lat="45.97430375066908" lon="11.808415026559274"><ele>989.0</ele><time>2026-05-01T13:47:34.999Z</time></trkpt><trkpt lat="45.97443068399802" lon="11.808456526301454"><ele>989.0</ele><time>2026-05-01T13:47:35.999Z</time></trkpt><trkpt lat="45.974540954852266" lon="11.808477682189274"><ele>990.0</ele><time>2026-05-01T13:47:36.999Z</time></trkpt><trkpt lat="45.97464105445472" lon="11.808500625357029"><ele>991.0000000000001</ele><time>2026-05-01T13:47:37.999Z</time></trkpt><trkpt lat="45.97473201048895" lon="11.80851918837918"><ele>992.0000000000001</ele><time>2026-05-01T13:47:38.999Z</time></trkpt><trkpt lat="45.97481706460403" lon="11.808487240050287"><ele>993.0</ele><time>2026-05-01T13:47:39.999Z</time></trkpt><trkpt lat="45.97489745900742" lon="11.808401007134274"><ele>994.0</ele><time>2026-05-01T13:47:40.999Z</time></trkpt><trkpt lat="45.97494873076868" lon="11.808248648688194"><ele>994.0</ele><time>2026-05-01T13:47:41.999Z</time></trkpt><trkpt lat="45.97499149891603" lon="11.808053501833038"><ele>994.0</ele><time>2026-05-01T13:47:42.999Z</time></trkpt><trkpt lat="45.975042546479955" lon="11.80787916628862"><ele>994.0</ele><time>2026-05-01T13:47:43.999Z</time></trkpt><trkpt lat="45.9750995514915" lon="11.807714671876708"><ele>994.0</ele><time>2026-05-01T13:47:44.999Z</time></trkpt><trkpt lat="45.97515266333118" lon="11.807563330159287"><ele>994.25</ele><time>2026-05-01T13:47:45.999Z</time></trkpt><trkpt lat="45.975208848359685" lon="11.807422963182127"><ele>994.5</ele><time>2026-05-01T13:47:46.999Z</time></trkpt><trkpt lat="45.97527930452907" lon="11.807305129285673"><ele>994.75</ele><time>2026-05-01T13:47:47.999Z</time></trkpt><trkpt lat="45.975373367501646" lon="11.80720627669362"><ele>995.0</ele><time>2026-05-01T13:47:48.999Z</time></trkpt><trkpt lat="45.975491397406486" lon="11.807113044309645"><ele>995.0</ele><time>2026-05-01T13:47:49.999Z</time></trkpt><trkpt lat="45.975608225116545" lon="11.807006601354576"><ele>995.0</ele><time>2026-05-01T13:47:50.999Z</time></trkpt><trkpt lat="45.97570781523379" lon="11.806871574716876"><ele>995.0</ele><time>2026-05-01T13:47:51.999Z</time></trkpt><trkpt lat="45.975810861759484" lon="11.806760613925997"><ele>995.0</ele><time>2026-05-01T13:47:52.999Z</time></trkpt><trkpt lat="45.975935993793975" lon="11.806690971334024"><ele>987.0</ele><time>2026-05-01T13:47:53.999Z</time></trkpt><trkpt lat="45.976063448561725" lon="11.806660203245452"><ele>979.0</ele><time>2026-05-01T13:47:54.999Z</time></trkpt><trkpt lat="45.976197352299586" lon="11.806630976022758"><ele>971.0</ele><time>2026-05-01T13:47:55.999Z</time></trkpt><trkpt lat="45.976352640481046" lon="11.806625676385483"><ele>963.0</ele><time>2026-05-01T13:47:56.999Z</time></trkpt><trkpt lat="45.976515531529316" lon="11.806645492115587"><ele>963.0</ele><time>2026-05-01T13:47:57.999Z</time></trkpt><trkpt lat="45.976670501396015" lon="11.806682909542594"><ele>963.0</ele><time>2026-05-01T13:47:58.999Z</time></trkpt><trkpt lat="45.97681216261076" lon="11.806718244509282"><ele>963.0</ele><time>2026-05-01T13:47:59.999Z</time></trkpt><trkpt lat="45.97694447524844" lon="11.806751898413385"><ele>963.0</ele><time>2026-05-01T13:48:00.999Z</time></trkpt><trkpt lat="45.977065594190314" lon="11.806780867854044"><ele>962.0</ele><time>2026-05-01T13:48:01.999Z</time></trkpt><trkpt lat="45.97718470360141" lon="11.806796010220651"><ele>961.0</ele><time>2026-05-01T13:48:02.999Z</time></trkpt><trkpt lat="45.97729780026925" lon="11.806794086562846"><ele>960.0</ele><time>2026-05-01T13:48:03.999Z</time></trkpt><trkpt lat="45.97741164590486" lon="11.806769487684898"><ele>959.0</ele><time>2026-05-01T13:48:04.999Z</time></trkpt><trkpt lat="45.97752419470681" lon="11.806721674144567"><ele>959.0</ele><time>2026-05-01T13:48:05.999Z</time></trkpt><trkpt lat="45.97762761513513" lon="11.806632078021456"><ele>959.0</ele><time>2026-05-01T13:48:06.999Z</time></trkpt><trkpt lat="45.977710508399525" lon="11.806494875907884"><ele>959.0</ele><time>2026-05-01T13:48:07.999Z</time></trkpt><trkpt lat="45.97778931457884" lon="11.806337684275885"><ele>959.0</ele><time>2026-05-01T13:48:08.999Z</time></trkpt><trkpt lat="45.97788107516521" lon="11.806197886904354"><ele>959.0</ele><time>2026-05-01T13:48:09.999Z</time></trkpt><trkpt lat="45.97798316077915" lon="11.806086546759554"><ele>959.0</ele><time>2026-05-01T13:48:10.999Z</time></trkpt><trkpt lat="45.978106009920054" lon="11.80599824434769"><ele>959.0</ele><time>2026-05-01T13:48:12Z</time></trkpt><trkpt lat="45.978226075847026" lon="11.80594076182678"><ele>959.0</ele><time>2026-05-01T13:48:13Z</time></trkpt><trkpt lat="45.97836698776657" lon="11.805931252153957"><ele>955.0</ele><time>2026-05-01T13:48:14Z</time></trkpt><trkpt lat="45.97850290416058" lon="11.80595607369959"><ele>951.0</ele><time>2026-05-01T13:48:15Z</time></trkpt><trkpt lat="45.978623045573954" lon="11.806012570111502"><ele>947.0</ele><time>2026-05-01T13:48:16Z</time></trkpt><trkpt lat="45.9787403813631" lon="11.806126907335287"><ele>943.0</ele><time>2026-05-01T13:48:17Z</time></trkpt><trkpt lat="45.97886468682853" lon="11.806285395790717"><ele>943.0</ele><time>2026-05-01T13:48:18Z</time></trkpt><trkpt lat="45.97900529622267" lon="11.806446363959584"><ele>943.0</ele><time>2026-05-01T13:48:19Z</time></trkpt><trkpt lat="45.979150242245865" lon="11.806576479359876"><ele>943.0</ele><time>2026-05-01T13:48:20Z</time></trkpt><trkpt lat="45.97930257804665" lon="11.806674289830267"><ele>941.5</ele><time>2026-05-01T13:48:21Z</time></trkpt><trkpt lat="45.97944286163506" lon="11.806756805965708"><ele>940.0</ele><time>2026-05-01T13:48:22Z</time></trkpt><trkpt lat="45.979569491567034" lon="11.806833119919345"><ele>938.5</ele><time>2026-05-01T13:48:23Z</time></trkpt><trkpt lat="45.979684499292205" lon="11.806944432697897"><ele>937.0</ele><time>2026-05-01T13:48:24Z</time></trkpt><trkpt lat="45.97978786025897" lon="11.807100633435322"><ele>937.0</ele><time>2026-05-01T13:48:25Z</time></trkpt><trkpt lat="45.97987830428496" lon="11.807244481271598"><ele>937.0</ele><time>2026-05-01T13:48:26Z</time></trkpt><trkpt lat="45.979980778540465" lon="11.807357842124954"><ele>937.0</ele><time>2026-05-01T13:48:27Z</time></trkpt><trkpt lat="45.98009894863504" lon="11.80742362507572"><ele>937.0</ele><time>2026-05-01T13:48:28Z</time></trkpt><trkpt lat="45.98022949689932" lon="11.807455871103777"><ele>936.75</ele><time>2026-05-01T13:48:29Z</time></trkpt><trkpt lat="45.98036297296327" lon="11.807487310655329"><ele>936.5</ele><time>2026-05-01T13:48:30Z</time></trkpt><trkpt lat="45.98048239143087" lon="11.80753900807998"><ele>936.25</ele><time>2026-05-01T13:48:31Z</time></trkpt><trkpt lat="45.98058502154349" lon="11.807625279088288"><ele>936.0</ele><time>2026-05-01T13:48:32Z</time></trkpt><trkpt lat="45.980669222574704" lon="11.807755267136503"><ele>936.0</ele><time>2026-05-01T13:48:33Z</time></trkpt><trkpt lat="45.98072930162349" lon="11.80790570375752"><ele>936.0</ele><time>2026-05-01T13:48:34Z</time></trkpt><trkpt lat="45.9808008862043" lon="11.808034662706602"><ele>936.0</ele><time>2026-05-01T13:48:35Z</time></trkpt><trkpt lat="45.980912669743965" lon="11.808112558250375"><ele>936.0</ele><time>2026-05-01T13:48:36Z</time></trkpt><trkpt lat="45.98104702477305" lon="11.808180564670899"><ele>930.25</ele><time>2026-05-01T13:48:37Z</time></trkpt><trkpt lat="45.98117718175828" lon="11.808224864122499"><ele>924.5</ele><time>2026-05-01T13:48:38Z</time></trkpt><trkpt lat="45.981289868947584" lon="11.808250493833727"><ele>918.75</ele><time>2026-05-01T13:48:39Z</time></trkpt><trkpt lat="45.98140736445829" lon="11.808245900954976"><ele>913.0</ele><time>2026-05-01T13:48:40Z</time></trkpt><trkpt lat="45.98152255744094" lon="11.808240733974618"><ele>913.0</ele><time>2026-05-01T13:48:41Z</time></trkpt><trkpt lat="45.98163041653207" lon="11.808299830361957"><ele>913.0</ele><time>2026-05-01T13:48:42Z</time></trkpt><trkpt lat="45.98173207639416" lon="11.808426494010188"><ele>913.0</ele><time>2026-05-01T13:48:43Z</time></trkpt><trkpt lat="45.98183965302631" lon="11.808589057416283"><ele>913.0</ele><time>2026-05-01T13:48:44Z</time></trkpt><trkpt lat="45.98196758023908" lon="11.808748180028681"><ele>911.0</ele><time>2026-05-01T13:48:45Z</time></trkpt><trkpt lat="45.982079996253" lon="11.80890288286802"><ele>909.0</ele><time>2026-05-01T13:48:46Z</time></trkpt><trkpt lat="45.982196541176435" lon="11.809077428642327"><ele>907.0</ele><time>2026-05-01T13:48:47Z</time></trkpt><trkpt lat="45.982321735346055" lon="11.809250091928318"><ele>904.5</ele><time>2026-05-01T13:48:48Z</time></trkpt><trkpt lat="45.98243712195134" lon="11.809408580106078"><ele>902.0</ele><time>2026-05-01T13:48:49Z</time></trkpt><trkpt lat="45.9825442589017" lon="11.80955132466538"><ele>899.5</ele><time>2026-05-01T13:48:50Z</time></trkpt><trkpt lat="45.982650011757684" lon="11.809671955609893"><ele>897.0</ele><time>2026-05-01T13:48:51Z</time></trkpt><trkpt lat="45.98277557131208" lon="11.809754324960615"><ele>897.0</ele><time>2026-05-01T13:48:52Z</time></trkpt><trkpt lat="45.98290587905863" lon="11.80984518466758"><ele>897.0</ele><time>2026-05-01T13:48:53Z</time></trkpt><trkpt lat="45.98302026466205" lon="11.80998436066164"><ele>897.0</ele><time>2026-05-01T13:48:54Z</time></trkpt><trkpt lat="45.98311988016695" lon="11.810151607403556"><ele>897.0</ele><time>2026-05-01T13:48:55Z</time></trkpt><trkpt lat="45.98320411245798" lon="11.810318562861722"><ele>898.5</ele><time>2026-05-01T13:48:56Z</time></trkpt><trkpt lat="45.9832739860026" lon="11.810466673034142"><ele>900.0</ele><time>2026-05-01T13:48:57Z</time></trkpt><trkpt lat="45.98332693155789" lon="11.810632504823447"><ele>901.5</ele><time>2026-05-01T13:48:58Z</time></trkpt><trkpt lat="45.98335798638165" lon="11.810800458207586"><ele>903.0</ele><time>2026-05-01T13:48:59Z</time></trkpt><trkpt lat="45.98337050125907" lon="11.810946780247109"><ele>899.8333333333334</ele><time>2026-05-01T13:49:00Z</time></trkpt><trkpt lat="45.983378141310915" lon="11.81107078332136"><ele>896.6666666666667</ele><time>2026-05-01T13:49:01Z</time></trkpt><trkpt lat="45.983381458309324" lon="11.811179270776826"><ele>893.5</ele><time>2026-05-01T13:49:02Z</time></trkpt><trkpt lat="45.983405816628384" lon="11.811274102586824"><ele>890.3333333333334</ele><time>2026-05-01T13:49:03Z</time></trkpt><trkpt lat="45.983462197781364" lon="11.811341854261642"><ele>887.1666666666667</ele><time>2026-05-01T13:49:04Z</time></trkpt><trkpt lat="45.983535605344855" lon="11.811363108772634"><ele>884.0</ele><time>2026-05-01T13:49:05Z</time></trkpt><trkpt lat="45.98360091932954" lon="11.811319563934502"><ele>884.0</ele><time>2026-05-01T13:49:06Z</time></trkpt><trkpt lat="45.98364749024285" lon="11.811227811775467"><ele>884.0</ele><time>2026-05-01T13:49:07Z</time></trkpt><trkpt lat="45.98360063012044" lon="11.811064652871282"><ele>884.0</ele><time>2026-05-01T13:49:08Z</time></trkpt><trkpt lat="45.98354705305999" lon="11.81091074496142"><ele>884.0</ele><time>2026-05-01T13:49:09Z</time></trkpt><trkpt lat="45.98350296380028" lon="11.810726542124923"><ele>883.75</ele><time>2026-05-01T13:49:10Z</time></trkpt><trkpt lat="45.98349676686271" lon="11.810545139343258"><ele>883.5</ele><time>2026-05-01T13:49:11Z</time></trkpt><trkpt lat="45.98349737102365" lon="11.810365803606885"><ele>883.25</ele><time>2026-05-01T13:49:12Z</time></trkpt><trkpt lat="45.983472701722775" lon="11.81020815668182"><ele>883.0</ele><time>2026-05-01T13:49:13Z</time></trkpt><trkpt lat="45.98344586973048" lon="11.810053043811422"><ele>883.0</ele><time>2026-05-01T13:49:14Z</time></trkpt><trkpt lat="45.98340304639647" lon="11.809911500823112"><ele>883.0</ele><time>2026-05-01T13:49:14.999Z</time></trkpt><trkpt lat="45.98335954092392" lon="11.809775597481249"><ele>883.0</ele><time>2026-05-01T13:49:15.999Z</time></trkpt><trkpt lat="45.98334429032974" lon="11.809618653497255"><ele>883.0</ele><time>2026-05-01T13:49:16.999Z</time></trkpt><trkpt lat="45.98333788417889" lon="11.809463629179179"><ele>883.0</ele><time>2026-05-01T13:49:17.999Z</time></trkpt><trkpt lat="45.98332805706734" lon="11.809316725462084"><ele>884.8</ele><time>2026-05-01T13:49:18.999Z</time></trkpt><trkpt lat="45.983304760452214" lon="11.809188747025258"><ele>886.5999999999999</ele><time>2026-05-01T13:49:19.999Z</time></trkpt><trkpt lat="45.98325703490634" lon="11.809072946335428"><ele>888.4000000000001</ele><time>2026-05-01T13:49:20.999Z</time></trkpt><trkpt lat="45.98318903320552" lon="11.808971856932535"><ele>890.2</ele><time>2026-05-01T13:49:21.999Z</time></trkpt><trkpt lat="45.9831125615591" lon="11.80886720549662"><ele>892.0</ele><time>2026-05-01T13:49:22.999Z</time></trkpt><trkpt lat="45.98303430325948" lon="11.808751236922555"><ele>892.0</ele><time>2026-05-01T13:49:23.999Z</time></trkpt><trkpt lat="45.98295770522181" lon="11.808616648084515"><ele>892.0</ele><time>2026-05-01T13:49:24.999Z</time></trkpt><trkpt lat="45.98287467798524" lon="11.808460986064729"><ele>892.0</ele><time>2026-05-01T13:49:25.999Z</time></trkpt><trkpt lat="45.982791092461504" lon="11.808275712291255"><ele>892.0</ele><time>2026-05-01T13:49:26.999Z</time></trkpt><trkpt lat="45.9827134423463" lon="11.808088048784112"><ele>890.0</ele><time>2026-05-01T13:49:27.999Z</time></trkpt><trkpt lat="45.98262353358896" lon="11.807923905108034"><ele>888.0</ele><time>2026-05-01T13:49:28.999Z</time></trkpt><trkpt lat="45.98253511286051" lon="11.80777862703902"><ele>886.0</ele><time>2026-05-01T13:49:29.999Z</time></trkpt><trkpt lat="45.98245056677965" lon="11.807633797471665"><ele>884.0</ele><time>2026-05-01T13:49:30.999Z</time></trkpt><trkpt lat="45.98236912072479" lon="11.80748630986613"><ele>884.0</ele><time>2026-05-01T13:49:31.999Z</time></trkpt><trkpt lat="45.98229278179357" lon="11.80733132858086"><ele>884.0</ele><time>2026-05-01T13:49:32.999Z</time></trkpt><trkpt lat="45.982221774543284" lon="11.80719043330841"><ele>884.0</ele><time>2026-05-01T13:49:33.999Z</time></trkpt><trkpt lat="45.98214359344429" lon="11.807080588424668"><ele>884.0</ele><time>2026-05-01T13:49:34.999Z</time></trkpt><trkpt lat="45.982080503882166" lon="11.806963902072269"><ele>884.0</ele><time>2026-05-01T13:49:35.999Z</time></trkpt><trkpt lat="45.98201115996338" lon="11.80685680514693"><ele>884.0</ele><time>2026-05-01T13:49:36.999Z</time></trkpt><trkpt lat="45.9819768821485" lon="11.806698682234902"><ele>884.0</ele><time>2026-05-01T13:49:37.999Z</time></trkpt><trkpt lat="45.98195291579621" lon="11.806528091300073"><ele>884.0</ele><time>2026-05-01T13:49:38.999Z</time></trkpt><trkpt lat="45.9819175636996" lon="11.806370570157323"><ele>880.25</ele><time>2026-05-01T13:49:39.999Z</time></trkpt><trkpt lat="45.98186857659921" lon="11.806203047258819"><ele>876.5</ele><time>2026-05-01T13:49:40.999Z</time></trkpt><trkpt lat="45.98177247235078" lon="11.806073614667469"><ele>872.75</ele><time>2026-05-01T13:49:41.999Z</time></trkpt><trkpt lat="45.98169328835801" lon="11.805922197918507"><ele>869.0</ele><time>2026-05-01T13:49:42.999Z</time></trkpt><trkpt lat="45.98160955847826" lon="11.805803931683586"><ele>868.6</ele><time>2026-05-01T13:49:43.999Z</time></trkpt><trkpt lat="45.98152935350002" lon="11.805699213465937"><ele>868.2</ele><time>2026-05-01T13:49:44.999Z</time></trkpt><trkpt lat="45.98145801410161" lon="11.805589354424844"><ele>867.8000000000001</ele><time>2026-05-01T13:49:45.999Z</time></trkpt><trkpt lat="45.98138963154306" lon="11.805469082566445"><ele>867.4000000000001</ele><time>2026-05-01T13:49:46.999Z</time></trkpt><trkpt lat="45.98129513035395" lon="11.805376060530499"><ele>867.0</ele><time>2026-05-01T13:49:47.999Z</time></trkpt><trkpt lat="45.981197083087935" lon="11.805316324420419"><ele>867.0</ele><time>2026-05-01T13:49:48.999Z</time></trkpt><trkpt lat="45.981130157930046" lon="11.805217805178396"><ele>867.0</ele><time>2026-05-01T13:49:49.999Z</time></trkpt><trkpt lat="45.981077748429726" lon="11.805138059215215"><ele>867.0</ele><time>2026-05-01T13:49:50.999Z</time></trkpt><trkpt lat="45.98104049137839" lon="11.805056418624789"><ele>867.0</ele><time>2026-05-01T13:49:51.999Z</time></trkpt><trkpt lat="45.9810666972657" lon="11.804961387096668"><ele>867.0</ele><time>2026-05-01T13:49:52.999Z</time></trkpt><trkpt lat="45.981141337958526" lon="11.804908702416387"><ele>867.0</ele><time>2026-05-01T13:49:53.999Z</time></trkpt><trkpt lat="45.98123901910729" lon="11.804946160058234"><ele>867.0</ele><time>2026-05-01T13:49:54.999Z</time></trkpt><trkpt lat="45.981317536204564" lon="11.805063222005868"><ele>867.0</ele><time>2026-05-01T13:49:55.999Z</time></trkpt><trkpt lat="45.98140327492918" lon="11.805224118668818"><ele>867.0</ele><time>2026-05-01T13:49:56.999Z</time></trkpt><trkpt lat="45.98151241881153" lon="11.80531485732134"><ele>867.0</ele><time>2026-05-01T13:49:57.999Z</time></trkpt><trkpt lat="45.98162557714978" lon="11.805345060013787"><ele>862.3333333333333</ele><time>2026-05-01T13:49:58.999Z</time></trkpt><trkpt lat="45.981785358288946" lon="11.805385722337874"><ele>857.6666666666666</ele><time>2026-05-01T13:49:59.999Z</time></trkpt><trkpt lat="45.981959513193814" lon="11.805446273268307"><ele>853.0</ele><time>2026-05-01T13:50:00.999Z</time></trkpt><trkpt lat="45.98210367759469" lon="11.805541968570047"><ele>853.0</ele><time>2026-05-01T13:50:01.999Z</time></trkpt><trkpt lat="45.982255985026306" lon="11.80563139240668"><ele>853.0</ele><time>2026-05-01T13:50:02.999Z</time></trkpt><trkpt lat="45.98238582755644" lon="11.80570934327494"><ele>853.0</ele><time>2026-05-01T13:50:03.999Z</time></trkpt><trkpt lat="45.982493272924245" lon="11.805779389343732"><ele>853.0</ele><time>2026-05-01T13:50:04.999Z</time></trkpt><trkpt lat="45.98261645035701" lon="11.805828688885912"><ele>853.4</ele><time>2026-05-01T13:50:05.999Z</time></trkpt><trkpt lat="45.98270975394566" lon="11.805898133416463"><ele>853.8</ele><time>2026-05-01T13:50:06.999Z</time></trkpt><trkpt lat="45.982815945282816" lon="11.805899812382885"><ele>854.2</ele><time>2026-05-01T13:50:07.999Z</time></trkpt><trkpt lat="45.9829268034678" lon="11.80589806351923"><ele>854.6</ele><time>2026-05-01T13:50:08.999Z</time></trkpt><trkpt lat="45.98305030960509" lon="11.805936473695947"><ele>855.0</ele><time>2026-05-01T13:50:09.999Z</time></trkpt><trkpt lat="45.98317570665957" lon="11.806024820536974"><ele>855.0</ele><time>2026-05-01T13:50:10.999Z</time></trkpt><trkpt lat="45.98330338738678" lon="11.806122616592537"><ele>855.0</ele><time>2026-05-01T13:50:11.999Z</time></trkpt><trkpt lat="45.983419386569054" lon="11.806213629276085"><ele>855.0</ele><time>2026-05-01T13:50:12.999Z</time></trkpt><trkpt lat="45.983521371853065" lon="11.806308812370373"><ele>855.0</ele><time>2026-05-01T13:50:13.999Z</time></trkpt><trkpt lat="45.9836076914106" lon="11.806450356369405"><ele>853.25</ele><time>2026-05-01T13:50:14.999Z</time></trkpt><trkpt lat="45.98370456926144" lon="11.80658662700983"><ele>851.5</ele><time>2026-05-01T13:50:15.999Z</time></trkpt><trkpt lat="45.983817466561746" lon="11.806717817676862"><ele>849.75</ele><time>2026-05-01T13:50:16.999Z</time></trkpt><trkpt lat="45.9839426311546" lon="11.806822072752775"><ele>848.0</ele><time>2026-05-01T13:50:18Z</time></trkpt><trkpt lat="45.98407399098637" lon="11.806921258419868"><ele>841.0</ele><time>2026-05-01T13:50:19Z</time></trkpt><trkpt lat="45.984193939795844" lon="11.807042942036734"><ele>834.0</ele><time>2026-05-01T13:50:20Z</time></trkpt><trkpt lat="45.984297009056654" lon="11.807186016994986"><ele>827.0</ele><time>2026-05-01T13:50:21Z</time></trkpt><trkpt lat="45.98440201497407" lon="11.807299684189267"><ele>820.0</ele><time>2026-05-01T13:50:22Z</time></trkpt><trkpt lat="45.98451917336613" lon="11.807374299934494"><ele>820.0</ele><time>2026-05-01T13:50:23Z</time></trkpt><trkpt lat="45.98464675882722" lon="11.807420782475688"><ele>820.0</ele><time>2026-05-01T13:50:24Z</time></trkpt><trkpt lat="45.98476025344827" lon="11.80746630132369"><ele>820.0</ele><time>2026-05-01T13:50:25Z</time></trkpt><trkpt lat="45.98487644570726" lon="11.807562737609784"><ele>820.0</ele><time>2026-05-01T13:50:26Z</time></trkpt><trkpt lat="45.98497297071566" lon="11.807668814563726"><ele>817.5</ele><time>2026-05-01T13:50:27Z</time></trkpt><trkpt lat="45.985063949158246" lon="11.807754978380133"><ele>815.0</ele><time>2026-05-01T13:50:28Z</time></trkpt><trkpt lat="45.985163890103266" lon="11.807847296178105"><ele>812.5</ele><time>2026-05-01T13:50:29Z</time></trkpt><trkpt lat="45.98526083848313" lon="11.807954214772714"><ele>810.0</ele><time>2026-05-01T13:50:30Z</time></trkpt><trkpt lat="45.98535538828639" lon="11.808083137474615"><ele>810.0</ele><time>2026-05-01T13:50:31Z</time></trkpt><trkpt lat="45.98545062817132" lon="11.808240057105179"><ele>810.0</ele><time>2026-05-01T13:50:32Z</time></trkpt><trkpt lat="45.98555013247117" lon="11.80842532918202"><ele>810.0</ele><time>2026-05-01T13:50:33Z</time></trkpt><trkpt lat="45.98563951589058" lon="11.808602978691308"><ele>812.0</ele><time>2026-05-01T13:50:34Z</time></trkpt><trkpt lat="45.98571864090736" lon="11.808755060984854"><ele>814.0</ele><time>2026-05-01T13:50:35Z</time></trkpt><trkpt lat="45.985777803468935" lon="11.80892687976686"><ele>816.0</ele><time>2026-05-01T13:50:36Z</time></trkpt><trkpt lat="45.98584417069582" lon="11.809107731905968"><ele>818.0</ele><time>2026-05-01T13:50:37Z</time></trkpt><trkpt lat="45.9858747208436" lon="11.809312291043227"><ele>810.6666666666667</ele><time>2026-05-01T13:50:38Z</time></trkpt><trkpt lat="45.9859281660559" lon="11.809503188532398"><ele>803.3333333333333</ele><time>2026-05-01T13:50:39Z</time></trkpt><trkpt lat="45.9860091127777" lon="11.809682014383213"><ele>796.0</ele><time>2026-05-01T13:50:40Z</time></trkpt><trkpt lat="45.98613907290235" lon="11.809848880973835"><ele>796.0</ele><time>2026-05-01T13:50:41Z</time></trkpt><trkpt lat="45.986278894392235" lon="11.81001997631175"><ele>796.0</ele><time>2026-05-01T13:50:42Z</time></trkpt><trkpt lat="45.98640208284786" lon="11.810211828172395"><ele>796.0</ele><time>2026-05-01T13:50:43Z</time></trkpt><trkpt lat="45.98650163181989" lon="11.810425905380352"><ele>800.0</ele><time>2026-05-01T13:50:44Z</time></trkpt><trkpt lat="45.986583891531765" lon="11.810633108581559"><ele>804.0</ele><time>2026-05-01T13:50:45Z</time></trkpt><trkpt lat="45.98666631129472" lon="11.810818230506687"><ele>808.0</ele><time>2026-05-01T13:50:46Z</time></trkpt><trkpt lat="45.98678989926838" lon="11.810963573847227"><ele>802.3333333333333</ele><time>2026-05-01T13:50:47Z</time></trkpt><trkpt lat="45.98694114565065" lon="11.81109771057654"><ele>796.6666666666667</ele><time>2026-05-01T13:50:48Z</time></trkpt><trkpt lat="45.98707102509263" lon="11.811261863959153"><ele>791.0</ele><time>2026-05-01T13:50:49Z</time></trkpt><trkpt lat="45.98718700761048" lon="11.811416445801399"><ele>791.0</ele><time>2026-05-01T13:50:50Z</time></trkpt><trkpt lat="45.98728885636776" lon="11.81159924066934"><ele>791.0</ele><time>2026-05-01T13:50:51Z</time></trkpt><trkpt lat="45.98739971647822" lon="11.81178547880555"><ele>791.0</ele><time>2026-05-01T13:50:52Z</time></trkpt><trkpt lat="45.987497370983746" lon="11.811982048435514"><ele>783.0</ele><time>2026-05-01T13:50:53Z</time></trkpt><trkpt lat="45.987590837483985" lon="11.812184964600476"><ele>775.0</ele><time>2026-05-01T13:50:54Z</time></trkpt><trkpt lat="45.987692381462715" lon="11.812357860458318"><ele>767.0</ele><time>2026-05-01T13:50:55Z</time></trkpt><trkpt lat="45.98778690979637" lon="11.812488555569304"><ele>770.5</ele><time>2026-05-01T13:50:56Z</time></trkpt><trkpt lat="45.98787016028839" lon="11.812661933058509"><ele>774.0</ele><time>2026-05-01T13:50:57Z</time></trkpt><trkpt lat="45.98792882163931" lon="11.812829000876008"><ele>777.5</ele><time>2026-05-01T13:50:58Z</time></trkpt><trkpt lat="45.987982122068914" lon="11.813016647771997"><ele>781.0</ele><time>2026-05-01T13:50:59Z</time></trkpt><trkpt lat="45.98804108516288" lon="11.813187897835261"><ele>781.0</ele><time>2026-05-01T13:51:00Z</time></trkpt><trkpt lat="45.98808583349496" lon="11.81334293084734"><ele>781.0</ele><time>2026-05-01T13:51:01Z</time></trkpt><trkpt lat="45.98812800338249" lon="11.813475365907166"><ele>781.0</ele><time>2026-05-01T13:51:02Z</time></trkpt><trkpt lat="45.98819282191254" lon="11.81359806418641"><ele>781.0</ele><time>2026-05-01T13:51:03Z</time></trkpt><trkpt lat="45.9882674089448" lon="11.813716701729968"><ele>781.0</ele><time>2026-05-01T13:51:04Z</time></trkpt><trkpt lat="45.98836225124712" lon="11.813802939498487"><ele>777.75</ele><time>2026-05-01T13:51:05Z</time></trkpt><trkpt lat="45.988487031823425" lon="11.813865177899537"><ele>774.5</ele><time>2026-05-01T13:51:06Z</time></trkpt><trkpt lat="45.98861452213116" lon="11.813914056194509"><ele>771.25</ele><time>2026-05-01T13:51:07Z</time></trkpt><trkpt lat="45.98872763850526" lon="11.813997394987107"><ele>768.0</ele><time>2026-05-01T13:51:08Z</time></trkpt><trkpt lat="45.9888235079092" lon="11.814164639713432"><ele>770.6666666666667</ele><time>2026-05-01T13:51:09Z</time></trkpt><trkpt lat="45.988922607518795" lon="11.81437322163669"><ele>773.3333333333334</ele><time>2026-05-01T13:51:10Z</time></trkpt><trkpt lat="45.9890313738273" lon="11.814586453755894"><ele>776.0</ele><time>2026-05-01T13:51:11Z</time></trkpt><trkpt lat="45.98915165201326" lon="11.814775413287862"><ele>772.3333333333334</ele><time>2026-05-01T13:51:12Z</time></trkpt><trkpt lat="45.98926718769001" lon="11.814935968255858"><ele>768.6666666666667</ele><time>2026-05-01T13:51:13Z</time></trkpt><trkpt lat="45.989399950759854" lon="11.815064792377006"><ele>765.0</ele><time>2026-05-01T13:51:14Z</time></trkpt><trkpt lat="45.98955048164994" lon="11.815154474409733"><ele>765.0</ele><time>2026-05-01T13:51:15Z</time></trkpt><trkpt lat="45.98968909288753" lon="11.815239355318282"><ele>765.0</ele><time>2026-05-01T13:51:16Z</time></trkpt><trkpt lat="45.9897931786942" lon="11.815333363756855"><ele>765.0</ele><time>2026-05-01T13:51:17Z</time></trkpt><trkpt lat="45.98988128991988" lon="11.815407439583023"><ele>765.0</ele><time>2026-05-01T13:51:18Z</time></trkpt><trkpt lat="45.9899675958209" lon="11.815485155312865"><ele>761.0</ele><time>2026-05-01T13:51:18.999Z</time></trkpt><trkpt lat="45.9900364912307" lon="11.815520150324106"><ele>757.0</ele><time>2026-05-01T13:51:19.999Z</time></trkpt><trkpt lat="45.99011250861538" lon="11.8155002321882"><ele>753.0</ele><time>2026-05-01T13:51:20.999Z</time></trkpt><trkpt lat="45.990185981648324" lon="11.815413308257932"><ele>749.0</ele><time>2026-05-01T13:51:21.999Z</time></trkpt><trkpt lat="45.990228759565944" lon="11.815259307822192"><ele>745.0</ele><time>2026-05-01T13:51:22.999Z</time></trkpt><trkpt lat="45.99022118539679" lon="11.815055436456102"><ele>743.75</ele><time>2026-05-01T13:51:23.999Z</time></trkpt><trkpt lat="45.990177750407845" lon="11.814842966964711"><ele>742.5</ele><time>2026-05-01T13:51:24.999Z</time></trkpt><trkpt lat="45.99013596295955" lon="11.814661979540423"><ele>741.25</ele><time>2026-05-01T13:51:25.999Z</time></trkpt><trkpt lat="45.99011150392442" lon="11.814507497443538"><ele>740.0</ele><time>2026-05-01T13:51:26.999Z</time></trkpt><trkpt lat="45.99010314058379" lon="11.814357587696128"><ele>739.2</ele><time>2026-05-01T13:51:27.999Z</time></trkpt><trkpt lat="45.99012613526236" lon="11.814196776745389"><ele>738.4</ele><time>2026-05-01T13:51:28.999Z</time></trkpt><trkpt lat="45.990173017743025" lon="11.814053165334558"><ele>737.5999999999999</ele><time>2026-05-01T13:51:29.999Z</time></trkpt><trkpt lat="45.990218488647294" lon="11.813925256364678"><ele>736.8</ele><time>2026-05-01T13:51:30.999Z</time></trkpt><trkpt lat="45.99023304205518" lon="11.813750569742899"><ele>736.0</ele><time>2026-05-01T13:51:31.999Z</time></trkpt><trkpt lat="45.99020060201729" lon="11.813565715761918"><ele>734.25</ele><time>2026-05-01T13:51:32.999Z</time></trkpt><trkpt lat="45.99016760876683" lon="11.813350009602578"><ele>732.5</ele><time>2026-05-01T13:51:33.999Z</time></trkpt><trkpt lat="45.99014192845959" lon="11.813158608100686"><ele>730.75</ele><time>2026-05-01T13:51:34.999Z</time></trkpt><trkpt lat="45.99012281337966" lon="11.812960850898389"><ele>729.0</ele><time>2026-05-01T13:51:35.999Z</time></trkpt><trkpt lat="45.99011175122765" lon="11.81275381021506"><ele>731.0</ele><time>2026-05-01T13:51:36.999Z</time></trkpt><trkpt lat="45.990086537978485" lon="11.812558678706647"><ele>733.0</ele><time>2026-05-01T13:51:37.999Z</time></trkpt><trkpt lat="45.99004650791386" lon="11.812382038627106"><ele>735.0</ele><time>2026-05-01T13:51:38.999Z</time></trkpt><trkpt lat="45.99000549903387" lon="11.812220153895462"><ele>737.0</ele><time>2026-05-01T13:51:39.999Z</time></trkpt><trkpt lat="45.98997129079975" lon="11.812068696368636"><ele>737.0</ele><time>2026-05-01T13:51:40.999Z</time></trkpt><trkpt lat="45.98993920309565" lon="11.811919482838418"><ele>737.0</ele><time>2026-05-01T13:51:41.999Z</time></trkpt><trkpt lat="45.98990588919644" lon="11.811779863739547"><ele>737.0</ele><time>2026-05-01T13:51:42.999Z</time></trkpt><trkpt lat="45.98985694219018" lon="11.81162609403858"><ele>737.0</ele><time>2026-05-01T13:51:43.999Z</time></trkpt><trkpt lat="45.98981469283386" lon="11.811483898132392"><ele>737.0</ele><time>2026-05-01T13:51:44.999Z</time></trkpt><trkpt lat="45.98976697343056" lon="11.811359759469829"><ele>734.2</ele><time>2026-05-01T13:51:45.999Z</time></trkpt><trkpt lat="45.98970853266973" lon="11.811249136767557"><ele>731.4000000000001</ele><time>2026-05-01T13:51:46.999Z</time></trkpt><trkpt lat="45.98964518105442" lon="11.811151447551836"><ele>728.5999999999999</ele><time>2026-05-01T13:51:47.999Z</time></trkpt><trkpt lat="45.989577836432105" lon="11.811061951065676"><ele>725.8</ele><time>2026-05-01T13:51:48.999Z</time></trkpt><trkpt lat="45.989509168829954" lon="11.810984835271308"><ele>723.0</ele><time>2026-05-01T13:51:49.999Z</time></trkpt><trkpt lat="45.989454468879536" lon="11.810896494783004"><ele>721.4</ele><time>2026-05-01T13:51:50.999Z</time></trkpt><trkpt lat="45.989442684511296" lon="11.81078200923605"><ele>719.8</ele><time>2026-05-01T13:51:51.999Z</time></trkpt><trkpt lat="45.9894892256175" lon="11.810677127360783"><ele>718.2</ele><time>2026-05-01T13:51:52.999Z</time></trkpt><trkpt lat="45.98957727195621" lon="11.810656945506796"><ele>716.6</ele><time>2026-05-01T13:51:53.999Z</time></trkpt><trkpt lat="45.989661335990405" lon="11.81068996496056"><ele>715.0</ele><time>2026-05-01T13:51:54.999Z</time></trkpt><trkpt lat="45.98973882006828" lon="11.810898640359204"><ele>717.0</ele><time>2026-05-01T13:51:55.999Z</time></trkpt><trkpt lat="45.989842852593135" lon="11.811037088105284"><ele>719.0</ele><time>2026-05-01T13:51:56.999Z</time></trkpt><trkpt lat="45.98995886321295" lon="11.811125162388675"><ele>721.0</ele><time>2026-05-01T13:51:57.999Z</time></trkpt><trkpt lat="45.99006078720997" lon="11.811170123521931"><ele>723.0</ele><time>2026-05-01T13:51:58.999Z</time></trkpt><trkpt lat="45.99014996463094" lon="11.811253996410727"><ele>721.0</ele><time>2026-05-01T13:51:59.999Z</time></trkpt><trkpt lat="45.990194247845565" lon="11.811429270435328"><ele>719.0</ele><time>2026-05-01T13:52:00.999Z</time></trkpt><trkpt lat="45.99025187276493" lon="11.811615084939204"><ele>717.0</ele><time>2026-05-01T13:52:01.999Z</time></trkpt><trkpt lat="45.99032280132182" lon="11.811760890010188"><ele>715.0</ele><time>2026-05-01T13:52:02.999Z</time></trkpt><trkpt lat="45.99041465297911" lon="11.811866234559174"><ele>715.0</ele><time>2026-05-01T13:52:03.999Z</time></trkpt><trkpt lat="45.99054342198548" lon="11.811921608150657"><ele>715.0</ele><time>2026-05-01T13:52:04.999Z</time></trkpt><trkpt lat="45.9906823149702" lon="11.811941226396186"><ele>715.0</ele><time>2026-05-01T13:52:05.999Z</time></trkpt><trkpt lat="45.990836674768005" lon="11.8119649461426"><ele>715.0</ele><time>2026-05-01T13:52:06.999Z</time></trkpt><trkpt lat="45.990975225016456" lon="11.812006915804288"><ele>711.0</ele><time>2026-05-01T13:52:07.999Z</time></trkpt><trkpt lat="45.99109302890596" lon="11.812058341814733"><ele>707.0</ele><time>2026-05-01T13:52:08.999Z</time></trkpt><trkpt lat="45.991195334460954" lon="11.812123840661144"><ele>703.0</ele><time>2026-05-01T13:52:09.999Z</time></trkpt><trkpt lat="45.99128498298116" lon="11.8122190740694"><ele>699.0</ele><time>2026-05-01T13:52:10.999Z</time></trkpt><trkpt lat="45.99136712886302" lon="11.812342807356497"><ele>699.0</ele><time>2026-05-01T13:52:11.999Z</time></trkpt><trkpt lat="45.99144310651118" lon="11.812484086130686"><ele>699.0</ele><time>2026-05-01T13:52:12.999Z</time></trkpt><trkpt lat="45.991532076102" lon="11.812611424515223"><ele>699.0</ele><time>2026-05-01T13:52:13.999Z</time></trkpt><trkpt lat="45.9916388760535" lon="11.81271226959457"><ele>699.0</ele><time>2026-05-01T13:52:14.999Z</time></trkpt><trkpt lat="45.99175770711203" lon="11.812783686044163"><ele>695.75</ele><time>2026-05-01T13:52:15.999Z</time></trkpt><trkpt lat="45.99187828759787" lon="11.812829087613007"><ele>692.5</ele><time>2026-05-01T13:52:16.999Z</time></trkpt><trkpt lat="45.99199689109235" lon="11.812878430114651"><ele>689.25</ele><time>2026-05-01T13:52:17.999Z</time></trkpt><trkpt lat="45.99209461848125" lon="11.812964017920956"><ele>686.0</ele><time>2026-05-01T13:52:18.999Z</time></trkpt><trkpt lat="45.992166384933356" lon="11.813129306391872"><ele>686.0</ele><time>2026-05-01T13:52:19.999Z</time></trkpt><trkpt lat="45.992265218316916" lon="11.813305514900174"><ele>686.0</ele><time>2026-05-01T13:52:20.999Z</time></trkpt><trkpt lat="45.99233478932302" lon="11.813469974581992"><ele>686.0</ele><time>2026-05-01T13:52:21.999Z</time></trkpt><trkpt lat="45.992422408304016" lon="11.813590194724464"><ele>686.0</ele><time>2026-05-01T13:52:22.999Z</time></trkpt><trkpt lat="45.99252400626203" lon="11.813733897074334"><ele>681.25</ele><time>2026-05-01T13:52:24Z</time></trkpt><trkpt lat="45.992620230068646" lon="11.813852109969153"><ele>676.5</ele><time>2026-05-01T13:52:25Z</time></trkpt><trkpt lat="45.99270691067376" lon="11.813981072824713"><ele>671.75</ele><time>2026-05-01T13:52:26Z</time></trkpt><trkpt lat="45.99279141752859" lon="11.81408911562043"><ele>667.0</ele><time>2026-05-01T13:52:27Z</time></trkpt><trkpt lat="45.99286533671213" lon="11.814193251591345"><ele>667.0</ele><time>2026-05-01T13:52:28Z</time></trkpt><trkpt lat="45.99293455098265" lon="11.814310616665367"><ele>667.0</ele><time>2026-05-01T13:52:29Z</time></trkpt><trkpt lat="45.99300777799777" lon="11.814412879674828"><ele>667.0</ele><time>2026-05-01T13:52:30Z</time></trkpt><trkpt lat="45.99303290169207" lon="11.814574841813227"><ele>667.0</ele><time>2026-05-01T13:52:31Z</time></trkpt><trkpt lat="45.99308508232779" lon="11.814773469520327"><ele>667.0</ele><time>2026-05-01T13:52:32Z</time></trkpt><trkpt lat="45.993148139152424" lon="11.814936454350416"><ele>667.0</ele><time>2026-05-01T13:52:33Z</time></trkpt><trkpt lat="45.993200302873916" lon="11.815092218953406"><ele>667.0</ele><time>2026-05-01T13:52:34Z</time></trkpt><trkpt lat="45.99322032704673" lon="11.815266993398067"><ele>667.0</ele><time>2026-05-01T13:52:35Z</time></trkpt><trkpt lat="45.99321021736286" lon="11.815471624679592"><ele>666.0</ele><time>2026-05-01T13:52:36Z</time></trkpt><trkpt lat="45.99317717387852" lon="11.815673970697178"><ele>665.0</ele><time>2026-05-01T13:52:37Z</time></trkpt><trkpt lat="45.99311206860886" lon="11.81586062445983"><ele>664.0</ele><time>2026-05-01T13:52:38Z</time></trkpt><trkpt lat="45.99302821893773" lon="11.816036461319754"><ele>663.0</ele><time>2026-05-01T13:52:39Z</time></trkpt><trkpt lat="45.99295273888268" lon="11.816195611169201"><ele>658.5</ele><time>2026-05-01T13:52:40Z</time></trkpt><trkpt lat="45.99286555555888" lon="11.816315895561193"><ele>654.0</ele><time>2026-05-01T13:52:41Z</time></trkpt><trkpt lat="45.9927921509586" lon="11.816444861482802"><ele>649.5</ele><time>2026-05-01T13:52:42Z</time></trkpt><trkpt lat="45.99271826235595" lon="11.816574728859026"><ele>645.0</ele><time>2026-05-01T13:52:43Z</time></trkpt><trkpt lat="45.99266520091329" lon="11.816704886314453"><ele>645.0</ele><time>2026-05-01T13:52:44Z</time></trkpt><trkpt lat="45.99260059465556" lon="11.816811280756735"><ele>645.0</ele><time>2026-05-01T13:52:45Z</time></trkpt><trkpt lat="45.992521296331695" lon="11.816872949003786"><ele>645.0</ele><time>2026-05-01T13:52:46Z</time></trkpt><trkpt lat="45.99243102127281" lon="11.816902396114738"><ele>645.0</ele><time>2026-05-01T13:52:47Z</time></trkpt><trkpt lat="45.99232009878403" lon="11.816893660512783"><ele>645.0</ele><time>2026-05-01T13:52:48Z</time></trkpt><trkpt lat="45.99221802507511" lon="11.816925591055991"><ele>646.25</ele><time>2026-05-01T13:52:49Z</time></trkpt><trkpt lat="45.992155078549224" lon="11.817028648212988"><ele>647.5</ele><time>2026-05-01T13:52:50Z</time></trkpt><trkpt lat="45.99215100389335" lon="11.817190591987428"><ele>648.75</ele><time>2026-05-01T13:52:51Z</time></trkpt><trkpt lat="45.99215264556502" lon="11.81738975044017"><ele>650.0</ele><time>2026-05-01T13:52:52Z</time></trkpt><trkpt lat="45.99213917969214" lon="11.817542343662534"><ele>650.0</ele><time>2026-05-01T13:52:53Z</time></trkpt><trkpt lat="45.992093475572155" lon="11.817679417017704"><ele>650.0</ele><time>2026-05-01T13:52:54Z</time></trkpt><trkpt lat="45.99202662501768" lon="11.817828125886697"><ele>650.0</ele><time>2026-05-01T13:52:55Z</time></trkpt><trkpt lat="45.9919991254648" lon="11.817995058227428"><ele>650.0</ele><time>2026-05-01T13:52:56Z</time></trkpt><trkpt lat="45.99199081550126" lon="11.818166511105778"><ele>650.0</ele><time>2026-05-01T13:52:58Z</time></trkpt><trkpt lat="45.99204731996087" lon="11.818297516099365"><ele>650.0</ele><time>2026-05-01T13:52:59Z</time></trkpt><trkpt lat="45.99211262662671" lon="11.818398520385408"><ele>650.0</ele><time>2026-05-01T13:53:00Z</time></trkpt><trkpt lat="45.992186957205874" lon="11.81849451510846"><ele>650.0</ele><time>2026-05-01T13:53:01Z</time></trkpt><trkpt lat="45.99229133820985" lon="11.818515017303811"><ele>650.0</ele><time>2026-05-01T13:53:02Z</time></trkpt><trkpt lat="45.99244582167485" lon="11.818578061554453"><ele>651.25</ele><time>2026-05-01T13:53:03Z</time></trkpt><trkpt lat="45.992578157714014" lon="11.818597888535448"><ele>652.5</ele><time>2026-05-01T13:53:04Z</time></trkpt><trkpt lat="45.992704987844014" lon="11.818570893037819"><ele>653.75</ele><time>2026-05-01T13:53:05Z</time></trkpt><trkpt lat="45.9928396312598" lon="11.818483829557806"><ele>655.0</ele><time>2026-05-01T13:53:06Z</time></trkpt><trkpt lat="45.9929819239298" lon="11.818385230327499"><ele>650.25</ele><time>2026-05-01T13:53:07Z</time></trkpt><trkpt lat="45.99311528247086" lon="11.81834038820802"><ele>645.5</ele><time>2026-05-01T13:53:08Z</time></trkpt><trkpt lat="45.9932512917798" lon="11.818331720330068"><ele>640.75</ele><time>2026-05-01T13:53:09Z</time></trkpt><trkpt lat="45.99336889588421" lon="11.818322504923627"><ele>636.0</ele><time>2026-05-01T13:53:10Z</time></trkpt><trkpt lat="45.993488484469175" lon="11.81831396866925"><ele>633.0</ele><time>2026-05-01T13:53:11Z</time></trkpt><trkpt lat="45.993591971491824" lon="11.818317550727961"><ele>630.0</ele><time>2026-05-01T13:53:12Z</time></trkpt><trkpt lat="45.993682715902516" lon="11.81835378295188"><ele>627.0</ele><time>2026-05-01T13:53:13Z</time></trkpt><trkpt lat="45.99379628754354" lon="11.818448530258582"><ele>624.0</ele><time>2026-05-01T13:53:14Z</time></trkpt><trkpt lat="45.993891660991856" lon="11.818577326745588"><ele>624.0</ele><time>2026-05-01T13:53:15Z</time></trkpt><trkpt lat="45.993984753077065" lon="11.818731463446918"><ele>624.0</ele><time>2026-05-01T13:53:16Z</time></trkpt><trkpt lat="45.99405696531928" lon="11.81890573415618"><ele>624.0</ele><time>2026-05-01T13:53:17Z</time></trkpt><trkpt lat="45.99408948158607" lon="11.819060379882947"><ele>624.0</ele><time>2026-05-01T13:53:18Z</time></trkpt><trkpt lat="45.994100077133545" lon="11.819233144586617"><ele>624.25</ele><time>2026-05-01T13:53:19Z</time></trkpt><trkpt lat="45.99411109158193" lon="11.81941443137377"><ele>624.5</ele><time>2026-05-01T13:53:19.999Z</time></trkpt><trkpt lat="45.994101833598236" lon="11.8196133614991"><ele>624.75</ele><time>2026-05-01T13:53:20.999Z</time></trkpt><trkpt lat="45.99409973370905" lon="11.819823232087945"><ele>625.0</ele><time>2026-05-01T13:53:21.999Z</time></trkpt><trkpt lat="45.99409032197888" lon="11.820027188494805"><ele>624.75</ele><time>2026-05-01T13:53:22.999Z</time></trkpt><trkpt lat="45.99411284000062" lon="11.820216519722486"><ele>624.5</ele><time>2026-05-01T13:53:23.999Z</time></trkpt><trkpt lat="45.994139966780345" lon="11.820390651497904"><ele>624.25</ele><time>2026-05-01T13:53:24.999Z</time></trkpt><trkpt lat="45.994142278949155" lon="11.82055523723036"><ele>624.0</ele><time>2026-05-01T13:53:25.999Z</time></trkpt><trkpt lat="45.99414643530872" lon="11.820736687121116"><ele>624.0</ele><time>2026-05-01T13:53:26.999Z</time></trkpt><trkpt lat="45.99414448416803" lon="11.820927592145445"><ele>624.0</ele><time>2026-05-01T13:53:27.999Z</time></trkpt><trkpt lat="45.9941544507927" lon="11.821122305273418"><ele>624.0</ele><time>2026-05-01T13:53:28.999Z</time></trkpt><trkpt lat="45.99415193780008" lon="11.821292759694579"><ele>624.0</ele><time>2026-05-01T13:53:29.999Z</time></trkpt><trkpt lat="45.994152090098666" lon="11.821449171967586"><ele>622.75</ele><time>2026-05-01T13:53:30.999Z</time></trkpt><trkpt lat="45.99416201583967" lon="11.821611610227723"><ele>621.5</ele><time>2026-05-01T13:53:31.999Z</time></trkpt><trkpt lat="45.99416399357013" lon="11.821776595067655"><ele>620.25</ele><time>2026-05-01T13:53:32.999Z</time></trkpt><trkpt lat="45.99416706749922" lon="11.821942986589493"><ele>619.0</ele><time>2026-05-01T13:53:33.999Z</time></trkpt><trkpt lat="45.99418429166194" lon="11.822106794236827"><ele>605.25</ele><time>2026-05-01T13:53:34.999Z</time></trkpt><trkpt lat="45.99420177625045" lon="11.82226717182097"><ele>591.5</ele><time>2026-05-01T13:53:35.999Z</time></trkpt><trkpt lat="45.99423249342176" lon="11.82243302844823"><ele>577.75</ele><time>2026-05-01T13:53:36.999Z</time></trkpt><trkpt lat="45.99423850320378" lon="11.82259898135508"><ele>564.0</ele><time>2026-05-01T13:53:37.999Z</time></trkpt><trkpt lat="45.994195254212144" lon="11.822768637184858"><ele>568.25</ele><time>2026-05-01T13:53:38.999Z</time></trkpt><trkpt lat="45.994143201011056" lon="11.822965532016736"><ele>572.5</ele><time>2026-05-01T13:53:39.999Z</time></trkpt><trkpt lat="45.99409072749944" lon="11.823175395242806"><ele>576.75</ele><time>2026-05-01T13:53:40.999Z</time></trkpt><trkpt lat="45.99400429532712" lon="11.823342558221139"><ele>581.0</ele><time>2026-05-01T13:53:41.999Z</time></trkpt><trkpt lat="45.99391083104328" lon="11.823482430277963"><ele>581.0</ele><time>2026-05-01T13:53:42.999Z</time></trkpt><trkpt lat="45.993810423785035" lon="11.823631857771256"><ele>581.0</ele><time>2026-05-01T13:53:43.999Z</time></trkpt><trkpt lat="45.9937491581323" lon="11.823793427260313"><ele>581.0</ele><time>2026-05-01T13:53:44.999Z</time></trkpt><trkpt lat="45.993760767289935" lon="11.824007840525448"><ele>581.0</ele><time>2026-05-01T13:53:45.999Z</time></trkpt><trkpt lat="45.993749517039944" lon="11.824215806720288"><ele>574.6666666666666</ele><time>2026-05-01T13:53:46.999Z</time></trkpt><trkpt lat="45.99367652103157" lon="11.824387018857847"><ele>568.3333333333334</ele><time>2026-05-01T13:53:47.999Z</time></trkpt><trkpt lat="45.99359504119483" lon="11.824607377146943"><ele>562.0</ele><time>2026-05-01T13:53:48.999Z</time></trkpt><trkpt lat="45.99352856517817" lon="11.824848451425565"><ele>562.0</ele><time>2026-05-01T13:53:49.999Z</time></trkpt><trkpt lat="45.993486971253134" lon="11.825068597742803"><ele>562.0</ele><time>2026-05-01T13:53:50.999Z</time></trkpt><trkpt lat="45.99345021381285" lon="11.82526085267002"><ele>562.0</ele><time>2026-05-01T13:53:51.999Z</time></trkpt><trkpt lat="45.99342121879246" lon="11.825448326759293"><ele>562.0</ele><time>2026-05-01T13:53:52.999Z</time></trkpt><trkpt lat="45.99343291356094" lon="11.825643947716234"><ele>563.5</ele><time>2026-05-01T13:53:53.999Z</time></trkpt><trkpt lat="45.99339828608202" lon="11.825829373582808"><ele>565.0</ele><time>2026-05-01T13:53:54.999Z</time></trkpt><trkpt lat="45.99335112175047" lon="11.826009119761526"><ele>566.5</ele><time>2026-05-01T13:53:55.999Z</time></trkpt><trkpt lat="45.99327684442015" lon="11.826195528336337"><ele>568.0</ele><time>2026-05-01T13:53:56.999Z</time></trkpt><trkpt lat="45.993229313151105" lon="11.826407052119587"><ele>568.0</ele><time>2026-05-01T13:53:57.999Z</time></trkpt><trkpt lat="45.99321661391318" lon="11.826603567836722"><ele>568.0</ele><time>2026-05-01T13:53:58.999Z</time></trkpt><trkpt lat="45.99315633166349" lon="11.826752601694805"><ele>568.0</ele><time>2026-05-01T13:53:59.999Z</time></trkpt><trkpt lat="45.99308745493106" lon="11.826897740782062"><ele>568.0</ele><time>2026-05-01T13:54:00.999Z</time></trkpt><trkpt lat="45.99300665171982" lon="11.82708209011653"><ele>560.75</ele><time>2026-05-01T13:54:01.999Z</time></trkpt><trkpt lat="45.992931732090966" lon="11.827247093832426"><ele>553.5</ele><time>2026-05-01T13:54:02.999Z</time></trkpt><trkpt lat="45.99287148316078" lon="11.827398623500594"><ele>546.25</ele><time>2026-05-01T13:54:03.999Z</time></trkpt><trkpt lat="45.99279484006834" lon="11.82752048677753"><ele>539.0</ele><time>2026-05-01T13:54:04.999Z</time></trkpt><trkpt lat="45.99273597024359" lon="11.827653495684388"><ele>533.75</ele><time>2026-05-01T13:54:05.999Z</time></trkpt><trkpt lat="45.99270317044948" lon="11.827803126600287"><ele>528.5</ele><time>2026-05-01T13:54:06.999Z</time></trkpt><trkpt lat="45.992643515135555" lon="11.827944116191144"><ele>523.25</ele><time>2026-05-01T13:54:07.999Z</time></trkpt><trkpt lat="45.992596958715644" lon="11.828100656958565"><ele>518.0</ele><time>2026-05-01T13:54:08.999Z</time></trkpt><trkpt lat="45.99251587036019" lon="11.828232136937423"><ele>525.75</ele><time>2026-05-01T13:54:09.999Z</time></trkpt><trkpt lat="45.99243887831116" lon="11.828371891575275"><ele>533.5</ele><time>2026-05-01T13:54:10.999Z</time></trkpt><trkpt lat="45.99238871393257" lon="11.828523400732037"><ele>541.25</ele><time>2026-05-01T13:54:11.999Z</time></trkpt><trkpt lat="45.992361456594146" lon="11.828681324106514"><ele>549.0</ele><time>2026-05-01T13:54:12.999Z</time></trkpt><trkpt lat="45.99236710718791" lon="11.828884570811043"><ele>549.0</ele><time>2026-05-01T13:54:13.999Z</time></trkpt><trkpt lat="45.992353786066836" lon="11.829089418549499"><ele>549.0</ele><time>2026-05-01T13:54:14.999Z</time></trkpt><trkpt lat="45.992281602627294" lon="11.829274993847392"><ele>549.0</ele><time>2026-05-01T13:54:15.999Z</time></trkpt><trkpt lat="45.99224574995986" lon="11.829465998803892"><ele>549.0</ele><time>2026-05-01T13:54:16.999Z</time></trkpt><trkpt lat="45.99220314830304" lon="11.82962691759304"><ele>545.4</ele><time>2026-05-01T13:54:17.999Z</time></trkpt><trkpt lat="45.99220556813465" lon="11.829782077764925"><ele>541.8</ele><time>2026-05-01T13:54:18.999Z</time></trkpt><trkpt lat="45.992192175805556" lon="11.829946994178849"><ele>538.2</ele><time>2026-05-01T13:54:19.999Z</time></trkpt><trkpt lat="45.99217962388367" lon="11.830115564853596"><ele>534.6</ele><time>2026-05-01T13:54:20.999Z</time></trkpt><trkpt lat="45.99214551272357" lon="11.830260864793642"><ele>531.0</ele><time>2026-05-01T13:54:21.999Z</time></trkpt><trkpt lat="45.99210835223721" lon="11.830393150199532"><ele>525.75</ele><time>2026-05-01T13:54:22.999Z</time></trkpt><trkpt lat="45.99204677186492" lon="11.830509324010452"><ele>520.5</ele><time>2026-05-01T13:54:23.999Z</time></trkpt><trkpt lat="45.99198876494193" lon="11.830661106613082"><ele>515.25</ele><time>2026-05-01T13:54:24.999Z</time></trkpt><trkpt lat="45.99194021996551" lon="11.830826911620761"><ele>510.0</ele><time>2026-05-01T13:54:25.999Z</time></trkpt><trkpt lat="45.99188223142115" lon="11.830966653685193"><ele>512.8</ele><time>2026-05-01T13:54:26.999Z</time></trkpt><trkpt lat="45.99183221430636" lon="11.831094884242807"><ele>515.6</ele><time>2026-05-01T13:54:27.999Z</time></trkpt><trkpt lat="45.99177111714839" lon="11.831204120685676"><ele>518.4</ele><time>2026-05-01T13:54:28.999Z</time></trkpt><trkpt lat="45.99168148672821" lon="11.831270967274843"><ele>521.2</ele><time>2026-05-01T13:54:30Z</time></trkpt><trkpt lat="45.99159288375557" lon="11.831346262498778"><ele>524.0</ele><time>2026-05-01T13:54:31Z</time></trkpt><trkpt lat="45.99150986259053" lon="11.831411978929902"><ele>524.0</ele><time>2026-05-01T13:54:32Z</time></trkpt><trkpt lat="45.99144127832632" lon="11.831490790326738"><ele>524.0</ele><time>2026-05-01T13:54:33Z</time></trkpt><trkpt lat="45.991382318759804" lon="11.831543528360282"><ele>524.0</ele><time>2026-05-01T13:54:34Z</time></trkpt><trkpt lat="45.99133619536564" lon="11.831669432672907"><ele>524.0</ele><time>2026-05-01T13:54:36Z</time></trkpt><trkpt lat="45.99141768939837" lon="11.831786958247088"><ele>524.0</ele><time>2026-05-01T13:54:38Z</time></trkpt><trkpt lat="45.991504745888584" lon="11.831778974083216"><ele>524.0</ele><time>2026-05-01T13:54:39Z</time></trkpt><trkpt lat="45.991588564226454" lon="11.831712439644825"><ele>524.0</ele><time>2026-05-01T13:54:40Z</time></trkpt><trkpt lat="45.991662827567794" lon="11.831601055265041"><ele>524.0</ele><time>2026-05-01T13:54:41Z</time></trkpt><trkpt lat="45.99173192190547" lon="11.831495418382989"><ele>524.0</ele><time>2026-05-01T13:54:42Z</time></trkpt><trkpt lat="45.99178281970872" lon="11.83143821799184"><ele>524.0</ele><time>2026-05-01T13:54:43Z</time></trkpt><trkpt lat="45.99187651150692" lon="11.831329139565591"><ele>520.5</ele><time>2026-05-01T13:54:45Z</time></trkpt><trkpt lat="45.99193629228831" lon="11.831245767875886"><ele>517.0</ele><time>2026-05-01T13:54:46Z</time></trkpt><trkpt lat="45.992027194982604" lon="11.831101567343575"><ele>513.5</ele><time>2026-05-01T13:54:47Z</time></trkpt><trkpt lat="45.99215116738915" lon="11.830957779907145"><ele>510.0</ele><time>2026-05-01T13:54:48Z</time></trkpt><trkpt lat="45.99223472061472" lon="11.830776271691208"><ele>510.0</ele><time>2026-05-01T13:54:49Z</time></trkpt><trkpt lat="45.992315349721494" lon="11.83061750080649"><ele>510.0</ele><time>2026-05-01T13:54:50Z</time></trkpt><trkpt lat="45.99238311379738" lon="11.830448564501731"><ele>510.0</ele><time>2026-05-01T13:54:51Z</time></trkpt><trkpt lat="45.99244848312308" lon="11.83030872009326"><ele>510.0</ele><time>2026-05-01T13:54:52Z</time></trkpt><trkpt lat="45.99251532685786" lon="11.830153912321599"><ele>500.5</ele><time>2026-05-01T13:54:53Z</time></trkpt><trkpt lat="45.992563780215576" lon="11.829987661118652"><ele>491.0</ele><time>2026-05-01T13:54:54Z</time></trkpt><trkpt lat="45.99262059309763" lon="11.829810218618567"><ele>481.5</ele><time>2026-05-01T13:54:55Z</time></trkpt><trkpt lat="45.99266158683806" lon="11.829666408569727"><ele>472.0</ele><time>2026-05-01T13:54:56Z</time></trkpt><trkpt lat="45.99272205480539" lon="11.82953350250793"><ele>472.0</ele><time>2026-05-01T13:54:57Z</time></trkpt><trkpt lat="45.99278943416188" lon="11.829401773492467"><ele>472.0</ele><time>2026-05-01T13:54:58Z</time></trkpt><trkpt lat="45.992852697373756" lon="11.829265561567793"><ele>472.0</ele><time>2026-05-01T13:54:59Z</time></trkpt><trkpt lat="45.99291222750741" lon="11.829113809597287"><ele>472.0</ele><time>2026-05-01T13:55:00Z</time></trkpt><trkpt lat="45.99295199948445" lon="11.828943040941043"><ele>477.5</ele><time>2026-05-01T13:55:01Z</time></trkpt><trkpt lat="45.993015254576235" lon="11.828791563967918"><ele>483.0</ele><time>2026-05-01T13:55:02Z</time></trkpt><trkpt lat="45.99312473188472" lon="11.828685837905288"><ele>488.5</ele><time>2026-05-01T13:55:03Z</time></trkpt><trkpt lat="45.99322111396505" lon="11.82855973384742"><ele>494.0</ele><time>2026-05-01T13:55:04Z</time></trkpt><trkpt lat="45.99331646652477" lon="11.828431270271924"><ele>489.0</ele><time>2026-05-01T13:55:05Z</time></trkpt><trkpt lat="45.99338984450134" lon="11.828298972578978"><ele>484.0</ele><time>2026-05-01T13:55:06Z</time></trkpt><trkpt lat="45.99345414781816" lon="11.82818494785761"><ele>479.0</ele><time>2026-05-01T13:55:07Z</time></trkpt><trkpt lat="45.99353096221043" lon="11.828074937642658"><ele>474.0</ele><time>2026-05-01T13:55:08Z</time></trkpt><trkpt lat="45.99359924153249" lon="11.827958543919078"><ele>469.0</ele><time>2026-05-01T13:55:09Z</time></trkpt><trkpt lat="45.99367862174878" lon="11.827835560834979"><ele>469.0</ele><time>2026-05-01T13:55:10Z</time></trkpt><trkpt lat="45.993754701865214" lon="11.82773593192436"><ele>469.0</ele><time>2026-05-01T13:55:11Z</time></trkpt><trkpt lat="45.99383208298694" lon="11.827643555285785"><ele>469.0</ele><time>2026-05-01T13:55:12Z</time></trkpt><trkpt lat="45.99391585118889" lon="11.827548080141087"><ele>469.0</ele><time>2026-05-01T13:55:13Z</time></trkpt><trkpt lat="45.99398815006622" lon="11.827445536203204"><ele>469.0</ele><time>2026-05-01T13:55:14Z</time></trkpt><trkpt lat="45.994053130115695" lon="11.82733151243753"><ele>467.75</ele><time>2026-05-01T13:55:15Z</time></trkpt><trkpt lat="45.994096950872574" lon="11.82718070562554"><ele>466.5</ele><time>2026-05-01T13:55:16Z</time></trkpt><trkpt lat="45.994149321441" lon="11.82701474040253"><ele>465.25</ele><time>2026-05-01T13:55:17Z</time></trkpt><trkpt lat="45.994236360771744" lon="11.826864860812744"><ele>464.0</ele><time>2026-05-01T13:55:18Z</time></trkpt><trkpt lat="45.994343546116724" lon="11.826718943741678"><ele>464.0</ele><time>2026-05-01T13:55:19Z</time></trkpt><trkpt lat="45.99444010829313" lon="11.826550921193004"><ele>464.0</ele><time>2026-05-01T13:55:20Z</time></trkpt><trkpt lat="45.99452557699775" lon="11.826381477406843"><ele>464.0</ele><time>2026-05-01T13:55:21Z</time></trkpt><trkpt lat="45.994611161371616" lon="11.826236445100053"><ele>464.0</ele><time>2026-05-01T13:55:22Z</time></trkpt><trkpt lat="45.99468632089409" lon="11.826108057702395"><ele>464.0</ele><time>2026-05-01T13:55:23Z</time></trkpt><trkpt lat="45.99475660026817" lon="11.825988903689234"><ele>464.0</ele><time>2026-05-01T13:55:24Z</time></trkpt><trkpt lat="45.99482788561887" lon="11.825878602780193"><ele>464.0</ele><time>2026-05-01T13:55:24.999Z</time></trkpt><trkpt lat="45.994888573267055" lon="11.825753079234067"><ele>464.0</ele><time>2026-05-01T13:55:25.999Z</time></trkpt><trkpt lat="45.99493809723666" lon="11.825652412425354"><ele>464.0</ele><time>2026-05-01T13:55:26.999Z</time></trkpt><trkpt lat="45.99498024118297" lon="11.825543535147666"><ele>457.5</ele><time>2026-05-01T13:55:27.999Z</time></trkpt><trkpt lat="45.99501353843905" lon="11.825394241614802"><ele>451.0</ele><time>2026-05-01T13:55:28.999Z</time></trkpt><trkpt lat="45.995038090114676" lon="11.825206941999673"><ele>444.5</ele><time>2026-05-01T13:55:29.999Z</time></trkpt><trkpt lat="45.9950905184333" lon="11.824995064418177"><ele>438.0</ele><time>2026-05-01T13:55:30.999Z</time></trkpt><trkpt lat="45.995141432966" lon="11.824842368795867"><ele>438.0</ele><time>2026-05-01T13:55:31.999Z</time></trkpt><trkpt lat="45.99522000491474" lon="11.824697466526535"><ele>438.0</ele><time>2026-05-01T13:55:32.999Z</time></trkpt><trkpt lat="45.99531332832609" lon="11.824543358547926"><ele>438.0</ele><time>2026-05-01T13:55:33.999Z</time></trkpt><trkpt lat="45.99542116182072" lon="11.824397526902299"><ele>438.0</ele><time>2026-05-01T13:55:34.999Z</time></trkpt><trkpt lat="45.9955055666936" lon="11.824252262840437"><ele>442.5</ele><time>2026-05-01T13:55:35.999Z</time></trkpt><trkpt lat="45.9955729917372" lon="11.824119878814871"><ele>447.0</ele><time>2026-05-01T13:55:36.999Z</time></trkpt><trkpt lat="45.99563294658734" lon="11.823967776329248"><ele>451.5</ele><time>2026-05-01T13:55:37.999Z</time></trkpt><trkpt lat="45.99568594928502" lon="11.823793937912564"><ele>456.0</ele><time>2026-05-01T13:55:38.999Z</time></trkpt><trkpt lat="45.995736821683565" lon="11.823602152267059"><ele>463.0</ele><time>2026-05-01T13:55:39.999Z</time></trkpt><trkpt lat="45.99579639606119" lon="11.823398296209984"><ele>470.0</ele><time>2026-05-01T13:55:40.999Z</time></trkpt><trkpt lat="45.995869044339855" lon="11.823203580086888"><ele>477.0</ele><time>2026-05-01T13:55:41.999Z</time></trkpt><trkpt lat="45.995944456795804" lon="11.823028359316872"><ele>468.25</ele><time>2026-05-01T13:55:42.999Z</time></trkpt><trkpt lat="45.99602067584735" lon="11.822856557019554"><ele>459.5</ele><time>2026-05-01T13:55:43.999Z</time></trkpt><trkpt lat="45.99610006869414" lon="11.822689294157623"><ele>450.75</ele><time>2026-05-01T13:55:44.999Z</time></trkpt><trkpt lat="45.996169281095156" lon="11.822535441364286"><ele>442.0</ele><time>2026-05-01T13:55:45.999Z</time></trkpt><trkpt lat="45.996241273524184" lon="11.82240207872908"><ele>442.0</ele><time>2026-05-01T13:55:46.999Z</time></trkpt><trkpt lat="45.99630997672317" lon="11.822263227829213"><ele>442.0</ele><time>2026-05-01T13:55:47.999Z</time></trkpt><trkpt lat="45.99638854650417" lon="11.822129954962689"><ele>442.0</ele><time>2026-05-01T13:55:48.999Z</time></trkpt><trkpt lat="45.99647267621245" lon="11.822012136515514"><ele>442.0</ele><time>2026-05-01T13:55:49.999Z</time></trkpt><trkpt lat="45.99658446053185" lon="11.821935398705042"><ele>436.25</ele><time>2026-05-01T13:55:50.999Z</time></trkpt><trkpt lat="45.996673748231466" lon="11.821817001631926"><ele>430.5</ele><time>2026-05-01T13:55:51.999Z</time></trkpt><trkpt lat="45.99676123051572" lon="11.821692320159698"><ele>424.75</ele><time>2026-05-01T13:55:52.999Z</time></trkpt><trkpt lat="45.99684725215473" lon="11.821542254090511"><ele>419.0</ele><time>2026-05-01T13:55:53.999Z</time></trkpt><trkpt lat="45.99692022882425" lon="11.821369994217472"><ele>419.0</ele><time>2026-05-01T13:55:54.999Z</time></trkpt><trkpt lat="45.99695558713958" lon="11.821190823804029"><ele>419.0</ele><time>2026-05-01T13:55:55.999Z</time></trkpt><trkpt lat="45.99699166260561" lon="11.821026385236369"><ele>419.0</ele><time>2026-05-01T13:55:56.999Z</time></trkpt><trkpt lat="45.997047984642414" lon="11.820874474445313"><ele>419.0</ele><time>2026-05-01T13:55:57.999Z</time></trkpt><trkpt lat="45.997083338384186" lon="11.820704133747325"><ele>421.16666666666663</ele><time>2026-05-01T13:55:58.999Z</time></trkpt><trkpt lat="45.99709538938647" lon="11.820560719363849"><ele>423.3333333333333</ele><time>2026-05-01T13:55:59.999Z</time></trkpt><trkpt lat="45.9971071104324" lon="11.820455664956993"><ele>425.5</ele><time>2026-05-01T13:56:00.999Z</time></trkpt><trkpt lat="45.99713931323247" lon="11.820306486624213"><ele>427.66666666666663</ele><time>2026-05-01T13:56:02.999Z</time></trkpt><trkpt lat="45.99720484139591" lon="11.82030500829162"><ele>429.8333333333333</ele><time>2026-05-01T13:56:03.999Z</time></trkpt><trkpt lat="45.99725937799284" lon="11.820382727804972"><ele>432.0</ele><time>2026-05-01T13:56:04.999Z</time></trkpt><trkpt lat="45.99723820400391" lon="11.820521330097836"><ele>432.0</ele><time>2026-05-01T13:56:05.999Z</time></trkpt><trkpt lat="45.99718866137277" lon="11.82069668049952"><ele>432.0</ele><time>2026-05-01T13:56:06.999Z</time></trkpt><trkpt lat="45.99720855224638" lon="11.820913646913633"><ele>432.0</ele><time>2026-05-01T13:56:07.999Z</time></trkpt><trkpt lat="45.997223101042906" lon="11.821100863959025"><ele>432.0</ele><time>2026-05-01T13:56:08.999Z</time></trkpt><trkpt lat="45.997218883961224" lon="11.821295019109558"><ele>428.75</ele><time>2026-05-01T13:56:09.999Z</time></trkpt><trkpt lat="45.99718525768557" lon="11.821480364786458"><ele>425.5</ele><time>2026-05-01T13:56:10.999Z</time></trkpt><trkpt lat="45.99708979441481" lon="11.821632992216232"><ele>422.25</ele><time>2026-05-01T13:56:11.999Z</time></trkpt><trkpt lat="45.996996257328064" lon="11.821820866307784"><ele>419.0</ele><time>2026-05-01T13:56:12.999Z</time></trkpt><trkpt lat="45.9969116979698" lon="11.822006725882973"><ele>414.5</ele><time>2026-05-01T13:56:13.999Z</time></trkpt><trkpt lat="45.99684543817478" lon="11.822173498424027"><ele>410.0</ele><time>2026-05-01T13:56:14.999Z</time></trkpt><trkpt lat="45.99679873194464" lon="11.822344869761801"><ele>405.5</ele><time>2026-05-01T13:56:15.999Z</time></trkpt><trkpt lat="45.99677757347713" lon="11.822519815367228"><ele>401.0</ele><time>2026-05-01T13:56:16.999Z</time></trkpt><trkpt lat="45.996726592335854" lon="11.822687415779944"><ele>407.0</ele><time>2026-05-01T13:56:17.999Z</time></trkpt><trkpt lat="45.99670217749617" lon="11.822866829262358"><ele>413.0</ele><time>2026-05-01T13:56:18.999Z</time></trkpt><trkpt lat="45.996656268502804" lon="11.823039488477123"><ele>419.0</ele><time>2026-05-01T13:56:19.999Z</time></trkpt><trkpt lat="45.996605322432195" lon="11.823213192227641"><ele>425.0</ele><time>2026-05-01T13:56:20.999Z</time></trkpt><trkpt lat="45.996568241423695" lon="11.823395015494645"><ele>419.5</ele><time>2026-05-01T13:56:21.999Z</time></trkpt><trkpt lat="45.99653687171601" lon="11.823580473919653"><ele>414.0</ele><time>2026-05-01T13:56:22.999Z</time></trkpt><trkpt lat="45.996533800585496" lon="11.82375940507864"><ele>408.5</ele><time>2026-05-01T13:56:23.999Z</time></trkpt><trkpt lat="45.996465026714716" lon="11.82391860933641"><ele>403.0</ele><time>2026-05-01T13:56:24.999Z</time></trkpt><trkpt lat="45.99638917894801" lon="11.824117113386599"><ele>403.0</ele><time>2026-05-01T13:56:25.999Z</time></trkpt><trkpt lat="45.99633194191623" lon="11.824312653059057"><ele>403.0</ele><time>2026-05-01T13:56:26.999Z</time></trkpt><trkpt lat="45.996261701074246" lon="11.824482319206021"><ele>403.0</ele><time>2026-05-01T13:56:27.999Z</time></trkpt><trkpt lat="45.99619232477974" lon="11.824665666027617"><ele>403.0</ele><time>2026-05-01T13:56:28.999Z</time></trkpt><trkpt lat="45.996136327623454" lon="11.824849845439429"><ele>397.25</ele><time>2026-05-01T13:56:29.999Z</time></trkpt><trkpt lat="45.99608704998274" lon="11.825019482672056"><ele>391.5</ele><time>2026-05-01T13:56:30.999Z</time></trkpt><trkpt lat="45.996037076225484" lon="11.82519813353406"><ele>385.75</ele><time>2026-05-01T13:56:31.999Z</time></trkpt><trkpt lat="45.99599357167659" lon="11.825389481405619"><ele>380.0</ele><time>2026-05-01T13:56:32.999Z</time></trkpt><trkpt lat="45.99596601002701" lon="11.825596941682953"><ele>376.0</ele><time>2026-05-01T13:56:33.999Z</time></trkpt><trkpt lat="45.99594476808084" lon="11.825802165509721"><ele>372.0</ele><time>2026-05-01T13:56:34.999Z</time></trkpt><trkpt lat="45.995926712621255" lon="11.826013663609082"><ele>368.0</ele><time>2026-05-01T13:56:36Z</time></trkpt><trkpt lat="45.995905876986185" lon="11.826229369270871"><ele>364.0</ele><time>2026-05-01T13:56:37Z</time></trkpt><trkpt lat="45.99586730009294" lon="11.82644996952209"><ele>368.25</ele><time>2026-05-01T13:56:38Z</time></trkpt><trkpt lat="45.99581505513148" lon="11.826646711387399"><ele>372.5</ele><time>2026-05-01T13:56:39Z</time></trkpt><trkpt lat="45.99578774330001" lon="11.826833164969917"><ele>376.75</ele><time>2026-05-01T13:56:40Z</time></trkpt><trkpt lat="45.995742375246145" lon="11.826998307775064"><ele>381.0</ele><time>2026-05-01T13:56:41Z</time></trkpt><trkpt lat="45.99571829963822" lon="11.827158991070412"><ele>381.0</ele><time>2026-05-01T13:56:42Z</time></trkpt><trkpt lat="45.995675313040856" lon="11.827313145736316"><ele>381.0</ele><time>2026-05-01T13:56:43Z</time></trkpt><trkpt lat="45.99561434222713" lon="11.82747933754629"><ele>381.0</ele><time>2026-05-01T13:56:44Z</time></trkpt><trkpt lat="45.99554386027794" lon="11.827652089526108"><ele>381.0</ele><time>2026-05-01T13:56:45Z</time></trkpt><trkpt lat="45.99546892203483" lon="11.827839208246028"><ele>373.6666666666667</ele><time>2026-05-01T13:56:46Z</time></trkpt><trkpt lat="45.9953929373914" lon="11.828035662963439"><ele>366.33333333333337</ele><time>2026-05-01T13:56:47Z</time></trkpt><trkpt lat="45.99533736161753" lon="11.828248062001204"><ele>359.0</ele><time>2026-05-01T13:56:48Z</time></trkpt><trkpt lat="45.99527223527813" lon="11.828468219524506"><ele>354.33333333333337</ele><time>2026-05-01T13:56:49Z</time></trkpt><trkpt lat="45.995216310373145" lon="11.828704269482332"><ele>349.6666666666667</ele><time>2026-05-01T13:56:50Z</time></trkpt><trkpt lat="45.995157600934434" lon="11.828945365953704"><ele>345.0</ele><time>2026-05-01T13:56:51Z</time></trkpt><trkpt lat="45.9951103941228" lon="11.82919072942009"><ele>342.0</ele><time>2026-05-01T13:56:52Z</time></trkpt><trkpt lat="45.99505550519106" lon="11.829405727038388"><ele>339.0</ele><time>2026-05-01T13:56:53Z</time></trkpt><trkpt lat="45.994992051683724" lon="11.829595481460998"><ele>336.0</ele><time>2026-05-01T13:56:54Z</time></trkpt><trkpt lat="45.9949458390672" lon="11.829785495269267"><ele>333.0</ele><time>2026-05-01T13:56:55Z</time></trkpt><trkpt lat="45.99491333965466" lon="11.829990309573004"><ele>336.25</ele><time>2026-05-01T13:56:56Z</time></trkpt><trkpt lat="45.994906520133625" lon="11.830200693528493"><ele>339.5</ele><time>2026-05-01T13:56:57Z</time></trkpt><trkpt lat="45.99489519342725" lon="11.830405335111767"><ele>342.75</ele><time>2026-05-01T13:56:58Z</time></trkpt><trkpt lat="45.99483752028749" lon="11.830593792880787"><ele>346.0</ele><time>2026-05-01T13:56:59Z</time></trkpt><trkpt lat="45.994759591674544" lon="11.830775099489678"><ele>346.0</ele><time>2026-05-01T13:57:00Z</time></trkpt><trkpt lat="45.99467768323114" lon="11.83096274365267"><ele>346.0</ele><time>2026-05-01T13:57:01Z</time></trkpt><trkpt lat="45.9945927478672" lon="11.831125833751155"><ele>346.0</ele><time>2026-05-01T13:57:02Z</time></trkpt><trkpt lat="45.99453230491133" lon="11.831314433081433"><ele>346.0</ele><time>2026-05-01T13:57:03Z</time></trkpt><trkpt lat="45.994523360763154" lon="11.831545431323383"><ele>342.0</ele><time>2026-05-01T13:57:04Z</time></trkpt><trkpt lat="45.99453625691983" lon="11.831794296542633"><ele>338.0</ele><time>2026-05-01T13:57:05Z</time></trkpt><trkpt lat="45.99452335002889" lon="11.832022074077223"><ele>334.0</ele><time>2026-05-01T13:57:06Z</time></trkpt><trkpt lat="45.994496928657924" lon="11.83224165543485"><ele>333.0</ele><time>2026-05-01T13:57:07Z</time></trkpt><trkpt lat="45.99444071630269" lon="11.832460765491765"><ele>332.0</ele><time>2026-05-01T13:57:08Z</time></trkpt><trkpt lat="45.99438021539962" lon="11.832685901636452"><ele>331.0</ele><time>2026-05-01T13:57:09Z</time></trkpt><trkpt lat="45.99432660326006" lon="11.832894613238157"><ele>331.0</ele><time>2026-05-01T13:57:10Z</time></trkpt><trkpt lat="45.994276253866566" lon="11.833104846182215"><ele>331.0</ele><time>2026-05-01T13:57:11Z</time></trkpt><trkpt lat="45.99423002116012" lon="11.833316610876098"><ele>331.0</ele><time>2026-05-01T13:57:12Z</time></trkpt><trkpt lat="45.994188636998985" lon="11.833512841958807"><ele>334.0</ele><time>2026-05-01T13:57:13Z</time></trkpt><trkpt lat="45.9941532929103" lon="11.83369036770651"><ele>337.0</ele><time>2026-05-01T13:57:14Z</time></trkpt><trkpt lat="45.99412689449767" lon="11.833854184884125"><ele>340.0</ele><time>2026-05-01T13:57:15Z</time></trkpt><trkpt lat="45.994131733318795" lon="11.834036958596673"><ele>343.0</ele><time>2026-05-01T13:57:16Z</time></trkpt><trkpt lat="45.99413804610545" lon="11.834228099406007"><ele>341.79999999999995</ele><time>2026-05-01T13:57:17Z</time></trkpt><trkpt lat="45.99414545036292" lon="11.83440904520122"><ele>340.6</ele><time>2026-05-01T13:57:18Z</time></trkpt><trkpt lat="45.99414676736789" lon="11.83456910479964"><ele>339.4</ele><time>2026-05-01T13:57:19Z</time></trkpt><trkpt lat="45.99414986107604" lon="11.834706678229244"><ele>338.20000000000005</ele><time>2026-05-01T13:57:20Z</time></trkpt><trkpt lat="45.99415199737495" lon="11.834839201072395"><ele>337.0</ele><time>2026-05-01T13:57:21Z</time></trkpt><trkpt lat="45.99414113325496" lon="11.834974123629426"><ele>337.0</ele><time>2026-05-01T13:57:22Z</time></trkpt><trkpt lat="45.99411826384661" lon="11.835086706322546"><ele>337.0</ele><time>2026-05-01T13:57:23Z</time></trkpt><trkpt lat="45.99410123918593" lon="11.835193745697861"><ele>337.0</ele><time>2026-05-01T13:57:24Z</time></trkpt><trkpt lat="45.99409899172948" lon="11.835290033977394"><ele>337.0</ele><time>2026-05-01T13:57:25Z</time></trkpt><trkpt lat="45.994116671619594" lon="11.835447286698473"><ele>337.0</ele><time>2026-05-01T13:57:27Z</time></trkpt><trkpt lat="45.994139274534305" lon="11.835544907594393"><ele>337.0</ele><time>2026-05-01T13:57:29Z</time></trkpt><trkpt lat="45.9941732357042" lon="11.835639790844294"><ele>336.20000000000005</ele><time>2026-05-01T13:57:32.999Z</time></trkpt><trkpt lat="45.994268949926784" lon="11.83561175765972"><ele>335.4</ele><time>2026-05-01T14:02:03.999Z</time></trkpt><trkpt lat="45.99438425829946" lon="11.83564098721127"><ele>334.6</ele><time>2026-05-01T14:02:05.999Z</time></trkpt><trkpt lat="45.9944647893329" lon="11.835668683939003"><ele>333.79999999999995</ele><time>2026-05-01T14:02:06.999Z</time></trkpt><trkpt lat="45.99455141213111" lon="11.83570881335891"><ele>333.0</ele><time>2026-05-01T14:02:07.999Z</time></trkpt><trkpt lat="45.99464153807338" lon="11.835744866487415"><ele>333.0</ele><time>2026-05-01T14:02:08.999Z</time></trkpt><trkpt lat="45.994730016884866" lon="11.835773321071434"><ele>333.0</ele><time>2026-05-01T14:02:09.999Z</time></trkpt><trkpt lat="45.9948060703542" lon="11.835779530625262"><ele>333.0</ele><time>2026-05-01T14:02:10.999Z</time></trkpt><trkpt lat="45.9948846326972" lon="11.835805024082974"><ele>333.0</ele><time>2026-05-01T14:02:11.999Z</time></trkpt><trkpt lat="45.99497180964014" lon="11.835813801233622"><ele>333.0</ele><time>2026-05-01T14:02:12.999Z</time></trkpt><trkpt lat="45.9950549540548" lon="11.835831216843266"><ele>333.0</ele><time>2026-05-01T14:02:13.999Z</time></trkpt><trkpt lat="45.99514119507443" lon="11.835847318941411"><ele>333.3333333333333</ele><time>2026-05-01T14:02:14.999Z</time></trkpt><trkpt lat="45.99522337562036" lon="11.83586667661393"><ele>333.6666666666667</ele><time>2026-05-01T14:02:15.999Z</time></trkpt><trkpt lat="45.9953018004745" lon="11.835877601082675"><ele>334.0</ele><time>2026-05-01T14:02:16.999Z</time></trkpt><trkpt lat="45.99538200373805" lon="11.835895198981222"><ele>334.33333333333337</ele><time>2026-05-01T14:02:17.999Z</time></trkpt><trkpt lat="45.995464217708516" lon="11.835909020900496"><ele>334.6666666666667</ele><time>2026-05-01T14:02:18.999Z</time></trkpt><trkpt lat="45.995555083317605" lon="11.835923702434357"><ele>335.0</ele><time>2026-05-01T14:02:19.999Z</time></trkpt><trkpt lat="45.99564464214124" lon="11.835930430900833"><ele>335.0</ele><time>2026-05-01T14:02:20.999Z</time></trkpt><trkpt lat="45.995718621864015" lon="11.835921523019797"><ele>335.0</ele><time>2026-05-01T14:02:21.999Z</time></trkpt><trkpt lat="45.995832993153975" lon="11.83588966748991"><ele>335.0</ele><time>2026-05-01T14:02:23.999Z</time></trkpt><trkpt lat="45.9959429705516" lon="11.835917478108554"><ele>335.0</ele><time>2026-05-01T14:02:25.999Z</time></trkpt><trkpt lat="45.996015616338546" lon="11.836089164942978"><ele>335.0</ele><time>2026-05-01T14:02:27.999Z</time></trkpt><trkpt lat="45.99604188826548" lon="11.836194064446653"><ele>334.1666666666667</ele><time>2026-05-01T14:02:28.999Z</time></trkpt><trkpt lat="45.99607713973712" lon="11.836304167827684"><ele>333.33333333333337</ele><time>2026-05-01T14:02:29.999Z</time></trkpt><trkpt lat="45.99610963178112" lon="11.836411199623925"><ele>332.5</ele><time>2026-05-01T14:02:30.999Z</time></trkpt><trkpt lat="45.99613956741653" lon="11.836515149057545"><ele>331.6666666666667</ele><time>2026-05-01T14:02:31.999Z</time></trkpt><trkpt lat="45.996166742390486" lon="11.836606463128915"><ele>330.8333333333333</ele><time>2026-05-01T14:02:32.999Z</time></trkpt><trkpt lat="45.99619969290736" lon="11.836748414066685"><ele>330.0</ele><time>2026-05-01T14:02:34.999Z</time></trkpt><trkpt lat="45.99623414992513" lon="11.836885300603276"><ele>330.0</ele><time>2026-05-01T14:02:36.999Z</time></trkpt><trkpt lat="45.996268293794664" lon="11.836991228676231"><ele>330.0</ele><time>2026-05-01T14:02:38.999Z</time></trkpt><trkpt lat="45.99629423799381" lon="11.837082657267384"><ele>330.0</ele><time>2026-05-01T14:02:59Z</time></trkpt><trkpt lat="45.996369125892656" lon="11.83716913061185"><ele>330.0</ele><time>2026-05-01T14:03:02Z</time></trkpt><trkpt lat="45.99645211742766" lon="11.837298265982792"><ele>330.0</ele><time>2026-05-01T14:03:04Z</time></trkpt><trkpt lat="45.99650585822411" lon="11.837357607129391"><ele>330.0</ele><time>2026-05-01T14:03:05Z</time></trkpt><trkpt lat="45.99659783754708" lon="11.83745301425747"><ele>329.8333333333333</ele><time>2026-05-01T14:03:07Z</time></trkpt><trkpt lat="45.99668906285075" lon="11.837543462561372"><ele>329.6666666666667</ele><time>2026-05-01T14:03:09Z</time></trkpt><trkpt lat="45.996748549219475" lon="11.837594829365457"><ele>329.5</ele><time>2026-05-01T14:03:10Z</time></trkpt><trkpt lat="45.99681571221468" lon="11.837644540324721"><ele>329.33333333333337</ele><time>2026-05-01T14:03:11Z</time></trkpt><trkpt lat="45.996889369187166" lon="11.837686165921657"><ele>329.1666666666667</ele><time>2026-05-01T14:03:12Z</time></trkpt><trkpt lat="45.996970382992146" lon="11.837726509258468"><ele>329.0</ele><time>2026-05-01T14:03:13Z</time></trkpt><trkpt lat="45.99705725660489" lon="11.837768730106601"><ele>328.79999999999995</ele><time>2026-05-01T14:03:14Z</time></trkpt><trkpt lat="45.99714968289716" lon="11.837808723772955"><ele>328.59999999999997</ele><time>2026-05-01T14:03:15Z</time></trkpt><trkpt lat="45.997246583373254" lon="11.837852925954467"><ele>328.4</ele><time>2026-05-01T14:03:16Z</time></trkpt><trkpt lat="45.99734898842868" lon="11.837899934451304"><ele>328.2</ele><time>2026-05-01T14:03:17Z</time></trkpt><trkpt lat="45.997454390911926" lon="11.837950183229763"><ele>328.0</ele><time>2026-05-01T14:03:18Z</time></trkpt><trkpt lat="45.99756390256912" lon="11.838010942682766"><ele>327.5</ele><time>2026-05-01T14:03:19Z</time></trkpt><trkpt lat="45.9976884491535" lon="11.838084446582439"><ele>327.0</ele><time>2026-05-01T14:03:20Z</time></trkpt><trkpt lat="45.997808535956025" lon="11.838167236754057"><ele>326.5</ele><time>2026-05-01T14:03:21Z</time></trkpt><trkpt lat="45.997918632826035" lon="11.838257189459103"><ele>326.0</ele><time>2026-05-01T14:03:22Z</time></trkpt><trkpt lat="45.99803573323642" lon="11.83836625740214"><ele>325.75</ele><time>2026-05-01T14:03:23Z</time></trkpt><trkpt lat="45.9981399511023" lon="11.838471180552887"><ele>325.5</ele><time>2026-05-01T14:03:24Z</time></trkpt><trkpt lat="45.998256668442146" lon="11.838591095399757"><ele>325.25</ele><time>2026-05-01T14:03:25Z</time></trkpt><trkpt lat="45.99836355766489" lon="11.838702177398215"><ele>325.0</ele><time>2026-05-01T14:03:26Z</time></trkpt><trkpt lat="45.99846797741842" lon="11.83880823515896"><ele>324.5</ele><time>2026-05-01T14:03:27Z</time></trkpt><trkpt lat="45.998577467895174" lon="11.838915802246865"><ele>324.0</ele><time>2026-05-01T14:03:28Z</time></trkpt><trkpt lat="45.998677896176666" lon="11.839008897516383"><ele>323.5</ele><time>2026-05-01T14:03:29Z</time></trkpt><trkpt lat="45.998766237476964" lon="11.839086081417713"><ele>323.0</ele><time>2026-05-01T14:03:30Z</time></trkpt><trkpt lat="45.99885031672599" lon="11.839150878157815"><ele>323.0</ele><time>2026-05-01T14:03:31Z</time></trkpt><trkpt lat="45.99893073071851" lon="11.839201974784595"><ele>323.0</ele><time>2026-05-01T14:03:32Z</time></trkpt><trkpt lat="45.99902105712738" lon="11.83924561858536"><ele>323.0</ele><time>2026-05-01T14:03:33Z</time></trkpt><trkpt lat="45.99910462461422" lon="11.839273075955708"><ele>323.0</ele><time>2026-05-01T14:03:34Z</time></trkpt><trkpt lat="45.99919308428485" lon="11.839294510432316"><ele>323.0</ele><time>2026-05-01T14:03:35Z</time></trkpt><trkpt lat="45.99929306771883" lon="11.839291122985255"><ele>323.25</ele><time>2026-05-01T14:03:36Z</time></trkpt><trkpt lat="45.99941132081415" lon="11.839294625048938"><ele>323.5</ele><time>2026-05-01T14:03:37Z</time></trkpt><trkpt lat="45.9995474427693" lon="11.839282508745626"><ele>323.75</ele><time>2026-05-01T14:03:38Z</time></trkpt><trkpt lat="45.99968936530925" lon="11.839261847468821"><ele>324.0</ele><time>2026-05-01T14:03:39Z</time></trkpt><trkpt lat="45.999825635745935" lon="11.839236070504791"><ele>324.0</ele><time>2026-05-01T14:03:39.999Z</time></trkpt><trkpt lat="45.99995964076887" lon="11.839253491940942"><ele>324.0</ele><time>2026-05-01T14:03:40.999Z</time></trkpt><trkpt lat="46.00009295681264" lon="11.839277034819432"><ele>324.0</ele><time>2026-05-01T14:03:41.999Z</time></trkpt><trkpt lat="46.00021728382547" lon="11.839316548878111"><ele>324.0</ele><time>2026-05-01T14:03:42.999Z</time></trkpt><trkpt lat="46.00033099348101" lon="11.83936534462753"><ele>324.0</ele><time>2026-05-01T14:03:43.999Z</time></trkpt><trkpt lat="46.00043605768354" lon="11.839421026755483"><ele>324.0</ele><time>2026-05-01T14:03:44.999Z</time></trkpt><trkpt lat="46.0005404115831" lon="11.839489667997352"><ele>324.0</ele><time>2026-05-01T14:03:45.999Z</time></trkpt><trkpt lat="46.00064610840333" lon="11.839564417509118"><ele>324.0</ele><time>2026-05-01T14:03:46.999Z</time></trkpt><trkpt lat="46.00073073210239" lon="11.839625914207875"><ele>324.0</ele><time>2026-05-01T14:03:47.999Z</time></trkpt><trkpt lat="46.00080011613718" lon="11.83967866171683"><ele>323.6</ele><time>2026-05-01T14:03:48.999Z</time></trkpt><trkpt lat="46.00086868601908" lon="11.839733577948891"><ele>323.2</ele><time>2026-05-01T14:03:49.999Z</time></trkpt><trkpt lat="46.00094605755471" lon="11.839795934362215"><ele>322.8</ele><time>2026-05-01T14:03:50.999Z</time></trkpt><trkpt lat="46.001030820239" lon="11.839859833723635"><ele>322.40000000000003</ele><time>2026-05-01T14:03:51.999Z</time></trkpt><trkpt lat="46.00111757607344" lon="11.839927936632613"><ele>322.0</ele><time>2026-05-01T14:03:52.999Z</time></trkpt><trkpt lat="46.00120500165297" lon="11.839997561386623"><ele>322.0</ele><time>2026-05-01T14:03:53.999Z</time></trkpt><trkpt lat="46.00130108784092" lon="11.84006626232567"><ele>322.0</ele><time>2026-05-01T14:03:54.999Z</time></trkpt><trkpt lat="46.00140488234923" lon="11.84014653968919"><ele>322.0</ele><time>2026-05-01T14:03:55.999Z</time></trkpt><trkpt lat="46.00152058066439" lon="11.840237631372206"><ele>322.0</ele><time>2026-05-01T14:03:56.999Z</time></trkpt><trkpt lat="46.00162803012389" lon="11.840322977849569"><ele>321.40000000000003</ele><time>2026-05-01T14:03:57.999Z</time></trkpt><trkpt lat="46.001729668321886" lon="11.840403408985772"><ele>320.8</ele><time>2026-05-01T14:03:58.999Z</time></trkpt><trkpt lat="46.00182817953011" lon="11.84048213774001"><ele>320.2</ele><time>2026-05-01T14:03:59.999Z</time></trkpt><trkpt lat="46.00192062520108" lon="11.840555722061266"><ele>319.6</ele><time>2026-05-01T14:04:00.999Z</time></trkpt><trkpt lat="46.00200971995304" lon="11.840630457964625"><ele>319.0</ele><time>2026-05-01T14:04:01.999Z</time></trkpt><trkpt lat="46.00210014657549" lon="11.8407083404468"><ele>319.0</ele><time>2026-05-01T14:04:02.999Z</time></trkpt><trkpt lat="46.00219206119357" lon="11.840782566516179"><ele>319.0</ele><time>2026-05-01T14:04:03.999Z</time></trkpt><trkpt lat="46.00227385381375" lon="11.840845205221784"><ele>319.0</ele><time>2026-05-01T14:04:04.999Z</time></trkpt><trkpt lat="46.002347576081554" lon="11.840905630060004"><ele>319.0</ele><time>2026-05-01T14:04:05.999Z</time></trkpt><trkpt lat="46.002421335883454" lon="11.840968186732688"><ele>319.0</ele><time>2026-05-01T14:04:06.999Z</time></trkpt><trkpt lat="46.002500692959245" lon="11.841035454160952"><ele>319.3333333333333</ele><time>2026-05-01T14:04:07.999Z</time></trkpt><trkpt lat="46.00257662885461" lon="11.841098280749424"><ele>319.66666666666663</ele><time>2026-05-01T14:04:08.999Z</time></trkpt><trkpt lat="46.00265075047527" lon="11.841155794803308"><ele>320.0</ele><time>2026-05-01T14:04:09.999Z</time></trkpt><trkpt lat="46.00272342707844" lon="11.841214555210163"><ele>320.3333333333333</ele><time>2026-05-01T14:04:10.999Z</time></trkpt><trkpt lat="46.00279425134494" lon="11.841274280335305"><ele>320.6666666666667</ele><time>2026-05-01T14:04:11.999Z</time></trkpt><trkpt lat="46.002864051172075" lon="11.841331818816206"><ele>321.0</ele><time>2026-05-01T14:04:12.999Z</time></trkpt><trkpt lat="46.00293010081186" lon="11.841387894887314"><ele>321.0</ele><time>2026-05-01T14:04:13.999Z</time></trkpt><trkpt lat="46.00298565014119" lon="11.84143984116785"><ele>321.0</ele><time>2026-05-01T14:04:14.999Z</time></trkpt><trkpt lat="46.00304911737095" lon="11.84153835734256"><ele>321.0</ele><time>2026-05-01T14:04:16.999Z</time></trkpt><trkpt lat="46.003072703405934" lon="11.841634707205378"><ele>321.0</ele><time>2026-05-01T14:04:18.999Z</time></trkpt><trkpt lat="46.00302651572375" lon="11.84182925899187"><ele>321.0</ele><time>2026-05-01T14:04:20.999Z</time></trkpt><trkpt lat="46.00300194098521" lon="11.841983319915736"><ele>321.25</ele><time>2026-05-01T14:04:21.999Z</time></trkpt><trkpt lat="46.00298383247087" lon="11.842160364966194"><ele>321.5</ele><time>2026-05-01T14:04:22.999Z</time></trkpt><trkpt lat="46.002987128330744" lon="11.842336458135527"><ele>321.75</ele><time>2026-05-01T14:04:23.999Z</time></trkpt><trkpt lat="46.00298337014523" lon="11.842523437986332"><ele>322.0</ele><time>2026-05-01T14:04:24.999Z</time></trkpt><trkpt lat="46.002997356224455" lon="11.842732100710922"><ele>322.0</ele><time>2026-05-01T14:04:25.999Z</time></trkpt><trkpt lat="46.00301346461336" lon="11.842948323264464"><ele>322.0</ele><time>2026-05-01T14:04:26.999Z</time></trkpt><trkpt lat="46.003030433704694" lon="11.843158469931526"><ele>322.0</ele><time>2026-05-01T14:04:27.999Z</time></trkpt><trkpt lat="46.00305123952225" lon="11.843359181751403"><ele>322.0</ele><time>2026-05-01T14:04:28.999Z</time></trkpt><trkpt lat="46.003073796664786" lon="11.843547798320012"><ele>321.5</ele><time>2026-05-01T14:04:29.999Z</time></trkpt><trkpt lat="46.0030983312822" lon="11.843730733493187"><ele>321.0</ele><time>2026-05-01T14:04:30.999Z</time></trkpt><trkpt lat="46.0031289211928" lon="11.843906422356554"><ele>320.5</ele><time>2026-05-01T14:04:31.999Z</time></trkpt><trkpt lat="46.00316368734229" lon="11.844078495895031"><ele>320.0</ele><time>2026-05-01T14:04:32.999Z</time></trkpt><trkpt lat="46.003203866200195" lon="11.844254114167603"><ele>320.25</ele><time>2026-05-01T14:04:33.999Z</time></trkpt><trkpt lat="46.003249340415444" lon="11.844427362448412"><ele>320.5</ele><time>2026-05-01T14:04:34.999Z</time></trkpt><trkpt lat="46.003291781569416" lon="11.844587953125513"><ele>320.75</ele><time>2026-05-01T14:04:35.999Z</time></trkpt><trkpt lat="46.00333753211043" lon="11.84473660343346"><ele>321.0</ele><time>2026-05-01T14:04:36.999Z</time></trkpt><trkpt lat="46.003381331542805" lon="11.844882302052717"><ele>321.0</ele><time>2026-05-01T14:04:37.999Z</time></trkpt><trkpt lat="46.00342536433461" lon="11.84502749257543"><ele>321.0</ele><time>2026-05-01T14:04:38.999Z</time></trkpt><trkpt lat="46.003479993551494" lon="11.845174505847417"><ele>321.0</ele><time>2026-05-01T14:04:39.999Z</time></trkpt><trkpt lat="46.00353667962567" lon="11.845321925604129"><ele>321.0</ele><time>2026-05-01T14:04:40.999Z</time></trkpt><trkpt lat="46.003596206790625" lon="11.845465065290583"><ele>319.75</ele><time>2026-05-01T14:04:41.999Z</time></trkpt><trkpt lat="46.003660891771794" lon="11.845604882172521"><ele>318.5</ele><time>2026-05-01T14:04:42.999Z</time></trkpt><trkpt lat="46.003725819592944" lon="11.845746997019353"><ele>317.25</ele><time>2026-05-01T14:04:43.999Z</time></trkpt><trkpt lat="46.00379099078803" lon="11.845890217978797"><ele>316.0</ele><time>2026-05-01T14:04:44.999Z</time></trkpt><trkpt lat="46.003858531518915" lon="11.846034245104066"><ele>315.5</ele><time>2026-05-01T14:04:45.999Z</time></trkpt><trkpt lat="46.00392614337595" lon="11.846179571597744"><ele>315.0</ele><time>2026-05-01T14:04:46.999Z</time></trkpt><trkpt lat="46.00399501200388" lon="11.846327588635019"><ele>314.5</ele><time>2026-05-01T14:04:47.999Z</time></trkpt><trkpt lat="46.0040602830811" lon="11.846474485998904"><ele>314.0</ele><time>2026-05-01T14:04:48.999Z</time></trkpt><trkpt lat="46.004127516680796" lon="11.846620559542329"><ele>314.0</ele><time>2026-05-01T14:04:49.999Z</time></trkpt><trkpt lat="46.004195176675" lon="11.846770645254031"><ele>314.0</ele><time>2026-05-01T14:04:50.999Z</time></trkpt><trkpt lat="46.004264422823546" lon="11.846924019177713"><ele>314.0</ele><time>2026-05-01T14:04:51.999Z</time></trkpt><trkpt lat="46.00433570601794" lon="11.847074650979529"><ele>314.0</ele><time>2026-05-01T14:04:52.999Z</time></trkpt><trkpt lat="46.00440912538196" lon="11.84723095583531"><ele>314.0</ele><time>2026-05-01T14:04:53.999Z</time></trkpt><trkpt lat="46.004486056208485" lon="11.847387895899637"><ele>314.0</ele><time>2026-05-01T14:04:54.999Z</time></trkpt><trkpt lat="46.00457557225169" lon="11.84755682026481"><ele>314.0</ele><time>2026-05-01T14:04:55.999Z</time></trkpt><trkpt lat="46.00469370015822" lon="11.847775611284508"><ele>313.33333333333337</ele><time>2026-05-01T14:04:56.999Z</time></trkpt><trkpt lat="46.00483102145402" lon="11.848011844279739"><ele>312.6666666666667</ele><time>2026-05-01T14:04:57.999Z</time></trkpt><trkpt lat="46.00495891899232" lon="11.848246376063006"><ele>312.0</ele><time>2026-05-01T14:04:58.999Z</time></trkpt><trkpt lat="46.00508030234653" lon="11.848457456083974"><ele>311.6666666666667</ele><time>2026-05-01T14:05:00Z</time></trkpt><trkpt lat="46.00518866380753" lon="11.848654476283093"><ele>311.33333333333337</ele><time>2026-05-01T14:05:01Z</time></trkpt><trkpt lat="46.00529126424606" lon="11.848841428257114"><ele>311.0</ele><time>2026-05-01T14:05:02Z</time></trkpt><trkpt lat="46.00538722427573" lon="11.849029108194634"><ele>311.0</ele><time>2026-05-01T14:05:03Z</time></trkpt><trkpt lat="46.00547754374693" lon="11.849215962172394"><ele>311.0</ele><time>2026-05-01T14:05:04Z</time></trkpt><trkpt lat="46.00556182598202" lon="11.849402274956002"><ele>311.0</ele><time>2026-05-01T14:05:05Z</time></trkpt><trkpt lat="46.00563661190345" lon="11.849590949161392"><ele>311.0</ele><time>2026-05-01T14:05:06Z</time></trkpt><trkpt lat="46.005707449378214" lon="11.849785149229836"><ele>311.0</ele><time>2026-05-01T14:05:07Z</time></trkpt><trkpt lat="46.00577798473652" lon="11.849981288087426"><ele>311.0</ele><time>2026-05-01T14:05:08Z</time></trkpt><trkpt lat="46.005849112868034" lon="11.850183814514397"><ele>311.0</ele><time>2026-05-01T14:05:09Z</time></trkpt><trkpt lat="46.0059194051194" lon="11.85039238798791"><ele>311.0</ele><time>2026-05-01T14:05:10Z</time></trkpt><trkpt lat="46.00599299392986" lon="11.850599287391272"><ele>311.0</ele><time>2026-05-01T14:05:11Z</time></trkpt><trkpt lat="46.006058851474485" lon="11.85078776271116"><ele>310.75</ele><time>2026-05-01T14:05:12Z</time></trkpt><trkpt lat="46.00612087728451" lon="11.850973225797146"><ele>310.5</ele><time>2026-05-01T14:05:13Z</time></trkpt><trkpt lat="46.0061839303215" lon="11.851159803640167"><ele>310.25</ele><time>2026-05-01T14:05:14Z</time></trkpt><trkpt lat="46.00624719112444" lon="11.85134814286159"><ele>310.0</ele><time>2026-05-01T14:05:15Z</time></trkpt><trkpt lat="46.00631319324518" lon="11.851540314077168"><ele>310.0</ele><time>2026-05-01T14:05:16Z</time></trkpt><trkpt lat="46.00637944339765" lon="11.851737123461506"><ele>310.0</ele><time>2026-05-01T14:05:17Z</time></trkpt><trkpt lat="46.006448310574406" lon="11.851935876566484"><ele>310.0</ele><time>2026-05-01T14:05:18Z</time></trkpt><trkpt lat="46.00651901410204" lon="11.852137968060578"><ele>309.0</ele><time>2026-05-01T14:05:19Z</time></trkpt><trkpt lat="46.00658945138721" lon="11.852347041141368"><ele>308.0</ele><time>2026-05-01T14:05:20Z</time></trkpt><trkpt lat="46.00665889231885" lon="11.852561664642588"><ele>307.0</ele><time>2026-05-01T14:05:21Z</time></trkpt><trkpt lat="46.006736946708855" lon="11.852780335223224"><ele>306.66666666666663</ele><time>2026-05-01T14:05:22Z</time></trkpt><trkpt lat="46.00681793148575" lon="11.853009411623209"><ele>306.3333333333333</ele><time>2026-05-01T14:05:23Z</time></trkpt><trkpt lat="46.006897935797454" lon="11.853247589400729"><ele>306.0</ele><time>2026-05-01T14:05:24Z</time></trkpt><trkpt lat="46.0069838993007" lon="11.853491289258798"><ele>306.0</ele><time>2026-05-01T14:05:25Z</time></trkpt><trkpt lat="46.00706443411731" lon="11.85372762641091"><ele>306.0</ele><time>2026-05-01T14:05:26Z</time></trkpt><trkpt lat="46.00713939846575" lon="11.853954057136638"><ele>306.0</ele><time>2026-05-01T14:05:27Z</time></trkpt><trkpt lat="46.007215604905646" lon="11.854171825837236"><ele>305.3333333333333</ele><time>2026-05-01T14:05:28Z</time></trkpt><trkpt lat="46.007286958577225" lon="11.8543815519071"><ele>304.66666666666663</ele><time>2026-05-01T14:05:29Z</time></trkpt><trkpt lat="46.00735603099518" lon="11.854580995790789"><ele>304.0</ele><time>2026-05-01T14:05:30Z</time></trkpt><trkpt lat="46.00742519293259" lon="11.854782197841658"><ele>304.0</ele><time>2026-05-01T14:05:31Z</time></trkpt><trkpt lat="46.00749304480423" lon="11.854979272577822"><ele>304.0</ele><time>2026-05-01T14:05:32Z</time></trkpt><trkpt lat="46.00755893926247" lon="11.85517203299538"><ele>304.0</ele><time>2026-05-01T14:05:33Z</time></trkpt><trkpt lat="46.007624392371014" lon="11.855355762460395"><ele>304.0</ele><time>2026-05-01T14:05:34Z</time></trkpt><trkpt lat="46.00768606214123" lon="11.855538007252305"><ele>303.75</ele><time>2026-05-01T14:05:35Z</time></trkpt><trkpt lat="46.00774701278538" lon="11.855716737581067"><ele>303.5</ele><time>2026-05-01T14:05:36Z</time></trkpt><trkpt lat="46.00780841687182" lon="11.855893028691845"><ele>303.25</ele><time>2026-05-01T14:05:37Z</time></trkpt><trkpt lat="46.00787066606995" lon="11.856071845341939"><ele>303.0</ele><time>2026-05-01T14:05:38Z</time></trkpt><trkpt lat="46.00793217299143" lon="11.856253843534855"><ele>302.5</ele><time>2026-05-01T14:05:39Z</time></trkpt><trkpt lat="46.00799579844078" lon="11.856438572831678"><ele>302.0</ele><time>2026-05-01T14:05:40Z</time></trkpt><trkpt lat="46.00805955391744" lon="11.856622013053286"><ele>301.5</ele><time>2026-05-01T14:05:41Z</time></trkpt><trkpt lat="46.008121370119405" lon="11.856806777755608"><ele>301.0</ele><time>2026-05-01T14:05:42Z</time></trkpt><trkpt lat="46.00818216858732" lon="11.856987939173818"><ele>300.5</ele><time>2026-05-01T14:05:42.999Z</time></trkpt><trkpt lat="46.00824508327684" lon="11.857169112671556"><ele>300.0</ele><time>2026-05-01T14:05:43.999Z</time></trkpt><trkpt lat="46.00830445060348" lon="11.857339548873208"><ele>299.5</ele><time>2026-05-01T14:05:44.999Z</time></trkpt><trkpt lat="46.00835997570666" lon="11.857505405354493"><ele>299.0</ele><time>2026-05-01T14:05:45.999Z</time></trkpt><trkpt lat="46.008416758800834" lon="11.857670454643834"><ele>299.0</ele><time>2026-05-01T14:05:46.999Z</time></trkpt><trkpt lat="46.00847051002162" lon="11.85782381834524"><ele>299.0</ele><time>2026-05-01T14:05:47.999Z</time></trkpt><trkpt lat="46.008521404281005" lon="11.857972372009575"><ele>299.0</ele><time>2026-05-01T14:05:48.999Z</time></trkpt><trkpt lat="46.00857081303597" lon="11.858115306783542"><ele>299.0</ele><time>2026-05-01T14:05:49.999Z</time></trkpt><trkpt lat="46.00862002203303" lon="11.85825479759548"><ele>299.0</ele><time>2026-05-01T14:05:50.999Z</time></trkpt><trkpt lat="46.008666822650476" lon="11.858393422040784"><ele>299.0</ele><time>2026-05-01T14:05:51.999Z</time></trkpt><trkpt lat="46.00871074627997" lon="11.858524519733832"><ele>299.0</ele><time>2026-05-01T14:05:52.999Z</time></trkpt><trkpt lat="46.00875398781515" lon="11.858649826659969"><ele>299.0</ele><time>2026-05-01T14:05:53.999Z</time></trkpt><trkpt lat="46.008797005607285" lon="11.85877415645714"><ele>299.0</ele><time>2026-05-01T14:05:54.999Z</time></trkpt><trkpt lat="46.00884121615171" lon="11.858902525920204"><ele>298.25</ele><time>2026-05-01T14:05:55.999Z</time></trkpt><trkpt lat="46.008889878477255" lon="11.859048685424002"><ele>297.5</ele><time>2026-05-01T14:05:56.999Z</time></trkpt><trkpt lat="46.00894555050282" lon="11.859213028339337"><ele>296.75</ele><time>2026-05-01T14:05:57.999Z</time></trkpt><trkpt lat="46.009007226920055" lon="11.859389068747802"><ele>296.0</ele><time>2026-05-01T14:05:58.999Z</time></trkpt><trkpt lat="46.0090698083356" lon="11.859575483260466"><ele>295.75</ele><time>2026-05-01T14:05:59.999Z</time></trkpt><trkpt lat="46.00913546547163" lon="11.85976242536366"><ele>295.5</ele><time>2026-05-01T14:06:00.999Z</time></trkpt><trkpt lat="46.009199063644814" lon="11.859948313592096"><ele>295.25</ele><time>2026-05-01T14:06:01.999Z</time></trkpt><trkpt lat="46.00926091247843" lon="11.86012944707379"><ele>295.0</ele><time>2026-05-01T14:06:02.999Z</time></trkpt><trkpt lat="46.00932262449034" lon="11.860308854760481"><ele>294.75</ele><time>2026-05-01T14:06:03.999Z</time></trkpt><trkpt lat="46.00938369934536" lon="11.860484539284727"><ele>294.5</ele><time>2026-05-01T14:06:04.999Z</time></trkpt><trkpt lat="46.00944246531326" lon="11.86065569375635"><ele>294.25</ele><time>2026-05-01T14:06:05.999Z</time></trkpt><trkpt lat="46.00949999526102" lon="11.860823199743908"><ele>294.0</ele><time>2026-05-01T14:06:06.999Z</time></trkpt><trkpt lat="46.00955675546931" lon="11.860986686020757"><ele>293.4</ele><time>2026-05-01T14:06:07.999Z</time></trkpt><trkpt lat="46.00961264311295" lon="11.861148090316235"><ele>292.79999999999995</ele><time>2026-05-01T14:06:08.999Z</time></trkpt><trkpt lat="46.009664379787495" lon="11.861302140850077"><ele>292.20000000000005</ele><time>2026-05-01T14:06:09.999Z</time></trkpt><trkpt lat="46.0097106075834" lon="11.861443125207405"><ele>291.6</ele><time>2026-05-01T14:06:10.999Z</time></trkpt><trkpt lat="46.00975285669206" lon="11.861564913388943"><ele>291.0</ele><time>2026-05-01T14:06:11.999Z</time></trkpt><trkpt lat="46.00979246154641" lon="11.861676211474363"><ele>291.0</ele><time>2026-05-01T14:06:12.999Z</time></trkpt><trkpt lat="46.00982534280633" lon="11.861776456360968"><ele>291.0</ele><time>2026-05-01T14:06:13.999Z</time></trkpt><trkpt lat="46.00984769099124" lon="11.861942335533087"><ele>291.0</ele><time>2026-05-01T14:06:15.999Z</time></trkpt><trkpt lat="46.00984181612635" lon="11.86204822776063"><ele>291.0</ele><time>2026-05-01T14:06:17.999Z</time></trkpt><trkpt lat="46.00987877685413" lon="11.862137573351456"><ele>291.0</ele><time>2026-05-01T14:06:20.999Z</time></trkpt><trkpt lat="46.00990086387589" lon="11.862237118496122"><ele>291.0</ele><time>2026-05-01T14:06:23.999Z</time></trkpt><trkpt lat="46.0099631737546" lon="11.862265185448086"><ele>291.0</ele><time>2026-05-01T14:11:14.999Z</time></trkpt><trkpt lat="46.01000709737247" lon="11.862334201929286"><ele>291.0</ele><time>2026-05-01T14:11:22Z</time></trkpt><trkpt lat="46.0100633559724" lon="11.862377385239816"><ele>291.0</ele><time>2026-05-01T14:11:23Z</time></trkpt><trkpt lat="46.01008080668149" lon="11.862478033511714"><ele>291.0</ele><time>2026-05-01T14:11:24Z</time></trkpt><trkpt lat="46.01012388776814" lon="11.862607905186884"><ele>291.0</ele><time>2026-05-01T14:11:25Z</time></trkpt><trkpt lat="46.01018067497925" lon="11.862760436359183"><ele>291.0</ele><time>2026-05-01T14:11:26Z</time></trkpt><trkpt lat="46.01024607381725" lon="11.86293438956423"><ele>291.0</ele><time>2026-05-01T14:11:27Z</time></trkpt><trkpt lat="46.01030873962157" lon="11.86313412875085"><ele>291.0</ele><time>2026-05-01T14:11:28Z</time></trkpt><trkpt lat="46.01038744178778" lon="11.863368963554544"><ele>291.0</ele><time>2026-05-01T14:11:29Z</time></trkpt><trkpt lat="46.01048141405577" lon="11.863641220495497"><ele>291.3333333333333</ele><time>2026-05-01T14:11:30Z</time></trkpt><trkpt lat="46.01058162582416" lon="11.863930494607304"><ele>291.66666666666663</ele><time>2026-05-01T14:11:31Z</time></trkpt><trkpt lat="46.01068144975963" lon="11.864219698004671"><ele>292.0</ele><time>2026-05-01T14:11:32Z</time></trkpt><trkpt lat="46.01077697734295" lon="11.864493172844877"><ele>291.0</ele><time>2026-05-01T14:11:33Z</time></trkpt><trkpt lat="46.010865810683896" lon="11.864753904955444"><ele>290.0</ele><time>2026-05-01T14:11:34Z</time></trkpt><trkpt lat="46.01094960351543" lon="11.865003684716138"><ele>289.0</ele><time>2026-05-01T14:11:35Z</time></trkpt><trkpt lat="46.01103017656044" lon="11.865244500449721"><ele>288.3333333333333</ele><time>2026-05-01T14:11:36Z</time></trkpt><trkpt lat="46.011108774494915" lon="11.865481163083722"><ele>287.6666666666667</ele><time>2026-05-01T14:11:37Z</time></trkpt><trkpt lat="46.01119348282143" lon="11.865712002735371"><ele>287.0</ele><time>2026-05-01T14:11:38Z</time></trkpt><trkpt lat="46.01127389617181" lon="11.86593890439722"><ele>286.6666666666667</ele><time>2026-05-01T14:11:39Z</time></trkpt><trkpt lat="46.01134571502649" lon="11.866153637623947"><ele>286.3333333333333</ele><time>2026-05-01T14:11:40Z</time></trkpt><trkpt lat="46.011416835895176" lon="11.866360276211713"><ele>286.0</ele><time>2026-05-01T14:11:41Z</time></trkpt><trkpt lat="46.011485435852464" lon="11.866557845961356"><ele>286.0</ele><time>2026-05-01T14:11:42Z</time></trkpt><trkpt lat="46.01155651977247" lon="11.866749473098698"><ele>286.0</ele><time>2026-05-01T14:11:43Z</time></trkpt><trkpt lat="46.01161906586727" lon="11.866936088260136"><ele>286.0</ele><time>2026-05-01T14:11:44Z</time></trkpt><trkpt lat="46.01167987016546" lon="11.867118089513534"><ele>286.0</ele><time>2026-05-01T14:11:45Z</time></trkpt><trkpt lat="46.01174100790858" lon="11.867300564746978"><ele>286.0</ele><time>2026-05-01T14:11:46Z</time></trkpt><trkpt lat="46.0118034741624" lon="11.867481227370583"><ele>286.0</ele><time>2026-05-01T14:11:47Z</time></trkpt><trkpt lat="46.01186358567097" lon="11.867659692160075"><ele>286.0</ele><time>2026-05-01T14:11:48Z</time></trkpt><trkpt lat="46.01192402794065" lon="11.86783363818799"><ele>286.0</ele><time>2026-05-01T14:11:49Z</time></trkpt><trkpt lat="46.01197970165336" lon="11.867990895500592"><ele>286.0</ele><time>2026-05-01T14:11:49.999Z</time></trkpt><trkpt lat="46.01202944658339" lon="11.868139197397989"><ele>286.0</ele><time>2026-05-01T14:11:50.999Z</time></trkpt><trkpt lat="46.01207864026094" lon="11.868279847111408"><ele>286.0</ele><time>2026-05-01T14:11:51.999Z</time></trkpt><trkpt lat="46.01212298403161" lon="11.868409749046718"><ele>286.0</ele><time>2026-05-01T14:11:52.999Z</time></trkpt><trkpt lat="46.01216924070009" lon="11.868545801907164"><ele>286.0</ele><time>2026-05-01T14:11:53.999Z</time></trkpt><trkpt lat="46.01221358656301" lon="11.868668307445741"><ele>285.5</ele><time>2026-05-01T14:11:54.999Z</time></trkpt><trkpt lat="46.01225217568414" lon="11.868775815653427"><ele>285.0</ele><time>2026-05-01T14:11:55.999Z</time></trkpt><trkpt lat="46.01228573202684" lon="11.868873291892704"><ele>284.5</ele><time>2026-05-01T14:11:56.999Z</time></trkpt><trkpt lat="46.01231053270426" lon="11.868959575721796"><ele>284.0</ele><time>2026-05-01T14:11:57.999Z</time></trkpt><trkpt lat="46.01235450255853" lon="11.86908353317483"><ele>283.5</ele><time>2026-05-01T14:11:59.999Z</time></trkpt><trkpt lat="46.01239926186206" lon="11.869195086531443"><ele>283.0</ele><time>2026-05-01T14:12:01.999Z</time></trkpt><trkpt lat="46.012437210002034" lon="11.86930153339661"><ele>283.0</ele><time>2026-05-01T14:12:03.999Z</time></trkpt><trkpt lat="46.01247083939643" lon="11.869403806598632"><ele>283.0</ele><time>2026-05-01T14:12:06.999Z</time></trkpt><trkpt lat="46.01249776723187" lon="11.869490844532198"><ele>283.0</ele><time>2026-05-01T14:12:09.999Z</time></trkpt><trkpt lat="46.01253861657596" lon="11.869609568995875"><ele>283.0</ele><time>2026-05-01T14:12:14.999Z</time></trkpt><trkpt lat="46.01257469603684" lon="11.869707774166548"><ele>283.0</ele><time>2026-05-01T14:12:16.999Z</time></trkpt><trkpt lat="46.01261034259997" lon="11.869818396752354"><ele>283.0</ele><time>2026-05-01T14:12:18.999Z</time></trkpt><trkpt lat="46.01266416997859" lon="11.869970134750512"><ele>283.0</ele><time>2026-05-01T14:12:20.999Z</time></trkpt><trkpt lat="46.01269451211553" lon="11.8700633522441"><ele>283.0</ele><time>2026-05-01T14:12:21.999Z</time></trkpt><trkpt lat="46.01272903942145" lon="11.870164266623666"><ele>283.0</ele><time>2026-05-01T14:12:22.999Z</time></trkpt><trkpt lat="46.0127625902881" lon="11.870262322362347"><ele>283.0</ele><time>2026-05-01T14:12:23.999Z</time></trkpt><trkpt lat="46.012792987924385" lon="11.870355679567538"><ele>283.0</ele><time>2026-05-01T14:12:24.999Z</time></trkpt><trkpt lat="46.01282644639496" lon="11.870454928360182"><ele>283.0</ele><time>2026-05-01T14:12:25.999Z</time></trkpt><trkpt lat="46.01285956854079" lon="11.87055776163179"><ele>283.0</ele><time>2026-05-01T14:12:26.999Z</time></trkpt><trkpt lat="46.01289635425002" lon="11.87066207888273"><ele>283.0</ele><time>2026-05-01T14:12:27.999Z</time></trkpt><trkpt lat="46.01293310114612" lon="11.870770336102241"><ele>283.0</ele><time>2026-05-01T14:12:28.999Z</time></trkpt><trkpt lat="46.01296928716068" lon="11.870881736388254"><ele>283.0</ele><time>2026-05-01T14:12:29.999Z</time></trkpt><trkpt lat="46.01300745264231" lon="11.870995361535815"><ele>283.0</ele><time>2026-05-01T14:12:30.999Z</time></trkpt><trkpt lat="46.01304577948676" lon="11.871113682004504"><ele>283.0</ele><time>2026-05-01T14:12:31.999Z</time></trkpt><trkpt lat="46.01308894920678" lon="11.871234168580562"><ele>282.8</ele><time>2026-05-01T14:12:32.999Z</time></trkpt><trkpt lat="46.0131330446684" lon="11.871360812373188"><ele>282.6</ele><time>2026-05-01T14:12:33.999Z</time></trkpt><trkpt lat="46.013177891083906" lon="11.871489603854583"><ele>282.4</ele><time>2026-05-01T14:12:34.999Z</time></trkpt><trkpt lat="46.01322352046033" lon="11.87161819497343"><ele>282.2</ele><time>2026-05-01T14:12:35.999Z</time></trkpt><trkpt lat="46.01326838698609" lon="11.871747166157634"><ele>282.0</ele><time>2026-05-01T14:12:36.999Z</time></trkpt><trkpt lat="46.01331208661993" lon="11.871876862424708"><ele>281.8</ele><time>2026-05-01T14:12:37.999Z</time></trkpt><trkpt lat="46.0133567123487" lon="11.872006654932532"><ele>281.6</ele><time>2026-05-01T14:12:38.999Z</time></trkpt><trkpt lat="46.013403235313305" lon="11.872135186585233"><ele>281.40000000000003</ele><time>2026-05-01T14:12:39.999Z</time></trkpt><trkpt lat="46.01344904039137" lon="11.872266145468355"><ele>281.2</ele><time>2026-05-01T14:12:40.999Z</time></trkpt><trkpt lat="46.01349600500702" lon="11.872401937862186"><ele>281.0</ele><time>2026-05-01T14:12:41.999Z</time></trkpt><trkpt lat="46.013546073580244" lon="11.872543153175048"><ele>281.0</ele><time>2026-05-01T14:12:42.999Z</time></trkpt><trkpt lat="46.01359594461474" lon="11.872691346467871"><ele>281.0</ele><time>2026-05-01T14:12:43.999Z</time></trkpt><trkpt lat="46.01364753199985" lon="11.872842669361313"><ele>281.0</ele><time>2026-05-01T14:12:44.999Z</time></trkpt><trkpt lat="46.01370036179458" lon="11.872998580746692"><ele>281.0</ele><time>2026-05-01T14:12:45.999Z</time></trkpt><trkpt lat="46.01375502464072" lon="11.87315912256978"><ele>281.0</ele><time>2026-05-01T14:12:46.999Z</time></trkpt><trkpt lat="46.01381208832314" lon="11.873324594899007"><ele>281.0</ele><time>2026-05-01T14:12:47.999Z</time></trkpt><trkpt lat="46.013867032812726" lon="11.873489065506059"><ele>281.0</ele><time>2026-05-01T14:12:48.999Z</time></trkpt><trkpt lat="46.013921767058186" lon="11.8736534014043"><ele>281.0</ele><time>2026-05-01T14:12:49.999Z</time></trkpt><trkpt lat="46.01397651802301" lon="11.873814723196043"><ele>280.5</ele><time>2026-05-01T14:12:50.999Z</time></trkpt><trkpt lat="46.01403076523298" lon="11.8739742938436"><ele>280.0</ele><time>2026-05-01T14:12:51.999Z</time></trkpt><trkpt lat="46.014084644740926" lon="11.874129732792936"><ele>279.5</ele><time>2026-05-01T14:12:52.999Z</time></trkpt><trkpt lat="46.01413767822018" lon="11.874283849561328"><ele>279.0</ele><time>2026-05-01T14:12:53.999Z</time></trkpt><trkpt lat="46.014190488882036" lon="11.87443510594488"><ele>279.0</ele><time>2026-05-01T14:12:54.999Z</time></trkpt><trkpt lat="46.014242460980945" lon="11.874585502020068"><ele>279.0</ele><time>2026-05-01T14:12:55.999Z</time></trkpt><trkpt lat="46.01429500886385" lon="11.874736628697239"><ele>279.0</ele><time>2026-05-01T14:12:56.999Z</time></trkpt><trkpt lat="46.01434724598218" lon="11.874886045355533"><ele>279.0</ele><time>2026-05-01T14:12:57.999Z</time></trkpt><trkpt lat="46.01439772591648" lon="11.875036243209285"><ele>278.75</ele><time>2026-05-01T14:12:58.999Z</time></trkpt><trkpt lat="46.014447785017765" lon="11.875187584331908"><ele>278.5</ele><time>2026-05-01T14:12:59.999Z</time></trkpt><trkpt lat="46.01450261134582" lon="11.875345281325828"><ele>278.25</ele><time>2026-05-01T14:13:00.999Z</time></trkpt><trkpt lat="46.0145570987239" lon="11.875505701980538"><ele>278.0</ele><time>2026-05-01T14:13:01.999Z</time></trkpt><trkpt lat="46.01460950188796" lon="11.875663549909541"><ele>278.0</ele><time>2026-05-01T14:13:02.999Z</time></trkpt><trkpt lat="46.01466438057483" lon="11.875820172274924"><ele>278.0</ele><time>2026-05-01T14:13:03.999Z</time></trkpt><trkpt lat="46.014721366998366" lon="11.87598178982148"><ele>278.0</ele><time>2026-05-01T14:13:04.999Z</time></trkpt><trkpt lat="46.01478043428542" lon="11.876152421041272"><ele>278.0</ele><time>2026-05-01T14:13:05.999Z</time></trkpt><trkpt lat="46.01482996664538" lon="11.87629989795104"><ele>277.6666666666667</ele><time>2026-05-01T14:13:06.999Z</time></trkpt><trkpt lat="46.01487289483907" lon="11.876431901796042"><ele>277.33333333333337</ele><time>2026-05-01T14:13:07.999Z</time></trkpt><trkpt lat="46.01490097525841" lon="11.876556935784723"><ele>277.0</ele><time>2026-05-01T14:13:08.999Z</time></trkpt><trkpt lat="46.01491247326445" lon="11.87667696943063"><ele>276.6666666666667</ele><time>2026-05-01T14:13:09.999Z</time></trkpt><trkpt lat="46.01491734228461" lon="11.876774430640964"><ele>276.3333333333333</ele><time>2026-05-01T14:13:10.999Z</time></trkpt><trkpt lat="46.014834236058185" lon="11.876819240216646"><ele>276.0</ele><time>2026-05-01T14:13:11.999Z</time></trkpt><trkpt lat="46.01475795848332" lon="11.876882662196325"><ele>276.0</ele><time>2026-05-01T14:13:12.999Z</time></trkpt><trkpt lat="46.01464295431284" lon="11.876978284448418"><ele>276.0</ele><time>2026-05-01T14:13:13.999Z</time></trkpt><trkpt lat="46.01448532496061" lon="11.877106092148612"><ele>276.0</ele><time>2026-05-01T14:13:14.999Z</time></trkpt><trkpt lat="46.014289757481805" lon="11.877263828460544"><ele>275.5</ele><time>2026-05-01T14:13:15.999Z</time></trkpt><trkpt lat="46.01407272514613" lon="11.877437854893833"><ele>275.0</ele><time>2026-05-01T14:13:16.999Z</time></trkpt><trkpt lat="46.01383723446818" lon="11.877620638692301"><ele>274.5</ele><time>2026-05-01T14:13:17.999Z</time></trkpt><trkpt lat="46.01359276434063" lon="11.877808382144682"><ele>274.0</ele><time>2026-05-01T14:13:18.999Z</time></trkpt><trkpt lat="46.01335142605353" lon="11.878017895506913"><ele>274.0</ele><time>2026-05-01T14:13:19.999Z</time></trkpt><trkpt lat="46.01310191193799" lon="11.878181785835258"><ele>274.0</ele><time>2026-05-01T14:13:20.999Z</time></trkpt><trkpt lat="46.01289774149583" lon="11.87833528308738"><ele>274.0</ele><time>2026-05-01T14:13:21.999Z</time></trkpt><trkpt lat="46.012719397005874" lon="11.878469230978327"><ele>274.0</ele><time>2026-05-01T14:13:22.999Z</time></trkpt><trkpt lat="46.0125810103622" lon="11.878573167543538"><ele>274.0</ele><time>2026-05-01T14:13:24Z</time></trkpt><trkpt lat="46.012484629041396" lon="11.878645556076988"><ele>274.0</ele><time>2026-05-01T14:13:25Z</time></trkpt><trkpt lat="46.012417066679035" lon="11.878696299338182"><ele>274.0</ele><time>2026-05-01T14:13:26Z</time></trkpt><trkpt lat="46.01232079332188" lon="11.878768606486604"><ele>274.0</ele><time>2026-05-01T14:13:28Z</time></trkpt><trkpt lat="46.012339097546345" lon="11.879128167561614"><ele>274.0</ele><time>2026-05-01T14:13:30Z</time></trkpt><trkpt lat="46.01237837555374" lon="11.879250305339365"><ele>273.8</ele><time>2026-05-01T14:13:31Z</time></trkpt><trkpt lat="46.012424848690756" lon="11.879398237725168"><ele>273.59999999999997</ele><time>2026-05-01T14:13:32Z</time></trkpt><trkpt lat="46.01245804681217" lon="11.879503913610316"><ele>273.4</ele><time>2026-05-01T14:13:33Z</time></trkpt><trkpt lat="46.01250642842192" lon="11.879650908621608"><ele>273.2</ele><time>2026-05-01T14:13:35Z</time></trkpt><trkpt lat="46.01253540597093" lon="11.87978455198496"><ele>273.0</ele><time>2026-05-01T14:13:36Z</time></trkpt><trkpt lat="46.012598367421816" lon="11.879969974765078"><ele>272.6666666666667</ele><time>2026-05-01T14:13:37Z</time></trkpt><trkpt lat="46.01266301011895" lon="11.88019536609632"><ele>272.33333333333337</ele><time>2026-05-01T14:13:38Z</time></trkpt><trkpt lat="46.01274282404244" lon="11.880461669006667"><ele>272.0</ele><time>2026-05-01T14:13:39Z</time></trkpt><trkpt lat="46.012853831283216" lon="11.880820758561661"><ele>271.5</ele><time>2026-05-01T14:13:40Z</time></trkpt><trkpt lat="46.01298655143916" lon="11.881255004229622"><ele>271.0</ele><time>2026-05-01T14:13:41Z</time></trkpt><trkpt lat="46.01311694936738" lon="11.881673668703602"><ele>271.5</ele><time>2026-05-01T14:13:42Z</time></trkpt><trkpt lat="46.01321826150073" lon="11.882003942675881"><ele>272.0</ele><time>2026-05-01T14:13:43Z</time></trkpt><trkpt lat="46.01330356592774" lon="11.882263717212732"><ele>271.5</ele><time>2026-05-01T14:13:44Z</time></trkpt><trkpt lat="46.0133769618386" lon="11.882493706922396"><ele>271.0</ele><time>2026-05-01T14:13:45Z</time></trkpt><trkpt lat="46.01342476774057" lon="11.882686219266459"><ele>270.5</ele><time>2026-05-01T14:13:46Z</time></trkpt><trkpt lat="46.01343008011786" lon="11.88283714539167"><ele>270.0</ele><time>2026-05-01T14:13:47Z</time></trkpt><trkpt lat="46.01339026445029" lon="11.882951201987263"><ele>270.5</ele><time>2026-05-01T14:13:48Z</time></trkpt><trkpt lat="46.013299844470204" lon="11.883050705033895"><ele>271.0</ele><time>2026-05-01T14:13:48.999Z</time></trkpt><trkpt lat="46.01317890902313" lon="11.883152369590748"><ele>271.5</ele><time>2026-05-01T14:13:49.999Z</time></trkpt><trkpt lat="46.01305000923124" lon="11.883264206125698"><ele>272.0</ele><time>2026-05-01T14:13:50.999Z</time></trkpt><trkpt lat="46.01292073835508" lon="11.883394977399835"><ele>272.0</ele><time>2026-05-01T14:13:51.999Z</time></trkpt><trkpt lat="46.012790311475186" lon="11.883516505789235"><ele>272.0</ele><time>2026-05-01T14:13:52.999Z</time></trkpt><trkpt lat="46.01266442278664" lon="11.883640682587835"><ele>272.0</ele><time>2026-05-01T14:13:53.999Z</time></trkpt><trkpt lat="46.01254274353588" lon="11.883757210869238"><ele>271.8</ele><time>2026-05-01T14:13:54.999Z</time></trkpt><trkpt lat="46.012429418035005" lon="11.883866354116433"><ele>271.6</ele><time>2026-05-01T14:13:55.999Z</time></trkpt><trkpt lat="46.01234159742974" lon="11.883952499792308"><ele>271.40000000000003</ele><time>2026-05-01T14:13:56.999Z</time></trkpt><trkpt lat="46.012272354442956" lon="11.884015028943502"><ele>271.2</ele><time>2026-05-01T14:13:57.999Z</time></trkpt><trkpt lat="46.01220817139898" lon="11.884060603363903"><ele>271.0</ele><time>2026-05-01T14:13:58.999Z</time></trkpt><trkpt lat="46.01214345032618" lon="11.884086690848177"><ele>271.0</ele><time>2026-05-01T14:13:59.999Z</time></trkpt><trkpt lat="46.01207761731562" lon="11.884085654998655"><ele>271.0</ele><time>2026-05-01T14:14:00.999Z</time></trkpt><trkpt lat="46.01200477609922" lon="11.884085941192906"><ele>271.0</ele><time>2026-05-01T14:14:01.999Z</time></trkpt><trkpt lat="46.011928798600565" lon="11.884096647995989"><ele>271.0</ele><time>2026-05-01T14:14:02.999Z</time></trkpt><trkpt lat="46.011857791863406" lon="11.884109738810464"><ele>271.0</ele><time>2026-05-01T14:14:03.999Z</time></trkpt><trkpt lat="46.011708565493" lon="11.884087006229963"><ele>271.0</ele><time>2026-05-01T14:14:05.999Z</time></trkpt><trkpt lat="46.011639117789976" lon="11.884035470306173"><ele>271.16666666666663</ele><time>2026-05-01T14:14:06.999Z</time></trkpt><trkpt lat="46.011568668976466" lon="11.883964482995761"><ele>271.3333333333333</ele><time>2026-05-01T14:14:07.999Z</time></trkpt><trkpt lat="46.011489719499515" lon="11.88390636426812"><ele>271.5</ele><time>2026-05-01T14:14:08.999Z</time></trkpt><trkpt lat="46.011400379888975" lon="11.883876342866046"><ele>271.6666666666667</ele><time>2026-05-01T14:14:09.999Z</time></trkpt><trkpt lat="46.01131169627677" lon="11.883881794308483"><ele>271.83333333333337</ele><time>2026-05-01T14:14:10.999Z</time></trkpt><trkpt lat="46.01122321346524" lon="11.883882099471123"><ele>272.0</ele><time>2026-05-01T14:14:11.999Z</time></trkpt><trkpt lat="46.01113969081583" lon="11.88395043934765"><ele>272.0</ele><time>2026-05-01T14:14:12.999Z</time></trkpt><trkpt lat="46.01105998107383" lon="11.884022781123864"><ele>272.0</ele><time>2026-05-01T14:14:13.999Z</time></trkpt><trkpt lat="46.010981484312495" lon="11.884136749975848"><ele>272.0</ele><time>2026-05-01T14:14:14.999Z</time></trkpt><trkpt lat="46.01089699211244" lon="11.88430019920693"><ele>272.0</ele><time>2026-05-01T14:14:15.999Z</time></trkpt><trkpt lat="46.01075726388079" lon="11.884479114072459"><ele>272.0</ele><time>2026-05-01T14:14:16.999Z</time></trkpt><trkpt lat="46.010618978184894" lon="11.88470456319851"><ele>272.0</ele><time>2026-05-01T14:14:17.999Z</time></trkpt><trkpt lat="46.01045795648472" lon="11.884911278976222"><ele>272.0</ele><time>2026-05-01T14:14:18.999Z</time></trkpt><trkpt lat="46.01030540129945" lon="11.885094094284824"><ele>272.0</ele><time>2026-05-01T14:14:19.999Z</time></trkpt><trkpt lat="46.01015571156703" lon="11.885269550359476"><ele>272.0</ele><time>2026-05-01T14:14:20.999Z</time></trkpt><trkpt lat="46.010009044239354" lon="11.885439861806644"><ele>272.0</ele><time>2026-05-01T14:14:21.999Z</time></trkpt><trkpt lat="46.009865901915795" lon="11.885605563879967"><ele>272.0</ele><time>2026-05-01T14:14:22.999Z</time></trkpt><trkpt lat="46.00972559518748" lon="11.885765077141212"><ele>272.0</ele><time>2026-05-01T14:14:23.999Z</time></trkpt><trkpt lat="46.00959358924506" lon="11.885922090515109"><ele>272.0</ele><time>2026-05-01T14:14:24.999Z</time></trkpt><trkpt lat="46.00946889622468" lon="11.886065550172637"><ele>272.25</ele><time>2026-05-01T14:14:25.999Z</time></trkpt><trkpt lat="46.00935775780696" lon="11.886190442346592"><ele>272.5</ele><time>2026-05-01T14:14:26.999Z</time></trkpt><trkpt lat="46.009251389129446" lon="11.886317122046906"><ele>272.75</ele><time>2026-05-01T14:14:27.999Z</time></trkpt><trkpt lat="46.00916996310995" lon="11.886454676479481"><ele>273.0</ele><time>2026-05-01T14:14:28.999Z</time></trkpt><trkpt lat="46.00911537675292" lon="11.886610538865703"><ele>274.0</ele><time>2026-05-01T14:14:29.999Z</time></trkpt><trkpt lat="46.00909476135888" lon="11.886777186164469"><ele>275.0</ele><time>2026-05-01T14:14:30.999Z</time></trkpt><trkpt lat="46.009111797808885" lon="11.886955475300775"><ele>276.0</ele><time>2026-05-01T14:14:31.999Z</time></trkpt><trkpt lat="46.00916922083992" lon="11.887125994345334"><ele>277.0</ele><time>2026-05-01T14:14:32.999Z</time></trkpt><trkpt lat="46.00926578252101" lon="11.887272613590651"><ele>277.0</ele><time>2026-05-01T14:14:33.999Z</time></trkpt><trkpt lat="46.00941222115176" lon="11.887340267165717"><ele>277.0</ele><time>2026-05-01T14:14:34.999Z</time></trkpt><trkpt lat="46.009564509807475" lon="11.88744825075048"><ele>277.0</ele><time>2026-05-01T14:14:35.999Z</time></trkpt><trkpt lat="46.009730745068524" lon="11.887541260019752"><ele>275.66666666666663</ele><time>2026-05-01T14:14:36.999Z</time></trkpt><trkpt lat="46.009884438104464" lon="11.887679025602697"><ele>274.3333333333333</ele><time>2026-05-01T14:14:37.999Z</time></trkpt><trkpt lat="46.01002560471158" lon="11.887844172794455"><ele>273.0</ele><time>2026-05-01T14:14:38.999Z</time></trkpt><trkpt lat="46.01014452058044" lon="11.888035149506623"><ele>273.0</ele><time>2026-05-01T14:14:39.999Z</time></trkpt><trkpt lat="46.010248046633194" lon="11.888256696933725"><ele>273.0</ele><time>2026-05-01T14:14:40.999Z</time></trkpt><trkpt lat="46.0103394332043" lon="11.888526639586143"><ele>273.0</ele><time>2026-05-01T14:14:41.999Z</time></trkpt><trkpt lat="46.01046610686343" lon="11.888777435391516"><ele>275.5</ele><time>2026-05-01T14:14:42.999Z</time></trkpt><trkpt lat="46.01050975650723" lon="11.88916020569417"><ele>278.0</ele><time>2026-05-01T14:14:43.999Z</time></trkpt><trkpt lat="46.01060687389422" lon="11.889510906188775"><ele>285.0</ele><time>2026-05-01T14:14:44.999Z</time></trkpt><trkpt lat="46.01069834183903" lon="11.889877501499262"><ele>292.0</ele><time>2026-05-01T14:14:45.999Z</time></trkpt><trkpt lat="46.01078488599122" lon="11.89024045594351"><ele>289.0</ele><time>2026-05-01T14:14:46.999Z</time></trkpt><trkpt lat="46.010871134735666" lon="11.890597070508528"><ele>286.0</ele><time>2026-05-01T14:14:47.999Z</time></trkpt><trkpt lat="46.01095890126857" lon="11.890946407291398"><ele>286.0</ele><time>2026-05-01T14:14:48.999Z</time></trkpt><trkpt lat="46.01104523640577" lon="11.891288258087785"><ele>286.0</ele><time>2026-05-01T14:14:49.999Z</time></trkpt><trkpt lat="46.011130544129" lon="11.891634676913855"><ele>291.0</ele><time>2026-05-01T14:14:50.999Z</time></trkpt><trkpt lat="46.01121447831171" lon="11.891978803345852"><ele>296.0</ele><time>2026-05-01T14:14:51.999Z</time></trkpt><trkpt lat="46.01129679147118" lon="11.892321529774353"><ele>299.0</ele><time>2026-05-01T14:14:52.999Z</time></trkpt><trkpt lat="46.01138052871661" lon="11.892662995326193"><ele>302.0</ele><time>2026-05-01T14:14:53.999Z</time></trkpt><trkpt lat="46.011462150883084" lon="11.89300416754083"><ele>302.0</ele><time>2026-05-01T14:14:54.999Z</time></trkpt><trkpt lat="46.01154255859933" lon="11.893346357850637"><ele>302.0</ele><time>2026-05-01T14:14:55.999Z</time></trkpt><trkpt lat="46.01161854772219" lon="11.8936765809968"><ele>292.33333333333337</ele><time>2026-05-01T14:14:56.999Z</time></trkpt><trkpt lat="46.011686252583424" lon="11.893988434198702"><ele>282.6666666666667</ele><time>2026-05-01T14:14:57.999Z</time></trkpt><trkpt lat="46.01174061968762" lon="11.894280310798617"><ele>273.0</ele><time>2026-05-01T14:14:58.999Z</time></trkpt><trkpt lat="46.011782941903064" lon="11.89456857042483"><ele>272.6666666666667</ele><time>2026-05-01T14:14:59.999Z</time></trkpt><trkpt lat="46.011811416458734" lon="11.894842585264641"><ele>272.33333333333337</ele><time>2026-05-01T14:15:00.999Z</time></trkpt><trkpt lat="46.01182645302679" lon="11.895095322775829"><ele>272.0</ele><time>2026-05-01T14:15:01.999Z</time></trkpt><trkpt lat="46.01183299528679" lon="11.895337976455082"><ele>272.0</ele><time>2026-05-01T14:15:02.999Z</time></trkpt><trkpt lat="46.011826596066726" lon="11.895573730753261"><ele>272.0</ele><time>2026-05-01T14:15:03.999Z</time></trkpt><trkpt lat="46.0118173182842" lon="11.895817464362855"><ele>272.0</ele><time>2026-05-01T14:15:04.999Z</time></trkpt><trkpt lat="46.011800827313174" lon="11.896064368428867"><ele>271.6666666666667</ele><time>2026-05-01T14:15:05.999Z</time></trkpt><trkpt lat="46.01177547818241" lon="11.896303717671964"><ele>271.3333333333333</ele><time>2026-05-01T14:15:06.999Z</time></trkpt><trkpt lat="46.01174390781582" lon="11.896542573471738"><ele>271.0</ele><time>2026-05-01T14:15:07.999Z</time></trkpt><trkpt lat="46.01170528386086" lon="11.896778836164566"><ele>272.0</ele><time>2026-05-01T14:15:08.999Z</time></trkpt><trkpt lat="46.011657575374436" lon="11.897004340785378"><ele>273.0</ele><time>2026-05-01T14:15:09.999Z</time></trkpt><trkpt lat="46.011598779768455" lon="11.897225225866153"><ele>274.0</ele><time>2026-05-01T14:15:10.999Z</time></trkpt><trkpt lat="46.01151383885251" lon="11.897442063772713"><ele>277.3333333333333</ele><time>2026-05-01T14:15:11.999Z</time></trkpt><trkpt lat="46.01142736407699" lon="11.897675846244802"><ele>280.6666666666667</ele><time>2026-05-01T14:15:12.999Z</time></trkpt><trkpt lat="46.011328820663785" lon="11.897924651392941"><ele>284.0</ele><time>2026-05-01T14:15:13.999Z</time></trkpt><trkpt lat="46.011209215246" lon="11.898184733531428"><ele>282.5</ele><time>2026-05-01T14:15:14.999Z</time></trkpt><trkpt lat="46.01106829473207" lon="11.898446738487925"><ele>281.0</ele><time>2026-05-01T14:15:15.999Z</time></trkpt><trkpt lat="46.01089972985478" lon="11.898692937651722"><ele>284.0</ele><time>2026-05-01T14:15:16.999Z</time></trkpt><trkpt lat="46.01071803011905" lon="11.898934151799477"><ele>287.0</ele><time>2026-05-01T14:15:17.999Z</time></trkpt><trkpt lat="46.01053435547798" lon="11.89918074022691"><ele>281.0</ele><time>2026-05-01T14:15:18.999Z</time></trkpt><trkpt lat="46.010330315996725" lon="11.899395056094724"><ele>275.0</ele><time>2026-05-01T14:15:19.999Z</time></trkpt><trkpt lat="46.0101269662373" lon="11.899599955978905"><ele>279.0</ele><time>2026-05-01T14:15:20.999Z</time></trkpt><trkpt lat="46.009928398826744" lon="11.899792388374221"><ele>283.0</ele><time>2026-05-01T14:15:21.999Z</time></trkpt><trkpt lat="46.00973187036609" lon="11.899983374352537"><ele>280.5</ele><time>2026-05-01T14:15:22.999Z</time></trkpt><trkpt lat="46.00953982590828" lon="11.900179672246214"><ele>278.0</ele><time>2026-05-01T14:15:23.999Z</time></trkpt><trkpt lat="46.00935271806928" lon="11.900375892261707"><ele>278.0</ele><time>2026-05-01T14:15:24.999Z</time></trkpt><trkpt lat="46.00917536468227" lon="11.900575570463"><ele>278.0</ele><time>2026-05-01T14:15:25.999Z</time></trkpt><trkpt lat="46.009008284490356" lon="11.900779861988642"><ele>278.0</ele><time>2026-05-01T14:15:26.999Z</time></trkpt><trkpt lat="46.00885420136688" lon="11.900988378891105"><ele>280.6666666666667</ele><time>2026-05-01T14:15:27.999Z</time></trkpt><trkpt lat="46.00871087491191" lon="11.90120207311068"><ele>283.3333333333333</ele><time>2026-05-01T14:15:29Z</time></trkpt><trkpt lat="46.0085782287831" lon="11.90142796657769"><ele>286.0</ele><time>2026-05-01T14:15:30Z</time></trkpt><trkpt lat="46.00845805629118" lon="11.901654989926074"><ele>285.3333333333333</ele><time>2026-05-01T14:15:31Z</time></trkpt><trkpt lat="46.00834649157409" lon="11.901886670566766"><ele>284.6666666666667</ele><time>2026-05-01T14:15:32Z</time></trkpt><trkpt lat="46.00824688209763" lon="11.902122246032866"><ele>284.0</ele><time>2026-05-01T14:15:33Z</time></trkpt><trkpt lat="46.008157465480345" lon="11.902362935830961"><ele>287.6666666666667</ele><time>2026-05-01T14:15:34Z</time></trkpt><trkpt lat="46.00808016678127" lon="11.902606492838093"><ele>291.3333333333333</ele><time>2026-05-01T14:15:35Z</time></trkpt><trkpt lat="46.00801444323435" lon="11.902850036559107"><ele>295.0</ele><time>2026-05-01T14:15:36Z</time></trkpt><trkpt lat="46.00795722078767" lon="11.903093116133302"><ele>295.0</ele><time>2026-05-01T14:15:37Z</time></trkpt><trkpt lat="46.00790629809037" lon="11.903325366901907"><ele>295.0</ele><time>2026-05-01T14:15:38Z</time></trkpt><trkpt lat="46.00786814291847" lon="11.903563668216236"><ele>295.0</ele><time>2026-05-01T14:15:39Z</time></trkpt><trkpt lat="46.00783899925938" lon="11.903802593728393"><ele>296.0</ele><time>2026-05-01T14:15:40Z</time></trkpt><trkpt lat="46.00781516095985" lon="11.904037504385467"><ele>297.0</ele><time>2026-05-01T14:15:41Z</time></trkpt><trkpt lat="46.00780200646129" lon="11.904269804331216"><ele>298.0</ele><time>2026-05-01T14:15:42Z</time></trkpt><trkpt lat="46.007792892770716" lon="11.904499544181695"><ele>298.0</ele><time>2026-05-01T14:15:43Z</time></trkpt><trkpt lat="46.00779246224969" lon="11.904730636901443"><ele>298.0</ele><time>2026-05-01T14:15:44Z</time></trkpt><trkpt lat="46.00779921179646" lon="11.904976468827526"><ele>298.0</ele><time>2026-05-01T14:15:45Z</time></trkpt><trkpt lat="46.00778401814378" lon="11.905220056211007"><ele>298.0</ele><time>2026-05-01T14:15:46Z</time></trkpt><trkpt lat="46.00782257702411" lon="11.905575271681307"><ele>298.0</ele><time>2026-05-01T14:15:47Z</time></trkpt><trkpt lat="46.00786915669019" lon="11.905874510834042"><ele>298.5</ele><time>2026-05-01T14:15:48Z</time></trkpt><trkpt lat="46.00793367252693" lon="11.906207326386577"><ele>299.0</ele><time>2026-05-01T14:15:49Z</time></trkpt><trkpt lat="46.007976969610866" lon="11.906556645340956"><ele>298.5</ele><time>2026-05-01T14:15:50Z</time></trkpt><trkpt lat="46.008022479248446" lon="11.906912765751256"><ele>298.0</ele><time>2026-05-01T14:15:51Z</time></trkpt><trkpt lat="46.008072622612936" lon="11.907270337523915"><ele>295.0</ele><time>2026-05-01T14:15:51.999Z</time></trkpt><trkpt lat="46.00812146518269" lon="11.907623546973857"><ele>292.0</ele><time>2026-05-01T14:15:52.999Z</time></trkpt><trkpt lat="46.00817529693823" lon="11.907973498563374"><ele>292.0</ele><time>2026-05-01T14:15:53.999Z</time></trkpt><trkpt lat="46.0082306633298" lon="11.90832361233621"><ele>292.0</ele><time>2026-05-01T14:15:54.999Z</time></trkpt><trkpt lat="46.00828420335662" lon="11.90866765255247"><ele>293.0</ele><time>2026-05-01T14:15:55.999Z</time></trkpt><trkpt lat="46.008344487268836" lon="11.909006727896521"><ele>294.0</ele><time>2026-05-01T14:15:56.999Z</time></trkpt><trkpt lat="46.0084118512062" lon="11.909339386245048"><ele>294.0</ele><time>2026-05-01T14:15:57.999Z</time></trkpt><trkpt lat="46.00848517309179" lon="11.909664971925954"><ele>294.0</ele><time>2026-05-01T14:15:58.999Z</time></trkpt><trkpt lat="46.00856801094572" lon="11.909987214678576"><ele>291.5</ele><time>2026-05-01T14:15:59.999Z</time></trkpt><trkpt lat="46.008664339320056" lon="11.910301342140697"><ele>289.0</ele><time>2026-05-01T14:16:00.999Z</time></trkpt><trkpt lat="46.00877196642141" lon="11.910609020018466"><ele>289.0</ele><time>2026-05-01T14:16:01.999Z</time></trkpt><trkpt lat="46.008888266362995" lon="11.910907019140037"><ele>289.0</ele><time>2026-05-01T14:16:02.999Z</time></trkpt><trkpt lat="46.0090166605423" lon="11.911197836069217"><ele>288.0</ele><time>2026-05-01T14:16:03.999Z</time></trkpt><trkpt lat="46.00915909898081" lon="11.911483121537298"><ele>287.0</ele><time>2026-05-01T14:16:04.999Z</time></trkpt><trkpt lat="46.00931412766215" lon="11.91176443388194"><ele>292.0</ele><time>2026-05-01T14:16:05.999Z</time></trkpt><trkpt lat="46.00947814554711" lon="11.912044661704309"><ele>297.0</ele><time>2026-05-01T14:16:06.999Z</time></trkpt><trkpt lat="46.009652769841686" lon="11.912319839196561"><ele>297.0</ele><time>2026-05-01T14:16:07.999Z</time></trkpt><trkpt lat="46.00983323819205" lon="11.912596729954256"><ele>297.0</ele><time>2026-05-01T14:16:08.999Z</time></trkpt><trkpt lat="46.010014571405435" lon="11.912877846075384"><ele>297.5</ele><time>2026-05-01T14:16:09.999Z</time></trkpt><trkpt lat="46.01020910837948" lon="11.913181631731176"><ele>298.0</ele><time>2026-05-01T14:16:11.075Z</time></trkpt><trkpt lat="46.01038873845079" lon="11.913461488282396"><ele>291.0</ele><time>2026-05-01T14:16:12.067Z</time></trkpt><trkpt lat="46.011364791637355" lon="11.915101985166034"><ele>291.0</ele><time>2026-05-01T14:16:17.999Z</time></trkpt><trkpt lat="46.01151332286751" lon="11.915386096423672"><ele>291.0</ele><time>2026-05-01T14:16:18.999Z</time></trkpt><trkpt lat="46.011657407456354" lon="11.915698443260007"><ele>285.5</ele><time>2026-05-01T14:16:19.999Z</time></trkpt><trkpt lat="46.011761327392755" lon="11.915993873434335"><ele>280.0</ele><time>2026-05-01T14:16:20.999Z</time></trkpt><trkpt lat="46.01184060389328" lon="11.916290890644907"><ele>280.0</ele><time>2026-05-01T14:16:21.999Z</time></trkpt><trkpt lat="46.011909468992506" lon="11.916585808408643"><ele>280.0</ele><time>2026-05-01T14:16:22.999Z</time></trkpt><trkpt lat="46.011968711183535" lon="11.916897154924074"><ele>280.0</ele><time>2026-05-01T14:16:23.999Z</time></trkpt><trkpt lat="46.012012080791806" lon="11.917230541976132"><ele>276.0</ele><time>2026-05-01T14:16:24.999Z</time></trkpt><trkpt lat="46.012040443840135" lon="11.917568801232449"><ele>272.0</ele><time>2026-05-01T14:16:25.999Z</time></trkpt><trkpt lat="46.01205256348758" lon="11.917916464784943"><ele>272.0</ele><time>2026-05-01T14:16:26.999Z</time></trkpt><trkpt lat="46.01205254726032" lon="11.918261567166594"><ele>272.0</ele><time>2026-05-01T14:16:27.999Z</time></trkpt><trkpt lat="46.012058408137385" lon="11.918597930820344"><ele>270.5</ele><time>2026-05-01T14:16:28.999Z</time></trkpt><trkpt lat="46.01205178577076" lon="11.918946516289445"><ele>269.0</ele><time>2026-05-01T14:16:29.999Z</time></trkpt><trkpt lat="46.01204406417779" lon="11.919290302131708"><ele>266.5</ele><time>2026-05-01T14:16:30.999Z</time></trkpt><trkpt lat="46.012030663205756" lon="11.919630116003518"><ele>264.0</ele><time>2026-05-01T14:16:31.999Z</time></trkpt><trkpt lat="46.0120070849704" lon="11.919972139326429"><ele>260.0</ele><time>2026-05-01T14:16:32.999Z</time></trkpt><trkpt lat="46.011966033818645" lon="11.92031360730924"><ele>256.0</ele><time>2026-05-01T14:16:33.999Z</time></trkpt><trkpt lat="46.01191242028538" lon="11.920657384847026"><ele>251.5</ele><time>2026-05-01T14:16:34.999Z</time></trkpt><trkpt lat="46.01184265088301" lon="11.92099461397998"><ele>247.0</ele><time>2026-05-01T14:16:35.999Z</time></trkpt><trkpt lat="46.0117534108066" lon="11.921319655952015"><ele>245.0</ele><time>2026-05-01T14:16:36.999Z</time></trkpt><trkpt lat="46.01165230147954" lon="11.921644946155292"><ele>243.0</ele><time>2026-05-01T14:16:37.999Z</time></trkpt><trkpt lat="46.011539768061986" lon="11.92197760216728"><ele>242.5</ele><time>2026-05-01T14:16:38.999Z</time></trkpt><trkpt lat="46.01142153844238" lon="11.922314149727113"><ele>242.0</ele><time>2026-05-01T14:16:39.999Z</time></trkpt><trkpt lat="46.011299687992015" lon="11.922653492642386"><ele>241.0</ele><time>2026-05-01T14:16:40.999Z</time></trkpt><trkpt lat="46.011177011618734" lon="11.922998394877535"><ele>240.0</ele><time>2026-05-01T14:16:41.999Z</time></trkpt><trkpt lat="46.011052665317926" lon="11.923345539285965"><ele>240.5</ele><time>2026-05-01T14:16:42.999Z</time></trkpt><trkpt lat="46.01092601007978" lon="11.923693603492888"><ele>241.0</ele><time>2026-05-01T14:16:43.999Z</time></trkpt><trkpt lat="46.010798488361175" lon="11.924046478555985"><ele>242.0</ele><time>2026-05-01T14:16:44.999Z</time></trkpt><trkpt lat="46.010670049699414" lon="11.924398621929745"><ele>243.0</ele><time>2026-05-01T14:16:45.999Z</time></trkpt><trkpt lat="46.010543218250554" lon="11.924753447590456"><ele>242.0</ele><time>2026-05-01T14:16:46.999Z</time></trkpt><trkpt lat="46.010414690248595" lon="11.92510961564651"><ele>241.0</ele><time>2026-05-01T14:16:47.999Z</time></trkpt><trkpt lat="46.01028777455749" lon="11.92546428952438"><ele>241.0</ele><time>2026-05-01T14:16:48.999Z</time></trkpt><trkpt lat="46.01016298116427" lon="11.925812100804832"><ele>241.0</ele><time>2026-05-01T14:16:49.999Z</time></trkpt><trkpt lat="46.01004037494238" lon="11.926156598335202"><ele>241.0</ele><time>2026-05-01T14:16:50.999Z</time></trkpt><trkpt lat="46.009917491804735" lon="11.926493156380408"><ele>241.0</ele><time>2026-05-01T14:16:51.999Z</time></trkpt><trkpt lat="46.00979814418646" lon="11.926819426376271"><ele>241.0</ele><time>2026-05-01T14:16:52.999Z</time></trkpt><trkpt lat="46.009686789467764" lon="11.92713278544354"><ele>241.0</ele><time>2026-05-01T14:16:53.999Z</time></trkpt><trkpt lat="46.00958202006803" lon="11.927425116098995"><ele>241.0</ele><time>2026-05-01T14:16:54.999Z</time></trkpt><trkpt lat="46.00948692076536" lon="11.927694424353666"><ele>241.0</ele><time>2026-05-01T14:16:55.999Z</time></trkpt><trkpt lat="46.00939807197958" lon="11.927943415611656"><ele>241.0</ele><time>2026-05-01T14:16:56.999Z</time></trkpt><trkpt lat="46.00931353590753" lon="11.928176505855333"><ele>241.0</ele><time>2026-05-01T14:16:57.999Z</time></trkpt><trkpt lat="46.009238772467334" lon="11.92838663884201"><ele>241.0</ele><time>2026-05-01T14:16:58.999Z</time></trkpt><trkpt lat="46.00917072706489" lon="11.928581252882347"><ele>241.0</ele><time>2026-05-01T14:16:59.999Z</time></trkpt><trkpt lat="46.00911041979848" lon="11.928755631121698"><ele>239.75</ele><time>2026-05-01T14:17:00.999Z</time></trkpt><trkpt lat="46.009056675355495" lon="11.928913319557026"><ele>238.5</ele><time>2026-05-01T14:17:01.999Z</time></trkpt><trkpt lat="46.00900992915397" lon="11.929059663650794"><ele>237.25</ele><time>2026-05-01T14:17:02.999Z</time></trkpt><trkpt lat="46.0089542951195" lon="11.929200313872894"><ele>236.0</ele><time>2026-05-01T14:17:03.999Z</time></trkpt><trkpt lat="46.008872858161155" lon="11.929324938010117"><ele>236.0</ele><time>2026-05-01T14:17:04.999Z</time></trkpt><trkpt lat="46.00877289002456" lon="11.929457820589537"><ele>236.0</ele><time>2026-05-01T14:17:05.999Z</time></trkpt><trkpt lat="46.008664489872075" lon="11.929572990595704"><ele>236.0</ele><time>2026-05-01T14:17:06.999Z</time></trkpt><trkpt lat="46.00853436158369" lon="11.92962411589773"><ele>236.0</ele><time>2026-05-01T14:17:07.999Z</time></trkpt><trkpt lat="46.00840740249157" lon="11.92971946320446"><ele>235.66666666666669</ele><time>2026-05-01T14:17:08.999Z</time></trkpt><trkpt lat="46.008309092187154" lon="11.929906298514949"><ele>235.33333333333331</ele><time>2026-05-01T14:17:09.999Z</time></trkpt><trkpt lat="46.00820394011113" lon="11.93011211251356"><ele>235.0</ele><time>2026-05-01T14:17:10.999Z</time></trkpt><trkpt lat="46.0080937733125" lon="11.930323881397102"><ele>235.33333333333331</ele><time>2026-05-01T14:17:11.999Z</time></trkpt><trkpt lat="46.00798255878089" lon="11.930533088427758"><ele>235.66666666666669</ele><time>2026-05-01T14:17:12.999Z</time></trkpt><trkpt lat="46.0078600274806" lon="11.930720951318243"><ele>236.0</ele><time>2026-05-01T14:17:13.999Z</time></trkpt><trkpt lat="46.007755640302776" lon="11.930913358307047"><ele>236.0</ele><time>2026-05-01T14:17:14.999Z</time></trkpt><trkpt lat="46.007658696054825" lon="11.931092046417595"><ele>236.0</ele><time>2026-05-01T14:17:15.999Z</time></trkpt><trkpt lat="46.00755682612871" lon="11.931278793434664"><ele>236.0</ele><time>2026-05-01T14:17:16.999Z</time></trkpt><trkpt lat="46.007454825723805" lon="11.931465452547389"><ele>235.33333333333334</ele><time>2026-05-01T14:17:17.999Z</time></trkpt><trkpt lat="46.00735630866747" lon="11.931645737200078"><ele>234.66666666666669</ele><time>2026-05-01T14:17:18.999Z</time></trkpt><trkpt lat="46.007260088120326" lon="11.931821819289068"><ele>234.0</ele><time>2026-05-01T14:17:19.999Z</time></trkpt><trkpt lat="46.00716074993619" lon="11.932004399760592"><ele>234.0</ele><time>2026-05-01T14:17:20.999Z</time></trkpt><trkpt lat="46.00705659325155" lon="11.932195873967402"><ele>234.0</ele><time>2026-05-01T14:17:21.999Z</time></trkpt><trkpt lat="46.0069459534452" lon="11.932399266495338"><ele>234.0</ele><time>2026-05-01T14:17:22.999Z</time></trkpt><trkpt lat="46.0068135195293" lon="11.932642723779999"><ele>233.0</ele><time>2026-05-01T14:17:23.999Z</time></trkpt><trkpt lat="46.00664091966441" lon="11.932960019136672"><ele>232.0</ele><time>2026-05-01T14:17:24.999Z</time></trkpt><trkpt lat="46.0064518149942" lon="11.933307394179943"><ele>232.5</ele><time>2026-05-01T14:17:25.999Z</time></trkpt><trkpt lat="46.00625483467037" lon="11.93366821832078"><ele>233.0</ele><time>2026-05-01T14:17:26.999Z</time></trkpt><trkpt lat="46.006083444114445" lon="11.934021690758417"><ele>233.0</ele><time>2026-05-01T14:17:27.999Z</time></trkpt><trkpt lat="46.00589874758116" lon="11.934359415290508"><ele>233.0</ele><time>2026-05-01T14:17:28.999Z</time></trkpt><trkpt lat="46.00572044067229" lon="11.934682711098278"><ele>233.5</ele><time>2026-05-01T14:17:29.999Z</time></trkpt><trkpt lat="46.00555293667203" lon="11.934988827868874"><ele>234.0</ele><time>2026-05-01T14:17:30.999Z</time></trkpt><trkpt lat="46.005396107552464" lon="11.935282771008488"><ele>232.5</ele><time>2026-05-01T14:17:31.999Z</time></trkpt><trkpt lat="46.00524573076222" lon="11.935570269426325"><ele>231.0</ele><time>2026-05-01T14:17:32.999Z</time></trkpt><trkpt lat="46.00510812823741" lon="11.93584846941307"><ele>231.0</ele><time>2026-05-01T14:17:33.999Z</time></trkpt><trkpt lat="46.00498482066935" lon="11.93612437273831"><ele>231.0</ele><time>2026-05-01T14:17:35Z</time></trkpt><trkpt lat="46.00487513960155" lon="11.936388495077496"><ele>231.0</ele><time>2026-05-01T14:17:36Z</time></trkpt><trkpt lat="46.00476123040868" lon="11.936631395592487"><ele>231.0</ele><time>2026-05-01T14:17:37Z</time></trkpt><trkpt lat="46.00463658735339" lon="11.936841700095044"><ele>231.0</ele><time>2026-05-01T14:17:38Z</time></trkpt><trkpt lat="46.00449092466611" lon="11.937018415100152"><ele>231.0</ele><time>2026-05-01T14:17:39Z</time></trkpt><trkpt lat="46.004314844816086" lon="11.937160781939403"><ele>230.33333333333331</ele><time>2026-05-01T14:17:40Z</time></trkpt><trkpt lat="46.00411604989722" lon="11.937284282050694"><ele>229.66666666666666</ele><time>2026-05-01T14:17:41Z</time></trkpt><trkpt lat="46.003907711401155" lon="11.937407962215882"><ele>229.0</ele><time>2026-05-01T14:17:42Z</time></trkpt><trkpt lat="46.00368691600367" lon="11.937541985403662"><ele>231.0</ele><time>2026-05-01T14:17:43Z</time></trkpt><trkpt lat="46.003464346902526" lon="11.937681495257863"><ele>233.0</ele><time>2026-05-01T14:17:44Z</time></trkpt><trkpt lat="46.003236136644965" lon="11.937820848469183"><ele>235.5</ele><time>2026-05-01T14:17:45Z</time></trkpt><trkpt lat="46.00300160491931" lon="11.937959638552682"><ele>238.0</ele><time>2026-05-01T14:17:46Z</time></trkpt><trkpt lat="46.002761337601726" lon="11.938093697481909"><ele>238.0</ele><time>2026-05-01T14:17:47Z</time></trkpt><trkpt lat="46.00251723010895" lon="11.938226615511335"><ele>238.0</ele><time>2026-05-01T14:17:48Z</time></trkpt><trkpt lat="46.002276049492956" lon="11.93835957296209"><ele>243.0</ele><time>2026-05-01T14:17:49Z</time></trkpt><trkpt lat="46.00204250675143" lon="11.9384888441075"><ele>248.0</ele><time>2026-05-01T14:17:50Z</time></trkpt><trkpt lat="46.00181566690219" lon="11.938608196502678"><ele>241.66666666666669</ele><time>2026-05-01T14:17:51Z</time></trkpt><trkpt lat="46.0016024594261" lon="11.938724679664308"><ele>235.33333333333331</ele><time>2026-05-01T14:17:52Z</time></trkpt><trkpt lat="46.001398806345684" lon="11.938840164078528"><ele>229.0</ele><time>2026-05-01T14:17:53Z</time></trkpt><trkpt lat="46.001197311262594" lon="11.938951469880193"><ele>229.0</ele><time>2026-05-01T14:17:54Z</time></trkpt><trkpt lat="46.00100060209289" lon="11.939060467324085"><ele>229.0</ele><time>2026-05-01T14:17:55Z</time></trkpt><trkpt lat="46.00080935200837" lon="11.939168989012169"><ele>229.0</ele><time>2026-05-01T14:17:56Z</time></trkpt><trkpt lat="46.00063005841067" lon="11.939285393128813"><ele>229.33333333333331</ele><time>2026-05-01T14:17:57Z</time></trkpt><trkpt lat="46.00045003577027" lon="11.939407428250798"><ele>229.66666666666669</ele><time>2026-05-01T14:17:58Z</time></trkpt><trkpt lat="46.00027912970053" lon="11.939551745945021"><ele>230.0</ele><time>2026-05-01T14:17:59Z</time></trkpt><trkpt lat="46.0001225676661" lon="11.939711125018867"><ele>230.0</ele><time>2026-05-01T14:18:00Z</time></trkpt><trkpt lat="45.99998483035719" lon="11.939897209773122"><ele>230.0</ele><time>2026-05-01T14:18:00.999Z</time></trkpt><trkpt lat="45.99986886870013" lon="11.940110301882763"><ele>230.0</ele><time>2026-05-01T14:18:01.999Z</time></trkpt><trkpt lat="45.99977732354233" lon="11.940346822599391"><ele>231.33333333333334</ele><time>2026-05-01T14:18:02.999Z</time></trkpt><trkpt lat="45.999697455668" lon="11.940587287407663"><ele>232.66666666666669</ele><time>2026-05-01T14:18:03.999Z</time></trkpt><trkpt lat="45.999630889529875" lon="11.94082687928766"><ele>234.0</ele><time>2026-05-01T14:18:04.999Z</time></trkpt><trkpt lat="45.99956546236742" lon="11.941062362899444"><ele>234.0</ele><time>2026-05-01T14:18:05.999Z</time></trkpt><trkpt lat="45.99951135134099" lon="11.941292503711294"><ele>234.0</ele><time>2026-05-01T14:18:06.999Z</time></trkpt><trkpt lat="45.999714294991904" lon="11.941652784163931"><ele>232.66666666666669</ele><time>2026-05-01T14:18:07.999Z</time></trkpt><trkpt lat="45.99978140935464" lon="11.94191746001372"><ele>231.33333333333334</ele><time>2026-05-01T14:18:08.999Z</time></trkpt><trkpt lat="45.999873761884196" lon="11.942166614152471"><ele>230.0</ele><time>2026-05-01T14:18:09.999Z</time></trkpt><trkpt lat="45.999990846816296" lon="11.942394606906003"><ele>229.33333333333334</ele><time>2026-05-01T14:18:10.999Z</time></trkpt><trkpt lat="46.000123402476916" lon="11.942600352926092"><ele>228.66666666666669</ele><time>2026-05-01T14:18:11.999Z</time></trkpt><trkpt lat="46.000254317751946" lon="11.942798888382953"><ele>228.0</ele><time>2026-05-01T14:18:12.999Z</time></trkpt><trkpt lat="46.000383770579546" lon="11.94298085484681"><ele>228.0</ele><time>2026-05-01T14:18:13.999Z</time></trkpt><trkpt lat="46.00050838520204" lon="11.943157943681628"><ele>228.0</ele><time>2026-05-01T14:18:14.999Z</time></trkpt><trkpt lat="46.0006239824489" lon="11.943335816153716"><ele>228.0</ele><time>2026-05-01T14:18:15.999Z</time></trkpt><trkpt lat="46.00072802355731" lon="11.943514210945802"><ele>228.33333333333331</ele><time>2026-05-01T14:18:16.999Z</time></trkpt><trkpt lat="46.00082044122907" lon="11.943698318077889"><ele>228.66666666666666</ele><time>2026-05-01T14:18:17.999Z</time></trkpt><trkpt lat="46.000896883616484" lon="11.943887396529057"><ele>229.0</ele><time>2026-05-01T14:18:18.999Z</time></trkpt><trkpt lat="46.00096073547042" lon="11.944079044680807"><ele>228.0</ele><time>2026-05-01T14:18:19.999Z</time></trkpt><trkpt lat="46.00100762371558" lon="11.944276830750834"><ele>227.0</ele><time>2026-05-01T14:18:20.999Z</time></trkpt><trkpt lat="46.00104262716886" lon="11.944479788539919"><ele>226.0</ele><time>2026-05-01T14:18:21.999Z</time></trkpt><trkpt lat="46.00105667413989" lon="11.944687133945074"><ele>225.0</ele><time>2026-05-01T14:18:22.999Z</time></trkpt><trkpt lat="46.00105080799452" lon="11.94489844631333"><ele>225.0</ele><time>2026-05-01T14:18:23.999Z</time></trkpt><trkpt lat="46.00103110410103" lon="11.945114218103908"><ele>225.0</ele><time>2026-05-01T14:18:24.999Z</time></trkpt><trkpt lat="46.00100929447034" lon="11.945339098242105"><ele>225.0</ele><time>2026-05-01T14:18:25.999Z</time></trkpt><trkpt lat="46.00098866630476" lon="11.945572285767048"><ele>225.0</ele><time>2026-05-01T14:18:26.999Z</time></trkpt><trkpt lat="46.00095853323652" lon="11.94581224808133"><ele>225.0</ele><time>2026-05-01T14:18:27.999Z</time></trkpt><trkpt lat="46.000914878663366" lon="11.946052852121683"><ele>225.0</ele><time>2026-05-01T14:18:28.999Z</time></trkpt><trkpt lat="46.000855787366696" lon="11.946293547914854"><ele>225.66666666666669</ele><time>2026-05-01T14:18:29.999Z</time></trkpt><trkpt lat="46.00077548436477" lon="11.946531465107343"><ele>226.33333333333334</ele><time>2026-05-01T14:18:30.999Z</time></trkpt><trkpt lat="46.0006824227546" lon="11.946767485024827"><ele>227.0</ele><time>2026-05-01T14:18:31.999Z</time></trkpt><trkpt lat="46.000581897685855" lon="11.946995560315608"><ele>227.0</ele><time>2026-05-01T14:18:32.999Z</time></trkpt><trkpt lat="46.00048933649315" lon="11.947212428440649"><ele>227.0</ele><time>2026-05-01T14:18:33.999Z</time></trkpt><trkpt lat="46.00040856008177" lon="11.947405632895682"><ele>227.0</ele><time>2026-05-01T14:18:34.999Z</time></trkpt><trkpt lat="46.00033258437059" lon="11.947579630543068"><ele>226.5</ele><time>2026-05-01T14:18:35.999Z</time></trkpt><trkpt lat="46.00025059548543" lon="11.947742655842765"><ele>226.0</ele><time>2026-05-01T14:18:36.999Z</time></trkpt><trkpt lat="46.00014487947784" lon="11.947886718390064"><ele>225.5</ele><time>2026-05-01T14:18:37.999Z</time></trkpt><trkpt lat="46.00001896763425" lon="11.94801098574058"><ele>225.0</ele><time>2026-05-01T14:18:38.999Z</time></trkpt><trkpt lat="45.9998708629953" lon="11.948112701570821"><ele>225.0</ele><time>2026-05-01T14:18:39.999Z</time></trkpt><trkpt lat="45.99971321364834" lon="11.948204940090912"><ele>225.0</ele><time>2026-05-01T14:18:40.999Z</time></trkpt><trkpt lat="45.99954580248602" lon="11.94828244178363"><ele>225.0</ele><time>2026-05-01T14:18:41.999Z</time></trkpt><trkpt lat="45.99937261835213" lon="11.948339614044999"><ele>225.0</ele><time>2026-05-01T14:18:42.999Z</time></trkpt><trkpt lat="45.999197850391454" lon="11.948364152149948"><ele>225.0</ele><time>2026-05-01T14:18:43.999Z</time></trkpt><trkpt lat="45.99902572298611" lon="11.948371850895475"><ele>225.0</ele><time>2026-05-01T14:18:44.999Z</time></trkpt><trkpt lat="45.99885520897184" lon="11.948369690147365"><ele>225.33333333333331</ele><time>2026-05-01T14:18:45.999Z</time></trkpt><trkpt lat="45.998680818401596" lon="11.948366678213155"><ele>225.66666666666666</ele><time>2026-05-01T14:18:46.999Z</time></trkpt><trkpt lat="45.9985068105856" lon="11.948364804399672"><ele>226.0</ele><time>2026-05-01T14:18:47.999Z</time></trkpt><trkpt lat="45.99833298671965" lon="11.948365857774723"><ele>224.33333333333331</ele><time>2026-05-01T14:18:48.999Z</time></trkpt><trkpt lat="45.9981556176015" lon="11.948379013633643"><ele>222.66666666666669</ele><time>2026-05-01T14:18:49.999Z</time></trkpt><trkpt lat="45.99797914931982" lon="11.94839910041394"><ele>221.0</ele><time>2026-05-01T14:18:50.999Z</time></trkpt><trkpt lat="45.99780537317774" lon="11.948415653066695"><ele>221.0</ele><time>2026-05-01T14:18:51.999Z</time></trkpt><trkpt lat="45.997636339608874" lon="11.948430983321522"><ele>221.0</ele><time>2026-05-01T14:18:52.999Z</time></trkpt><trkpt lat="45.99746370964161" lon="11.948446126901931"><ele>221.0</ele><time>2026-05-01T14:18:53.999Z</time></trkpt><trkpt lat="45.99728425408136" lon="11.948462409034251"><ele>221.33333333333334</ele><time>2026-05-01T14:18:54.999Z</time></trkpt><trkpt lat="45.997098055984246" lon="11.94848219721109"><ele>221.66666666666669</ele><time>2026-05-01T14:18:55.999Z</time></trkpt><trkpt lat="45.99691966318959" lon="11.948500386244785"><ele>222.0</ele><time>2026-05-01T14:18:56.999Z</time></trkpt><trkpt lat="45.996739208454095" lon="11.94852022336565"><ele>221.66666666666669</ele><time>2026-05-01T14:18:57.999Z</time></trkpt><trkpt lat="45.996555159899735" lon="11.948551574273907"><ele>221.33333333333334</ele><time>2026-05-01T14:18:58.999Z</time></trkpt><trkpt lat="45.9963706338368" lon="11.948595904678234"><ele>221.0</ele><time>2026-05-01T14:18:59.999Z</time></trkpt><trkpt lat="45.99618795401187" lon="11.948651220732"><ele>221.0</ele><time>2026-05-01T14:19:00.999Z</time></trkpt><trkpt lat="45.99600248371887" lon="11.948721923876093"><ele>221.0</ele><time>2026-05-01T14:19:01.999Z</time></trkpt><trkpt lat="45.99581574675814" lon="11.948809321254677"><ele>221.0</ele><time>2026-05-01T14:19:02.999Z</time></trkpt><trkpt lat="45.995628371953885" lon="11.948910825600684"><ele>220.33333333333334</ele><time>2026-05-01T14:19:03.999Z</time></trkpt><trkpt lat="45.99544252063283" lon="11.949020849908736"><ele>219.66666666666669</ele><time>2026-05-01T14:19:04.999Z</time></trkpt><trkpt lat="45.99525942312218" lon="11.949135848286508"><ele>219.0</ele><time>2026-05-01T14:19:05.999Z</time></trkpt><trkpt lat="45.995079961223624" lon="11.949249044307003"><ele>219.33333333333331</ele><time>2026-05-01T14:19:06.999Z</time></trkpt><trkpt lat="45.994903280885275" lon="11.949365154019754"><ele>219.66666666666666</ele><time>2026-05-01T14:19:07.999Z</time></trkpt><trkpt lat="45.994730262376365" lon="11.949486167731344"><ele>220.0</ele><time>2026-05-01T14:19:08.999Z</time></trkpt><trkpt lat="45.99456285768538" lon="11.949625853751664"><ele>220.0</ele><time>2026-05-01T14:19:09.999Z</time></trkpt><trkpt lat="45.994400862331396" lon="11.949783867909696"><ele>220.0</ele><time>2026-05-01T14:19:10.999Z</time></trkpt><trkpt lat="45.9942459804175" lon="11.949954298244167"><ele>220.0</ele><time>2026-05-01T14:19:11.999Z</time></trkpt><trkpt lat="45.9940951400523" lon="11.950132103721002"><ele>219.33333333333331</ele><time>2026-05-01T14:19:12.999Z</time></trkpt><trkpt lat="45.99394620906316" lon="11.95031336570996"><ele>218.66666666666669</ele><time>2026-05-01T14:19:13.999Z</time></trkpt><trkpt lat="45.99380065716844" lon="11.950489072497097"><ele>218.0</ele><time>2026-05-01T14:19:14.999Z</time></trkpt><trkpt lat="45.99365741677049" lon="11.95066449381939"><ele>218.0</ele><time>2026-05-01T14:19:15.999Z</time></trkpt><trkpt lat="45.99351502560137" lon="11.950834437797178"><ele>218.0</ele><time>2026-05-01T14:19:16.999Z</time></trkpt><trkpt lat="45.993372683600654" lon="11.950999148711126"><ele>218.0</ele><time>2026-05-01T14:19:17.999Z</time></trkpt><trkpt lat="45.99322074730871" lon="11.95113036059358"><ele>217.33333333333334</ele><time>2026-05-01T14:19:18.999Z</time></trkpt><trkpt lat="45.9930803216361" lon="11.951273427048715"><ele>216.66666666666669</ele><time>2026-05-01T14:19:19.999Z</time></trkpt><trkpt lat="45.99294401532771" lon="11.951410153080472"><ele>216.0</ele><time>2026-05-01T14:19:20.999Z</time></trkpt><trkpt lat="45.992809721931046" lon="11.951546546920408"><ele>216.0</ele><time>2026-05-01T14:19:21.999Z</time></trkpt><trkpt lat="45.992677523757976" lon="11.951684240117237"><ele>216.0</ele><time>2026-05-01T14:19:22.999Z</time></trkpt><trkpt lat="45.99254607103392" lon="11.951818734622"><ele>216.0</ele><time>2026-05-01T14:19:23.999Z</time></trkpt><trkpt lat="45.9924149414238" lon="11.951951251636041"><ele>216.33333333333331</ele><time>2026-05-01T14:19:24.999Z</time></trkpt><trkpt lat="45.992287226273575" lon="11.952094985446712"><ele>216.66666666666666</ele><time>2026-05-01T14:19:25.999Z</time></trkpt><trkpt lat="45.99214962005752" lon="11.952213402961645"><ele>217.0</ele><time>2026-05-01T14:19:26.999Z</time></trkpt><trkpt lat="45.9920073009853" lon="11.952324451364401"><ele>217.0</ele><time>2026-05-01T14:19:27.999Z</time></trkpt><trkpt lat="45.99186488891521" lon="11.95243030995812"><ele>217.0</ele><time>2026-05-01T14:19:28.999Z</time></trkpt><trkpt lat="45.99172045827161" lon="11.95253315613987"><ele>217.0</ele><time>2026-05-01T14:19:29.999Z</time></trkpt><trkpt lat="45.99157721977752" lon="11.952631283117965"><ele>216.0</ele><time>2026-05-01T14:19:30.999Z</time></trkpt><trkpt lat="45.99143635188742" lon="11.95272464234588"><ele>215.0</ele><time>2026-05-01T14:19:31.999Z</time></trkpt><trkpt lat="45.991298763020644" lon="11.952815938327143"><ele>214.0</ele><time>2026-05-01T14:19:32.999Z</time></trkpt><trkpt lat="45.99115349989771" lon="11.95290751318772"><ele>214.0</ele><time>2026-05-01T14:19:33.999Z</time></trkpt><trkpt lat="45.99100718540265" lon="11.952987885281615"><ele>214.0</ele><time>2026-05-01T14:19:34.999Z</time></trkpt><trkpt lat="45.990848913177565" lon="11.953053857550898"><ele>214.0</ele><time>2026-05-01T14:19:35.999Z</time></trkpt><trkpt lat="45.99068167059891" lon="11.953102948436017"><ele>215.0</ele><time>2026-05-01T14:19:36.999Z</time></trkpt><trkpt lat="45.9905127851538" lon="11.953141976894175"><ele>216.0</ele><time>2026-05-01T14:19:37.999Z</time></trkpt><trkpt lat="45.990347008540965" lon="11.953168057024042"><ele>217.0</ele><time>2026-05-01T14:19:38.999Z</time></trkpt><trkpt lat="45.99019034453541" lon="11.953186818422608"><ele>217.0</ele><time>2026-05-01T14:19:40Z</time></trkpt><trkpt lat="45.9900305513794" lon="11.953212822019204"><ele>217.0</ele><time>2026-05-01T14:19:41Z</time></trkpt><trkpt lat="45.98987245983291" lon="11.953258037677505"><ele>217.0</ele><time>2026-05-01T14:19:42Z</time></trkpt><trkpt lat="45.98971317001686" lon="11.953299582602295"><ele>215.0</ele><time>2026-05-01T14:19:43Z</time></trkpt><trkpt lat="45.98956423434643" lon="11.953380255512261"><ele>213.0</ele><time>2026-05-01T14:19:44Z</time></trkpt><trkpt lat="45.98942449425679" lon="11.95350053280781"><ele>211.0</ele><time>2026-05-01T14:19:45Z</time></trkpt><trkpt lat="45.98927440957923" lon="11.953600743064111"><ele>211.33333333333331</ele><time>2026-05-01T14:19:46Z</time></trkpt><trkpt lat="45.989124575658465" lon="11.953695390229283"><ele>211.66666666666669</ele><time>2026-05-01T14:19:47Z</time></trkpt><trkpt lat="45.98897816308778" lon="11.953778711721252"><ele>212.0</ele><time>2026-05-01T14:19:48Z</time></trkpt><trkpt lat="45.98883032314317" lon="11.953861102490755"><ele>212.0</ele><time>2026-05-01T14:19:49Z</time></trkpt><trkpt lat="45.988678474827594" lon="11.95391839122219"><ele>212.0</ele><time>2026-05-01T14:19:50Z</time></trkpt><trkpt lat="45.988520378294034" lon="11.953945526178945"><ele>212.0</ele><time>2026-05-01T14:19:51Z</time></trkpt><trkpt lat="45.988362108482455" lon="11.953957437667762"><ele>212.75</ele><time>2026-05-01T14:19:52Z</time></trkpt><trkpt lat="45.988216240818794" lon="11.953964613866003"><ele>213.5</ele><time>2026-05-01T14:19:53Z</time></trkpt><trkpt lat="45.98807404791675" lon="11.95397277537867"><ele>214.25</ele><time>2026-05-01T14:19:54Z</time></trkpt><trkpt lat="45.98793437289124" lon="11.953951068380064"><ele>215.0</ele><time>2026-05-01T14:19:55Z</time></trkpt><trkpt lat="45.98779462129891" lon="11.953945230053112"><ele>215.0</ele><time>2026-05-01T14:19:56Z</time></trkpt><trkpt lat="45.98764196481836" lon="11.953939176691616"><ele>215.0</ele><time>2026-05-01T14:19:57Z</time></trkpt><trkpt lat="45.987483692282844" lon="11.953879056099865"><ele>215.0</ele><time>2026-05-01T14:19:58Z</time></trkpt><trkpt lat="45.98733142864219" lon="11.953802422431334"><ele>213.66666666666669</ele><time>2026-05-01T14:19:59Z</time></trkpt><trkpt lat="45.98719191961067" lon="11.953692484624655"><ele>212.33333333333331</ele><time>2026-05-01T14:20:00Z</time></trkpt><trkpt lat="45.987049643038794" lon="11.953602746123273"><ele>211.0</ele><time>2026-05-01T14:20:01Z</time></trkpt><trkpt lat="45.98691045596461" lon="11.953516965356101"><ele>211.0</ele><time>2026-05-01T14:20:02Z</time></trkpt><trkpt lat="45.98676106901256" lon="11.953454504476664"><ele>211.0</ele><time>2026-05-01T14:20:03Z</time></trkpt><trkpt lat="45.98659989264698" lon="11.953423380460059"><ele>211.0</ele><time>2026-05-01T14:20:04Z</time></trkpt><trkpt lat="45.98643855099855" lon="11.953421750206894"><ele>210.66666666666666</ele><time>2026-05-01T14:20:05Z</time></trkpt><trkpt lat="45.986282183760544" lon="11.953432674705233"><ele>210.33333333333331</ele><time>2026-05-01T14:20:06Z</time></trkpt><trkpt lat="45.98612928364554" lon="11.953439814473564"><ele>210.0</ele><time>2026-05-01T14:20:06.999Z</time></trkpt><trkpt lat="45.98597867986696" lon="11.953441823017046"><ele>209.5</ele><time>2026-05-01T14:20:07.999Z</time></trkpt><trkpt lat="45.98582963116622" lon="11.953432889077588"><ele>209.0</ele><time>2026-05-01T14:20:08.999Z</time></trkpt><trkpt lat="45.985679302903925" lon="11.953414548198198"><ele>208.5</ele><time>2026-05-01T14:20:09.999Z</time></trkpt><trkpt lat="45.98553317177" lon="11.953394379776952"><ele>208.0</ele><time>2026-05-01T14:20:10.999Z</time></trkpt><trkpt lat="45.98540048393171" lon="11.953374091125808"><ele>209.5</ele><time>2026-05-01T14:20:11.999Z</time></trkpt><trkpt lat="45.98527580076736" lon="11.953355026424106"><ele>211.0</ele><time>2026-05-01T14:20:12.999Z</time></trkpt><trkpt lat="45.98516095857075" lon="11.953335552108781"><ele>212.5</ele><time>2026-05-01T14:20:13.999Z</time></trkpt><trkpt lat="45.985043704177386" lon="11.953306516725346"><ele>214.0</ele><time>2026-05-01T14:20:14.999Z</time></trkpt><trkpt lat="45.9849179442222" lon="11.953253195019235"><ele>214.0</ele><time>2026-05-01T14:20:15.999Z</time></trkpt><trkpt lat="45.984801675036984" lon="11.95317188954593"><ele>214.0</ele><time>2026-05-01T14:20:16.999Z</time></trkpt><trkpt lat="45.98469338530888" lon="11.953068034427158"><ele>214.0</ele><time>2026-05-01T14:20:17.999Z</time></trkpt><trkpt lat="45.9845951601884" lon="11.952955418143954"><ele>214.0</ele><time>2026-05-01T14:20:18.999Z</time></trkpt><trkpt lat="45.98449307052429" lon="11.95283371611312"><ele>214.0</ele><time>2026-05-01T14:20:19.999Z</time></trkpt><trkpt lat="45.984372306259715" lon="11.952689700412844"><ele>214.0</ele><time>2026-05-01T14:20:20.999Z</time></trkpt><trkpt lat="45.98423674556296" lon="11.95252702747812"><ele>214.0</ele><time>2026-05-01T14:20:21.999Z</time></trkpt><trkpt lat="45.98408352069325" lon="11.952343859024209"><ele>214.0</ele><time>2026-05-01T14:20:22.999Z</time></trkpt><trkpt lat="45.983910339449665" lon="11.952161640901771"><ele>214.0</ele><time>2026-05-01T14:20:23.999Z</time></trkpt><trkpt lat="45.983760468221135" lon="11.95196579683711"><ele>214.0</ele><time>2026-05-01T14:20:24.999Z</time></trkpt><trkpt lat="45.983616541969646" lon="11.951784471954687"><ele>213.33333333333331</ele><time>2026-05-01T14:20:25.999Z</time></trkpt><trkpt lat="45.98347430728719" lon="11.951611670525198"><ele>212.66666666666669</ele><time>2026-05-01T14:20:26.999Z</time></trkpt><trkpt lat="45.983336025534626" lon="11.951436669542762"><ele>212.0</ele><time>2026-05-01T14:20:27.999Z</time></trkpt><trkpt lat="45.98320582126378" lon="11.95125466313144"><ele>212.0</ele><time>2026-05-01T14:20:28.999Z</time></trkpt><trkpt lat="45.98308001033306" lon="11.951063817432324"><ele>212.0</ele><time>2026-05-01T14:20:29.999Z</time></trkpt><trkpt lat="45.98296086190114" lon="11.95086938395096"><ele>212.0</ele><time>2026-05-01T14:20:30.999Z</time></trkpt><trkpt lat="45.98284672286911" lon="11.95067682008562"><ele>219.0</ele><time>2026-05-01T14:20:31.999Z</time></trkpt><trkpt lat="45.98274256540136" lon="11.950482325876171"><ele>226.0</ele><time>2026-05-01T14:20:32.999Z</time></trkpt><trkpt lat="45.982644612499804" lon="11.950280490434292"><ele>233.0</ele><time>2026-05-01T14:20:33.999Z</time></trkpt><trkpt lat="45.982549981495886" lon="11.950075339150436"><ele>226.66666666666669</ele><time>2026-05-01T14:20:34.999Z</time></trkpt><trkpt lat="45.98246294209106" lon="11.949860811310547"><ele>220.33333333333331</ele><time>2026-05-01T14:20:35.999Z</time></trkpt><trkpt lat="45.98239376934671" lon="11.94961401127785"><ele>214.0</ele><time>2026-05-01T14:20:36.999Z</time></trkpt><trkpt lat="45.9823016580439" lon="11.949350478810656"><ele>220.5</ele><time>2026-05-01T14:20:37.999Z</time></trkpt><trkpt lat="45.98219968260449" lon="11.949059358555669"><ele>227.0</ele><time>2026-05-01T14:20:38.999Z</time></trkpt><trkpt lat="45.98209150074218" lon="11.948751652535647"><ele>227.0</ele><time>2026-05-01T14:20:39.999Z</time></trkpt><trkpt lat="45.98198921974819" lon="11.948462612745654"><ele>227.0</ele><time>2026-05-01T14:20:40.999Z</time></trkpt><trkpt lat="45.98188728470224" lon="11.948220358549094"><ele>227.0</ele><time>2026-05-01T14:20:41.999Z</time></trkpt><trkpt lat="45.98180557252292" lon="11.947989517621858"><ele>223.0</ele><time>2026-05-01T14:20:42.999Z</time></trkpt><trkpt lat="45.98172861992633" lon="11.947770825659333"><ele>219.0</ele><time>2026-05-01T14:20:43.999Z</time></trkpt><trkpt lat="45.981657849186924" lon="11.947565001213238"><ele>215.0</ele><time>2026-05-01T14:20:44.999Z</time></trkpt><trkpt lat="45.98158627137277" lon="11.947368736622584"><ele>215.0</ele><time>2026-05-01T14:20:45.999Z</time></trkpt><trkpt lat="45.98151351227025" lon="11.947169908561046"><ele>215.0</ele><time>2026-05-01T14:20:46.999Z</time></trkpt><trkpt lat="45.9814328930053" lon="11.946961659961474"><ele>215.0</ele><time>2026-05-01T14:20:47.999Z</time></trkpt><trkpt lat="45.98134600688735" lon="11.946750580982116"><ele>219.0</ele><time>2026-05-01T14:20:48.999Z</time></trkpt><trkpt lat="45.98125334489083" lon="11.946545631172546"><ele>223.0</ele><time>2026-05-01T14:20:49.999Z</time></trkpt><trkpt lat="45.981150623727366" lon="11.946342796187986"><ele>227.0</ele><time>2026-05-01T14:20:50.999Z</time></trkpt><trkpt lat="45.98106004693048" lon="11.94612971838028"><ele>227.0</ele><time>2026-05-01T14:20:51.999Z</time></trkpt><trkpt lat="45.98094646264792" lon="11.945922802343299"><ele>227.0</ele><time>2026-05-01T14:20:52.999Z</time></trkpt><trkpt lat="45.98081698490853" lon="11.94570168371641"><ele>227.0</ele><time>2026-05-01T14:20:53.999Z</time></trkpt><trkpt lat="45.98067448189659" lon="11.945474599642782"><ele>225.5</ele><time>2026-05-01T14:20:54.999Z</time></trkpt><trkpt lat="45.98052003597377" lon="11.945240833835395"><ele>224.0</ele><time>2026-05-01T14:20:55.999Z</time></trkpt><trkpt lat="45.98035771493101" lon="11.945004696774102"><ele>224.0</ele><time>2026-05-01T14:20:56.999Z</time></trkpt><trkpt lat="45.980189725709174" lon="11.944762918533215"><ele>224.0</ele><time>2026-05-01T14:20:57.999Z</time></trkpt><trkpt lat="45.980025065257884" lon="11.944526056244014"><ele>220.33333333333334</ele><time>2026-05-01T14:20:58.999Z</time></trkpt><trkpt lat="45.97984920047971" lon="11.944322200275186"><ele>216.66666666666669</ele><time>2026-05-01T14:20:59.999Z</time></trkpt><trkpt lat="45.97969364371728" lon="11.944099492342042"><ele>213.0</ele><time>2026-05-01T14:21:00.999Z</time></trkpt><trkpt lat="45.979535122305165" lon="11.943877270217738"><ele>213.0</ele><time>2026-05-01T14:21:01.999Z</time></trkpt><trkpt lat="45.97937707648322" lon="11.943649488353868"><ele>213.0</ele><time>2026-05-01T14:21:02.999Z</time></trkpt><trkpt lat="45.979235375054195" lon="11.943386103010612"><ele>212.0</ele><time>2026-05-01T14:21:03.999Z</time></trkpt><trkpt lat="45.97906826016109" lon="11.943143724390955"><ele>211.0</ele><time>2026-05-01T14:21:04.999Z</time></trkpt><trkpt lat="45.97887543554796" lon="11.94292397501836"><ele>211.0</ele><time>2026-05-01T14:21:05.999Z</time></trkpt><trkpt lat="45.978704378276255" lon="11.942676082016474"><ele>211.0</ele><time>2026-05-01T14:21:06.999Z</time></trkpt><trkpt lat="45.97853999176241" lon="11.942432266295658"><ele>210.0</ele><time>2026-05-01T14:21:07.999Z</time></trkpt><trkpt lat="45.9783773077369" lon="11.942191777689247"><ele>209.0</ele><time>2026-05-01T14:21:08.999Z</time></trkpt><trkpt lat="45.97820856019002" lon="11.941949917250893"><ele>211.5</ele><time>2026-05-01T14:21:09.999Z</time></trkpt><trkpt lat="45.97803908189134" lon="11.941708934622538"><ele>214.0</ele><time>2026-05-01T14:21:10.999Z</time></trkpt><trkpt lat="45.97789701408992" lon="11.941449116771167"><ele>214.0</ele><time>2026-05-01T14:21:11.999Z</time></trkpt><trkpt lat="45.977747604892144" lon="11.941236450330232"><ele>214.0</ele><time>2026-05-01T14:21:12.999Z</time></trkpt><trkpt lat="45.977611676772554" lon="11.941039151822135"><ele>214.0</ele><time>2026-05-01T14:21:13.999Z</time></trkpt><trkpt lat="45.977487766285336" lon="11.940859322992326"><ele>211.33333333333331</ele><time>2026-05-01T14:21:14.999Z</time></trkpt><trkpt lat="45.97736586401344" lon="11.940682436517818"><ele>208.66666666666669</ele><time>2026-05-01T14:21:15.999Z</time></trkpt><trkpt lat="45.97724465692941" lon="11.940508696430115"><ele>206.0</ele><time>2026-05-01T14:21:16.999Z</time></trkpt><trkpt lat="45.977113137438174" lon="11.940349868190056"><ele>206.0</ele><time>2026-05-01T14:21:17.999Z</time></trkpt><trkpt lat="45.97698289424834" lon="11.940166528525516"><ele>206.0</ele><time>2026-05-01T14:21:18.999Z</time></trkpt><trkpt lat="45.97685627714342" lon="11.939952801383889"><ele>206.0</ele><time>2026-05-01T14:21:19.999Z</time></trkpt><trkpt lat="45.976704901523554" lon="11.939733497834004"><ele>205.66666666666669</ele><time>2026-05-01T14:21:20.999Z</time></trkpt><trkpt lat="45.97654486868791" lon="11.93950098792389"><ele>205.33333333333331</ele><time>2026-05-01T14:21:21.999Z</time></trkpt><trkpt lat="45.976382648390434" lon="11.939290116101382"><ele>205.0</ele><time>2026-05-01T14:21:22.999Z</time></trkpt><trkpt lat="45.97624596016375" lon="11.939090995636812"><ele>206.0</ele><time>2026-05-01T14:21:23.999Z</time></trkpt><trkpt lat="45.97612089878994" lon="11.938910276246919"><ele>207.0</ele><time>2026-05-01T14:21:24.999Z</time></trkpt><trkpt lat="45.97600900695695" lon="11.938750605634267"><ele>208.0</ele><time>2026-05-01T14:21:25.999Z</time></trkpt><trkpt lat="45.97590708388769" lon="11.938600685806366"><ele>207.25</ele><time>2026-05-01T14:21:26.999Z</time></trkpt><trkpt lat="45.97581101067013" lon="11.938457845497972"><ele>206.5</ele><time>2026-05-01T14:21:27.999Z</time></trkpt><trkpt lat="45.97571746552381" lon="11.93831745265702"><ele>205.75</ele><time>2026-05-01T14:21:28.999Z</time></trkpt><trkpt lat="45.97562916663382" lon="11.938192243945892"><ele>205.0</ele><time>2026-05-01T14:21:29.999Z</time></trkpt><trkpt lat="45.97552898920096" lon="11.938065739437231"><ele>207.75</ele><time>2026-05-01T14:21:30.999Z</time></trkpt><trkpt lat="45.97542301740615" lon="11.937953657985211"><ele>210.5</ele><time>2026-05-01T14:21:31.999Z</time></trkpt><trkpt lat="45.975308039825585" lon="11.937858764965947"><ele>213.25</ele><time>2026-05-01T14:21:32.999Z</time></trkpt><trkpt lat="45.975182078051276" lon="11.937780631959935"><ele>216.0</ele><time>2026-05-01T14:21:33.999Z</time></trkpt><trkpt lat="45.97505492659398" lon="11.937714183825126"><ele>217.0</ele><time>2026-05-01T14:21:34.999Z</time></trkpt><trkpt lat="45.97492072942445" lon="11.93764789939028"><ele>218.0</ele><time>2026-05-01T14:21:35.999Z</time></trkpt><trkpt lat="45.974781089002434" lon="11.93757680219127"><ele>219.0</ele><time>2026-05-01T14:21:36.999Z</time></trkpt><trkpt lat="45.974636346323514" lon="11.937505442751716"><ele>220.0</ele><time>2026-05-01T14:21:37.999Z</time></trkpt><trkpt lat="45.97448000197979" lon="11.93742867018378"><ele>220.0</ele><time>2026-05-01T14:21:38.999Z</time></trkpt><trkpt lat="45.97432871058525" lon="11.937356243212545"><ele>220.0</ele><time>2026-05-01T14:21:39.999Z</time></trkpt><trkpt lat="45.97415496551498" lon="11.937278906597784"><ele>220.0</ele><time>2026-05-01T14:21:40.999Z</time></trkpt><trkpt lat="45.97396070428008" lon="11.937181430803022"><ele>215.66666666666666</ele><time>2026-05-01T14:21:41.999Z</time></trkpt><trkpt lat="45.973757192274824" lon="11.937071964947773"><ele>211.33333333333331</ele><time>2026-05-01T14:21:42.999Z</time></trkpt><trkpt lat="45.97355101209661" lon="11.936970667625715"><ele>207.0</ele><time>2026-05-01T14:21:43.999Z</time></trkpt><trkpt lat="45.97335841904734" lon="11.936871671581171"><ele>205.66666666666669</ele><time>2026-05-01T14:21:45Z</time></trkpt><trkpt lat="45.97317783014022" lon="11.936762075474597"><ele>204.33333333333334</ele><time>2026-05-01T14:21:46Z</time></trkpt><trkpt lat="45.97301185885664" lon="11.936630539853287"><ele>203.0</ele><time>2026-05-01T14:21:47Z</time></trkpt><trkpt lat="45.97286279017527" lon="11.936454461721672"><ele>205.33333333333334</ele><time>2026-05-01T14:21:48Z</time></trkpt><trkpt lat="45.97271475522724" lon="11.93625059034029"><ele>207.66666666666669</ele><time>2026-05-01T14:21:49Z</time></trkpt><trkpt lat="45.97256973038097" lon="11.936056768184093"><ele>210.0</ele><time>2026-05-01T14:21:50Z</time></trkpt><trkpt lat="45.97243461695118" lon="11.93586459474439"><ele>210.0</ele><time>2026-05-01T14:21:51Z</time></trkpt><trkpt lat="45.972311734252514" lon="11.935652009502018"><ele>210.0</ele><time>2026-05-01T14:21:52Z</time></trkpt><trkpt lat="45.97218373119836" lon="11.935429014326518"><ele>210.0</ele><time>2026-05-01T14:21:53Z</time></trkpt><trkpt lat="45.97204450619834" lon="11.935209713717274"><ele>208.33333333333331</ele><time>2026-05-01T14:21:54Z</time></trkpt><trkpt lat="45.97190625076974" lon="11.934999596139393"><ele>206.66666666666666</ele><time>2026-05-01T14:21:55Z</time></trkpt><trkpt lat="45.97176677966355" lon="11.93479816440032"><ele>205.0</ele><time>2026-05-01T14:21:56Z</time></trkpt><trkpt lat="45.97161947076894" lon="11.934597102495333"><ele>205.0</ele><time>2026-05-01T14:21:57Z</time></trkpt><trkpt lat="45.971465379507926" lon="11.93440101170077"><ele>205.0</ele><time>2026-05-01T14:21:58Z</time></trkpt><trkpt lat="45.9713060448688" lon="11.934207028578486"><ele>205.0</ele><time>2026-05-01T14:21:59Z</time></trkpt><trkpt lat="45.97113978415196" lon="11.934025233442885"><ele>203.33333333333331</ele><time>2026-05-01T14:22:00Z</time></trkpt><trkpt lat="45.97097174229611" lon="11.933855857443413"><ele>201.66666666666669</ele><time>2026-05-01T14:22:01Z</time></trkpt><trkpt lat="45.97080118140328" lon="11.933705533289443"><ele>200.0</ele><time>2026-05-01T14:22:02Z</time></trkpt><trkpt lat="45.97062557751585" lon="11.933568326011054"><ele>200.0</ele><time>2026-05-01T14:22:03Z</time></trkpt><trkpt lat="45.97044077605038" lon="11.933455490105965"><ele>200.0</ele><time>2026-05-01T14:22:04Z</time></trkpt><trkpt lat="45.970241378494634" lon="11.933372828296747"><ele>200.0</ele><time>2026-05-01T14:22:05Z</time></trkpt><trkpt lat="45.97002696284265" lon="11.933323464432704"><ele>201.33333333333334</ele><time>2026-05-01T14:22:06Z</time></trkpt><trkpt lat="45.96980770641103" lon="11.93329256370909"><ele>202.66666666666669</ele><time>2026-05-01T14:22:07Z</time></trkpt><trkpt lat="45.96958388999339" lon="11.933292161627689"><ele>204.0</ele><time>2026-05-01T14:22:08Z</time></trkpt><trkpt lat="45.96935884316414" lon="11.933306527343827"><ele>205.0</ele><time>2026-05-01T14:22:09Z</time></trkpt><trkpt lat="45.96913859916001" lon="11.933326639612176"><ele>206.0</ele><time>2026-05-01T14:22:10Z</time></trkpt><trkpt lat="45.968925849194626" lon="11.933339933549513"><ele>207.0</ele><time>2026-05-01T14:22:10.999Z</time></trkpt><trkpt lat="45.96872550444529" lon="11.933357570628647"><ele>207.0</ele><time>2026-05-01T14:22:11.999Z</time></trkpt><trkpt lat="45.9685432980884" lon="11.933371494538939"><ele>207.0</ele><time>2026-05-01T14:22:12.999Z</time></trkpt><trkpt lat="45.968375428341275" lon="11.933381432808517"><ele>207.0</ele><time>2026-05-01T14:22:13.999Z</time></trkpt><trkpt lat="45.96821595638646" lon="11.933374716250896"><ele>208.66666666666669</ele><time>2026-05-01T14:22:14.999Z</time></trkpt><trkpt lat="45.96806053017047" lon="11.933355258211925"><ele>210.33333333333334</ele><time>2026-05-01T14:22:15.999Z</time></trkpt><trkpt lat="45.967901779011946" lon="11.933322296784395"><ele>212.0</ele><time>2026-05-01T14:22:16.999Z</time></trkpt><trkpt lat="45.96775819164148" lon="11.933278713301272"><ele>212.0</ele><time>2026-05-01T14:22:17.999Z</time></trkpt><trkpt lat="45.96762031175232" lon="11.933224766996924"><ele>212.0</ele><time>2026-05-01T14:22:18.999Z</time></trkpt><trkpt lat="45.96748128872817" lon="11.933162979223418"><ele>212.0</ele><time>2026-05-01T14:22:19.999Z</time></trkpt><trkpt lat="45.96734379299762" lon="11.933092068469612"><ele>212.0</ele><time>2026-05-01T14:22:20.999Z</time></trkpt><trkpt lat="45.967195140254105" lon="11.933020674850145"><ele>209.0</ele><time>2026-05-01T14:22:21.999Z</time></trkpt><trkpt lat="45.96704409173313" lon="11.932945335185668"><ele>206.0</ele><time>2026-05-01T14:22:22.999Z</time></trkpt><trkpt lat="45.96689851642227" lon="11.932870155554026"><ele>203.0</ele><time>2026-05-01T14:22:23.999Z</time></trkpt><trkpt lat="45.966756394557365" lon="11.93279764282572"><ele>204.33333333333334</ele><time>2026-05-01T14:22:24.999Z</time></trkpt><trkpt lat="45.96661504907237" lon="11.932718907908479"><ele>205.66666666666669</ele><time>2026-05-01T14:22:25.999Z</time></trkpt><trkpt lat="45.96647422669835" lon="11.932633171381891"><ele>207.0</ele><time>2026-05-01T14:22:26.999Z</time></trkpt><trkpt lat="45.96633166911112" lon="11.932543507271435"><ele>207.0</ele><time>2026-05-01T14:22:27.999Z</time></trkpt><trkpt lat="45.96618615433638" lon="11.932449630640058"><ele>207.0</ele><time>2026-05-01T14:22:28.999Z</time></trkpt><trkpt lat="45.96604316205967" lon="11.93235386734901"><ele>207.0</ele><time>2026-05-01T14:22:29.999Z</time></trkpt><trkpt lat="45.9659027497467" lon="11.932260064987295"><ele>205.5</ele><time>2026-05-01T14:22:30.999Z</time></trkpt><trkpt lat="45.96576471769394" lon="11.932172637525237"><ele>204.0</ele><time>2026-05-01T14:22:31.999Z</time></trkpt><trkpt lat="45.9656310416971" lon="11.932091879483352"><ele>202.5</ele><time>2026-05-01T14:22:32.999Z</time></trkpt><trkpt lat="45.96549766951443" lon="11.932019168415149"><ele>201.0</ele><time>2026-05-01T14:22:33.999Z</time></trkpt><trkpt lat="45.96536112630762" lon="11.931959413180362"><ele>201.0</ele><time>2026-05-01T14:22:34.999Z</time></trkpt><trkpt lat="45.96522198448289" lon="11.93191470208895"><ele>201.0</ele><time>2026-05-01T14:22:35.999Z</time></trkpt><trkpt lat="45.96507920458222" lon="11.931893359917732"><ele>201.0</ele><time>2026-05-01T14:22:36.999Z</time></trkpt><trkpt lat="45.96493505167431" lon="11.931896266771222"><ele>201.0</ele><time>2026-05-01T14:22:37.999Z</time></trkpt><trkpt lat="45.96479084986884" lon="11.931920663813901"><ele>200.25</ele><time>2026-05-01T14:22:38.999Z</time></trkpt><trkpt lat="45.964647351164956" lon="11.931962580554524"><ele>199.5</ele><time>2026-05-01T14:22:39.999Z</time></trkpt><trkpt lat="45.96450623231106" lon="11.93202448509892"><ele>198.75</ele><time>2026-05-01T14:22:40.999Z</time></trkpt><trkpt lat="45.96436497866043" lon="11.93211006714045"><ele>198.0</ele><time>2026-05-01T14:22:41.999Z</time></trkpt><trkpt lat="45.96422664634633" lon="11.932194811207477"><ele>199.66666666666669</ele><time>2026-05-01T14:22:42.999Z</time></trkpt><trkpt lat="45.96408964202296" lon="11.93227583086383"><ele>201.33333333333334</ele><time>2026-05-01T14:22:43.999Z</time></trkpt><trkpt lat="45.96394188132434" lon="11.932334310356405"><ele>203.0</ele><time>2026-05-01T14:22:44.999Z</time></trkpt><trkpt lat="45.96379625356603" lon="11.932414805655482"><ele>203.0</ele><time>2026-05-01T14:22:45.999Z</time></trkpt><trkpt lat="45.96364137048895" lon="11.93250041680072"><ele>203.0</ele><time>2026-05-01T14:22:46.999Z</time></trkpt><trkpt lat="45.963463965528526" lon="11.93259847684979"><ele>203.0</ele><time>2026-05-01T14:22:47.999Z</time></trkpt><trkpt lat="45.9632800412229" lon="11.932698022692007"><ele>200.66666666666669</ele><time>2026-05-01T14:22:48.999Z</time></trkpt><trkpt lat="45.96309998883512" lon="11.93278582937715"><ele>198.33333333333331</ele><time>2026-05-01T14:22:49.999Z</time></trkpt><trkpt lat="45.962921110720906" lon="11.932869399009581"><ele>196.0</ele><time>2026-05-01T14:22:50.999Z</time></trkpt><trkpt lat="45.962729077994936" lon="11.932946712885073"><ele>196.0</ele><time>2026-05-01T14:22:51.999Z</time></trkpt><trkpt lat="45.962536057800655" lon="11.933018912544886"><ele>196.0</ele><time>2026-05-01T14:22:52.999Z</time></trkpt><trkpt lat="45.96233131545381" lon="11.933086557834207"><ele>196.0</ele><time>2026-05-01T14:22:53.999Z</time></trkpt><trkpt lat="45.96209705058524" lon="11.933159488306512"><ele>199.5</ele><time>2026-05-01T14:22:54.999Z</time></trkpt><trkpt lat="45.96182429819225" lon="11.933243690014104"><ele>203.0</ele><time>2026-05-01T14:22:55.999Z</time></trkpt><trkpt lat="45.9615293653126" lon="11.933331293964528"><ele>199.5</ele><time>2026-05-01T14:22:56.999Z</time></trkpt><trkpt lat="45.96123316095525" lon="11.933441520371872"><ele>196.0</ele><time>2026-05-01T14:22:57.999Z</time></trkpt><trkpt lat="45.9609594285306" lon="11.933518173641502"><ele>198.0</ele><time>2026-05-01T14:22:58.999Z</time></trkpt><trkpt lat="45.96070362554208" lon="11.933592806941503"><ele>200.0</ele><time>2026-05-01T14:22:59.999Z</time></trkpt><trkpt lat="45.9604568278687" lon="11.933663591123326"><ele>200.0</ele><time>2026-05-01T14:23:00.999Z</time></trkpt><trkpt lat="45.96021661561822" lon="11.933731884743098"><ele>200.0</ele><time>2026-05-01T14:23:01.999Z</time></trkpt><trkpt lat="45.95998050024732" lon="11.933799396427462"><ele>203.0</ele><time>2026-05-01T14:23:02.999Z</time></trkpt><trkpt lat="45.95975018004704" lon="11.933862896858637"><ele>206.0</ele><time>2026-05-01T14:23:03.999Z</time></trkpt><trkpt lat="45.9595238755928" lon="11.933916334185092"><ele>206.0</ele><time>2026-05-01T14:23:04.999Z</time></trkpt><trkpt lat="45.95929675535335" lon="11.933950679461914"><ele>206.0</ele><time>2026-05-01T14:23:05.999Z</time></trkpt><trkpt lat="45.959069428501884" lon="11.9339619355025"><ele>205.66666666666669</ele><time>2026-05-01T14:23:06.999Z</time></trkpt><trkpt lat="45.95884603788027" lon="11.933951952933144"><ele>205.33333333333331</ele><time>2026-05-01T14:23:07.999Z</time></trkpt><trkpt lat="45.95862720362974" lon="11.933919071699949"><ele>205.0</ele><time>2026-05-01T14:23:08.999Z</time></trkpt><trkpt lat="45.958411027835204" lon="11.933858910973415"><ele>203.5</ele><time>2026-05-01T14:23:09.999Z</time></trkpt><trkpt lat="45.95819298738483" lon="11.933776720160322"><ele>202.0</ele><time>2026-05-01T14:23:10.999Z</time></trkpt><trkpt lat="45.95797492661969" lon="11.933676424573797"><ele>202.0</ele><time>2026-05-01T14:23:11.999Z</time></trkpt><trkpt lat="45.95775747170952" lon="11.933563884478177"><ele>202.0</ele><time>2026-05-01T14:23:12.999Z</time></trkpt><trkpt lat="45.957548587421556" lon="11.933433831754401"><ele>206.33333333333331</ele><time>2026-05-01T14:23:13.999Z</time></trkpt><trkpt lat="45.95734954961045" lon="11.933289584560077"><ele>210.66666666666669</ele><time>2026-05-01T14:23:14.999Z</time></trkpt><trkpt lat="45.95715932442859" lon="11.933127267359284"><ele>215.0</ele><time>2026-05-01T14:23:15.999Z</time></trkpt><trkpt lat="45.95697800504474" lon="11.932937315064184"><ele>215.0</ele><time>2026-05-01T14:23:16.999Z</time></trkpt><trkpt lat="45.956806903746795" lon="11.932730822570498"><ele>215.0</ele><time>2026-05-01T14:23:17.999Z</time></trkpt><trkpt lat="45.9566437076012" lon="11.932518773377613"><ele>215.0</ele><time>2026-05-01T14:23:18.999Z</time></trkpt><trkpt lat="45.95649011881631" lon="11.932304812820037"><ele>215.33333333333334</ele><time>2026-05-01T14:23:19.999Z</time></trkpt><trkpt lat="45.95634443915378" lon="11.932086769684318"><ele>215.66666666666669</ele><time>2026-05-01T14:23:20.999Z</time></trkpt><trkpt lat="45.95620477026096" lon="11.931865545749327"><ele>216.0</ele><time>2026-05-01T14:23:21.999Z</time></trkpt><trkpt lat="45.95607155007715" lon="11.931631635173105"><ele>217.66666666666669</ele><time>2026-05-01T14:23:22.999Z</time></trkpt><trkpt lat="45.95594533859453" lon="11.931379001414948"><ele>219.33333333333334</ele><time>2026-05-01T14:23:23.999Z</time></trkpt><trkpt lat="45.9558243170286" lon="11.931110775824713"><ele>221.0</ele><time>2026-05-01T14:23:24.999Z</time></trkpt><trkpt lat="45.95570617759871" lon="11.930830710354357"><ele>221.0</ele><time>2026-05-01T14:23:25.999Z</time></trkpt><trkpt lat="45.955592259218264" lon="11.930548064340945"><ele>221.0</ele><time>2026-05-01T14:23:26.999Z</time></trkpt><trkpt lat="45.95547837963502" lon="11.930277717929526"><ele>221.0</ele><time>2026-05-01T14:23:27.999Z</time></trkpt><trkpt lat="45.95535631506618" lon="11.930023585196937"><ele>216.0</ele><time>2026-05-01T14:23:28.999Z</time></trkpt><trkpt lat="45.95523213993595" lon="11.929773121271541"><ele>211.0</ele><time>2026-05-01T14:23:29.999Z</time></trkpt><trkpt lat="45.95505902392924" lon="11.92958377975867"><ele>206.0</ele><time>2026-05-01T14:23:30.999Z</time></trkpt><trkpt lat="45.95487778392283" lon="11.929409656427156"><ele>206.0</ele><time>2026-05-01T14:23:31.999Z</time></trkpt><trkpt lat="45.9546795267233" lon="11.929257436370168"><ele>206.0</ele><time>2026-05-01T14:23:32.999Z</time></trkpt><trkpt lat="45.95447432204982" lon="11.929109977733077"><ele>206.5</ele><time>2026-05-01T14:23:33.999Z</time></trkpt><trkpt lat="45.954264341761075" lon="11.928965112399585"><ele>207.0</ele><time>2026-05-01T14:23:34.999Z</time></trkpt><trkpt lat="45.95405320271364" lon="11.92881214190405"><ele>207.0</ele><time>2026-05-01T14:23:35.999Z</time></trkpt><trkpt lat="45.95384839267584" lon="11.928658350168035"><ele>207.0</ele><time>2026-05-01T14:23:36.999Z</time></trkpt><trkpt lat="45.95365264505888" lon="11.928515775980932"><ele>209.0</ele><time>2026-05-01T14:23:37.999Z</time></trkpt><trkpt lat="45.953455698714556" lon="11.928366889177969"><ele>211.0</ele><time>2026-05-01T14:23:38.999Z</time></trkpt><trkpt lat="45.95325963021997" lon="11.928197559222834"><ele>211.0</ele><time>2026-05-01T14:23:39.999Z</time></trkpt><trkpt lat="45.953071731792384" lon="11.92801596689355"><ele>211.0</ele><time>2026-05-01T14:23:40.999Z</time></trkpt><trkpt lat="45.952884705171314" lon="11.927819023402257"><ele>211.0</ele><time>2026-05-01T14:23:41.999Z</time></trkpt><trkpt lat="45.952697446093424" lon="11.92761450093453"><ele>211.0</ele><time>2026-05-01T14:23:42.999Z</time></trkpt><trkpt lat="45.95250620292908" lon="11.927413664347906"><ele>208.5</ele><time>2026-05-01T14:23:43.999Z</time></trkpt><trkpt lat="45.95230167991041" lon="11.927222296277563"><ele>206.0</ele><time>2026-05-01T14:23:44.999Z</time></trkpt><trkpt lat="45.95210720257968" lon="11.927008144959098"><ele>206.0</ele><time>2026-05-01T14:23:45.999Z</time></trkpt><trkpt lat="45.95187093434074" lon="11.926871382799122"><ele>206.0</ele><time>2026-05-01T14:23:46.999Z</time></trkpt><trkpt lat="45.95164651118459" lon="11.92670428434967"><ele>207.0</ele><time>2026-05-01T14:23:47.999Z</time></trkpt><trkpt lat="45.95141829585916" lon="11.926534393659846"><ele>208.0</ele><time>2026-05-01T14:23:48.999Z</time></trkpt><trkpt lat="45.95118773652092" lon="11.926361563980116"><ele>208.0</ele><time>2026-05-01T14:23:49.999Z</time></trkpt><trkpt lat="45.95095393824732" lon="11.926183614660173"><ele>208.0</ele><time>2026-05-01T14:23:51Z</time></trkpt><trkpt lat="45.95072043732688" lon="11.926002881048785"><ele>212.5</ele><time>2026-05-01T14:23:52Z</time></trkpt><trkpt lat="45.950491637798585" lon="11.925816494013345"><ele>217.0</ele><time>2026-05-01T14:23:53Z</time></trkpt><trkpt lat="45.95027277022956" lon="11.925612060614244"><ele>217.0</ele><time>2026-05-01T14:23:54Z</time></trkpt><trkpt lat="45.95006533568245" lon="11.92538661643242"><ele>217.0</ele><time>2026-05-01T14:23:55Z</time></trkpt><trkpt lat="45.94986292807275" lon="11.925141464247032"><ele>217.0</ele><time>2026-05-01T14:23:56Z</time></trkpt><trkpt lat="45.9496599471364" lon="11.92489091573105"><ele>217.0</ele><time>2026-05-01T14:23:57Z</time></trkpt><trkpt lat="45.949454826425345" lon="11.924634708100704"><ele>217.0</ele><time>2026-05-01T14:23:58Z</time></trkpt><trkpt lat="45.94924754797818" lon="11.92437247934133"><ele>217.0</ele><time>2026-05-01T14:23:59Z</time></trkpt><trkpt lat="45.949041604364275" lon="11.924114254450648"><ele>213.0</ele><time>2026-05-01T14:24:00Z</time></trkpt><trkpt lat="45.94884231384917" lon="11.92387216940938"><ele>209.0</ele><time>2026-05-01T14:24:01Z</time></trkpt><trkpt lat="45.9486434469376" lon="11.923643736342743"><ele>209.0</ele><time>2026-05-01T14:24:02Z</time></trkpt><trkpt lat="45.94843908439192" lon="11.92342899581382"><ele>209.0</ele><time>2026-05-01T14:24:03Z</time></trkpt><trkpt lat="45.94822737308794" lon="11.923231008563501"><ele>213.5</ele><time>2026-05-01T14:24:04Z</time></trkpt><trkpt lat="45.948001024941284" lon="11.923063930461925"><ele>218.0</ele><time>2026-05-01T14:24:05Z</time></trkpt><trkpt lat="45.947759287704514" lon="11.922928546811214"><ele>211.0</ele><time>2026-05-01T14:24:06Z</time></trkpt><trkpt lat="45.947503800013976" lon="11.922817276606603"><ele>204.0</ele><time>2026-05-01T14:24:07Z</time></trkpt><trkpt lat="45.947239616072494" lon="11.922716748734755"><ele>204.0</ele><time>2026-05-01T14:24:08Z</time></trkpt><trkpt lat="45.946975298309255" lon="11.92261579432043"><ele>204.0</ele><time>2026-05-01T14:24:09Z</time></trkpt><trkpt lat="45.94670971908231" lon="11.922520568826345"><ele>212.5</ele><time>2026-05-01T14:24:10Z</time></trkpt><trkpt lat="45.94644419761232" lon="11.922436643451945"><ele>221.0</ele><time>2026-05-01T14:24:11Z</time></trkpt><trkpt lat="45.94617816913197" lon="11.922381811124792"><ele>221.0</ele><time>2026-05-01T14:24:12Z</time></trkpt><trkpt lat="45.94591036442149" lon="11.92236950974488"><ele>221.0</ele><time>2026-05-01T14:24:13Z</time></trkpt><trkpt lat="45.94565099956662" lon="11.922372656121297"><ele>212.0</ele><time>2026-05-01T14:24:14Z</time></trkpt><trkpt lat="45.945405271030594" lon="11.922346459530072"><ele>203.0</ele><time>2026-05-01T14:24:15Z</time></trkpt><trkpt lat="45.94517013016137" lon="11.922271548568268"><ele>205.5</ele><time>2026-05-01T14:24:15.999Z</time></trkpt><trkpt lat="45.94492641352861" lon="11.922157011379532"><ele>208.0</ele><time>2026-05-01T14:24:16.999Z</time></trkpt><trkpt lat="45.94467112481208" lon="11.922052256689026"><ele>208.0</ele><time>2026-05-01T14:24:17.999Z</time></trkpt><trkpt lat="45.94440445967253" lon="11.921973211529668"><ele>208.0</ele><time>2026-05-01T14:24:18.999Z</time></trkpt><trkpt lat="45.94414484274473" lon="11.921918462855736"><ele>202.0</ele><time>2026-05-01T14:24:19.999Z</time></trkpt><trkpt lat="45.94389785655697" lon="11.921879199670538"><ele>196.0</ele><time>2026-05-01T14:24:20.999Z</time></trkpt><trkpt lat="45.943664047626775" lon="11.921816637459957"><ele>205.5</ele><time>2026-05-01T14:24:21.999Z</time></trkpt><trkpt lat="45.94342575682393" lon="11.921729801998897"><ele>215.0</ele><time>2026-05-01T14:24:22.999Z</time></trkpt><trkpt lat="45.94319142849185" lon="11.921619798621396"><ele>215.0</ele><time>2026-05-01T14:24:23.999Z</time></trkpt><trkpt lat="45.94296579223635" lon="11.921482224885448"><ele>215.0</ele><time>2026-05-01T14:24:24.999Z</time></trkpt><trkpt lat="45.942746430054" lon="11.92132802988085"><ele>207.5</ele><time>2026-05-01T14:24:25.999Z</time></trkpt><trkpt lat="45.94252396362012" lon="11.92117036802224"><ele>200.0</ele><time>2026-05-01T14:24:26.999Z</time></trkpt><trkpt lat="45.94229993949587" lon="11.921012354623207"><ele>210.0</ele><time>2026-05-01T14:24:27.999Z</time></trkpt><trkpt lat="45.94207698772694" lon="11.920852832100124"><ele>220.0</ele><time>2026-05-01T14:24:28.999Z</time></trkpt><trkpt lat="45.94185234831426" lon="11.920695685818218"><ele>209.0</ele><time>2026-05-01T14:24:29.999Z</time></trkpt><trkpt lat="45.941633308172094" lon="11.920542746082447"><ele>198.0</ele><time>2026-05-01T14:24:30.999Z</time></trkpt><trkpt lat="45.941422534775384" lon="11.920392583133928"><ele>198.0</ele><time>2026-05-01T14:24:31.999Z</time></trkpt><trkpt lat="45.9412169848762" lon="11.920246321565076"><ele>198.0</ele><time>2026-05-01T14:24:32.999Z</time></trkpt><trkpt lat="45.941018291682035" lon="11.920108834054739"><ele>199.66666666666669</ele><time>2026-05-01T14:24:33.999Z</time></trkpt><trkpt lat="45.94082114688126" lon="11.919985686535142"><ele>201.33333333333334</ele><time>2026-05-01T14:24:34.999Z</time></trkpt><trkpt lat="45.9406228592136" lon="11.919888624386424"><ele>203.0</ele><time>2026-05-01T14:24:35.999Z</time></trkpt><trkpt lat="45.9404226141877" lon="11.91980946741808"><ele>203.0</ele><time>2026-05-01T14:24:36.999Z</time></trkpt><trkpt lat="45.94022097519348" lon="11.919753725585155"><ele>203.0</ele><time>2026-05-01T14:24:37.999Z</time></trkpt><trkpt lat="45.940017536009286" lon="11.919726449305825"><ele>203.0</ele><time>2026-05-01T14:24:38.999Z</time></trkpt><trkpt lat="45.93981325938834" lon="11.919717858954522"><ele>201.66666666666669</ele><time>2026-05-01T14:24:39.999Z</time></trkpt><trkpt lat="45.939607506691154" lon="11.919727145173209"><ele>200.33333333333331</ele><time>2026-05-01T14:24:40.999Z</time></trkpt><trkpt lat="45.93940250648118" lon="11.919741068098462"><ele>199.0</ele><time>2026-05-01T14:24:41.999Z</time></trkpt><trkpt lat="45.939196198482826" lon="11.91975416111836"><ele>199.0</ele><time>2026-05-01T14:24:42.999Z</time></trkpt><trkpt lat="45.93899264102548" lon="11.919768512912022"><ele>199.0</ele><time>2026-05-01T14:24:43.999Z</time></trkpt><trkpt lat="45.93879015323848" lon="11.919785993043952"><ele>199.0</ele><time>2026-05-01T14:24:44.999Z</time></trkpt><trkpt lat="45.93858926294277" lon="11.919812600738513"><ele>199.0</ele><time>2026-05-01T14:24:45.999Z</time></trkpt><trkpt lat="45.938387566431416" lon="11.919852037170902"><ele>199.0</ele><time>2026-05-01T14:24:46.999Z</time></trkpt><trkpt lat="45.93818607764508" lon="11.919916471289461"><ele>199.0</ele><time>2026-05-01T14:24:47.999Z</time></trkpt><trkpt lat="45.93798783998386" lon="11.919999863906284"><ele>196.66666666666666</ele><time>2026-05-01T14:24:48.999Z</time></trkpt><trkpt lat="45.937794716658715" lon="11.920094418104858"><ele>194.33333333333331</ele><time>2026-05-01T14:24:49.999Z</time></trkpt><trkpt lat="45.93760866769286" lon="11.920181170056308"><ele>192.0</ele><time>2026-05-01T14:24:50.999Z</time></trkpt><trkpt lat="45.93743009975785" lon="11.92026086858161"><ele>192.0</ele><time>2026-05-01T14:24:51.999Z</time></trkpt><trkpt lat="45.93725308190126" lon="11.92034830599535"><ele>192.0</ele><time>2026-05-01T14:24:52.999Z</time></trkpt><trkpt lat="45.93707104010556" lon="11.920429058406775"><ele>192.0</ele><time>2026-05-01T14:24:53.999Z</time></trkpt><trkpt lat="45.936900427946995" lon="11.92055236111124"><ele>192.0</ele><time>2026-05-01T14:24:54.999Z</time></trkpt><trkpt lat="45.93673699141521" lon="11.920680024856294"><ele>192.0</ele><time>2026-05-01T14:24:55.999Z</time></trkpt><trkpt lat="45.93658057969197" lon="11.920805892827454"><ele>192.0</ele><time>2026-05-01T14:24:56.999Z</time></trkpt><trkpt lat="45.93642604634649" lon="11.920934612655229"><ele>191.0</ele><time>2026-05-01T14:24:57.999Z</time></trkpt><trkpt lat="45.93627995239189" lon="11.921080095728295"><ele>190.0</ele><time>2026-05-01T14:24:58.999Z</time></trkpt><trkpt lat="45.93615066849658" lon="11.921267391886087"><ele>189.0</ele><time>2026-05-01T14:24:59.999Z</time></trkpt><trkpt lat="45.93603022132605" lon="11.921472683007009"><ele>189.0</ele><time>2026-05-01T14:25:00.999Z</time></trkpt><trkpt lat="45.93591256343241" lon="11.921675330908485"><ele>189.0</ele><time>2026-05-01T14:25:01.999Z</time></trkpt><trkpt lat="45.935797468015465" lon="11.921873185869545"><ele>189.0</ele><time>2026-05-01T14:25:02.999Z</time></trkpt><trkpt lat="45.935681464117515" lon="11.922072255606547"><ele>187.0</ele><time>2026-05-01T14:25:03.999Z</time></trkpt><trkpt lat="45.935565888292004" lon="11.922276614457134"><ele>185.0</ele><time>2026-05-01T14:25:04.999Z</time></trkpt><trkpt lat="45.935455406259614" lon="11.922485904895895"><ele>183.0</ele><time>2026-05-01T14:25:05.999Z</time></trkpt><trkpt lat="45.93536288744029" lon="11.922711865325345"><ele>183.0</ele><time>2026-05-01T14:25:06.999Z</time></trkpt><trkpt lat="45.93523171116309" lon="11.92289742172131"><ele>183.0</ele><time>2026-05-01T14:25:07.999Z</time></trkpt><trkpt lat="45.93512743345417" lon="11.92311306162165"><ele>183.0</ele><time>2026-05-01T14:25:08.999Z</time></trkpt><trkpt lat="45.93501006615386" lon="11.923310367340042"><ele>186.0</ele><time>2026-05-01T14:25:09.999Z</time></trkpt><trkpt lat="45.934898978194155" lon="11.923510941468741"><ele>189.0</ele><time>2026-05-01T14:25:10.999Z</time></trkpt><trkpt lat="45.93479096132864" lon="11.923719173926504"><ele>192.0</ele><time>2026-05-01T14:25:11.999Z</time></trkpt><trkpt lat="45.93467853271863" lon="11.92392874733384"><ele>192.0</ele><time>2026-05-01T14:25:12.999Z</time></trkpt><trkpt lat="45.93456783142627" lon="11.924130630664276"><ele>192.0</ele><time>2026-05-01T14:25:13.999Z</time></trkpt><trkpt lat="45.934460714062475" lon="11.92432855496076"><ele>192.0</ele><time>2026-05-01T14:25:14.999Z</time></trkpt><trkpt lat="45.93435450999515" lon="11.9245218671387"><ele>192.33333333333331</ele><time>2026-05-01T14:25:15.999Z</time></trkpt><trkpt lat="45.93425371452746" lon="11.924710556461621"><ele>192.66666666666666</ele><time>2026-05-01T14:25:16.999Z</time></trkpt><trkpt lat="45.934155783913184" lon="11.924898147694826"><ele>193.0</ele><time>2026-05-01T14:25:17.999Z</time></trkpt><trkpt lat="45.93405458465867" lon="11.925094283299059"><ele>193.0</ele><time>2026-05-01T14:25:18.999Z</time></trkpt><trkpt lat="45.93394648090486" lon="11.925292036351095"><ele>193.0</ele><time>2026-05-01T14:25:19.999Z</time></trkpt><trkpt lat="45.93383935586941" lon="11.925487950254052"><ele>193.0</ele><time>2026-05-01T14:25:20.999Z</time></trkpt><trkpt lat="45.93373605101508" lon="11.92568227934044"><ele>193.0</ele><time>2026-05-01T14:25:21.999Z</time></trkpt><trkpt lat="45.933631862578316" lon="11.925879587242711"><ele>193.0</ele><time>2026-05-01T14:25:22.999Z</time></trkpt><trkpt lat="45.933527034297036" lon="11.926078765653433"><ele>193.0</ele><time>2026-05-01T14:25:23.999Z</time></trkpt><trkpt lat="45.933424425301816" lon="11.926268168101052"><ele>193.33333333333331</ele><time>2026-05-01T14:25:24.999Z</time></trkpt><trkpt lat="45.93331991720788" lon="11.926462388727538"><ele>193.66666666666669</ele><time>2026-05-01T14:25:25.999Z</time></trkpt><trkpt lat="45.93321214791897" lon="11.926664425123612"><ele>194.0</ele><time>2026-05-01T14:25:26.999Z</time></trkpt><trkpt lat="45.93310603175014" lon="11.926863344388888"><ele>194.0</ele><time>2026-05-01T14:25:27.999Z</time></trkpt><trkpt lat="45.933002255024235" lon="11.927057193963206"><ele>194.0</ele><time>2026-05-01T14:25:28.999Z</time></trkpt><trkpt lat="45.932880364830766" lon="11.927243482043666"><ele>194.0</ele><time>2026-05-01T14:25:29.999Z</time></trkpt><trkpt lat="45.93279594244168" lon="11.927463192480335"><ele>192.0</ele><time>2026-05-01T14:25:30.999Z</time></trkpt><trkpt lat="45.932699097748674" lon="11.927671007134903"><ele>190.0</ele><time>2026-05-01T14:25:31.999Z</time></trkpt><trkpt lat="45.93261140249177" lon="11.92789592064306"><ele>188.0</ele><time>2026-05-01T14:25:32.999Z</time></trkpt><trkpt lat="45.93253204395009" lon="11.928127484395418"><ele>195.33333333333331</ele><time>2026-05-01T14:25:33.999Z</time></trkpt><trkpt lat="45.93246370194678" lon="11.928353015150437"><ele>202.66666666666666</ele><time>2026-05-01T14:25:34.999Z</time></trkpt><trkpt lat="45.932383859352086" lon="11.928573691728122"><ele>210.0</ele><time>2026-05-01T14:25:35.999Z</time></trkpt><trkpt lat="45.93232130360292" lon="11.928805704811552"><ele>210.0</ele><time>2026-05-01T14:25:36.999Z</time></trkpt><trkpt lat="45.932265307123785" lon="11.929049351838744"><ele>210.0</ele><time>2026-05-01T14:25:37.999Z</time></trkpt><trkpt lat="45.93221376748033" lon="11.929301727796158"><ele>210.0</ele><time>2026-05-01T14:25:38.999Z</time></trkpt><trkpt lat="45.93216051518627" lon="11.929568091651698"><ele>210.0</ele><time>2026-05-01T14:25:39.999Z</time></trkpt><trkpt lat="45.932101634183915" lon="11.929862610107103"><ele>210.0</ele><time>2026-05-01T14:25:40.999Z</time></trkpt><trkpt lat="45.932032377483154" lon="11.930211673705559"><ele>209.5</ele><time>2026-05-01T14:25:41.999Z</time></trkpt><trkpt lat="45.93195231951034" lon="11.93061700942848"><ele>209.0</ele><time>2026-05-01T14:25:42.999Z</time></trkpt><trkpt lat="45.93188631949996" lon="11.931026977432523"><ele>211.0</ele><time>2026-05-01T14:25:43.999Z</time></trkpt><trkpt lat="45.93180468779073" lon="11.931411463949685"><ele>213.0</ele><time>2026-05-01T14:25:44.999Z</time></trkpt><trkpt lat="45.93170199931667" lon="11.931770002000553"><ele>215.0</ele><time>2026-05-01T14:25:45.999Z</time></trkpt><trkpt lat="45.93162018095855" lon="11.93212088669977"><ele>217.0</ele><time>2026-05-01T14:25:46.999Z</time></trkpt><trkpt lat="45.931516731972266" lon="11.932450919219269"><ele>216.0</ele><time>2026-05-01T14:25:47.999Z</time></trkpt><trkpt lat="45.931412988783535" lon="11.932766070351118"><ele>215.0</ele><time>2026-05-01T14:25:48.999Z</time></trkpt><trkpt lat="45.93130477295782" lon="11.93307342940226"><ele>215.0</ele><time>2026-05-01T14:25:49.999Z</time></trkpt><trkpt lat="45.93119722305417" lon="11.933368895369993"><ele>215.0</ele><time>2026-05-01T14:25:50.999Z</time></trkpt><trkpt lat="45.93109208982193" lon="11.93365779893596"><ele>215.0</ele><time>2026-05-01T14:25:51.999Z</time></trkpt><trkpt lat="45.930987370903324" lon="11.933947055180086"><ele>215.0</ele><time>2026-05-01T14:25:52.999Z</time></trkpt><trkpt lat="45.9308782890948" lon="11.93423223841875"><ele>215.66666666666669</ele><time>2026-05-01T14:25:53.999Z</time></trkpt><trkpt lat="45.930756457074935" lon="11.934503667642893"><ele>216.33333333333331</ele><time>2026-05-01T14:25:54.999Z</time></trkpt><trkpt lat="45.930624811855274" lon="11.934758908082593"><ele>217.0</ele><time>2026-05-01T14:25:55.999Z</time></trkpt><trkpt lat="45.930477395551186" lon="11.935001922866629"><ele>216.0</ele><time>2026-05-01T14:25:57Z</time></trkpt><trkpt lat="45.93031922621418" lon="11.935232903779456"><ele>215.0</ele><time>2026-05-01T14:25:58Z</time></trkpt><trkpt lat="45.93014586598039" lon="11.935446400399659"><ele>216.0</ele><time>2026-05-01T14:25:59Z</time></trkpt><trkpt lat="45.92995352466875" lon="11.93564012435765"><ele>217.0</ele><time>2026-05-01T14:26:00Z</time></trkpt><trkpt lat="45.92975073290641" lon="11.935815926602606"><ele>213.0</ele><time>2026-05-01T14:26:01Z</time></trkpt><trkpt lat="45.929538098853584" lon="11.935976067147662"><ele>209.0</ele><time>2026-05-01T14:26:02Z</time></trkpt><trkpt lat="45.929321797127656" lon="11.936139334912538"><ele>212.5</ele><time>2026-05-01T14:26:03Z</time></trkpt><trkpt lat="45.92910417483311" lon="11.936305301406172"><ele>216.0</ele><time>2026-05-01T14:26:04Z</time></trkpt><trkpt lat="45.92889167277678" lon="11.936468627998778"><ele>216.0</ele><time>2026-05-01T14:26:05Z</time></trkpt><trkpt lat="45.928684988124665" lon="11.936635389146437"><ele>216.0</ele><time>2026-05-01T14:26:06Z</time></trkpt><trkpt lat="45.92848353020654" lon="11.93682156097021"><ele>215.5</ele><time>2026-05-01T14:26:07Z</time></trkpt><trkpt lat="45.92829084032476" lon="11.93703104764498"><ele>215.0</ele><time>2026-05-01T14:26:08Z</time></trkpt><trkpt lat="45.92810031697277" lon="11.93725004698761"><ele>215.0</ele><time>2026-05-01T14:26:09Z</time></trkpt><trkpt lat="45.92793079112705" lon="11.937505503815402"><ele>215.0</ele><time>2026-05-01T14:26:10Z</time></trkpt><trkpt lat="45.92777607247519" lon="11.937777451055224"><ele>216.5</ele><time>2026-05-01T14:26:11Z</time></trkpt><trkpt lat="45.92762769697951" lon="11.938049508716947"><ele>218.0</ele><time>2026-05-01T14:26:12Z</time></trkpt><trkpt lat="45.92747899621052" lon="11.938322162790858"><ele>217.0</ele><time>2026-05-01T14:26:13Z</time></trkpt><trkpt lat="45.927333205177725" lon="11.938603450146134"><ele>216.0</ele><time>2026-05-01T14:26:14Z</time></trkpt><trkpt lat="45.92730740904816" lon="11.939011973482264"><ele>214.5</ele><time>2026-05-01T14:26:15Z</time></trkpt><trkpt lat="45.92719341549769" lon="11.93931553883376"><ele>213.0</ele><time>2026-05-01T14:26:16Z</time></trkpt><trkpt lat="45.92708356766955" lon="11.939607371684383"><ele>213.0</ele><time>2026-05-01T14:26:17Z</time></trkpt><trkpt lat="45.926979888926795" lon="11.93988828738678"><ele>213.0</ele><time>2026-05-01T14:26:18Z</time></trkpt><trkpt lat="45.92687809341526" lon="11.940157333724702"><ele>213.0</ele><time>2026-05-01T14:26:18.999Z</time></trkpt><trkpt lat="45.926781224398134" lon="11.940418050238417"><ele>214.66666666666669</ele><time>2026-05-01T14:26:19.999Z</time></trkpt><trkpt lat="45.92668540732031" lon="11.940670250153936"><ele>216.33333333333334</ele><time>2026-05-01T14:26:20.999Z</time></trkpt><trkpt lat="45.92658128847555" lon="11.94091928612668"><ele>218.0</ele><time>2026-05-01T14:26:21.999Z</time></trkpt><trkpt lat="45.92646672448029" lon="11.941169859176933"><ele>218.0</ele><time>2026-05-01T14:26:22.999Z</time></trkpt><trkpt lat="45.926342009733474" lon="11.94140475303558"><ele>218.0</ele><time>2026-05-01T14:26:23.999Z</time></trkpt><trkpt lat="45.92621739332083" lon="11.941621821170267"><ele>218.0</ele><time>2026-05-01T14:26:24.999Z</time></trkpt><trkpt lat="45.926088918972916" lon="11.941830768980253"><ele>218.0</ele><time>2026-05-01T14:26:25.999Z</time></trkpt><trkpt lat="45.92595530084834" lon="11.942040055481247"><ele>218.0</ele><time>2026-05-01T14:26:26.999Z</time></trkpt><trkpt lat="45.92581986331589" lon="11.942218357470882"><ele>218.0</ele><time>2026-05-01T14:26:27.999Z</time></trkpt><trkpt lat="45.92568146590472" lon="11.942386965640017"><ele>219.66666666666669</ele><time>2026-05-01T14:26:28.999Z</time></trkpt><trkpt lat="45.92553365701455" lon="11.942557219695436"><ele>221.33333333333331</ele><time>2026-05-01T14:26:29.999Z</time></trkpt><trkpt lat="45.92537786706828" lon="11.942730699970877"><ele>223.0</ele><time>2026-05-01T14:26:30.999Z</time></trkpt><trkpt lat="45.92522259877591" lon="11.942901211962418"><ele>223.0</ele><time>2026-05-01T14:26:31.999Z</time></trkpt><trkpt lat="45.925069234077974" lon="11.94306595042878"><ele>223.0</ele><time>2026-05-01T14:26:32.999Z</time></trkpt><trkpt lat="45.92491771599923" lon="11.94323002694719"><ele>223.0</ele><time>2026-05-01T14:26:33.999Z</time></trkpt><trkpt lat="45.92476941654507" lon="11.943383748833035"><ele>223.75</ele><time>2026-05-01T14:26:34.999Z</time></trkpt><trkpt lat="45.924629799510264" lon="11.94351852156442"><ele>224.5</ele><time>2026-05-01T14:26:35.999Z</time></trkpt><trkpt lat="45.92450721131555" lon="11.943641063627373"><ele>225.25</ele><time>2026-05-01T14:26:36.999Z</time></trkpt><trkpt lat="45.92440703763355" lon="11.943749962994204"><ele>226.0</ele><time>2026-05-01T14:26:37.999Z</time></trkpt><trkpt lat="45.92429473608813" lon="11.943879540950098"><ele>226.0</ele><time>2026-05-01T14:26:38.999Z</time></trkpt><trkpt lat="45.92416200120655" lon="11.944018391715357"><ele>226.0</ele><time>2026-05-01T14:26:39.999Z</time></trkpt><trkpt lat="45.924006561892085" lon="11.944180914288763"><ele>226.0</ele><time>2026-05-01T14:26:40.999Z</time></trkpt><trkpt lat="45.923841986204344" lon="11.944373369687238"><ele>225.5</ele><time>2026-05-01T14:26:41.999Z</time></trkpt><trkpt lat="45.92366485806629" lon="11.944583783465832"><ele>225.0</ele><time>2026-05-01T14:26:42.999Z</time></trkpt><trkpt lat="45.923485668074115" lon="11.944796746954053"><ele>226.0</ele><time>2026-05-01T14:26:43.999Z</time></trkpt><trkpt lat="45.923305971616735" lon="11.944988873727779"><ele>227.0</ele><time>2026-05-01T14:26:44.999Z</time></trkpt><trkpt lat="45.92312249585327" lon="11.945146855079178"><ele>228.0</ele><time>2026-05-01T14:26:45.999Z</time></trkpt><trkpt lat="45.92294039200737" lon="11.945271696257555"><ele>227.66666666666669</ele><time>2026-05-01T14:26:46.999Z</time></trkpt><trkpt lat="45.922766233715954" lon="11.945351763982877"><ele>227.33333333333334</ele><time>2026-05-01T14:26:47.999Z</time></trkpt><trkpt lat="45.92259090884599" lon="11.94541575954621"><ele>227.0</ele><time>2026-05-01T14:26:48.999Z</time></trkpt><trkpt lat="45.922413263529144" lon="11.945458574065858"><ele>227.0</ele><time>2026-05-01T14:26:49.999Z</time></trkpt><trkpt lat="45.922233320341235" lon="11.945487940390654"><ele>227.0</ele><time>2026-05-01T14:26:50.999Z</time></trkpt><trkpt lat="45.92205337741252" lon="11.945495553672073"><ele>227.0</ele><time>2026-05-01T14:26:51.999Z</time></trkpt><trkpt lat="45.92187187013034" lon="11.945471488500983"><ele>226.66666666666669</ele><time>2026-05-01T14:26:52.999Z</time></trkpt><trkpt lat="45.92168848891931" lon="11.945429725372696"><ele>226.33333333333331</ele><time>2026-05-01T14:26:53.999Z</time></trkpt><trkpt lat="45.921506876077814" lon="11.945368548423296"><ele>226.0</ele><time>2026-05-01T14:26:54.999Z</time></trkpt><trkpt lat="45.92133317061252" lon="11.945291375676234"><ele>226.0</ele><time>2026-05-01T14:26:55.999Z</time></trkpt><trkpt lat="45.921180557875175" lon="11.945195548077281"><ele>226.0</ele><time>2026-05-01T14:26:56.999Z</time></trkpt><trkpt lat="45.921036186422015" lon="11.945078790143475"><ele>226.0</ele><time>2026-05-01T14:26:57.999Z</time></trkpt><trkpt lat="45.92090219374934" lon="11.944957310746739"><ele>226.0</ele><time>2026-05-01T14:26:58.999Z</time></trkpt><trkpt lat="45.9207802593115" lon="11.9448368223976"><ele>226.0</ele><time>2026-05-01T14:26:59.999Z</time></trkpt><trkpt lat="45.920660264716965" lon="11.94471619940678"><ele>226.0</ele><time>2026-05-01T14:27:00.999Z</time></trkpt><trkpt lat="45.9205426311058" lon="11.944592633856827"><ele>226.0</ele><time>2026-05-01T14:27:01.999Z</time></trkpt><trkpt lat="45.92042253004349" lon="11.94446802915913"><ele>226.0</ele><time>2026-05-01T14:27:02.999Z</time></trkpt><trkpt lat="45.92030209805044" lon="11.94434354814183"><ele>226.0</ele><time>2026-05-01T14:27:03.999Z</time></trkpt><trkpt lat="45.92018021345167" lon="11.944219000400901"><ele>226.0</ele><time>2026-05-01T14:27:04.999Z</time></trkpt><trkpt lat="45.92005802488613" lon="11.944090520149878"><ele>226.0</ele><time>2026-05-01T14:27:05.999Z</time></trkpt><trkpt lat="45.91993521330798" lon="11.9439641263869"><ele>225.66666666666666</ele><time>2026-05-01T14:27:06.999Z</time></trkpt><trkpt lat="45.91981007336828" lon="11.943831796923558"><ele>225.33333333333331</ele><time>2026-05-01T14:27:07.999Z</time></trkpt><trkpt lat="45.91968501798234" lon="11.943701737367714"><ele>225.0</ele><time>2026-05-01T14:27:08.999Z</time></trkpt><trkpt lat="45.91956012535773" lon="11.94357334067811"><ele>225.0</ele><time>2026-05-01T14:27:09.999Z</time></trkpt><trkpt lat="45.91943591877141" lon="11.943447077592053"><ele>225.0</ele><time>2026-05-01T14:27:10.999Z</time></trkpt><trkpt lat="45.91931317255986" lon="11.943321220081359"><ele>225.0</ele><time>2026-05-01T14:27:11.999Z</time></trkpt><trkpt lat="45.91919215332129" lon="11.94319707369179"><ele>223.33333333333331</ele><time>2026-05-01T14:27:12.999Z</time></trkpt><trkpt lat="45.9190702138313" lon="11.943073837499382"><ele>221.66666666666666</ele><time>2026-05-01T14:27:13.999Z</time></trkpt><trkpt lat="45.91894343265021" lon="11.942949410839628"><ele>220.0</ele><time>2026-05-01T14:27:14.999Z</time></trkpt><trkpt lat="45.918815086486745" lon="11.94282363471499"><ele>220.0</ele><time>2026-05-01T14:27:15.999Z</time></trkpt><trkpt lat="45.9186782235704" lon="11.942692451047355"><ele>220.0</ele><time>2026-05-01T14:27:16.999Z</time></trkpt><trkpt lat="45.91852865718539" lon="11.942561192601234"><ele>220.0</ele><time>2026-05-01T14:27:17.999Z</time></trkpt><trkpt lat="45.9183650477189" lon="11.942433224436932"><ele>220.66666666666666</ele><time>2026-05-01T14:27:18.999Z</time></trkpt><trkpt lat="45.91818762981969" lon="11.94230863342627"><ele>221.33333333333331</ele><time>2026-05-01T14:27:19.999Z</time></trkpt><trkpt lat="45.91799672631773" lon="11.942187651501913"><ele>222.0</ele><time>2026-05-01T14:27:20.999Z</time></trkpt><trkpt lat="45.917802626032945" lon="11.942087897327145"><ele>222.0</ele><time>2026-05-01T14:27:21.999Z</time></trkpt><trkpt lat="45.917609960341885" lon="11.942017716467715"><ele>222.0</ele><time>2026-05-01T14:27:22.999Z</time></trkpt><trkpt lat="45.91741623716162" lon="11.941973913275742"><ele>222.0</ele><time>2026-05-01T14:27:23.999Z</time></trkpt><trkpt lat="45.91721897369617" lon="11.941940152786193"><ele>221.0</ele><time>2026-05-01T14:27:24.999Z</time></trkpt><trkpt lat="45.917020756157214" lon="11.94190957781544"><ele>220.0</ele><time>2026-05-01T14:27:25.999Z</time></trkpt><trkpt lat="45.91680313937244" lon="11.941851959275247"><ele>219.0</ele><time>2026-05-01T14:27:26.999Z</time></trkpt><trkpt lat="45.916570024425226" lon="11.941814735310528"><ele>214.5</ele><time>2026-05-01T14:27:27.999Z</time></trkpt><trkpt lat="45.91632284815939" lon="11.941774516449986"><ele>210.0</ele><time>2026-05-01T14:27:28.999Z</time></trkpt><trkpt lat="45.91606596934999" lon="11.941733151956562"><ele>212.0</ele><time>2026-05-01T14:27:29.999Z</time></trkpt><trkpt lat="45.91580179039119" lon="11.941710385349781"><ele>214.0</ele><time>2026-05-01T14:27:30.999Z</time></trkpt><trkpt lat="45.915539509113266" lon="11.941671012668419"><ele>214.0</ele><time>2026-05-01T14:27:31.999Z</time></trkpt><trkpt lat="45.915275903188544" lon="11.941629986528147"><ele>214.0</ele><time>2026-05-01T14:27:32.999Z</time></trkpt><trkpt lat="45.9150160917867" lon="11.941587588016372"><ele>211.0</ele><time>2026-05-01T14:27:33.999Z</time></trkpt><trkpt lat="45.914762213182534" lon="11.941524164090026"><ele>208.0</ele><time>2026-05-01T14:27:34.999Z</time></trkpt><trkpt lat="45.914522618672294" lon="11.941485880455545"><ele>208.0</ele><time>2026-05-01T14:27:35.999Z</time></trkpt><trkpt lat="45.91429549622991" lon="11.94144933950079"><ele>208.0</ele><time>2026-05-01T14:27:36.999Z</time></trkpt><trkpt lat="45.914079454190436" lon="11.941414569260639"><ele>208.0</ele><time>2026-05-01T14:27:37.999Z</time></trkpt><trkpt lat="45.91386988910363" lon="11.941380818463497"><ele>204.66666666666666</ele><time>2026-05-01T14:27:38.999Z</time></trkpt><trkpt lat="45.91365850744621" lon="11.9413467730482"><ele>201.33333333333331</ele><time>2026-05-01T14:27:39.999Z</time></trkpt><trkpt lat="45.91345215325217" lon="11.94131399678802"><ele>198.0</ele><time>2026-05-01T14:27:40.999Z</time></trkpt><trkpt lat="45.913246941007536" lon="11.941281853562288"><ele>197.0</ele><time>2026-05-01T14:27:41.999Z</time></trkpt><trkpt lat="45.9130447858468" lon="11.941251606467032"><ele>196.0</ele><time>2026-05-01T14:27:42.999Z</time></trkpt><trkpt lat="45.91284079410459" lon="11.94123622882976"><ele>195.0</ele><time>2026-05-01T14:27:43.999Z</time></trkpt><trkpt lat="45.91263411987786" lon="11.941240525876447"><ele>192.5</ele><time>2026-05-01T14:27:44.999Z</time></trkpt><trkpt lat="45.91240909730295" lon="11.941267033626707"><ele>190.0</ele><time>2026-05-01T14:27:45.999Z</time></trkpt><trkpt lat="45.912161343965444" lon="11.941316222819717"><ele>190.0</ele><time>2026-05-01T14:27:46.999Z</time></trkpt><trkpt lat="45.911894282397796" lon="11.94137162744538"><ele>190.0</ele><time>2026-05-01T14:27:47.999Z</time></trkpt><trkpt lat="45.91162495864852" lon="11.941427501393518"><ele>191.0</ele><time>2026-05-01T14:27:48.999Z</time></trkpt><trkpt lat="45.91136483130962" lon="11.941481467447819"><ele>192.0</ele><time>2026-05-01T14:27:49.999Z</time></trkpt><trkpt lat="45.911111131332106" lon="11.941534100080922"><ele>193.5</ele><time>2026-05-01T14:27:50.999Z</time></trkpt><trkpt lat="45.91086126226534" lon="11.941585937949295"><ele>195.0</ele><time>2026-05-01T14:27:51.999Z</time></trkpt><trkpt lat="45.91060828767323" lon="11.941649519658581"><ele>186.5</ele><time>2026-05-01T14:27:52.999Z</time></trkpt><trkpt lat="45.91035099940033" lon="11.941723118175"><ele>178.0</ele><time>2026-05-01T14:27:53.999Z</time></trkpt><trkpt lat="45.91008936510342" lon="11.94180854188986"><ele>179.5</ele><time>2026-05-01T14:27:54.999Z</time></trkpt><trkpt lat="45.90983447863627" lon="11.941897973733859"><ele>181.0</ele><time>2026-05-01T14:27:55.999Z</time></trkpt><trkpt lat="45.90960146224902" lon="11.941979732042492"><ele>181.0</ele><time>2026-05-01T14:27:56.999Z</time></trkpt><trkpt lat="45.90938114370182" lon="11.942057131735897"><ele>181.0</ele><time>2026-05-01T14:27:57.999Z</time></trkpt><trkpt lat="45.90917261542682" lon="11.942130503380314"><ele>181.0</ele><time>2026-05-01T14:27:58.999Z</time></trkpt><trkpt lat="45.90897398170634" lon="11.942199575457527"><ele>182.33333333333334</ele><time>2026-05-01T14:27:59.999Z</time></trkpt><trkpt lat="45.908788150130974" lon="11.942263973555882"><ele>183.66666666666666</ele><time>2026-05-01T14:28:00.999Z</time></trkpt><trkpt lat="45.90860979170068" lon="11.94232941756792"><ele>185.0</ele><time>2026-05-01T14:28:01.999Z</time></trkpt><trkpt lat="45.908430625160825" lon="11.942404354665777"><ele>183.66666666666666</ele><time>2026-05-01T14:28:03Z</time></trkpt><trkpt lat="45.90824805121355" lon="11.942427427033685"><ele>182.33333333333334</ele><time>2026-05-01T14:28:04Z</time></trkpt><trkpt lat="45.90805988020512" lon="11.942424978443366"><ele>181.0</ele><time>2026-05-01T14:28:05Z</time></trkpt><trkpt lat="45.907872341299395" lon="11.942386152940475"><ele>181.0</ele><time>2026-05-01T14:28:06Z</time></trkpt><trkpt lat="45.90768889472966" lon="11.942318549298887"><ele>181.0</ele><time>2026-05-01T14:28:07Z</time></trkpt><trkpt lat="45.9075230730177" lon="11.942237707662644"><ele>181.0</ele><time>2026-05-01T14:28:08Z</time></trkpt><trkpt lat="45.9073687897986" lon="11.942166933554903"><ele>180.0</ele><time>2026-05-01T14:28:09Z</time></trkpt><trkpt lat="45.907215532521505" lon="11.942102703596024"><ele>179.0</ele><time>2026-05-01T14:28:10.001Z</time></trkpt><trkpt lat="45.90706343843273" lon="11.942035658431003"><ele>178.0</ele><time>2026-05-01T14:28:11.001Z</time></trkpt><trkpt lat="45.906914711756215" lon="11.941968885067975"><ele>178.0</ele><time>2026-05-01T14:28:12.001Z</time></trkpt><trkpt lat="45.90675969842039" lon="11.941903980548442"><ele>178.0</ele><time>2026-05-01T14:28:13.001Z</time></trkpt><trkpt lat="45.90659981691825" lon="11.941834168484586"><ele>178.0</ele><time>2026-05-01T14:28:14.001Z</time></trkpt><trkpt lat="45.90645014439571" lon="11.941765163506185"><ele>178.25</ele><time>2026-05-01T14:28:15.001Z</time></trkpt><trkpt lat="45.90632687601182" lon="11.94167504813368"><ele>178.5</ele><time>2026-05-01T14:28:16.001Z</time></trkpt><trkpt lat="45.906211909065014" lon="11.941622979116413"><ele>178.75</ele><time>2026-05-01T14:28:17.001Z</time></trkpt><trkpt lat="45.906117894189386" lon="11.941580263437231"><ele>179.0</ele><time>2026-05-01T14:28:18.001Z</time></trkpt><trkpt lat="45.90602727653328" lon="11.941538994337094"><ele>179.0</ele><time>2026-05-01T14:28:19.001Z</time></trkpt><trkpt lat="45.905934744260726" lon="11.941498696518844"><ele>179.0</ele><time>2026-05-01T14:28:20.001Z</time></trkpt><trkpt lat="45.90585047706562" lon="11.941464608768062"><ele>179.0</ele><time>2026-05-01T14:28:21.001Z</time></trkpt><trkpt lat="45.9057768034261" lon="11.941437005073531"><ele>179.0</ele><time>2026-05-01T14:28:22Z</time></trkpt><trkpt lat="45.90570688040554" lon="11.941410835666977"><ele>179.0</ele><time>2026-05-01T14:28:23Z</time></trkpt><trkpt lat="45.90564528061752" lon="11.94138781489773"><ele>179.0</ele><time>2026-05-01T14:28:24Z</time></trkpt><trkpt lat="45.90554314642926" lon="11.941374253660145"><ele>179.66666666666666</ele><time>2026-05-01T14:28:26Z</time></trkpt><trkpt lat="45.90550385047514" lon="11.941290922274035"><ele>180.33333333333331</ele><time>2026-05-01T14:28:28Z</time></trkpt><trkpt lat="45.905455607268436" lon="11.941219377923144"><ele>181.0</ele><time>2026-05-01T14:28:30Z</time></trkpt><trkpt lat="45.905381090666765" lon="11.941105021446408"><ele>181.66666666666666</ele><time>2026-05-01T14:28:32Z</time></trkpt><trkpt lat="45.905374892701545" lon="11.941010610567364"><ele>182.33333333333334</ele><time>2026-05-01T14:28:33Z</time></trkpt><trkpt lat="45.905331989517656" lon="11.940918715511069"><ele>183.0</ele><time>2026-05-01T14:28:34Z</time></trkpt><trkpt lat="45.905200027791246" lon="11.940905154161639"><ele>183.0</ele><time>2026-05-01T14:28:35Z</time></trkpt><trkpt lat="45.905113225311894" lon="11.940986312912356"><ele>183.0</ele><time>2026-05-01T14:28:36Z</time></trkpt><trkpt lat="45.90506946056084" lon="11.94112081426902"><ele>183.0</ele><time>2026-05-01T14:28:37Z</time></trkpt><trkpt lat="45.90505086844497" lon="11.941263885038552"><ele>183.0</ele><time>2026-05-01T14:28:38Z</time></trkpt><trkpt lat="45.904953385526525" lon="11.941401503479208"><ele>183.0</ele><time>2026-05-01T14:28:39Z</time></trkpt><trkpt lat="45.90488563869551" lon="11.941531198668"><ele>185.33333333333334</ele><time>2026-05-01T14:28:40Z</time></trkpt><trkpt lat="45.90474070997787" lon="11.941564796925988"><ele>187.66666666666669</ele><time>2026-05-01T14:28:41Z</time></trkpt><trkpt lat="45.90459479687556" lon="11.941647111398547"><ele>190.0</ele><time>2026-05-01T14:28:42Z</time></trkpt><trkpt lat="45.90442771906524" lon="11.941712419763514"><ele>189.66666666666669</ele><time>2026-05-01T14:28:43Z</time></trkpt><trkpt lat="45.904253761679435" lon="11.941789303525848"><ele>189.33333333333334</ele><time>2026-05-01T14:28:44Z</time></trkpt><trkpt lat="45.9040925551877" lon="11.94185772272525"><ele>189.0</ele><time>2026-05-01T14:28:45Z</time></trkpt><trkpt lat="45.903937823943565" lon="11.941923242457543"><ele>189.0</ele><time>2026-05-01T14:28:46Z</time></trkpt><trkpt lat="45.9037814032273" lon="11.94199078499087"><ele>189.0</ele><time>2026-05-01T14:28:47Z</time></trkpt><trkpt lat="45.90362007477766" lon="11.942058686551638"><ele>189.0</ele><time>2026-05-01T14:28:48Z</time></trkpt><trkpt lat="45.903459323395566" lon="11.942126997556342"><ele>189.33333333333334</ele><time>2026-05-01T14:28:49Z</time></trkpt><trkpt lat="45.90330334694196" lon="11.942191583614559"><ele>189.66666666666669</ele><time>2026-05-01T14:28:50Z</time></trkpt><trkpt lat="45.903154408679306" lon="11.942251424735808"><ele>190.0</ele><time>2026-05-01T14:28:51Z</time></trkpt><trkpt lat="45.90300629917256" lon="11.942307371363176"><ele>190.0</ele><time>2026-05-01T14:28:52Z</time></trkpt><trkpt lat="45.90285768333274" lon="11.942356376631697"><ele>190.0</ele><time>2026-05-01T14:28:53Z</time></trkpt><trkpt lat="45.90270611391473" lon="11.942405072197378"><ele>190.0</ele><time>2026-05-01T14:28:54Z</time></trkpt><trkpt lat="45.90254795955141" lon="11.94245191262229"><ele>189.33333333333334</ele><time>2026-05-01T14:28:55Z</time></trkpt><trkpt lat="45.90238586247937" lon="11.942498418543483"><ele>188.66666666666666</ele><time>2026-05-01T14:28:56Z</time></trkpt><trkpt lat="45.90222005654996" lon="11.94254738306699"><ele>188.0</ele><time>2026-05-01T14:28:57Z</time></trkpt><trkpt lat="45.90205998239642" lon="11.942591293380206"><ele>188.0</ele><time>2026-05-01T14:28:58Z</time></trkpt><trkpt lat="45.90190794557548" lon="11.942630756132408"><ele>188.0</ele><time>2026-05-01T14:28:59Z</time></trkpt><trkpt lat="45.9017613555035" lon="11.942670160067438"><ele>188.0</ele><time>2026-05-01T14:29:00Z</time></trkpt><trkpt lat="45.90161757416869" lon="11.942704435691114"><ele>188.0</ele><time>2026-05-01T14:29:01Z</time></trkpt><trkpt lat="45.901476219890334" lon="11.942729021905944"><ele>187.0</ele><time>2026-05-01T14:29:02Z</time></trkpt><trkpt lat="45.90133189597518" lon="11.942754471422912"><ele>186.0</ele><time>2026-05-01T14:29:03Z</time></trkpt><trkpt lat="45.901178304694696" lon="11.942784843916767"><ele>185.0</ele><time>2026-05-01T14:29:04Z</time></trkpt><trkpt lat="45.901018174710664" lon="11.942819111741235"><ele>185.33333333333331</ele><time>2026-05-01T14:29:05Z</time></trkpt><trkpt lat="45.900859027234986" lon="11.94285297063908"><ele>185.66666666666666</ele><time>2026-05-01T14:29:06Z</time></trkpt><trkpt lat="45.90070455284798" lon="11.942884022571"><ele>186.0</ele><time>2026-05-01T14:29:07Z</time></trkpt><trkpt lat="45.900561232780774" lon="11.942910607764297"><ele>186.0</ele><time>2026-05-01T14:29:08Z</time></trkpt><trkpt lat="45.900433212268865" lon="11.942931473957758"><ele>186.0</ele><time>2026-05-01T14:29:09Z</time></trkpt><trkpt lat="45.90031431931899" lon="11.942943610224132"><ele>186.0</ele><time>2026-05-01T14:29:10Z</time></trkpt><trkpt lat="45.900204439488355" lon="11.942946923432668"><ele>186.0</ele><time>2026-05-01T14:29:11Z</time></trkpt><trkpt lat="45.90010269080132" lon="11.942945101434908"><ele>185.66666666666666</ele><time>2026-05-01T14:29:12Z</time></trkpt><trkpt lat="45.90001654438155" lon="11.94294380991926"><ele>185.33333333333334</ele><time>2026-05-01T14:29:13Z</time></trkpt><trkpt lat="45.89993585352553" lon="11.942942983288166"><ele>185.0</ele><time>2026-05-01T14:29:14Z</time></trkpt><trkpt lat="45.89985578633486" lon="11.9429320193105"><ele>184.66666666666669</ele><time>2026-05-01T14:29:15Z</time></trkpt><trkpt lat="45.89977798239838" lon="11.942901848598076"><ele>184.33333333333334</ele><time>2026-05-01T14:29:16Z</time></trkpt><trkpt lat="45.8997066859444" lon="11.942871597499103"><ele>184.0</ele><time>2026-05-01T14:29:17Z</time></trkpt><trkpt lat="45.899627464511575" lon="11.942856780016825"><ele>184.0</ele><time>2026-05-01T14:29:18Z</time></trkpt><trkpt lat="45.899559851306385" lon="11.942846397867028"><ele>184.0</ele><time>2026-05-01T14:29:19Z</time></trkpt><trkpt lat="45.899496886970226" lon="11.942841498637833"><ele>184.0</ele><time>2026-05-01T14:29:20Z</time></trkpt><trkpt lat="45.89942046519816" lon="11.94282846951213"><ele>184.0</ele><time>2026-05-01T14:29:21Z</time></trkpt><trkpt lat="45.89933123529037" lon="11.94279081216252"><ele>184.0</ele><time>2026-05-01T14:29:22Z</time></trkpt><trkpt lat="45.899223663495" lon="11.94273802141163"><ele>184.0</ele><time>2026-05-01T14:29:23Z</time></trkpt><trkpt lat="45.899099155394325" lon="11.942692038482388"><ele>183.0</ele><time>2026-05-01T14:29:24Z</time></trkpt><trkpt lat="45.89897114596344" lon="11.942662855331802"><ele>182.0</ele><time>2026-05-01T14:29:25Z</time></trkpt><trkpt lat="45.89883722779523" lon="11.942608667866054"><ele>181.0</ele><time>2026-05-01T14:29:26Z</time></trkpt><trkpt lat="45.898691401701385" lon="11.942579416708778"><ele>180.0</ele><time>2026-05-01T14:29:27Z</time></trkpt><trkpt lat="45.89853122851928" lon="11.942567545649734"><ele>178.0</ele><time>2026-05-01T14:29:28Z</time></trkpt><trkpt lat="45.89836193699591" lon="11.942569806940257"><ele>176.0</ele><time>2026-05-01T14:29:29Z</time></trkpt><trkpt lat="45.898184576554414" lon="11.942586808942051"><ele>174.0</ele><time>2026-05-01T14:29:30Z</time></trkpt><trkpt lat="45.89800944194255" lon="11.942603692104221"><ele>174.0</ele><time>2026-05-01T14:29:31Z</time></trkpt><trkpt lat="45.89784157046773" lon="11.942620922385034"><ele>174.0</ele><time>2026-05-01T14:29:32Z</time></trkpt><trkpt lat="45.897680619827746" lon="11.94263566679221"><ele>174.0</ele><time>2026-05-01T14:29:33Z</time></trkpt><trkpt lat="45.89752169086809" lon="11.942646928403876"><ele>174.0</ele><time>2026-05-01T14:29:34Z</time></trkpt><trkpt lat="45.89736830209191" lon="11.942651435247388"><ele>174.0</ele><time>2026-05-01T14:29:35Z</time></trkpt><trkpt lat="45.89721346186949" lon="11.942653280502803"><ele>174.0</ele><time>2026-05-01T14:29:36Z</time></trkpt><trkpt lat="45.89705970269206" lon="11.94264850189712"><ele>174.0</ele><time>2026-05-01T14:29:37Z</time></trkpt><trkpt lat="45.896906589750465" lon="11.94263629401944"><ele>174.0</ele><time>2026-05-01T14:29:38Z</time></trkpt><trkpt lat="45.89675380215601" lon="11.942621206151319"><ele>174.0</ele><time>2026-05-01T14:29:39Z</time></trkpt><trkpt lat="45.89660229567251" lon="11.942613112085043"><ele>174.66666666666666</ele><time>2026-05-01T14:29:40Z</time></trkpt><trkpt lat="45.89644414754365" lon="11.942591954893345"><ele>175.33333333333331</ele><time>2026-05-01T14:29:41Z</time></trkpt><trkpt lat="45.89628667094404" lon="11.942565521704342"><ele>176.0</ele><time>2026-05-01T14:29:42Z</time></trkpt><trkpt lat="45.89612109190979" lon="11.942541087028351"><ele>178.33333333333331</ele><time>2026-05-01T14:29:43Z</time></trkpt><trkpt lat="45.89595889822142" lon="11.942507836110059"><ele>180.66666666666666</ele><time>2026-05-01T14:29:44Z</time></trkpt><trkpt lat="45.89578359973896" lon="11.94247325866755"><ele>183.0</ele><time>2026-05-01T14:29:45Z</time></trkpt><trkpt lat="45.89560061002093" lon="11.942440694051024"><ele>183.0</ele><time>2026-05-01T14:29:46Z</time></trkpt><trkpt lat="45.89541814755976" lon="11.942438544060497"><ele>183.0</ele><time>2026-05-01T14:29:47Z</time></trkpt><trkpt lat="45.89519944237602" lon="11.942401568896175"><ele>183.0</ele><time>2026-05-01T14:29:48Z</time></trkpt><trkpt lat="45.89496554407747" lon="11.942364719566061"><ele>180.5</ele><time>2026-05-01T14:29:49Z</time></trkpt><trkpt lat="45.894721534677494" lon="11.94234449161101"><ele>178.0</ele><time>2026-05-01T14:29:50Z</time></trkpt><trkpt lat="45.894484481114354" lon="11.942338882960156"><ele>178.0</ele><time>2026-05-01T14:29:51Z</time></trkpt><trkpt lat="45.894261452170085" lon="11.942377050239324"><ele>178.0</ele><time>2026-05-01T14:29:52Z</time></trkpt><trkpt lat="45.89404292509802" lon="11.942459567064319"><ele>174.0</ele><time>2026-05-01T14:29:53Z</time></trkpt><trkpt lat="45.8938348961252" lon="11.942585440310088"><ele>170.0</ele><time>2026-05-01T14:29:54Z</time></trkpt><trkpt lat="45.89362565365852" lon="11.942704336950575"><ele>170.0</ele><time>2026-05-01T14:29:55Z</time></trkpt><trkpt lat="45.8934289656851" lon="11.94284376471826"><ele>170.0</ele><time>2026-05-01T14:29:56Z</time></trkpt><trkpt lat="45.89324332796839" lon="11.943013264357157"><ele>170.0</ele><time>2026-05-01T14:29:57Z</time></trkpt><trkpt lat="45.89305212007785" lon="11.943151855864908"><ele>170.33333333333331</ele><time>2026-05-01T14:29:58Z</time></trkpt><trkpt lat="45.892867749964715" lon="11.943281855814387"><ele>170.66666666666666</ele><time>2026-05-01T14:29:59Z</time></trkpt><trkpt lat="45.89268597808756" lon="11.943392738898677"><ele>171.0</ele><time>2026-05-01T14:30:00Z</time></trkpt><trkpt lat="45.89250307703399" lon="11.943483452035753"><ele>172.66666666666666</ele><time>2026-05-01T14:30:01Z</time></trkpt><trkpt lat="45.89231749863951" lon="11.943556663342065"><ele>174.33333333333331</ele><time>2026-05-01T14:30:02Z</time></trkpt><trkpt lat="45.892124069428995" lon="11.943620434067729"><ele>176.0</ele><time>2026-05-01T14:30:03Z</time></trkpt><trkpt lat="45.891926945984466" lon="11.943678167646283"><ele>175.66666666666666</ele><time>2026-05-01T14:30:04Z</time></trkpt><trkpt lat="45.891733706394604" lon="11.943719856030036"><ele>175.33333333333334</ele><time>2026-05-01T14:30:04.999Z</time></trkpt><trkpt lat="45.891543314788436" lon="11.943726992042688"><ele>175.0</ele><time>2026-05-01T14:30:05.999Z</time></trkpt><trkpt lat="45.89136419432669" lon="11.943762789904648"><ele>175.0</ele><time>2026-05-01T14:30:06.999Z</time></trkpt><trkpt lat="45.891188133114404" lon="11.94379630023088"><ele>175.0</ele><time>2026-05-01T14:30:07.999Z</time></trkpt><trkpt lat="45.89101376600225" lon="11.943826659494361"><ele>175.0</ele><time>2026-05-01T14:30:09.001Z</time></trkpt><trkpt lat="45.89085491539995" lon="11.943854317166087"><ele>175.33333333333334</ele><time>2026-05-01T14:30:10.001Z</time></trkpt><trkpt lat="45.89069437327989" lon="11.943881222012587"><ele>175.66666666666666</ele><time>2026-05-01T14:30:11.001Z</time></trkpt><trkpt lat="45.89053380821223" lon="11.943911452447173"><ele>176.0</ele><time>2026-05-01T14:30:12.001Z</time></trkpt><trkpt lat="45.890364837652534" lon="11.943961050219313"><ele>176.0</ele><time>2026-05-01T14:30:13.001Z</time></trkpt><trkpt lat="45.89019534774036" lon="11.94403730827848"><ele>176.0</ele><time>2026-05-01T14:30:14.001Z</time></trkpt><trkpt lat="45.890023914287866" lon="11.944154541044714"><ele>176.0</ele><time>2026-05-01T14:30:15.001Z</time></trkpt><trkpt lat="45.889832861438755" lon="11.944329790947897"><ele>175.0</ele><time>2026-05-01T14:30:16.001Z</time></trkpt><trkpt lat="45.88960446118633" lon="11.944538381662243"><ele>174.0</ele><time>2026-05-01T14:30:17.001Z</time></trkpt><trkpt lat="45.88932554615318" lon="11.9447964972404"><ele>171.5</ele><time>2026-05-01T14:30:18.001Z</time></trkpt><trkpt lat="45.88900834806214" lon="11.945072178076238"><ele>169.0</ele><time>2026-05-01T14:30:19.001Z</time></trkpt><trkpt lat="45.88867926210204" lon="11.945355957634352"><ele>169.5</ele><time>2026-05-01T14:30:20.001Z</time></trkpt><trkpt lat="45.88835701239073" lon="11.945648459304547"><ele>170.0</ele><time>2026-05-01T14:30:21.001Z</time></trkpt><trkpt lat="45.88805454589194" lon="11.945921707941848"><ele>170.0</ele><time>2026-05-01T14:30:22.001Z</time></trkpt><trkpt lat="45.887773062387886" lon="11.94617661121381"><ele>170.0</ele><time>2026-05-01T14:30:23.001Z</time></trkpt><trkpt lat="45.88753119369617" lon="11.946399021866455"><ele>170.0</ele><time>2026-05-01T14:30:24Z</time></trkpt><trkpt lat="45.887308141759085" lon="11.946603434312681"><ele>170.0</ele><time>2026-05-01T14:30:25Z</time></trkpt><trkpt lat="45.88708979668588" lon="11.946802243798912"><ele>170.0</ele><time>2026-05-01T14:30:26Z</time></trkpt><trkpt lat="45.88688747550655" lon="11.94698133277089"><ele>170.0</ele><time>2026-05-01T14:30:27Z</time></trkpt><trkpt lat="45.88670584743357" lon="11.947154584060895"><ele>169.66666666666666</ele><time>2026-05-01T14:30:28Z</time></trkpt><trkpt lat="45.88654803658225" lon="11.947338008296889"><ele>169.33333333333334</ele><time>2026-05-01T14:30:29Z</time></trkpt><trkpt lat="45.88642022203538" lon="11.947540606965005"><ele>169.0</ele><time>2026-05-01T14:30:30Z</time></trkpt><trkpt lat="45.88631133761989" lon="11.947734064699393"><ele>169.0</ele><time>2026-05-01T14:30:31Z</time></trkpt><trkpt lat="45.88621528812881" lon="11.947921236394077"><ele>169.0</ele><time>2026-05-01T14:30:32Z</time></trkpt><trkpt lat="45.8861239902288" lon="11.948110982066568"><ele>169.0</ele><time>2026-05-01T14:30:33Z</time></trkpt><trkpt lat="45.88603303157549" lon="11.948308229466315"><ele>169.0</ele><time>2026-05-01T14:30:34Z</time></trkpt><trkpt lat="45.885947525054696" lon="11.948501320065168"><ele>169.0</ele><time>2026-05-01T14:30:35Z</time></trkpt><trkpt lat="45.88586275010039" lon="11.948696832897806"><ele>169.0</ele><time>2026-05-01T14:30:36Z</time></trkpt><trkpt lat="45.885787773245866" lon="11.94890425107151"><ele>169.33333333333334</ele><time>2026-05-01T14:30:37Z</time></trkpt><trkpt lat="45.885697548064634" lon="11.949158600774844"><ele>169.66666666666666</ele><time>2026-05-01T14:30:38Z</time></trkpt><trkpt lat="45.885588339615076" lon="11.949465235518193"><ele>170.0</ele><time>2026-05-01T14:30:39Z</time></trkpt><trkpt lat="45.88547640925689" lon="11.949818812766617"><ele>166.0</ele><time>2026-05-01T14:30:40Z</time></trkpt><trkpt lat="45.885388014011575" lon="11.95021408112019"><ele>162.0</ele><time>2026-05-01T14:30:41Z</time></trkpt><trkpt lat="45.885296903514366" lon="11.950628440357303"><ele>164.0</ele><time>2026-05-01T14:30:42Z</time></trkpt><trkpt lat="45.88520799309192" lon="11.951033699519366"><ele>166.0</ele><time>2026-05-01T14:30:43Z</time></trkpt><trkpt lat="45.88512072534969" lon="11.951441751794494"><ele>175.0</ele><time>2026-05-01T14:30:44Z</time></trkpt><trkpt lat="45.885041572993934" lon="11.951859963814568"><ele>184.0</ele><time>2026-05-01T14:30:45Z</time></trkpt><trkpt lat="45.88496623177286" lon="11.952289419595115"><ele>180.5</ele><time>2026-05-01T14:30:46Z</time></trkpt><trkpt lat="45.88490025642339" lon="11.952724121132405"><ele>177.0</ele><time>2026-05-01T14:30:47Z</time></trkpt><trkpt lat="45.88483881442869" lon="11.95313481318507"><ele>174.5</ele><time>2026-05-01T14:30:48Z</time></trkpt><trkpt lat="45.884774076363975" lon="11.953505001651978"><ele>172.0</ele><time>2026-05-01T14:30:49Z</time></trkpt><trkpt lat="45.88469497335939" lon="11.953845597372359"><ele>172.0</ele><time>2026-05-01T14:30:50Z</time></trkpt><trkpt lat="45.88458839533694" lon="11.954171828397193"><ele>172.0</ele><time>2026-05-01T14:30:51Z</time></trkpt><trkpt lat="45.88442805056764" lon="11.95445452819151"><ele>172.0</ele><time>2026-05-01T14:30:52Z</time></trkpt><trkpt lat="45.884266297641666" lon="11.954762460704716"><ele>172.0</ele><time>2026-05-01T14:30:53Z</time></trkpt><trkpt lat="45.88407952755058" lon="11.955068523793086"><ele>170.5</ele><time>2026-05-01T14:30:54Z</time></trkpt><trkpt lat="45.88388990495011" lon="11.955386405307863"><ele>169.0</ele><time>2026-05-01T14:30:55Z</time></trkpt><trkpt lat="45.88369887116466" lon="11.955702881447133"><ele>167.5</ele><time>2026-05-01T14:30:56Z</time></trkpt><trkpt lat="45.88350685153231" lon="11.956022198652484"><ele>166.0</ele><time>2026-05-01T14:30:57Z</time></trkpt><trkpt lat="45.8833206667075" lon="11.956338897199089"><ele>167.0</ele><time>2026-05-01T14:30:58Z</time></trkpt><trkpt lat="45.883131846235855" lon="11.956650625696646"><ele>168.0</ele><time>2026-05-01T14:30:59Z</time></trkpt><trkpt lat="45.882945075569225" lon="11.956961647989518"><ele>168.0</ele><time>2026-05-01T14:31:00Z</time></trkpt><trkpt lat="45.882746287034315" lon="11.95724947811423"><ele>168.0</ele><time>2026-05-01T14:31:01Z</time></trkpt><trkpt lat="45.882560147843016" lon="11.957544915962197"><ele>168.5</ele><time>2026-05-01T14:31:02Z</time></trkpt><trkpt lat="45.88237583612705" lon="11.957826380569404"><ele>169.0</ele><time>2026-05-01T14:31:03Z</time></trkpt><trkpt lat="45.882191971255025" lon="11.958101956631172"><ele>169.0</ele><time>2026-05-01T14:31:04Z</time></trkpt><trkpt lat="45.88201729266216" lon="11.958364133312879"><ele>169.0</ele><time>2026-05-01T14:31:05Z</time></trkpt><trkpt lat="45.88185665969286" lon="11.958636303015501"><ele>168.5</ele><time>2026-05-01T14:31:06Z</time></trkpt><trkpt lat="45.881709502038184" lon="11.958915436298348"><ele>168.0</ele><time>2026-05-01T14:31:07Z</time></trkpt><trkpt lat="45.88158718715519" lon="11.95920869287616"><ele>168.0</ele><time>2026-05-01T14:31:08Z</time></trkpt><trkpt lat="45.88145420444227" lon="11.959483642363079"><ele>168.0</ele><time>2026-05-01T14:31:09Z</time></trkpt><trkpt lat="45.881323435649996" lon="11.959758077148472"><ele>168.0</ele><time>2026-05-01T14:31:10Z</time></trkpt><trkpt lat="45.881194099327175" lon="11.960033269418677"><ele>168.0</ele><time>2026-05-01T14:31:11Z</time></trkpt><trkpt lat="45.88106828389947" lon="11.960301620351668"><ele>168.0</ele><time>2026-05-01T14:31:12Z</time></trkpt><trkpt lat="45.88093651045942" lon="11.960562180745756"><ele>168.0</ele><time>2026-05-01T14:31:13Z</time></trkpt><trkpt lat="45.880797966673605" lon="11.960818334662806"><ele>170.0</ele><time>2026-05-01T14:31:14Z</time></trkpt><trkpt lat="45.88065106555192" lon="11.961067849336091"><ele>172.0</ele><time>2026-05-01T14:31:15Z</time></trkpt><trkpt lat="45.88049286026695" lon="11.961297479457402"><ele>172.0</ele><time>2026-05-01T14:31:16Z</time></trkpt><trkpt lat="45.880332561897724" lon="11.961512336539865"><ele>172.0</ele><time>2026-05-01T14:31:17Z</time></trkpt><trkpt lat="45.88017074499964" lon="11.961719490410923"><ele>172.0</ele><time>2026-05-01T14:31:18Z</time></trkpt><trkpt lat="45.88001055636193" lon="11.961925722503452"><ele>171.66666666666669</ele><time>2026-05-01T14:31:19Z</time></trkpt><trkpt lat="45.879854120572055" lon="11.962125141397308"><ele>171.33333333333334</ele><time>2026-05-01T14:31:20Z</time></trkpt><trkpt lat="45.87969965936784" lon="11.962312615561045"><ele>171.0</ele><time>2026-05-01T14:31:21Z</time></trkpt><trkpt lat="45.87954921321159" lon="11.962487018663218"><ele>170.0</ele><time>2026-05-01T14:31:22Z</time></trkpt><trkpt lat="45.879401031202164" lon="11.962632457991205"><ele>169.0</ele><time>2026-05-01T14:31:23Z</time></trkpt><trkpt lat="45.87923793643765" lon="11.962742830086603"><ele>168.0</ele><time>2026-05-01T14:31:24Z</time></trkpt><trkpt lat="45.87905317849631" lon="11.962800799079107"><ele>168.0</ele><time>2026-05-01T14:31:25Z</time></trkpt><trkpt lat="45.87885485279294" lon="11.962856491344265"><ele>168.0</ele><time>2026-05-01T14:31:26Z</time></trkpt><trkpt lat="45.87865482891675" lon="11.962916151793308"><ele>168.0</ele><time>2026-05-01T14:31:27Z</time></trkpt><trkpt lat="45.87845593282557" lon="11.962965478741651"><ele>171.33333333333334</ele><time>2026-05-01T14:31:28Z</time></trkpt><trkpt lat="45.87825343559199" lon="11.963007687651487"><ele>174.66666666666669</ele><time>2026-05-01T14:31:29Z</time></trkpt><trkpt lat="45.87804966812935" lon="11.963046804542454"><ele>178.0</ele><time>2026-05-01T14:31:30Z</time></trkpt><trkpt lat="45.87784876341709" lon="11.963085682467668"><ele>178.0</ele><time>2026-05-01T14:31:31Z</time></trkpt><trkpt lat="45.87765375733116" lon="11.963123524251849"><ele>178.0</ele><time>2026-05-01T14:31:32Z</time></trkpt><trkpt lat="45.87746171522885" lon="11.963157559363193"><ele>178.0</ele><time>2026-05-01T14:31:33Z</time></trkpt><trkpt lat="45.8772731889699" lon="11.963182246609836"><ele>178.33333333333334</ele><time>2026-05-01T14:31:34Z</time></trkpt><trkpt lat="45.877088564800204" lon="11.963212579756597"><ele>178.66666666666666</ele><time>2026-05-01T14:31:35Z</time></trkpt><trkpt lat="45.8769054033178" lon="11.963252003261069"><ele>179.0</ele><time>2026-05-01T14:31:36Z</time></trkpt><trkpt lat="45.876721266640786" lon="11.963291857284565"><ele>179.66666666666666</ele><time>2026-05-01T14:31:37Z</time></trkpt><trkpt lat="45.876538244905746" lon="11.96333691798234"><ele>180.33333333333334</ele><time>2026-05-01T14:31:38Z</time></trkpt><trkpt lat="45.876356441165775" lon="11.96339074857939"><ele>181.0</ele><time>2026-05-01T14:31:39Z</time></trkpt><trkpt lat="45.8761753384759" lon="11.963455389251411"><ele>180.66666666666669</ele><time>2026-05-01T14:31:40Z</time></trkpt><trkpt lat="45.87599439466243" lon="11.963530786310468"><ele>180.33333333333334</ele><time>2026-05-01T14:31:41Z</time></trkpt><trkpt lat="45.87581626106119" lon="11.963619418136824"><ele>180.0</ele><time>2026-05-01T14:31:42Z</time></trkpt><trkpt lat="45.875639848176434" lon="11.963719283707366"><ele>180.0</ele><time>2026-05-01T14:31:43Z</time></trkpt><trkpt lat="45.87546041058429" lon="11.963836663264418"><ele>180.0</ele><time>2026-05-01T14:31:44Z</time></trkpt><trkpt lat="45.875277080770886" lon="11.963956572800905"><ele>180.0</ele><time>2026-05-01T14:31:45Z</time></trkpt><trkpt lat="45.87508782272648" lon="11.964077054298933"><ele>177.66666666666666</ele><time>2026-05-01T14:31:46Z</time></trkpt><trkpt lat="45.87489793696546" lon="11.964197230296563"><ele>175.33333333333331</ele><time>2026-05-01T14:31:47Z</time></trkpt><trkpt lat="45.8747082738389" lon="11.964318362700812"><ele>173.0</ele><time>2026-05-01T14:31:48Z</time></trkpt><trkpt lat="45.87452029374717" lon="11.964444198375901"><ele>173.0</ele><time>2026-05-01T14:31:49Z</time></trkpt><trkpt lat="45.87433071975728" lon="11.96456993126801"><ele>173.0</ele><time>2026-05-01T14:31:50Z</time></trkpt><trkpt lat="45.874138830848906" lon="11.964692339545712"><ele>173.0</ele><time>2026-05-01T14:31:51Z</time></trkpt><trkpt lat="45.873942398647145" lon="11.964814719723346"><ele>172.66666666666666</ele><time>2026-05-01T14:31:52Z</time></trkpt><trkpt lat="45.87374116592534" lon="11.964941271505834"><ele>172.33333333333334</ele><time>2026-05-01T14:31:53Z</time></trkpt><trkpt lat="45.87353777843935" lon="11.965070738713806"><ele>172.0</ele><time>2026-05-01T14:31:54Z</time></trkpt><trkpt lat="45.87333368581747" lon="11.965204674637143"><ele>173.0</ele><time>2026-05-01T14:31:55Z</time></trkpt><trkpt lat="45.87313610215888" lon="11.965345175495555"><ele>174.0</ele><time>2026-05-01T14:31:56Z</time></trkpt><trkpt lat="45.87294730795142" lon="11.965498477013075"><ele>175.0</ele><time>2026-05-01T14:31:57Z</time></trkpt><trkpt lat="45.87277944578117" lon="11.965663809020622"><ele>175.0</ele><time>2026-05-01T14:31:58Z</time></trkpt><trkpt lat="45.87262821337765" lon="11.965832878236487"><ele>175.0</ele><time>2026-05-01T14:31:59Z</time></trkpt><trkpt lat="45.87248288146753" lon="11.96600315632449"><ele>175.0</ele><time>2026-05-01T14:32:00Z</time></trkpt><trkpt lat="45.87235307655997" lon="11.966171292268168"><ele>175.5</ele><time>2026-05-01T14:32:01Z</time></trkpt><trkpt lat="45.8722371959974" lon="11.966330767457736"><ele>176.0</ele><time>2026-05-01T14:32:02Z</time></trkpt><trkpt lat="45.872134363468" lon="11.966479218571079"><ele>176.5</ele><time>2026-05-01T14:32:03Z</time></trkpt><trkpt lat="45.872045175469374" lon="11.96660786848306"><ele>177.0</ele><time>2026-05-01T14:32:04Z</time></trkpt><trkpt lat="45.871971250908835" lon="11.96671855260652"><ele>176.66666666666666</ele><time>2026-05-01T14:32:05Z</time></trkpt><trkpt lat="45.87190661960718" lon="11.966813663987878"><ele>176.33333333333334</ele><time>2026-05-01T14:32:05.999Z</time></trkpt><trkpt lat="45.87184762521785" lon="11.966890545734387"><ele>176.0</ele><time>2026-05-01T14:32:06.999Z</time></trkpt><trkpt lat="45.87179606932851" lon="11.966943211586708"><ele>175.66666666666669</ele><time>2026-05-01T14:32:07.999Z</time></trkpt><trkpt lat="45.871727118890874" lon="11.966983167503193"><ele>175.33333333333334</ele><time>2026-05-01T14:32:09.999Z</time></trkpt><trkpt lat="45.871645346316804" lon="11.966997864210997"><ele>175.0</ele><time>2026-05-01T14:32:12.999Z</time></trkpt><trkpt lat="45.8715631455246" lon="11.966973864959156"><ele>175.0</ele><time>2026-05-01T14:32:16Z</time></trkpt><trkpt lat="45.87146453728034" lon="11.966917681416339"><ele>175.0</ele><time>2026-05-01T14:32:18Z</time></trkpt><trkpt lat="45.871405917071534" lon="11.966866201102206"><ele>175.0</ele><time>2026-05-01T14:32:19Z</time></trkpt><trkpt lat="45.87133778422977" lon="11.966816729502323"><ele>175.0</ele><time>2026-05-01T14:32:20Z</time></trkpt><trkpt lat="45.87126322800091" lon="11.966787129936918"><ele>175.0</ele><time>2026-05-01T14:32:21Z</time></trkpt><trkpt lat="45.87118531083623" lon="11.966784525423478"><ele>175.0</ele><time>2026-05-01T14:32:22Z</time></trkpt><trkpt lat="45.87111508879885" lon="11.966819182045601"><ele>175.0</ele><time>2026-05-01T14:32:23Z</time></trkpt><trkpt lat="45.87104978188521" lon="11.96688797706431"><ele>175.0</ele><time>2026-05-01T14:32:24Z</time></trkpt><trkpt lat="45.87100393730613" lon="11.966986260770936"><ele>175.0</ele><time>2026-05-01T14:32:25Z</time></trkpt><trkpt lat="45.8709798723112" lon="11.96709325619139"><ele>175.0</ele><time>2026-05-01T14:32:26Z</time></trkpt><trkpt lat="45.87097915456398" lon="11.967204152859908"><ele>175.0</ele><time>2026-05-01T14:32:27Z</time></trkpt><trkpt lat="45.87098862508297" lon="11.967302896101485"><ele>175.0</ele><time>2026-05-01T14:32:28Z</time></trkpt><trkpt lat="45.87105036232389" lon="11.96746732003146"><ele>175.75</ele><time>2026-05-01T14:32:30Z</time></trkpt><trkpt lat="45.87099867099994" lon="11.967608105357515"><ele>176.5</ele><time>2026-05-01T14:32:31Z</time></trkpt><trkpt lat="45.870993844405476" lon="11.96773755967647"><ele>177.25</ele><time>2026-05-01T14:32:32Z</time></trkpt><trkpt lat="45.870878078689586" lon="11.967850458076231"><ele>178.0</ele><time>2026-05-01T14:32:33Z</time></trkpt><trkpt lat="45.87077458511939" lon="11.967949782253207"><ele>178.0</ele><time>2026-05-01T14:32:34Z</time></trkpt><trkpt lat="45.870659609421104" lon="11.968060092193479"><ele>178.0</ele><time>2026-05-01T14:32:35Z</time></trkpt><trkpt lat="45.87052784293799" lon="11.968191186769237"><ele>178.0</ele><time>2026-05-01T14:32:36Z</time></trkpt><trkpt lat="45.870380856898414" lon="11.968341778157262"><ele>179.33333333333334</ele><time>2026-05-01T14:32:37Z</time></trkpt><trkpt lat="45.87021428212963" lon="11.968481995758228"><ele>180.66666666666666</ele><time>2026-05-01T14:32:38Z</time></trkpt><trkpt lat="45.87006460100173" lon="11.968631544946515"><ele>182.0</ele><time>2026-05-01T14:32:39Z</time></trkpt><trkpt lat="45.869921005224725" lon="11.968782019622445"><ele>182.0</ele><time>2026-05-01T14:32:40Z</time></trkpt><trkpt lat="45.86977846345004" lon="11.96894721270131"><ele>182.0</ele><time>2026-05-01T14:32:41Z</time></trkpt><trkpt lat="45.86964168192734" lon="11.969121501644526"><ele>182.0</ele><time>2026-05-01T14:32:42Z</time></trkpt><trkpt lat="45.86952388767472" lon="11.969317814608264"><ele>183.66666666666666</ele><time>2026-05-01T14:32:43Z</time></trkpt><trkpt lat="45.86940907200198" lon="11.969494982012815"><ele>185.33333333333334</ele><time>2026-05-01T14:32:44Z</time></trkpt><trkpt lat="45.869290906359666" lon="11.969660211091513"><ele>187.0</ele><time>2026-05-01T14:32:45Z</time></trkpt><trkpt lat="45.86920219354383" lon="11.969864259646286"><ele>184.66666666666669</ele><time>2026-05-01T14:32:46Z</time></trkpt><trkpt lat="45.86910163113459" lon="11.970070310200205"><ele>182.33333333333334</ele><time>2026-05-01T14:32:47Z</time></trkpt><trkpt lat="45.86900670643222" lon="11.97028330147698"><ele>180.0</ele><time>2026-05-01T14:32:48Z</time></trkpt><trkpt lat="45.868912040978294" lon="11.970510116959309"><ele>180.0</ele><time>2026-05-01T14:32:49Z</time></trkpt><trkpt lat="45.86881657543702" lon="11.970758612988012"><ele>180.0</ele><time>2026-05-01T14:32:50Z</time></trkpt><trkpt lat="45.868717687901245" lon="11.971021615945538"><ele>180.0</ele><time>2026-05-01T14:32:51Z</time></trkpt><trkpt lat="45.868613699208915" lon="11.97128922433234"><ele>181.33333333333334</ele><time>2026-05-01T14:32:52Z</time></trkpt><trkpt lat="45.8685094835667" lon="11.971555652410618"><ele>182.66666666666669</ele><time>2026-05-01T14:32:53Z</time></trkpt><trkpt lat="45.86840605816093" lon="11.971817092105086"><ele>184.0</ele><time>2026-05-01T14:32:54Z</time></trkpt><trkpt lat="45.86830847964321" lon="11.972072592742853"><ele>184.0</ele><time>2026-05-01T14:32:55Z</time></trkpt><trkpt lat="45.86821438954486" lon="11.97232372999388"><ele>184.0</ele><time>2026-05-01T14:32:56Z</time></trkpt><trkpt lat="45.868119278134664" lon="11.972571845064827"><ele>184.0</ele><time>2026-05-01T14:32:57Z</time></trkpt><trkpt lat="45.86802355238521" lon="11.97282207940701"><ele>181.0</ele><time>2026-05-01T14:32:58Z</time></trkpt><trkpt lat="45.86792606964611" lon="11.973076209935567"><ele>178.0</ele><time>2026-05-01T14:32:59Z</time></trkpt><trkpt lat="45.86782924275039" lon="11.973330229791003"><ele>175.0</ele><time>2026-05-01T14:33:00Z</time></trkpt><trkpt lat="45.867733546208406" lon="11.973585580032683"><ele>173.0</ele><time>2026-05-01T14:33:01Z</time></trkpt><trkpt lat="45.86763780319136" lon="11.973837337979635"><ele>171.0</ele><time>2026-05-01T14:33:02Z</time></trkpt><trkpt lat="45.86754291623186" lon="11.974082627809246"><ele>169.0</ele><time>2026-05-01T14:33:03Z</time></trkpt><trkpt lat="45.8674508128647" lon="11.974326243213179"><ele>171.33333333333334</ele><time>2026-05-01T14:33:04Z</time></trkpt><trkpt lat="45.86735764111287" lon="11.974565197265397"><ele>173.66666666666666</ele><time>2026-05-01T14:33:05Z</time></trkpt><trkpt lat="45.86726522750306" lon="11.974801535494722"><ele>176.0</ele><time>2026-05-01T14:33:06Z</time></trkpt><trkpt lat="45.86715960304547" lon="11.975020957844338"><ele>176.0</ele><time>2026-05-01T14:33:07Z</time></trkpt><trkpt lat="45.867067552589575" lon="11.975257917739281"><ele>176.0</ele><time>2026-05-01T14:33:08Z</time></trkpt><trkpt lat="45.866971057224845" lon="11.97550582404716"><ele>176.0</ele><time>2026-05-01T14:33:09Z</time></trkpt><trkpt lat="45.86686977723657" lon="11.975764995400043"><ele>177.33333333333331</ele><time>2026-05-01T14:33:10Z</time></trkpt><trkpt lat="45.866765381160434" lon="11.976032205951688"><ele>178.66666666666666</ele><time>2026-05-01T14:33:11Z</time></trkpt><trkpt lat="45.86665890333111" lon="11.976303826738356"><ele>180.0</ele><time>2026-05-01T14:33:12Z</time></trkpt><trkpt lat="45.8665643664273" lon="11.976585731511344"><ele>179.0</ele><time>2026-05-01T14:33:13Z</time></trkpt><trkpt lat="45.86645211269495" lon="11.976860438975526"><ele>178.0</ele><time>2026-05-01T14:33:14Z</time></trkpt><trkpt lat="45.86633879990252" lon="11.977142042407253"><ele>177.0</ele><time>2026-05-01T14:33:15Z</time></trkpt><trkpt lat="45.866225845556734" lon="11.977422624256342"><ele>176.66666666666666</ele><time>2026-05-01T14:33:16Z</time></trkpt><trkpt lat="45.86611622679408" lon="11.977703663628153"><ele>176.33333333333331</ele><time>2026-05-01T14:33:17Z</time></trkpt><trkpt lat="45.866007296101294" lon="11.977985583779606"><ele>176.0</ele><time>2026-05-01T14:33:18Z</time></trkpt><trkpt lat="45.865902313466805" lon="11.978267517749016"><ele>177.33333333333331</ele><time>2026-05-01T14:33:19Z</time></trkpt><trkpt lat="45.86580350739701" lon="11.978554618650968"><ele>178.66666666666666</ele><time>2026-05-01T14:33:20Z</time></trkpt><trkpt lat="45.86571197084473" lon="11.978843318529977"><ele>180.0</ele><time>2026-05-01T14:33:21Z</time></trkpt><trkpt lat="45.86562857308378" lon="11.979132289499807"><ele>179.33333333333334</ele><time>2026-05-01T14:33:22Z</time></trkpt><trkpt lat="45.865554925201195" lon="11.979420453487062"><ele>178.66666666666669</ele><time>2026-05-01T14:33:23Z</time></trkpt><trkpt lat="45.86548910935295" lon="11.979702721053242"><ele>178.0</ele><time>2026-05-01T14:33:24Z</time></trkpt><trkpt lat="45.86543012051706" lon="11.979979372031549"><ele>176.66666666666669</ele><time>2026-05-01T14:33:25Z</time></trkpt><trkpt lat="45.86538518041002" lon="11.980251383855402"><ele>175.33333333333334</ele><time>2026-05-01T14:33:26Z</time></trkpt><trkpt lat="45.86534932450059" lon="11.980520306188874"><ele>174.0</ele><time>2026-05-01T14:33:27Z</time></trkpt><trkpt lat="45.865324755152024" lon="11.980793953167291"><ele>174.66666666666666</ele><time>2026-05-01T14:33:28Z</time></trkpt><trkpt lat="45.86529906798575" lon="11.981078778363177"><ele>175.33333333333331</ele><time>2026-05-01T14:33:29Z</time></trkpt><trkpt lat="45.8652652130582" lon="11.981373737098586"><ele>176.0</ele><time>2026-05-01T14:33:30Z</time></trkpt><trkpt lat="45.865235663697106" lon="11.981676532915793"><ele>175.66666666666666</ele><time>2026-05-01T14:33:31Z</time></trkpt><trkpt lat="45.865213979870006" lon="11.981985834268027"><ele>175.33333333333334</ele><time>2026-05-01T14:33:32Z</time></trkpt><trkpt lat="45.865191924579214" lon="11.98229106799303"><ele>175.0</ele><time>2026-05-01T14:33:33Z</time></trkpt><trkpt lat="45.8651680642166" lon="11.982592241192522"><ele>175.0</ele><time>2026-05-01T14:33:34Z</time></trkpt><trkpt lat="45.86514453136637" lon="11.982885621716399"><ele>175.0</ele><time>2026-05-01T14:33:35Z</time></trkpt><trkpt lat="45.86512025262046" lon="11.983174577702147"><ele>175.0</ele><time>2026-05-01T14:33:36Z</time></trkpt><trkpt lat="45.86509446761571" lon="11.9834690203917"><ele>175.0</ele><time>2026-05-01T14:33:37Z</time></trkpt><trkpt lat="45.865069393787884" lon="11.983765132426514"><ele>175.0</ele><time>2026-05-01T14:33:38Z</time></trkpt><trkpt lat="45.86504355928568" lon="11.98406735268416"><ele>175.0</ele><time>2026-05-01T14:33:39Z</time></trkpt><trkpt lat="45.86501747261894" lon="11.984376729104165"><ele>175.0</ele><time>2026-05-01T14:33:40Z</time></trkpt><trkpt lat="45.8649930524456" lon="11.984694473852258"><ele>175.0</ele><time>2026-05-01T14:33:41Z</time></trkpt><trkpt lat="45.86496977495253" lon="11.98502679024249"><ele>175.0</ele><time>2026-05-01T14:33:42Z</time></trkpt><trkpt lat="45.864941699417166" lon="11.985374579306036"><ele>175.0</ele><time>2026-05-01T14:33:43Z</time></trkpt><trkpt lat="45.86490756721833" lon="11.985731618915944"><ele>174.0</ele><time>2026-05-01T14:33:44Z</time></trkpt><trkpt lat="45.86486986459862" lon="11.986098461093448"><ele>173.0</ele><time>2026-05-01T14:33:45Z</time></trkpt><trkpt lat="45.86483042090331" lon="11.986469774127961"><ele>172.0</ele><time>2026-05-01T14:33:46Z</time></trkpt><trkpt lat="45.864789450256254" lon="11.98683123225775"><ele>171.0</ele><time>2026-05-01T14:33:47Z</time></trkpt><trkpt lat="45.864745791978194" lon="11.987186263275067"><ele>168.5</ele><time>2026-05-01T14:33:48Z</time></trkpt><trkpt lat="45.86469845154168" lon="11.987535016267476"><ele>166.0</ele><time>2026-05-01T14:33:49Z</time></trkpt><trkpt lat="45.864642733786255" lon="11.987878828446776"><ele>166.0</ele><time>2026-05-01T14:33:50Z</time></trkpt><trkpt lat="45.86457775176677" lon="11.988215256696318"><ele>166.0</ele><time>2026-05-01T14:33:51Z</time></trkpt><trkpt lat="45.86450729042921" lon="11.98854114318883"><ele>166.0</ele><time>2026-05-01T14:33:52Z</time></trkpt><trkpt lat="45.86442909952444" lon="11.98885804292247"><ele>166.0</ele><time>2026-05-01T14:33:53Z</time></trkpt><trkpt lat="45.86433921742434" lon="11.989167104076614"><ele>168.5</ele><time>2026-05-01T14:33:54Z</time></trkpt><trkpt lat="45.864236184402365" lon="11.989470250931712"><ele>171.0</ele><time>2026-05-01T14:33:55Z</time></trkpt><trkpt lat="45.86412221033802" lon="11.98976615186146"><ele>171.0</ele><time>2026-05-01T14:33:56Z</time></trkpt><trkpt lat="45.863995525167205" lon="11.990057190849951"><ele>171.0</ele><time>2026-05-01T14:33:57Z</time></trkpt><trkpt lat="45.86385638489543" lon="11.990343634319192"><ele>171.0</ele><time>2026-05-01T14:33:58Z</time></trkpt><trkpt lat="45.86370116864215" lon="11.990625111165983"><ele>171.0</ele><time>2026-05-01T14:33:59Z</time></trkpt><trkpt lat="45.86353942994409" lon="11.99089862575728"><ele>166.0</ele><time>2026-05-01T14:34:00Z</time></trkpt><trkpt lat="45.86336335602228" lon="11.991161129747136"><ele>161.0</ele><time>2026-05-01T14:34:01Z</time></trkpt><trkpt lat="45.86318170785653" lon="11.99141546083859"><ele>161.0</ele><time>2026-05-01T14:34:02Z</time></trkpt><trkpt lat="45.86299580740653" lon="11.991658700539523"><ele>161.0</ele><time>2026-05-01T14:34:03Z</time></trkpt><trkpt lat="45.862808625303956" lon="11.99189420208656"><ele>160.0</ele><time>2026-05-01T14:34:04Z</time></trkpt><trkpt lat="45.86262104268359" lon="11.992117429998657"><ele>159.0</ele><time>2026-05-01T14:34:05Z</time></trkpt><trkpt lat="45.862435950316986" lon="11.992334672681427"><ele>156.5</ele><time>2026-05-01T14:34:06Z</time></trkpt><trkpt lat="45.86225511994982" lon="11.992539601752139"><ele>154.0</ele><time>2026-05-01T14:34:07Z</time></trkpt><trkpt lat="45.862077056287326" lon="11.992741998484712"><ele>154.0</ele><time>2026-05-01T14:34:08Z</time></trkpt><trkpt lat="45.86190244435508" lon="11.992945363950751"><ele>154.0</ele><time>2026-05-01T14:34:09Z</time></trkpt><trkpt lat="45.86173006927917" lon="11.993151416532092"><ele>154.0</ele><time>2026-05-01T14:34:09.999Z</time></trkpt><trkpt lat="45.86155701040112" lon="11.993361244972554"><ele>155.0</ele><time>2026-05-01T14:34:10.999Z</time></trkpt><trkpt lat="45.861384370821455" lon="11.993576972722567"><ele>156.0</ele><time>2026-05-01T14:34:11.999Z</time></trkpt><trkpt lat="45.86121410360533" lon="11.993799566741428"><ele>156.0</ele><time>2026-05-01T14:34:12.999Z</time></trkpt><trkpt lat="45.861047233346994" lon="11.994028839137604"><ele>156.0</ele><time>2026-05-01T14:34:13.999Z</time></trkpt><trkpt lat="45.860884512356435" lon="11.99426822505301"><ele>161.0</ele><time>2026-05-01T14:34:14.999Z</time></trkpt><trkpt lat="45.86072584711927" lon="11.994519146891749"><ele>166.0</ele><time>2026-05-01T14:34:15.999Z</time></trkpt><trkpt lat="45.860573383651555" lon="11.994777636944066"><ele>167.5</ele><time>2026-05-01T14:34:16.999Z</time></trkpt><trkpt lat="45.86042770294518" lon="11.995053405865464"><ele>169.0</ele><time>2026-05-01T14:34:17.999Z</time></trkpt><trkpt lat="45.86028639605312" lon="11.995332860911288"><ele>169.0</ele><time>2026-05-01T14:34:18.999Z</time></trkpt><trkpt lat="45.86015311488014" lon="11.995612847041702"><ele>169.0</ele><time>2026-05-01T14:34:19.999Z</time></trkpt><trkpt lat="45.86002510416117" lon="11.995888101473117"><ele>168.0</ele><time>2026-05-01T14:34:21Z</time></trkpt><trkpt lat="45.85990207763581" lon="11.996158528798837"><ele>167.0</ele><time>2026-05-01T14:34:22Z</time></trkpt><trkpt lat="45.85978486718823" lon="11.996425677070329"><ele>166.0</ele><time>2026-05-01T14:34:23Z</time></trkpt><trkpt lat="45.85966605350993" lon="11.996687624100549"><ele>166.0</ele><time>2026-05-01T14:34:24Z</time></trkpt><trkpt lat="45.85954907112095" lon="11.99695001546456"><ele>166.0</ele><time>2026-05-01T14:34:25Z</time></trkpt><trkpt lat="45.85943043247878" lon="11.997209258522918"><ele>166.0</ele><time>2026-05-01T14:34:26Z</time></trkpt><trkpt lat="45.85930396828126" lon="11.997470539420778"><ele>165.5</ele><time>2026-05-01T14:34:27Z</time></trkpt><trkpt lat="45.859171035499784" lon="11.997730617206397"><ele>165.0</ele><time>2026-05-01T14:34:28Z</time></trkpt><trkpt lat="45.859034069078675" lon="11.997989085727786"><ele>165.0</ele><time>2026-05-01T14:34:29Z</time></trkpt><trkpt lat="45.858892078786276" lon="11.99824597475456"><ele>165.0</ele><time>2026-05-01T14:34:30Z</time></trkpt><trkpt lat="45.85874323890873" lon="11.99849833010186"><ele>165.5</ele><time>2026-05-01T14:34:31Z</time></trkpt><trkpt lat="45.85858067351287" lon="11.998733454206597"><ele>166.0</ele><time>2026-05-01T14:34:32Z</time></trkpt><trkpt lat="45.85841103310267" lon="11.998953881975153"><ele>166.0</ele><time>2026-05-01T14:34:33Z</time></trkpt><trkpt lat="45.85823500131837" lon="11.999162197333087"><ele>166.0</ele><time>2026-05-01T14:34:34Z</time></trkpt><trkpt lat="45.85806242563321" lon="11.999372355576764"><ele>166.0</ele><time>2026-05-01T14:34:35Z</time></trkpt><trkpt lat="45.85789044722505" lon="11.99957864526058"><ele>166.0</ele><time>2026-05-01T14:34:36Z</time></trkpt><trkpt lat="45.85771892782886" lon="11.999774328410865"><ele>166.0</ele><time>2026-05-01T14:34:37Z</time></trkpt><trkpt lat="45.85754568554843" lon="11.99996619616584"><ele>166.0</ele><time>2026-05-01T14:34:38Z</time></trkpt><trkpt lat="45.857371978260545" lon="12.00015653935247"><ele>166.0</ele><time>2026-05-01T14:34:39Z</time></trkpt><trkpt lat="45.85719655694658" lon="12.00034993265597"><ele>166.0</ele><time>2026-05-01T14:34:40Z</time></trkpt><trkpt lat="45.8570163180512" lon="12.00054947109495"><ele>166.0</ele><time>2026-05-01T14:34:41Z</time></trkpt><trkpt lat="45.85683501655871" lon="12.00074339992201"><ele>166.0</ele><time>2026-05-01T14:34:42Z</time></trkpt><trkpt lat="45.856652584485275" lon="12.000936215738605"><ele>165.33333333333334</ele><time>2026-05-01T14:34:43Z</time></trkpt><trkpt lat="45.8564710572737" lon="12.001130886088358"><ele>164.66666666666666</ele><time>2026-05-01T14:34:44Z</time></trkpt><trkpt lat="45.85629292359696" lon="12.001319906839589"><ele>164.0</ele><time>2026-05-01T14:34:45Z</time></trkpt><trkpt lat="45.8561171238555" lon="12.001506571607935"><ele>164.66666666666666</ele><time>2026-05-01T14:34:46Z</time></trkpt><trkpt lat="45.85593980815445" lon="12.001690211568965"><ele>165.33333333333334</ele><time>2026-05-01T14:34:47Z</time></trkpt><trkpt lat="45.8557654345863" lon="12.001869579420093"><ele>166.0</ele><time>2026-05-01T14:34:48Z</time></trkpt><trkpt lat="45.855584909973715" lon="12.002022495391651"><ele>166.0</ele><time>2026-05-01T14:34:49Z</time></trkpt><trkpt lat="45.85540933949612" lon="12.00219212364188"><ele>166.0</ele><time>2026-05-01T14:34:50Z</time></trkpt><trkpt lat="45.85522774001974" lon="12.002363707012899"><ele>166.0</ele><time>2026-05-01T14:34:51Z</time></trkpt><trkpt lat="45.85503709676431" lon="12.002538717315504"><ele>165.0</ele><time>2026-05-01T14:34:52Z</time></trkpt><trkpt lat="45.85483952971785" lon="12.002719044788163"><ele>164.0</ele><time>2026-05-01T14:34:53Z</time></trkpt><trkpt lat="45.85463602678307" lon="12.002904789959594"><ele>164.0</ele><time>2026-05-01T14:34:54Z</time></trkpt><trkpt lat="45.854429207743244" lon="12.003093879933854"><ele>164.0</ele><time>2026-05-01T14:34:55Z</time></trkpt><trkpt lat="45.85422299986823" lon="12.003286680556412"><ele>165.0</ele><time>2026-05-01T14:34:56Z</time></trkpt><trkpt lat="45.85402366748693" lon="12.003483284943204"><ele>166.0</ele><time>2026-05-01T14:34:57Z</time></trkpt><trkpt lat="45.85383828964747" lon="12.00370614769293"><ele>166.0</ele><time>2026-05-01T14:34:58Z</time></trkpt><trkpt lat="45.85365191043774" lon="12.003914764480307"><ele>166.0</ele><time>2026-05-01T14:34:59Z</time></trkpt><trkpt lat="45.85348096168489" lon="12.004137519264983"><ele>165.0</ele><time>2026-05-01T14:35:00Z</time></trkpt><trkpt lat="45.8533195297268" lon="12.004371924554398"><ele>164.0</ele><time>2026-05-01T14:35:01Z</time></trkpt><trkpt lat="45.85317089081351" lon="12.004616413388629"><ele>164.0</ele><time>2026-05-01T14:35:02Z</time></trkpt><trkpt lat="45.85302750681362" lon="12.0048686441535"><ele>164.0</ele><time>2026-05-01T14:35:03Z</time></trkpt><trkpt lat="45.852882752575134" lon="12.00512068240975"><ele>163.5</ele><time>2026-05-01T14:35:04Z</time></trkpt><trkpt lat="45.852738231360014" lon="12.005367280552724"><ele>163.0</ele><time>2026-05-01T14:35:05Z</time></trkpt><trkpt lat="45.85259474641004" lon="12.005623081844009"><ele>162.0</ele><time>2026-05-01T14:35:06Z</time></trkpt><trkpt lat="45.852450582246995" lon="12.005878027793258"><ele>161.0</ele><time>2026-05-01T14:35:07Z</time></trkpt><trkpt lat="45.85230303136371" lon="12.00612704842442"><ele>161.0</ele><time>2026-05-01T14:35:08Z</time></trkpt><trkpt lat="45.85214556556126" lon="12.00637216988415"><ele>161.0</ele><time>2026-05-01T14:35:09Z</time></trkpt><trkpt lat="45.85198045752006" lon="12.00660481269223"><ele>161.0</ele><time>2026-05-01T14:35:10Z</time></trkpt><trkpt lat="45.85180853775283" lon="12.006830056662485"><ele>161.0</ele><time>2026-05-01T14:35:11Z</time></trkpt><trkpt lat="45.85163525883236" lon="12.007051231365914"><ele>161.5</ele><time>2026-05-01T14:35:12Z</time></trkpt><trkpt lat="45.85145730906854" lon="12.007274005666119"><ele>162.0</ele><time>2026-05-01T14:35:13Z</time></trkpt><trkpt lat="45.85127967613555" lon="12.007492947070896"><ele>162.5</ele><time>2026-05-01T14:35:14Z</time></trkpt><trkpt lat="45.85110061366043" lon="12.007714130818757"><ele>163.0</ele><time>2026-05-01T14:35:15Z</time></trkpt><trkpt lat="45.85091964467502" lon="12.007936505056032"><ele>163.0</ele><time>2026-05-01T14:35:16Z</time></trkpt><trkpt lat="45.85074062412408" lon="12.008157437875255"><ele>163.0</ele><time>2026-05-01T14:35:17Z</time></trkpt><trkpt lat="45.850563320941305" lon="12.008379213580396"><ele>163.0</ele><time>2026-05-01T14:35:18Z</time></trkpt><trkpt lat="45.85038970778597" lon="12.008601389682054"><ele>163.0</ele><time>2026-05-01T14:35:19Z</time></trkpt><trkpt lat="45.850217126725546" lon="12.008818523858366"><ele>162.5</ele><time>2026-05-01T14:35:20Z</time></trkpt><trkpt lat="45.850043702529874" lon="12.009033101683034"><ele>162.0</ele><time>2026-05-01T14:35:21Z</time></trkpt><trkpt lat="45.84987342486337" lon="12.00924181902968"><ele>161.0</ele><time>2026-05-01T14:35:22Z</time></trkpt><trkpt lat="45.849708908594636" lon="12.009442593995692"><ele>160.0</ele><time>2026-05-01T14:35:23Z</time></trkpt><trkpt lat="45.84954060592877" lon="12.009611965331175"><ele>159.0</ele><time>2026-05-01T14:35:24Z</time></trkpt><trkpt lat="45.84939699831115" lon="12.009810523245232"><ele>160.0</ele><time>2026-05-01T14:35:25Z</time></trkpt><trkpt lat="45.8492423991111" lon="12.009985773819444"><ele>161.0</ele><time>2026-05-01T14:35:26Z</time></trkpt><trkpt lat="45.849082893759984" lon="12.010161844495919"><ele>162.0</ele><time>2026-05-01T14:35:27Z</time></trkpt><trkpt lat="45.84892454659171" lon="12.010330929458716"><ele>162.33333333333334</ele><time>2026-05-01T14:35:28Z</time></trkpt><trkpt lat="45.848765340939124" lon="12.01049412411148"><ele>162.66666666666669</ele><time>2026-05-01T14:35:29Z</time></trkpt><trkpt lat="45.84860479509083" lon="12.010652003343274"><ele>163.0</ele><time>2026-05-01T14:35:30Z</time></trkpt><trkpt lat="45.84844049789083" lon="12.010801169360565"><ele>162.33333333333334</ele><time>2026-05-01T14:35:31Z</time></trkpt><trkpt lat="45.84827543815708" lon="12.010940571972414"><ele>161.66666666666666</ele><time>2026-05-01T14:35:32Z</time></trkpt><trkpt lat="45.848107689226275" lon="12.011074729497803"><ele>161.0</ele><time>2026-05-01T14:35:33Z</time></trkpt><trkpt lat="45.8479367076137" lon="12.011204054058759"><ele>161.0</ele><time>2026-05-01T14:35:34Z</time></trkpt><trkpt lat="45.84776365285203" lon="12.011326191275952"><ele>161.0</ele><time>2026-05-01T14:35:35Z</time></trkpt><trkpt lat="45.84758518953702" lon="12.011446916632696"><ele>161.0</ele><time>2026-05-01T14:35:36Z</time></trkpt><trkpt lat="45.847403517268575" lon="12.011559783023058"><ele>160.0</ele><time>2026-05-01T14:35:37Z</time></trkpt><trkpt lat="45.84722070431717" lon="12.011664542110028"><ele>159.0</ele><time>2026-05-01T14:35:38Z</time></trkpt><trkpt lat="45.84703335942319" lon="12.011766542442361"><ele>158.0</ele><time>2026-05-01T14:35:39Z</time></trkpt><trkpt lat="45.84683087286574" lon="12.01184728364072"><ele>158.0</ele><time>2026-05-01T14:35:40Z</time></trkpt><trkpt lat="45.846615737170836" lon="12.011951897430714"><ele>158.0</ele><time>2026-05-01T14:35:41Z</time></trkpt><trkpt lat="45.846386596502356" lon="12.012055668278036"><ele>158.0</ele><time>2026-05-01T14:35:42Z</time></trkpt><trkpt lat="45.84614340305459" lon="12.012156033509385"><ele>158.0</ele><time>2026-05-01T14:35:43Z</time></trkpt><trkpt lat="45.84589298463391" lon="12.012256335180881"><ele>158.0</ele><time>2026-05-01T14:35:44Z</time></trkpt><trkpt lat="45.84562848384176" lon="12.012362277358582"><ele>158.0</ele><time>2026-05-01T14:35:45Z</time></trkpt><trkpt lat="45.845358029064926" lon="12.012470434421248"><ele>159.0</ele><time>2026-05-01T14:35:46Z</time></trkpt><trkpt lat="45.84508577013206" lon="12.01257849570236"><ele>160.0</ele><time>2026-05-01T14:35:47Z</time></trkpt><trkpt lat="45.84481472046526" lon="12.012686077029922"><ele>160.0</ele><time>2026-05-01T14:35:48Z</time></trkpt><trkpt lat="45.84454784514104" lon="12.012814418536113"><ele>160.0</ele><time>2026-05-01T14:35:49Z</time></trkpt><trkpt lat="45.844290604358186" lon="12.012915158862004"><ele>160.5</ele><time>2026-05-01T14:35:50Z</time></trkpt><trkpt lat="45.844051546411976" lon="12.013008955236701"><ele>161.0</ele><time>2026-05-01T14:35:51Z</time></trkpt><trkpt lat="45.8438260054319" lon="12.013101117604714"><ele>161.0</ele><time>2026-05-01T14:35:52Z</time></trkpt><trkpt lat="45.84360014967215" lon="12.01316950263068"><ele>161.0</ele><time>2026-05-01T14:35:53Z</time></trkpt><trkpt lat="45.84338974055464" lon="12.013283138746198"><ele>160.33333333333331</ele><time>2026-05-01T14:35:54Z</time></trkpt><trkpt lat="45.843185221586126" lon="12.013370120572802"><ele>159.66666666666666</ele><time>2026-05-01T14:35:55Z</time></trkpt><trkpt lat="45.84298880513061" lon="12.013458948385944"><ele>159.0</ele><time>2026-05-01T14:35:56Z</time></trkpt><trkpt lat="45.84279877791765" lon="12.01354976385874"><ele>158.33333333333334</ele><time>2026-05-01T14:35:57Z</time></trkpt><trkpt lat="45.84260934486355" lon="12.013645771756726"><ele>157.66666666666669</ele><time>2026-05-01T14:35:58Z</time></trkpt><trkpt lat="45.84242728364807" lon="12.013745252821966"><ele>157.0</ele><time>2026-05-01T14:35:59Z</time></trkpt><trkpt lat="45.84225141973835" lon="12.013846811615426"><ele>157.0</ele><time>2026-05-01T14:36:00Z</time></trkpt><trkpt lat="45.842076668955606" lon="12.01395259347113"><ele>157.0</ele><time>2026-05-01T14:36:01Z</time></trkpt><trkpt lat="45.84190169590318" lon="12.014061709740055"><ele>157.0</ele><time>2026-05-01T14:36:02Z</time></trkpt><trkpt lat="45.841725610788465" lon="12.014174267199262"><ele>158.33333333333334</ele><time>2026-05-01T14:36:03Z</time></trkpt><trkpt lat="45.841544665750604" lon="12.014293750596284"><ele>159.66666666666666</ele><time>2026-05-01T14:36:04Z</time></trkpt><trkpt lat="45.84136055726048" lon="12.014417063341547"><ele>161.0</ele><time>2026-05-01T14:36:05Z</time></trkpt><trkpt lat="45.8411765441549" lon="12.014541491931686"><ele>161.0</ele><time>2026-05-01T14:36:06Z</time></trkpt><trkpt lat="45.84099304248175" lon="12.01466685928258"><ele>161.0</ele><time>2026-05-01T14:36:07Z</time></trkpt><trkpt lat="45.84081362877496" lon="12.014793065473937"><ele>161.0</ele><time>2026-05-01T14:36:08Z</time></trkpt><trkpt lat="45.840638910571634" lon="12.014915606527062"><ele>161.33333333333331</ele><time>2026-05-01T14:36:09Z</time></trkpt><trkpt lat="45.84046782207319" lon="12.015032783636265"><ele>161.66666666666666</ele><time>2026-05-01T14:36:10Z</time></trkpt><trkpt lat="45.84030729246592" lon="12.015141530881433"><ele>162.0</ele><time>2026-05-01T14:36:10.999Z</time></trkpt><trkpt lat="45.84015171272432" lon="12.01524825918419"><ele>161.66666666666666</ele><time>2026-05-01T14:36:11.999Z</time></trkpt><trkpt lat="45.839998474565995" lon="12.01535228238487"><ele>161.33333333333331</ele><time>2026-05-01T14:36:12.999Z</time></trkpt><trkpt lat="45.839830855794624" lon="12.015468789601286"><ele>161.0</ele><time>2026-05-01T14:36:13.999Z</time></trkpt><trkpt lat="45.83966689414096" lon="12.0155843533853"><ele>161.0</ele><time>2026-05-01T14:36:14.999Z</time></trkpt><trkpt lat="45.839496682510706" lon="12.015704566499622"><ele>161.0</ele><time>2026-05-01T14:36:15.999Z</time></trkpt><trkpt lat="45.839318666222766" lon="12.015830780374497"><ele>161.0</ele><time>2026-05-01T14:36:16.999Z</time></trkpt><trkpt lat="45.839131445053845" lon="12.015964423444734"><ele>160.33333333333331</ele><time>2026-05-01T14:36:17.999Z</time></trkpt><trkpt lat="45.838935484016304" lon="12.016099435411489"><ele>159.66666666666666</ele><time>2026-05-01T14:36:18.999Z</time></trkpt><trkpt lat="45.83873139394639" lon="12.016238329176268"><ele>159.0</ele><time>2026-05-01T14:36:19.999Z</time></trkpt><trkpt lat="45.83852374444485" lon="12.016380383096836"><ele>159.5</ele><time>2026-05-01T14:36:20.999Z</time></trkpt><trkpt lat="45.83831268908343" lon="12.016528003631691"><ele>160.0</ele><time>2026-05-01T14:36:21.999Z</time></trkpt><trkpt lat="45.838100594736886" lon="12.016680240765979"><ele>160.0</ele><time>2026-05-01T14:36:22.999Z</time></trkpt><trkpt lat="45.83788375449898" lon="12.016830109614041"><ele>160.0</ele><time>2026-05-01T14:36:23.999Z</time></trkpt><trkpt lat="45.83766664683855" lon="12.016980332781795"><ele>159.0</ele><time>2026-05-01T14:36:24.999Z</time></trkpt><trkpt lat="45.83744723508053" lon="12.017130715005456"><ele>158.0</ele><time>2026-05-01T14:36:25.999Z</time></trkpt><trkpt lat="45.83722837305761" lon="12.017281109768428"><ele>158.0</ele><time>2026-05-01T14:36:27Z</time></trkpt><trkpt lat="45.83701365832604" lon="12.017427154529543"><ele>158.0</ele><time>2026-05-01T14:36:28Z</time></trkpt><trkpt lat="45.83680157044113" lon="12.017568859538336"><ele>158.0</ele><time>2026-05-01T14:36:29Z</time></trkpt><trkpt lat="45.836591248260895" lon="12.017706492349587"><ele>158.0</ele><time>2026-05-01T14:36:30Z</time></trkpt><trkpt lat="45.8363754019879" lon="12.017843172885923"><ele>158.0</ele><time>2026-05-01T14:36:31Z</time></trkpt><trkpt lat="45.83615813266351" lon="12.017975446745472"><ele>158.0</ele><time>2026-05-01T14:36:32Z</time></trkpt><trkpt lat="45.83594252570729" lon="12.018093073536589"><ele>157.0</ele><time>2026-05-01T14:36:33Z</time></trkpt><trkpt lat="45.835726878762145" lon="12.018200778458075"><ele>156.0</ele><time>2026-05-01T14:36:34Z</time></trkpt><trkpt lat="45.835513379473184" lon="12.018306821892914"><ele>156.33333333333334</ele><time>2026-05-01T14:36:35Z</time></trkpt><trkpt lat="45.83529963495386" lon="12.01840788926213"><ele>156.66666666666669</ele><time>2026-05-01T14:36:36Z</time></trkpt><trkpt lat="45.835085739389704" lon="12.018503029322211"><ele>157.0</ele><time>2026-05-01T14:36:37Z</time></trkpt><trkpt lat="45.83487669874007" lon="12.018593293717261"><ele>157.0</ele><time>2026-05-01T14:36:38Z</time></trkpt><trkpt lat="45.834684932249914" lon="12.018673283598321"><ele>157.0</ele><time>2026-05-01T14:36:39Z</time></trkpt><trkpt lat="45.83451422358742" lon="12.018744413798455"><ele>157.0</ele><time>2026-05-01T14:36:40Z</time></trkpt><trkpt lat="45.8343568189108" lon="12.018812407663498"><ele>156.66666666666669</ele><time>2026-05-01T14:36:41Z</time></trkpt><trkpt lat="45.834183164521754" lon="12.018885869319943"><ele>156.33333333333334</ele><time>2026-05-01T14:36:42Z</time></trkpt><trkpt lat="45.83400405478144" lon="12.018955689364553"><ele>156.0</ele><time>2026-05-01T14:36:43Z</time></trkpt><trkpt lat="45.833827724091435" lon="12.019026222008385"><ele>156.0</ele><time>2026-05-01T14:36:44Z</time></trkpt><trkpt lat="45.83365531274382" lon="12.019099387354737"><ele>156.0</ele><time>2026-05-01T14:36:45Z</time></trkpt><trkpt lat="45.83348606124034" lon="12.019171462907421"><ele>156.0</ele><time>2026-05-01T14:36:46Z</time></trkpt><trkpt lat="45.83332191712059" lon="12.019241273260654"><ele>155.66666666666666</ele><time>2026-05-01T14:36:47Z</time></trkpt><trkpt lat="45.83315736411659" lon="12.019307256795638"><ele>155.33333333333331</ele><time>2026-05-01T14:36:48Z</time></trkpt><trkpt lat="45.83298468188461" lon="12.019373606609236"><ele>155.0</ele><time>2026-05-01T14:36:49Z</time></trkpt><trkpt lat="45.83279456955563" lon="12.019444588895626"><ele>154.0</ele><time>2026-05-01T14:36:50Z</time></trkpt><trkpt lat="45.83259169596232" lon="12.01951226213665"><ele>153.0</ele><time>2026-05-01T14:36:51Z</time></trkpt><trkpt lat="45.83238155493246" lon="12.019567855355021"><ele>152.0</ele><time>2026-05-01T14:36:52Z</time></trkpt><trkpt lat="45.832169853652694" lon="12.019615867831115"><ele>152.0</ele><time>2026-05-01T14:36:53Z</time></trkpt><trkpt lat="45.831957594613215" lon="12.01965284334369"><ele>152.0</ele><time>2026-05-01T14:36:54Z</time></trkpt><trkpt lat="45.83175080455687" lon="12.019676317345388"><ele>152.0</ele><time>2026-05-01T14:36:55Z</time></trkpt><trkpt lat="45.83154888562166" lon="12.019689949946589"><ele>152.0</ele><time>2026-05-01T14:36:56Z</time></trkpt><trkpt lat="45.83135156618102" lon="12.019688261217567"><ele>152.0</ele><time>2026-05-01T14:36:57Z</time></trkpt><trkpt lat="45.8311572220053" lon="12.019668196136896"><ele>152.0</ele><time>2026-05-01T14:36:58Z</time></trkpt><trkpt lat="45.83096617932063" lon="12.019636866209204"><ele>151.33333333333331</ele><time>2026-05-01T14:36:59Z</time></trkpt><trkpt lat="45.83077139484307" lon="12.019596836568788"><ele>150.66666666666666</ele><time>2026-05-01T14:37:00Z</time></trkpt><trkpt lat="45.83058275405476" lon="12.019510806192972"><ele>150.0</ele><time>2026-05-01T14:37:01Z</time></trkpt><trkpt lat="45.83039376465683" lon="12.019445368193322"><ele>150.0</ele><time>2026-05-01T14:37:02Z</time></trkpt><trkpt lat="45.83021288962723" lon="12.01937292989123"><ele>150.0</ele><time>2026-05-01T14:37:03Z</time></trkpt><trkpt lat="45.83002424506707" lon="12.019289160387679"><ele>150.0</ele><time>2026-05-01T14:37:04Z</time></trkpt><trkpt lat="45.82983597395237" lon="12.01918712329395"><ele>151.0</ele><time>2026-05-01T14:37:05Z</time></trkpt><trkpt lat="45.82965373987842" lon="12.019073252875687"><ele>152.0</ele><time>2026-05-01T14:37:06Z</time></trkpt><trkpt lat="45.82947253748259" lon="12.018954594722581"><ele>153.0</ele><time>2026-05-01T14:37:07Z</time></trkpt><trkpt lat="45.829292942511444" lon="12.01883098707015"><ele>154.0</ele><time>2026-05-01T14:37:08Z</time></trkpt><trkpt lat="45.82910899753149" lon="12.018724015561896"><ele>155.0</ele><time>2026-05-01T14:37:09Z</time></trkpt><trkpt lat="45.828943586035614" lon="12.01857280160927"><ele>156.0</ele><time>2026-05-01T14:37:10Z</time></trkpt><trkpt lat="45.82876187619542" lon="12.018462398917702"><ele>155.0</ele><time>2026-05-01T14:37:11Z</time></trkpt><trkpt lat="45.82859481003928" lon="12.018308224618627"><ele>154.0</ele><time>2026-05-01T14:37:12Z</time></trkpt><trkpt lat="45.82842429387314" lon="12.01817774723242"><ele>153.0</ele><time>2026-05-01T14:37:13Z</time></trkpt><trkpt lat="45.82825780367279" lon="12.018050350486353"><ele>152.33333333333334</ele><time>2026-05-01T14:37:14Z</time></trkpt><trkpt lat="45.82809627986698" lon="12.017923899948252"><ele>151.66666666666669</ele><time>2026-05-01T14:37:15Z</time></trkpt><trkpt lat="45.82793255292059" lon="12.017793938186157"><ele>151.0</ele><time>2026-05-01T14:37:16Z</time></trkpt><trkpt lat="45.827759825196615" lon="12.01765923361303"><ele>151.33333333333334</ele><time>2026-05-01T14:37:17Z</time></trkpt><trkpt lat="45.82758139385103" lon="12.017522013780987"><ele>151.66666666666666</ele><time>2026-05-01T14:37:18Z</time></trkpt><trkpt lat="45.82739754252275" lon="12.017380516913896"><ele>152.0</ele><time>2026-05-01T14:37:19Z</time></trkpt><trkpt lat="45.827208698215095" lon="12.017233679973655"><ele>152.0</ele><time>2026-05-01T14:37:20Z</time></trkpt><trkpt lat="45.82701813280226" lon="12.017083224903523"><ele>152.0</ele><time>2026-05-01T14:37:21Z</time></trkpt><trkpt lat="45.826824715789236" lon="12.016932170381116"><ele>152.0</ele><time>2026-05-01T14:37:22Z</time></trkpt><trkpt lat="45.82662924696696" lon="12.01678027950394"><ele>151.66666666666666</ele><time>2026-05-01T14:37:23Z</time></trkpt><trkpt lat="45.82643413638378" lon="12.016631010169352"><ele>151.33333333333334</ele><time>2026-05-01T14:37:24Z</time></trkpt><trkpt lat="45.826238966875884" lon="12.01648169462286"><ele>151.0</ele><time>2026-05-01T14:37:25Z</time></trkpt><trkpt lat="45.826047727077324" lon="12.016333132230622"><ele>151.33333333333334</ele><time>2026-05-01T14:37:26Z</time></trkpt><trkpt lat="45.825862205736115" lon="12.016187277116734"><ele>151.66666666666666</ele><time>2026-05-01T14:37:27Z</time></trkpt><trkpt lat="45.82568550740733" lon="12.016040475408904"><ele>152.0</ele><time>2026-05-01T14:37:28Z</time></trkpt><trkpt lat="45.82551215840892" lon="12.015888655992823"><ele>151.66666666666666</ele><time>2026-05-01T14:37:29Z</time></trkpt><trkpt lat="45.82534443312857" lon="12.01572600355735"><ele>151.33333333333334</ele><time>2026-05-01T14:37:30Z</time></trkpt><trkpt lat="45.82517333312459" lon="12.0155561864166"><ele>151.0</ele><time>2026-05-01T14:37:31Z</time></trkpt><trkpt lat="45.824999104084" lon="12.015371677109396"><ele>151.0</ele><time>2026-05-01T14:37:32Z</time></trkpt><trkpt lat="45.82482312055427" lon="12.015178111952762"><ele>151.0</ele><time>2026-05-01T14:37:33Z</time></trkpt><trkpt lat="45.82464482851163" lon="12.014977165762135"><ele>151.0</ele><time>2026-05-01T14:37:34Z</time></trkpt><trkpt lat="45.824466372328544" lon="12.014776034634691"><ele>151.66666666666669</ele><time>2026-05-01T14:37:35Z</time></trkpt><trkpt lat="45.82428851755617" lon="12.014576983410535"><ele>152.33333333333334</ele><time>2026-05-01T14:37:36Z</time></trkpt><trkpt lat="45.82411983487677" lon="12.014387164858318"><ele>153.0</ele><time>2026-05-01T14:37:37Z</time></trkpt><trkpt lat="45.82396446572039" lon="12.014212069263571"><ele>152.0</ele><time>2026-05-01T14:37:38Z</time></trkpt><trkpt lat="45.82381783126309" lon="12.014049861395096"><ele>151.0</ele><time>2026-05-01T14:37:39Z</time></trkpt><trkpt lat="45.82367599378774" lon="12.013893977863361"><ele>150.0</ele><time>2026-05-01T14:37:40Z</time></trkpt><trkpt lat="45.82353620179798" lon="12.013745029881783"><ele>149.66666666666666</ele><time>2026-05-01T14:37:41Z</time></trkpt><trkpt lat="45.823397218600114" lon="12.01360316437515"><ele>149.33333333333331</ele><time>2026-05-01T14:37:42Z</time></trkpt><trkpt lat="45.82325432562074" lon="12.013465533740154"><ele>149.0</ele><time>2026-05-01T14:37:43Z</time></trkpt><trkpt lat="45.82311168851638" lon="12.01332761307883"><ele>150.0</ele><time>2026-05-01T14:37:44Z</time></trkpt><trkpt lat="45.822970040899165" lon="12.013190649185578"><ele>151.0</ele><time>2026-05-01T14:37:45Z</time></trkpt><trkpt lat="45.822796430854034" lon="12.013134590992625"><ele>152.0</ele><time>2026-05-01T14:37:46Z</time></trkpt><trkpt lat="45.82265121461303" lon="12.0130281644708"><ele>151.33333333333331</ele><time>2026-05-01T14:37:47Z</time></trkpt><trkpt lat="45.822504568837324" lon="12.01292734021004"><ele>150.66666666666666</ele><time>2026-05-01T14:37:48Z</time></trkpt><trkpt lat="45.822355883656584" lon="12.01283629267809"><ele>150.0</ele><time>2026-05-01T14:37:49Z</time></trkpt><trkpt lat="45.82220807903055" lon="12.012750022885484"><ele>150.0</ele><time>2026-05-01T14:37:50Z</time></trkpt><trkpt lat="45.82206182581833" lon="12.012669044493972"><ele>150.0</ele><time>2026-05-01T14:37:51Z</time></trkpt><trkpt lat="45.82191479321359" lon="12.012598464166643"><ele>150.0</ele><time>2026-05-01T14:37:52Z</time></trkpt><trkpt lat="45.82176356285951" lon="12.012536352748025"><ele>150.0</ele><time>2026-05-01T14:37:53Z</time></trkpt><trkpt lat="45.82161443815158" lon="12.012474361380006"><ele>150.0</ele><time>2026-05-01T14:37:54Z</time></trkpt><trkpt lat="45.82146411696744" lon="12.012418887011965"><ele>150.0</ele><time>2026-05-01T14:37:55Z</time></trkpt><trkpt lat="45.821313540468495" lon="12.012371869545294"><ele>150.0</ele><time>2026-05-01T14:37:56Z</time></trkpt><trkpt lat="45.82116208049185" lon="12.012332480907288"><ele>150.0</ele><time>2026-05-01T14:37:57Z</time></trkpt><trkpt lat="45.821008490252545" lon="12.012297542014528"><ele>150.0</ele><time>2026-05-01T14:37:58Z</time></trkpt><trkpt lat="45.82086630993881" lon="12.01226866247809"><ele>149.5</ele><time>2026-05-01T14:37:59Z</time></trkpt><trkpt lat="45.82072106897595" lon="12.012245462153496"><ele>149.0</ele><time>2026-05-01T14:38:00Z</time></trkpt><trkpt lat="45.82056978927084" lon="12.012227864552226"><ele>148.5</ele><time>2026-05-01T14:38:01Z</time></trkpt><trkpt lat="45.82041868132615" lon="12.012216294116884"><ele>148.0</ele><time>2026-05-01T14:38:02Z</time></trkpt><trkpt lat="45.820268654988766" lon="12.01221097072358"><ele>148.5</ele><time>2026-05-01T14:38:03Z</time></trkpt><trkpt lat="45.820127520199975" lon="12.012211640808918"><ele>149.0</ele><time>2026-05-01T14:38:04Z</time></trkpt><trkpt lat="45.81998834083504" lon="12.012214151342926"><ele>149.5</ele><time>2026-05-01T14:38:05Z</time></trkpt><trkpt lat="45.819847556944275" lon="12.01222120432909"><ele>150.0</ele><time>2026-05-01T14:38:06Z</time></trkpt><trkpt lat="45.819706099292944" lon="12.012233702333301"><ele>150.0</ele><time>2026-05-01T14:38:07Z</time></trkpt><trkpt lat="45.819561729741324" lon="12.012254012684357"><ele>150.0</ele><time>2026-05-01T14:38:08Z</time></trkpt><trkpt lat="45.81942261893459" lon="12.01228214935048"><ele>150.0</ele><time>2026-05-01T14:38:09Z</time></trkpt><trkpt lat="45.81928394390836" lon="12.012313272506097"><ele>150.0</ele><time>2026-05-01T14:38:10Z</time></trkpt><trkpt lat="45.819143979913406" lon="12.012346620695059"><ele>149.25</ele><time>2026-05-01T14:38:11Z</time></trkpt><trkpt lat="45.81900388678632" lon="12.012387509606015"><ele>148.5</ele><time>2026-05-01T14:38:12Z</time></trkpt><trkpt lat="45.8188680687668" lon="12.012434877885338"><ele>147.75</ele><time>2026-05-01T14:38:13Z</time></trkpt><trkpt lat="45.818734125068154" lon="12.01248476708206"><ele>147.0</ele><time>2026-05-01T14:38:14Z</time></trkpt><trkpt lat="45.81860092956551" lon="12.012536058186525"><ele>146.25</ele><time>2026-05-01T14:38:14.999Z</time></trkpt><trkpt lat="45.81846825351473" lon="12.012593907011286"><ele>145.5</ele><time>2026-05-01T14:38:15.999Z</time></trkpt><trkpt lat="45.81833644627785" lon="12.01265984250929"><ele>144.75</ele><time>2026-05-01T14:38:16.999Z</time></trkpt><trkpt lat="45.81820725313424" lon="12.012725945822107"><ele>144.0</ele><time>2026-05-01T14:38:17.999Z</time></trkpt><trkpt lat="45.818079229612074" lon="12.012793631485458"><ele>144.0</ele><time>2026-05-01T14:38:18.999Z</time></trkpt><trkpt lat="45.81795318470709" lon="12.012866651748705"><ele>144.0</ele><time>2026-05-01T14:38:19.999Z</time></trkpt><trkpt lat="45.81782991413153" lon="12.012941878964622"><ele>144.0</ele><time>2026-05-01T14:38:20.999Z</time></trkpt><trkpt lat="45.8177039179213" lon="12.013027147875222"><ele>144.0</ele><time>2026-05-01T14:38:21.999Z</time></trkpt><trkpt lat="45.817571783206645" lon="12.013133012179068"><ele>144.0</ele><time>2026-05-01T14:38:22.999Z</time></trkpt><trkpt lat="45.81742170974147" lon="12.013250562102366"><ele>144.0</ele><time>2026-05-01T14:38:23.999Z</time></trkpt><trkpt lat="45.817242008099846" lon="12.013375445424831"><ele>144.0</ele><time>2026-05-01T14:38:24.999Z</time></trkpt><trkpt lat="45.81705935463907" lon="12.01350385042243"><ele>144.0</ele><time>2026-05-01T14:38:25.999Z</time></trkpt><trkpt lat="45.81688556030867" lon="12.013630561388718"><ele>144.0</ele><time>2026-05-01T14:38:26.999Z</time></trkpt><trkpt lat="45.81671525191689" lon="12.013756160460368"><ele>144.0</ele><time>2026-05-01T14:38:27.999Z</time></trkpt><trkpt lat="45.81654893901134" lon="12.013876208256178"><ele>144.0</ele><time>2026-05-01T14:38:28.999Z</time></trkpt><trkpt lat="45.81639095130816" lon="12.01398931499122"><ele>144.0</ele><time>2026-05-01T14:38:29.999Z</time></trkpt><trkpt lat="45.81624354341432" lon="12.014095948665569"><ele>144.0</ele><time>2026-05-01T14:38:30.999Z</time></trkpt><trkpt lat="45.81610676471839" lon="12.014198999919321"><ele>144.0</ele><time>2026-05-01T14:38:31.999Z</time></trkpt><trkpt lat="45.815973102972436" lon="12.014299698979174"><ele>144.0</ele><time>2026-05-01T14:38:33Z</time></trkpt><trkpt lat="45.81584573778003" lon="12.014397110639047"><ele>144.0</ele><time>2026-05-01T14:38:34Z</time></trkpt><trkpt lat="45.81572354922492" lon="12.014488913909766"><ele>144.0</ele><time>2026-05-01T14:38:35Z</time></trkpt><trkpt lat="45.81560803964323" lon="12.014575338338643"><ele>144.0</ele><time>2026-05-01T14:38:36Z</time></trkpt><trkpt lat="45.81549540734806" lon="12.01466057623625"><ele>144.0</ele><time>2026-05-01T14:38:37Z</time></trkpt><trkpt lat="45.81538391219562" lon="12.014745593576595"><ele>144.0</ele><time>2026-05-01T14:38:38Z</time></trkpt><trkpt lat="45.81527439177069" lon="12.014829918207653"><ele>144.0</ele><time>2026-05-01T14:38:39Z</time></trkpt><trkpt lat="45.815167677813584" lon="12.014912887053141"><ele>144.5</ele><time>2026-05-01T14:38:40Z</time></trkpt><trkpt lat="45.815063298291136" lon="12.014994921385673"><ele>145.0</ele><time>2026-05-01T14:38:41Z</time></trkpt><trkpt lat="45.81495055314108" lon="12.015081772651307"><ele>145.5</ele><time>2026-05-01T14:38:42Z</time></trkpt><trkpt lat="45.81481019716669" lon="12.01518532580522"><ele>146.0</ele><time>2026-05-01T14:38:43Z</time></trkpt><trkpt lat="45.814647906476715" lon="12.015296309022942"><ele>146.0</ele><time>2026-05-01T14:38:44Z</time></trkpt><trkpt lat="45.81449287247845" lon="12.015398475011692"><ele>146.0</ele><time>2026-05-01T14:38:45Z</time></trkpt><trkpt lat="45.81436302408563" lon="12.015477066830307"><ele>146.0</ele><time>2026-05-01T14:38:46Z</time></trkpt><trkpt lat="45.81425837440962" lon="12.015520148499403"><ele>146.0</ele><time>2026-05-01T14:38:47Z</time></trkpt><trkpt lat="45.81416330142962" lon="12.01554608633483"><ele>145.2</ele><time>2026-05-01T14:38:48Z</time></trkpt><trkpt lat="45.814065585627226" lon="12.0155479646247"><ele>144.39999999999998</ele><time>2026-05-01T14:38:49Z</time></trkpt><trkpt lat="45.81396806277159" lon="12.015519498106588"><ele>143.6</ele><time>2026-05-01T14:38:50Z</time></trkpt><trkpt lat="45.81386669685487" lon="12.015489667946024"><ele>142.79999999999998</ele><time>2026-05-01T14:38:51Z</time></trkpt><trkpt lat="45.81377126756059" lon="12.01550375368347"><ele>142.0</ele><time>2026-05-01T14:38:52Z</time></trkpt><trkpt lat="45.813685019165625" lon="12.015562243520518"><ele>142.0</ele><time>2026-05-01T14:38:53Z</time></trkpt><trkpt lat="45.81361193771159" lon="12.015659497456534"><ele>142.0</ele><time>2026-05-01T14:38:54Z</time></trkpt><trkpt lat="45.813565794915576" lon="12.015769143608217"><ele>142.0</ele><time>2026-05-01T14:38:55Z</time></trkpt><trkpt lat="45.813528263335144" lon="12.015897284715086"><ele>142.0</ele><time>2026-05-01T14:38:56Z</time></trkpt><trkpt lat="45.81348275314015" lon="12.016040453516704"><ele>142.0</ele><time>2026-05-01T14:38:57Z</time></trkpt><trkpt lat="45.813418061604104" lon="12.016167226915213"><ele>141.25</ele><time>2026-05-01T14:38:58Z</time></trkpt><trkpt lat="45.813327038522864" lon="12.016284503392189"><ele>140.5</ele><time>2026-05-01T14:38:59Z</time></trkpt><trkpt lat="45.81321876343038" lon="12.016379658431482"><ele>139.75</ele><time>2026-05-01T14:39:00Z</time></trkpt><trkpt lat="45.81310643669732" lon="12.01646637868426"><ele>139.0</ele><time>2026-05-01T14:39:01Z</time></trkpt><trkpt lat="45.81297590790297" lon="12.01656612851106"><ele>139.0</ele><time>2026-05-01T14:39:02Z</time></trkpt><trkpt lat="45.81282312920306" lon="12.0166541475311"><ele>139.0</ele><time>2026-05-01T14:39:03Z</time></trkpt><trkpt lat="45.8126704856166" lon="12.016768244529207"><ele>139.0</ele><time>2026-05-01T14:39:04Z</time></trkpt><trkpt lat="45.81251902523554" lon="12.016882059747976"><ele>139.0</ele><time>2026-05-01T14:39:05Z</time></trkpt><trkpt lat="45.81237437412369" lon="12.01699075812674"><ele>139.0</ele><time>2026-05-01T14:39:06Z</time></trkpt><trkpt lat="45.812222160546355" lon="12.017105139335623"><ele>139.0</ele><time>2026-05-01T14:39:07Z</time></trkpt><trkpt lat="45.812063349471686" lon="12.017224478247842"><ele>139.0</ele><time>2026-05-01T14:39:08Z</time></trkpt><trkpt lat="45.81190039867471" lon="12.01734686287354"><ele>139.0</ele><time>2026-05-01T14:39:09Z</time></trkpt><trkpt lat="45.811739878994935" lon="12.017466962593108"><ele>139.0</ele><time>2026-05-01T14:39:10Z</time></trkpt><trkpt lat="45.811586154978876" lon="12.017581977843882"><ele>139.25</ele><time>2026-05-01T14:39:11Z</time></trkpt><trkpt lat="45.81145064082527" lon="12.017683758659702"><ele>139.5</ele><time>2026-05-01T14:39:12Z</time></trkpt><trkpt lat="45.81132397091762" lon="12.017779308623089"><ele>139.75</ele><time>2026-05-01T14:39:13Z</time></trkpt><trkpt lat="45.81120468542017" lon="12.017894954295755"><ele>140.0</ele><time>2026-05-01T14:39:14Z</time></trkpt><trkpt lat="45.81106378811655" lon="12.017973332248905"><ele>140.0</ele><time>2026-05-01T14:39:15Z</time></trkpt><trkpt lat="45.81094265256053" lon="12.018091478171467"><ele>140.0</ele><time>2026-05-01T14:39:16Z</time></trkpt><trkpt lat="45.81081710099128" lon="12.018185087393087"><ele>140.0</ele><time>2026-05-01T14:39:17Z</time></trkpt><trkpt lat="45.81069651233047" lon="12.018275522734493"><ele>140.0</ele><time>2026-05-01T14:39:18Z</time></trkpt><trkpt lat="45.81057983966753" lon="12.01836397619058"><ele>140.0</ele><time>2026-05-01T14:39:19Z</time></trkpt><trkpt lat="45.81045348837251" lon="12.01843275064619"><ele>140.0</ele><time>2026-05-01T14:39:20Z</time></trkpt><trkpt lat="45.81034342212991" lon="12.018549293043586"><ele>140.0</ele><time>2026-05-01T14:39:21Z</time></trkpt><trkpt lat="45.810224095867085" lon="12.01865322575451"><ele>140.0</ele><time>2026-05-01T14:39:22Z</time></trkpt><trkpt lat="45.81009875565273" lon="12.018740935300146"><ele>140.0</ele><time>2026-05-01T14:39:23Z</time></trkpt><trkpt lat="45.809991216304" lon="12.018877905547244"><ele>140.0</ele><time>2026-05-01T14:39:24Z</time></trkpt><trkpt lat="45.80987566141515" lon="12.019002787380963"><ele>140.0</ele><time>2026-05-01T14:39:25Z</time></trkpt><trkpt lat="45.8097662687079" lon="12.019122571198048"><ele>140.0</ele><time>2026-05-01T14:39:26Z</time></trkpt><trkpt lat="45.8096537997086" lon="12.01924788047009"><ele>140.0</ele><time>2026-05-01T14:39:27Z</time></trkpt><trkpt lat="45.80954184735522" lon="12.019383953665566"><ele>140.0</ele><time>2026-05-01T14:39:28Z</time></trkpt><trkpt lat="45.8094321457996" lon="12.019526930983403"><ele>140.0</ele><time>2026-05-01T14:39:29Z</time></trkpt><trkpt lat="45.809321052395305" lon="12.019681907410654"><ele>139.5</ele><time>2026-05-01T14:39:30Z</time></trkpt><trkpt lat="45.80921658767644" lon="12.019831882075703"><ele>139.0</ele><time>2026-05-01T14:39:31Z</time></trkpt><trkpt lat="45.8091139857945" lon="12.019981885299522"><ele>138.5</ele><time>2026-05-01T14:39:32Z</time></trkpt><trkpt lat="45.809014094315735" lon="12.020137670552103"><ele>138.0</ele><time>2026-05-01T14:39:33Z</time></trkpt><trkpt lat="45.80891386699851" lon="12.020299800301768"><ele>138.0</ele><time>2026-05-01T14:39:34Z</time></trkpt><trkpt lat="45.808813486384594" lon="12.020464394832224"><ele>138.0</ele><time>2026-05-01T14:39:35Z</time></trkpt><trkpt lat="45.808712624946054" lon="12.020626590448058"><ele>138.0</ele><time>2026-05-01T14:39:36Z</time></trkpt><trkpt lat="45.80861359899517" lon="12.020783141333673"><ele>137.5</ele><time>2026-05-01T14:39:37Z</time></trkpt><trkpt lat="45.808515732483016" lon="12.020941177043495"><ele>137.0</ele><time>2026-05-01T14:39:38Z</time></trkpt><trkpt lat="45.808417602051556" lon="12.021100239774078"><ele>136.5</ele><time>2026-05-01T14:39:39Z</time></trkpt><trkpt lat="45.808317918677005" lon="12.021262096130567"><ele>136.0</ele><time>2026-05-01T14:39:40Z</time></trkpt><trkpt lat="45.80821548440261" lon="12.02142518608601"><ele>136.0</ele><time>2026-05-01T14:39:41Z</time></trkpt><trkpt lat="45.80811652517976" lon="12.021587635947633"><ele>136.0</ele><time>2026-05-01T14:39:42Z</time></trkpt><trkpt lat="45.808019830020164" lon="12.021745947041502"><ele>136.0</ele><time>2026-05-01T14:39:43Z</time></trkpt><trkpt lat="45.80792423640287" lon="12.021900710487527"><ele>136.0</ele><time>2026-05-01T14:39:44Z</time></trkpt><trkpt lat="45.80782854875263" lon="12.02205566636038"><ele>136.5</ele><time>2026-05-01T14:39:45Z</time></trkpt><trkpt lat="45.807738679209436" lon="12.022201862116747"><ele>137.0</ele><time>2026-05-01T14:39:46Z</time></trkpt><trkpt lat="45.80765884296651" lon="12.022331525979506"><ele>137.5</ele><time>2026-05-01T14:39:47Z</time></trkpt><trkpt lat="45.80758201650328" lon="12.02245842475567"><ele>138.0</ele><time>2026-05-01T14:39:48Z</time></trkpt><trkpt lat="45.807505464159576" lon="12.02258312095481"><ele>138.0</ele><time>2026-05-01T14:39:49Z</time></trkpt><trkpt lat="45.80743047711205" lon="12.02270260997356"><ele>138.0</ele><time>2026-05-01T14:39:50Z</time></trkpt><trkpt lat="45.80735778175186" lon="12.022819747779408"><ele>138.0</ele><time>2026-05-01T14:39:51Z</time></trkpt><trkpt lat="45.80728599953472" lon="12.022934557428329"><ele>138.0</ele><time>2026-05-01T14:39:52Z</time></trkpt><trkpt lat="45.80721298197383" lon="12.023053082336165"><ele>138.0</ele><time>2026-05-01T14:39:53Z</time></trkpt><trkpt lat="45.80713750449893" lon="12.023174260595964"><ele>138.0</ele><time>2026-05-01T14:39:54Z</time></trkpt><trkpt lat="45.80705812728882" lon="12.023302484554906"><ele>138.0</ele><time>2026-05-01T14:39:55Z</time></trkpt><trkpt lat="45.80697542623" lon="12.023433952459987"><ele>138.0</ele><time>2026-05-01T14:39:56Z</time></trkpt><trkpt lat="45.80689364583352" lon="12.02356510012228"><ele>138.0</ele><time>2026-05-01T14:39:57Z</time></trkpt><trkpt lat="45.806811722965165" lon="12.02369914683838"><ele>138.0</ele><time>2026-05-01T14:39:58Z</time></trkpt><trkpt lat="45.80672552476306" lon="12.023838864892964"><ele>138.0</ele><time>2026-05-01T14:39:59Z</time></trkpt><trkpt lat="45.806633357124625" lon="12.023987619233107"><ele>138.0</ele><time>2026-05-01T14:40:00Z</time></trkpt><trkpt lat="45.80654117461874" lon="12.024134913870705"><ele>138.0</ele><time>2026-05-01T14:40:01Z</time></trkpt><trkpt lat="45.806449651409245" lon="12.024282803881473"><ele>138.0</ele><time>2026-05-01T14:40:02Z</time></trkpt><trkpt lat="45.80635544921013" lon="12.024435653107915"><ele>138.0</ele><time>2026-05-01T14:40:03Z</time></trkpt><trkpt lat="45.806256903254344" lon="12.024595520746045"><ele>138.0</ele><time>2026-05-01T14:40:04Z</time></trkpt><trkpt lat="45.80614106497203" lon="12.024745756816182"><ele>138.0</ele><time>2026-05-01T14:40:05Z</time></trkpt><trkpt lat="45.806037709280304" lon="12.024911007101545"><ele>137.33333333333334</ele><time>2026-05-01T14:40:06Z</time></trkpt><trkpt lat="45.80593463233475" lon="12.025075810157595"><ele>136.66666666666669</ele><time>2026-05-01T14:40:07Z</time></trkpt><trkpt lat="45.80583143370362" lon="12.02524080779167"><ele>136.0</ele><time>2026-05-01T14:40:08Z</time></trkpt><trkpt lat="45.805730599869406" lon="12.025406802036821"><ele>136.0</ele><time>2026-05-01T14:40:09Z</time></trkpt><trkpt lat="45.80562885047099" lon="12.025573984563897"><ele>136.0</ele><time>2026-05-01T14:40:10Z</time></trkpt><trkpt lat="45.80553452290312" lon="12.025759877864889"><ele>136.0</ele><time>2026-05-01T14:40:11Z</time></trkpt><trkpt lat="45.80542348364176" lon="12.025935415696454"><ele>136.0</ele><time>2026-05-01T14:40:12Z</time></trkpt><trkpt lat="45.805314034384836" lon="12.026112004826729"><ele>136.0</ele><time>2026-05-01T14:40:13Z</time></trkpt><trkpt lat="45.80520510729116" lon="12.026286600741898"><ele>136.0</ele><time>2026-05-01T14:40:14Z</time></trkpt><trkpt lat="45.80509681885669" lon="12.026464621718143"><ele>136.0</ele><time>2026-05-01T14:40:15Z</time></trkpt><trkpt lat="45.804972394153886" lon="12.026635788386322"><ele>136.0</ele><time>2026-05-01T14:40:16Z</time></trkpt><trkpt lat="45.80484714139233" lon="12.026838710339968"><ele>136.0</ele><time>2026-05-01T14:40:17Z</time></trkpt><trkpt lat="45.804711065144595" lon="12.02705916626331"><ele>136.33333333333334</ele><time>2026-05-01T14:40:17.999Z</time></trkpt><trkpt lat="45.80456738965133" lon="12.02729010590033"><ele>136.66666666666666</ele><time>2026-05-01T14:40:18.999Z</time></trkpt><trkpt lat="45.80442663398533" lon="12.027545023922642"><ele>137.0</ele><time>2026-05-01T14:40:19.999Z</time></trkpt><trkpt lat="45.80427664591748" lon="12.027780230222598"><ele>137.33333333333331</ele><time>2026-05-01T14:40:20.999Z</time></trkpt><trkpt lat="45.80413038711796" lon="12.028012593986386"><ele>137.66666666666666</ele><time>2026-05-01T14:40:21.999Z</time></trkpt><trkpt lat="45.80398919031062" lon="12.028242686638318"><ele>138.0</ele><time>2026-05-01T14:40:22.999Z</time></trkpt><trkpt lat="45.80383832266584" lon="12.028453096554042"><ele>137.0</ele><time>2026-05-01T14:40:23.999Z</time></trkpt><trkpt lat="45.803701765979305" lon="12.028669883354134"><ele>136.0</ele><time>2026-05-01T14:40:24.999Z</time></trkpt><trkpt lat="45.803581084424096" lon="12.028896000605485"><ele>135.0</ele><time>2026-05-01T14:40:25.999Z</time></trkpt><trkpt lat="45.803451884275304" lon="12.029097137882824"><ele>135.33333333333334</ele><time>2026-05-01T14:40:26.999Z</time></trkpt><trkpt lat="45.80333089700501" lon="12.029291755071366"><ele>135.66666666666669</ele><time>2026-05-01T14:40:27.999Z</time></trkpt><trkpt lat="45.803214636907654" lon="12.029478169734404"><ele>136.0</ele><time>2026-05-01T14:40:28.999Z</time></trkpt><trkpt lat="45.80310325679138" lon="12.029656947058061"><ele>136.0</ele><time>2026-05-01T14:40:29.999Z</time></trkpt><trkpt lat="45.802992648232504" lon="12.029829625444922"><ele>136.0</ele><time>2026-05-01T14:40:30.999Z</time></trkpt><trkpt lat="45.80288196636911" lon="12.030001882276892"><ele>136.0</ele><time>2026-05-01T14:40:31.999Z</time></trkpt><trkpt lat="45.802769581950706" lon="12.030173033346511"><ele>135.66666666666669</ele><time>2026-05-01T14:40:32.999Z</time></trkpt><trkpt lat="45.802657680550865" lon="12.03034667619751"><ele>135.33333333333334</ele><time>2026-05-01T14:40:33.999Z</time></trkpt><trkpt lat="45.80254560915391" lon="12.030518861143793"><ele>135.0</ele><time>2026-05-01T14:40:34.999Z</time></trkpt><trkpt lat="45.80243679600887" lon="12.03069031339131"><ele>136.0</ele><time>2026-05-01T14:40:35.999Z</time></trkpt><trkpt lat="45.802328042222896" lon="12.03085953052918"><ele>137.0</ele><time>2026-05-01T14:40:36.999Z</time></trkpt><trkpt lat="45.80222036826465" lon="12.031031582190122"><ele>138.0</ele><time>2026-05-01T14:40:37.999Z</time></trkpt><trkpt lat="45.80211380151691" lon="12.031202123167311"><ele>138.0</ele><time>2026-05-01T14:40:39Z</time></trkpt><trkpt lat="45.8020081582208" lon="12.031368020929767"><ele>138.0</ele><time>2026-05-01T14:40:40Z</time></trkpt><trkpt lat="45.80190454643497" lon="12.031537688952266"><ele>138.0</ele><time>2026-05-01T14:40:41Z</time></trkpt><trkpt lat="45.80180496367282" lon="12.03169866469842"><ele>137.33333333333334</ele><time>2026-05-01T14:40:42Z</time></trkpt><trkpt lat="45.80169569446575" lon="12.031837016418317"><ele>136.66666666666669</ele><time>2026-05-01T14:40:43Z</time></trkpt><trkpt lat="45.80158779218519" lon="12.032005788864335"><ele>136.0</ele><time>2026-05-01T14:40:44Z</time></trkpt><trkpt lat="45.80146957714675" lon="12.032190691711287"><ele>136.0</ele><time>2026-05-01T14:40:45Z</time></trkpt><trkpt lat="45.80134088327389" lon="12.032391984692868"><ele>136.0</ele><time>2026-05-01T14:40:46Z</time></trkpt><trkpt lat="45.80120469857742" lon="12.032607445775433"><ele>136.0</ele><time>2026-05-01T14:40:47Z</time></trkpt><trkpt lat="45.80106596650321" lon="12.032827972546244"><ele>136.0</ele><time>2026-05-01T14:40:48Z</time></trkpt><trkpt lat="45.80092786340665" lon="12.033047499496206"><ele>136.0</ele><time>2026-05-01T14:40:49Z</time></trkpt><trkpt lat="45.80080416960608" lon="12.03327938340697"><ele>136.0</ele><time>2026-05-01T14:40:50Z</time></trkpt><trkpt lat="45.80067009562335" lon="12.033489194173157"><ele>136.0</ele><time>2026-05-01T14:40:51Z</time></trkpt><trkpt lat="45.800540318275374" lon="12.033690497184114"><ele>136.0</ele><time>2026-05-01T14:40:52Z</time></trkpt><trkpt lat="45.800415520791574" lon="12.0338823311845"><ele>136.0</ele><time>2026-05-01T14:40:53Z</time></trkpt><trkpt lat="45.8002962583557" lon="12.034065618133303"><ele>135.33333333333334</ele><time>2026-05-01T14:40:54Z</time></trkpt><trkpt lat="45.80018186013754" lon="12.034237889827475"><ele>134.66666666666666</ele><time>2026-05-01T14:40:55Z</time></trkpt><trkpt lat="45.800070545071485" lon="12.034400740883456"><ele>134.0</ele><time>2026-05-01T14:40:56Z</time></trkpt><trkpt lat="45.7999619255994" lon="12.034553800251567"><ele>133.5</ele><time>2026-05-01T14:40:57Z</time></trkpt><trkpt lat="45.799855941463285" lon="12.03470151749161"><ele>133.0</ele><time>2026-05-01T14:40:58Z</time></trkpt><trkpt lat="45.79975118480668" lon="12.034844370744567"><ele>132.5</ele><time>2026-05-01T14:40:59Z</time></trkpt><trkpt lat="45.79964668611203" lon="12.034980892317536"><ele>132.0</ele><time>2026-05-01T14:41:00Z</time></trkpt><trkpt lat="45.79954428072983" lon="12.035115253827046"><ele>132.5</ele><time>2026-05-01T14:41:01Z</time></trkpt><trkpt lat="45.79942978966335" lon="12.035226480739386"><ele>133.0</ele><time>2026-05-01T14:41:02Z</time></trkpt><trkpt lat="45.79932339258315" lon="12.035357466304422"><ele>133.5</ele><time>2026-05-01T14:41:03Z</time></trkpt><trkpt lat="45.79922525540525" lon="12.035507759995069"><ele>134.0</ele><time>2026-05-01T14:41:04Z</time></trkpt><trkpt lat="45.79911576366348" lon="12.035635950904192"><ele>134.0</ele><time>2026-05-01T14:41:05Z</time></trkpt><trkpt lat="45.79900835233946" lon="12.035762188787555"><ele>134.0</ele><time>2026-05-01T14:41:06Z</time></trkpt><trkpt lat="45.79889955283411" lon="12.035885573929647"><ele>134.0</ele><time>2026-05-01T14:41:07Z</time></trkpt><trkpt lat="45.798786697206566" lon="12.036006297863029"><ele>134.0</ele><time>2026-05-01T14:41:08Z</time></trkpt><trkpt lat="45.79867277750023" lon="12.036130223627284"><ele>134.25</ele><time>2026-05-01T14:41:09Z</time></trkpt><trkpt lat="45.79855760770392" lon="12.03625275921034"><ele>134.5</ele><time>2026-05-01T14:41:10Z</time></trkpt><trkpt lat="45.79844231383086" lon="12.036370541748534"><ele>134.75</ele><time>2026-05-01T14:41:11Z</time></trkpt><trkpt lat="45.79832636479823" lon="12.036490326791489"><ele>135.0</ele><time>2026-05-01T14:41:12Z</time></trkpt><trkpt lat="45.798209908958505" lon="12.036613357952906"><ele>134.0</ele><time>2026-05-01T14:41:13Z</time></trkpt><trkpt lat="45.798089435435195" lon="12.036737430091181"><ele>133.0</ele><time>2026-05-01T14:41:14Z</time></trkpt><trkpt lat="45.79794956812156" lon="12.036851591795767"><ele>132.0</ele><time>2026-05-01T14:41:15Z</time></trkpt><trkpt lat="45.79780557392506" lon="12.036998460396783"><ele>132.0</ele><time>2026-05-01T14:41:16Z</time></trkpt><trkpt lat="45.79764994296728" lon="12.037158313130263"><ele>132.0</ele><time>2026-05-01T14:41:17Z</time></trkpt><trkpt lat="45.79750073175566" lon="12.037341245122317"><ele>132.0</ele><time>2026-05-01T14:41:18Z</time></trkpt><trkpt lat="45.79734389683041" lon="12.037501899781667"><ele>132.0</ele><time>2026-05-01T14:41:19Z</time></trkpt><trkpt lat="45.79719196402193" lon="12.037654584073444"><ele>132.0</ele><time>2026-05-01T14:41:20Z</time></trkpt><trkpt lat="45.797047599171414" lon="12.03779951875623"><ele>132.0</ele><time>2026-05-01T14:41:21Z</time></trkpt><trkpt lat="45.79691487440584" lon="12.037937273951918"><ele>132.25</ele><time>2026-05-01T14:41:22Z</time></trkpt><trkpt lat="45.796796037683066" lon="12.038063048936483"><ele>132.5</ele><time>2026-05-01T14:41:23Z</time></trkpt><trkpt lat="45.79667038022778" lon="12.038164699791096"><ele>132.75</ele><time>2026-05-01T14:41:24Z</time></trkpt><trkpt lat="45.79655149375915" lon="12.038287590193674"><ele>133.0</ele><time>2026-05-01T14:41:25Z</time></trkpt><trkpt lat="45.79642220373752" lon="12.03842007068377"><ele>133.0</ele><time>2026-05-01T14:41:26Z</time></trkpt><trkpt lat="45.79629836352658" lon="12.038594459894727"><ele>133.0</ele><time>2026-05-01T14:41:27Z</time></trkpt><trkpt lat="45.796138607457245" lon="12.038750239925706"><ele>133.0</ele><time>2026-05-01T14:41:28Z</time></trkpt><trkpt lat="45.7959701819526" lon="12.038909015200948"><ele>133.0</ele><time>2026-05-01T14:41:29Z</time></trkpt><trkpt lat="45.79579992649285" lon="12.039078923037543"><ele>133.0</ele><time>2026-05-01T14:41:30Z</time></trkpt><trkpt lat="45.7956240172552" lon="12.039249628365615"><ele>133.0</ele><time>2026-05-01T14:41:31Z</time></trkpt><trkpt lat="45.79544405506028" lon="12.039413362013192"><ele>132.66666666666669</ele><time>2026-05-01T14:41:32Z</time></trkpt><trkpt lat="45.795261614475585" lon="12.039572555419872"><ele>132.33333333333334</ele><time>2026-05-01T14:41:33Z</time></trkpt><trkpt lat="45.79507981831885" lon="12.039726900083044"><ele>132.0</ele><time>2026-05-01T14:41:34Z</time></trkpt><trkpt lat="45.79489014484466" lon="12.039885578814346"><ele>131.5</ele><time>2026-05-01T14:41:35Z</time></trkpt><trkpt lat="45.79469125743578" lon="12.040046129477865"><ele>131.0</ele><time>2026-05-01T14:41:36Z</time></trkpt><trkpt lat="45.794484842247925" lon="12.040205942202752"><ele>130.5</ele><time>2026-05-01T14:41:37Z</time></trkpt><trkpt lat="45.794275031995895" lon="12.040369674489636"><ele>130.0</ele><time>2026-05-01T14:41:38Z</time></trkpt><trkpt lat="45.79406551680958" lon="12.040536392037524"><ele>130.0</ele><time>2026-05-01T14:41:39Z</time></trkpt><trkpt lat="45.79386043936864" lon="12.04070093636472"><ele>130.0</ele><time>2026-05-01T14:41:40Z</time></trkpt><trkpt lat="45.793662382830306" lon="12.040860132916103"><ele>130.33333333333334</ele><time>2026-05-01T14:41:41Z</time></trkpt><trkpt lat="45.79346744609398" lon="12.041015413879258"><ele>130.66666666666666</ele><time>2026-05-01T14:41:42Z</time></trkpt><trkpt lat="45.793272258680176" lon="12.04117075832784"><ele>131.0</ele><time>2026-05-01T14:41:43Z</time></trkpt><trkpt lat="45.79306273552966" lon="12.041307078745483"><ele>131.0</ele><time>2026-05-01T14:41:44Z</time></trkpt><trkpt lat="45.792863666571826" lon="12.041461042108056"><ele>131.0</ele><time>2026-05-01T14:41:45Z</time></trkpt><trkpt lat="45.79266578213274" lon="12.041613945195152"><ele>130.66666666666666</ele><time>2026-05-01T14:41:46Z</time></trkpt><trkpt lat="45.792474160591745" lon="12.041763357254336"><ele>130.33333333333334</ele><time>2026-05-01T14:41:47Z</time></trkpt><trkpt lat="45.792294505584465" lon="12.041904050120152"><ele>130.0</ele><time>2026-05-01T14:41:48Z</time></trkpt><trkpt lat="45.79213679681676" lon="12.042053128018999"><ele>130.0</ele><time>2026-05-01T14:41:49Z</time></trkpt><trkpt lat="45.791977571519574" lon="12.04217779090404"><ele>130.0</ele><time>2026-05-01T14:41:50Z</time></trkpt><trkpt lat="45.79182954274452" lon="12.042298643739004"><ele>130.0</ele><time>2026-05-01T14:41:51Z</time></trkpt><trkpt lat="45.79169056203574" lon="12.042420136226298"><ele>129.33333333333334</ele><time>2026-05-01T14:41:52Z</time></trkpt><trkpt lat="45.791558574898374" lon="12.042539992411529"><ele>128.66666666666666</ele><time>2026-05-01T14:41:53Z</time></trkpt><trkpt lat="45.791418059457" lon="12.042641148536793"><ele>128.0</ele><time>2026-05-01T14:41:54Z</time></trkpt><trkpt lat="45.7912996148465" lon="12.042785533871518"><ele>128.0</ele><time>2026-05-01T14:41:55Z</time></trkpt><trkpt lat="45.79117039647791" lon="12.042915079563008"><ele>128.0</ele><time>2026-05-01T14:41:56Z</time></trkpt><trkpt lat="45.79103919877192" lon="12.043050564618143"><ele>128.0</ele><time>2026-05-01T14:41:57Z</time></trkpt><trkpt lat="45.79091845702721" lon="12.043181271919696"><ele>128.66666666666666</ele><time>2026-05-01T14:41:58Z</time></trkpt><trkpt lat="45.79079986209387" lon="12.043312516366646"><ele>129.33333333333334</ele><time>2026-05-01T14:41:59Z</time></trkpt><trkpt lat="45.79067754683618" lon="12.04344789693256"><ele>130.0</ele><time>2026-05-01T14:42:00Z</time></trkpt><trkpt lat="45.79055165372259" lon="12.04358704442454"><ele>130.0</ele><time>2026-05-01T14:42:01Z</time></trkpt><trkpt lat="45.79042520367166" lon="12.043729062203514"><ele>130.0</ele><time>2026-05-01T14:42:02Z</time></trkpt><trkpt lat="45.79030153382537" lon="12.043868051780787"><ele>130.0</ele><time>2026-05-01T14:42:03Z</time></trkpt><trkpt lat="45.79018226134015" lon="12.044001431799577"><ele>130.0</ele><time>2026-05-01T14:42:04Z</time></trkpt><trkpt lat="45.790064057196496" lon="12.044105309551698"><ele>130.0</ele><time>2026-05-01T14:42:05Z</time></trkpt><trkpt lat="45.789959668833895" lon="12.044221622145612"><ele>130.0</ele><time>2026-05-01T14:42:06Z</time></trkpt><trkpt lat="45.78985493924728" lon="12.0443383149501"><ele>130.0</ele><time>2026-05-01T14:42:07Z</time></trkpt><trkpt lat="45.78974969299846" lon="12.044455583435186"><ele>130.0</ele><time>2026-05-01T14:42:08Z</time></trkpt><trkpt lat="45.78964371478572" lon="12.044573667494847"><ele>130.0</ele><time>2026-05-01T14:42:09Z</time></trkpt><trkpt lat="45.78954653866564" lon="12.04471469487159"><ele>130.0</ele><time>2026-05-01T14:42:10Z</time></trkpt><trkpt lat="45.78943481106956" lon="12.044838366445981"><ele>130.0</ele><time>2026-05-01T14:42:11Z</time></trkpt><trkpt lat="45.7893229054478" lon="12.044961862076308"><ele>129.0</ele><time>2026-05-01T14:42:12Z</time></trkpt><trkpt lat="45.78920901379692" lon="12.045088848941022"><ele>128.0</ele><time>2026-05-01T14:42:13Z</time></trkpt><trkpt lat="45.789081776860016" lon="12.04520065704699"><ele>127.0</ele><time>2026-05-01T14:42:14Z</time></trkpt><trkpt lat="45.78896237343285" lon="12.045333905264325"><ele>126.0</ele><time>2026-05-01T14:42:15Z</time></trkpt><trkpt lat="45.788849407088335" lon="12.04548907589342"><ele>126.0</ele><time>2026-05-01T14:42:16Z</time></trkpt><trkpt lat="45.788723058004344" lon="12.045628494115658"><ele>126.0</ele><time>2026-05-01T14:42:17Z</time></trkpt><trkpt lat="45.78859524989951" lon="12.045770821969084"><ele>126.0</ele><time>2026-05-01T14:42:18Z</time></trkpt><trkpt lat="45.78846782917192" lon="12.045913326674071"><ele>125.66666666666666</ele><time>2026-05-01T14:42:19Z</time></trkpt><trkpt lat="45.788341283276964" lon="12.046055402174535"><ele>125.33333333333333</ele><time>2026-05-01T14:42:20Z</time></trkpt><trkpt lat="45.788214395936635" lon="12.04619722812733"><ele>125.0</ele><time>2026-05-01T14:42:21Z</time></trkpt><trkpt lat="45.788087152055176" lon="12.046338670172567"><ele>125.0</ele><time>2026-05-01T14:42:22Z</time></trkpt><trkpt lat="45.787960848956" lon="12.046479047763272"><ele>125.0</ele><time>2026-05-01T14:42:22.999Z</time></trkpt><trkpt lat="45.7878357900309" lon="12.046616652747526"><ele>125.0</ele><time>2026-05-01T14:42:23.999Z</time></trkpt><trkpt lat="45.78770335070208" lon="12.046732665769097"><ele>125.66666666666666</ele><time>2026-05-01T14:42:24.999Z</time></trkpt><trkpt lat="45.78758895357503" lon="12.046886247974244"><ele>126.33333333333334</ele><time>2026-05-01T14:42:25.999Z</time></trkpt><trkpt lat="45.78746463593588" lon="12.047021855516489"><ele>127.0</ele><time>2026-05-01T14:42:26.999Z</time></trkpt><trkpt lat="45.78733506234841" lon="12.04716269242559"><ele>127.0</ele><time>2026-05-01T14:42:27.999Z</time></trkpt><trkpt lat="45.78720137079424" lon="12.047306111831176"><ele>127.0</ele><time>2026-05-01T14:42:28.999Z</time></trkpt><trkpt lat="45.78706161900435" lon="12.047453763081668"><ele>127.0</ele><time>2026-05-01T14:42:29.999Z</time></trkpt><trkpt lat="45.78692161381967" lon="12.047603084097947"><ele>126.0</ele><time>2026-05-01T14:42:30.999Z</time></trkpt><trkpt lat="45.786780144178834" lon="12.047755946573082"><ele>125.0</ele><time>2026-05-01T14:42:31.999Z</time></trkpt><trkpt lat="45.78663808166435" lon="12.04790905617216"><ele>124.0</ele><time>2026-05-01T14:42:32.999Z</time></trkpt><trkpt lat="45.786496666523156" lon="12.048063041299336"><ele>124.0</ele><time>2026-05-01T14:42:33.999Z</time></trkpt><trkpt lat="45.78634382227312" lon="12.048198185465248"><ele>124.0</ele><time>2026-05-01T14:42:34.999Z</time></trkpt><trkpt lat="45.786193656669155" lon="12.048360616871713"><ele>124.0</ele><time>2026-05-01T14:42:35.999Z</time></trkpt><trkpt lat="45.786031337685536" lon="12.048535221677286"><ele>123.5</ele><time>2026-05-01T14:42:36.999Z</time></trkpt><trkpt lat="45.78585080455979" lon="12.048729419187714"><ele>123.0</ele><time>2026-05-01T14:42:37.999Z</time></trkpt><trkpt lat="45.785660647910035" lon="12.048964416879471"><ele>123.0</ele><time>2026-05-01T14:42:38.999Z</time></trkpt><trkpt lat="45.78546005377986" lon="12.049173007346088"><ele>123.0</ele><time>2026-05-01T14:42:39.999Z</time></trkpt><trkpt lat="45.78526868820483" lon="12.049379773613543"><ele>124.5</ele><time>2026-05-01T14:42:40.999Z</time></trkpt><trkpt lat="45.78507709006936" lon="12.04958553427109"><ele>126.0</ele><time>2026-05-01T14:42:41.999Z</time></trkpt><trkpt lat="45.78489035726979" lon="12.049790412213037"><ele>126.5</ele><time>2026-05-01T14:42:42.999Z</time></trkpt><trkpt lat="45.784713844107834" lon="12.050000644465364"><ele>127.0</ele><time>2026-05-01T14:42:43.999Z</time></trkpt><trkpt lat="45.78454773906402" lon="12.050226057081112"><ele>127.0</ele><time>2026-05-01T14:42:45Z</time></trkpt><trkpt lat="45.78439148475106" lon="12.050456291587812"><ele>127.0</ele><time>2026-05-01T14:42:46Z</time></trkpt><trkpt lat="45.784245918977774" lon="12.050693188051612"><ele>127.0</ele><time>2026-05-01T14:42:47Z</time></trkpt><trkpt lat="45.78411353507138" lon="12.050932841821611"><ele>126.66666666666667</ele><time>2026-05-01T14:42:48Z</time></trkpt><trkpt lat="45.783991740360456" lon="12.05117424600348"><ele>126.33333333333334</ele><time>2026-05-01T14:42:49Z</time></trkpt><trkpt lat="45.783881300942205" lon="12.05142047407866"><ele>126.0</ele><time>2026-05-01T14:42:50Z</time></trkpt><trkpt lat="45.78378330937213" lon="12.051663164230478"><ele>126.0</ele><time>2026-05-01T14:42:51Z</time></trkpt><trkpt lat="45.78369321925825" lon="12.051896850309301"><ele>126.0</ele><time>2026-05-01T14:42:52Z</time></trkpt><trkpt lat="45.78361325482057" lon="12.052124493645755"><ele>126.0</ele><time>2026-05-01T14:42:53Z</time></trkpt><trkpt lat="45.783544319450215" lon="12.052346052247719"><ele>126.0</ele><time>2026-05-01T14:42:54Z</time></trkpt><trkpt lat="45.78348358929896" lon="12.052574442632524"><ele>126.0</ele><time>2026-05-01T14:42:55Z</time></trkpt><trkpt lat="45.783427250460335" lon="12.052810653414493"><ele>126.0</ele><time>2026-05-01T14:42:56Z</time></trkpt><trkpt lat="45.78337643194421" lon="12.053052542531141"><ele>125.33333333333334</ele><time>2026-05-01T14:42:57Z</time></trkpt><trkpt lat="45.78333399202502" lon="12.05329152565278"><ele>124.66666666666667</ele><time>2026-05-01T14:42:58Z</time></trkpt><trkpt lat="45.783298106377224" lon="12.0535304911387"><ele>124.0</ele><time>2026-05-01T14:42:59Z</time></trkpt><trkpt lat="45.78326949773981" lon="12.053770051500717"><ele>124.0</ele><time>2026-05-01T14:43:00Z</time></trkpt><trkpt lat="45.78324736551919" lon="12.054008841475365"><ele>124.0</ele><time>2026-05-01T14:43:01Z</time></trkpt><trkpt lat="45.783229526528906" lon="12.054243531769549"><ele>124.0</ele><time>2026-05-01T14:43:02Z</time></trkpt><trkpt lat="45.78321517294388" lon="12.05447991545999"><ele>124.0</ele><time>2026-05-01T14:43:03Z</time></trkpt><trkpt lat="45.78320595846169" lon="12.05471556814839"><ele>124.0</ele><time>2026-05-01T14:43:04Z</time></trkpt><trkpt lat="45.7832041530531" lon="12.054947985284747"><ele>124.0</ele><time>2026-05-01T14:43:05Z</time></trkpt><trkpt lat="45.78320437317969" lon="12.055170248071365"><ele>124.0</ele><time>2026-05-01T14:43:06Z</time></trkpt><trkpt lat="45.78320460999256" lon="12.055385949366904"><ele>124.0</ele><time>2026-05-01T14:43:07Z</time></trkpt><trkpt lat="45.783204769521205" lon="12.055602949007524"><ele>124.0</ele><time>2026-05-01T14:43:08Z</time></trkpt><trkpt lat="45.783203459929936" lon="12.05582098821017"><ele>124.0</ele><time>2026-05-01T14:43:09Z</time></trkpt><trkpt lat="45.783201298768326" lon="12.05604324416406"><ele>124.0</ele><time>2026-05-01T14:43:10Z</time></trkpt><trkpt lat="45.78320035704961" lon="12.05626996471403"><ele>124.0</ele><time>2026-05-01T14:43:11Z</time></trkpt><trkpt lat="45.78320040448677" lon="12.05649958421542"><ele>123.66666666666667</ele><time>2026-05-01T14:43:12Z</time></trkpt><trkpt lat="45.783200538132824" lon="12.056727198367248"><ele>123.33333333333334</ele><time>2026-05-01T14:43:13Z</time></trkpt><trkpt lat="45.78319998612854" lon="12.056949293114853"><ele>123.0</ele><time>2026-05-01T14:43:14Z</time></trkpt><trkpt lat="45.78319872000219" lon="12.057164336626657"><ele>123.0</ele><time>2026-05-01T14:43:15Z</time></trkpt><trkpt lat="45.783198082439014" lon="12.057372404704703"><ele>123.0</ele><time>2026-05-01T14:43:16Z</time></trkpt><trkpt lat="45.783196743683895" lon="12.057576429732409"><ele>123.0</ele><time>2026-05-01T14:43:17Z</time></trkpt><trkpt lat="45.78319511852239" lon="12.05777735157892"><ele>123.0</ele><time>2026-05-01T14:43:18Z</time></trkpt><trkpt lat="45.783191819779574" lon="12.057974928880208"><ele>123.0</ele><time>2026-05-01T14:43:19Z</time></trkpt><trkpt lat="45.783182352904575" lon="12.058170068754155"><ele>123.0</ele><time>2026-05-01T14:43:20Z</time></trkpt><trkpt lat="45.7831653209597" lon="12.05836269007018"><ele>123.0</ele><time>2026-05-01T14:43:21Z</time></trkpt><trkpt lat="45.783137177774755" lon="12.058552509670246"><ele>123.0</ele><time>2026-05-01T14:43:22Z</time></trkpt><trkpt lat="45.783103462468574" lon="12.058727663983706"><ele>123.0</ele><time>2026-05-01T14:43:23Z</time></trkpt><trkpt lat="45.78307675364235" lon="12.058885829375177"><ele>123.00000000000001</ele><time>2026-05-01T14:43:24Z</time></trkpt><trkpt lat="45.78305357429111" lon="12.059032482176152"><ele>123.00000000000001</ele><time>2026-05-01T14:43:25Z</time></trkpt><trkpt lat="45.783040375197494" lon="12.05917034943566"><ele>123.0</ele><time>2026-05-01T14:43:26Z</time></trkpt><trkpt lat="45.78304629101652" lon="12.059295503021085"><ele>123.0</ele><time>2026-05-01T14:43:27Z</time></trkpt><trkpt lat="45.78306634031691" lon="12.059399972852837"><ele>123.0</ele><time>2026-05-01T14:43:28Z</time></trkpt><trkpt lat="45.78310310004492" lon="12.059496699343208"><ele>123.0</ele><time>2026-05-01T14:43:29Z</time></trkpt><trkpt lat="45.783144901818154" lon="12.05958689024906"><ele>123.0</ele><time>2026-05-01T14:43:30Z</time></trkpt><trkpt lat="45.78317125543462" lon="12.059684005314372"><ele>123.0</ele><time>2026-05-01T14:43:31Z</time></trkpt><trkpt lat="45.78318128244702" lon="12.05979950966356"><ele>123.0</ele><time>2026-05-01T14:43:32Z</time></trkpt><trkpt lat="45.783180080464085" lon="12.059921752508195"><ele>123.0</ele><time>2026-05-01T14:43:33Z</time></trkpt><trkpt lat="45.783177169245135" lon="12.06005363223174"><ele>122.60000000000001</ele><time>2026-05-01T14:43:34Z</time></trkpt><trkpt lat="45.78317719431638" lon="12.060193723729569"><ele>122.20000000000002</ele><time>2026-05-01T14:43:35Z</time></trkpt><trkpt lat="45.78318175294526" lon="12.060332876658261"><ele>121.8</ele><time>2026-05-01T14:43:36Z</time></trkpt><trkpt lat="45.7831916893612" lon="12.060466087351935"><ele>121.4</ele><time>2026-05-01T14:43:37Z</time></trkpt><trkpt lat="45.78320982861201" lon="12.060608410841082"><ele>121.0</ele><time>2026-05-01T14:43:38Z</time></trkpt><trkpt lat="45.78322218849628" lon="12.060768490468133"><ele>121.0</ele><time>2026-05-01T14:43:39Z</time></trkpt><trkpt lat="45.78322272672049" lon="12.060939947391292"><ele>121.0</ele><time>2026-05-01T14:43:40Z</time></trkpt><trkpt lat="45.78321723365584" lon="12.061119322648933"><ele>121.0</ele><time>2026-05-01T14:43:41Z</time></trkpt><trkpt lat="45.783187775219645" lon="12.061294405083824"><ele>121.0</ele><time>2026-05-01T14:43:42Z</time></trkpt><trkpt lat="45.78317202823522" lon="12.061479406999517"><ele>120.5</ele><time>2026-05-01T14:43:43Z</time></trkpt><trkpt lat="45.78315804703833" lon="12.061669551288507"><ele>120.0</ele><time>2026-05-01T14:43:44Z</time></trkpt><trkpt lat="45.783160793708966" lon="12.061854919402705"><ele>119.5</ele><time>2026-05-01T14:43:45Z</time></trkpt><trkpt lat="45.7831450802626" lon="12.062038391808425"><ele>119.0</ele><time>2026-05-01T14:43:46Z</time></trkpt><trkpt lat="45.78312717667119" lon="12.062227292787309"><ele>119.0</ele><time>2026-05-01T14:43:47Z</time></trkpt><trkpt lat="45.78310550189198" lon="12.062421823072023"><ele>119.0</ele><time>2026-05-01T14:43:48Z</time></trkpt><trkpt lat="45.783079933522735" lon="12.062621073937063"><ele>119.0</ele><time>2026-05-01T14:43:49Z</time></trkpt><trkpt lat="45.78304919973858" lon="12.062814683514596"><ele>119.0</ele><time>2026-05-01T14:43:50Z</time></trkpt><trkpt lat="45.78301747562231" lon="12.063006101411123"><ele>119.0</ele><time>2026-05-01T14:43:51Z</time></trkpt><trkpt lat="45.782982192635295" lon="12.063192249598394"><ele>119.0</ele><time>2026-05-01T14:43:52Z</time></trkpt><trkpt lat="45.78294297617008" lon="12.063376519508376"><ele>119.0</ele><time>2026-05-01T14:43:53Z</time></trkpt><trkpt lat="45.782894693086135" lon="12.063564638520015"><ele>119.0</ele><time>2026-05-01T14:43:54Z</time></trkpt><trkpt lat="45.782839316275194" lon="12.063757264097372"><ele>119.0</ele><time>2026-05-01T14:43:55Z</time></trkpt><trkpt lat="45.782777868908575" lon="12.063959370549348"><ele>119.0</ele><time>2026-05-01T14:43:56Z</time></trkpt><trkpt lat="45.782676175989096" lon="12.064201273573039"><ele>119.0</ele><time>2026-05-01T14:43:57Z</time></trkpt><trkpt lat="45.782560173655256" lon="12.064509122144335"><ele>119.0</ele><time>2026-05-01T14:43:58Z</time></trkpt><trkpt lat="45.78241164521773" lon="12.06484554734944"><ele>119.0</ele><time>2026-05-01T14:43:59Z</time></trkpt><trkpt lat="45.782243569520155" lon="12.065177601971138"><ele>119.0</ele><time>2026-05-01T14:44:00Z</time></trkpt><trkpt lat="45.782064565746765" lon="12.065497617029989"><ele>119.0</ele><time>2026-05-01T14:44:01Z</time></trkpt><trkpt lat="45.781898050423905" lon="12.06579629869316"><ele>118.0</ele><time>2026-05-01T14:44:02Z</time></trkpt><trkpt lat="45.78170026612019" lon="12.066038662100217"><ele>117.0</ele><time>2026-05-01T14:44:03Z</time></trkpt><trkpt lat="45.781512747829474" lon="12.066294119723988"><ele>117.0</ele><time>2026-05-01T14:44:04Z</time></trkpt><trkpt lat="45.78130702135986" lon="12.066512080399916"><ele>117.0</ele><time>2026-05-01T14:44:05Z</time></trkpt><trkpt lat="45.781097835466326" lon="12.066717608807513"><ele>117.0</ele><time>2026-05-01T14:44:06Z</time></trkpt><trkpt lat="45.78088263303928" lon="12.066910299566905"><ele>117.0</ele><time>2026-05-01T14:44:07Z</time></trkpt><trkpt lat="45.78065549263581" lon="12.06707926134666"><ele>117.0</ele><time>2026-05-01T14:44:08Z</time></trkpt><trkpt lat="45.780423023684754" lon="12.067225302322642"><ele>117.0</ele><time>2026-05-01T14:44:09Z</time></trkpt><trkpt lat="45.78018293145675" lon="12.067364565987033"><ele>116.5</ele><time>2026-05-01T14:44:10Z</time></trkpt><trkpt lat="45.77993290899698" lon="12.067488278069684"><ele>116.0</ele><time>2026-05-01T14:44:11Z</time></trkpt><trkpt lat="45.77967315843711" lon="12.067585537325984"><ele>116.0</ele><time>2026-05-01T14:44:12Z</time></trkpt><trkpt lat="45.77941042409711" lon="12.067660580920723"><ele>116.0</ele><time>2026-05-01T14:44:13Z</time></trkpt><trkpt lat="45.77914762342486" lon="12.067720644522973"><ele>116.0</ele><time>2026-05-01T14:44:14Z</time></trkpt><trkpt lat="45.7788834003819" lon="12.067771625027936"><ele>116.0</ele><time>2026-05-01T14:44:15Z</time></trkpt><trkpt lat="45.77862457368386" lon="12.067825745394769"><ele>114.0</ele><time>2026-05-01T14:44:16Z</time></trkpt><trkpt lat="45.77837014905462" lon="12.067881724535653"><ele>112.0</ele><time>2026-05-01T14:44:17Z</time></trkpt><trkpt lat="45.77811979252498" lon="12.067936276159653"><ele>112.0</ele><time>2026-05-01T14:44:18Z</time></trkpt><trkpt lat="45.77787165407033" lon="12.067989050866315"><ele>112.0</ele><time>2026-05-01T14:44:19Z</time></trkpt><trkpt lat="45.77762616356358" lon="12.068041310726283"><ele>112.5</ele><time>2026-05-01T14:44:20Z</time></trkpt><trkpt lat="45.77738461082249" lon="12.068092219462418"><ele>113.0</ele><time>2026-05-01T14:44:21Z</time></trkpt><trkpt lat="45.77714515793642" lon="12.068143184570793"><ele>113.0</ele><time>2026-05-01T14:44:22Z</time></trkpt><trkpt lat="45.77691025576247" lon="12.068191319558723"><ele>113.0</ele><time>2026-05-01T14:44:23Z</time></trkpt><trkpt lat="45.77667922767647" lon="12.06823828476045"><ele>112.0</ele><time>2026-05-01T14:44:24Z</time></trkpt><trkpt lat="45.776450728166644" lon="12.06828931788862"><ele>111.0</ele><time>2026-05-01T14:44:25Z</time></trkpt><trkpt lat="45.7762179964613" lon="12.068317334054056"><ele>110.0</ele><time>2026-05-01T14:44:26Z</time></trkpt><trkpt lat="45.7759891913333" lon="12.068367835705695"><ele>109.0</ele><time>2026-05-01T14:44:27Z</time></trkpt><trkpt lat="45.7757594230137" lon="12.068422519822967"><ele>109.0</ele><time>2026-05-01T14:44:27.999Z</time></trkpt><trkpt lat="45.77554388418608" lon="12.068599585309357"><ele>109.0</ele><time>2026-05-01T14:44:28.999Z</time></trkpt><trkpt lat="45.775319667194225" lon="12.068717157712628"><ele>108.0</ele><time>2026-05-01T14:44:29.999Z</time></trkpt><trkpt lat="45.7750973263465" lon="12.068854964588262"><ele>107.0</ele><time>2026-05-01T14:44:30.999Z</time></trkpt><trkpt lat="45.77487954946547" lon="12.069005395417953"><ele>106.5</ele><time>2026-05-01T14:44:31.999Z</time></trkpt><trkpt lat="45.77466937940128" lon="12.06916885579057"><ele>106.0</ele><time>2026-05-01T14:44:32.999Z</time></trkpt><trkpt lat="45.774465651778705" lon="12.06934991338131"><ele>106.0</ele><time>2026-05-01T14:44:33.999Z</time></trkpt><trkpt lat="45.7742700674512" lon="12.069548118840256"><ele>106.0</ele><time>2026-05-01T14:44:34.999Z</time></trkpt><trkpt lat="45.77408390029909" lon="12.069762723142714"><ele>105.5</ele><time>2026-05-01T14:44:35.999Z</time></trkpt><trkpt lat="45.773906670530735" lon="12.069993532487958"><ele>105.0</ele><time>2026-05-01T14:44:36.999Z</time></trkpt><trkpt lat="45.77373631225366" lon="12.070237569416975"><ele>105.0</ele><time>2026-05-01T14:44:37.999Z</time></trkpt><trkpt lat="45.77356738848933" lon="12.070493877669373"><ele>105.0</ele><time>2026-05-01T14:44:38.999Z</time></trkpt><trkpt lat="45.77339856088647" lon="12.070756790611433"><ele>105.0</ele><time>2026-05-01T14:44:39.999Z</time></trkpt><trkpt lat="45.77322606171847" lon="12.071024299942234"><ele>105.0</ele><time>2026-05-01T14:44:40.999Z</time></trkpt><trkpt lat="45.773053563675774" lon="12.07129308573324"><ele>105.0</ele><time>2026-05-01T14:44:41.999Z</time></trkpt><trkpt lat="45.772882817785074" lon="12.071557115182284"><ele>105.0</ele><time>2026-05-01T14:44:42.999Z</time></trkpt><trkpt lat="45.772714630069" lon="12.071818539674746"><ele>105.0</ele><time>2026-05-01T14:44:43.999Z</time></trkpt><trkpt lat="45.77255121840062" lon="12.07207579724328"><ele>105.0</ele><time>2026-05-01T14:44:44.999Z</time></trkpt><trkpt lat="45.772391140809766" lon="12.07232793099185"><ele>103.5</ele><time>2026-05-01T14:44:45.999Z</time></trkpt><trkpt lat="45.77223529749376" lon="12.072575255955181"><ele>102.0</ele><time>2026-05-01T14:44:46.999Z</time></trkpt><trkpt lat="45.772081216050665" lon="12.072819153228528"><ele>102.0</ele><time>2026-05-01T14:44:47.999Z</time></trkpt><trkpt lat="45.77192827654495" lon="12.073057042347058"><ele>102.0</ele><time>2026-05-01T14:44:48.999Z</time></trkpt><trkpt lat="45.77177844203304" lon="12.073294955371033"><ele>102.0</ele><time>2026-05-01T14:44:50Z</time></trkpt><trkpt lat="45.77162916963951" lon="12.073531363702186"><ele>102.0</ele><time>2026-05-01T14:44:51Z</time></trkpt><trkpt lat="45.77148053963918" lon="12.073767538498103"><ele>102.0</ele><time>2026-05-01T14:44:52Z</time></trkpt><trkpt lat="45.77133465762784" lon="12.074009033692672"><ele>102.0</ele><time>2026-05-01T14:44:53Z</time></trkpt><trkpt lat="45.771196504413595" lon="12.074259683585511"><ele>102.0</ele><time>2026-05-01T14:44:54Z</time></trkpt><trkpt lat="45.77106812195834" lon="12.074522246302468"><ele>102.0</ele><time>2026-05-01T14:44:55Z</time></trkpt><trkpt lat="45.770955489697556" lon="12.074800019689024"><ele>102.0</ele><time>2026-05-01T14:44:56Z</time></trkpt><trkpt lat="45.77084249670722" lon="12.075080408195923"><ele>101.66666666666666</ele><time>2026-05-01T14:44:57Z</time></trkpt><trkpt lat="45.77072601938754" lon="12.075354159154838"><ele>101.33333333333333</ele><time>2026-05-01T14:44:58Z</time></trkpt><trkpt lat="45.77061655635576" lon="12.075610864390596"><ele>101.0</ele><time>2026-05-01T14:44:59Z</time></trkpt><trkpt lat="45.770514826914145" lon="12.075850604748187"><ele>101.0</ele><time>2026-05-01T14:45:00Z</time></trkpt><trkpt lat="45.77041404172723" lon="12.076088276304404"><ele>101.0</ele><time>2026-05-01T14:45:01Z</time></trkpt><trkpt lat="45.770308459922" lon="12.076320874757851"><ele>101.0</ele><time>2026-05-01T14:45:02Z</time></trkpt><trkpt lat="45.770193405138635" lon="12.076538720224976"><ele>100.66666666666666</ele><time>2026-05-01T14:45:03Z</time></trkpt><trkpt lat="45.77007180299766" lon="12.076742091500629"><ele>100.33333333333334</ele><time>2026-05-01T14:45:04Z</time></trkpt><trkpt lat="45.76994634303912" lon="12.07694554948311"><ele>100.0</ele><time>2026-05-01T14:45:05Z</time></trkpt><trkpt lat="45.76981687863761" lon="12.077151509052257"><ele>100.0</ele><time>2026-05-01T14:45:06Z</time></trkpt><trkpt lat="45.76968453340356" lon="12.07735945084068"><ele>100.0</ele><time>2026-05-01T14:45:07Z</time></trkpt><trkpt lat="45.769549241113936" lon="12.077562956819076"><ele>100.0</ele><time>2026-05-01T14:45:08Z</time></trkpt><trkpt lat="45.769412000188765" lon="12.077761669045781"><ele>99.66666666666667</ele><time>2026-05-01T14:45:09Z</time></trkpt><trkpt lat="45.769273910277136" lon="12.077956436324994"><ele>99.33333333333334</ele><time>2026-05-01T14:45:10Z</time></trkpt><trkpt lat="45.76913367077362" lon="12.07814492914964"><ele>99.0</ele><time>2026-05-01T14:45:11Z</time></trkpt><trkpt lat="45.76898969827694" lon="12.078326364190696"><ele>99.66666666666666</ele><time>2026-05-01T14:45:12Z</time></trkpt><trkpt lat="45.76884184101364" lon="12.078495436756157"><ele>100.33333333333333</ele><time>2026-05-01T14:45:13Z</time></trkpt><trkpt lat="45.76869211749132" lon="12.078660970380888"><ele>101.0</ele><time>2026-05-01T14:45:14Z</time></trkpt><trkpt lat="45.76853819887091" lon="12.078818956914649"><ele>100.0</ele><time>2026-05-01T14:45:15Z</time></trkpt><trkpt lat="45.76838000583942" lon="12.078974045328632"><ele>99.0</ele><time>2026-05-01T14:45:16Z</time></trkpt><trkpt lat="45.768220284922165" lon="12.079127828904065"><ele>98.0</ele><time>2026-05-01T14:45:17Z</time></trkpt><trkpt lat="45.76805775817201" lon="12.079279046180307"><ele>98.0</ele><time>2026-05-01T14:45:18Z</time></trkpt><trkpt lat="45.767898614323606" lon="12.079429155738818"><ele>98.0</ele><time>2026-05-01T14:45:19Z</time></trkpt><trkpt lat="45.76773725951405" lon="12.079582507668253"><ele>98.0</ele><time>2026-05-01T14:45:20Z</time></trkpt><trkpt lat="45.76757242116045" lon="12.07973533433783"><ele>98.0</ele><time>2026-05-01T14:45:21Z</time></trkpt><trkpt lat="45.76741054672752" lon="12.079887225470673"><ele>98.0</ele><time>2026-05-01T14:45:22Z</time></trkpt><trkpt lat="45.76725265273266" lon="12.080035616235431"><ele>98.0</ele><time>2026-05-01T14:45:23Z</time></trkpt><trkpt lat="45.767091766661025" lon="12.08018738801103"><ele>98.0</ele><time>2026-05-01T14:45:24Z</time></trkpt><trkpt lat="45.76692833675534" lon="12.080337155697553"><ele>98.0</ele><time>2026-05-01T14:45:25Z</time></trkpt><trkpt lat="45.76676727504773" lon="12.080488192432826"><ele>98.0</ele><time>2026-05-01T14:45:26Z</time></trkpt><trkpt lat="45.766608852340596" lon="12.08064040599315"><ele>97.66666666666666</ele><time>2026-05-01T14:45:27Z</time></trkpt><trkpt lat="45.76645324687303" lon="12.080789102878992"><ele>97.33333333333334</ele><time>2026-05-01T14:45:28Z</time></trkpt><trkpt lat="45.76629867749708" lon="12.080937854798666"><ele>97.0</ele><time>2026-05-01T14:45:29Z</time></trkpt><trkpt lat="45.76615877133005" lon="12.081078807822852"><ele>96.66666666666667</ele><time>2026-05-01T14:45:30Z</time></trkpt><trkpt lat="45.76602658310977" lon="12.081221746184246"><ele>96.33333333333334</ele><time>2026-05-01T14:45:31Z</time></trkpt><trkpt lat="45.76589818031789" lon="12.081370159931483"><ele>96.0</ele><time>2026-05-01T14:45:32Z</time></trkpt><trkpt lat="45.765777548256125" lon="12.081523187259746"><ele>96.0</ele><time>2026-05-01T14:45:33Z</time></trkpt><trkpt lat="45.765663592305216" lon="12.081678626968431"><ele>96.0</ele><time>2026-05-01T14:45:34Z</time></trkpt><trkpt lat="45.765551716365444" lon="12.08182711570152"><ele>96.0</ele><time>2026-05-01T14:45:35Z</time></trkpt><trkpt lat="45.7654403756167" lon="12.081989557394808"><ele>96.0</ele><time>2026-05-01T14:45:36Z</time></trkpt><trkpt lat="45.765330846626085" lon="12.082158827985168"><ele>96.0</ele><time>2026-05-01T14:45:37Z</time></trkpt><trkpt lat="45.765221286048124" lon="12.082340822710915"><ele>96.0</ele><time>2026-05-01T14:45:38Z</time></trkpt><trkpt lat="45.76511349753509" lon="12.082531131537419"><ele>95.0</ele><time>2026-05-01T14:45:39Z</time></trkpt><trkpt lat="45.765009182408114" lon="12.082725189401177"><ele>94.0</ele><time>2026-05-01T14:45:40Z</time></trkpt><trkpt lat="45.76490821280577" lon="12.082915577852843"><ele>93.0</ele><time>2026-05-01T14:45:41Z</time></trkpt><trkpt lat="45.76480857311321" lon="12.083103188448062"><ele>93.33333333333333</ele><time>2026-05-01T14:45:42Z</time></trkpt><trkpt lat="45.764711229579945" lon="12.083284008997763"><ele>93.66666666666666</ele><time>2026-05-01T14:45:43Z</time></trkpt><trkpt lat="45.76461819149142" lon="12.083460552599863"><ele>94.0</ele><time>2026-05-01T14:45:44Z</time></trkpt><trkpt lat="45.76452983004876" lon="12.083632372275208"><ele>94.0</ele><time>2026-05-01T14:45:45Z</time></trkpt><trkpt lat="45.764443668813094" lon="12.083801233584547"><ele>94.0</ele><time>2026-05-01T14:45:46Z</time></trkpt><trkpt lat="45.76435450507688" lon="12.083967044166435"><ele>94.0</ele><time>2026-05-01T14:45:47Z</time></trkpt><trkpt lat="45.76426402978884" lon="12.084128548244287"><ele>94.0</ele><time>2026-05-01T14:45:48Z</time></trkpt><trkpt lat="45.76417474106423" lon="12.08429209197652"><ele>94.0</ele><time>2026-05-01T14:45:49Z</time></trkpt><trkpt lat="45.7640873363726" lon="12.084459978993015"><ele>94.0</ele><time>2026-05-01T14:45:50Z</time></trkpt><trkpt lat="45.76399864362492" lon="12.084622584321608"><ele>94.0</ele><time>2026-05-01T14:45:51Z</time></trkpt><trkpt lat="45.7639102755109" lon="12.084787682808097"><ele>94.0</ele><time>2026-05-01T14:45:52Z</time></trkpt><trkpt lat="45.76382218208608" lon="12.08495171675932"><ele>94.0</ele><time>2026-05-01T14:45:53Z</time></trkpt><trkpt lat="45.763736093732554" lon="12.085111515115683"><ele>94.0</ele><time>2026-05-01T14:45:54Z</time></trkpt><trkpt lat="45.76365323016013" lon="12.085269465657024"><ele>94.0</ele><time>2026-05-01T14:45:55Z</time></trkpt><trkpt lat="45.763569224767664" lon="12.085426904668353"><ele>94.0</ele><time>2026-05-01T14:45:56Z</time></trkpt><trkpt lat="45.76348622962859" lon="12.085583150050846"><ele>94.25</ele><time>2026-05-01T14:45:57Z</time></trkpt><trkpt lat="45.763403646878395" lon="12.085740863459169"><ele>94.5</ele><time>2026-05-01T14:45:58Z</time></trkpt><trkpt lat="45.76331734532223" lon="12.085897096546969"><ele>94.75</ele><time>2026-05-01T14:45:59Z</time></trkpt><trkpt lat="45.76323090342236" lon="12.086052202338204"><ele>95.0</ele><time>2026-05-01T14:46:00Z</time></trkpt><trkpt lat="45.76314627884642" lon="12.086207782232886"><ele>95.0</ele><time>2026-05-01T14:46:01Z</time></trkpt><trkpt lat="45.763063337584306" lon="12.086351937562235"><ele>95.0</ele><time>2026-05-01T14:46:02Z</time></trkpt><trkpt lat="45.76298165521339" lon="12.086492992218302"><ele>95.0</ele><time>2026-05-01T14:46:03Z</time></trkpt><trkpt lat="45.762901906739415" lon="12.086618714602027"><ele>95.0</ele><time>2026-05-01T14:46:04Z</time></trkpt><trkpt lat="45.762832340397466" lon="12.086727435780032"><ele>94.66666666666667</ele><time>2026-05-01T14:46:05Z</time></trkpt><trkpt lat="45.76277338464554" lon="12.08682115365276"><ele>94.33333333333334</ele><time>2026-05-01T14:46:06Z</time></trkpt><trkpt lat="45.762726420058755" lon="12.086902055247505"><ele>94.0</ele><time>2026-05-01T14:46:07Z</time></trkpt><trkpt lat="45.76268389304367" lon="12.086969612766406"><ele>93.66666666666667</ele><time>2026-05-01T14:46:09Z</time></trkpt><trkpt lat="45.76263949551866" lon="12.087051536195954"><ele>93.33333333333333</ele><time>2026-05-01T14:46:37.999Z</time></trkpt><trkpt lat="45.76258781460716" lon="12.087153498194098"><ele>93.0</ele><time>2026-05-01T14:46:38.999Z</time></trkpt><trkpt lat="45.76251464450271" lon="12.087321792620209"><ele>92.66666666666667</ele><time>2026-05-01T14:46:39.999Z</time></trkpt><trkpt lat="45.76242115730184" lon="12.08751713230386"><ele>92.33333333333334</ele><time>2026-05-01T14:46:40.999Z</time></trkpt><trkpt lat="45.76232113177046" lon="12.087731210949146"><ele>92.0</ele><time>2026-05-01T14:46:41.999Z</time></trkpt><trkpt lat="45.76220650424802" lon="12.087964098884042"><ele>92.0</ele><time>2026-05-01T14:46:42.999Z</time></trkpt><trkpt lat="45.762089663125806" lon="12.088204667535969"><ele>92.0</ele><time>2026-05-01T14:46:43.999Z</time></trkpt><trkpt lat="45.76197506101325" lon="12.088439163002269"><ele>92.0</ele><time>2026-05-01T14:46:44.999Z</time></trkpt><trkpt lat="45.761862441700075" lon="12.088669170750654"><ele>91.33333333333334</ele><time>2026-05-01T14:46:45.999Z</time></trkpt><trkpt lat="45.76175483817782" lon="12.088899203886594"><ele>90.66666666666667</ele><time>2026-05-01T14:46:46.999Z</time></trkpt><trkpt lat="45.761646354316504" lon="12.089123517716377"><ele>90.0</ele><time>2026-05-01T14:46:47.999Z</time></trkpt><trkpt lat="45.76154248731034" lon="12.089338519880297"><ele>90.0</ele><time>2026-05-01T14:46:48.999Z</time></trkpt><trkpt lat="45.76144731630898" lon="12.089531415949509"><ele>90.0</ele><time>2026-05-01T14:46:49.999Z</time></trkpt><trkpt lat="45.76135798799607" lon="12.089707731833194"><ele>90.0</ele><time>2026-05-01T14:46:50.999Z</time></trkpt><trkpt lat="45.76127770399923" lon="12.089863672290342"><ele>90.0</ele><time>2026-05-01T14:46:51.999Z</time></trkpt><trkpt lat="45.76120436616297" lon="12.089990128338796"><ele>90.0</ele><time>2026-05-01T14:46:52.999Z</time></trkpt><trkpt lat="45.761120367527134" lon="12.090077734185197"><ele>90.0</ele><time>2026-05-01T14:46:53.999Z</time></trkpt><trkpt lat="45.76100488857166" lon="12.090123300493026"><ele>90.0</ele><time>2026-05-01T14:46:55Z</time></trkpt><trkpt lat="45.76087052483641" lon="12.090161309702713"><ele>90.25</ele><time>2026-05-01T14:46:56Z</time></trkpt><trkpt lat="45.76074610725106" lon="12.090191240416777"><ele>90.5</ele><time>2026-05-01T14:46:57Z</time></trkpt><trkpt lat="45.760641944368786" lon="12.090161258866495"><ele>90.75</ele><time>2026-05-01T14:46:58Z</time></trkpt><trkpt lat="45.76055319894503" lon="12.090061671069506"><ele>91.0</ele><time>2026-05-01T14:46:59Z</time></trkpt><trkpt lat="45.760495719217516" lon="12.089891151088203"><ele>91.0</ele><time>2026-05-01T14:47:00Z</time></trkpt><trkpt lat="45.760444839313976" lon="12.089711805279515"><ele>91.0</ele><time>2026-05-01T14:47:01Z</time></trkpt><trkpt lat="45.76041138292291" lon="12.089508198093649"><ele>91.0</ele><time>2026-05-01T14:47:02Z</time></trkpt><trkpt lat="45.7603689782635" lon="12.089283648737597"><ele>91.0</ele><time>2026-05-01T14:47:03Z</time></trkpt><trkpt lat="45.760286603456564" lon="12.089066576281114"><ele>91.0</ele><time>2026-05-01T14:47:04Z</time></trkpt><trkpt lat="45.76021169446594" lon="12.088853375897978"><ele>91.0</ele><time>2026-05-01T14:47:05Z</time></trkpt><trkpt lat="45.76014122493745" lon="12.088668373872025"><ele>91.0</ele><time>2026-05-01T14:47:06Z</time></trkpt><trkpt lat="45.76007909286061" lon="12.088505746107787"><ele>91.0</ele><time>2026-05-01T14:47:07Z</time></trkpt><trkpt lat="45.76002273132952" lon="12.08835705998558"><ele>90.83333333333333</ele><time>2026-05-01T14:47:08Z</time></trkpt><trkpt lat="45.759972073350006" lon="12.08822342027811"><ele>90.66666666666666</ele><time>2026-05-01T14:47:09Z</time></trkpt><trkpt lat="45.75993298759879" lon="12.088120309008524"><ele>90.5</ele><time>2026-05-01T14:47:10Z</time></trkpt><trkpt lat="45.75990083029214" lon="12.088035475528493"><ele>90.33333333333333</ele><time>2026-05-01T14:47:11Z</time></trkpt><trkpt lat="45.75985232819547" lon="12.087907897944206"><ele>90.16666666666667</ele><time>2026-05-01T14:47:13Z</time></trkpt><trkpt lat="45.759822037026666" lon="12.08782757946287"><ele>90.0</ele><time>2026-05-01T14:47:27Z</time></trkpt><trkpt lat="45.75978033622498" lon="12.087715809719773"><ele>90.0</ele><time>2026-05-01T14:47:29Z</time></trkpt><trkpt lat="45.75973263320876" lon="12.087587952377422"><ele>90.0</ele><time>2026-05-01T14:47:31Z</time></trkpt><trkpt lat="45.759688836859546" lon="12.087468957973721"><ele>90.0</ele><time>2026-05-01T14:47:33Z</time></trkpt><trkpt lat="45.75965165246976" lon="12.087366211600225"><ele>90.0</ele><time>2026-05-01T14:47:35Z</time></trkpt><trkpt lat="45.75961453886204" lon="12.087261796741094"><ele>90.0</ele><time>2026-05-01T14:47:38Z</time></trkpt><trkpt lat="45.75958504224616" lon="12.087178343362972"><ele>90.0</ele><time>2026-05-01T14:47:41Z</time></trkpt><trkpt lat="45.75955631521944" lon="12.087094835491406"><ele>90.0</ele><time>2026-05-01T14:47:44Z</time></trkpt><trkpt lat="45.75952724347177" lon="12.08701032554192"><ele>90.0</ele><time>2026-05-01T14:47:58Z</time></trkpt><trkpt lat="45.759479873237986" lon="12.086866164163675"><ele>90.0</ele><time>2026-05-01T14:48:00Z</time></trkpt><trkpt lat="45.75943838169077" lon="12.086733524427283"><ele>90.0</ele><time>2026-05-01T14:48:01Z</time></trkpt><trkpt lat="45.7593842417816" lon="12.086542676120436"><ele>90.0</ele><time>2026-05-01T14:48:02Z</time></trkpt><trkpt lat="45.75932814470578" lon="12.08632216591975"><ele>89.5</ele><time>2026-05-01T14:48:03Z</time></trkpt><trkpt lat="45.759249977454935" lon="12.08613481613119"><ele>89.0</ele><time>2026-05-01T14:48:04Z</time></trkpt><trkpt lat="45.75918018009484" lon="12.085968902087872"><ele>88.5</ele><time>2026-05-01T14:48:05Z</time></trkpt><trkpt lat="45.75911371245782" lon="12.085814853263003"><ele>88.0</ele><time>2026-05-01T14:48:06Z</time></trkpt><trkpt lat="45.75904819376507" lon="12.08567979936317"><ele>88.0</ele><time>2026-05-01T14:48:07Z</time></trkpt><trkpt lat="45.75896893934119" lon="12.085567314920079"><ele>88.0</ele><time>2026-05-01T14:48:08Z</time></trkpt><trkpt lat="45.758863884163354" lon="12.085484885184998"><ele>88.0</ele><time>2026-05-01T14:48:09Z</time></trkpt><trkpt lat="45.75874086915335" lon="12.085449124649516"><ele>88.0</ele><time>2026-05-01T14:48:10Z</time></trkpt><trkpt lat="45.75861264639868" lon="12.085465675366002"><ele>87.75</ele><time>2026-05-01T14:48:11Z</time></trkpt><trkpt lat="45.758504863381006" lon="12.085553888084874"><ele>87.5</ele><time>2026-05-01T14:48:12Z</time></trkpt><trkpt lat="45.75841731851539" lon="12.085680986663451"><ele>87.25</ele><time>2026-05-01T14:48:13Z</time></trkpt><trkpt lat="45.75835812644226" lon="12.085837275560653"><ele>87.0</ele><time>2026-05-01T14:48:14Z</time></trkpt><trkpt lat="45.75834242277599" lon="12.08601582642966"><ele>86.75</ele><time>2026-05-01T14:48:15Z</time></trkpt><trkpt lat="45.75836624849712" lon="12.086195567087271"><ele>86.5</ele><time>2026-05-01T14:48:16Z</time></trkpt><trkpt lat="45.75842937751211" lon="12.08635825600224"><ele>86.25</ele><time>2026-05-01T14:48:17Z</time></trkpt><trkpt lat="45.75851095194321" lon="12.086493994532496"><ele>86.0</ele><time>2026-05-01T14:48:18Z</time></trkpt><trkpt lat="45.75858966481851" lon="12.08661895894402"><ele>86.5</ele><time>2026-05-01T14:48:19Z</time></trkpt><trkpt lat="45.75866919576585" lon="12.086750785913422"><ele>87.0</ele><time>2026-05-01T14:48:20Z</time></trkpt><trkpt lat="45.75875780607967" lon="12.086880658594133"><ele>87.5</ele><time>2026-05-01T14:48:21Z</time></trkpt><trkpt lat="45.75884215735712" lon="12.087015865850152"><ele>88.0</ele><time>2026-05-01T14:48:22Z</time></trkpt><trkpt lat="45.758927484808396" lon="12.087159051573636"><ele>88.0</ele><time>2026-05-01T14:48:23Z</time></trkpt><trkpt lat="45.75902005477205" lon="12.087310323012666"><ele>88.0</ele><time>2026-05-01T14:48:24Z</time></trkpt><trkpt lat="45.75911595275586" lon="12.08746931744478"><ele>88.0</ele><time>2026-05-01T14:48:25Z</time></trkpt><trkpt lat="45.75921384043666" lon="12.087639587121235"><ele>88.0</ele><time>2026-05-01T14:48:26Z</time></trkpt><trkpt lat="45.75930983114627" lon="12.087827534151385"><ele>88.66666666666666</ele><time>2026-05-01T14:48:27Z</time></trkpt><trkpt lat="45.759395875670315" lon="12.08802579661441"><ele>89.33333333333333</ele><time>2026-05-01T14:48:28Z</time></trkpt><trkpt lat="45.759487860997744" lon="12.088243769906152"><ele>90.0</ele><time>2026-05-01T14:48:28.999Z</time></trkpt><trkpt lat="45.75958557919834" lon="12.088462419338883"><ele>90.0</ele><time>2026-05-01T14:48:29.999Z</time></trkpt><trkpt lat="45.759692494113864" lon="12.088690869441082"><ele>90.0</ele><time>2026-05-01T14:48:30.999Z</time></trkpt><trkpt lat="45.75981512261506" lon="12.088959564849578"><ele>90.0</ele><time>2026-05-01T14:48:31.999Z</time></trkpt><trkpt lat="45.75994887266385" lon="12.089272667417669"><ele>90.0</ele><time>2026-05-01T14:48:32.999Z</time></trkpt><trkpt lat="45.7600916224536" lon="12.08963687427009"><ele>90.0</ele><time>2026-05-01T14:48:33.999Z</time></trkpt><trkpt lat="45.76023858855935" lon="12.090027134457317"><ele>90.5</ele><time>2026-05-01T14:48:34.999Z</time></trkpt><trkpt lat="45.760390372773905" lon="12.090428277462419"><ele>91.0</ele><time>2026-05-01T14:48:35.999Z</time></trkpt><trkpt lat="45.760540598907355" lon="12.090839618468424"><ele>91.0</ele><time>2026-05-01T14:48:36.999Z</time></trkpt><trkpt lat="45.76068646518691" lon="12.091261568974959"><ele>91.0</ele><time>2026-05-01T14:48:37.999Z</time></trkpt><trkpt lat="45.76081876430714" lon="12.09169278547737"><ele>90.0</ele><time>2026-05-01T14:48:38.999Z</time></trkpt><trkpt lat="45.76094630520635" lon="12.092128068506748"><ele>89.0</ele><time>2026-05-01T14:48:39.999Z</time></trkpt><trkpt lat="45.76106328197752" lon="12.09256685351853"><ele>89.0</ele><time>2026-05-01T14:48:40.999Z</time></trkpt><trkpt lat="45.761170009149104" lon="12.093015739126091"><ele>89.0</ele><time>2026-05-01T14:48:41.999Z</time></trkpt><trkpt lat="45.76126801056098" lon="12.093472008214158"><ele>89.0</ele><time>2026-05-01T14:48:42.999Z</time></trkpt><trkpt lat="45.76136097210104" lon="12.093934011814337"><ele>89.0</ele><time>2026-05-01T14:48:43.999Z</time></trkpt><trkpt lat="45.7614475554141" lon="12.094399213045044"><ele>89.0</ele><time>2026-05-01T14:48:44.999Z</time></trkpt><trkpt lat="45.761531787499216" lon="12.094863933610483"><ele>89.0</ele><time>2026-05-01T14:48:45.999Z</time></trkpt><trkpt lat="45.76160822818471" lon="12.09532863445803"><ele>90.5</ele><time>2026-05-01T14:48:46.999Z</time></trkpt><trkpt lat="45.761673591735075" lon="12.095792941885145"><ele>92.0</ele><time>2026-05-01T14:48:47.999Z</time></trkpt><trkpt lat="45.76173121229964" lon="12.096256571956468"><ele>91.5</ele><time>2026-05-01T14:48:48.999Z</time></trkpt><trkpt lat="45.76178793267018" lon="12.096726003450264"><ele>91.0</ele><time>2026-05-01T14:48:49.999Z</time></trkpt><trkpt lat="45.76184042961767" lon="12.097194635223156"><ele>90.0</ele><time>2026-05-01T14:48:50.999Z</time></trkpt><trkpt lat="45.7618855600972" lon="12.097648952043002"><ele>89.0</ele><time>2026-05-01T14:48:51.999Z</time></trkpt><trkpt lat="45.761932913287175" lon="12.098113397249564"><ele>89.5</ele><time>2026-05-01T14:48:52.999Z</time></trkpt><trkpt lat="45.76197714064751" lon="12.098573561454186"><ele>90.0</ele><time>2026-05-01T14:48:53.999Z</time></trkpt><trkpt lat="45.76202217452683" lon="12.099030324682426"><ele>90.0</ele><time>2026-05-01T14:48:54.999Z</time></trkpt><trkpt lat="45.762071521210586" lon="12.099486047356349"><ele>90.0</ele><time>2026-05-01T14:48:55.999Z</time></trkpt><trkpt lat="45.76211761026553" lon="12.099941836783502"><ele>88.5</ele><time>2026-05-01T14:48:56.999Z</time></trkpt><trkpt lat="45.76216588388727" lon="12.100401836791363"><ele>87.0</ele><time>2026-05-01T14:48:57.999Z</time></trkpt><trkpt lat="45.7622095844251" lon="12.100862591571458"><ele>86.5</ele><time>2026-05-01T14:48:58.999Z</time></trkpt><trkpt lat="45.76225534485426" lon="12.1013244703048"><ele>86.0</ele><time>2026-05-01T14:48:59.999Z</time></trkpt><trkpt lat="45.76230051323994" lon="12.101789065012868"><ele>86.0</ele><time>2026-05-01T14:49:01Z</time></trkpt><trkpt lat="45.76234258503487" lon="12.102252579750271"><ele>86.0</ele><time>2026-05-01T14:49:02Z</time></trkpt><trkpt lat="45.76238312282722" lon="12.10271732082003"><ele>85.5</ele><time>2026-05-01T14:49:03Z</time></trkpt><trkpt lat="45.7624278152201" lon="12.103184417653132"><ele>85.0</ele><time>2026-05-01T14:49:04Z</time></trkpt><trkpt lat="45.76247549907995" lon="12.103651114202105"><ele>83.5</ele><time>2026-05-01T14:49:05Z</time></trkpt><trkpt lat="45.76252518576041" lon="12.104118059515402"><ele>82.0</ele><time>2026-05-01T14:49:06Z</time></trkpt><trkpt lat="45.76257338869474" lon="12.104583940219925"><ele>82.0</ele><time>2026-05-01T14:49:07Z</time></trkpt><trkpt lat="45.76261988589271" lon="12.105048425291994"><ele>82.0</ele><time>2026-05-01T14:49:08Z</time></trkpt><trkpt lat="45.76266702590319" lon="12.105515707083"><ele>82.0</ele><time>2026-05-01T14:49:09Z</time></trkpt><trkpt lat="45.76271267304635" lon="12.10598130111624"><ele>82.0</ele><time>2026-05-01T14:49:10Z</time></trkpt><trkpt lat="45.76275978963807" lon="12.106446936483986"><ele>83.0</ele><time>2026-05-01T14:49:11Z</time></trkpt><trkpt lat="45.76280666887246" lon="12.106915888615287"><ele>84.0</ele><time>2026-05-01T14:49:12Z</time></trkpt><trkpt lat="45.76285371915173" lon="12.107386520367578"><ele>84.5</ele><time>2026-05-01T14:49:13Z</time></trkpt><trkpt lat="45.762900947323566" lon="12.107856208978724"><ele>85.0</ele><time>2026-05-01T14:49:14Z</time></trkpt><trkpt lat="45.762948726319145" lon="12.108330111059226"><ele>86.0</ele><time>2026-05-01T14:49:15Z</time></trkpt><trkpt lat="45.76299579270355" lon="12.108804693388478"><ele>87.0</ele><time>2026-05-01T14:49:16Z</time></trkpt><trkpt lat="45.76304308238085" lon="12.10927935883336"><ele>87.0</ele><time>2026-05-01T14:49:17Z</time></trkpt><trkpt lat="45.76308959480985" lon="12.109753004278875"><ele>87.0</ele><time>2026-05-01T14:49:18Z</time></trkpt><trkpt lat="45.763136225255444" lon="12.11022132336087"><ele>87.0</ele><time>2026-05-01T14:49:19Z</time></trkpt><trkpt lat="45.763182645275386" lon="12.110685419982714"><ele>87.0</ele><time>2026-05-01T14:49:20Z</time></trkpt><trkpt lat="45.7632289382977" lon="12.111150434205397"><ele>87.0</ele><time>2026-05-01T14:49:21Z</time></trkpt><trkpt lat="45.76327495134378" lon="12.111619555371643"><ele>87.0</ele><time>2026-05-01T14:49:22Z</time></trkpt><trkpt lat="45.76332199894353" lon="12.112092731882829"><ele>86.5</ele><time>2026-05-01T14:49:23Z</time></trkpt><trkpt lat="45.76336971873321" lon="12.112565468477193"><ele>86.0</ele><time>2026-05-01T14:49:24Z</time></trkpt><trkpt lat="45.763417655340575" lon="12.113043709377198"><ele>86.0</ele><time>2026-05-01T14:49:25Z</time></trkpt><trkpt lat="45.76346470628057" lon="12.11352118201717"><ele>86.0</ele><time>2026-05-01T14:49:26Z</time></trkpt><trkpt lat="45.763509345630396" lon="12.114005119879213"><ele>85.5</ele><time>2026-05-01T14:49:27Z</time></trkpt><trkpt lat="45.763545503921975" lon="12.114494374690015"><ele>85.0</ele><time>2026-05-01T14:49:28Z</time></trkpt><trkpt lat="45.763574654221685" lon="12.114983100139243"><ele>85.0</ele><time>2026-05-01T14:49:29Z</time></trkpt><trkpt lat="45.763591078275255" lon="12.115470876749312"><ele>85.0</ele><time>2026-05-01T14:49:30Z</time></trkpt><trkpt lat="45.76359231821892" lon="12.115956131711494"><ele>84.0</ele><time>2026-05-01T14:49:31Z</time></trkpt><trkpt lat="45.76358055515561" lon="12.116434954494618"><ele>83.0</ele><time>2026-05-01T14:49:32Z</time></trkpt><trkpt lat="45.763555655281614" lon="12.116914259307304"><ele>82.0</ele><time>2026-05-01T14:49:33Z</time></trkpt><trkpt lat="45.763521078686026" lon="12.117390963198481"><ele>81.0</ele><time>2026-05-01T14:49:34Z</time></trkpt><trkpt lat="45.76347807161468" lon="12.117865107591957"><ele>82.0</ele><time>2026-05-01T14:49:35Z</time></trkpt><trkpt lat="45.76342834073804" lon="12.118327523227416"><ele>83.0</ele><time>2026-05-01T14:49:36Z</time></trkpt><trkpt lat="45.763376572171964" lon="12.118785111168378"><ele>81.5</ele><time>2026-05-01T14:49:37Z</time></trkpt><trkpt lat="45.76332375766277" lon="12.119239900405416"><ele>80.0</ele><time>2026-05-01T14:49:38Z</time></trkpt><trkpt lat="45.76327177877653" lon="12.119695391974336"><ele>80.0</ele><time>2026-05-01T14:49:39Z</time></trkpt><trkpt lat="45.76321776054587" lon="12.120147697682993"><ele>80.0</ele><time>2026-05-01T14:49:40Z</time></trkpt><trkpt lat="45.76316464914844" lon="12.120598260383423"><ele>79.5</ele><time>2026-05-01T14:49:41Z</time></trkpt><trkpt lat="45.76311303436701" lon="12.1210499408963"><ele>79.0</ele><time>2026-05-01T14:49:42Z</time></trkpt><trkpt lat="45.763064957384856" lon="12.121502319248476"><ele>79.5</ele><time>2026-05-01T14:49:43Z</time></trkpt><trkpt lat="45.76302450522791" lon="12.121958013413227"><ele>80.0</ele><time>2026-05-01T14:49:44Z</time></trkpt><trkpt lat="45.762990506904366" lon="12.122413543870106"><ele>80.5</ele><time>2026-05-01T14:49:45Z</time></trkpt><trkpt lat="45.76296224730046" lon="12.122870142388097"><ele>81.0</ele><time>2026-05-01T14:49:46Z</time></trkpt><trkpt lat="45.762943345463924" lon="12.123327836902025"><ele>81.0</ele><time>2026-05-01T14:49:47Z</time></trkpt><trkpt lat="45.762934416501366" lon="12.123785748298152"><ele>81.0</ele><time>2026-05-01T14:49:48Z</time></trkpt><trkpt lat="45.762936178398775" lon="12.12424483708659"><ele>80.5</ele><time>2026-05-01T14:49:49Z</time></trkpt><trkpt lat="45.762945215842265" lon="12.124705266205975"><ele>80.0</ele><time>2026-05-01T14:49:50Z</time></trkpt><trkpt lat="45.7629604019013" lon="12.125160686449496"><ele>80.0</ele><time>2026-05-01T14:49:51Z</time></trkpt><trkpt lat="45.762982739353994" lon="12.125615207279079"><ele>80.0</ele><time>2026-05-01T14:49:52Z</time></trkpt><trkpt lat="45.76301348818564" lon="12.126069102535178"><ele>79.5</ele><time>2026-05-01T14:49:53Z</time></trkpt><trkpt lat="45.76305255643478" lon="12.126525526626232"><ele>79.0</ele><time>2026-05-01T14:49:54Z</time></trkpt><trkpt lat="45.763100271326046" lon="12.126980816880716"><ele>79.0</ele><time>2026-05-01T14:49:55Z</time></trkpt><trkpt lat="45.763153312547786" lon="12.12744016441543"><ele>79.0</ele><time>2026-05-01T14:49:56Z</time></trkpt><trkpt lat="45.76321576206656" lon="12.127896446277767"><ele>78.5</ele><time>2026-05-01T14:49:57Z</time></trkpt><trkpt lat="45.76328500617165" lon="12.12835047424134"><ele>78.0</ele><time>2026-05-01T14:49:58Z</time></trkpt><trkpt lat="45.763365287472205" lon="12.128800936350606"><ele>77.0</ele><time>2026-05-01T14:49:59Z</time></trkpt><trkpt lat="45.76345351113459" lon="12.129251496097625"><ele>76.0</ele><time>2026-05-01T14:50:00Z</time></trkpt><trkpt lat="45.7635477587521" lon="12.129697546715237"><ele>77.0</ele><time>2026-05-01T14:50:01Z</time></trkpt><trkpt lat="45.763649409854864" lon="12.130141445120566"><ele>78.0</ele><time>2026-05-01T14:50:02Z</time></trkpt><trkpt lat="45.76375661255256" lon="12.130584977951132"><ele>78.5</ele><time>2026-05-01T14:50:03Z</time></trkpt><trkpt lat="45.76386383076948" lon="12.131030688355647"><ele>79.0</ele><time>2026-05-01T14:50:04Z</time></trkpt><trkpt lat="45.76396998084493" lon="12.131480105522801"><ele>78.0</ele><time>2026-05-01T14:50:05Z</time></trkpt><trkpt lat="45.76407380092532" lon="12.13192623349476"><ele>77.0</ele><time>2026-05-01T14:50:06Z</time></trkpt><trkpt lat="45.76417374150794" lon="12.132368380754162"><ele>77.0</ele><time>2026-05-01T14:50:07Z</time></trkpt><trkpt lat="45.76427243516413" lon="12.13281051197911"><ele>77.0</ele><time>2026-05-01T14:50:08Z</time></trkpt><trkpt lat="45.76437591944126" lon="12.133248825513993"><ele>77.0</ele><time>2026-05-01T14:50:09Z</time></trkpt><trkpt lat="45.76448082823249" lon="12.13368699579808"><ele>77.0</ele><time>2026-05-01T14:50:10Z</time></trkpt><trkpt lat="45.76458124747324" lon="12.134124266524891"><ele>76.5</ele><time>2026-05-01T14:50:11Z</time></trkpt><trkpt lat="45.7646706047072" lon="12.134568104780238"><ele>76.0</ele><time>2026-05-01T14:50:12Z</time></trkpt><trkpt lat="45.764753646621585" lon="12.135013289546205"><ele>75.5</ele><time>2026-05-01T14:50:13Z</time></trkpt><trkpt lat="45.76481268480233" lon="12.13545220771376"><ele>75.0</ele><time>2026-05-01T14:50:14Z</time></trkpt><trkpt lat="45.76485708940147" lon="12.1358978942062"><ele>75.0</ele><time>2026-05-01T14:50:15Z</time></trkpt><trkpt lat="45.76489994618096" lon="12.136348647835444"><ele>75.0</ele><time>2026-05-01T14:50:16Z</time></trkpt><trkpt lat="45.76493669994954" lon="12.136798983428482"><ele>75.0</ele><time>2026-05-01T14:50:17Z</time></trkpt><trkpt lat="45.76496682037869" lon="12.137249595631948"><ele>75.0</ele><time>2026-05-01T14:50:18Z</time></trkpt><trkpt lat="45.764990818846094" lon="12.137698809710392"><ele>74.5</ele><time>2026-05-01T14:50:19Z</time></trkpt><trkpt lat="45.765007014672456" lon="12.138147089208049"><ele>74.0</ele><time>2026-05-01T14:50:20Z</time></trkpt><trkpt lat="45.76501113713116" lon="12.138598816558634"><ele>73.5</ele><time>2026-05-01T14:50:21Z</time></trkpt><trkpt lat="45.76500674185705" lon="12.13904939204845"><ele>73.0</ele><time>2026-05-01T14:50:22Z</time></trkpt><trkpt lat="45.76499252352079" lon="12.139501550142244"><ele>74.0</ele><time>2026-05-01T14:50:23Z</time></trkpt><trkpt lat="45.76496940422512" lon="12.139953803288275"><ele>75.0</ele><time>2026-05-01T14:50:24Z</time></trkpt><trkpt lat="45.764937891002845" lon="12.140407100823468"><ele>75.0</ele><time>2026-05-01T14:50:25Z</time></trkpt><trkpt lat="45.76489865760467" lon="12.140859257674155"><ele>75.0</ele><time>2026-05-01T14:50:26Z</time></trkpt><trkpt lat="45.764853906743745" lon="12.141309265120652"><ele>75.0</ele><time>2026-05-01T14:50:27Z</time></trkpt><trkpt lat="45.76480400870022" lon="12.141757239986257"><ele>75.0</ele><time>2026-05-01T14:50:28Z</time></trkpt><trkpt lat="45.76474951214913" lon="12.142203856919728"><ele>75.0</ele><time>2026-05-01T14:50:29Z</time></trkpt><trkpt lat="45.76469257362394" lon="12.142653342697555"><ele>75.0</ele><time>2026-05-01T14:50:30Z</time></trkpt><trkpt lat="45.7646350501981" lon="12.14310029309155"><ele>76.0</ele><time>2026-05-01T14:50:31Z</time></trkpt><trkpt lat="45.76457826665432" lon="12.143547804170373"><ele>77.0</ele><time>2026-05-01T14:50:32Z</time></trkpt><trkpt lat="45.76452518389721" lon="12.143992063993"><ele>75.5</ele><time>2026-05-01T14:50:32.999Z</time></trkpt><trkpt lat="45.76447886144625" lon="12.144436015111237"><ele>74.0</ele><time>2026-05-01T14:50:33.999Z</time></trkpt><trkpt lat="45.76444120334808" lon="12.144880042961814"><ele>73.0</ele><time>2026-05-01T14:50:34.999Z</time></trkpt><trkpt lat="45.76441241681124" lon="12.145326231624143"><ele>72.0</ele><time>2026-05-01T14:50:35.999Z</time></trkpt><trkpt lat="45.76439154606331" lon="12.145773304507435"><ele>72.0</ele><time>2026-05-01T14:50:36.999Z</time></trkpt><trkpt lat="45.7643799515498" lon="12.146217034942433"><ele>72.0</ele><time>2026-05-01T14:50:37.999Z</time></trkpt><trkpt lat="45.764377633915764" lon="12.146662684093382"><ele>73.0</ele><time>2026-05-01T14:50:38.999Z</time></trkpt><trkpt lat="45.764384497707645" lon="12.147105148821508"><ele>74.0</ele><time>2026-05-01T14:50:39.999Z</time></trkpt><trkpt lat="45.764396021686515" lon="12.147546393882047"><ele>74.5</ele><time>2026-05-01T14:50:40.999Z</time></trkpt><trkpt lat="45.76441509830451" lon="12.147989128645035"><ele>75.0</ele><time>2026-05-01T14:50:41.999Z</time></trkpt><trkpt lat="45.76444290495371" lon="12.148428374341771"><ele>74.0</ele><time>2026-05-01T14:50:42.999Z</time></trkpt><trkpt lat="45.764482162271854" lon="12.14886268847507"><ele>73.0</ele><time>2026-05-01T14:50:43.999Z</time></trkpt><trkpt lat="45.7645308393989" lon="12.149294417005148"><ele>73.0</ele><time>2026-05-01T14:50:44.999Z</time></trkpt><trkpt lat="45.76458593148765" lon="12.149726126394837"><ele>73.0</ele><time>2026-05-01T14:50:45.999Z</time></trkpt><trkpt lat="45.76464436915332" lon="12.15015643543786"><ele>72.5</ele><time>2026-05-01T14:50:46.999Z</time></trkpt><trkpt lat="45.76470616253669" lon="12.150589673415944"><ele>72.0</ele><time>2026-05-01T14:50:47.999Z</time></trkpt><trkpt lat="45.76477056066398" lon="12.151028162245812"><ele>71.5</ele><time>2026-05-01T14:50:48.999Z</time></trkpt><trkpt lat="45.764834960438066" lon="12.15146740389449"><ele>71.0</ele><time>2026-05-01T14:50:49.999Z</time></trkpt><trkpt lat="45.76490435361498" lon="12.151912889124903"><ele>71.5</ele><time>2026-05-01T14:50:50.999Z</time></trkpt><trkpt lat="45.764972611014684" lon="12.152359838233197"><ele>72.0</ele><time>2026-05-01T14:50:51.999Z</time></trkpt><trkpt lat="45.765040771579734" lon="12.152805456870498"><ele>72.0</ele><time>2026-05-01T14:50:52.999Z</time></trkpt><trkpt lat="45.765106045419934" lon="12.153244774926138"><ele>72.0</ele><time>2026-05-01T14:50:53.999Z</time></trkpt><trkpt lat="45.76516521402857" lon="12.153679555551264"><ele>72.5</ele><time>2026-05-01T14:50:54.999Z</time></trkpt><trkpt lat="45.76522959724738" lon="12.154117927455829"><ele>73.0</ele><time>2026-05-01T14:50:55.999Z</time></trkpt><trkpt lat="45.76529471137064" lon="12.15456121328915"><ele>72.0</ele><time>2026-05-01T14:50:56.999Z</time></trkpt><trkpt lat="45.765357868701635" lon="12.155004403325194"><ele>71.0</ele><time>2026-05-01T14:50:57.999Z</time></trkpt><trkpt lat="45.765413809076705" lon="12.155453157882855"><ele>72.0</ele><time>2026-05-01T14:50:58.999Z</time></trkpt><trkpt lat="45.76545389726348" lon="12.155899248809028"><ele>73.0</ele><time>2026-05-01T14:50:59.999Z</time></trkpt><trkpt lat="45.76548899354464" lon="12.156356138777838"><ele>72.5</ele><time>2026-05-01T14:51:00.999Z</time></trkpt><trkpt lat="45.76552120100031" lon="12.156814130076949"><ele>72.0</ele><time>2026-05-01T14:51:01.999Z</time></trkpt><trkpt lat="45.76554726517118" lon="12.15726810295248"><ele>71.5</ele><time>2026-05-01T14:51:02.999Z</time></trkpt><trkpt lat="45.76556553387936" lon="12.157725659510845"><ele>71.0</ele><time>2026-05-01T14:51:03.999Z</time></trkpt><trkpt lat="45.765581735319095" lon="12.158176985218338"><ele>71.0</ele><time>2026-05-01T14:51:04.999Z</time></trkpt><trkpt lat="45.765595820334966" lon="12.15862816684424"><ele>71.0</ele><time>2026-05-01T14:51:05.999Z</time></trkpt><trkpt lat="45.76560861335063" lon="12.15907852666096"><ele>71.0</ele><time>2026-05-01T14:51:07Z</time></trkpt><trkpt lat="45.76562436778376" lon="12.159530628210458"><ele>71.0</ele><time>2026-05-01T14:51:08Z</time></trkpt><trkpt lat="45.76563586480975" lon="12.159987279188023"><ele>71.0</ele><time>2026-05-01T14:51:09Z</time></trkpt><trkpt lat="45.76565000757827" lon="12.160430128234648"><ele>71.0</ele><time>2026-05-01T14:51:10Z</time></trkpt><trkpt lat="45.76566277255098" lon="12.160865487654668"><ele>70.5</ele><time>2026-05-01T14:51:11Z</time></trkpt><trkpt lat="45.76568435779379" lon="12.161299676561963"><ele>70.0</ele><time>2026-05-01T14:51:12Z</time></trkpt><trkpt lat="45.76571373834522" lon="12.161734419463652"><ele>70.0</ele><time>2026-05-01T14:51:13Z</time></trkpt><trkpt lat="45.76575099910689" lon="12.162166801031798"><ele>70.0</ele><time>2026-05-01T14:51:14Z</time></trkpt><trkpt lat="45.76579498768844" lon="12.162596234759446"><ele>71.0</ele><time>2026-05-01T14:51:15Z</time></trkpt><trkpt lat="45.7658473803742" lon="12.163022224899015"><ele>72.0</ele><time>2026-05-01T14:51:16Z</time></trkpt><trkpt lat="45.765906504909445" lon="12.16344884837127"><ele>72.0</ele><time>2026-05-01T14:51:17Z</time></trkpt><trkpt lat="45.76597115346127" lon="12.1638759286318"><ele>72.0</ele><time>2026-05-01T14:51:18Z</time></trkpt><trkpt lat="45.76604095665351" lon="12.164306392172348"><ele>70.5</ele><time>2026-05-01T14:51:19Z</time></trkpt><trkpt lat="45.76611429286739" lon="12.164740468885157"><ele>69.0</ele><time>2026-05-01T14:51:20Z</time></trkpt><trkpt lat="45.76618715238911" lon="12.165178155351049"><ele>68.5</ele><time>2026-05-01T14:51:21Z</time></trkpt><trkpt lat="45.766257343693034" lon="12.165619259901012"><ele>68.0</ele><time>2026-05-01T14:51:22Z</time></trkpt><trkpt lat="45.766328928932836" lon="12.16606507649834"><ele>67.5</ele><time>2026-05-01T14:51:23Z</time></trkpt><trkpt lat="45.76639744953594" lon="12.166507711226167"><ele>67.0</ele><time>2026-05-01T14:51:24Z</time></trkpt><trkpt lat="45.76646138035136" lon="12.166945235670012"><ele>66.5</ele><time>2026-05-01T14:51:25Z</time></trkpt><trkpt lat="45.76652102987205" lon="12.167377419695823"><ele>66.0</ele><time>2026-05-01T14:51:26Z</time></trkpt><trkpt lat="45.766573168652805" lon="12.167814511026066"><ele>67.0</ele><time>2026-05-01T14:51:27Z</time></trkpt><trkpt lat="45.766620945553576" lon="12.16825196322759"><ele>68.0</ele><time>2026-05-01T14:51:28Z</time></trkpt><trkpt lat="45.766663399379745" lon="12.168691385054265"><ele>69.0</ele><time>2026-05-01T14:51:29Z</time></trkpt><trkpt lat="45.76669100017833" lon="12.169130042435658"><ele>70.0</ele><time>2026-05-01T14:51:30Z</time></trkpt><trkpt lat="45.76670171644713" lon="12.169569669579097"><ele>69.5</ele><time>2026-05-01T14:51:31Z</time></trkpt><trkpt lat="45.76670017237893" lon="12.170008565204649"><ele>69.0</ele><time>2026-05-01T14:51:32Z</time></trkpt><trkpt lat="45.766686586604244" lon="12.170447009515577"><ele>68.5</ele><time>2026-05-01T14:51:33Z</time></trkpt><trkpt lat="45.76666260625398" lon="12.170881899766952"><ele>68.0</ele><time>2026-05-01T14:51:34Z</time></trkpt><trkpt lat="45.766629391768305" lon="12.171316848082753"><ele>66.5</ele><time>2026-05-01T14:51:35Z</time></trkpt><trkpt lat="45.76658436200221" lon="12.171749017864073"><ele>65.0</ele><time>2026-05-01T14:51:36Z</time></trkpt><trkpt lat="45.766529982784064" lon="12.1721796544504"><ele>65.5</ele><time>2026-05-01T14:51:37Z</time></trkpt><trkpt lat="45.76646493586314" lon="12.172609207566452"><ele>66.0</ele><time>2026-05-01T14:51:38Z</time></trkpt><trkpt lat="45.76639168086125" lon="12.173037975501533"><ele>66.5</ele><time>2026-05-01T14:51:39Z</time></trkpt><trkpt lat="45.76630945458962" lon="12.173466069265446"><ele>67.0</ele><time>2026-05-01T14:51:40Z</time></trkpt><trkpt lat="45.766221754450044" lon="12.17389369935242"><ele>66.0</ele><time>2026-05-01T14:51:41Z</time></trkpt><trkpt lat="45.766135269518315" lon="12.174322883238478"><ele>65.0</ele><time>2026-05-01T14:51:42Z</time></trkpt><trkpt lat="45.76604420639007" lon="12.174753168190962"><ele>65.5</ele><time>2026-05-01T14:51:43Z</time></trkpt><trkpt lat="45.76595093356932" lon="12.17518364079674"><ele>66.0</ele><time>2026-05-01T14:51:44Z</time></trkpt><trkpt lat="45.765860003230976" lon="12.175612948929935"><ele>66.0</ele><time>2026-05-01T14:51:45Z</time></trkpt><trkpt lat="45.76577224152848" lon="12.176041690022574"><ele>66.0</ele><time>2026-05-01T14:51:46Z</time></trkpt><trkpt lat="45.765688284846256" lon="12.17646920104385"><ele>66.0</ele><time>2026-05-01T14:51:47Z</time></trkpt><trkpt lat="45.76560556286879" lon="12.176898965374631"><ele>66.0</ele><time>2026-05-01T14:51:48Z</time></trkpt><trkpt lat="45.76552211983636" lon="12.177331204257012"><ele>65.5</ele><time>2026-05-01T14:51:49Z</time></trkpt><trkpt lat="45.765436460302055" lon="12.177766787166941"><ele>65.0</ele><time>2026-05-01T14:51:50Z</time></trkpt><trkpt lat="45.76534996714926" lon="12.178205436426166"><ele>64.5</ele><time>2026-05-01T14:51:51Z</time></trkpt><trkpt lat="45.765261472699045" lon="12.178647542794774"><ele>64.0</ele><time>2026-05-01T14:51:52Z</time></trkpt><trkpt lat="45.7651644567097" lon="12.179125390896528"><ele>64.5</ele><time>2026-05-01T14:51:53.069Z</time></trkpt><trkpt lat="45.7650728001387" lon="12.17957808827571"><ele>65.0</ele><time>2026-05-01T14:51:54.073Z</time></trkpt><trkpt lat="45.76489505291912" lon="12.18043878879749"><ele>64.0</ele><time>2026-05-01T14:51:56Z</time></trkpt><trkpt lat="45.76481470675206" lon="12.180829729754391"><ele>63.0</ele><time>2026-05-01T14:51:57Z</time></trkpt><trkpt lat="45.764733293547" lon="12.181237219533866"><ele>64.0</ele><time>2026-05-01T14:51:58Z</time></trkpt><trkpt lat="45.76464944723262" lon="12.181658529735374"><ele>65.0</ele><time>2026-05-01T14:51:59Z</time></trkpt><trkpt lat="45.764563092274905" lon="12.18208229232515"><ele>66.0</ele><time>2026-05-01T14:52:00Z</time></trkpt><trkpt lat="45.764472793205066" lon="12.182508191828425"><ele>67.0</ele><time>2026-05-01T14:52:01Z</time></trkpt><trkpt lat="45.76438192287354" lon="12.182936558032901"><ele>65.5</ele><time>2026-05-01T14:52:02Z</time></trkpt><trkpt lat="45.76429657623393" lon="12.183369515312103"><ele>64.0</ele><time>2026-05-01T14:52:03Z</time></trkpt><trkpt lat="45.76422292851917" lon="12.183806869676383"><ele>62.5</ele><time>2026-05-01T14:52:04Z</time></trkpt><trkpt lat="45.76416179977231" lon="12.184251141895235"><ele>61.0</ele><time>2026-05-01T14:52:05Z</time></trkpt><trkpt lat="45.764117427026235" lon="12.184693765676135"><ele>61.5</ele><time>2026-05-01T14:52:06Z</time></trkpt><trkpt lat="45.76408715609922" lon="12.185142662562942"><ele>62.0</ele><time>2026-05-01T14:52:07Z</time></trkpt><trkpt lat="45.76406998436623" lon="12.18559406396053"><ele>63.0</ele><time>2026-05-01T14:52:08Z</time></trkpt><trkpt lat="45.76405881504861" lon="12.186044778187942"><ele>64.0</ele><time>2026-05-01T14:52:09Z</time></trkpt><trkpt lat="45.76405644090854" lon="12.186500310796136"><ele>64.0</ele><time>2026-05-01T14:52:10Z</time></trkpt><trkpt lat="45.7640651178239" lon="12.186956920736984"><ele>64.0</ele><time>2026-05-01T14:52:11Z</time></trkpt><trkpt lat="45.76408731227117" lon="12.187410932160981"><ele>64.0</ele><time>2026-05-01T14:52:12Z</time></trkpt><trkpt lat="45.76412121563558" lon="12.187860571360087"><ele>64.0</ele><time>2026-05-01T14:52:13Z</time></trkpt><trkpt lat="45.76416591468711" lon="12.188306701830927"><ele>63.5</ele><time>2026-05-01T14:52:14Z</time></trkpt><trkpt lat="45.764221086424506" lon="12.188747423758436"><ele>63.0</ele><time>2026-05-01T14:52:15Z</time></trkpt><trkpt lat="45.76428686264835" lon="12.189186893908783"><ele>63.0</ele><time>2026-05-01T14:52:16Z</time></trkpt><trkpt lat="45.76436521939034" lon="12.189622402110494"><ele>63.0</ele><time>2026-05-01T14:52:17Z</time></trkpt><trkpt lat="45.764454194327485" lon="12.190052541176854"><ele>62.0</ele><time>2026-05-01T14:52:18Z</time></trkpt><trkpt lat="45.764550437434586" lon="12.19048103646298"><ele>61.0</ele><time>2026-05-01T14:52:19Z</time></trkpt><trkpt lat="45.76465066081227" lon="12.190908765016493"><ele>60.0</ele><time>2026-05-01T14:52:20Z</time></trkpt><trkpt lat="45.764753886376624" lon="12.19133766909954"><ele>59.0</ele><time>2026-05-01T14:52:21Z</time></trkpt><trkpt lat="45.764860877749754" lon="12.191767279403352"><ele>59.0</ele><time>2026-05-01T14:52:22Z</time></trkpt><trkpt lat="45.7649666598621" lon="12.19220271236424"><ele>59.0</ele><time>2026-05-01T14:52:23Z</time></trkpt><trkpt lat="45.76507262631282" lon="12.192645123957973"><ele>59.5</ele><time>2026-05-01T14:52:24Z</time></trkpt><trkpt lat="45.76517685333163" lon="12.19309038669365"><ele>60.0</ele><time>2026-05-01T14:52:25Z</time></trkpt><trkpt lat="45.765278999018435" lon="12.193538328552114"><ele>60.0</ele><time>2026-05-01T14:52:26Z</time></trkpt><trkpt lat="45.76537710026128" lon="12.193987497220087"><ele>60.0</ele><time>2026-05-01T14:52:27Z</time></trkpt><trkpt lat="45.76546884629383" lon="12.19443255178639"><ele>60.5</ele><time>2026-05-01T14:52:28Z</time></trkpt><trkpt lat="45.765555426659844" lon="12.194878619584424"><ele>61.0</ele><time>2026-05-01T14:52:29Z</time></trkpt><trkpt lat="45.76563672809493" lon="12.195331434763112"><ele>60.5</ele><time>2026-05-01T14:52:30Z</time></trkpt><trkpt lat="45.765707123610134" lon="12.195787908512742"><ele>60.0</ele><time>2026-05-01T14:52:31Z</time></trkpt><trkpt lat="45.7657662185686" lon="12.196251387952376"><ele>59.5</ele><time>2026-05-01T14:52:32Z</time></trkpt><trkpt lat="45.765802573197696" lon="12.19669377137223"><ele>59.0</ele><time>2026-05-01T14:52:33Z</time></trkpt><trkpt lat="45.765819942214634" lon="12.197146080307384"><ele>58.5</ele><time>2026-05-01T14:52:33.999Z</time></trkpt><trkpt lat="45.76583470162032" lon="12.19760400061425"><ele>58.0</ele><time>2026-05-01T14:52:34.999Z</time></trkpt><trkpt lat="45.76583656637837" lon="12.198063142595128"><ele>58.0</ele><time>2026-05-01T14:52:35.999Z</time></trkpt><trkpt lat="45.765827536203865" lon="12.198522635423851"><ele>58.0</ele><time>2026-05-01T14:52:36.999Z</time></trkpt><trkpt lat="45.765808643223856" lon="12.198978593423634"><ele>58.0</ele><time>2026-05-01T14:52:37.999Z</time></trkpt><trkpt lat="45.76577836661104" lon="12.199429068028662"><ele>58.0</ele><time>2026-05-01T14:52:38.999Z</time></trkpt><trkpt lat="45.765739744046826" lon="12.199881302466485"><ele>57.5</ele><time>2026-05-01T14:52:39.999Z</time></trkpt><trkpt lat="45.76569399021012" lon="12.20033318220178"><ele>57.0</ele><time>2026-05-01T14:52:40.999Z</time></trkpt><trkpt lat="45.765641894089214" lon="12.200780664333502"><ele>57.0</ele><time>2026-05-01T14:52:41.999Z</time></trkpt><trkpt lat="45.76558824185468" lon="12.201230028951137"><ele>57.0</ele><time>2026-05-01T14:52:42.999Z</time></trkpt><trkpt lat="45.765535305099235" lon="12.201676982035124"><ele>57.0</ele><time>2026-05-01T14:52:43.999Z</time></trkpt><trkpt lat="45.76548103321781" lon="12.202127449328572"><ele>57.0</ele><time>2026-05-01T14:52:44.999Z</time></trkpt><trkpt lat="45.76542639149362" lon="12.20257599753475"><ele>56.5</ele><time>2026-05-01T14:52:45.999Z</time></trkpt><trkpt lat="45.7653705279901" lon="12.203024329466425"><ele>56.0</ele><time>2026-05-01T14:52:46.999Z</time></trkpt><trkpt lat="45.76531721978741" lon="12.203477203967772"><ele>55.0</ele><time>2026-05-01T14:52:47.999Z</time></trkpt><trkpt lat="45.7652641412465" lon="12.20393264090517"><ele>54.0</ele><time>2026-05-01T14:52:48.999Z</time></trkpt><trkpt lat="45.765211322607136" lon="12.204382110542182"><ele>53.0</ele><time>2026-05-01T14:52:49.999Z</time></trkpt><trkpt lat="45.765156080590266" lon="12.20483054268457"><ele>52.0</ele><time>2026-05-01T14:52:50.999Z</time></trkpt><trkpt lat="45.76510134778123" lon="12.205279213595738"><ele>52.0</ele><time>2026-05-01T14:52:51.999Z</time></trkpt><trkpt lat="45.76504783347331" lon="12.205727741506307"><ele>52.0</ele><time>2026-05-01T14:52:52.999Z</time></trkpt><trkpt lat="45.76499614701337" lon="12.206175654925278"><ele>52.0</ele><time>2026-05-01T14:52:53.999Z</time></trkpt><trkpt lat="45.76494571736815" lon="12.206621250638712"><ele>52.0</ele><time>2026-05-01T14:52:54.999Z</time></trkpt><trkpt lat="45.76489433077964" lon="12.207059549317837"><ele>52.5</ele><time>2026-05-01T14:52:55.999Z</time></trkpt><trkpt lat="45.76484478647883" lon="12.207492426111594"><ele>53.0</ele><time>2026-05-01T14:52:56.999Z</time></trkpt><trkpt lat="45.76479404873295" lon="12.207922633271762"><ele>53.5</ele><time>2026-05-01T14:52:57.999Z</time></trkpt><trkpt lat="45.764744992164054" lon="12.20835357888279"><ele>54.0</ele><time>2026-05-01T14:52:58.999Z</time></trkpt><trkpt lat="45.76469761239273" lon="12.208783467917405"><ele>53.5</ele><time>2026-05-01T14:52:59.999Z</time></trkpt><trkpt lat="45.764648395296284" lon="12.20921177632572"><ele>53.0</ele><time>2026-05-01T14:53:00.999Z</time></trkpt><trkpt lat="45.764597124024505" lon="12.20963517922216"><ele>53.0</ele><time>2026-05-01T14:53:01.999Z</time></trkpt><trkpt lat="45.764545953263166" lon="12.210055870754339"><ele>53.0</ele><time>2026-05-01T14:53:02.999Z</time></trkpt><trkpt lat="45.7644952275576" lon="12.210471789214118"><ele>52.5</ele><time>2026-05-01T14:53:03.999Z</time></trkpt><trkpt lat="45.764445513574266" lon="12.210889738080388"><ele>52.0</ele><time>2026-05-01T14:53:04.999Z</time></trkpt><trkpt lat="45.76439677622207" lon="12.211310755842193"><ele>51.0</ele><time>2026-05-01T14:53:05.999Z</time></trkpt><trkpt lat="45.76434914267162" lon="12.211730264334136"><ele>50.0</ele><time>2026-05-01T14:53:06.999Z</time></trkpt><trkpt lat="45.76430246226108" lon="12.212154056711528"><ele>50.5</ele><time>2026-05-01T14:53:07.999Z</time></trkpt><trkpt lat="45.764253575364755" lon="12.212582018615638"><ele>51.0</ele><time>2026-05-01T14:53:08.999Z</time></trkpt><trkpt lat="45.764203330870295" lon="12.213009506965902"><ele>50.0</ele><time>2026-05-01T14:53:09.999Z</time></trkpt><trkpt lat="45.7641532618219" lon="12.213437157620422"><ele>49.0</ele><time>2026-05-01T14:53:10.999Z</time></trkpt><trkpt lat="45.764102556783136" lon="12.213865504642367"><ele>49.0</ele><time>2026-05-01T14:53:11.999Z</time></trkpt><trkpt lat="45.764050425337885" lon="12.214297050511622"><ele>49.0</ele><time>2026-05-01T14:53:13Z</time></trkpt><trkpt lat="45.76399829915772" lon="12.214729107863496"><ele>50.0</ele><time>2026-05-01T14:53:14Z</time></trkpt><trkpt lat="45.76394603274098" lon="12.21516480156643"><ele>51.0</ele><time>2026-05-01T14:53:15Z</time></trkpt><trkpt lat="45.76389513193166" lon="12.215601036782905"><ele>51.5</ele><time>2026-05-01T14:53:16Z</time></trkpt><trkpt lat="45.76384389583501" lon="12.216037063058856"><ele>52.0</ele><time>2026-05-01T14:53:17Z</time></trkpt><trkpt lat="45.76379262075366" lon="12.216474495678348"><ele>52.5</ele><time>2026-05-01T14:53:18Z</time></trkpt><trkpt lat="45.763739578976" lon="12.216910510008718"><ele>53.0</ele><time>2026-05-01T14:53:19Z</time></trkpt><trkpt lat="45.76368180421328" lon="12.217345831191286"><ele>52.0</ele><time>2026-05-01T14:53:20Z</time></trkpt><trkpt lat="45.7636158845742" lon="12.217779693637777"><ele>51.0</ele><time>2026-05-01T14:53:21Z</time></trkpt><trkpt lat="45.7635403412883" lon="12.218209983260783"><ele>51.0</ele><time>2026-05-01T14:53:22Z</time></trkpt><trkpt lat="45.76345429484818" lon="12.218638267457932"><ele>51.0</ele><time>2026-05-01T14:53:23Z</time></trkpt><trkpt lat="45.7633591431497" lon="12.219062405495448"><ele>51.0</ele><time>2026-05-01T14:53:24Z</time></trkpt><trkpt lat="45.76325378105342" lon="12.219483631697827"><ele>51.0</ele><time>2026-05-01T14:53:25Z</time></trkpt><trkpt lat="45.76314014229574" lon="12.219900667945932"><ele>51.0</ele><time>2026-05-01T14:53:26Z</time></trkpt><trkpt lat="45.76301761685007" lon="12.220312701579497"><ele>51.0</ele><time>2026-05-01T14:53:27Z</time></trkpt><trkpt lat="45.76288491773714" lon="12.220717041429683"><ele>51.0</ele><time>2026-05-01T14:53:28Z</time></trkpt><trkpt lat="45.76274145674352" lon="12.22111633528309"><ele>51.0</ele><time>2026-05-01T14:53:29Z</time></trkpt><trkpt lat="45.76258904315839" lon="12.221509066173367"><ele>51.0</ele><time>2026-05-01T14:53:30Z</time></trkpt><trkpt lat="45.76242999722052" lon="12.221896132638403"><ele>51.0</ele><time>2026-05-01T14:53:31Z</time></trkpt><trkpt lat="45.762262498557625" lon="12.222283897751632"><ele>50.5</ele><time>2026-05-01T14:53:32Z</time></trkpt><trkpt lat="45.76208320997914" lon="12.22266651295757"><ele>50.0</ele><time>2026-05-01T14:53:33Z</time></trkpt><trkpt lat="45.761884950141216" lon="12.223039205986565"><ele>50.0</ele><time>2026-05-01T14:53:34Z</time></trkpt><trkpt lat="45.76167531659014" lon="12.223403659615416"><ele>50.0</ele><time>2026-05-01T14:53:35Z</time></trkpt><trkpt lat="45.761460526878395" lon="12.223763176093522"><ele>49.5</ele><time>2026-05-01T14:53:36Z</time></trkpt><trkpt lat="45.7612410074099" lon="12.224123296123686"><ele>49.0</ele><time>2026-05-01T14:53:37Z</time></trkpt><trkpt lat="45.76101942023424" lon="12.224488384820459"><ele>49.5</ele><time>2026-05-01T14:53:38Z</time></trkpt><trkpt lat="45.76079775735017" lon="12.224856398895607"><ele>50.0</ele><time>2026-05-01T14:53:39Z</time></trkpt><trkpt lat="45.760574220229906" lon="12.225224709990037"><ele>50.0</ele><time>2026-05-01T14:53:40Z</time></trkpt><trkpt lat="45.76035080545044" lon="12.225593293951649"><ele>50.0</ele><time>2026-05-01T14:53:41Z</time></trkpt><trkpt lat="45.76012806231092" lon="12.225960912766439"><ele>50.0</ele><time>2026-05-01T14:53:42Z</time></trkpt><trkpt lat="45.75990329863219" lon="12.226319800429044"><ele>50.0</ele><time>2026-05-01T14:53:43Z</time></trkpt><trkpt lat="45.759678665988645" lon="12.226676880075843"><ele>50.0</ele><time>2026-05-01T14:53:44Z</time></trkpt><trkpt lat="45.75946130913833" lon="12.227036968582862"><ele>50.0</ele><time>2026-05-01T14:53:45Z</time></trkpt><trkpt lat="45.75924989317548" lon="12.227398392668274"><ele>49.5</ele><time>2026-05-01T14:53:46Z</time></trkpt><trkpt lat="45.75904061774736" lon="12.227761064154603"><ele>49.0</ele><time>2026-05-01T14:53:47Z</time></trkpt><trkpt lat="45.7588334462968" lon="12.228116223289272"><ele>49.5</ele><time>2026-05-01T14:53:48Z</time></trkpt><trkpt lat="45.75862948672276" lon="12.228472200613334"><ele>50.0</ele><time>2026-05-01T14:53:49Z</time></trkpt><trkpt lat="45.75842819180116" lon="12.228832400894442"><ele>49.0</ele><time>2026-05-01T14:53:50Z</time></trkpt><trkpt lat="45.75823002733267" lon="12.229192755280799"><ele>48.0</ele><time>2026-05-01T14:53:51Z</time></trkpt><trkpt lat="45.75803382643072" lon="12.229554587814501"><ele>47.5</ele><time>2026-05-01T14:53:52Z</time></trkpt><trkpt lat="45.75784053189402" lon="12.229920499582155"><ele>47.0</ele><time>2026-05-01T14:53:53Z</time></trkpt><trkpt lat="45.75764980632496" lon="12.23029110999755"><ele>47.0</ele><time>2026-05-01T14:53:54Z</time></trkpt><trkpt lat="45.757460791890836" lon="12.23066116904643"><ele>47.0</ele><time>2026-05-01T14:53:55Z</time></trkpt><trkpt lat="45.757272570264604" lon="12.23103405272437"><ele>47.0</ele><time>2026-05-01T14:53:56Z</time></trkpt><trkpt lat="45.757087232295454" lon="12.2314081310755"><ele>47.0</ele><time>2026-05-01T14:53:57Z</time></trkpt><trkpt lat="45.75690292270076" lon="12.231788675777194"><ele>47.0</ele><time>2026-05-01T14:53:58Z</time></trkpt><trkpt lat="45.75672128777231" lon="12.232170211969889"><ele>47.0</ele><time>2026-05-01T14:53:59Z</time></trkpt><trkpt lat="45.75654401116774" lon="12.232547551118731"><ele>47.0</ele><time>2026-05-01T14:54:00Z</time></trkpt><trkpt lat="45.75636781267689" lon="12.232922193246274"><ele>47.0</ele><time>2026-05-01T14:54:01Z</time></trkpt><trkpt lat="45.756191891651525" lon="12.233292163316218"><ele>46.5</ele><time>2026-05-01T14:54:02Z</time></trkpt><trkpt lat="45.756017849716585" lon="12.233659827176893"><ele>46.0</ele><time>2026-05-01T14:54:03Z</time></trkpt><trkpt lat="45.75584440417363" lon="12.23403214429138"><ele>45.5</ele><time>2026-05-01T14:54:04Z</time></trkpt><trkpt lat="45.755672199657624" lon="12.234402594842663"><ele>45.0</ele><time>2026-05-01T14:54:05Z</time></trkpt><trkpt lat="45.75549834319717" lon="12.234769948401965"><ele>45.5</ele><time>2026-05-01T14:54:06Z</time></trkpt><trkpt lat="45.75532694194959" lon="12.235136357340087"><ele>46.0</ele><time>2026-05-01T14:54:07Z</time></trkpt><trkpt lat="45.7551598416407" lon="12.235491933965385"><ele>44.5</ele><time>2026-05-01T14:54:08Z</time></trkpt><trkpt lat="45.75499710774939" lon="12.235836383961022"><ele>43.0</ele><time>2026-05-01T14:54:09Z</time></trkpt><trkpt lat="45.754840860353276" lon="12.236172221533463"><ele>42.5</ele><time>2026-05-01T14:54:10Z</time></trkpt><trkpt lat="45.75468771184362" lon="12.236493908684562"><ele>42.0</ele><time>2026-05-01T14:54:11Z</time></trkpt><trkpt lat="45.75453899868084" lon="12.23679496898743"><ele>42.0</ele><time>2026-05-01T14:54:12Z</time></trkpt><trkpt lat="45.75439181110541" lon="12.237087276907582"><ele>42.0</ele><time>2026-05-01T14:54:13Z</time></trkpt><trkpt lat="45.754245950863236" lon="12.237393415683039"><ele>41.5</ele><time>2026-05-01T14:54:14Z</time></trkpt><trkpt lat="45.75409885865134" lon="12.237751683921427"><ele>41.0</ele><time>2026-05-01T14:54:15Z</time></trkpt><trkpt lat="45.7539612362293" lon="12.238064461135961"><ele>40.0</ele><time>2026-05-01T14:54:16Z</time></trkpt><trkpt lat="45.75382427513627" lon="12.238367659327437"><ele>39.0</ele><time>2026-05-01T14:54:17Z</time></trkpt><trkpt lat="45.753695790535865" lon="12.238671457738922"><ele>38.0</ele><time>2026-05-01T14:54:18Z</time></trkpt><trkpt lat="45.7535684374937" lon="12.23897746936252"><ele>37.0</ele><time>2026-05-01T14:54:19Z</time></trkpt><trkpt lat="45.75344720634614" lon="12.239281374835937"><ele>37.0</ele><time>2026-05-01T14:54:20Z</time></trkpt><trkpt lat="45.75333358510421" lon="12.239583168783632"><ele>37.0</ele><time>2026-05-01T14:54:21Z</time></trkpt><trkpt lat="45.75323201547399" lon="12.239887845379089"><ele>35.5</ele><time>2026-05-01T14:54:22Z</time></trkpt><trkpt lat="45.753133928887" lon="12.240200017253917"><ele>34.0</ele><time>2026-05-01T14:54:23Z</time></trkpt><trkpt lat="45.7530438010814" lon="12.24052972228569"><ele>37.5</ele><time>2026-05-01T14:54:24Z</time></trkpt><trkpt lat="45.75295333997971" lon="12.24087045850463"><ele>41.0</ele><time>2026-05-01T14:54:25Z</time></trkpt><trkpt lat="45.752858204382505" lon="12.24122707888359"><ele>41.5</ele><time>2026-05-01T14:54:26Z</time></trkpt><trkpt lat="45.75275941363607" lon="12.241604763555102"><ele>42.0</ele><time>2026-05-01T14:54:27Z</time></trkpt><trkpt lat="45.752661545968515" lon="12.241996768773824"><ele>42.5</ele><time>2026-05-01T14:54:28Z</time></trkpt><trkpt lat="45.75257234936147" lon="12.242404876425386"><ele>43.0</ele><time>2026-05-01T14:54:29Z</time></trkpt><trkpt lat="45.75248255232279" lon="12.242816879213917"><ele>42.5</ele><time>2026-05-01T14:54:30Z</time></trkpt><trkpt lat="45.7523976331281" lon="12.243229459314044"><ele>42.0</ele><time>2026-05-01T14:54:31Z</time></trkpt><trkpt lat="45.752322205831" lon="12.243637387944911"><ele>41.5</ele><time>2026-05-01T14:54:32Z</time></trkpt><trkpt lat="45.752263095380876" lon="12.2440378052325"><ele>41.0</ele><time>2026-05-01T14:54:33Z</time></trkpt><trkpt lat="45.75220923198734" lon="12.244432239485125"><ele>41.0</ele><time>2026-05-01T14:54:34Z</time></trkpt><trkpt lat="45.7521615243254" lon="12.244821880127748"><ele>41.0</ele><time>2026-05-01T14:54:35Z</time></trkpt><trkpt lat="45.75212351982729" lon="12.245210080629418"><ele>41.0</ele><time>2026-05-01T14:54:36Z</time></trkpt><trkpt lat="45.75209417977012" lon="12.245593647786352"><ele>41.0</ele><time>2026-05-01T14:54:37Z</time></trkpt><trkpt lat="45.75207344268519" lon="12.245974232647253"><ele>41.5</ele><time>2026-05-01T14:54:38Z</time></trkpt><trkpt lat="45.75206173451211" lon="12.246359745761756"><ele>42.0</ele><time>2026-05-01T14:54:39Z</time></trkpt><trkpt lat="45.75205037815966" lon="12.246747847571045"><ele>42.0</ele><time>2026-05-01T14:54:40Z</time></trkpt><trkpt lat="45.752041478182825" lon="12.247136811522108"><ele>42.0</ele><time>2026-05-01T14:54:41Z</time></trkpt><trkpt lat="45.75203453178871" lon="12.247533462430907"><ele>42.0</ele><time>2026-05-01T14:54:42Z</time></trkpt><trkpt lat="45.75202962385274" lon="12.247931739967905"><ele>42.0</ele><time>2026-05-01T14:54:42.999Z</time></trkpt><trkpt lat="45.75202654568268" lon="12.24833412660236"><ele>42.0</ele><time>2026-05-01T14:54:43.999Z</time></trkpt><trkpt lat="45.75202193671715" lon="12.24873612107641"><ele>42.0</ele><time>2026-05-01T14:54:44.999Z</time></trkpt><trkpt lat="45.752016987355766" lon="12.249139988154596"><ele>42.0</ele><time>2026-05-01T14:54:45.999Z</time></trkpt><trkpt lat="45.75201440465331" lon="12.24954372533069"><ele>42.0</ele><time>2026-05-01T14:54:46.999Z</time></trkpt><trkpt lat="45.75200808516771" lon="12.249949013379398"><ele>42.0</ele><time>2026-05-01T14:54:47.999Z</time></trkpt><trkpt lat="45.75200008302401" lon="12.250350524334875"><ele>42.0</ele><time>2026-05-01T14:54:48.999Z</time></trkpt><trkpt lat="45.75198931418861" lon="12.250751514828893"><ele>42.5</ele><time>2026-05-01T14:54:49.999Z</time></trkpt><trkpt lat="45.75197429163546" lon="12.251153609159278"><ele>43.0</ele><time>2026-05-01T14:54:50.999Z</time></trkpt><trkpt lat="45.75195101671671" lon="12.251554556143105"><ele>43.5</ele><time>2026-05-01T14:54:51.999Z</time></trkpt><trkpt lat="45.751921430871" lon="12.25195363233991"><ele>44.0</ele><time>2026-05-01T14:54:52.999Z</time></trkpt><trkpt lat="45.75188686528343" lon="12.252343292400523"><ele>43.0</ele><time>2026-05-01T14:54:53.999Z</time></trkpt><trkpt lat="45.75184803982798" lon="12.252717706620476"><ele>42.0</ele><time>2026-05-01T14:54:54.999Z</time></trkpt><trkpt lat="45.751805613555895" lon="12.253056137000854"><ele>41.0</ele><time>2026-05-01T14:54:55.999Z</time></trkpt><trkpt lat="45.751756258682455" lon="12.253417508864192"><ele>40.0</ele><time>2026-05-01T14:54:57.071Z</time></trkpt><trkpt lat="45.751713225972466" lon="12.253726506261053"><ele>40.0</ele><time>2026-05-01T14:54:58.07Z</time></trkpt><trkpt lat="45.75157054750165" lon="12.254281875047557"><ele>40.0</ele><time>2026-05-01T14:54:59.999Z</time></trkpt><trkpt lat="45.75153745901468" lon="12.254493370623473"><ele>40.0</ele><time>2026-05-01T14:55:00.999Z</time></trkpt><trkpt lat="45.75147135342504" lon="12.254703963290998"><ele>40.0</ele><time>2026-05-01T14:55:01.999Z</time></trkpt><trkpt lat="45.75140923312595" lon="12.25489280543741"><ele>40.0</ele><time>2026-05-01T14:55:02.999Z</time></trkpt><trkpt lat="45.75134542681375" lon="12.255063267839306"><ele>40.0</ele><time>2026-05-01T14:55:03.999Z</time></trkpt><trkpt lat="45.75128301323644" lon="12.255217556821336"><ele>40.2</ele><time>2026-05-01T14:55:04.999Z</time></trkpt><trkpt lat="45.751219055579426" lon="12.255363759298138"><ele>40.4</ele><time>2026-05-01T14:55:05.999Z</time></trkpt><trkpt lat="45.75116427720323" lon="12.255497058801812"><ele>40.599999999999994</ele><time>2026-05-01T14:55:06.999Z</time></trkpt><trkpt lat="45.75112051339013" lon="12.25562400126593"><ele>40.8</ele><time>2026-05-01T14:55:07.999Z</time></trkpt><trkpt lat="45.7510869339855" lon="12.255738091864544"><ele>41.0</ele><time>2026-05-01T14:55:08.999Z</time></trkpt><trkpt lat="45.75105686668366" lon="12.255837563992824"><ele>41.0</ele><time>2026-05-01T14:55:09.999Z</time></trkpt><trkpt lat="45.75103279031546" lon="12.255931447981313"><ele>41.0</ele><time>2026-05-01T14:55:10.999Z</time></trkpt><trkpt lat="45.751012180594536" lon="12.256018473135898"><ele>41.0</ele><time>2026-05-01T14:55:11.999Z</time></trkpt><trkpt lat="45.75098313536186" lon="12.256118752563019"><ele>41.0</ele><time>2026-05-01T14:55:13.999Z</time></trkpt><trkpt lat="45.75091001285854" lon="12.25618421395505"><ele>41.0</ele><time>2026-05-01T14:56:03Z</time></trkpt><trkpt lat="45.750884996354685" lon="12.256301486827002"><ele>41.0</ele><time>2026-05-01T14:56:47.999Z</time></trkpt><trkpt lat="45.7508614723217" lon="12.256524459658696"><ele>40.75</ele><time>2026-05-01T14:57:07.999Z</time></trkpt><trkpt lat="45.75083800598243" lon="12.25667462959326"><ele>40.5</ele><time>2026-05-01T14:57:08.999Z</time></trkpt><trkpt lat="45.750812973208006" lon="12.256852854462686"><ele>40.25</ele><time>2026-05-01T14:57:09.999Z</time></trkpt><trkpt lat="45.75078283149512" lon="12.257067315451009"><ele>40.0</ele><time>2026-05-01T14:57:10.999Z</time></trkpt><trkpt lat="45.750752865644614" lon="12.2572980910356"><ele>40.0</ele><time>2026-05-01T14:57:11.999Z</time></trkpt><trkpt lat="45.75072733043059" lon="12.257509803593662"><ele>40.0</ele><time>2026-05-01T14:57:12.999Z</time></trkpt><trkpt lat="45.75070452027671" lon="12.257717807875645"><ele>40.0</ele><time>2026-05-01T14:57:13.999Z</time></trkpt><trkpt lat="45.75068658808695" lon="12.257930130423784"><ele>40.0</ele><time>2026-05-01T14:57:14.999Z</time></trkpt><trkpt lat="45.7506662686606" lon="12.258160490005046"><ele>40.0</ele><time>2026-05-01T14:57:15.999Z</time></trkpt><trkpt lat="45.75061271496973" lon="12.258402558113797"><ele>40.0</ele><time>2026-05-01T14:57:16.999Z</time></trkpt><trkpt lat="45.75052881093607" lon="12.25866815154268"><ele>40.0</ele><time>2026-05-01T14:57:17.999Z</time></trkpt><trkpt lat="45.75042916636934" lon="12.259023231510522"><ele>40.0</ele><time>2026-05-01T14:57:18.999Z</time></trkpt><trkpt lat="45.750333539976225" lon="12.25943778613454"><ele>40.0</ele><time>2026-05-01T14:57:19.999Z</time></trkpt><trkpt lat="45.750233292408836" lon="12.25983970882253"><ele>39.5</ele><time>2026-05-01T14:57:20.999Z</time></trkpt><trkpt lat="45.75014577193455" lon="12.260226550852245"><ele>39.0</ele><time>2026-05-01T14:57:21.999Z</time></trkpt><trkpt lat="45.750066528405036" lon="12.26060348565075"><ele>40.0</ele><time>2026-05-01T14:57:22.999Z</time></trkpt><trkpt lat="45.74999491155156" lon="12.260971259255452"><ele>41.0</ele><time>2026-05-01T14:57:23.999Z</time></trkpt><trkpt lat="45.74993136144342" lon="12.261324547143728"><ele>41.0</ele><time>2026-05-01T14:57:25Z</time></trkpt><trkpt lat="45.74987150136807" lon="12.261678063864853"><ele>41.0</ele><time>2026-05-01T14:57:26Z</time></trkpt><trkpt lat="45.74981355313586" lon="12.262038081430525"><ele>40.0</ele><time>2026-05-01T14:57:27Z</time></trkpt><trkpt lat="45.74975398689919" lon="12.262398660384314"><ele>39.0</ele><time>2026-05-01T14:57:28Z</time></trkpt><trkpt lat="45.74969833981571" lon="12.262757219137681"><ele>39.5</ele><time>2026-05-01T14:57:29Z</time></trkpt><trkpt lat="45.74964355175505" lon="12.263116984141336"><ele>40.0</ele><time>2026-05-01T14:57:30Z</time></trkpt><trkpt lat="45.74958961521944" lon="12.263486841516352"><ele>40.0</ele><time>2026-05-01T14:57:31Z</time></trkpt><trkpt lat="45.7495389244308" lon="12.263880690457727"><ele>40.0</ele><time>2026-05-01T14:57:32Z</time></trkpt><trkpt lat="45.74949430186392" lon="12.26428890277729"><ele>39.5</ele><time>2026-05-01T14:57:33Z</time></trkpt><trkpt lat="45.74945116481286" lon="12.264711516248026"><ele>39.0</ele><time>2026-05-01T14:57:34Z</time></trkpt><trkpt lat="45.74941146179901" lon="12.265144613556766"><ele>38.5</ele><time>2026-05-01T14:57:35Z</time></trkpt><trkpt lat="45.74937597655059" lon="12.265588894079613"><ele>38.0</ele><time>2026-05-01T14:57:36Z</time></trkpt><trkpt lat="45.74934495140663" lon="12.26603874621854"><ele>37.0</ele><time>2026-05-01T14:57:37Z</time></trkpt><trkpt lat="45.74931731150513" lon="12.26648699329704"><ele>36.0</ele><time>2026-05-01T14:57:38Z</time></trkpt><trkpt lat="45.749293939588746" lon="12.266908747296602"><ele>37.0</ele><time>2026-05-01T14:57:39Z</time></trkpt><trkpt lat="45.7492731068285" lon="12.267306170240387"><ele>38.0</ele><time>2026-05-01T14:57:40Z</time></trkpt><trkpt lat="45.74925193625359" lon="12.267695681026147"><ele>38.0</ele><time>2026-05-01T14:57:41Z</time></trkpt><trkpt lat="45.749234097674474" lon="12.268083983874861"><ele>38.0</ele><time>2026-05-01T14:57:42Z</time></trkpt><trkpt lat="45.74921571391819" lon="12.268475641858537"><ele>36.0</ele><time>2026-05-01T14:57:43Z</time></trkpt><trkpt lat="45.749199395198765" lon="12.26886916579604"><ele>34.0</ele><time>2026-05-01T14:57:44Z</time></trkpt><trkpt lat="45.749180422660444" lon="12.269257450322774"><ele>34.0</ele><time>2026-05-01T14:57:45Z</time></trkpt><trkpt lat="45.74916335861615" lon="12.269646371187115"><ele>34.0</ele><time>2026-05-01T14:57:46Z</time></trkpt><trkpt lat="45.74914552775078" lon="12.270036788413412"><ele>35.5</ele><time>2026-05-01T14:57:47Z</time></trkpt><trkpt lat="45.749129131456634" lon="12.270424025961338"><ele>37.0</ele><time>2026-05-01T14:57:48Z</time></trkpt><trkpt lat="45.74911678103428" lon="12.270809791526116"><ele>37.5</ele><time>2026-05-01T14:57:49Z</time></trkpt><trkpt lat="45.74910952382171" lon="12.271197315673538"><ele>38.0</ele><time>2026-05-01T14:57:50Z</time></trkpt><trkpt lat="45.7491134718185" lon="12.271584364681338"><ele>38.5</ele><time>2026-05-01T14:57:51Z</time></trkpt><trkpt lat="45.749128865393494" lon="12.271970055441853"><ele>39.0</ele><time>2026-05-01T14:57:52Z</time></trkpt><trkpt lat="45.7491543852898" lon="12.272352268275704"><ele>40.0</ele><time>2026-05-01T14:57:53Z</time></trkpt><trkpt lat="45.74918666263059" lon="12.272718590000101"><ele>41.0</ele><time>2026-05-01T14:57:54Z</time></trkpt><trkpt lat="45.749225361275805" lon="12.273051774566644"><ele>39.0</ele><time>2026-05-01T14:57:55Z</time></trkpt><trkpt lat="45.749271446279096" lon="12.273377464806828"><ele>37.0</ele><time>2026-05-01T14:57:56Z</time></trkpt><trkpt lat="45.74932770849049" lon="12.273693335628995"><ele>37.5</ele><time>2026-05-01T14:57:57Z</time></trkpt><trkpt lat="45.74938900659722" lon="12.274008967903043"><ele>38.0</ele><time>2026-05-01T14:57:58Z</time></trkpt><trkpt lat="45.749454261707726" lon="12.274324418067037"><ele>38.0</ele><time>2026-05-01T14:57:59Z</time></trkpt><trkpt lat="45.74951742162593" lon="12.274638205076984"><ele>38.0</ele><time>2026-05-01T14:58:00Z</time></trkpt><trkpt lat="45.749569510890694" lon="12.274949402973483"><ele>37.666666666666664</ele><time>2026-05-01T14:58:01Z</time></trkpt><trkpt lat="45.749613452357835" lon="12.275257322203116"><ele>37.333333333333336</ele><time>2026-05-01T14:58:02Z</time></trkpt><trkpt lat="45.74963794066508" lon="12.275564509697453"><ele>37.0</ele><time>2026-05-01T14:58:03Z</time></trkpt><trkpt lat="45.749640144850034" lon="12.2758723429491"><ele>37.0</ele><time>2026-05-01T14:58:04Z</time></trkpt><trkpt lat="45.74962421563978" lon="12.276181914180585"><ele>37.0</ele><time>2026-05-01T14:58:05Z</time></trkpt><trkpt lat="45.74958489955032" lon="12.276487802088987"><ele>37.0</ele><time>2026-05-01T14:58:06Z</time></trkpt><trkpt lat="45.74953000378463" lon="12.276789482512704"><ele>37.0</ele><time>2026-05-01T14:58:07Z</time></trkpt><trkpt lat="45.74945673376472" lon="12.277090226785873"><ele>37.0</ele><time>2026-05-01T14:58:08Z</time></trkpt><trkpt lat="45.749366016641595" lon="12.27738884518467"><ele>37.0</ele><time>2026-05-01T14:58:09Z</time></trkpt><trkpt lat="45.749269469607285" lon="12.27768103819714"><ele>37.0</ele><time>2026-05-01T14:58:10Z</time></trkpt><trkpt lat="45.749184798820615" lon="12.277954658044122"><ele>37.0</ele><time>2026-05-01T14:58:11Z</time></trkpt><trkpt lat="45.749116254761596" lon="12.278242691490323"><ele>37.333333333333336</ele><time>2026-05-01T14:58:12Z</time></trkpt><trkpt lat="45.74907052833485" lon="12.27852904849054"><ele>37.666666666666664</ele><time>2026-05-01T14:58:13Z</time></trkpt><trkpt lat="45.74905733809059" lon="12.278815566313854"><ele>38.0</ele><time>2026-05-01T14:58:14Z</time></trkpt><trkpt lat="45.74907140511531" lon="12.279105253247852"><ele>38.0</ele><time>2026-05-01T14:58:15Z</time></trkpt><trkpt lat="45.74911937814" lon="12.27937744170789"><ele>38.0</ele><time>2026-05-01T14:58:16Z</time></trkpt><trkpt lat="45.749197044114055" lon="12.27963199410271"><ele>38.0</ele><time>2026-05-01T14:58:17Z</time></trkpt><trkpt lat="45.749304957009805" lon="12.27986391531128"><ele>38.0</ele><time>2026-05-01T14:58:18Z</time></trkpt><trkpt lat="45.7494326801756" lon="12.280075644921686"><ele>38.0</ele><time>2026-05-01T14:58:19Z</time></trkpt><trkpt lat="45.74958685297981" lon="12.280253892327396"><ele>38.0</ele><time>2026-05-01T14:58:20Z</time></trkpt><trkpt lat="45.74975949119783" lon="12.280392299529318"><ele>38.0</ele><time>2026-05-01T14:58:21Z</time></trkpt><trkpt lat="45.749952601256894" lon="12.280486184196148"><ele>38.0</ele><time>2026-05-01T14:58:22Z</time></trkpt><trkpt lat="45.75014923018417" lon="12.280561397372445"><ele>38.0</ele><time>2026-05-01T14:58:23Z</time></trkpt><trkpt lat="45.75035421017287" lon="12.280576850007238"><ele>37.666666666666664</ele><time>2026-05-01T14:58:24Z</time></trkpt><trkpt lat="45.750557578293225" lon="12.280534101554295"><ele>37.333333333333336</ele><time>2026-05-01T14:58:25Z</time></trkpt><trkpt lat="45.750754005275205" lon="12.28044507857352"><ele>37.0</ele><time>2026-05-01T14:58:26Z</time></trkpt><trkpt lat="45.75094132554704" lon="12.280317117070117"><ele>37.0</ele><time>2026-05-01T14:58:27Z</time></trkpt><trkpt lat="45.75111914706431" lon="12.28015520489119"><ele>37.0</ele><time>2026-05-01T14:58:28Z</time></trkpt><trkpt lat="45.75127992618101" lon="12.279961915673978"><ele>37.0</ele><time>2026-05-01T14:58:29Z</time></trkpt><trkpt lat="45.75143182624509" lon="12.27975097909713"><ele>37.0</ele><time>2026-05-01T14:58:30Z</time></trkpt><trkpt lat="45.7515908880245" lon="12.279563327867146"><ele>37.0</ele><time>2026-05-01T14:58:31Z</time></trkpt><trkpt lat="45.75175971320222" lon="12.279402715391194"><ele>37.0</ele><time>2026-05-01T14:58:32Z</time></trkpt><trkpt lat="45.75193720566399" lon="12.279267385504365"><ele>37.0</ele><time>2026-05-01T14:58:33Z</time></trkpt><trkpt lat="45.75213390719342" lon="12.279168416082296"><ele>37.0</ele><time>2026-05-01T14:58:34Z</time></trkpt><trkpt lat="45.7523472402511" lon="12.279095328663947"><ele>37.0</ele><time>2026-05-01T14:58:35Z</time></trkpt><trkpt lat="45.75256933788603" lon="12.279027938202885"><ele>37.5</ele><time>2026-05-01T14:58:36Z</time></trkpt><trkpt lat="45.752804483797824" lon="12.27896041996516"><ele>38.0</ele><time>2026-05-01T14:58:37Z</time></trkpt><trkpt lat="45.753050749140286" lon="12.278894869748523"><ele>38.5</ele><time>2026-05-01T14:58:38Z</time></trkpt><trkpt lat="45.75331414620228" lon="12.278833507736323"><ele>39.0</ele><time>2026-05-01T14:58:39Z</time></trkpt><trkpt lat="45.75359910800616" lon="12.278783391622387"><ele>39.0</ele><time>2026-05-01T14:58:40Z</time></trkpt><trkpt lat="45.753903968633274" lon="12.278746980178855"><ele>39.0</ele><time>2026-05-01T14:58:41Z</time></trkpt><trkpt lat="45.75422407168998" lon="12.278718636113332"><ele>39.0</ele><time>2026-05-01T14:58:42Z</time></trkpt><trkpt lat="45.75455301017158" lon="12.278697412249862"><ele>39.0</ele><time>2026-05-01T14:58:43Z</time></trkpt><trkpt lat="45.7548918559618" lon="12.278693230363091"><ele>40.0</ele><time>2026-05-01T14:58:44Z</time></trkpt><trkpt lat="45.7552328746603" lon="12.278700880743658"><ele>41.0</ele><time>2026-05-01T14:58:45Z</time></trkpt><trkpt lat="45.75557623050876" lon="12.278717222900466"><ele>41.0</ele><time>2026-05-01T14:58:46Z</time></trkpt><trkpt lat="45.75591699229154" lon="12.278739923993502"><ele>41.0</ele><time>2026-05-01T14:58:47Z</time></trkpt><trkpt lat="45.756255343090785" lon="12.2787660078137"><ele>41.5</ele><time>2026-05-01T14:58:48Z</time></trkpt><trkpt lat="45.75659166352126" lon="12.278800276462954"><ele>42.0</ele><time>2026-05-01T14:58:49Z</time></trkpt><trkpt lat="45.75692395905009" lon="12.278851249106006"><ele>42.5</ele><time>2026-05-01T14:58:50Z</time></trkpt><trkpt lat="45.757251303083855" lon="12.278927075144917"><ele>43.0</ele><time>2026-05-01T14:58:51Z</time></trkpt><trkpt lat="45.757573291777504" lon="12.279021824428199"><ele>43.5</ele><time>2026-05-01T14:58:51.999Z</time></trkpt><trkpt lat="45.757893729011286" lon="12.279128113439786"><ele>44.0</ele><time>2026-05-01T14:58:52.999Z</time></trkpt><trkpt lat="45.75821301303202" lon="12.279241794107916"><ele>44.0</ele><time>2026-05-01T14:58:53.999Z</time></trkpt><trkpt lat="45.7585319065869" lon="12.279364813616839"><ele>44.0</ele><time>2026-05-01T14:58:54.999Z</time></trkpt><trkpt lat="45.75885177493084" lon="12.279496006487273"><ele>44.0</ele><time>2026-05-01T14:58:55.999Z</time></trkpt><trkpt lat="45.75917444852637" lon="12.279634613218784"><ele>44.0</ele><time>2026-05-01T14:58:56.999Z</time></trkpt><trkpt lat="45.759501884802994" lon="12.27977422271736"><ele>44.0</ele><time>2026-05-01T14:58:57.999Z</time></trkpt><trkpt lat="45.759829345963524" lon="12.279912000184938"><ele>44.0</ele><time>2026-05-01T14:58:58.999Z</time></trkpt><trkpt lat="45.76015558299427" lon="12.280046175772775"><ele>43.5</ele><time>2026-05-01T14:58:59.999Z</time></trkpt><trkpt lat="45.760480281397584" lon="12.280182925794053"><ele>43.0</ele><time>2026-05-01T14:59:00.999Z</time></trkpt><trkpt lat="45.76080035633591" lon="12.2803202374585"><ele>41.5</ele><time>2026-05-01T14:59:01.999Z</time></trkpt><trkpt lat="45.76112030226674" lon="12.280455748080488"><ele>40.0</ele><time>2026-05-01T14:59:02.999Z</time></trkpt><trkpt lat="45.761441175622366" lon="12.280590093999471"><ele>40.5</ele><time>2026-05-01T14:59:03.999Z</time></trkpt><trkpt lat="45.761760837111595" lon="12.280727133815947"><ele>41.0</ele><time>2026-05-01T14:59:04.999Z</time></trkpt><trkpt lat="45.76208112756959" lon="12.280861532361289"><ele>41.5</ele><time>2026-05-01T14:59:05.999Z</time></trkpt><trkpt lat="45.76240078430971" lon="12.280995258288494"><ele>42.0</ele><time>2026-05-01T14:59:06.999Z</time></trkpt><trkpt lat="45.762719825842616" lon="12.281127239780133"><ele>42.0</ele><time>2026-05-01T14:59:07.999Z</time></trkpt><trkpt lat="45.7630399059111" lon="12.281258629680305"><ele>42.0</ele><time>2026-05-01T14:59:08.999Z</time></trkpt><trkpt lat="45.76336062125599" lon="12.281392108261477"><ele>42.0</ele><time>2026-05-01T14:59:09.999Z</time></trkpt><trkpt lat="45.7636824730993" lon="12.281527987638876"><ele>42.0</ele><time>2026-05-01T14:59:10.999Z</time></trkpt><trkpt lat="45.764005339666625" lon="12.28166524081394"><ele>42.0</ele><time>2026-05-01T14:59:11.999Z</time></trkpt><trkpt lat="45.7643285738421" lon="12.281804783261478"><ele>42.0</ele><time>2026-05-01T14:59:12.999Z</time></trkpt><trkpt lat="45.76465382651276" lon="12.281941214600275"><ele>42.0</ele><time>2026-05-01T14:59:13.999Z</time></trkpt><trkpt lat="45.764981698577834" lon="12.282076551694265"><ele>42.0</ele><time>2026-05-01T14:59:14.999Z</time></trkpt><trkpt lat="45.7653094632391" lon="12.282213940746486"><ele>41.5</ele><time>2026-05-01T14:59:15.999Z</time></trkpt><trkpt lat="45.76563726069158" lon="12.282353772447449"><ele>41.0</ele><time>2026-05-01T14:59:16.999Z</time></trkpt><trkpt lat="45.76596473290701" lon="12.282496141006405"><ele>41.0</ele><time>2026-05-01T14:59:17.999Z</time></trkpt><trkpt lat="45.766293048748565" lon="12.282642306595045"><ele>41.0</ele><time>2026-05-01T14:59:18.999Z</time></trkpt><trkpt lat="45.76662128891927" lon="12.282792023843914"><ele>41.5</ele><time>2026-05-01T14:59:19.999Z</time></trkpt><trkpt lat="45.76694907073425" lon="12.282944257982713"><ele>42.0</ele><time>2026-05-01T14:59:20.999Z</time></trkpt><trkpt lat="45.767275361897525" lon="12.283098183218662"><ele>42.0</ele><time>2026-05-01T14:59:21.999Z</time></trkpt><trkpt lat="45.76760294102803" lon="12.283253116739361"><ele>42.0</ele><time>2026-05-01T14:59:22.999Z</time></trkpt><trkpt lat="45.76793065859262" lon="12.283411054527932"><ele>43.0</ele><time>2026-05-01T14:59:23.999Z</time></trkpt><trkpt lat="45.76825789020311" lon="12.2835723611461"><ele>44.0</ele><time>2026-05-01T14:59:24.999Z</time></trkpt><trkpt lat="45.76858568101723" lon="12.283736409490032"><ele>44.0</ele><time>2026-05-01T14:59:25.999Z</time></trkpt><trkpt lat="45.7689136574219" lon="12.283905376288592"><ele>44.0</ele><time>2026-05-01T14:59:26.999Z</time></trkpt><trkpt lat="45.769240712676094" lon="12.284077416054158"><ele>45.0</ele><time>2026-05-01T14:59:27.999Z</time></trkpt><trkpt lat="45.76957034277531" lon="12.284248839376733"><ele>46.0</ele><time>2026-05-01T14:59:28.999Z</time></trkpt><trkpt lat="45.76990233187313" lon="12.28442443730421"><ele>45.0</ele><time>2026-05-01T14:59:30Z</time></trkpt><trkpt lat="45.770235510084675" lon="12.284601834082814"><ele>44.0</ele><time>2026-05-01T14:59:31Z</time></trkpt><trkpt lat="45.77057173469058" lon="12.284782574413352"><ele>44.0</ele><time>2026-05-01T14:59:32Z</time></trkpt><trkpt lat="45.77090530787925" lon="12.284965344970047"><ele>44.0</ele><time>2026-05-01T14:59:33Z</time></trkpt><trkpt lat="45.771238252845016" lon="12.285141828659027"><ele>44.0</ele><time>2026-05-01T14:59:34Z</time></trkpt><trkpt lat="45.77156977911382" lon="12.285320806059607"><ele>44.0</ele><time>2026-05-01T14:59:35Z</time></trkpt><trkpt lat="45.77189806792499" lon="12.285499045499227"><ele>45.0</ele><time>2026-05-01T14:59:36Z</time></trkpt><trkpt lat="45.77222252831548" lon="12.285673823121623"><ele>46.0</ele><time>2026-05-01T14:59:37Z</time></trkpt><trkpt lat="45.772546897703265" lon="12.285837201369702"><ele>46.0</ele><time>2026-05-01T14:59:38Z</time></trkpt><trkpt lat="45.77287512792051" lon="12.285980070073691"><ele>46.0</ele><time>2026-05-01T14:59:39Z</time></trkpt><trkpt lat="45.77320737219675" lon="12.28611845738882"><ele>45.5</ele><time>2026-05-01T14:59:40Z</time></trkpt><trkpt lat="45.77354324801319" lon="12.286269175275104"><ele>45.0</ele><time>2026-05-01T14:59:41Z</time></trkpt><trkpt lat="45.773882243438216" lon="12.28642389474956"><ele>45.0</ele><time>2026-05-01T14:59:42Z</time></trkpt><trkpt lat="45.77422042870889" lon="12.286575530974948"><ele>45.0</ele><time>2026-05-01T14:59:43Z</time></trkpt><trkpt lat="45.77455588333802" lon="12.286718428428713"><ele>44.5</ele><time>2026-05-01T14:59:44Z</time></trkpt><trkpt lat="45.77489095483598" lon="12.286847609551726"><ele>44.0</ele><time>2026-05-01T14:59:45Z</time></trkpt><trkpt lat="45.775224087322144" lon="12.286961346528072"><ele>45.5</ele><time>2026-05-01T14:59:46Z</time></trkpt><trkpt lat="45.77555620233813" lon="12.287062857588381"><ele>47.0</ele><time>2026-05-01T14:59:47Z</time></trkpt><trkpt lat="45.77588786038157" lon="12.287150526566245"><ele>47.5</ele><time>2026-05-01T14:59:48Z</time></trkpt><trkpt lat="45.77621752995067" lon="12.287228463359703"><ele>48.0</ele><time>2026-05-01T14:59:49Z</time></trkpt><trkpt lat="45.776546998914085" lon="12.287299293493152"><ele>45.5</ele><time>2026-05-01T14:59:50Z</time></trkpt><trkpt lat="45.776875997442026" lon="12.287362869826195"><ele>43.0</ele><time>2026-05-01T14:59:51Z</time></trkpt><trkpt lat="45.77720688425821" lon="12.287424744103355"><ele>43.0</ele><time>2026-05-01T14:59:52Z</time></trkpt><trkpt lat="45.777536817449324" lon="12.287488708213635"><ele>43.0</ele><time>2026-05-01T14:59:53Z</time></trkpt><trkpt lat="45.77786742974812" lon="12.287556948088294"><ele>43.5</ele><time>2026-05-01T14:59:54Z</time></trkpt><trkpt lat="45.778200061897245" lon="12.287626227304418"><ele>44.0</ele><time>2026-05-01T14:59:55Z</time></trkpt><trkpt lat="45.77853756003004" lon="12.28769709066506"><ele>44.0</ele><time>2026-05-01T14:59:56Z</time></trkpt><trkpt lat="45.778879945112195" lon="12.287767569285505"><ele>44.0</ele><time>2026-05-01T14:59:57Z</time></trkpt><trkpt lat="45.77922413807724" lon="12.28783648959138"><ele>45.0</ele><time>2026-05-01T14:59:58Z</time></trkpt><trkpt lat="45.77957126489603" lon="12.287906528143592"><ele>46.0</ele><time>2026-05-01T14:59:59Z</time></trkpt><trkpt lat="45.77991524357401" lon="12.287975831704754"><ele>46.0</ele><time>2026-05-01T15:00:00Z</time></trkpt><trkpt lat="45.780257626639084" lon="12.288044417987074"><ele>46.0</ele><time>2026-05-01T15:00:01Z</time></trkpt><trkpt lat="45.780601152548385" lon="12.288112457129795"><ele>46.0</ele><time>2026-05-01T15:00:02Z</time></trkpt><trkpt lat="45.780941058597456" lon="12.28818301088202"><ele>46.0</ele><time>2026-05-01T15:00:03Z</time></trkpt><trkpt lat="45.781280380814785" lon="12.288259720231688"><ele>47.0</ele><time>2026-05-01T15:00:04Z</time></trkpt><trkpt lat="45.781619168264115" lon="12.288347733402391"><ele>48.0</ele><time>2026-05-01T15:00:05Z</time></trkpt><trkpt lat="45.78195654815939" lon="12.288449074645936"><ele>48.0</ele><time>2026-05-01T15:00:06Z</time></trkpt><trkpt lat="45.78229316009905" lon="12.288564869207631"><ele>48.0</ele><time>2026-05-01T15:00:07Z</time></trkpt><trkpt lat="45.78263013230481" lon="12.288688688680214"><ele>48.5</ele><time>2026-05-01T15:00:08Z</time></trkpt><trkpt lat="45.7829653961541" lon="12.28882134439448"><ele>49.0</ele><time>2026-05-01T15:00:09Z</time></trkpt><trkpt lat="45.78329484437568" lon="12.288969644454514"><ele>49.5</ele><time>2026-05-01T15:00:10Z</time></trkpt><trkpt lat="45.78362319777321" lon="12.289136483208763"><ele>50.0</ele><time>2026-05-01T15:00:11Z</time></trkpt><trkpt lat="45.78394613179699" lon="12.289319695491285"><ele>50.0</ele><time>2026-05-01T15:00:12Z</time></trkpt><trkpt lat="45.78426910220529" lon="12.289508937706685"><ele>50.0</ele><time>2026-05-01T15:00:13Z</time></trkpt><trkpt lat="45.784592507693745" lon="12.289708181000647"><ele>49.5</ele><time>2026-05-01T15:00:14Z</time></trkpt><trkpt lat="45.784911572341166" lon="12.289912425806406"><ele>49.0</ele><time>2026-05-01T15:00:15Z</time></trkpt><trkpt lat="45.78522542804881" lon="12.29011868513871"><ele>49.0</ele><time>2026-05-01T15:00:16Z</time></trkpt><trkpt lat="45.785538444640274" lon="12.290324613327916"><ele>49.0</ele><time>2026-05-01T15:00:17Z</time></trkpt><trkpt lat="45.78584777791275" lon="12.290534951151823"><ele>50.5</ele><time>2026-05-01T15:00:18Z</time></trkpt><trkpt lat="45.78615395894128" lon="12.29074232181449"><ele>52.0</ele><time>2026-05-01T15:00:19Z</time></trkpt><trkpt lat="45.7864632407891" lon="12.290941621810429"><ele>52.0</ele><time>2026-05-01T15:00:20Z</time></trkpt><trkpt lat="45.786774770545435" lon="12.291140486473326"><ele>52.0</ele><time>2026-05-01T15:00:21Z</time></trkpt><trkpt lat="45.78709151428227" lon="12.291340014299251"><ele>51.5</ele><time>2026-05-01T15:00:22Z</time></trkpt><trkpt lat="45.78740695193765" lon="12.291538761803928"><ele>51.0</ele><time>2026-05-01T15:00:23Z</time></trkpt><trkpt lat="45.78772262147951" lon="12.291742597924507"><ele>49.0</ele><time>2026-05-01T15:00:24Z</time></trkpt><trkpt lat="45.788037632259446" lon="12.291947062150886"><ele>47.0</ele><time>2026-05-01T15:00:25Z</time></trkpt><trkpt lat="45.78835343240184" lon="12.292150542013179"><ele>47.5</ele><time>2026-05-01T15:00:26Z</time></trkpt><trkpt lat="45.78866765002254" lon="12.292354964890421"><ele>48.0</ele><time>2026-05-01T15:00:27Z</time></trkpt><trkpt lat="45.788983789290725" lon="12.292557813824885"><ele>48.0</ele><time>2026-05-01T15:00:28Z</time></trkpt><trkpt lat="45.78930043394535" lon="12.292759830096117"><ele>48.0</ele><time>2026-05-01T15:00:29Z</time></trkpt><trkpt lat="45.789617391099185" lon="12.29295953746731"><ele>47.0</ele><time>2026-05-01T15:00:30Z</time></trkpt><trkpt lat="45.789935557243346" lon="12.293158968954533"><ele>46.0</ele><time>2026-05-01T15:00:31Z</time></trkpt><trkpt lat="45.79025355373898" lon="12.293359102755721"><ele>46.0</ele><time>2026-05-01T15:00:32Z</time></trkpt><trkpt lat="45.790569941492805" lon="12.293560156117978"><ele>46.0</ele><time>2026-05-01T15:00:33Z</time></trkpt><trkpt lat="45.79088371739729" lon="12.293761273031503"><ele>45.5</ele><time>2026-05-01T15:00:34Z</time></trkpt><trkpt lat="45.79119732610227" lon="12.293960507877202"><ele>45.0</ele><time>2026-05-01T15:00:35Z</time></trkpt><trkpt lat="45.791511203739105" lon="12.29415936501618"><ele>45.0</ele><time>2026-05-01T15:00:36Z</time></trkpt><trkpt lat="45.7918238446614" lon="12.29435681472185"><ele>45.0</ele><time>2026-05-01T15:00:37Z</time></trkpt><trkpt lat="45.792134877113554" lon="12.294554908511323"><ele>44.5</ele><time>2026-05-01T15:00:38Z</time></trkpt><trkpt lat="45.79244616713387" lon="12.294749580167434"><ele>44.0</ele><time>2026-05-01T15:00:39Z</time></trkpt><trkpt lat="45.792755872057214" lon="12.294944696760757"><ele>45.5</ele><time>2026-05-01T15:00:40Z</time></trkpt><trkpt lat="45.79306636156292" lon="12.295144878542445"><ele>47.0</ele><time>2026-05-01T15:00:41Z</time></trkpt><trkpt lat="45.79337742883305" lon="12.295344807129226"><ele>48.5</ele><time>2026-05-01T15:00:42Z</time></trkpt><trkpt lat="45.793688892280066" lon="12.295542798062272"><ele>50.0</ele><time>2026-05-01T15:00:43Z</time></trkpt><trkpt lat="45.794002120756055" lon="12.295738788503035"><ele>50.5</ele><time>2026-05-01T15:00:44Z</time></trkpt><trkpt lat="45.79431582261243" lon="12.295933819719838"><ele>51.0</ele><time>2026-05-01T15:00:45Z</time></trkpt><trkpt lat="45.79462773546319" lon="12.296130951016329"><ele>51.0</ele><time>2026-05-01T15:00:46Z</time></trkpt><trkpt lat="45.79493726660377" lon="12.296328386751972"><ele>51.0</ele><time>2026-05-01T15:00:47Z</time></trkpt><trkpt lat="45.79524524883643" lon="12.296526207550526"><ele>50.0</ele><time>2026-05-01T15:00:48Z</time></trkpt><trkpt lat="45.795552193290284" lon="12.29672199797649"><ele>49.0</ele><time>2026-05-01T15:00:49Z</time></trkpt><trkpt lat="45.79585751781012" lon="12.29691555660368"><ele>49.5</ele><time>2026-05-01T15:00:50Z</time></trkpt><trkpt lat="45.79616053117704" lon="12.29710759997068"><ele>50.0</ele><time>2026-05-01T15:00:51Z</time></trkpt><trkpt lat="45.796463466861205" lon="12.297298899660404"><ele>50.0</ele><time>2026-05-01T15:00:51.999Z</time></trkpt><trkpt lat="45.79676580281403" lon="12.297491362376029"><ele>50.0</ele><time>2026-05-01T15:00:52.999Z</time></trkpt><trkpt lat="45.79706919058559" lon="12.297683778552678"><ele>50.0</ele><time>2026-05-01T15:00:53.999Z</time></trkpt><trkpt lat="45.797372769399615" lon="12.297876819942372"><ele>50.0</ele><time>2026-05-01T15:00:54.999Z</time></trkpt><trkpt lat="45.797674873334074" lon="12.298068622757341"><ele>51.5</ele><time>2026-05-01T15:00:55.999Z</time></trkpt><trkpt lat="45.79797719980708" lon="12.298260693757646"><ele>53.0</ele><time>2026-05-01T15:00:56.999Z</time></trkpt><trkpt lat="45.798281852447616" lon="12.298454792779593"><ele>52.0</ele><time>2026-05-01T15:00:57.999Z</time></trkpt><trkpt lat="45.79859111769139" lon="12.298652087222226"><ele>51.0</ele><time>2026-05-01T15:00:58.999Z</time></trkpt><trkpt lat="45.7989053551929" lon="12.29885338161916"><ele>50.5</ele><time>2026-05-01T15:00:59.999Z</time></trkpt><trkpt lat="45.79922971821544" lon="12.299065534366706"><ele>50.0</ele><time>2026-05-01T15:01:00.999Z</time></trkpt><trkpt lat="45.799564287140996" lon="12.299279339588006"><ele>50.0</ele><time>2026-05-01T15:01:01.999Z</time></trkpt><trkpt lat="45.79990717624238" lon="12.2994957597583"><ele>50.0</ele><time>2026-05-01T15:01:02.999Z</time></trkpt><trkpt lat="45.80025188621795" lon="12.299711341402917"><ele>49.5</ele><time>2026-05-01T15:01:03.999Z</time></trkpt><trkpt lat="45.80059366259717" lon="12.299926220668004"><ele>49.0</ele><time>2026-05-01T15:01:04.999Z</time></trkpt><trkpt lat="45.80092968552496" lon="12.300138111940116"><ele>49.0</ele><time>2026-05-01T15:01:05.999Z</time></trkpt><trkpt lat="45.80126124473112" lon="12.300347886812826"><ele>49.0</ele><time>2026-05-01T15:01:06.999Z</time></trkpt><trkpt lat="45.801587942276456" lon="12.300554809834392"><ele>49.0</ele><time>2026-05-01T15:01:07.999Z</time></trkpt><trkpt lat="45.80190937547101" lon="12.300755854628765"><ele>49.0</ele><time>2026-05-01T15:01:08.999Z</time></trkpt><trkpt lat="45.802228305656605" lon="12.30095451012426"><ele>49.0</ele><time>2026-05-01T15:01:09.999Z</time></trkpt><trkpt lat="45.802544803010434" lon="12.301148480249868"><ele>49.0</ele><time>2026-05-01T15:01:10.999Z</time></trkpt><trkpt lat="45.80285945171967" lon="12.301334194652235"><ele>48.5</ele><time>2026-05-01T15:01:11.999Z</time></trkpt><trkpt lat="45.8031689691241" lon="12.301520356955049"><ele>48.0</ele><time>2026-05-01T15:01:12.999Z</time></trkpt><trkpt lat="45.803475919553584" lon="12.301711872369452"><ele>48.5</ele><time>2026-05-01T15:01:13.999Z</time></trkpt><trkpt lat="45.80378025492914" lon="12.301903319689009"><ele>49.0</ele><time>2026-05-01T15:01:14.999Z</time></trkpt><trkpt lat="45.80408105597925" lon="12.30209508577444"><ele>48.5</ele><time>2026-05-01T15:01:15.999Z</time></trkpt><trkpt lat="45.80437943131959" lon="12.302284174863773"><ele>48.0</ele><time>2026-05-01T15:01:16.999Z</time></trkpt><trkpt lat="45.80467473671765" lon="12.302472455437666"><ele>48.0</ele><time>2026-05-01T15:01:17.999Z</time></trkpt><trkpt lat="45.80496659374894" lon="12.302660443734682"><ele>48.0</ele><time>2026-05-01T15:01:18.999Z</time></trkpt><trkpt lat="45.8052573667601" lon="12.30285290649947"><ele>48.0</ele><time>2026-05-01T15:01:19.999Z</time></trkpt><trkpt lat="45.80554657927373" lon="12.303051925570339"><ele>48.0</ele><time>2026-05-01T15:01:20.999Z</time></trkpt><trkpt lat="45.80583647559519" lon="12.303251405839774"><ele>47.5</ele><time>2026-05-01T15:01:21.999Z</time></trkpt><trkpt lat="45.806128403968266" lon="12.303442356707555"><ele>47.0</ele><time>2026-05-01T15:01:22.999Z</time></trkpt><trkpt lat="45.8064232126215" lon="12.303631397715362"><ele>47.0</ele><time>2026-05-01T15:01:23.999Z</time></trkpt><trkpt lat="45.806719198677285" lon="12.303818072339542"><ele>47.0</ele><time>2026-05-01T15:01:24.999Z</time></trkpt><trkpt lat="45.80701583055697" lon="12.304007708207429"><ele>47.5</ele><time>2026-05-01T15:01:25.999Z</time></trkpt><trkpt lat="45.80731207815201" lon="12.304199150189133"><ele>48.0</ele><time>2026-05-01T15:01:26.999Z</time></trkpt><trkpt lat="45.80760776743489" lon="12.304396754215851"><ele>48.5</ele><time>2026-05-01T15:01:27.999Z</time></trkpt><trkpt lat="45.807904590655106" lon="12.304597321989727"><ele>49.0</ele><time>2026-05-01T15:01:28.999Z</time></trkpt><trkpt lat="45.808201712774206" lon="12.30480279355781"><ele>48.0</ele><time>2026-05-01T15:01:29.999Z</time></trkpt><trkpt lat="45.80849863392264" lon="12.305011843068215"><ele>47.0</ele><time>2026-05-01T15:01:30.999Z</time></trkpt><trkpt lat="45.808795893123296" lon="12.305222899097659"><ele>47.0</ele><time>2026-05-01T15:01:31.999Z</time></trkpt><trkpt lat="45.809093560041724" lon="12.305439987173903"><ele>47.0</ele><time>2026-05-01T15:01:32.999Z</time></trkpt><trkpt lat="45.80939283133251" lon="12.305660626473308"><ele>48.0</ele><time>2026-05-01T15:01:33.999Z</time></trkpt><trkpt lat="45.80969407683425" lon="12.305879541781522"><ele>49.0</ele><time>2026-05-01T15:01:34.999Z</time></trkpt><trkpt lat="45.80999740174705" lon="12.306090469134716"><ele>49.5</ele><time>2026-05-01T15:01:36Z</time></trkpt><trkpt lat="45.81029937477655" lon="12.306303473208274"><ele>50.0</ele><time>2026-05-01T15:01:37Z</time></trkpt><trkpt lat="45.81059698278303" lon="12.306529541974168"><ele>48.5</ele><time>2026-05-01T15:01:38Z</time></trkpt><trkpt lat="45.81089140917586" lon="12.306760547282792"><ele>47.0</ele><time>2026-05-01T15:01:39Z</time></trkpt><trkpt lat="45.811182410483546" lon="12.307000931437022"><ele>47.5</ele><time>2026-05-01T15:01:40Z</time></trkpt><trkpt lat="45.811470310694965" lon="12.30724957306468"><ele>48.0</ele><time>2026-05-01T15:01:41Z</time></trkpt><trkpt lat="45.811755011557715" lon="12.307510093554379"><ele>48.0</ele><time>2026-05-01T15:01:42Z</time></trkpt><trkpt lat="45.81203795731773" lon="12.307778188050017"><ele>48.0</ele><time>2026-05-01T15:01:43Z</time></trkpt><trkpt lat="45.812322795815156" lon="12.308046580033695"><ele>47.5</ele><time>2026-05-01T15:01:44Z</time></trkpt><trkpt lat="45.81261015958348" lon="12.30831107090085"><ele>47.0</ele><time>2026-05-01T15:01:45Z</time></trkpt><trkpt lat="45.81289750332517" lon="12.308575075632701"><ele>46.5</ele><time>2026-05-01T15:01:46Z</time></trkpt><trkpt lat="45.81318333263444" lon="12.308838817687684"><ele>46.0</ele><time>2026-05-01T15:01:47Z</time></trkpt><trkpt lat="45.81346657005788" lon="12.309101974013359"><ele>47.5</ele><time>2026-05-01T15:01:48Z</time></trkpt><trkpt lat="45.81374874507991" lon="12.30936340961444"><ele>49.0</ele><time>2026-05-01T15:01:49Z</time></trkpt><trkpt lat="45.81402958598906" lon="12.309623118842694"><ele>50.5</ele><time>2026-05-01T15:01:50Z</time></trkpt><trkpt lat="45.814307899089705" lon="12.30988084985157"><ele>52.0</ele><time>2026-05-01T15:01:51Z</time></trkpt><trkpt lat="45.81458677028994" lon="12.310139624081879"><ele>49.0</ele><time>2026-05-01T15:01:52Z</time></trkpt><trkpt lat="45.81486592621351" lon="12.310395709414568"><ele>46.0</ele><time>2026-05-01T15:01:53Z</time></trkpt><trkpt lat="45.815145777741364" lon="12.310654296189382"><ele>46.5</ele><time>2026-05-01T15:01:54Z</time></trkpt><trkpt lat="45.81542533250624" lon="12.310914834496542"><ele>47.0</ele><time>2026-05-01T15:01:55Z</time></trkpt><trkpt lat="45.815702974445976" lon="12.311176170862288"><ele>47.0</ele><time>2026-05-01T15:01:56Z</time></trkpt><trkpt lat="45.81597968269263" lon="12.311437349752442"><ele>47.0</ele><time>2026-05-01T15:01:57Z</time></trkpt><trkpt lat="45.81625759758749" lon="12.31169349284124"><ele>47.0</ele><time>2026-05-01T15:01:58Z</time></trkpt><trkpt lat="45.81653453188214" lon="12.311947128947041"><ele>47.0</ele><time>2026-05-01T15:01:59Z</time></trkpt><trkpt lat="45.81681172861808" lon="12.31219880204646"><ele>48.0</ele><time>2026-05-01T15:02:00Z</time></trkpt><trkpt lat="45.817089833735466" lon="12.31244152798591"><ele>49.0</ele><time>2026-05-01T15:02:01Z</time></trkpt><trkpt lat="45.81736983076182" lon="12.312674450607268"><ele>48.5</ele><time>2026-05-01T15:02:02Z</time></trkpt><trkpt lat="45.817652096206004" lon="12.312892687829605"><ele>48.0</ele><time>2026-05-01T15:02:03Z</time></trkpt><trkpt lat="45.81793606581207" lon="12.313100563389867"><ele>48.0</ele><time>2026-05-01T15:02:04Z</time></trkpt><trkpt lat="45.818224488047896" lon="12.313300714680203"><ele>48.0</ele><time>2026-05-01T15:02:05Z</time></trkpt><trkpt lat="45.81851421930933" lon="12.313494758523005"><ele>47.5</ele><time>2026-05-01T15:02:06Z</time></trkpt><trkpt lat="45.81880619337648" lon="12.313676570907653"><ele>47.0</ele><time>2026-05-01T15:02:07Z</time></trkpt><trkpt lat="45.819101771459984" lon="12.313850478981713"><ele>46.0</ele><time>2026-05-01T15:02:08Z</time></trkpt><trkpt lat="45.81940176018455" lon="12.314014789119435"><ele>45.0</ele><time>2026-05-01T15:02:09Z</time></trkpt><trkpt lat="45.81970556606009" lon="12.314169163011302"><ele>45.0</ele><time>2026-05-01T15:02:10Z</time></trkpt><trkpt lat="45.82001315616651" lon="12.314313621984185"><ele>45.0</ele><time>2026-05-01T15:02:11Z</time></trkpt><trkpt lat="45.82032302212944" lon="12.31444811012974"><ele>45.5</ele><time>2026-05-01T15:02:12Z</time></trkpt><trkpt lat="45.82063698701185" lon="12.314572916689636"><ele>46.0</ele><time>2026-05-01T15:02:13Z</time></trkpt><trkpt lat="45.820953673578366" lon="12.314686949268982"><ele>47.0</ele><time>2026-05-01T15:02:14Z</time></trkpt><trkpt lat="45.82127552251093" lon="12.314786662875825"><ele>48.0</ele><time>2026-05-01T15:02:15Z</time></trkpt><trkpt lat="45.821601250724804" lon="12.314878236410363"><ele>48.0</ele><time>2026-05-01T15:02:16Z</time></trkpt><trkpt lat="45.82193115024108" lon="12.314960884915182"><ele>48.0</ele><time>2026-05-01T15:02:17Z</time></trkpt><trkpt lat="45.82226274198885" lon="12.315033071581826"><ele>48.0</ele><time>2026-05-01T15:02:18Z</time></trkpt><trkpt lat="45.8225971500519" lon="12.315093649745029"><ele>48.0</ele><time>2026-05-01T15:02:19Z</time></trkpt><trkpt lat="45.82293199402062" lon="12.315146125630895"><ele>47.0</ele><time>2026-05-01T15:02:20Z</time></trkpt><trkpt lat="45.82327014996737" lon="12.315199199622771"><ele>46.0</ele><time>2026-05-01T15:02:21Z</time></trkpt><trkpt lat="45.823609450076006" lon="12.315254609274238"><ele>46.0</ele><time>2026-05-01T15:02:22Z</time></trkpt><trkpt lat="45.82395018539093" lon="12.31531151225051"><ele>46.0</ele><time>2026-05-01T15:02:23Z</time></trkpt><trkpt lat="45.82429098084109" lon="12.315369326652302"><ele>46.5</ele><time>2026-05-01T15:02:24Z</time></trkpt><trkpt lat="45.82463149170313" lon="12.315424151353362"><ele>47.0</ele><time>2026-05-01T15:02:25Z</time></trkpt><trkpt lat="45.82497233333137" lon="12.315476793806047"><ele>45.5</ele><time>2026-05-01T15:02:26Z</time></trkpt><trkpt lat="45.825313500753246" lon="12.315533426643123"><ele>44.0</ele><time>2026-05-01T15:02:27Z</time></trkpt><trkpt lat="45.82565498283617" lon="12.315589223574008"><ele>43.5</ele><time>2026-05-01T15:02:28Z</time></trkpt><trkpt lat="45.82599875420519" lon="12.315642959492077"><ele>43.0</ele><time>2026-05-01T15:02:29Z</time></trkpt><trkpt lat="45.8263410618423" lon="12.315696375693486"><ele>43.0</ele><time>2026-05-01T15:02:30Z</time></trkpt><trkpt lat="45.82668265824168" lon="12.315747704347487"><ele>43.0</ele><time>2026-05-01T15:02:31Z</time></trkpt><trkpt lat="45.827029874838686" lon="12.31579811238147"><ele>43.5</ele><time>2026-05-01T15:02:32Z</time></trkpt><trkpt lat="45.82738086433237" lon="12.315847243345246"><ele>44.0</ele><time>2026-05-01T15:02:33Z</time></trkpt><trkpt lat="45.82773603476633" lon="12.31589246707634"><ele>45.5</ele><time>2026-05-01T15:02:34Z</time></trkpt><trkpt lat="45.82809070535399" lon="12.315941016035355"><ele>47.0</ele><time>2026-05-01T15:02:35Z</time></trkpt><trkpt lat="45.82844454906294" lon="12.315995858671648"><ele>47.0</ele><time>2026-05-01T15:02:36Z</time></trkpt><trkpt lat="45.8287965290133" lon="12.316052774112727"><ele>47.0</ele><time>2026-05-01T15:02:37Z</time></trkpt><trkpt lat="45.82914703952616" lon="12.31611139892046"><ele>46.0</ele><time>2026-05-01T15:02:38Z</time></trkpt><trkpt lat="45.82949705457157" lon="12.316166760718806"><ele>45.0</ele><time>2026-05-01T15:02:39Z</time></trkpt><trkpt lat="45.829846002162405" lon="12.31622209602499"><ele>44.5</ele><time>2026-05-01T15:02:40Z</time></trkpt><trkpt lat="45.8301943488988" lon="12.31627421157437"><ele>44.0</ele><time>2026-05-01T15:02:41Z</time></trkpt><trkpt lat="45.83054806894475" lon="12.316327059595036"><ele>44.0</ele><time>2026-05-01T15:02:42Z</time></trkpt><trkpt lat="45.830899327493256" lon="12.316382742007422"><ele>44.0</ele><time>2026-05-01T15:02:43Z</time></trkpt><trkpt lat="45.83125048705063" lon="12.316441812820267"><ele>44.0</ele><time>2026-05-01T15:02:44Z</time></trkpt><trkpt lat="45.83159814719686" lon="12.316501273158721"><ele>44.0</ele><time>2026-05-01T15:02:45Z</time></trkpt><trkpt lat="45.83194773826388" lon="12.316560876515194"><ele>44.0</ele><time>2026-05-01T15:02:46Z</time></trkpt><trkpt lat="45.832296995805216" lon="12.316619896859981"><ele>44.0</ele><time>2026-05-01T15:02:47Z</time></trkpt><trkpt lat="45.83264474923405" lon="12.316676987795258"><ele>44.0</ele><time>2026-05-01T15:02:48Z</time></trkpt><trkpt lat="45.83299744119974" lon="12.31673394850163"><ele>44.0</ele><time>2026-05-01T15:02:49Z</time></trkpt><trkpt lat="45.83334671950409" lon="12.316790792968296"><ele>44.0</ele><time>2026-05-01T15:02:50Z</time></trkpt><trkpt lat="45.83369936312935" lon="12.316847194383683"><ele>44.0</ele><time>2026-05-01T15:02:51Z</time></trkpt><trkpt lat="45.83405126668481" lon="12.316903104526522"><ele>44.5</ele><time>2026-05-01T15:02:52Z</time></trkpt><trkpt lat="45.83440506643194" lon="12.316958263040917"><ele>45.0</ele><time>2026-05-01T15:02:53Z</time></trkpt><trkpt lat="45.834757507253386" lon="12.3170146517838"><ele>45.0</ele><time>2026-05-01T15:02:54Z</time></trkpt><trkpt lat="45.83510987594092" lon="12.317071526148414"><ele>45.0</ele><time>2026-05-01T15:02:55Z</time></trkpt><trkpt lat="45.83546467587553" lon="12.317129383187325"><ele>45.0</ele><time>2026-05-01T15:02:55.999Z</time></trkpt><trkpt lat="45.83581959784288" lon="12.317186824010154"><ele>45.0</ele><time>2026-05-01T15:02:56.999Z</time></trkpt><trkpt lat="45.836172089686784" lon="12.317244635416097"><ele>45.0</ele><time>2026-05-01T15:02:57.999Z</time></trkpt><trkpt lat="45.83652473083764" lon="12.317303251028292"><ele>45.0</ele><time>2026-05-01T15:02:58.999Z</time></trkpt><trkpt lat="45.83687376182042" lon="12.3173624886619"><ele>45.0</ele><time>2026-05-01T15:02:59.999Z</time></trkpt><trkpt lat="45.83722052103084" lon="12.317422476138002"><ele>45.0</ele><time>2026-05-01T15:03:00.999Z</time></trkpt><trkpt lat="45.8375671096583" lon="12.317484033155274"><ele>45.0</ele><time>2026-05-01T15:03:01.999Z</time></trkpt><trkpt lat="45.83791368999981" lon="12.317555073112038"><ele>45.0</ele><time>2026-05-01T15:03:02.999Z</time></trkpt><trkpt lat="45.83825832544939" lon="12.317637565669509"><ele>45.0</ele><time>2026-05-01T15:03:03.999Z</time></trkpt><trkpt lat="45.83860218108166" lon="12.31773561705338"><ele>45.0</ele><time>2026-05-01T15:03:04.999Z</time></trkpt><trkpt lat="45.838942439712554" lon="12.31784372927051"><ele>45.0</ele><time>2026-05-01T15:03:05.999Z</time></trkpt><trkpt lat="45.83928236572725" lon="12.317963710260093"><ele>45.0</ele><time>2026-05-01T15:03:06.999Z</time></trkpt><trkpt lat="45.839619689178896" lon="12.31809723082805"><ele>44.5</ele><time>2026-05-01T15:03:07.999Z</time></trkpt><trkpt lat="45.83995586145255" lon="12.318237460276686"><ele>44.0</ele><time>2026-05-01T15:03:08.999Z</time></trkpt><trkpt lat="45.84029130529496" lon="12.318381546808602"><ele>44.0</ele><time>2026-05-01T15:03:09.999Z</time></trkpt><trkpt lat="45.8406241937277" lon="12.318535042442615"><ele>44.0</ele><time>2026-05-01T15:03:10.999Z</time></trkpt><trkpt lat="45.84095613751678" lon="12.31869853418332"><ele>44.5</ele><time>2026-05-01T15:03:11.999Z</time></trkpt><trkpt lat="45.84128541621506" lon="12.318870363146813"><ele>45.0</ele><time>2026-05-01T15:03:12.999Z</time></trkpt><trkpt lat="45.84161388233383" lon="12.319052589717716"><ele>43.0</ele><time>2026-05-01T15:03:13.999Z</time></trkpt><trkpt lat="45.841940378176126" lon="12.319246322556006"><ele>41.0</ele><time>2026-05-01T15:03:14.999Z</time></trkpt><trkpt lat="45.842265275942054" lon="12.319448511813436"><ele>41.0</ele><time>2026-05-01T15:03:15.999Z</time></trkpt><trkpt lat="45.84258996731473" lon="12.319658927771801"><ele>41.0</ele><time>2026-05-01T15:03:16.999Z</time></trkpt><trkpt lat="45.84291620662425" lon="12.319878797160031"><ele>42.5</ele><time>2026-05-01T15:03:17.999Z</time></trkpt><trkpt lat="45.84324006602293" lon="12.320107158995738"><ele>44.0</ele><time>2026-05-01T15:03:18.999Z</time></trkpt><trkpt lat="45.84355963686978" lon="12.320348741803627"><ele>43.5</ele><time>2026-05-01T15:03:19.999Z</time></trkpt><trkpt lat="45.84387543049433" lon="12.320602859744032"><ele>43.0</ele><time>2026-05-01T15:03:20.999Z</time></trkpt><trkpt lat="45.844187991303386" lon="12.32086666379561"><ele>43.5</ele><time>2026-05-01T15:03:21.999Z</time></trkpt><trkpt lat="45.84449679346973" lon="12.321133276448796"><ele>44.0</ele><time>2026-05-01T15:03:22.999Z</time></trkpt><trkpt lat="45.84480320027327" lon="12.321406542074449"><ele>44.0</ele><time>2026-05-01T15:03:23.999Z</time></trkpt><trkpt lat="45.84510463706006" lon="12.321687183243421"><ele>44.0</ele><time>2026-05-01T15:03:24.999Z</time></trkpt><trkpt lat="45.84540090861267" lon="12.321976728088814"><ele>43.5</ele><time>2026-05-01T15:03:25.999Z</time></trkpt><trkpt lat="45.84569170468006" lon="12.322274808438143"><ele>43.0</ele><time>2026-05-01T15:03:26.999Z</time></trkpt><trkpt lat="45.845979228676526" lon="12.322573032183689"><ele>41.5</ele><time>2026-05-01T15:03:27.999Z</time></trkpt><trkpt lat="45.846264718650275" lon="12.322870663945292"><ele>40.0</ele><time>2026-05-01T15:03:28.999Z</time></trkpt><trkpt lat="45.84655022816283" lon="12.323164962132983"><ele>40.0</ele><time>2026-05-01T15:03:29.999Z</time></trkpt><trkpt lat="45.84683815295215" lon="12.323458103506308"><ele>40.0</ele><time>2026-05-01T15:03:30.999Z</time></trkpt><trkpt lat="45.84712618588743" lon="12.323752343716246"><ele>40.0</ele><time>2026-05-01T15:03:31.999Z</time></trkpt><trkpt lat="45.84741490516128" lon="12.324045744625199"><ele>40.0</ele><time>2026-05-01T15:03:32.999Z</time></trkpt><trkpt lat="45.84770425464275" lon="12.324339007227215"><ele>40.0</ele><time>2026-05-01T15:03:33.999Z</time></trkpt><trkpt lat="45.847995323160525" lon="12.324631465562916"><ele>40.0</ele><time>2026-05-01T15:03:34.999Z</time></trkpt><trkpt lat="45.84828770743176" lon="12.324921443279498"><ele>41.0</ele><time>2026-05-01T15:03:35.999Z</time></trkpt><trkpt lat="45.84857992151398" lon="12.325209076558695"><ele>42.0</ele><time>2026-05-01T15:03:36.999Z</time></trkpt><trkpt lat="45.84887071000467" lon="12.32549750433605"><ele>42.0</ele><time>2026-05-01T15:03:37.999Z</time></trkpt><trkpt lat="45.84915991607654" lon="12.325791417581033"><ele>42.0</ele><time>2026-05-01T15:03:38.999Z</time></trkpt><trkpt lat="45.84944784042573" lon="12.326087137897582"><ele>42.0</ele><time>2026-05-01T15:03:39.999Z</time></trkpt><trkpt lat="45.84973557091157" lon="12.32638414226811"><ele>42.0</ele><time>2026-05-01T15:03:40.999Z</time></trkpt><trkpt lat="45.85002406424117" lon="12.32667943717419"><ele>41.0</ele><time>2026-05-01T15:03:42Z</time></trkpt><trkpt lat="45.85031195361041" lon="12.326974351073481"><ele>40.0</ele><time>2026-05-01T15:03:43Z</time></trkpt><trkpt lat="45.850598882973536" lon="12.327269551668882"><ele>39.5</ele><time>2026-05-01T15:03:44Z</time></trkpt><trkpt lat="45.850883869088314" lon="12.327562488960957"><ele>39.0</ele><time>2026-05-01T15:03:45Z</time></trkpt><trkpt lat="45.85116900283274" lon="12.327855432466393"><ele>37.5</ele><time>2026-05-01T15:03:46Z</time></trkpt><trkpt lat="45.8514557590568" lon="12.328150642437931"><ele>36.0</ele><time>2026-05-01T15:03:47Z</time></trkpt><trkpt lat="45.85174416590846" lon="12.328446181077794"><ele>37.5</ele><time>2026-05-01T15:03:48Z</time></trkpt><trkpt lat="45.85203299382694" lon="12.328740811247828"><ele>39.0</ele><time>2026-05-01T15:03:49Z</time></trkpt><trkpt lat="45.852322335783654" lon="12.329034559630696"><ele>39.0</ele><time>2026-05-01T15:03:50Z</time></trkpt><trkpt lat="45.85261239924885" lon="12.329329064093226"><ele>39.0</ele><time>2026-05-01T15:03:51Z</time></trkpt><trkpt lat="45.85290211994218" lon="12.329625169596511"><ele>40.0</ele><time>2026-05-01T15:03:52Z</time></trkpt><trkpt lat="45.85318937512486" lon="12.32992016724815"><ele>41.0</ele><time>2026-05-01T15:03:53Z</time></trkpt><trkpt lat="45.85347521392978" lon="12.33021485457661"><ele>41.5</ele><time>2026-05-01T15:03:54Z</time></trkpt><trkpt lat="45.8537620604853" lon="12.3305111090666"><ele>42.0</ele><time>2026-05-01T15:03:55Z</time></trkpt><trkpt lat="45.8540465959152" lon="12.330805888358961"><ele>41.0</ele><time>2026-05-01T15:03:56Z</time></trkpt><trkpt lat="45.854328890117166" lon="12.331100567877964"><ele>40.0</ele><time>2026-05-01T15:03:57Z</time></trkpt><trkpt lat="45.85460803037727" lon="12.331401985460207"><ele>39.5</ele><time>2026-05-01T15:03:58Z</time></trkpt><trkpt lat="45.85487997868366" lon="12.331712961515256"><ele>39.0</ele><time>2026-05-01T15:03:59Z</time></trkpt><trkpt lat="45.85514525971615" lon="12.332035327651072"><ele>39.0</ele><time>2026-05-01T15:04:00Z</time></trkpt><trkpt lat="45.85540534906046" lon="12.332364041179183"><ele>39.0</ele><time>2026-05-01T15:04:01Z</time></trkpt><trkpt lat="45.85566042147857" lon="12.332701881060563"><ele>39.0</ele><time>2026-05-01T15:04:02Z</time></trkpt><trkpt lat="45.85591075931137" lon="12.33304485445522"><ele>39.0</ele><time>2026-05-01T15:04:03Z</time></trkpt><trkpt lat="45.8561568238542" lon="12.333392501000592"><ele>39.0</ele><time>2026-05-01T15:04:04Z</time></trkpt><trkpt lat="45.85639838120485" lon="12.333745362559599"><ele>39.0</ele><time>2026-05-01T15:04:05Z</time></trkpt><trkpt lat="45.856636075996875" lon="12.334104386020375"><ele>38.5</ele><time>2026-05-01T15:04:06Z</time></trkpt><trkpt lat="45.856868517342406" lon="12.334470953078291"><ele>38.0</ele><time>2026-05-01T15:04:07Z</time></trkpt><trkpt lat="45.85709642819791" lon="12.334843097683985"><ele>38.0</ele><time>2026-05-01T15:04:08Z</time></trkpt><trkpt lat="45.85732213126236" lon="12.335220384883607"><ele>38.0</ele><time>2026-05-01T15:04:09Z</time></trkpt><trkpt lat="45.85754597375912" lon="12.335596714599893"><ele>38.0</ele><time>2026-05-01T15:04:10Z</time></trkpt><trkpt lat="45.85777229025066" lon="12.335972455544717"><ele>38.0</ele><time>2026-05-01T15:04:11Z</time></trkpt><trkpt lat="45.857999118676666" lon="12.336340652965175"><ele>38.0</ele><time>2026-05-01T15:04:12Z</time></trkpt><trkpt lat="45.858226892452315" lon="12.336706779588651"><ele>38.0</ele><time>2026-05-01T15:04:13Z</time></trkpt><trkpt lat="45.85845927262575" lon="12.337067264870901"><ele>39.0</ele><time>2026-05-01T15:04:14Z</time></trkpt><trkpt lat="45.85870218444917" lon="12.337419983856387"><ele>40.0</ele><time>2026-05-01T15:04:15Z</time></trkpt><trkpt lat="45.858950382374196" lon="12.337757755737185"><ele>40.0</ele><time>2026-05-01T15:04:16Z</time></trkpt><trkpt lat="45.85920640460933" lon="12.33808155599022"><ele>40.0</ele><time>2026-05-01T15:04:17Z</time></trkpt><trkpt lat="45.859471523270415" lon="12.338390098751693"><ele>40.0</ele><time>2026-05-01T15:04:18Z</time></trkpt><trkpt lat="45.859744171060306" lon="12.33868363431859"><ele>40.0</ele><time>2026-05-01T15:04:19Z</time></trkpt><trkpt lat="45.86002389077527" lon="12.338961107383144"><ele>39.0</ele><time>2026-05-01T15:04:20Z</time></trkpt><trkpt lat="45.86030708321539" lon="12.339220903311283"><ele>38.0</ele><time>2026-05-01T15:04:21Z</time></trkpt><trkpt lat="45.860589570499776" lon="12.339468440320195"><ele>38.0</ele><time>2026-05-01T15:04:22Z</time></trkpt><trkpt lat="45.86087317466835" lon="12.339712514470254"><ele>38.0</ele><time>2026-05-01T15:04:23Z</time></trkpt><trkpt lat="45.86116108806239" lon="12.339941047514543"><ele>38.5</ele><time>2026-05-01T15:04:24Z</time></trkpt><trkpt lat="45.86146043581297" lon="12.340140901854019"><ele>39.0</ele><time>2026-05-01T15:04:25Z</time></trkpt><trkpt lat="45.86176906229355" lon="12.340323650429728"><ele>39.5</ele><time>2026-05-01T15:04:26Z</time></trkpt><trkpt lat="45.862086227407715" lon="12.340488821964708"><ele>40.0</ele><time>2026-05-01T15:04:27Z</time></trkpt><trkpt lat="45.8624041903053" lon="12.340643720104921"><ele>39.5</ele><time>2026-05-01T15:04:28Z</time></trkpt><trkpt lat="45.86272679075546" lon="12.340777805050514"><ele>39.0</ele><time>2026-05-01T15:04:29Z</time></trkpt><trkpt lat="45.863055341223436" lon="12.340888494087169"><ele>39.0</ele><time>2026-05-01T15:04:30Z</time></trkpt><trkpt lat="45.86338521023914" lon="12.340988605522908"><ele>39.0</ele><time>2026-05-01T15:04:31Z</time></trkpt><trkpt lat="45.86371709336715" lon="12.341079591569198"><ele>39.0</ele><time>2026-05-01T15:04:32Z</time></trkpt><trkpt lat="45.864050347073096" lon="12.341161516576499"><ele>39.0</ele><time>2026-05-01T15:04:33Z</time></trkpt><trkpt lat="45.86438612452833" lon="12.341240705071952"><ele>39.0</ele><time>2026-05-01T15:04:34Z</time></trkpt><trkpt lat="45.86472213153423" lon="12.341321245760271"><ele>39.0</ele><time>2026-05-01T15:04:35Z</time></trkpt><trkpt lat="45.865060687099195" lon="12.341404769882967"><ele>39.5</ele><time>2026-05-01T15:04:36Z</time></trkpt><trkpt lat="45.86540136168109" lon="12.341488726536157"><ele>40.0</ele><time>2026-05-01T15:04:37Z</time></trkpt><trkpt lat="45.86574462792891" lon="12.341569919189038"><ele>40.0</ele><time>2026-05-01T15:04:38Z</time></trkpt><trkpt lat="45.86609030893909" lon="12.341651890224021"><ele>40.0</ele><time>2026-05-01T15:04:39Z</time></trkpt><trkpt lat="45.86643599905718" lon="12.3417354988213"><ele>39.5</ele><time>2026-05-01T15:04:40Z</time></trkpt><trkpt lat="45.8667798253955" lon="12.341818728522965"><ele>39.0</ele><time>2026-05-01T15:04:41Z</time></trkpt><trkpt lat="45.86712308985616" lon="12.341901397964604"><ele>39.0</ele><time>2026-05-01T15:04:42Z</time></trkpt><trkpt lat="45.86746604691967" lon="12.341981274105526"><ele>39.0</ele><time>2026-05-01T15:04:43Z</time></trkpt><trkpt lat="45.867808045075854" lon="12.34206180291242"><ele>39.0</ele><time>2026-05-01T15:04:44Z</time></trkpt><trkpt lat="45.86814866933843" lon="12.342144084024172"><ele>39.0</ele><time>2026-05-01T15:04:45Z</time></trkpt><trkpt lat="45.868487369357844" lon="12.342227201645356"><ele>39.0</ele><time>2026-05-01T15:04:46Z</time></trkpt><trkpt lat="45.86882425073454" lon="12.342309004334574"><ele>39.0</ele><time>2026-05-01T15:04:47Z</time></trkpt><trkpt lat="45.86916181488956" lon="12.342389109639376"><ele>39.0</ele><time>2026-05-01T15:04:48Z</time></trkpt><trkpt lat="45.86949771972628" lon="12.342467352096676"><ele>39.0</ele><time>2026-05-01T15:04:49Z</time></trkpt><trkpt lat="45.86983120540365" lon="12.342545773237692"><ele>39.5</ele><time>2026-05-01T15:04:50Z</time></trkpt><trkpt lat="45.870157678591475" lon="12.342622813864871"><ele>40.0</ele><time>2026-05-01T15:04:51Z</time></trkpt><trkpt lat="45.87047850398417" lon="12.342700218024666"><ele>40.0</ele><time>2026-05-01T15:04:52Z</time></trkpt><trkpt lat="45.87079725874646" lon="12.342778119374824"><ele>40.0</ele><time>2026-05-01T15:04:53Z</time></trkpt><trkpt lat="45.871115769228695" lon="12.342851991771674"><ele>40.0</ele><time>2026-05-01T15:04:54Z</time></trkpt><trkpt lat="45.87143201258727" lon="12.342925332863212"><ele>40.0</ele><time>2026-05-01T15:04:55Z</time></trkpt><trkpt lat="45.871747229531955" lon="12.343000075249385"><ele>41.5</ele><time>2026-05-01T15:04:56Z</time></trkpt><trkpt lat="45.87205791632594" lon="12.343072198687493"><ele>43.0</ele><time>2026-05-01T15:04:57Z</time></trkpt><trkpt lat="45.872357639574446" lon="12.343141210491044"><ele>42.0</ele><time>2026-05-01T15:04:58Z</time></trkpt><trkpt lat="45.87265032455268" lon="12.343204833944913"><ele>41.0</ele><time>2026-05-01T15:04:58.999Z</time></trkpt><trkpt lat="45.87293793772038" lon="12.343261989225603"><ele>41.0</ele><time>2026-05-01T15:04:59.999Z</time></trkpt><trkpt lat="45.8732190114733" lon="12.343308697729258"><ele>41.0</ele><time>2026-05-01T15:05:00.999Z</time></trkpt><trkpt lat="45.8735027372003" lon="12.34334246795087"><ele>41.5</ele><time>2026-05-01T15:05:01.999Z</time></trkpt><trkpt lat="45.873786211934096" lon="12.343372989955716"><ele>42.0</ele><time>2026-05-01T15:05:02.999Z</time></trkpt><trkpt lat="45.87405958423861" lon="12.343392512340179"><ele>41.5</ele><time>2026-05-01T15:05:03.999Z</time></trkpt><trkpt lat="45.87431604543995" lon="12.343404838502098"><ele>41.0</ele><time>2026-05-01T15:05:04.999Z</time></trkpt><trkpt lat="45.87456239405652" lon="12.343412698365167"><ele>41.0</ele><time>2026-05-01T15:05:05.999Z</time></trkpt><trkpt lat="45.87480288126602" lon="12.343419468041086"><ele>41.0</ele><time>2026-05-01T15:05:06.999Z</time></trkpt><trkpt lat="45.87503318882527" lon="12.34341973290104"><ele>41.5</ele><time>2026-05-01T15:05:07.999Z</time></trkpt><trkpt lat="45.87526292690918" lon="12.343414997370326"><ele>42.0</ele><time>2026-05-01T15:05:08.999Z</time></trkpt><trkpt lat="45.87548971908034" lon="12.343402697560624"><ele>42.0</ele><time>2026-05-01T15:05:09.999Z</time></trkpt><trkpt lat="45.87571406573868" lon="12.343382759496004"><ele>42.0</ele><time>2026-05-01T15:05:10.999Z</time></trkpt><trkpt lat="45.87592744846677" lon="12.343354370567585"><ele>42.0</ele><time>2026-05-01T15:05:11.999Z</time></trkpt><trkpt lat="45.876140527875584" lon="12.34332256058359"><ele>42.0</ele><time>2026-05-01T15:05:12.999Z</time></trkpt><trkpt lat="45.87635680285797" lon="12.34328849785222"><ele>42.0</ele><time>2026-05-01T15:05:13.999Z</time></trkpt><trkpt lat="45.87657074916506" lon="12.343254376355919"><ele>42.0</ele><time>2026-05-01T15:05:14.999Z</time></trkpt><trkpt lat="45.876777310621975" lon="12.343226139834346"><ele>42.333333333333336</ele><time>2026-05-01T15:05:15.999Z</time></trkpt><trkpt lat="45.87697025238743" lon="12.343209954737574"><ele>42.66666666666667</ele><time>2026-05-01T15:05:16.999Z</time></trkpt><trkpt lat="45.87715830734169" lon="12.343208240667012"><ele>43.0</ele><time>2026-05-01T15:05:17.999Z</time></trkpt><trkpt lat="45.87735827167843" lon="12.343223511953427"><ele>43.0</ele><time>2026-05-01T15:05:18.999Z</time></trkpt><trkpt lat="45.87755823644179" lon="12.34325244738483"><ele>43.0</ele><time>2026-05-01T15:05:19.999Z</time></trkpt><trkpt lat="45.87775053314944" lon="12.343297572256034"><ele>43.0</ele><time>2026-05-01T15:05:20.999Z</time></trkpt><trkpt lat="45.87793914429553" lon="12.343365900102047"><ele>42.333333333333336</ele><time>2026-05-01T15:05:21.999Z</time></trkpt><trkpt lat="45.878126121311865" lon="12.343454088781051"><ele>41.666666666666664</ele><time>2026-05-01T15:05:22.999Z</time></trkpt><trkpt lat="45.87831031376602" lon="12.34355723861603"><ele>41.0</ele><time>2026-05-01T15:05:23.999Z</time></trkpt><trkpt lat="45.87848787538717" lon="12.343674242331884"><ele>41.0</ele><time>2026-05-01T15:05:24.999Z</time></trkpt><trkpt lat="45.87866143278706" lon="12.343807971007728"><ele>41.0</ele><time>2026-05-01T15:05:25.999Z</time></trkpt><trkpt lat="45.87883405579671" lon="12.343952194754097"><ele>41.0</ele><time>2026-05-01T15:05:26.999Z</time></trkpt><trkpt lat="45.87899748145944" lon="12.34409356710696"><ele>40.666666666666664</ele><time>2026-05-01T15:05:27.999Z</time></trkpt><trkpt lat="45.87916330137556" lon="12.344237597576925"><ele>40.333333333333336</ele><time>2026-05-01T15:05:28.999Z</time></trkpt><trkpt lat="45.87933218017534" lon="12.344391550045819"><ele>40.0</ele><time>2026-05-01T15:05:29.999Z</time></trkpt><trkpt lat="45.87949438095631" lon="12.344563831762013"><ele>40.333333333333336</ele><time>2026-05-01T15:05:30.999Z</time></trkpt><trkpt lat="45.87964288043693" lon="12.34475741920725"><ele>40.666666666666664</ele><time>2026-05-01T15:05:31.999Z</time></trkpt><trkpt lat="45.87977622288023" lon="12.344966877696585"><ele>41.0</ele><time>2026-05-01T15:05:32.999Z</time></trkpt><trkpt lat="45.879893941219976" lon="12.345198488983923"><ele>41.0</ele><time>2026-05-01T15:05:33.999Z</time></trkpt><trkpt lat="45.87999788669605" lon="12.345448490359864"><ele>41.0</ele><time>2026-05-01T15:05:34.999Z</time></trkpt><trkpt lat="45.880078697640485" lon="12.345715281857311"><ele>41.0</ele><time>2026-05-01T15:05:35.999Z</time></trkpt><trkpt lat="45.88014808922718" lon="12.34599114582533"><ele>41.666666666666664</ele><time>2026-05-01T15:05:36.999Z</time></trkpt><trkpt lat="45.880198338052416" lon="12.34628189047537"><ele>42.333333333333336</ele><time>2026-05-01T15:05:37.999Z</time></trkpt><trkpt lat="45.88024101630558" lon="12.346591129371074"><ele>43.0</ele><time>2026-05-01T15:05:38.999Z</time></trkpt><trkpt lat="45.88026316969742" lon="12.346916601405276"><ele>43.0</ele><time>2026-05-01T15:05:39.999Z</time></trkpt><trkpt lat="45.8802760333224" lon="12.347260753758405"><ele>43.0</ele><time>2026-05-01T15:05:40.999Z</time></trkpt><trkpt lat="45.88028504084053" lon="12.347619846739104"><ele>43.0</ele><time>2026-05-01T15:05:41.999Z</time></trkpt><trkpt lat="45.88029571574125" lon="12.347997426446533"><ele>43.0</ele><time>2026-05-01T15:05:42.999Z</time></trkpt><trkpt lat="45.88030507763944" lon="12.3483930260424"><ele>43.0</ele><time>2026-05-01T15:05:43.999Z</time></trkpt><trkpt lat="45.88031721629812" lon="12.348807917440125"><ele>43.0</ele><time>2026-05-01T15:05:44.999Z</time></trkpt><trkpt lat="45.88033558548619" lon="12.349255343503147"><ele>42.5</ele><time>2026-05-01T15:05:45.999Z</time></trkpt><trkpt lat="45.88035774752552" lon="12.349787011217295"><ele>42.0</ele><time>2026-05-01T15:05:46.999Z</time></trkpt><trkpt lat="45.880372777906" lon="12.35036506521811"><ele>41.5</ele><time>2026-05-01T15:05:48Z</time></trkpt><trkpt lat="45.880379860292614" lon="12.35098664881925"><ele>41.0</ele><time>2026-05-01T15:05:49Z</time></trkpt><trkpt lat="45.880385338696215" lon="12.351632313190665"><ele>39.5</ele><time>2026-05-01T15:05:50Z</time></trkpt><trkpt lat="45.880390055604096" lon="12.352251090958623"><ele>38.0</ele><time>2026-05-01T15:05:51Z</time></trkpt><trkpt lat="45.880399623987586" lon="12.352839108758277"><ele>38.0</ele><time>2026-05-01T15:05:52Z</time></trkpt><trkpt lat="45.8804062570876" lon="12.35340794593059"><ele>38.0</ele><time>2026-05-01T15:05:53Z</time></trkpt><trkpt lat="45.88041585371554" lon="12.353956282732712"><ele>38.0</ele><time>2026-05-01T15:05:54Z</time></trkpt><trkpt lat="45.880427430857075" lon="12.354483025975759"><ele>38.0</ele><time>2026-05-01T15:05:55Z</time></trkpt><trkpt lat="45.88043809015924" lon="12.354990887951358"><ele>39.0</ele><time>2026-05-01T15:05:56Z</time></trkpt><trkpt lat="45.88044664859106" lon="12.355485148761547"><ele>40.0</ele><time>2026-05-01T15:05:57Z</time></trkpt><trkpt lat="45.88045551261368" lon="12.355974488349428"><ele>40.0</ele><time>2026-05-01T15:05:58Z</time></trkpt><trkpt lat="45.88046375453319" lon="12.356464267522368"><ele>40.0</ele><time>2026-05-01T15:05:59Z</time></trkpt><trkpt lat="45.880472433018134" lon="12.356957936914817"><ele>40.0</ele><time>2026-05-01T15:06:00Z</time></trkpt><trkpt lat="45.88047795782039" lon="12.357452482275917"><ele>40.0</ele><time>2026-05-01T15:06:01Z</time></trkpt><trkpt lat="45.8804784414177" lon="12.357948794435886"><ele>40.5</ele><time>2026-05-01T15:06:02Z</time></trkpt><trkpt lat="45.880474604447826" lon="12.358447565668365"><ele>41.0</ele><time>2026-05-01T15:06:03Z</time></trkpt><trkpt lat="45.88046696522021" lon="12.35895104136497"><ele>40.0</ele><time>2026-05-01T15:06:04Z</time></trkpt><trkpt lat="45.880450332651776" lon="12.359453676307423"><ele>39.0</ele><time>2026-05-01T15:06:05Z</time></trkpt><trkpt lat="45.88042651379925" lon="12.35995632267599"><ele>39.0</ele><time>2026-05-01T15:06:06Z</time></trkpt><trkpt lat="45.880397133148776" lon="12.360458157009079"><ele>39.0</ele><time>2026-05-01T15:06:07Z</time></trkpt><trkpt lat="45.88036273993271" lon="12.36095591337513"><ele>39.0</ele><time>2026-05-01T15:06:08Z</time></trkpt><trkpt lat="45.88032660034022" lon="12.361455899905259"><ele>39.0</ele><time>2026-05-01T15:06:09Z</time></trkpt><trkpt lat="45.88029033396476" lon="12.36196069980907"><ele>39.0</ele><time>2026-05-01T15:06:10Z</time></trkpt><trkpt lat="45.880253530288456" lon="12.362467333795138"><ele>39.0</ele><time>2026-05-01T15:06:11Z</time></trkpt><trkpt lat="45.88021825197445" lon="12.362971633360203"><ele>39.0</ele><time>2026-05-01T15:06:12Z</time></trkpt><trkpt lat="45.880184715358496" lon="12.363473579481697"><ele>39.0</ele><time>2026-05-01T15:06:13Z</time></trkpt><trkpt lat="45.88015073280469" lon="12.36397032626329"><ele>39.0</ele><time>2026-05-01T15:06:14Z</time></trkpt><trkpt lat="45.880120868894615" lon="12.364462052445159"><ele>39.0</ele><time>2026-05-01T15:06:15Z</time></trkpt><trkpt lat="45.880091325151334" lon="12.364953815956106"><ele>38.5</ele><time>2026-05-01T15:06:16Z</time></trkpt><trkpt lat="45.880060963684386" lon="12.365443031437145"><ele>38.0</ele><time>2026-05-01T15:06:17Z</time></trkpt><trkpt lat="45.88003203800988" lon="12.365925164912452"><ele>37.0</ele><time>2026-05-01T15:06:18Z</time></trkpt><trkpt lat="45.880008667809165" lon="12.36639793179748"><ele>36.0</ele><time>2026-05-01T15:06:19Z</time></trkpt><trkpt lat="45.8799928024422" lon="12.366865712042953"><ele>35.5</ele><time>2026-05-01T15:06:20Z</time></trkpt><trkpt lat="45.879983998104244" lon="12.367332284819568"><ele>35.0</ele><time>2026-05-01T15:06:21Z</time></trkpt><trkpt lat="45.879981647833986" lon="12.367801278743492"><ele>35.0</ele><time>2026-05-01T15:06:22Z</time></trkpt><trkpt lat="45.87998425863215" lon="12.368270275033337"><ele>35.0</ele><time>2026-05-01T15:06:23Z</time></trkpt><trkpt lat="45.879992678633315" lon="12.368741424426933"><ele>35.5</ele><time>2026-05-01T15:06:24Z</time></trkpt><trkpt lat="45.88000879925644" lon="12.369217575590374"><ele>36.0</ele><time>2026-05-01T15:06:25Z</time></trkpt><trkpt lat="45.880031956249155" lon="12.369696304193702"><ele>36.5</ele><time>2026-05-01T15:06:26Z</time></trkpt><trkpt lat="45.88006241297685" lon="12.370178748066524"><ele>37.0</ele><time>2026-05-01T15:06:27Z</time></trkpt><trkpt lat="45.88010137607046" lon="12.370666963397309"><ele>37.0</ele><time>2026-05-01T15:06:28Z</time></trkpt><trkpt lat="45.8801502926912" lon="12.37115514318305"><ele>37.0</ele><time>2026-05-01T15:06:29Z</time></trkpt><trkpt lat="45.880203395468676" lon="12.371642094347674"><ele>35.5</ele><time>2026-05-01T15:06:30Z</time></trkpt><trkpt lat="45.88025944026784" lon="12.372118132656508"><ele>34.0</ele><time>2026-05-01T15:06:31Z</time></trkpt><trkpt lat="45.8803174442258" lon="12.372582643963298"><ele>35.5</ele><time>2026-05-01T15:06:32Z</time></trkpt><trkpt lat="45.88038184552612" lon="12.373039148058135"><ele>37.0</ele><time>2026-05-01T15:06:33Z</time></trkpt><trkpt lat="45.88045072350408" lon="12.373488532885029"><ele>37.0</ele><time>2026-05-01T15:06:34Z</time></trkpt><trkpt lat="45.88052229709469" lon="12.373933445235759"><ele>37.0</ele><time>2026-05-01T15:06:35Z</time></trkpt><trkpt lat="45.880600787512456" lon="12.374376867518317"><ele>36.0</ele><time>2026-05-01T15:06:36Z</time></trkpt><trkpt lat="45.88068484200327" lon="12.374816600996668"><ele>35.0</ele><time>2026-05-01T15:06:37Z</time></trkpt><trkpt lat="45.8807779370948" lon="12.3752552245143"><ele>35.5</ele><time>2026-05-01T15:06:38Z</time></trkpt><trkpt lat="45.88087890255459" lon="12.37569245628574"><ele>36.0</ele><time>2026-05-01T15:06:39Z</time></trkpt><trkpt lat="45.88099031783138" lon="12.376127132208717"><ele>36.0</ele><time>2026-05-01T15:06:40Z</time></trkpt><trkpt lat="45.88110672761841" lon="12.37655661533511"><ele>36.0</ele><time>2026-05-01T15:06:41Z</time></trkpt><trkpt lat="45.88122452962508" lon="12.376981548128793"><ele>36.0</ele><time>2026-05-01T15:06:42Z</time></trkpt><trkpt lat="45.88134279146367" lon="12.377402683314116"><ele>36.0</ele><time>2026-05-01T15:06:43Z</time></trkpt><trkpt lat="45.88146557682045" lon="12.377825540404782"><ele>34.5</ele><time>2026-05-01T15:06:44Z</time></trkpt><trkpt lat="45.88159527399" lon="12.378248966600326"><ele>33.0</ele><time>2026-05-01T15:06:45Z</time></trkpt><trkpt lat="45.88173193711882" lon="12.378672558867686"><ele>33.5</ele><time>2026-05-01T15:06:46Z</time></trkpt><trkpt lat="45.88187275061083" lon="12.379100132513184"><ele>34.0</ele><time>2026-05-01T15:06:47Z</time></trkpt><trkpt lat="45.88201935397483" lon="12.379529475158261"><ele>33.0</ele><time>2026-05-01T15:06:48Z</time></trkpt><trkpt lat="45.88216909551712" lon="12.379965089669533"><ele>32.0</ele><time>2026-05-01T15:06:49Z</time></trkpt><trkpt lat="45.88232166492307" lon="12.380402516651728"><ele>32.0</ele><time>2026-05-01T15:06:50Z</time></trkpt><trkpt lat="45.88247840929576" lon="12.380847236337237"><ele>32.0</ele><time>2026-05-01T15:06:51Z</time></trkpt><trkpt lat="45.88264275094481" lon="12.38129710637251"><ele>32.5</ele><time>2026-05-01T15:06:52Z</time></trkpt><trkpt lat="45.88281174330808" lon="12.381754741126205"><ele>33.0</ele><time>2026-05-01T15:06:53Z</time></trkpt><trkpt lat="45.88298288258218" lon="12.382216309581445"><ele>33.0</ele><time>2026-05-01T15:06:54Z</time></trkpt><trkpt lat="45.88315542261788" lon="12.382682415184297"><ele>33.0</ele><time>2026-05-01T15:06:55Z</time></trkpt><trkpt lat="45.88332962037778" lon="12.383153388923553"><ele>33.0</ele><time>2026-05-01T15:06:56Z</time></trkpt><trkpt lat="45.88350328446731" lon="12.383625666847628"><ele>33.0</ele><time>2026-05-01T15:06:57Z</time></trkpt><trkpt lat="45.8836734892146" lon="12.384093994030463"><ele>33.0</ele><time>2026-05-01T15:06:58Z</time></trkpt><trkpt lat="45.88384342701976" lon="12.384561447890125"><ele>33.0</ele><time>2026-05-01T15:06:59Z</time></trkpt><trkpt lat="45.8840075498126" lon="12.38502716318246"><ele>32.5</ele><time>2026-05-01T15:07:00Z</time></trkpt><trkpt lat="45.88417110220144" lon="12.385490558690524"><ele>32.0</ele><time>2026-05-01T15:07:01Z</time></trkpt><trkpt lat="45.88433589011526" lon="12.385948176800804"><ele>32.5</ele><time>2026-05-01T15:07:02Z</time></trkpt><trkpt lat="45.88450127466871" lon="12.386399173302557"><ele>33.0</ele><time>2026-05-01T15:07:03Z</time></trkpt><trkpt lat="45.88466648247213" lon="12.386845083104166"><ele>33.0</ele><time>2026-05-01T15:07:03.999Z</time></trkpt><trkpt lat="45.8848292490573" lon="12.387286041072848"><ele>33.0</ele><time>2026-05-01T15:07:04.999Z</time></trkpt><trkpt lat="45.88499110774487" lon="12.387722245130508"><ele>32.5</ele><time>2026-05-01T15:07:05.999Z</time></trkpt><trkpt lat="45.88515232445027" lon="12.388153911331681"><ele>32.0</ele><time>2026-05-01T15:07:06.999Z</time></trkpt><trkpt lat="45.8853138287381" lon="12.388587559984412"><ele>33.0</ele><time>2026-05-01T15:07:07.999Z</time></trkpt><trkpt lat="45.88547428172352" lon="12.38902088987303"><ele>34.0</ele><time>2026-05-01T15:07:08.999Z</time></trkpt><trkpt lat="45.8856340355759" lon="12.389452439576948"><ele>34.0</ele><time>2026-05-01T15:07:09.999Z</time></trkpt><trkpt lat="45.885793262207116" lon="12.389881960166772"><ele>34.0</ele><time>2026-05-01T15:07:10.999Z</time></trkpt><trkpt lat="45.88595256673465" lon="12.390312225618244"><ele>34.0</ele><time>2026-05-01T15:07:11.999Z</time></trkpt><trkpt lat="45.88611269267351" lon="12.390740489053991"><ele>34.0</ele><time>2026-05-01T15:07:12.999Z</time></trkpt><trkpt lat="45.88627100482613" lon="12.391166815972506"><ele>33.0</ele><time>2026-05-01T15:07:13.999Z</time></trkpt><trkpt lat="45.88642929548221" lon="12.391593927326745"><ele>32.0</ele><time>2026-05-01T15:07:14.999Z</time></trkpt><trkpt lat="45.88658585238276" lon="12.392020418270283"><ele>32.5</ele><time>2026-05-01T15:07:15.999Z</time></trkpt><trkpt lat="45.88674406139102" lon="12.392446300178433"><ele>33.0</ele><time>2026-05-01T15:07:16.999Z</time></trkpt><trkpt lat="45.886904293558366" lon="12.392874255049556"><ele>33.5</ele><time>2026-05-01T15:07:17.999Z</time></trkpt><trkpt lat="45.887063556258866" lon="12.393304387035029"><ele>34.0</ele><time>2026-05-01T15:07:18.999Z</time></trkpt><trkpt lat="45.88722121270752" lon="12.393736349915331"><ele>34.0</ele><time>2026-05-01T15:07:19.999Z</time></trkpt><trkpt lat="45.88737837100515" lon="12.394172814353288"><ele>34.0</ele><time>2026-05-01T15:07:20.999Z</time></trkpt><trkpt lat="45.88753631825255" lon="12.394616645839672"><ele>33.5</ele><time>2026-05-01T15:07:21.999Z</time></trkpt><trkpt lat="45.887692018987636" lon="12.395065949256683"><ele>33.0</ele><time>2026-05-01T15:07:22.999Z</time></trkpt><trkpt lat="45.88784456695" lon="12.395515385938712"><ele>33.0</ele><time>2026-05-01T15:07:23.999Z</time></trkpt><trkpt lat="45.88799555351047" lon="12.395965020439261"><ele>33.0</ele><time>2026-05-01T15:07:24.999Z</time></trkpt><trkpt lat="45.88814237718269" lon="12.39641088548933"><ele>32.5</ele><time>2026-05-01T15:07:25.999Z</time></trkpt><trkpt lat="45.88828792223474" lon="12.396856887685212"><ele>32.0</ele><time>2026-05-01T15:07:26.999Z</time></trkpt><trkpt lat="45.88843071354255" lon="12.397300896907547"><ele>32.0</ele><time>2026-05-01T15:07:27.999Z</time></trkpt><trkpt lat="45.88856982583202" lon="12.397746681655535"><ele>32.0</ele><time>2026-05-01T15:07:28.999Z</time></trkpt><trkpt lat="45.888705626287745" lon="12.398191118469063"><ele>32.0</ele><time>2026-05-01T15:07:29.999Z</time></trkpt><trkpt lat="45.88883609322483" lon="12.398635421273893"><ele>32.0</ele><time>2026-05-01T15:07:30.999Z</time></trkpt><trkpt lat="45.88896208962036" lon="12.39907697683277"><ele>32.0</ele><time>2026-05-01T15:07:31.999Z</time></trkpt><trkpt lat="45.8890846150827" lon="12.39952087883007"><ele>32.0</ele><time>2026-05-01T15:07:32.999Z</time></trkpt><trkpt lat="45.88920288142691" lon="12.399967573520001"><ele>31.5</ele><time>2026-05-01T15:07:33.999Z</time></trkpt><trkpt lat="45.889318848817126" lon="12.40041890457904"><ele>31.0</ele><time>2026-05-01T15:07:34.999Z</time></trkpt><trkpt lat="45.889429855001396" lon="12.400874540552037"><ele>31.0</ele><time>2026-05-01T15:07:35.999Z</time></trkpt><trkpt lat="45.88953786166134" lon="12.401334910595551"><ele>31.0</ele><time>2026-05-01T15:07:36.999Z</time></trkpt><trkpt lat="45.88964124105941" lon="12.401797458018526"><ele>31.5</ele><time>2026-05-01T15:07:37.999Z</time></trkpt><trkpt lat="45.88973897706713" lon="12.402262674792619"><ele>32.0</ele><time>2026-05-01T15:07:38.999Z</time></trkpt><trkpt lat="45.88983057965913" lon="12.402726338502088"><ele>32.0</ele><time>2026-05-01T15:07:39.999Z</time></trkpt><trkpt lat="45.889918309612554" lon="12.403200902794572"><ele>32.0</ele><time>2026-05-01T15:07:40.999Z</time></trkpt><trkpt lat="45.89000215115154" lon="12.403677114766797"><ele>32.5</ele><time>2026-05-01T15:07:41.999Z</time></trkpt><trkpt lat="45.890080569154065" lon="12.404154774029708"><ele>33.0</ele><time>2026-05-01T15:07:42.999Z</time></trkpt><trkpt lat="45.890152311596005" lon="12.404636325190165"><ele>33.0</ele><time>2026-05-01T15:07:43.999Z</time></trkpt><trkpt lat="45.890218907844975" lon="12.405117037976781"><ele>33.0</ele><time>2026-05-01T15:07:44.999Z</time></trkpt><trkpt lat="45.890280071002536" lon="12.405598391098042"><ele>33.0</ele><time>2026-05-01T15:07:45.999Z</time></trkpt><trkpt lat="45.8903381307592" lon="12.406079939954768"><ele>33.0</ele><time>2026-05-01T15:07:46.999Z</time></trkpt><trkpt lat="45.89039110024836" lon="12.406561221103395"><ele>33.5</ele><time>2026-05-01T15:07:47.999Z</time></trkpt><trkpt lat="45.89043812260813" lon="12.407036913718212"><ele>34.0</ele><time>2026-05-01T15:07:48.999Z</time></trkpt><trkpt lat="45.890482896243476" lon="12.40751322364383"><ele>33.0</ele><time>2026-05-01T15:07:49.999Z</time></trkpt><trkpt lat="45.890521632553885" lon="12.407991063621399"><ele>32.0</ele><time>2026-05-01T15:07:50.999Z</time></trkpt><trkpt lat="45.89055598453282" lon="12.408472975352016"><ele>31.5</ele><time>2026-05-01T15:07:51.999Z</time></trkpt><trkpt lat="45.89058949116533" lon="12.408965590213061"><ele>31.0</ele><time>2026-05-01T15:07:52.999Z</time></trkpt><trkpt lat="45.89062145447811" lon="12.40945058699592"><ele>31.0</ele><time>2026-05-01T15:07:54Z</time></trkpt><trkpt lat="45.890648167855566" lon="12.40993195485434"><ele>31.0</ele><time>2026-05-01T15:07:55Z</time></trkpt><trkpt lat="45.89067160251953" lon="12.410411641526203"><ele>31.0</ele><time>2026-05-01T15:07:56Z</time></trkpt><trkpt lat="45.890692839956806" lon="12.410886185531252"><ele>31.0</ele><time>2026-05-01T15:07:57Z</time></trkpt><trkpt lat="45.89071049430961" lon="12.411359931667238"><ele>31.0</ele><time>2026-05-01T15:07:58Z</time></trkpt><trkpt lat="45.89072518341533" lon="12.411832462225659"><ele>31.0</ele><time>2026-05-01T15:07:59Z</time></trkpt><trkpt lat="45.890737737656536" lon="12.41230652361779"><ele>31.0</ele><time>2026-05-01T15:08:00Z</time></trkpt><trkpt lat="45.89075083722235" lon="12.412775550599303"><ele>31.0</ele><time>2026-05-01T15:08:01Z</time></trkpt><trkpt lat="45.89076343476449" lon="12.413243135842366"><ele>31.0</ele><time>2026-05-01T15:08:02Z</time></trkpt><trkpt lat="45.89077448772128" lon="12.413715120896114"><ele>31.0</ele><time>2026-05-01T15:08:03Z</time></trkpt><trkpt lat="45.89078179609225" lon="12.414185525325692"><ele>30.0</ele><time>2026-05-01T15:08:04Z</time></trkpt><trkpt lat="45.89078947019212" lon="12.414658583276607"><ele>29.0</ele><time>2026-05-01T15:08:05Z</time></trkpt><trkpt lat="45.890797503802546" lon="12.41513368891345"><ele>29.0</ele><time>2026-05-01T15:08:06Z</time></trkpt><trkpt lat="45.890804741306596" lon="12.415619007185347"><ele>29.0</ele><time>2026-05-01T15:08:07Z</time></trkpt><trkpt lat="45.89081091955322" lon="12.416111854661047"><ele>29.5</ele><time>2026-05-01T15:08:08Z</time></trkpt><trkpt lat="45.89081627177505" lon="12.416606341142666"><ele>30.0</ele><time>2026-05-01T15:08:09Z</time></trkpt><trkpt lat="45.89082198426303" lon="12.417105357093414"><ele>29.5</ele><time>2026-05-01T15:08:10Z</time></trkpt><trkpt lat="45.89082840660703" lon="12.417606778328638"><ele>29.0</ele><time>2026-05-01T15:08:11Z</time></trkpt><trkpt lat="45.890837492129" lon="12.418103040255364"><ele>29.0</ele><time>2026-05-01T15:08:12Z</time></trkpt><trkpt lat="45.89084622347429" lon="12.418597567509437"><ele>29.0</ele><time>2026-05-01T15:08:13Z</time></trkpt><trkpt lat="45.89085550819637" lon="12.419091464529709"><ele>28.5</ele><time>2026-05-01T15:08:14Z</time></trkpt><trkpt lat="45.89086646271652" lon="12.419584537187587"><ele>28.0</ele><time>2026-05-01T15:08:15Z</time></trkpt><trkpt lat="45.89087771492866" lon="12.420075600472751"><ele>27.5</ele><time>2026-05-01T15:08:16Z</time></trkpt><trkpt lat="45.890890299741855" lon="12.420567977749654"><ele>27.0</ele><time>2026-05-01T15:08:17Z</time></trkpt><trkpt lat="45.89090484035372" lon="12.421059051573451"><ele>27.5</ele><time>2026-05-01T15:08:18Z</time></trkpt><trkpt lat="45.89092137917353" lon="12.421548951108308"><ele>28.0</ele><time>2026-05-01T15:08:19Z</time></trkpt><trkpt lat="45.89094198231349" lon="12.422037685644563"><ele>28.0</ele><time>2026-05-01T15:08:20Z</time></trkpt><trkpt lat="45.890964543956095" lon="12.422525475438388"><ele>28.0</ele><time>2026-05-01T15:08:21Z</time></trkpt><trkpt lat="45.890990247965924" lon="12.423005929597016"><ele>28.0</ele><time>2026-05-01T15:08:22Z</time></trkpt><trkpt lat="45.89101747134901" lon="12.423483580287511"><ele>28.0</ele><time>2026-05-01T15:08:23Z</time></trkpt><trkpt lat="45.89104668139378" lon="12.423959206774873"><ele>28.5</ele><time>2026-05-01T15:08:24Z</time></trkpt><trkpt lat="45.891078989075254" lon="12.424432830498327"><ele>29.0</ele><time>2026-05-01T15:08:25Z</time></trkpt><trkpt lat="45.891114508852255" lon="12.42490279218748"><ele>28.0</ele><time>2026-05-01T15:08:26Z</time></trkpt><trkpt lat="45.89115442425098" lon="12.425370691962229"><ele>27.0</ele><time>2026-05-01T15:08:27Z</time></trkpt><trkpt lat="45.89119764372152" lon="12.425836883205966"><ele>27.0</ele><time>2026-05-01T15:08:28Z</time></trkpt><trkpt lat="45.891244967794016" lon="12.426305543276618"><ele>27.0</ele><time>2026-05-01T15:08:29Z</time></trkpt><trkpt lat="45.891296243529496" lon="12.426777363909087"><ele>28.0</ele><time>2026-05-01T15:08:30Z</time></trkpt><trkpt lat="45.89135059750907" lon="12.427250313830601"><ele>29.0</ele><time>2026-05-01T15:08:31Z</time></trkpt><trkpt lat="45.89141111532377" lon="12.427722221131878"><ele>28.0</ele><time>2026-05-01T15:08:32Z</time></trkpt><trkpt lat="45.89147757870207" lon="12.428195237909373"><ele>27.0</ele><time>2026-05-01T15:08:33Z</time></trkpt><trkpt lat="45.89154936604626" lon="12.428668562421189"><ele>27.0</ele><time>2026-05-01T15:08:34Z</time></trkpt><trkpt lat="45.89162838316674" lon="12.429145871869329"><ele>27.0</ele><time>2026-05-01T15:08:35Z</time></trkpt><trkpt lat="45.89171386338562" lon="12.429621168396245"><ele>27.0</ele><time>2026-05-01T15:08:36Z</time></trkpt><trkpt lat="45.891804322378036" lon="12.430094047508016"><ele>27.0</ele><time>2026-05-01T15:08:37Z</time></trkpt><trkpt lat="45.89190135725893" lon="12.430567326940519"><ele>27.0</ele><time>2026-05-01T15:08:38Z</time></trkpt><trkpt lat="45.89200415278741" lon="12.431035020283115"><ele>27.0</ele><time>2026-05-01T15:08:39Z</time></trkpt><trkpt lat="45.89211263282838" lon="12.431499627049599"><ele>26.5</ele><time>2026-05-01T15:08:40Z</time></trkpt><trkpt lat="45.89222753370761" lon="12.431961698718153"><ele>26.0</ele><time>2026-05-01T15:08:41Z</time></trkpt><trkpt lat="45.892349754285284" lon="12.432425190177147"><ele>26.0</ele><time>2026-05-01T15:08:42Z</time></trkpt><trkpt lat="45.89248104979801" lon="12.432884866086546"><ele>26.0</ele><time>2026-05-01T15:08:43Z</time></trkpt><trkpt lat="45.892620074498794" lon="12.433340366578712"><ele>26.0</ele><time>2026-05-01T15:08:44Z</time></trkpt><trkpt lat="45.89276606603457" lon="12.4337859301414"><ele>26.0</ele><time>2026-05-01T15:08:45Z</time></trkpt><trkpt lat="45.89291908611574" lon="12.434227897006032"><ele>26.0</ele><time>2026-05-01T15:08:46Z</time></trkpt><trkpt lat="45.893075978994375" lon="12.434665282502047"><ele>26.0</ele><time>2026-05-01T15:08:47Z</time></trkpt><trkpt lat="45.893240792600274" lon="12.435094567299007"><ele>25.0</ele><time>2026-05-01T15:08:48Z</time></trkpt><trkpt lat="45.89341494144336" lon="12.435516271836713"><ele>24.0</ele><time>2026-05-01T15:08:49Z</time></trkpt><trkpt lat="45.89359486537733" lon="12.435929512660762"><ele>23.5</ele><time>2026-05-01T15:08:50Z</time></trkpt><trkpt lat="45.89378053761333" lon="12.436334593727828"><ele>23.0</ele><time>2026-05-01T15:08:51Z</time></trkpt><trkpt lat="45.89397187692183" lon="12.436735004909982"><ele>23.0</ele><time>2026-05-01T15:08:52Z</time></trkpt><trkpt lat="45.894168562553624" lon="12.437131896161159"><ele>23.0</ele><time>2026-05-01T15:08:53Z</time></trkpt><trkpt lat="45.89437235013557" lon="12.43752326604616"><ele>24.5</ele><time>2026-05-01T15:08:54Z</time></trkpt><trkpt lat="45.894582916057956" lon="12.437902255255565"><ele>26.0</ele><time>2026-05-01T15:08:55Z</time></trkpt><trkpt lat="45.89479678756773" lon="12.438270272456835"><ele>26.0</ele><time>2026-05-01T15:08:56Z</time></trkpt><trkpt lat="45.89501378163244" lon="12.438623926208393"><ele>26.0</ele><time>2026-05-01T15:08:57Z</time></trkpt><trkpt lat="45.89523702355275" lon="12.438974879005414"><ele>26.0</ele><time>2026-05-01T15:08:58Z</time></trkpt><trkpt lat="45.895463929547255" lon="12.439320633240408"><ele>26.0</ele><time>2026-05-01T15:08:59Z</time></trkpt><trkpt lat="45.895694713723046" lon="12.439655715338663"><ele>26.5</ele><time>2026-05-01T15:09:00Z</time></trkpt><trkpt lat="45.89592867377496" lon="12.43998106058205"><ele>27.0</ele><time>2026-05-01T15:09:01Z</time></trkpt><trkpt lat="45.896167868621745" lon="12.440298648305667"><ele>28.0</ele><time>2026-05-01T15:09:02Z</time></trkpt><trkpt lat="45.89640949200197" lon="12.440610960254576"><ele>29.0</ele><time>2026-05-01T15:09:02.999Z</time></trkpt><trkpt lat="45.89665519366271" lon="12.440913906654457"><ele>27.0</ele><time>2026-05-01T15:09:03.999Z</time></trkpt><trkpt lat="45.896903309994514" lon="12.441212056526346"><ele>25.0</ele><time>2026-05-01T15:09:04.999Z</time></trkpt><trkpt lat="45.89715529180765" lon="12.44150719014856"><ele>25.0</ele><time>2026-05-01T15:09:05.999Z</time></trkpt><trkpt lat="45.89741081708807" lon="12.441794424189801"><ele>25.0</ele><time>2026-05-01T15:09:06.999Z</time></trkpt><trkpt lat="45.897667505528744" lon="12.442072211759099"><ele>25.5</ele><time>2026-05-01T15:09:07.999Z</time></trkpt><trkpt lat="45.89792789491556" lon="12.442344301442903"><ele>26.0</ele><time>2026-05-01T15:09:08.999Z</time></trkpt><trkpt lat="45.8981931422238" lon="12.442612615811958"><ele>26.5</ele><time>2026-05-01T15:09:09.999Z</time></trkpt><trkpt lat="45.898461408486355" lon="12.442881878077923"><ele>27.0</ele><time>2026-05-01T15:09:10.999Z</time></trkpt><trkpt lat="45.898733522328264" lon="12.443148458269848"><ele>27.0</ele><time>2026-05-01T15:09:11.999Z</time></trkpt><trkpt lat="45.89900970628391" lon="12.44340974274674"><ele>27.0</ele><time>2026-05-01T15:09:12.999Z</time></trkpt><trkpt lat="45.89928878311092" lon="12.443666188800863"><ele>28.0</ele><time>2026-05-01T15:09:13.999Z</time></trkpt><trkpt lat="45.899571932959546" lon="12.44391692454097"><ele>29.0</ele><time>2026-05-01T15:09:14.999Z</time></trkpt><trkpt lat="45.89985947952527" lon="12.444162229782762"><ele>28.5</ele><time>2026-05-01T15:09:15.999Z</time></trkpt><trkpt lat="45.90014858448758" lon="12.444406315293428"><ele>28.0</ele><time>2026-05-01T15:09:16.999Z</time></trkpt><trkpt lat="45.900441473016365" lon="12.444647817741016"><ele>28.0</ele><time>2026-05-01T15:09:17.999Z</time></trkpt><trkpt lat="45.900738265032196" lon="12.444886496112778"><ele>28.0</ele><time>2026-05-01T15:09:18.999Z</time></trkpt><trkpt lat="45.90103819160091" lon="12.445123393446252"><ele>28.0</ele><time>2026-05-01T15:09:19.999Z</time></trkpt><trkpt lat="45.90134002829065" lon="12.445361177463361"><ele>28.0</ele><time>2026-05-01T15:09:20.999Z</time></trkpt><trkpt lat="45.90164639412507" lon="12.44559918199688"><ele>28.0</ele><time>2026-05-01T15:09:21.999Z</time></trkpt><trkpt lat="45.90195397398072" lon="12.445831988176455"><ele>28.0</ele><time>2026-05-01T15:09:22.999Z</time></trkpt><trkpt lat="45.90226244289037" lon="12.446059019292031"><ele>28.0</ele><time>2026-05-01T15:09:23.999Z</time></trkpt><trkpt lat="45.90257176056164" lon="12.446285218367152"><ele>28.0</ele><time>2026-05-01T15:09:24.999Z</time></trkpt><trkpt lat="45.90288340175868" lon="12.446510113774812"><ele>27.0</ele><time>2026-05-01T15:09:25.999Z</time></trkpt><trkpt lat="45.90319552288213" lon="12.446734379447323"><ele>26.0</ele><time>2026-05-01T15:09:26.999Z</time></trkpt><trkpt lat="45.90350460171154" lon="12.446956283742312"><ele>26.0</ele><time>2026-05-01T15:09:27.999Z</time></trkpt><trkpt lat="45.90380840560314" lon="12.447173466545642"><ele>26.0</ele><time>2026-05-01T15:09:28.999Z</time></trkpt><trkpt lat="45.9041086032443" lon="12.447385000262075"><ele>26.0</ele><time>2026-05-01T15:09:29.999Z</time></trkpt><trkpt lat="45.90440597234419" lon="12.447590407054989"><ele>26.0</ele><time>2026-05-01T15:09:30.999Z</time></trkpt><trkpt lat="45.90469993030454" lon="12.447794817406303"><ele>26.0</ele><time>2026-05-01T15:09:31.999Z</time></trkpt><trkpt lat="45.904991266895635" lon="12.447997093431605"><ele>26.0</ele><time>2026-05-01T15:09:32.999Z</time></trkpt><trkpt lat="45.905283332414605" lon="12.448199305603241"><ele>26.0</ele><time>2026-05-01T15:09:33.999Z</time></trkpt><trkpt lat="45.90557388166007" lon="12.448404878842167"><ele>26.0</ele><time>2026-05-01T15:09:34.999Z</time></trkpt><trkpt lat="45.90586348273502" lon="12.448607639130067"><ele>25.5</ele><time>2026-05-01T15:09:35.999Z</time></trkpt><trkpt lat="45.906156673850646" lon="12.448808866088594"><ele>25.0</ele><time>2026-05-01T15:09:36.999Z</time></trkpt><trkpt lat="45.906449546355724" lon="12.449010812892926"><ele>25.0</ele><time>2026-05-01T15:09:37.999Z</time></trkpt><trkpt lat="45.90674300732876" lon="12.449216972214407"><ele>25.0</ele><time>2026-05-01T15:09:38.999Z</time></trkpt><trkpt lat="45.90703654518015" lon="12.449428659765623"><ele>25.5</ele><time>2026-05-01T15:09:39.999Z</time></trkpt><trkpt lat="45.90733030820977" lon="12.449643611440354"><ele>26.0</ele><time>2026-05-01T15:09:40.999Z</time></trkpt><trkpt lat="45.90762484873715" lon="12.449861713967275"><ele>26.0</ele><time>2026-05-01T15:09:41.999Z</time></trkpt><trkpt lat="45.907919643245734" lon="12.450083809909588"><ele>26.0</ele><time>2026-05-01T15:09:42.999Z</time></trkpt><trkpt lat="45.90821489900791" lon="12.45030944040407"><ele>25.0</ele><time>2026-05-01T15:09:43.999Z</time></trkpt><trkpt lat="45.908510721176704" lon="12.450536588833188"><ele>24.0</ele><time>2026-05-01T15:09:44.999Z</time></trkpt><trkpt lat="45.908805759083805" lon="12.450769593350582"><ele>24.0</ele><time>2026-05-01T15:09:45.999Z</time></trkpt><trkpt lat="45.90910174784629" lon="12.451009190449547"><ele>24.0</ele><time>2026-05-01T15:09:46.999Z</time></trkpt><trkpt lat="45.90939653980584" lon="12.451254455754833"><ele>26.0</ele><time>2026-05-01T15:09:47.999Z</time></trkpt><trkpt lat="45.90969142574797" lon="12.451505417890228"><ele>28.0</ele><time>2026-05-01T15:09:48.999Z</time></trkpt><trkpt lat="45.909981695524344" lon="12.451760681244831"><ele>28.0</ele><time>2026-05-01T15:09:49.999Z</time></trkpt><trkpt lat="45.910267442562144" lon="12.452022599843735"><ele>28.0</ele><time>2026-05-01T15:09:50.999Z</time></trkpt><trkpt lat="45.91055147584238" lon="12.452292078431059"><ele>28.0</ele><time>2026-05-01T15:09:51.999Z</time></trkpt><trkpt lat="45.91083582708441" lon="12.452574679344451"><ele>28.0</ele><time>2026-05-01T15:09:52.999Z</time></trkpt><trkpt lat="45.911115698337106" lon="12.452867063424403"><ele>28.0</ele><time>2026-05-01T15:09:53.999Z</time></trkpt><trkpt lat="45.911389576231485" lon="12.453165561412872"><ele>28.0</ele><time>2026-05-01T15:09:54.999Z</time></trkpt><trkpt lat="45.91166071134126" lon="12.453469048224195"><ele>27.5</ele><time>2026-05-01T15:09:55.999Z</time></trkpt><trkpt lat="45.91192809585252" lon="12.45377958162943"><ele>27.0</ele><time>2026-05-01T15:09:56.999Z</time></trkpt><trkpt lat="45.91219305141122" lon="12.454097279390554"><ele>27.0</ele><time>2026-05-01T15:09:57.999Z</time></trkpt><trkpt lat="45.912455438232236" lon="12.454423253451624"><ele>27.0</ele><time>2026-05-01T15:09:58.999Z</time></trkpt><trkpt lat="45.912714762106546" lon="12.45475585119612"><ele>26.5</ele><time>2026-05-01T15:10:00Z</time></trkpt><trkpt lat="45.91296792970851" lon="12.455096470489575"><ele>26.0</ele><time>2026-05-01T15:10:01Z</time></trkpt><trkpt lat="45.91321835745776" lon="12.455447576493938"><ele>25.0</ele><time>2026-05-01T15:10:02Z</time></trkpt><trkpt lat="45.913463931586435" lon="12.455804146042283"><ele>24.0</ele><time>2026-05-01T15:10:03Z</time></trkpt><trkpt lat="45.91370322446803" lon="12.456171797833479"><ele>24.5</ele><time>2026-05-01T15:10:04Z</time></trkpt><trkpt lat="45.91393804707033" lon="12.456548092175337"><ele>25.0</ele><time>2026-05-01T15:10:05Z</time></trkpt><trkpt lat="45.91416424176034" lon="12.456930848652444"><ele>25.0</ele><time>2026-05-01T15:10:06Z</time></trkpt><trkpt lat="45.91438630670533" lon="12.457317700240116"><ele>25.0</ele><time>2026-05-01T15:10:07Z</time></trkpt><trkpt lat="45.91460202087018" lon="12.457712519121838"><ele>26.0</ele><time>2026-05-01T15:10:08Z</time></trkpt><trkpt lat="45.914815801395264" lon="12.458109311744309"><ele>27.0</ele><time>2026-05-01T15:10:09Z</time></trkpt><trkpt lat="45.915025325552584" lon="12.458511370894582"><ele>26.5</ele><time>2026-05-01T15:10:10Z</time></trkpt><trkpt lat="45.91523053466037" lon="12.458917511839662"><ele>26.0</ele><time>2026-05-01T15:10:11Z</time></trkpt><trkpt lat="45.91542853024213" lon="12.459328701676927"><ele>26.5</ele><time>2026-05-01T15:10:12Z</time></trkpt><trkpt lat="45.915621514388555" lon="12.459745529179504"><ele>27.0</ele><time>2026-05-01T15:10:13Z</time></trkpt><trkpt lat="45.91580619345771" lon="12.460167976194656"><ele>26.0</ele><time>2026-05-01T15:10:14Z</time></trkpt><trkpt lat="45.91598330920254" lon="12.460596592255728"><ele>25.0</ele><time>2026-05-01T15:10:15Z</time></trkpt><trkpt lat="45.9161522700587" lon="12.4610284931986"><ele>24.0</ele><time>2026-05-01T15:10:16Z</time></trkpt><trkpt lat="45.91631449386582" lon="12.46146340693093"><ele>23.0</ele><time>2026-05-01T15:10:17Z</time></trkpt><trkpt lat="45.916470044415505" lon="12.461900628614604"><ele>23.0</ele><time>2026-05-01T15:10:18Z</time></trkpt><trkpt lat="45.916623909093076" lon="12.462336209720815"><ele>23.0</ele><time>2026-05-01T15:10:19Z</time></trkpt><trkpt lat="45.91677473772807" lon="12.46277546296525"><ele>23.0</ele><time>2026-05-01T15:10:20Z</time></trkpt><trkpt lat="45.91691854818365" lon="12.463212790150306"><ele>23.0</ele><time>2026-05-01T15:10:21Z</time></trkpt><trkpt lat="45.917053952970946" lon="12.46365266271587"><ele>23.5</ele><time>2026-05-01T15:10:22Z</time></trkpt><trkpt lat="45.91718119210443" lon="12.464089397721027"><ele>24.0</ele><time>2026-05-01T15:10:23Z</time></trkpt><trkpt lat="45.91730589113542" lon="12.46452473781567"><ele>24.5</ele><time>2026-05-01T15:10:24Z</time></trkpt><trkpt lat="45.91742566871349" lon="12.464958228355261"><ele>25.0</ele><time>2026-05-01T15:10:25Z</time></trkpt><trkpt lat="45.9175399857904" lon="12.465392062332123"><ele>24.5</ele><time>2026-05-01T15:10:26Z</time></trkpt><trkpt lat="45.91765228659109" lon="12.465828870338878"><ele>24.0</ele><time>2026-05-01T15:10:27Z</time></trkpt><trkpt lat="45.91776261996065" lon="12.466267805582854"><ele>24.5</ele><time>2026-05-01T15:10:28Z</time></trkpt><trkpt lat="45.91787111136925" lon="12.466707625192294"><ele>25.0</ele><time>2026-05-01T15:10:29Z</time></trkpt><trkpt lat="45.917977786422036" lon="12.467147356548333"><ele>25.0</ele><time>2026-05-01T15:10:30Z</time></trkpt><trkpt lat="45.91808333193208" lon="12.467586419043855"><ele>25.0</ele><time>2026-05-01T15:10:31Z</time></trkpt><trkpt lat="45.91818669192177" lon="12.468020745124239"><ele>24.5</ele><time>2026-05-01T15:10:32Z</time></trkpt><trkpt lat="45.918288360283434" lon="12.468452293574147"><ele>24.0</ele><time>2026-05-01T15:10:33Z</time></trkpt><trkpt lat="45.91839079321219" lon="12.46888234376366"><ele>24.0</ele><time>2026-05-01T15:10:34Z</time></trkpt><trkpt lat="45.9184911691506" lon="12.469309545388557"><ele>24.0</ele><time>2026-05-01T15:10:35Z</time></trkpt><trkpt lat="45.918590643891655" lon="12.469736396562727"><ele>24.0</ele><time>2026-05-01T15:10:36Z</time></trkpt><trkpt lat="45.918689489933286" lon="12.470159971910633"><ele>24.0</ele><time>2026-05-01T15:10:37Z</time></trkpt><trkpt lat="45.91878904441631" lon="12.470580993906506"><ele>23.5</ele><time>2026-05-01T15:10:38Z</time></trkpt><trkpt lat="45.918890568742675" lon="12.471002501727789"><ele>23.0</ele><time>2026-05-01T15:10:39Z</time></trkpt><trkpt lat="45.91898752107559" lon="12.471411362770365"><ele>23.0</ele><time>2026-05-01T15:10:40Z</time></trkpt><trkpt lat="45.91908167453815" lon="12.471799805089328"><ele>23.0</ele><time>2026-05-01T15:10:41Z</time></trkpt><trkpt lat="45.919175283589446" lon="12.472180534316907"><ele>23.0</ele><time>2026-05-01T15:10:42Z</time></trkpt><trkpt lat="45.91926426329335" lon="12.472546715209322"><ele>23.0</ele><time>2026-05-01T15:10:43Z</time></trkpt><trkpt lat="45.9193525249872" lon="12.472903246140989"><ele>24.0</ele><time>2026-05-01T15:10:44Z</time></trkpt><trkpt lat="45.919444632119" lon="12.47324534079869"><ele>25.0</ele><time>2026-05-01T15:10:45Z</time></trkpt><trkpt lat="45.919541180582335" lon="12.473580843347953"><ele>25.0</ele><time>2026-05-01T15:10:46Z</time></trkpt><trkpt lat="45.91963846366281" lon="12.473913373055328"><ele>25.0</ele><time>2026-05-01T15:10:47Z</time></trkpt><trkpt lat="45.919732270152736" lon="12.474246983527287"><ele>25.0</ele><time>2026-05-01T15:10:48Z</time></trkpt><trkpt lat="45.91982106288267" lon="12.474582051814542"><ele>25.0</ele><time>2026-05-01T15:10:49Z</time></trkpt><trkpt lat="45.91990843348222" lon="12.47491903226426"><ele>24.5</ele><time>2026-05-01T15:10:50Z</time></trkpt><trkpt lat="45.919992922690184" lon="12.475257287973399"><ele>24.0</ele><time>2026-05-01T15:10:51Z</time></trkpt><trkpt lat="45.92007664091974" lon="12.47559466940165"><ele>25.0</ele><time>2026-05-01T15:10:52Z</time></trkpt><trkpt lat="45.92015879113842" lon="12.475906574920165"><ele>26.0</ele><time>2026-05-01T15:10:53Z</time></trkpt><trkpt lat="45.92024070645281" lon="12.476201381063232"><ele>25.333333333333332</ele><time>2026-05-01T15:10:54Z</time></trkpt><trkpt lat="45.9203203979454" lon="12.476476198222308"><ele>24.666666666666664</ele><time>2026-05-01T15:10:55Z</time></trkpt><trkpt lat="45.92039632056312" lon="12.476728770101285"><ele>24.0</ele><time>2026-05-01T15:10:56Z</time></trkpt><trkpt lat="45.920469735257" lon="12.476970730238461"><ele>24.0</ele><time>2026-05-01T15:10:57Z</time></trkpt><trkpt lat="45.92053760858125" lon="12.477196948543162"><ele>24.0</ele><time>2026-05-01T15:10:58Z</time></trkpt><trkpt lat="45.92060247732333" lon="12.47740987047228"><ele>24.0</ele><time>2026-05-01T15:10:59Z</time></trkpt><trkpt lat="45.92066408351453" lon="12.477611520798915"><ele>24.0</ele><time>2026-05-01T15:11:00Z</time></trkpt><trkpt lat="45.92071791840055" lon="12.477797275484019"><ele>24.0</ele><time>2026-05-01T15:11:01Z</time></trkpt><trkpt lat="45.92076812738218" lon="12.477968147422379"><ele>24.0</ele><time>2026-05-01T15:11:02Z</time></trkpt><trkpt lat="45.920814008526264" lon="12.478130292374097"><ele>24.0</ele><time>2026-05-01T15:11:03Z</time></trkpt><trkpt lat="45.92084882499482" lon="12.478260338712374"><ele>23.799999999999997</ele><time>2026-05-01T15:11:04Z</time></trkpt><trkpt lat="45.920880739401575" lon="12.478366513856566"><ele>23.599999999999998</ele><time>2026-05-01T15:11:05Z</time></trkpt><trkpt lat="45.92092713954474" lon="12.478491634469156"><ele>23.4</ele><time>2026-05-01T15:11:06.999Z</time></trkpt><trkpt lat="45.921008042907154" lon="12.478605304264919"><ele>23.2</ele><time>2026-05-01T15:11:09.999Z</time></trkpt><trkpt lat="45.92104505419713" lon="12.478681327925004"><ele>23.0</ele><time>2026-05-01T15:11:10.999Z</time></trkpt><trkpt lat="45.92109023000006" lon="12.478824245117478"><ele>23.0</ele><time>2026-05-01T15:11:12.999Z</time></trkpt><trkpt lat="45.92111929034528" lon="12.47890983256176"><ele>23.0</ele><time>2026-05-01T15:11:15.999Z</time></trkpt><trkpt lat="45.9211169901497" lon="12.47900660185948"><ele>23.0</ele><time>2026-05-01T15:12:01.999Z</time></trkpt><trkpt lat="45.92115186995817" lon="12.4791160163138"><ele>23.0</ele><time>2026-05-01T15:12:14Z</time></trkpt><trkpt lat="45.921185392351994" lon="12.479213546521766"><ele>23.0</ele><time>2026-05-01T15:12:17Z</time></trkpt><trkpt lat="45.92122444671141" lon="12.479318301553354"><ele>23.0</ele><time>2026-05-01T15:12:21Z</time></trkpt><trkpt lat="45.92126668355869" lon="12.479426329377858"><ele>23.0</ele><time>2026-05-01T15:12:23Z</time></trkpt><trkpt lat="45.92131775315761" lon="12.479539487570282"><ele>23.0</ele><time>2026-05-01T15:12:25Z</time></trkpt><trkpt lat="45.92136787937475" lon="12.47967201528516"><ele>23.0</ele><time>2026-05-01T15:12:27Z</time></trkpt><trkpt lat="45.92139287634455" lon="12.479758475296405"><ele>23.0</ele><time>2026-05-01T15:12:28Z</time></trkpt><trkpt lat="45.92142586167074" lon="12.479852780929244"><ele>23.0</ele><time>2026-05-01T15:12:29Z</time></trkpt><trkpt lat="45.92145739595015" lon="12.479945756339209"><ele>23.0</ele><time>2026-05-01T15:12:30Z</time></trkpt><trkpt lat="45.921490086693034" lon="12.48004292280092"><ele>23.0</ele><time>2026-05-01T15:12:31Z</time></trkpt><trkpt lat="45.92151904031748" lon="12.480143522441788"><ele>23.0</ele><time>2026-05-01T15:12:32Z</time></trkpt><trkpt lat="45.92155583852022" lon="12.48024774805754"><ele>23.0</ele><time>2026-05-01T15:12:33Z</time></trkpt><trkpt lat="45.921596901599756" lon="12.480356455389053"><ele>23.0</ele><time>2026-05-01T15:12:34Z</time></trkpt><trkpt lat="45.92164256365509" lon="12.480468573104998"><ele>23.0</ele><time>2026-05-01T15:12:35Z</time></trkpt><trkpt lat="45.92169229052503" lon="12.480602862815624"><ele>23.0</ele><time>2026-05-01T15:12:36Z</time></trkpt><trkpt lat="45.92176192255026" lon="12.48079171966804"><ele>22.5</ele><time>2026-05-01T15:12:37Z</time></trkpt><trkpt lat="45.921868461039274" lon="12.481074193564773"><ele>22.0</ele><time>2026-05-01T15:12:38Z</time></trkpt><trkpt lat="45.92200329984962" lon="12.481426572973488"><ele>22.0</ele><time>2026-05-01T15:12:39Z</time></trkpt><trkpt lat="45.92214966978073" lon="12.481838169459362"><ele>22.0</ele><time>2026-05-01T15:12:40Z</time></trkpt><trkpt lat="45.9222745967177" lon="12.482167323320827"><ele>22.666666666666664</ele><time>2026-05-01T15:12:41Z</time></trkpt><trkpt lat="45.922385213869184" lon="12.482446679366191"><ele>23.333333333333332</ele><time>2026-05-01T15:12:42Z</time></trkpt><trkpt lat="45.922494005892304" lon="12.482729306288045"><ele>24.0</ele><time>2026-05-01T15:12:43Z</time></trkpt><trkpt lat="45.922612576247786" lon="12.483032990098982"><ele>25.0</ele><time>2026-05-01T15:12:44Z</time></trkpt><trkpt lat="45.92273402008498" lon="12.483350736900277"><ele>26.0</ele><time>2026-05-01T15:12:45Z</time></trkpt><trkpt lat="45.92285883612751" lon="12.48368081542966"><ele>29.5</ele><time>2026-05-01T15:12:46Z</time></trkpt><trkpt lat="45.922988550066705" lon="12.484019689264462"><ele>33.0</ele><time>2026-05-01T15:12:47Z</time></trkpt><trkpt lat="45.92312315516215" lon="12.484367556011097"><ele>30.5</ele><time>2026-05-01T15:12:48Z</time></trkpt><trkpt lat="45.92325489228692" lon="12.484714406761265"><ele>28.0</ele><time>2026-05-01T15:12:49Z</time></trkpt><trkpt lat="45.923389098078665" lon="12.485066764478143"><ele>28.0</ele><time>2026-05-01T15:12:50Z</time></trkpt><trkpt lat="45.923528080817775" lon="12.48542836872399"><ele>28.0</ele><time>2026-05-01T15:12:51Z</time></trkpt><trkpt lat="45.923662038684704" lon="12.48578894810478"><ele>28.0</ele><time>2026-05-01T15:12:52Z</time></trkpt><trkpt lat="45.92379568652578" lon="12.4861492029374"><ele>28.0</ele><time>2026-05-01T15:12:53Z</time></trkpt><trkpt lat="45.92393168381562" lon="12.486509486778724"><ele>25.0</ele><time>2026-05-01T15:12:54Z</time></trkpt><trkpt lat="45.924068941294884" lon="12.486866720271896"><ele>22.0</ele><time>2026-05-01T15:12:55Z</time></trkpt><trkpt lat="45.92420889302951" lon="12.487235313910183"><ele>22.0</ele><time>2026-05-01T15:12:56Z</time></trkpt><trkpt lat="45.92435334675528" lon="12.487626602552444"><ele>22.0</ele><time>2026-05-01T15:12:57Z</time></trkpt><trkpt lat="45.92450448048047" lon="12.488040530616857"><ele>22.0</ele><time>2026-05-01T15:12:58Z</time></trkpt><trkpt lat="45.92465705528267" lon="12.488470709756973"><ele>22.0</ele><time>2026-05-01T15:12:59Z</time></trkpt><trkpt lat="45.924808817620665" lon="12.488913272416292"><ele>22.0</ele><time>2026-05-01T15:13:00Z</time></trkpt><trkpt lat="45.92495799508845" lon="12.489359644633836"><ele>22.0</ele><time>2026-05-01T15:13:01Z</time></trkpt><trkpt lat="45.92510358621229" lon="12.489805190598931"><ele>22.0</ele><time>2026-05-01T15:13:02Z</time></trkpt><trkpt lat="45.92524690657829" lon="12.490247356018022"><ele>22.0</ele><time>2026-05-01T15:13:03Z</time></trkpt><trkpt lat="45.92538614064767" lon="12.490689067000643"><ele>22.0</ele><time>2026-05-01T15:13:04Z</time></trkpt><trkpt lat="45.925517491550366" lon="12.491130445306421"><ele>22.0</ele><time>2026-05-01T15:13:05Z</time></trkpt><trkpt lat="45.9256429396547" lon="12.491565629281105"><ele>22.5</ele><time>2026-05-01T15:13:06Z</time></trkpt><trkpt lat="45.92576731182557" lon="12.49199769434178"><ele>23.0</ele><time>2026-05-01T15:13:07Z</time></trkpt><trkpt lat="45.92589139608435" lon="12.49242882379456"><ele>22.5</ele><time>2026-05-01T15:13:08Z</time></trkpt><trkpt lat="45.92601227839951" lon="12.492863268561054"><ele>22.0</ele><time>2026-05-01T15:13:09Z</time></trkpt><trkpt lat="45.92612772276991" lon="12.493307014385675"><ele>21.5</ele><time>2026-05-01T15:13:10Z</time></trkpt><trkpt lat="45.92623652063815" lon="12.49375867868825"><ele>21.0</ele><time>2026-05-01T15:13:11Z</time></trkpt><trkpt lat="45.92633741948916" lon="12.494211306698997"><ele>22.0</ele><time>2026-05-01T15:13:12Z</time></trkpt><trkpt lat="45.92643237429432" lon="12.494664539225363"><ele>23.0</ele><time>2026-05-01T15:13:12.999Z</time></trkpt><trkpt lat="45.926523630861084" lon="12.495117140568667"><ele>23.0</ele><time>2026-05-01T15:13:13.999Z</time></trkpt><trkpt lat="45.926609149013515" lon="12.495573225217937"><ele>23.0</ele><time>2026-05-01T15:13:14.999Z</time></trkpt><trkpt lat="45.926690286023934" lon="12.496021891673712"><ele>22.0</ele><time>2026-05-01T15:13:15.999Z</time></trkpt><trkpt lat="45.92676542147732" lon="12.496462907445533"><ele>21.0</ele><time>2026-05-01T15:13:16.999Z</time></trkpt><trkpt lat="45.926837147666426" lon="12.496904581485307"><ele>20.5</ele><time>2026-05-01T15:13:17.999Z</time></trkpt><trkpt lat="45.9269036333259" lon="12.497348834420212"><ele>20.0</ele><time>2026-05-01T15:13:18.999Z</time></trkpt><trkpt lat="45.926964751969585" lon="12.497793360146058"><ele>19.0</ele><time>2026-05-01T15:13:19.999Z</time></trkpt><trkpt lat="45.92702061363426" lon="12.498232278488297"><ele>18.0</ele><time>2026-05-01T15:13:20.999Z</time></trkpt><trkpt lat="45.92707314594814" lon="12.498670664412105"><ele>17.5</ele><time>2026-05-01T15:13:21.999Z</time></trkpt><trkpt lat="45.92712344809434" lon="12.4991065376588"><ele>17.0</ele><time>2026-05-01T15:13:22.999Z</time></trkpt><trkpt lat="45.92717026638836" lon="12.499543982144319"><ele>17.0</ele><time>2026-05-01T15:13:23.999Z</time></trkpt><trkpt lat="45.92721528886787" lon="12.499984869442617"><ele>17.0</ele><time>2026-05-01T15:13:24.999Z</time></trkpt><trkpt lat="45.92725683512891" lon="12.500427500928389"><ele>17.0</ele><time>2026-05-01T15:13:25.999Z</time></trkpt><trkpt lat="45.92729554574332" lon="12.500873916005977"><ele>17.0</ele><time>2026-05-01T15:13:26.999Z</time></trkpt><trkpt lat="45.92733289970972" lon="12.501319259041626"><ele>17.0</ele><time>2026-05-01T15:13:27.999Z</time></trkpt><trkpt lat="45.92736937160178" lon="12.501764351584159"><ele>17.0</ele><time>2026-05-01T15:13:28.999Z</time></trkpt><trkpt lat="45.92740582663949" lon="12.50220835599287"><ele>17.0</ele><time>2026-05-01T15:13:29.999Z</time></trkpt><trkpt lat="45.927443656889245" lon="12.50265569304488"><ele>17.0</ele><time>2026-05-01T15:13:30.999Z</time></trkpt><trkpt lat="45.9274785563815" lon="12.503103031669013"><ele>18.0</ele><time>2026-05-01T15:13:31.999Z</time></trkpt><trkpt lat="45.92751493558646" lon="12.503553961832068"><ele>19.0</ele><time>2026-05-01T15:13:32.999Z</time></trkpt><trkpt lat="45.927550511555076" lon="12.504005962473409"><ele>18.5</ele><time>2026-05-01T15:13:33.999Z</time></trkpt><trkpt lat="45.92758701444681" lon="12.504457292894308"><ele>18.0</ele><time>2026-05-01T15:13:34.999Z</time></trkpt><trkpt lat="45.927622735289" lon="12.504906706157792"><ele>18.0</ele><time>2026-05-01T15:13:35.999Z</time></trkpt><trkpt lat="45.92765778467219" lon="12.505358115211637"><ele>18.0</ele><time>2026-05-01T15:13:36.999Z</time></trkpt><trkpt lat="45.92769396021943" lon="12.50581114050208"><ele>17.5</ele><time>2026-05-01T15:13:37.999Z</time></trkpt><trkpt lat="45.92773008017196" lon="12.506264002840124"><ele>17.0</ele><time>2026-05-01T15:13:38.999Z</time></trkpt><trkpt lat="45.92776468244243" lon="12.506716728715606"><ele>16.5</ele><time>2026-05-01T15:13:39.999Z</time></trkpt><trkpt lat="45.92779934475267" lon="12.507166276708773"><ele>16.0</ele><time>2026-05-01T15:13:40.999Z</time></trkpt><trkpt lat="45.927835626783875" lon="12.50761367195523"><ele>17.0</ele><time>2026-05-01T15:13:41.999Z</time></trkpt><trkpt lat="45.92787418990566" lon="12.508057726578743"><ele>18.0</ele><time>2026-05-01T15:13:42.999Z</time></trkpt><trkpt lat="45.92791664802062" lon="12.508503218020758"><ele>18.0</ele><time>2026-05-01T15:13:43.999Z</time></trkpt><trkpt lat="45.92796401933096" lon="12.508945599540265"><ele>18.0</ele><time>2026-05-01T15:13:44.999Z</time></trkpt><trkpt lat="45.92802037123006" lon="12.509381029782134"><ele>17.0</ele><time>2026-05-01T15:13:45.999Z</time></trkpt><trkpt lat="45.928083450877054" lon="12.509812364373243"><ele>16.0</ele><time>2026-05-01T15:13:46.999Z</time></trkpt><trkpt lat="45.92815379335357" lon="12.51024209845846"><ele>16.0</ele><time>2026-05-01T15:13:47.999Z</time></trkpt><trkpt lat="45.92823579089914" lon="12.51066892898392"><ele>16.0</ele><time>2026-05-01T15:13:48.999Z</time></trkpt><trkpt lat="45.92832980325032" lon="12.51109317430735"><ele>16.0</ele><time>2026-05-01T15:13:49.999Z</time></trkpt><trkpt lat="45.92843404878009" lon="12.511508676900066"><ele>16.0</ele><time>2026-05-01T15:13:50.999Z</time></trkpt><trkpt lat="45.92854944896903" lon="12.51191669536529"><ele>16.5</ele><time>2026-05-01T15:13:51.999Z</time></trkpt><trkpt lat="45.92867694161308" lon="12.512323101409084"><ele>17.0</ele><time>2026-05-01T15:13:52.999Z</time></trkpt><trkpt lat="45.928814811968316" lon="12.512728121045129"><ele>15.0</ele><time>2026-05-01T15:13:53.999Z</time></trkpt><trkpt lat="45.92896263345635" lon="12.513125768050378"><ele>13.0</ele><time>2026-05-01T15:13:54.999Z</time></trkpt><trkpt lat="45.929122538158595" lon="12.513519841183957"><ele>15.0</ele><time>2026-05-01T15:13:55.999Z</time></trkpt><trkpt lat="45.92929324483257" lon="12.513909280713886"><ele>17.0</ele><time>2026-05-01T15:13:56.999Z</time></trkpt><trkpt lat="45.92947632249791" lon="12.514290415636026"><ele>18.0</ele><time>2026-05-01T15:13:57.999Z</time></trkpt><trkpt lat="45.9296693606722" lon="12.514661231648013"><ele>19.0</ele><time>2026-05-01T15:13:58.999Z</time></trkpt><trkpt lat="45.92986959761188" lon="12.515025288467395"><ele>19.0</ele><time>2026-05-01T15:13:59.999Z</time></trkpt><trkpt lat="45.93007772893017" lon="12.515377092021959"><ele>19.0</ele><time>2026-05-01T15:14:00.999Z</time></trkpt><trkpt lat="45.93029178625537" lon="12.515724410437144"><ele>19.0</ele><time>2026-05-01T15:14:01.999Z</time></trkpt><trkpt lat="45.93050916210991" lon="12.516065698270838"><ele>19.0</ele><time>2026-05-01T15:14:02.999Z</time></trkpt><trkpt lat="45.930734848931614" lon="12.516412450000217"><ele>19.5</ele><time>2026-05-01T15:14:03.999Z</time></trkpt><trkpt lat="45.930966518975936" lon="12.516768314217279"><ele>20.0</ele><time>2026-05-01T15:14:04.999Z</time></trkpt><trkpt lat="45.93120234990091" lon="12.517142150081066"><ele>20.0</ele><time>2026-05-01T15:14:05.999Z</time></trkpt><trkpt lat="45.931442990015064" lon="12.517524048804612"><ele>20.0</ele><time>2026-05-01T15:14:06.999Z</time></trkpt><trkpt lat="45.931688900414905" lon="12.517907033092209"><ele>18.5</ele><time>2026-05-01T15:14:07.999Z</time></trkpt><trkpt lat="45.93193822262684" lon="12.518291627450278"><ele>17.0</ele><time>2026-05-01T15:14:08.999Z</time></trkpt><trkpt lat="45.93218920273578" lon="12.518674666784396"><ele>18.0</ele><time>2026-05-01T15:14:09.999Z</time></trkpt><trkpt lat="45.93244167722288" lon="12.519054296931065"><ele>19.0</ele><time>2026-05-01T15:14:11Z</time></trkpt><trkpt lat="45.93269610411707" lon="12.519432424485878"><ele>19.0</ele><time>2026-05-01T15:14:12Z</time></trkpt><trkpt lat="45.932952395211096" lon="12.519814847968416"><ele>19.0</ele><time>2026-05-01T15:14:13Z</time></trkpt><trkpt lat="45.93320640092784" lon="12.520201193787745"><ele>19.0</ele><time>2026-05-01T15:14:14Z</time></trkpt><trkpt lat="45.93346051242589" lon="12.520587915775682"><ele>19.0</ele><time>2026-05-01T15:14:15Z</time></trkpt><trkpt lat="45.93371534807669" lon="12.520972532768909"><ele>19.0</ele><time>2026-05-01T15:14:16Z</time></trkpt><trkpt lat="45.93396758967404" lon="12.521353352521917"><ele>19.0</ele><time>2026-05-01T15:14:17Z</time></trkpt><trkpt lat="45.93421928281166" lon="12.521730650968122"><ele>19.0</ele><time>2026-05-01T15:14:18Z</time></trkpt><trkpt lat="45.93446810148825" lon="12.52210448605219"><ele>19.0</ele><time>2026-05-01T15:14:19Z</time></trkpt><trkpt lat="45.934718161207314" lon="12.522474458875044"><ele>19.0</ele><time>2026-05-01T15:14:20Z</time></trkpt><trkpt lat="45.934968632350994" lon="12.522834897302308"><ele>19.0</ele><time>2026-05-01T15:14:21Z</time></trkpt><trkpt lat="45.9352202011803" lon="12.523182875948542"><ele>19.0</ele><time>2026-05-01T15:14:22Z</time></trkpt><trkpt lat="45.93546622747453" lon="12.523538797125024"><ele>19.0</ele><time>2026-05-01T15:14:23Z</time></trkpt><trkpt lat="45.935702150562506" lon="12.523898278594203"><ele>18.5</ele><time>2026-05-01T15:14:24Z</time></trkpt><trkpt lat="45.93593205284727" lon="12.524261028299392"><ele>18.0</ele><time>2026-05-01T15:14:25Z</time></trkpt><trkpt lat="45.93616128205394" lon="12.524621341961424"><ele>18.0</ele><time>2026-05-01T15:14:26Z</time></trkpt><trkpt lat="45.93639294038518" lon="12.524979129772394"><ele>18.0</ele><time>2026-05-01T15:14:27Z</time></trkpt><trkpt lat="45.936628455593834" lon="12.525331621132576"><ele>19.5</ele><time>2026-05-01T15:14:28Z</time></trkpt><trkpt lat="45.93686602862111" lon="12.52568197958192"><ele>21.0</ele><time>2026-05-01T15:14:29Z</time></trkpt><trkpt lat="45.93710186071218" lon="12.526035583127541"><ele>21.0</ele><time>2026-05-01T15:14:30Z</time></trkpt><trkpt lat="45.93733603398246" lon="12.526393436352642"><ele>21.0</ele><time>2026-05-01T15:14:31Z</time></trkpt><trkpt lat="45.937568745356906" lon="12.526750649128967"><ele>22.0</ele><time>2026-05-01T15:14:32Z</time></trkpt><trkpt lat="45.93780058961399" lon="12.52711188161907"><ele>23.0</ele><time>2026-05-01T15:14:33Z</time></trkpt><trkpt lat="45.93802924516473" lon="12.527473574332713"><ele>23.0</ele><time>2026-05-01T15:14:34Z</time></trkpt><trkpt lat="45.938254767742364" lon="12.527836730600576"><ele>23.0</ele><time>2026-05-01T15:14:35Z</time></trkpt><trkpt lat="45.93847832265249" lon="12.528204241741445"><ele>23.5</ele><time>2026-05-01T15:14:36Z</time></trkpt><trkpt lat="45.93869730875748" lon="12.528573110596513"><ele>24.0</ele><time>2026-05-01T15:14:37Z</time></trkpt><trkpt lat="45.93891489971972" lon="12.52894154045481"><ele>24.0</ele><time>2026-05-01T15:14:38Z</time></trkpt><trkpt lat="45.93912908509541" lon="12.529307062083767"><ele>24.0</ele><time>2026-05-01T15:14:39Z</time></trkpt><trkpt lat="45.9393385329994" lon="12.529680945607563"><ele>23.0</ele><time>2026-05-01T15:14:40Z</time></trkpt><trkpt lat="45.939536149378206" lon="12.530066957261392"><ele>22.0</ele><time>2026-05-01T15:14:41Z</time></trkpt><trkpt lat="45.93972220041304" lon="12.530460122806764"><ele>22.0</ele><time>2026-05-01T15:14:42Z</time></trkpt><trkpt lat="45.9399022485965" lon="12.530858975474711"><ele>22.0</ele><time>2026-05-01T15:14:43Z</time></trkpt><trkpt lat="45.94007370574764" lon="12.53126753740793"><ele>22.5</ele><time>2026-05-01T15:14:44Z</time></trkpt><trkpt lat="45.94024270197656" lon="12.531684325728598"><ele>23.0</ele><time>2026-05-01T15:14:45Z</time></trkpt><trkpt lat="45.940403826067545" lon="12.53211238597135"><ele>23.5</ele><time>2026-05-01T15:14:46Z</time></trkpt><trkpt lat="45.94055157482102" lon="12.532554053928145"><ele>24.0</ele><time>2026-05-01T15:14:47Z</time></trkpt><trkpt lat="45.940687142051786" lon="12.533006162907817"><ele>23.0</ele><time>2026-05-01T15:14:48Z</time></trkpt><trkpt lat="45.9408120923503" lon="12.533466447412913"><ele>22.0</ele><time>2026-05-01T15:14:49Z</time></trkpt><trkpt lat="45.94092963927284" lon="12.533930581069173"><ele>24.0</ele><time>2026-05-01T15:14:50Z</time></trkpt><trkpt lat="45.9410421786043" lon="12.53439766651371"><ele>26.0</ele><time>2026-05-01T15:14:51Z</time></trkpt><trkpt lat="45.94114751627141" lon="12.534863016345824"><ele>26.0</ele><time>2026-05-01T15:14:52Z</time></trkpt><trkpt lat="45.94124259740362" lon="12.535332249003462"><ele>26.0</ele><time>2026-05-01T15:14:53Z</time></trkpt><trkpt lat="45.94132429291793" lon="12.535807442677411"><ele>26.0</ele><time>2026-05-01T15:14:54Z</time></trkpt><trkpt lat="45.94139566473324" lon="12.536286102226002"><ele>26.0</ele><time>2026-05-01T15:14:55Z</time></trkpt><trkpt lat="45.9414572876846" lon="12.536768222575123"><ele>26.0</ele><time>2026-05-01T15:14:56Z</time></trkpt><trkpt lat="45.941510142876076" lon="12.537255126279762"><ele>26.0</ele><time>2026-05-01T15:14:57Z</time></trkpt><trkpt lat="45.94155597187211" lon="12.537743902496112"><ele>25.0</ele><time>2026-05-01T15:14:58Z</time></trkpt><trkpt lat="45.94159364923566" lon="12.538235228550839"><ele>24.0</ele><time>2026-05-01T15:14:59Z</time></trkpt><trkpt lat="45.941623734510095" lon="12.53872768738216"><ele>24.0</ele><time>2026-05-01T15:15:00Z</time></trkpt><trkpt lat="45.94164163776076" lon="12.539225581465642"><ele>24.0</ele><time>2026-05-01T15:15:01Z</time></trkpt><trkpt lat="45.94164661795268" lon="12.53972521122123"><ele>24.0</ele><time>2026-05-01T15:15:02Z</time></trkpt><trkpt lat="45.94163750225786" lon="12.540228864852532"><ele>24.0</ele><time>2026-05-01T15:15:03Z</time></trkpt><trkpt lat="45.94162148187415" lon="12.540730786661696"><ele>25.0</ele><time>2026-05-01T15:15:04Z</time></trkpt><trkpt lat="45.941595124745874" lon="12.541236624358692"><ele>26.0</ele><time>2026-05-01T15:15:05Z</time></trkpt><trkpt lat="45.941559747294384" lon="12.541742850868435"><ele>25.0</ele><time>2026-05-01T15:15:06Z</time></trkpt><trkpt lat="45.94151698814733" lon="12.542245067915868"><ele>24.0</ele><time>2026-05-01T15:15:07Z</time></trkpt><trkpt lat="45.94146620096418" lon="12.54274409971873"><ele>23.5</ele><time>2026-05-01T15:15:08Z</time></trkpt><trkpt lat="45.94140787514675" lon="12.54324044980997"><ele>23.0</ele><time>2026-05-01T15:15:09Z</time></trkpt><trkpt lat="45.94134305147749" lon="12.543735084109311"><ele>23.0</ele><time>2026-05-01T15:15:10Z</time></trkpt><trkpt lat="45.94127257613564" lon="12.544225640064935"><ele>23.0</ele><time>2026-05-01T15:15:11Z</time></trkpt><trkpt lat="45.94119687329689" lon="12.544716295387241"><ele>23.5</ele><time>2026-05-01T15:15:12Z</time></trkpt><trkpt lat="45.9411188257673" lon="12.545204594001094"><ele>24.0</ele><time>2026-05-01T15:15:13Z</time></trkpt><trkpt lat="45.941035770087574" lon="12.545688907621926"><ele>24.5</ele><time>2026-05-01T15:15:14Z</time></trkpt><trkpt lat="45.940948519062395" lon="12.54617072132138"><ele>25.0</ele><time>2026-05-01T15:15:15Z</time></trkpt><trkpt lat="45.940860259263076" lon="12.546653258376061"><ele>24.0</ele><time>2026-05-01T15:15:15.999Z</time></trkpt><trkpt lat="45.94077421837914" lon="12.547134915991101"><ele>23.0</ele><time>2026-05-01T15:15:16.999Z</time></trkpt><trkpt lat="45.940690805470894" lon="12.54761565607553"><ele>22.5</ele><time>2026-05-01T15:15:17.999Z</time></trkpt><trkpt lat="45.94060818596021" lon="12.548095678520294"><ele>22.0</ele><time>2026-05-01T15:15:18.999Z</time></trkpt><trkpt lat="45.940525398473156" lon="12.548572943495827"><ele>22.5</ele><time>2026-05-01T15:15:19.999Z</time></trkpt><trkpt lat="45.94044286144208" lon="12.549050220696378"><ele>23.0</ele><time>2026-05-01T15:15:20.999Z</time></trkpt><trkpt lat="45.94036513002387" lon="12.549530236838535"><ele>23.0</ele><time>2026-05-01T15:15:21.999Z</time></trkpt><trkpt lat="45.940294625465526" lon="12.55001034960571"><ele>23.0</ele><time>2026-05-01T15:15:22.999Z</time></trkpt><trkpt lat="45.940231715577916" lon="12.550493732619755"><ele>23.0</ele><time>2026-05-01T15:15:23.999Z</time></trkpt><trkpt lat="45.94017972182416" lon="12.550978783586201"><ele>23.0</ele><time>2026-05-01T15:15:24.999Z</time></trkpt><trkpt lat="45.94013798051813" lon="12.551465641772051"><ele>23.0</ele><time>2026-05-01T15:15:25.999Z</time></trkpt><trkpt lat="45.94010663831354" lon="12.551953340547495"><ele>23.0</ele><time>2026-05-01T15:15:26.999Z</time></trkpt><trkpt lat="45.9400847894731" lon="12.552444577765465"><ele>23.5</ele><time>2026-05-01T15:15:27.999Z</time></trkpt><trkpt lat="45.940075242249584" lon="12.552930113343477"><ele>24.0</ele><time>2026-05-01T15:15:28.999Z</time></trkpt><trkpt lat="45.940077361987" lon="12.553418054460186"><ele>23.5</ele><time>2026-05-01T15:15:29.999Z</time></trkpt><trkpt lat="45.940091693632326" lon="12.553908301630694"><ele>23.0</ele><time>2026-05-01T15:15:30.999Z</time></trkpt><trkpt lat="45.94011825137373" lon="12.554396824809725"><ele>23.0</ele><time>2026-05-01T15:15:31.999Z</time></trkpt><trkpt lat="45.94015878044003" lon="12.55488658863514"><ele>23.0</ele><time>2026-05-01T15:15:32.999Z</time></trkpt><trkpt lat="45.94021068157815" lon="12.555375929848866"><ele>23.0</ele><time>2026-05-01T15:15:33.999Z</time></trkpt><trkpt lat="45.94027158105452" lon="12.555865567873578"><ele>23.0</ele><time>2026-05-01T15:15:34.999Z</time></trkpt><trkpt lat="45.94034421141528" lon="12.556354259567568"><ele>23.0</ele><time>2026-05-01T15:15:35.999Z</time></trkpt><trkpt lat="45.94042784381558" lon="12.556841452457208"><ele>23.0</ele><time>2026-05-01T15:15:36.999Z</time></trkpt><trkpt lat="45.94052179851416" lon="12.55732570136319"><ele>23.0</ele><time>2026-05-01T15:15:37.999Z</time></trkpt><trkpt lat="45.94062552902146" lon="12.557811370723384"><ele>23.0</ele><time>2026-05-01T15:15:38.999Z</time></trkpt><trkpt lat="45.94073654745132" lon="12.558298635889308"><ele>23.0</ele><time>2026-05-01T15:15:39.999Z</time></trkpt><trkpt lat="45.94084981784596" lon="12.558785158745135"><ele>23.0</ele><time>2026-05-01T15:15:40.999Z</time></trkpt><trkpt lat="45.94096419207556" lon="12.559269872046997"><ele>23.0</ele><time>2026-05-01T15:15:41.999Z</time></trkpt><trkpt lat="45.94107756966707" lon="12.559751505399063"><ele>23.0</ele><time>2026-05-01T15:15:42.999Z</time></trkpt><trkpt lat="45.941192427882484" lon="12.560228569207956"><ele>23.0</ele><time>2026-05-01T15:15:43.999Z</time></trkpt><trkpt lat="45.94130756641529" lon="12.560700884280264"><ele>23.0</ele><time>2026-05-01T15:15:44.999Z</time></trkpt><trkpt lat="45.94142313542372" lon="12.561166461843484"><ele>24.0</ele><time>2026-05-01T15:15:45.999Z</time></trkpt><trkpt lat="45.94153392607303" lon="12.561622590778972"><ele>25.0</ele><time>2026-05-01T15:15:46.999Z</time></trkpt><trkpt lat="45.941642882747765" lon="12.562068789666762"><ele>25.0</ele><time>2026-05-01T15:15:47.999Z</time></trkpt><trkpt lat="45.94175385459337" lon="12.562509682818256"><ele>25.0</ele><time>2026-05-01T15:15:48.999Z</time></trkpt><trkpt lat="45.94186385682282" lon="12.562944648541727"><ele>24.5</ele><time>2026-05-01T15:15:49.999Z</time></trkpt><trkpt lat="45.94197163857443" lon="12.563384145464733"><ele>24.0</ele><time>2026-05-01T15:15:50.999Z</time></trkpt><trkpt lat="45.94208088188224" lon="12.563822979527538"><ele>23.5</ele><time>2026-05-01T15:15:51.999Z</time></trkpt><trkpt lat="45.942194576626" lon="12.564260114311772"><ele>23.0</ele><time>2026-05-01T15:15:52.999Z</time></trkpt><trkpt lat="45.94230864685183" lon="12.564695748457895"><ele>22.5</ele><time>2026-05-01T15:15:53.999Z</time></trkpt><trkpt lat="45.94241760987888" lon="12.565133510265321"><ele>22.0</ele><time>2026-05-01T15:15:54.999Z</time></trkpt><trkpt lat="45.94252576690384" lon="12.5655737338372"><ele>22.0</ele><time>2026-05-01T15:15:55.999Z</time></trkpt><trkpt lat="45.942634045485605" lon="12.56601346558371"><ele>22.0</ele><time>2026-05-01T15:15:56.999Z</time></trkpt><trkpt lat="45.94274089758498" lon="12.56645394836472"><ele>22.5</ele><time>2026-05-01T15:15:57.999Z</time></trkpt><trkpt lat="45.94284700585368" lon="12.566897878447367"><ele>23.0</ele><time>2026-05-01T15:15:58.999Z</time></trkpt><trkpt lat="45.94295600788729" lon="12.567343536314075"><ele>23.5</ele><time>2026-05-01T15:15:59.999Z</time></trkpt><trkpt lat="45.94306560212948" lon="12.567791972673142"><ele>24.0</ele><time>2026-05-01T15:16:00.999Z</time></trkpt><trkpt lat="45.943172866320516" lon="12.568242985426576"><ele>23.0</ele><time>2026-05-01T15:16:01.999Z</time></trkpt><trkpt lat="45.943281834123404" lon="12.568694727351723"><ele>22.0</ele><time>2026-05-01T15:16:02.999Z</time></trkpt><trkpt lat="45.943391159081" lon="12.569144698168397"><ele>21.5</ele><time>2026-05-01T15:16:03.999Z</time></trkpt><trkpt lat="45.943498758021384" lon="12.569596919167852"><ele>21.0</ele><time>2026-05-01T15:16:04.999Z</time></trkpt><trkpt lat="45.94360807364412" lon="12.570048261164969"><ele>20.5</ele><time>2026-05-01T15:16:05.999Z</time></trkpt><trkpt lat="45.943718044265445" lon="12.570501612511652"><ele>20.0</ele><time>2026-05-01T15:16:06.999Z</time></trkpt><trkpt lat="45.94382630012776" lon="12.570955775797115"><ele>19.5</ele><time>2026-05-01T15:16:07.999Z</time></trkpt><trkpt lat="45.9439356545616" lon="12.571407413746478"><ele>19.0</ele><time>2026-05-01T15:16:08.999Z</time></trkpt><trkpt lat="45.94404388870679" lon="12.57185784986996"><ele>18.5</ele><time>2026-05-01T15:16:09.999Z</time></trkpt><trkpt lat="45.944151249299566" lon="12.572305495581533"><ele>18.0</ele><time>2026-05-01T15:16:10.999Z</time></trkpt><trkpt lat="45.94425940624135" lon="12.572750895469902"><ele>18.5</ele><time>2026-05-01T15:16:11.999Z</time></trkpt><trkpt lat="45.94436803747068" lon="12.573194698457652"><ele>19.0</ele><time>2026-05-01T15:16:12.999Z</time></trkpt><trkpt lat="45.94447661715566" lon="12.573640528762864"><ele>19.5</ele><time>2026-05-01T15:16:13.999Z</time></trkpt><trkpt lat="45.94458112733777" lon="12.574084812126022"><ele>20.0</ele><time>2026-05-01T15:16:14.999Z</time></trkpt><trkpt lat="45.94468490377203" lon="12.5745299987618"><ele>20.0</ele><time>2026-05-01T15:16:15.999Z</time></trkpt><trkpt lat="45.94478540279888" lon="12.574977630265927"><ele>20.0</ele><time>2026-05-01T15:16:17Z</time></trkpt><trkpt lat="45.944887482698064" lon="12.575425686194935"><ele>20.5</ele><time>2026-05-01T15:16:18Z</time></trkpt><trkpt lat="45.94499195825472" lon="12.575873346901565"><ele>21.0</ele><time>2026-05-01T15:16:19Z</time></trkpt><trkpt lat="45.945099382986726" lon="12.576316483038372"><ele>22.0</ele><time>2026-05-01T15:16:20Z</time></trkpt><trkpt lat="45.94521017892143" lon="12.576757838981697"><ele>23.0</ele><time>2026-05-01T15:16:21Z</time></trkpt><trkpt lat="45.945317037844696" lon="12.57720187187205"><ele>23.0</ele><time>2026-05-01T15:16:22Z</time></trkpt><trkpt lat="45.945421265503164" lon="12.577647082726815"><ele>23.0</ele><time>2026-05-01T15:16:23Z</time></trkpt><trkpt lat="45.94552667695032" lon="12.578088047297054"><ele>22.5</ele><time>2026-05-01T15:16:24Z</time></trkpt><trkpt lat="45.945634888711794" lon="12.578528721134369"><ele>22.0</ele><time>2026-05-01T15:16:25Z</time></trkpt><trkpt lat="45.945740039323084" lon="12.578966495104591"><ele>22.0</ele><time>2026-05-01T15:16:26Z</time></trkpt><trkpt lat="45.94584471905682" lon="12.57940350428343"><ele>22.0</ele><time>2026-05-01T15:16:27Z</time></trkpt><trkpt lat="45.945948488769154" lon="12.579839707735538"><ele>22.5</ele><time>2026-05-01T15:16:28Z</time></trkpt><trkpt lat="45.94605369738117" lon="12.580278173770754"><ele>23.0</ele><time>2026-05-01T15:16:29Z</time></trkpt><trkpt lat="45.946158557773096" lon="12.580716486667711"><ele>24.0</ele><time>2026-05-01T15:16:30Z</time></trkpt><trkpt lat="45.946262327224495" lon="12.58115518262531"><ele>25.0</ele><time>2026-05-01T15:16:31Z</time></trkpt><trkpt lat="45.94636310704589" lon="12.58159567836612"><ele>24.0</ele><time>2026-05-01T15:16:32Z</time></trkpt><trkpt lat="45.94646082536586" lon="12.582039900949688"><ele>23.0</ele><time>2026-05-01T15:16:33Z</time></trkpt><trkpt lat="45.94655831295772" lon="12.582488330627987"><ele>23.0</ele><time>2026-05-01T15:16:34Z</time></trkpt><trkpt lat="45.946656823543016" lon="12.582942602602742"><ele>23.0</ele><time>2026-05-01T15:16:35Z</time></trkpt><trkpt lat="45.94675579704153" lon="12.583398370822056"><ele>23.0</ele><time>2026-05-01T15:16:36Z</time></trkpt><trkpt lat="45.946853550632575" lon="12.58385650365243"><ele>23.0</ele><time>2026-05-01T15:16:37Z</time></trkpt><trkpt lat="45.94694575655164" lon="12.584321501925544"><ele>24.5</ele><time>2026-05-01T15:16:38Z</time></trkpt><trkpt lat="45.94702568335417" lon="12.5847917160518"><ele>26.0</ele><time>2026-05-01T15:16:39Z</time></trkpt><trkpt lat="45.947098145485924" lon="12.58526473033773"><ele>26.0</ele><time>2026-05-01T15:16:40Z</time></trkpt><trkpt lat="45.94716114909883" lon="12.585741846204444"><ele>26.0</ele><time>2026-05-01T15:16:41Z</time></trkpt><trkpt lat="45.9472145706841" lon="12.586219221953183"><ele>22.0</ele><time>2026-05-01T15:16:42Z</time></trkpt><trkpt lat="45.94725851221887" lon="12.58669477583313"><ele>18.0</ele><time>2026-05-01T15:16:43Z</time></trkpt><trkpt lat="45.94729479538908" lon="12.587168968211424"><ele>18.0</ele><time>2026-05-01T15:16:44Z</time></trkpt><trkpt lat="45.94732138775354" lon="12.587643615632416"><ele>18.0</ele><time>2026-05-01T15:16:45Z</time></trkpt><trkpt lat="45.94733549982534" lon="12.588119252657778"><ele>19.0</ele><time>2026-05-01T15:16:46Z</time></trkpt><trkpt lat="45.94733803132808" lon="12.588595984902545"><ele>20.0</ele><time>2026-05-01T15:16:47Z</time></trkpt><trkpt lat="45.94733007891944" lon="12.589071158434773"><ele>22.0</ele><time>2026-05-01T15:16:48Z</time></trkpt><trkpt lat="45.94731405124401" lon="12.589548515892606"><ele>24.0</ele><time>2026-05-01T15:16:49Z</time></trkpt><trkpt lat="45.94728825042021" lon="12.590022445176208"><ele>23.5</ele><time>2026-05-01T15:16:50Z</time></trkpt><trkpt lat="45.947253503879516" lon="12.590494615310053"><ele>23.0</ele><time>2026-05-01T15:16:51Z</time></trkpt><trkpt lat="45.94720792368659" lon="12.590965467998542"><ele>23.0</ele><time>2026-05-01T15:16:52Z</time></trkpt><trkpt lat="45.94714909041782" lon="12.591434114827912"><ele>23.0</ele><time>2026-05-01T15:16:53Z</time></trkpt><trkpt lat="45.94708019104039" lon="12.591900967805426"><ele>23.5</ele><time>2026-05-01T15:16:54Z</time></trkpt><trkpt lat="45.947001444121504" lon="12.59236527615705"><ele>24.0</ele><time>2026-05-01T15:16:55Z</time></trkpt><trkpt lat="45.946914970535026" lon="12.59282771402794"><ele>23.5</ele><time>2026-05-01T15:16:56Z</time></trkpt><trkpt lat="45.94681843266585" lon="12.593285343856305"><ele>23.0</ele><time>2026-05-01T15:16:57Z</time></trkpt><trkpt lat="45.94671284406204" lon="12.593738789466173"><ele>23.0</ele><time>2026-05-01T15:16:58Z</time></trkpt><trkpt lat="45.94659527587819" lon="12.594185897113837"><ele>23.0</ele><time>2026-05-01T15:16:59Z</time></trkpt><trkpt lat="45.946471953847634" lon="12.594628348257265"><ele>23.0</ele><time>2026-05-01T15:17:00Z</time></trkpt><trkpt lat="45.9463456695415" lon="12.595067751735513"><ele>23.0</ele><time>2026-05-01T15:17:01Z</time></trkpt><trkpt lat="45.946213559512465" lon="12.595504249197946"><ele>22.5</ele><time>2026-05-01T15:17:02Z</time></trkpt><trkpt lat="45.94607610443727" lon="12.595937000869107"><ele>22.0</ele><time>2026-05-01T15:17:03Z</time></trkpt><trkpt lat="45.94593253793518" lon="12.596365280135672"><ele>21.5</ele><time>2026-05-01T15:17:04Z</time></trkpt><trkpt lat="45.94578276523368" lon="12.596789347505249"><ele>21.0</ele><time>2026-05-01T15:17:05Z</time></trkpt><trkpt lat="45.945632161281644" lon="12.597213175483565"><ele>21.5</ele><time>2026-05-01T15:17:06Z</time></trkpt><trkpt lat="45.945484527526425" lon="12.597637653567539"><ele>22.0</ele><time>2026-05-01T15:17:07Z</time></trkpt><trkpt lat="45.94534415204159" lon="12.598058187090484"><ele>22.0</ele><time>2026-05-01T15:17:08Z</time></trkpt><trkpt lat="45.94521014496009" lon="12.598470150769101"><ele>22.0</ele><time>2026-05-01T15:17:09Z</time></trkpt><trkpt lat="45.94507617613467" lon="12.598874325700306"><ele>19.0</ele><time>2026-05-01T15:17:10Z</time></trkpt><trkpt lat="45.94494439668374" lon="12.599275865875999"><ele>16.0</ele><time>2026-05-01T15:17:11Z</time></trkpt><trkpt lat="45.94481277005397" lon="12.599676139678829"><ele>16.0</ele><time>2026-05-01T15:17:12Z</time></trkpt><trkpt lat="45.94467950146205" lon="12.600074232675276"><ele>16.0</ele><time>2026-05-01T15:17:13Z</time></trkpt><trkpt lat="45.944546447137995" lon="12.60047507356044"><ele>16.5</ele><time>2026-05-01T15:17:14Z</time></trkpt><trkpt lat="45.944424123778724" lon="12.600878676902163"><ele>17.0</ele><time>2026-05-01T15:17:15Z</time></trkpt><trkpt lat="45.94429953453978" lon="12.601283919188955"><ele>19.0</ele><time>2026-05-01T15:17:16Z</time></trkpt><trkpt lat="45.94417098972349" lon="12.601684790525447"><ele>21.0</ele><time>2026-05-01T15:17:17Z</time></trkpt><trkpt lat="45.94403873985492" lon="12.602084260648937"><ele>21.0</ele><time>2026-05-01T15:17:18Z</time></trkpt><trkpt lat="45.94390337804255" lon="12.602480560363464"><ele>21.0</ele><time>2026-05-01T15:17:19Z</time></trkpt><trkpt lat="45.9437672748475" lon="12.602873193065827"><ele>21.0</ele><time>2026-05-01T15:17:19.999Z</time></trkpt><trkpt lat="45.94362838664471" lon="12.603264304985043"><ele>21.0</ele><time>2026-05-01T15:17:20.999Z</time></trkpt><trkpt lat="45.943492507955135" lon="12.603654513136346"><ele>20.5</ele><time>2026-05-01T15:17:21.999Z</time></trkpt><trkpt lat="45.94336131610368" lon="12.60404822804142"><ele>20.0</ele><time>2026-05-01T15:17:22.999Z</time></trkpt><trkpt lat="45.94323281075077" lon="12.604445566134347"><ele>21.5</ele><time>2026-05-01T15:17:23.999Z</time></trkpt><trkpt lat="45.94310556659079" lon="12.604842635398114"><ele>23.0</ele><time>2026-05-01T15:17:24.999Z</time></trkpt><trkpt lat="45.94297878287254" lon="12.605243022072532"><ele>22.0</ele><time>2026-05-01T15:17:25.999Z</time></trkpt><trkpt lat="45.942854930232315" lon="12.605645444113607"><ele>21.0</ele><time>2026-05-01T15:17:26.999Z</time></trkpt><trkpt lat="45.942735702354526" lon="12.606052159134395"><ele>21.5</ele><time>2026-05-01T15:17:27.999Z</time></trkpt><trkpt lat="45.9426213548707" lon="12.606463504121932"><ele>22.0</ele><time>2026-05-01T15:17:28.999Z</time></trkpt><trkpt lat="45.942511188217985" lon="12.606879843594152"><ele>20.5</ele><time>2026-05-01T15:17:29.999Z</time></trkpt><trkpt lat="45.94240533066744" lon="12.607298799179931"><ele>19.0</ele><time>2026-05-01T15:17:30.999Z</time></trkpt><trkpt lat="45.942303233552664" lon="12.607721856663611"><ele>19.0</ele><time>2026-05-01T15:17:31.999Z</time></trkpt><trkpt lat="45.94220597865051" lon="12.608148734246193"><ele>19.0</ele><time>2026-05-01T15:17:32.999Z</time></trkpt><trkpt lat="45.942118170344365" lon="12.608578792853933"><ele>18.5</ele><time>2026-05-01T15:17:33.999Z</time></trkpt><trkpt lat="45.94204351957675" lon="12.609017965073136"><ele>18.0</ele><time>2026-05-01T15:17:34.999Z</time></trkpt><trkpt lat="45.941979561764455" lon="12.609461299372594"><ele>17.0</ele><time>2026-05-01T15:17:35.999Z</time></trkpt><trkpt lat="45.941924924779904" lon="12.609909077060408"><ele>16.0</ele><time>2026-05-01T15:17:36.999Z</time></trkpt><trkpt lat="45.94187821790968" lon="12.610359035297263"><ele>16.0</ele><time>2026-05-01T15:17:37.999Z</time></trkpt><trkpt lat="45.94184051399053" lon="12.610813053400724"><ele>16.0</ele><time>2026-05-01T15:17:38.999Z</time></trkpt><trkpt lat="45.94180966242983" lon="12.611271826576049"><ele>16.0</ele><time>2026-05-01T15:17:39.999Z</time></trkpt><trkpt lat="45.94178892288223" lon="12.611732726752583"><ele>16.0</ele><time>2026-05-01T15:17:40.999Z</time></trkpt><trkpt lat="45.94177724827137" lon="12.612191132773853"><ele>17.5</ele><time>2026-05-01T15:17:41.999Z</time></trkpt><trkpt lat="45.941775307330175" lon="12.612650970104752"><ele>19.0</ele><time>2026-05-01T15:17:42.999Z</time></trkpt><trkpt lat="45.94178481744183" lon="12.61311203258014"><ele>19.5</ele><time>2026-05-01T15:17:43.999Z</time></trkpt><trkpt lat="45.94180424854561" lon="12.6135722585233"><ele>20.0</ele><time>2026-05-01T15:17:44.999Z</time></trkpt><trkpt lat="45.941831577264665" lon="12.614028888518106"><ele>20.0</ele><time>2026-05-01T15:17:45.999Z</time></trkpt><trkpt lat="45.941867031001074" lon="12.614484097207937"><ele>20.0</ele><time>2026-05-01T15:17:46.999Z</time></trkpt><trkpt lat="45.94191066654992" lon="12.61493650828771"><ele>20.5</ele><time>2026-05-01T15:17:47.999Z</time></trkpt><trkpt lat="45.941969390717794" lon="12.615386784713763"><ele>21.0</ele><time>2026-05-01T15:17:48.999Z</time></trkpt><trkpt lat="45.94204510050441" lon="12.615834863347144"><ele>21.0</ele><time>2026-05-01T15:17:49.999Z</time></trkpt><trkpt lat="45.9421332762751" lon="12.616284692428499"><ele>21.0</ele><time>2026-05-01T15:17:50.999Z</time></trkpt><trkpt lat="45.94222406794845" lon="12.616739216940267"><ele>20.5</ele><time>2026-05-01T15:17:51.999Z</time></trkpt><trkpt lat="45.94231678234361" lon="12.617197928938996"><ele>20.0</ele><time>2026-05-01T15:17:52.999Z</time></trkpt><trkpt lat="45.9424161515513" lon="12.617656888872753"><ele>20.0</ele><time>2026-05-01T15:17:53.999Z</time></trkpt><trkpt lat="45.94252377402102" lon="12.61811629890125"><ele>20.0</ele><time>2026-05-01T15:17:54.999Z</time></trkpt><trkpt lat="45.94263890518878" lon="12.618577493138613"><ele>21.0</ele><time>2026-05-01T15:17:55.999Z</time></trkpt><trkpt lat="45.94276197549982" lon="12.619035127237419"><ele>22.0</ele><time>2026-05-01T15:17:56.999Z</time></trkpt><trkpt lat="45.942885847308276" lon="12.619498265189403"><ele>22.5</ele><time>2026-05-01T15:17:57.999Z</time></trkpt><trkpt lat="45.94301265275605" lon="12.619959002255472"><ele>23.0</ele><time>2026-05-01T15:17:58.999Z</time></trkpt><trkpt lat="45.94314223013272" lon="12.620416449719478"><ele>23.5</ele><time>2026-05-01T15:17:59.999Z</time></trkpt><trkpt lat="45.943275859065636" lon="12.620872990415316"><ele>24.0</ele><time>2026-05-01T15:18:00.999Z</time></trkpt><trkpt lat="45.94341225139656" lon="12.621324431106556"><ele>22.5</ele><time>2026-05-01T15:18:01.999Z</time></trkpt><trkpt lat="45.94354890566915" lon="12.621774715799505"><ele>21.0</ele><time>2026-05-01T15:18:02.999Z</time></trkpt><trkpt lat="45.94368670492591" lon="12.622222291156753"><ele>19.5</ele><time>2026-05-01T15:18:03.999Z</time></trkpt><trkpt lat="45.94382664686159" lon="12.622668104786545"><ele>18.0</ele><time>2026-05-01T15:18:04.999Z</time></trkpt><trkpt lat="45.94395857852828" lon="12.623109832373927"><ele>18.0</ele><time>2026-05-01T15:18:05.999Z</time></trkpt><trkpt lat="45.94408065015232" lon="12.623554584808337"><ele>18.0</ele><time>2026-05-01T15:18:06.999Z</time></trkpt><trkpt lat="45.94418952451538" lon="12.62400797691403"><ele>18.0</ele><time>2026-05-01T15:18:07.999Z</time></trkpt><trkpt lat="45.944289533331215" lon="12.624463664725354"><ele>18.0</ele><time>2026-05-01T15:18:08.999Z</time></trkpt><trkpt lat="45.94438374754839" lon="12.624921320078126"><ele>18.0</ele><time>2026-05-01T15:18:09.999Z</time></trkpt><trkpt lat="45.94447044646233" lon="12.625385306486468"><ele>18.0</ele><time>2026-05-01T15:18:10.999Z</time></trkpt><trkpt lat="45.94454848679351" lon="12.6258542852489"><ele>18.0</ele><time>2026-05-01T15:18:11.999Z</time></trkpt><trkpt lat="45.94461569043484" lon="12.626326822503067"><ele>18.0</ele><time>2026-05-01T15:18:12.999Z</time></trkpt><trkpt lat="45.944673722524314" lon="12.626804436145187"><ele>18.5</ele><time>2026-05-01T15:18:13.999Z</time></trkpt><trkpt lat="45.944724135282144" lon="12.627285071173763"><ele>19.0</ele><time>2026-05-01T15:18:14.999Z</time></trkpt><trkpt lat="45.94476717135112" lon="12.62776724280631"><ele>19.5</ele><time>2026-05-01T15:18:15.999Z</time></trkpt><trkpt lat="45.94480016938846" lon="12.628252089297582"><ele>20.0</ele><time>2026-05-01T15:18:16.999Z</time></trkpt><trkpt lat="45.94481998651752" lon="12.62873853277738"><ele>20.0</ele><time>2026-05-01T15:18:17.999Z</time></trkpt><trkpt lat="45.9448282424726" lon="12.629226248645283"><ele>20.0</ele><time>2026-05-01T15:18:18.999Z</time></trkpt><trkpt lat="45.94482733164201" lon="12.62971526144688"><ele>20.0</ele><time>2026-05-01T15:18:19.999Z</time></trkpt><trkpt lat="45.94481760107188" lon="12.630204354707903"><ele>20.0</ele><time>2026-05-01T15:18:20.999Z</time></trkpt><trkpt lat="45.944801309437615" lon="12.630691237198"><ele>20.5</ele><time>2026-05-01T15:18:21.999Z</time></trkpt><trkpt lat="45.94478006732491" lon="12.631179037483415"><ele>21.0</ele><time>2026-05-01T15:18:23Z</time></trkpt><trkpt lat="45.94475671756742" lon="12.631664784458154"><ele>20.5</ele><time>2026-05-01T15:18:24Z</time></trkpt><trkpt lat="45.94473113151576" lon="12.632147589117624"><ele>20.0</ele><time>2026-05-01T15:18:25Z</time></trkpt><trkpt lat="45.94469976722032" lon="12.632634423139725"><ele>19.0</ele><time>2026-05-01T15:18:26Z</time></trkpt><trkpt lat="45.94466643555605" lon="12.633118083500198"><ele>18.0</ele><time>2026-05-01T15:18:27Z</time></trkpt><trkpt lat="45.94463436004044" lon="12.633601841615368"><ele>18.0</ele><time>2026-05-01T15:18:28Z</time></trkpt><trkpt lat="45.94460529780547" lon="12.634081161708545"><ele>18.0</ele><time>2026-05-01T15:18:29Z</time></trkpt><trkpt lat="45.94457953002323" lon="12.634557639279649"><ele>18.5</ele><time>2026-05-01T15:18:30Z</time></trkpt><trkpt lat="45.94455474675604" lon="12.635030066147314"><ele>19.0</ele><time>2026-05-01T15:18:31Z</time></trkpt><trkpt lat="45.944530587919296" lon="12.635499930192493"><ele>18.0</ele><time>2026-05-01T15:18:32Z</time></trkpt><trkpt lat="45.944505479038725" lon="12.635970495625052"><ele>17.0</ele><time>2026-05-01T15:18:33Z</time></trkpt><trkpt lat="45.94447920880774" lon="12.636438301662189"><ele>16.5</ele><time>2026-05-01T15:18:34Z</time></trkpt><trkpt lat="45.944450935555764" lon="12.63690423014912"><ele>16.0</ele><time>2026-05-01T15:18:35Z</time></trkpt><trkpt lat="45.94442153528817" lon="12.637367897935784"><ele>13.0</ele><time>2026-05-01T15:18:36Z</time></trkpt><trkpt lat="45.94439783263488" lon="12.637832008562143"><ele>10.0</ele><time>2026-05-01T15:18:37Z</time></trkpt><trkpt lat="45.944373945936064" lon="12.6382974048285"><ele>10.0</ele><time>2026-05-01T15:18:38Z</time></trkpt><trkpt lat="45.94434898625546" lon="12.638763670382694"><ele>10.0</ele><time>2026-05-01T15:18:39Z</time></trkpt><trkpt lat="45.94432462469095" lon="12.63923380752394"><ele>10.0</ele><time>2026-05-01T15:18:40Z</time></trkpt><trkpt lat="45.944301075891474" lon="12.639705007940423"><ele>10.0</ele><time>2026-05-01T15:18:41Z</time></trkpt><trkpt lat="45.944277780120764" lon="12.64017828388583"><ele>10.5</ele><time>2026-05-01T15:18:42Z</time></trkpt><trkpt lat="45.944253474511626" lon="12.640654875864515"><ele>11.0</ele><time>2026-05-01T15:18:43Z</time></trkpt><trkpt lat="45.94423031980062" lon="12.6411327211944"><ele>11.0</ele><time>2026-05-01T15:18:44Z</time></trkpt><trkpt lat="45.94420909907079" lon="12.6416102033591"><ele>11.0</ele><time>2026-05-01T15:18:45Z</time></trkpt><trkpt lat="45.94419026990321" lon="12.64208564707914"><ele>11.0</ele><time>2026-05-01T15:18:46Z</time></trkpt><trkpt lat="45.944174039646796" lon="12.64256109833992"><ele>11.0</ele><time>2026-05-01T15:18:47Z</time></trkpt><trkpt lat="45.94415341397835" lon="12.643038312392862"><ele>10.5</ele><time>2026-05-01T15:18:48Z</time></trkpt><trkpt lat="45.94412699276233" lon="12.643515239307085"><ele>10.0</ele><time>2026-05-01T15:18:49Z</time></trkpt><trkpt lat="45.94409686250504" lon="12.64399231793051"><ele>13.5</ele><time>2026-05-01T15:18:50Z</time></trkpt><trkpt lat="45.94406631144024" lon="12.644466462945534"><ele>17.0</ele><time>2026-05-01T15:18:51Z</time></trkpt><trkpt lat="45.94403313369121" lon="12.644938800622079"><ele>18.0</ele><time>2026-05-01T15:18:52Z</time></trkpt><trkpt lat="45.943998436789734" lon="12.645411971810814"><ele>19.0</ele><time>2026-05-01T15:18:53Z</time></trkpt><trkpt lat="45.94396038478726" lon="12.645884600320391"><ele>18.5</ele><time>2026-05-01T15:18:54Z</time></trkpt><trkpt lat="45.943920802129504" lon="12.646359284196574"><ele>18.0</ele><time>2026-05-01T15:18:55Z</time></trkpt><trkpt lat="45.94387565757994" lon="12.646835183003727"><ele>16.0</ele><time>2026-05-01T15:18:56Z</time></trkpt><trkpt lat="45.943823890378624" lon="12.647308865917104"><ele>14.0</ele><time>2026-05-01T15:18:57Z</time></trkpt><trkpt lat="45.943765878019526" lon="12.647779328618672"><ele>14.0</ele><time>2026-05-01T15:18:58Z</time></trkpt><trkpt lat="45.94370056794677" lon="12.648248637163569"><ele>14.0</ele><time>2026-05-01T15:18:59Z</time></trkpt><trkpt lat="45.94362972050422" lon="12.64871733141931"><ele>14.0</ele><time>2026-05-01T15:19:00Z</time></trkpt><trkpt lat="45.943556505229125" lon="12.6491839784822"><ele>14.0</ele><time>2026-05-01T15:19:01Z</time></trkpt><trkpt lat="45.94347960905366" lon="12.649650343438601"><ele>14.5</ele><time>2026-05-01T15:19:02Z</time></trkpt><trkpt lat="45.943398643403626" lon="12.650111160218591"><ele>15.0</ele><time>2026-05-01T15:19:03Z</time></trkpt><trkpt lat="45.94330881750799" lon="12.650568718134261"><ele>17.5</ele><time>2026-05-01T15:19:04Z</time></trkpt><trkpt lat="45.943211728840154" lon="12.651022183514593"><ele>20.0</ele><time>2026-05-01T15:19:05Z</time></trkpt><trkpt lat="45.943105147332155" lon="12.651470032380823"><ele>20.5</ele><time>2026-05-01T15:19:06Z</time></trkpt><trkpt lat="45.94299612175573" lon="12.651909959623536"><ele>21.0</ele><time>2026-05-01T15:19:07Z</time></trkpt><trkpt lat="45.94287940707095" lon="12.652351374940755"><ele>21.0</ele><time>2026-05-01T15:19:08Z</time></trkpt><trkpt lat="45.942753776226034" lon="12.652787770260181"><ele>21.0</ele><time>2026-05-01T15:19:09Z</time></trkpt><trkpt lat="45.94262144068803" lon="12.653218971422728"><ele>20.5</ele><time>2026-05-01T15:19:10Z</time></trkpt><trkpt lat="45.942486921516654" lon="12.65364087233826"><ele>20.0</ele><time>2026-05-01T15:19:11Z</time></trkpt><trkpt lat="45.942352742584774" lon="12.654060071614122"><ele>19.5</ele><time>2026-05-01T15:19:12Z</time></trkpt><trkpt lat="45.9422152165727" lon="12.65447896123836"><ele>19.0</ele><time>2026-05-01T15:19:13Z</time></trkpt><trkpt lat="45.94207383792046" lon="12.654891082925957"><ele>18.0</ele><time>2026-05-01T15:19:14Z</time></trkpt><trkpt lat="45.94192929949845" lon="12.655298278470179"><ele>17.0</ele><time>2026-05-01T15:19:15Z</time></trkpt><trkpt lat="45.94178022815703" lon="12.655701386004678"><ele>18.5</ele><time>2026-05-01T15:19:16Z</time></trkpt><trkpt lat="45.94162462298093" lon="12.656099426653558"><ele>20.0</ele><time>2026-05-01T15:19:17Z</time></trkpt><trkpt lat="45.94146320833577" lon="12.656492833925794"><ele>20.0</ele><time>2026-05-01T15:19:18Z</time></trkpt><trkpt lat="45.94129636451421" lon="12.656881327988822"><ele>20.0</ele><time>2026-05-01T15:19:19Z</time></trkpt><trkpt lat="45.941127689703414" lon="12.657263954462186"><ele>20.0</ele><time>2026-05-01T15:19:20Z</time></trkpt><trkpt lat="45.94095337932015" lon="12.657642705639372"><ele>20.0</ele><time>2026-05-01T15:19:21Z</time></trkpt><trkpt lat="45.94077199267578" lon="12.658017840089977"><ele>20.0</ele><time>2026-05-01T15:19:22Z</time></trkpt><trkpt lat="45.94058496743193" lon="12.658391777750236"><ele>20.0</ele><time>2026-05-01T15:19:22.999Z</time></trkpt><trkpt lat="45.940392200860835" lon="12.658764462115371"><ele>20.5</ele><time>2026-05-01T15:19:23.999Z</time></trkpt><trkpt lat="45.94019663323537" lon="12.659133350325947"><ele>21.0</ele><time>2026-05-01T15:19:24.999Z</time></trkpt><trkpt lat="45.93999547667272" lon="12.659501481180344"><ele>21.0</ele><time>2026-05-01T15:19:25.999Z</time></trkpt><trkpt lat="45.939787298662424" lon="12.6598695577433"><ele>21.0</ele><time>2026-05-01T15:19:26.999Z</time></trkpt><trkpt lat="45.939572783669824" lon="12.660232223180918"><ele>22.0</ele><time>2026-05-01T15:19:27.999Z</time></trkpt><trkpt lat="45.9393546373185" lon="12.660591423713468"><ele>23.0</ele><time>2026-05-01T15:19:28.999Z</time></trkpt><trkpt lat="45.939130959366246" lon="12.660945423105312"><ele>22.0</ele><time>2026-05-01T15:19:29.999Z</time></trkpt><trkpt lat="45.93890490786606" lon="12.661293796159786"><ele>21.0</ele><time>2026-05-01T15:19:30.999Z</time></trkpt><trkpt lat="45.93867758211279" lon="12.661638775223704"><ele>21.5</ele><time>2026-05-01T15:19:31.999Z</time></trkpt><trkpt lat="45.93844641893227" lon="12.661977980797284"><ele>22.0</ele><time>2026-05-01T15:19:32.999Z</time></trkpt><trkpt lat="45.93821304072977" lon="12.662316333152404"><ele>22.0</ele><time>2026-05-01T15:19:33.999Z</time></trkpt><trkpt lat="45.93797959747561" lon="12.662656983715214"><ele>22.0</ele><time>2026-05-01T15:19:34.999Z</time></trkpt><trkpt lat="45.937744020036334" lon="12.66299584768526"><ele>21.5</ele><time>2026-05-01T15:19:35.999Z</time></trkpt><trkpt lat="45.93750646843438" lon="12.663332030336472"><ele>21.0</ele><time>2026-05-01T15:19:36.999Z</time></trkpt><trkpt lat="45.93726603276818" lon="12.663665626122071"><ele>19.5</ele><time>2026-05-01T15:19:37.999Z</time></trkpt><trkpt lat="45.937023826129185" lon="12.663999089268897"><ele>18.0</ele><time>2026-05-01T15:19:38.999Z</time></trkpt><trkpt lat="45.93678078497616" lon="12.664333801625245"><ele>19.0</ele><time>2026-05-01T15:19:39.999Z</time></trkpt><trkpt lat="45.936537831142054" lon="12.66466844999517"><ele>20.0</ele><time>2026-05-01T15:19:40.999Z</time></trkpt><trkpt lat="45.93629396913531" lon="12.665005131310147"><ele>20.0</ele><time>2026-05-01T15:19:41.999Z</time></trkpt><trkpt lat="45.936050224902885" lon="12.66534577159448"><ele>20.0</ele><time>2026-05-01T15:19:42.999Z</time></trkpt><trkpt lat="45.93580701850752" lon="12.66568632322685"><ele>19.5</ele><time>2026-05-01T15:19:43.999Z</time></trkpt><trkpt lat="45.93556269407004" lon="12.666023541731711"><ele>19.0</ele><time>2026-05-01T15:19:44.999Z</time></trkpt><trkpt lat="45.935319194965714" lon="12.666361999668306"><ele>18.5</ele><time>2026-05-01T15:19:45.999Z</time></trkpt><trkpt lat="45.93508032781339" lon="12.66670677767696"><ele>18.0</ele><time>2026-05-01T15:19:46.999Z</time></trkpt><trkpt lat="45.934850289028994" lon="12.66706072826884"><ele>19.5</ele><time>2026-05-01T15:19:47.999Z</time></trkpt><trkpt lat="45.93462442563688" lon="12.66741770669122"><ele>21.0</ele><time>2026-05-01T15:19:48.999Z</time></trkpt><trkpt lat="45.93439856438961" lon="12.66777395494162"><ele>21.5</ele><time>2026-05-01T15:19:49.999Z</time></trkpt><trkpt lat="45.93417269579605" lon="12.668134093962522"><ele>22.0</ele><time>2026-05-01T15:19:50.999Z</time></trkpt><trkpt lat="45.93395033408544" lon="12.668492844042435"><ele>21.5</ele><time>2026-05-01T15:19:51.999Z</time></trkpt><trkpt lat="45.93372879470189" lon="12.668852005459806"><ele>21.0</ele><time>2026-05-01T15:19:52.999Z</time></trkpt><trkpt lat="45.93351042871977" lon="12.669214425273783"><ele>21.0</ele><time>2026-05-01T15:19:53.999Z</time></trkpt><trkpt lat="45.93329847753815" lon="12.66958080588278"><ele>21.0</ele><time>2026-05-01T15:19:54.999Z</time></trkpt><trkpt lat="45.933090840214234" lon="12.669952724896055"><ele>19.0</ele><time>2026-05-01T15:19:55.999Z</time></trkpt><trkpt lat="45.93288384852775" lon="12.670324876315732"><ele>17.0</ele><time>2026-05-01T15:19:56.999Z</time></trkpt><trkpt lat="45.932679070523264" lon="12.670696458941835"><ele>17.5</ele><time>2026-05-01T15:19:57.999Z</time></trkpt><trkpt lat="45.93247510796032" lon="12.671067535030728"><ele>18.0</ele><time>2026-05-01T15:19:58.999Z</time></trkpt><trkpt lat="45.93227598204357" lon="12.671442871823672"><ele>18.0</ele><time>2026-05-01T15:19:59.999Z</time></trkpt><trkpt lat="45.93208394160922" lon="12.671827838162853"><ele>18.0</ele><time>2026-05-01T15:20:00.999Z</time></trkpt><trkpt lat="45.93189476294807" lon="12.672221470331374"><ele>18.5</ele><time>2026-05-01T15:20:01.999Z</time></trkpt><trkpt lat="45.93170723541914" lon="12.672617624475006"><ele>19.0</ele><time>2026-05-01T15:20:02.999Z</time></trkpt><trkpt lat="45.9315198308254" lon="12.673016370773546"><ele>19.0</ele><time>2026-05-01T15:20:03.999Z</time></trkpt><trkpt lat="45.93133742457502" lon="12.673416394048834"><ele>19.0</ele><time>2026-05-01T15:20:04.999Z</time></trkpt><trkpt lat="45.93116014018158" lon="12.6738220993777"><ele>19.0</ele><time>2026-05-01T15:20:05.999Z</time></trkpt><trkpt lat="45.9309837948192" lon="12.67423110808603"><ele>19.0</ele><time>2026-05-01T15:20:06.999Z</time></trkpt><trkpt lat="45.93081163237475" lon="12.674641547127514"><ele>19.0</ele><time>2026-05-01T15:20:07.999Z</time></trkpt><trkpt lat="45.930644542330256" lon="12.675056735240831"><ele>19.0</ele><time>2026-05-01T15:20:08.999Z</time></trkpt><trkpt lat="45.93048355783635" lon="12.675473589650839"><ele>19.0</ele><time>2026-05-01T15:20:09.999Z</time></trkpt><trkpt lat="45.930326087475834" lon="12.675895804266807"><ele>19.0</ele><time>2026-05-01T15:20:10.999Z</time></trkpt><trkpt lat="45.930171014912794" lon="12.676320192748353"><ele>18.5</ele><time>2026-05-01T15:20:11.999Z</time></trkpt><trkpt lat="45.930018388109765" lon="12.6767472323281"><ele>18.0</ele><time>2026-05-01T15:20:12.999Z</time></trkpt><trkpt lat="45.929866701644514" lon="12.677171232482655"><ele>18.0</ele><time>2026-05-01T15:20:13.999Z</time></trkpt><trkpt lat="45.92971411501556" lon="12.677593226767804"><ele>18.0</ele><time>2026-05-01T15:20:14.999Z</time></trkpt><trkpt lat="45.92956397381805" lon="12.678008224039187"><ele>18.0</ele><time>2026-05-01T15:20:15.999Z</time></trkpt><trkpt lat="45.92941085386962" lon="12.678419002237078"><ele>18.0</ele><time>2026-05-01T15:20:16.999Z</time></trkpt><trkpt lat="45.92926219383878" lon="12.678828923639363"><ele>18.0</ele><time>2026-05-01T15:20:17.999Z</time></trkpt><trkpt lat="45.92912104609293" lon="12.679244993311725"><ele>18.0</ele><time>2026-05-01T15:20:18.999Z</time></trkpt><trkpt lat="45.92898565306737" lon="12.679667634714624"><ele>18.0</ele><time>2026-05-01T15:20:19.999Z</time></trkpt><trkpt lat="45.9288424462422" lon="12.680092371174835"><ele>18.0</ele><time>2026-05-01T15:20:20.999Z</time></trkpt><trkpt lat="45.928690414502285" lon="12.680509802141154"><ele>17.5</ele><time>2026-05-01T15:20:21.999Z</time></trkpt><trkpt lat="45.92853525040075" lon="12.680934160513694"><ele>17.0</ele><time>2026-05-01T15:20:22.999Z</time></trkpt><trkpt lat="45.92838089809475" lon="12.681360291155782"><ele>17.0</ele><time>2026-05-01T15:20:23.999Z</time></trkpt><trkpt lat="45.9282276211882" lon="12.681789996137741"><ele>17.0</ele><time>2026-05-01T15:20:24.999Z</time></trkpt><trkpt lat="45.92807364472708" lon="12.682222316891323"><ele>17.5</ele><time>2026-05-01T15:20:25.999Z</time></trkpt><trkpt lat="45.92791861929977" lon="12.682654187331657"><ele>18.0</ele><time>2026-05-01T15:20:26.999Z</time></trkpt><trkpt lat="45.927760951353434" lon="12.683089025005055"><ele>18.0</ele><time>2026-05-01T15:20:27.999Z</time></trkpt><trkpt lat="45.92760375860017" lon="12.683522474739881"><ele>18.0</ele><time>2026-05-01T15:20:29Z</time></trkpt><trkpt lat="45.927445498100695" lon="12.683955199609494"><ele>20.0</ele><time>2026-05-01T15:20:30Z</time></trkpt><trkpt lat="45.92728596539257" lon="12.68438774263102"><ele>22.0</ele><time>2026-05-01T15:20:31Z</time></trkpt><trkpt lat="45.9271278044617" lon="12.684819862887007"><ele>22.5</ele><time>2026-05-01T15:20:32Z</time></trkpt><trkpt lat="45.92697194898788" lon="12.685251113523126"><ele>23.0</ele><time>2026-05-01T15:20:33Z</time></trkpt><trkpt lat="45.92681586543859" lon="12.68568208092808"><ele>21.0</ele><time>2026-05-01T15:20:34Z</time></trkpt><trkpt lat="45.926659541872695" lon="12.686110695910102"><ele>19.0</ele><time>2026-05-01T15:20:35Z</time></trkpt><trkpt lat="45.92650416848309" lon="12.686538048825131"><ele>17.5</ele><time>2026-05-01T15:20:36Z</time></trkpt><trkpt lat="45.92634928140323" lon="12.686965363485209"><ele>16.0</ele><time>2026-05-01T15:20:37Z</time></trkpt><trkpt lat="45.92619539374546" lon="12.687390368382417"><ele>16.5</ele><time>2026-05-01T15:20:38Z</time></trkpt><trkpt lat="45.9260404604697" lon="12.68781622955842"><ele>17.0</ele><time>2026-05-01T15:20:39Z</time></trkpt><trkpt lat="45.925885047118584" lon="12.688238952590284"><ele>18.0</ele><time>2026-05-01T15:20:40Z</time></trkpt><trkpt lat="45.925730511836704" lon="12.688659470979111"><ele>19.0</ele><time>2026-05-01T15:20:41Z</time></trkpt><trkpt lat="45.92557449884324" lon="12.689077808862367"><ele>19.0</ele><time>2026-05-01T15:20:42Z</time></trkpt><trkpt lat="45.92541541371539" lon="12.689493733535706"><ele>19.0</ele><time>2026-05-01T15:20:43Z</time></trkpt><trkpt lat="45.92525306641608" lon="12.689906563919369"><ele>19.5</ele><time>2026-05-01T15:20:44Z</time></trkpt><trkpt lat="45.925088719713074" lon="12.690316763928259"><ele>20.0</ele><time>2026-05-01T15:20:45Z</time></trkpt><trkpt lat="45.92492331063426" lon="12.690725769522967"><ele>18.0</ele><time>2026-05-01T15:20:46Z</time></trkpt><trkpt lat="45.92475218520036" lon="12.691126808918519"><ele>16.0</ele><time>2026-05-01T15:20:47Z</time></trkpt><trkpt lat="45.92457387857315" lon="12.691520835552616"><ele>16.0</ele><time>2026-05-01T15:20:48Z</time></trkpt><trkpt lat="45.924394656637915" lon="12.691909024974368"><ele>16.0</ele><time>2026-05-01T15:20:49Z</time></trkpt><trkpt lat="45.92421897381489" lon="12.692306430952689"><ele>17.5</ele><time>2026-05-01T15:20:50Z</time></trkpt><trkpt lat="45.924043956100995" lon="12.692696926943064"><ele>19.0</ele><time>2026-05-01T15:20:51Z</time></trkpt><trkpt lat="45.92387282842966" lon="12.693090116139258"><ele>19.0</ele><time>2026-05-01T15:20:52Z</time></trkpt><trkpt lat="45.9237016059871" lon="12.693480659898137"><ele>19.0</ele><time>2026-05-01T15:20:53Z</time></trkpt><trkpt lat="45.92352505866267" lon="12.69386971252583"><ele>19.0</ele><time>2026-05-01T15:20:54Z</time></trkpt><trkpt lat="45.923342910351025" lon="12.694257524060571"><ele>19.0</ele><time>2026-05-01T15:20:55Z</time></trkpt><trkpt lat="45.92315642099461" lon="12.694642385943313"><ele>18.5</ele><time>2026-05-01T15:20:56Z</time></trkpt><trkpt lat="45.922967109879686" lon="12.695028024121283"><ele>18.0</ele><time>2026-05-01T15:20:57Z</time></trkpt><trkpt lat="45.92277755740558" lon="12.695411816712447"><ele>18.0</ele><time>2026-05-01T15:20:58Z</time></trkpt><trkpt lat="45.92258774754519" lon="12.695792619697674"><ele>18.0</ele><time>2026-05-01T15:20:59Z</time></trkpt><trkpt lat="45.92239587223095" lon="12.696176214760168"><ele>18.0</ele><time>2026-05-01T15:21:00Z</time></trkpt><trkpt lat="45.9222030025717" lon="12.696559664030739"><ele>18.0</ele><time>2026-05-01T15:21:01Z</time></trkpt><trkpt lat="45.92200834505985" lon="12.696941117138445"><ele>18.0</ele><time>2026-05-01T15:21:02Z</time></trkpt><trkpt lat="45.92180982685339" lon="12.697319045228829"><ele>18.0</ele><time>2026-05-01T15:21:03Z</time></trkpt><trkpt lat="45.921607969739874" lon="12.69769514845053"><ele>18.0</ele><time>2026-05-01T15:21:04Z</time></trkpt><trkpt lat="45.921402984098286" lon="12.698066907966064"><ele>18.0</ele><time>2026-05-01T15:21:05Z</time></trkpt><trkpt lat="45.92119704877351" lon="12.698437510307793"><ele>17.5</ele><time>2026-05-01T15:21:06Z</time></trkpt><trkpt lat="45.92098815807067" lon="12.698807652595509"><ele>17.0</ele><time>2026-05-01T15:21:07Z</time></trkpt><trkpt lat="45.920778346879246" lon="12.699176557047156"><ele>17.0</ele><time>2026-05-01T15:21:08Z</time></trkpt><trkpt lat="45.92056710666733" lon="12.699544531706051"><ele>17.0</ele><time>2026-05-01T15:21:09Z</time></trkpt><trkpt lat="45.920356284778656" lon="12.699910000703012"><ele>16.5</ele><time>2026-05-01T15:21:10Z</time></trkpt><trkpt lat="45.920142175406355" lon="12.700271919414435"><ele>16.0</ele><time>2026-05-01T15:21:11Z</time></trkpt><trkpt lat="45.91992135689607" lon="12.700629153762863"><ele>15.5</ele><time>2026-05-01T15:21:12Z</time></trkpt><trkpt lat="45.91969893224106" lon="12.70098412948851"><ele>15.0</ele><time>2026-05-01T15:21:13Z</time></trkpt><trkpt lat="45.91947438648228" lon="12.70133827263116"><ele>15.0</ele><time>2026-05-01T15:21:14Z</time></trkpt><trkpt lat="45.919250075964335" lon="12.701694447582053"><ele>15.0</ele><time>2026-05-01T15:21:15Z</time></trkpt><trkpt lat="45.91902552390597" lon="12.70205282160011"><ele>16.0</ele><time>2026-05-01T15:21:16Z</time></trkpt><trkpt lat="45.918800603309286" lon="12.702408841150858"><ele>17.0</ele><time>2026-05-01T15:21:17Z</time></trkpt><trkpt lat="45.91857007786897" lon="12.702762858520575"><ele>17.5</ele><time>2026-05-01T15:21:18Z</time></trkpt><trkpt lat="45.9183366060287" lon="12.703111411118282"><ele>18.0</ele><time>2026-05-01T15:21:19Z</time></trkpt><trkpt lat="45.91809951363379" lon="12.703455942085771"><ele>17.5</ele><time>2026-05-01T15:21:20Z</time></trkpt><trkpt lat="45.91786245236217" lon="12.703792693156593"><ele>17.0</ele><time>2026-05-01T15:21:21Z</time></trkpt><trkpt lat="45.9176253165925" lon="12.704127269248529"><ele>15.5</ele><time>2026-05-01T15:21:22Z</time></trkpt><trkpt lat="45.91738773847079" lon="12.704460043730405"><ele>14.0</ele><time>2026-05-01T15:21:23Z</time></trkpt><trkpt lat="45.91714960025412" lon="12.704792150583424"><ele>14.0</ele><time>2026-05-01T15:21:23.999Z</time></trkpt><trkpt lat="45.91691010606527" lon="12.705120660066186"><ele>14.0</ele><time>2026-05-01T15:21:24.999Z</time></trkpt><trkpt lat="45.91666909223509" lon="12.705442020787626"><ele>15.5</ele><time>2026-05-01T15:21:25.999Z</time></trkpt><trkpt lat="45.916426526053606" lon="12.705759172417464"><ele>17.0</ele><time>2026-05-01T15:21:26.999Z</time></trkpt><trkpt lat="45.916183938211084" lon="12.706075870981094"><ele>17.0</ele><time>2026-05-01T15:21:27.999Z</time></trkpt><trkpt lat="45.91594304763715" lon="12.70638947262437"><ele>17.0</ele><time>2026-05-01T15:21:28.999Z</time></trkpt><trkpt lat="45.91570880163402" lon="12.706691423289024"><ele>16.0</ele><time>2026-05-01T15:21:29.999Z</time></trkpt><trkpt lat="45.915474770955385" lon="12.706986553711005"><ele>15.0</ele><time>2026-05-01T15:21:30.999Z</time></trkpt><trkpt lat="45.91524147432783" lon="12.707274680314448"><ele>15.5</ele><time>2026-05-01T15:21:31.999Z</time></trkpt><trkpt lat="45.915008897912294" lon="12.707552563867711"><ele>16.0</ele><time>2026-05-01T15:21:32.999Z</time></trkpt><trkpt lat="45.91477627943864" lon="12.707830150474187"><ele>14.5</ele><time>2026-05-01T15:21:33.999Z</time></trkpt><trkpt lat="45.91454306658684" lon="12.70810846438734"><ele>13.0</ele><time>2026-05-01T15:21:34.999Z</time></trkpt><trkpt lat="45.91430808983449" lon="12.70838788259173"><ele>12.5</ele><time>2026-05-01T15:21:35.999Z</time></trkpt><trkpt lat="45.914073579892296" lon="12.708669321121102"><ele>12.0</ele><time>2026-05-01T15:21:36.999Z</time></trkpt><trkpt lat="45.913839330755145" lon="12.708952599674152"><ele>12.0</ele><time>2026-05-01T15:21:37.999Z</time></trkpt><trkpt lat="45.91360523026615" lon="12.709236991966323"><ele>12.0</ele><time>2026-05-01T15:21:38.999Z</time></trkpt><trkpt lat="45.91337163864634" lon="12.709525066563993"><ele>12.5</ele><time>2026-05-01T15:21:39.999Z</time></trkpt><trkpt lat="45.91313512441145" lon="12.709812410794992"><ele>13.0</ele><time>2026-05-01T15:21:40.999Z</time></trkpt><trkpt lat="45.912897157823316" lon="12.71009797099349"><ele>13.0</ele><time>2026-05-01T15:21:41.999Z</time></trkpt><trkpt lat="45.91265898962549" lon="12.710382363423449"><ele>13.0</ele><time>2026-05-01T15:21:42.999Z</time></trkpt><trkpt lat="45.91242055317338" lon="12.710663938361165"><ele>13.0</ele><time>2026-05-01T15:21:43.999Z</time></trkpt><trkpt lat="45.91218416111791" lon="12.71094276052113"><ele>13.0</ele><time>2026-05-01T15:21:44.999Z</time></trkpt><trkpt lat="45.91194680194371" lon="12.711222450637845"><ele>14.0</ele><time>2026-05-01T15:21:45.999Z</time></trkpt><trkpt lat="45.91171102172341" lon="12.711499431078991"><ele>15.0</ele><time>2026-05-01T15:21:46.999Z</time></trkpt><trkpt lat="45.9114771727344" lon="12.711774014648185"><ele>14.5</ele><time>2026-05-01T15:21:47.999Z</time></trkpt><trkpt lat="45.911238495984165" lon="12.712052088149882"><ele>14.0</ele><time>2026-05-01T15:21:48.999Z</time></trkpt><trkpt lat="45.91099794888016" lon="12.712334697583287"><ele>14.0</ele><time>2026-05-01T15:21:49.999Z</time></trkpt><trkpt lat="45.91075717334352" lon="12.712619926987369"><ele>14.0</ele><time>2026-05-01T15:21:50.999Z</time></trkpt><trkpt lat="45.91051589876061" lon="12.712907143737713"><ele>13.5</ele><time>2026-05-01T15:21:51.999Z</time></trkpt><trkpt lat="45.91027394537787" lon="12.713194102705668"><ele>13.0</ele><time>2026-05-01T15:21:52.999Z</time></trkpt><trkpt lat="45.9100327534861" lon="12.71347797475203"><ele>15.0</ele><time>2026-05-01T15:21:53.999Z</time></trkpt><trkpt lat="45.90979063861158" lon="12.7137645036591"><ele>17.0</ele><time>2026-05-01T15:21:54.999Z</time></trkpt><trkpt lat="45.90954766228802" lon="12.714054395739652"><ele>17.0</ele><time>2026-05-01T15:21:55.999Z</time></trkpt><trkpt lat="45.90930584008994" lon="12.714340849176217"><ele>17.0</ele><time>2026-05-01T15:21:56.999Z</time></trkpt><trkpt lat="45.90906328352758" lon="12.714627625634225"><ele>17.5</ele><time>2026-05-01T15:21:57.999Z</time></trkpt><trkpt lat="45.908818513677716" lon="12.714915375964091"><ele>18.0</ele><time>2026-05-01T15:21:58.999Z</time></trkpt><trkpt lat="45.90857226472099" lon="12.71520493769353"><ele>17.0</ele><time>2026-05-01T15:21:59.999Z</time></trkpt><trkpt lat="45.90832360588247" lon="12.715495028975171"><ele>16.0</ele><time>2026-05-01T15:22:00.999Z</time></trkpt><trkpt lat="45.908073647096884" lon="12.715786792637964"><ele>16.0</ele><time>2026-05-01T15:22:01.999Z</time></trkpt><trkpt lat="45.907821697351174" lon="12.716074910606201"><ele>16.0</ele><time>2026-05-01T15:22:02.999Z</time></trkpt><trkpt lat="45.90757070953021" lon="12.7163632768383"><ele>16.0</ele><time>2026-05-01T15:22:03.999Z</time></trkpt><trkpt lat="45.90731615117272" lon="12.716650771313647"><ele>16.0</ele><time>2026-05-01T15:22:04.999Z</time></trkpt><trkpt lat="45.90706476658346" lon="12.716936903156004"><ele>16.0</ele><time>2026-05-01T15:22:05.999Z</time></trkpt><trkpt lat="45.90681518935076" lon="12.717229376057272"><ele>16.0</ele><time>2026-05-01T15:22:06.999Z</time></trkpt><trkpt lat="45.90656848591545" lon="12.717520664179379"><ele>14.0</ele><time>2026-05-01T15:22:07.999Z</time></trkpt><trkpt lat="45.90632341049065" lon="12.71780910787807"><ele>12.0</ele><time>2026-05-01T15:22:08.999Z</time></trkpt><trkpt lat="45.90608040470887" lon="12.718097826398246"><ele>13.0</ele><time>2026-05-01T15:22:09.999Z</time></trkpt><trkpt lat="45.9058385341237" lon="12.718385737390376"><ele>14.0</ele><time>2026-05-01T15:22:10.999Z</time></trkpt><trkpt lat="45.905596188310525" lon="12.718669768837016"><ele>14.0</ele><time>2026-05-01T15:22:11.999Z</time></trkpt><trkpt lat="45.90535453761941" lon="12.71894888053338"><ele>14.0</ele><time>2026-05-01T15:22:12.999Z</time></trkpt><trkpt lat="45.90511514971258" lon="12.719227728292706"><ele>13.5</ele><time>2026-05-01T15:22:13.999Z</time></trkpt><trkpt lat="45.90487628331048" lon="12.71950580935308"><ele>13.0</ele><time>2026-05-01T15:22:14.999Z</time></trkpt><trkpt lat="45.90463912934846" lon="12.719781412238014"><ele>13.0</ele><time>2026-05-01T15:22:15.999Z</time></trkpt><trkpt lat="45.90440465690717" lon="12.720057970421408"><ele>13.0</ele><time>2026-05-01T15:22:16.999Z</time></trkpt><trkpt lat="45.90417194100437" lon="12.72033742313336"><ele>13.0</ele><time>2026-05-01T15:22:17.999Z</time></trkpt><trkpt lat="45.90393927221664" lon="12.720616474114498"><ele>13.0</ele><time>2026-05-01T15:22:18.999Z</time></trkpt><trkpt lat="45.903705239036654" lon="12.720896147076793"><ele>13.5</ele><time>2026-05-01T15:22:19.999Z</time></trkpt><trkpt lat="45.903470220810824" lon="12.721177831973192"><ele>14.0</ele><time>2026-05-01T15:22:20.999Z</time></trkpt><trkpt lat="45.90323500241606" lon="12.721460229915444"><ele>14.0</ele><time>2026-05-01T15:22:21.999Z</time></trkpt><trkpt lat="45.902998380609645" lon="12.7217414571363"><ele>14.0</ele><time>2026-05-01T15:22:22.999Z</time></trkpt><trkpt lat="45.90276210561675" lon="12.722025402797358"><ele>15.5</ele><time>2026-05-01T15:22:23.999Z</time></trkpt><trkpt lat="45.9025225349661" lon="12.722306370363418"><ele>17.0</ele><time>2026-05-01T15:22:24.999Z</time></trkpt><trkpt lat="45.90228339145484" lon="12.722586898459754"><ele>16.0</ele><time>2026-05-01T15:22:25.999Z</time></trkpt><trkpt lat="45.90204326099734" lon="12.722868702813125"><ele>15.0</ele><time>2026-05-01T15:22:26.999Z</time></trkpt><trkpt lat="45.90180242131671" lon="12.723152191040795"><ele>17.0</ele><time>2026-05-01T15:22:27.999Z</time></trkpt><trkpt lat="45.90156088486501" lon="12.723437434582943"><ele>19.0</ele><time>2026-05-01T15:22:28.999Z</time></trkpt><trkpt lat="45.901319979306706" lon="12.723723517328091"><ele>19.5</ele><time>2026-05-01T15:22:29.999Z</time></trkpt><trkpt lat="45.90108032640161" lon="12.724007950264516"><ele>20.0</ele><time>2026-05-01T15:22:30.999Z</time></trkpt><trkpt lat="45.90083974622604" lon="12.724292935284888"><ele>18.5</ele><time>2026-05-01T15:22:31.999Z</time></trkpt><trkpt lat="45.900599646052505" lon="12.724577892955717"><ele>17.0</ele><time>2026-05-01T15:22:32.999Z</time></trkpt><trkpt lat="45.90035870616574" lon="12.724863260771512"><ele>17.0</ele><time>2026-05-01T15:22:33.999Z</time></trkpt><trkpt lat="45.900117044768834" lon="12.725149577079328"><ele>17.0</ele><time>2026-05-01T15:22:35Z</time></trkpt><trkpt lat="45.89987691768807" lon="12.725432616602184"><ele>16.5</ele><time>2026-05-01T15:22:36Z</time></trkpt><trkpt lat="45.89963897791431" lon="12.725716218399798"><ele>16.0</ele><time>2026-05-01T15:22:37Z</time></trkpt><trkpt lat="45.89940026831597" lon="12.725998600493828"><ele>14.5</ele><time>2026-05-01T15:22:38Z</time></trkpt><trkpt lat="45.899162103857066" lon="12.726277968111514"><ele>13.0</ele><time>2026-05-01T15:22:39Z</time></trkpt><trkpt lat="45.89892387885184" lon="12.726555485953446"><ele>13.0</ele><time>2026-05-01T15:22:40Z</time></trkpt><trkpt lat="45.898685844180655" lon="12.726835919646247"><ele>13.0</ele><time>2026-05-01T15:22:41Z</time></trkpt><trkpt lat="45.89844702731837" lon="12.72711706194565"><ele>14.0</ele><time>2026-05-01T15:22:42Z</time></trkpt><trkpt lat="45.89820656964068" lon="12.72739851597616"><ele>15.0</ele><time>2026-05-01T15:22:43Z</time></trkpt><trkpt lat="45.89796703251559" lon="12.727682848005324"><ele>15.0</ele><time>2026-05-01T15:22:44Z</time></trkpt><trkpt lat="45.897726973808204" lon="12.72796996658385"><ele>15.0</ele><time>2026-05-01T15:22:45Z</time></trkpt><trkpt lat="45.897485697990604" lon="12.728256963883057"><ele>13.5</ele><time>2026-05-01T15:22:46Z</time></trkpt><trkpt lat="45.89724429515602" lon="12.728542003950391"><ele>12.0</ele><time>2026-05-01T15:22:47Z</time></trkpt><trkpt lat="45.89700265504433" lon="12.728828922420012"><ele>13.0</ele><time>2026-05-01T15:22:48Z</time></trkpt><trkpt lat="45.89676074660568" lon="12.729115719046675"><ele>14.0</ele><time>2026-05-01T15:22:49Z</time></trkpt><trkpt lat="45.896516967970136" lon="12.729403380950005"><ele>14.0</ele><time>2026-05-01T15:22:50Z</time></trkpt><trkpt lat="45.89627390238814" lon="12.729689970729467"><ele>14.0</ele><time>2026-05-01T15:22:51Z</time></trkpt><trkpt lat="45.89603016680949" lon="12.729978526184475"><ele>13.5</ele><time>2026-05-01T15:22:52Z</time></trkpt><trkpt lat="45.89578529002391" lon="12.730266473978553"><ele>13.0</ele><time>2026-05-01T15:22:53Z</time></trkpt><trkpt lat="45.8955393230458" lon="12.730556465988968"><ele>13.0</ele><time>2026-05-01T15:22:54Z</time></trkpt><trkpt lat="45.89529502797676" lon="12.730845138259529"><ele>13.0</ele><time>2026-05-01T15:22:55Z</time></trkpt><trkpt lat="45.8950493281782" lon="12.73113452575913"><ele>11.5</ele><time>2026-05-01T15:22:56Z</time></trkpt><trkpt lat="45.894802935446414" lon="12.731425407753504"><ele>10.0</ele><time>2026-05-01T15:22:57Z</time></trkpt><trkpt lat="45.894556819816636" lon="12.731714979992361"><ele>10.0</ele><time>2026-05-01T15:22:58Z</time></trkpt><trkpt lat="45.894308892831035" lon="12.732003288928002"><ele>10.0</ele><time>2026-05-01T15:22:59Z</time></trkpt><trkpt lat="45.89406071502047" lon="12.732290608103243"><ele>10.0</ele><time>2026-05-01T15:23:00Z</time></trkpt><trkpt lat="45.89381226206989" lon="12.732578881374495"><ele>10.0</ele><time>2026-05-01T15:23:01Z</time></trkpt><trkpt lat="45.89356519821431" lon="12.732868611385097"><ele>9.0</ele><time>2026-05-01T15:23:02Z</time></trkpt><trkpt lat="45.893317725467526" lon="12.733160658470304"><ele>8.0</ele><time>2026-05-01T15:23:03Z</time></trkpt><trkpt lat="45.89307088750308" lon="12.73345102161816"><ele>8.5</ele><time>2026-05-01T15:23:04Z</time></trkpt><trkpt lat="45.89282547494743" lon="12.733741096670977"><ele>9.0</ele><time>2026-05-01T15:23:05Z</time></trkpt><trkpt lat="45.89258485710383" lon="12.734030046488726"><ele>9.0</ele><time>2026-05-01T15:23:06Z</time></trkpt><trkpt lat="45.89234262024307" lon="12.7343171268787"><ele>9.0</ele><time>2026-05-01T15:23:07Z</time></trkpt><trkpt lat="45.8921020053771" lon="12.734603017699056"><ele>9.0</ele><time>2026-05-01T15:23:08Z</time></trkpt><trkpt lat="45.89186022479223" lon="12.734883873487595"><ele>9.0</ele><time>2026-05-01T15:23:09Z</time></trkpt><trkpt lat="45.89162157233279" lon="12.73516717958342"><ele>9.0</ele><time>2026-05-01T15:23:10Z</time></trkpt><trkpt lat="45.891384084604866" lon="12.735450636093077"><ele>9.0</ele><time>2026-05-01T15:23:11Z</time></trkpt><trkpt lat="45.891146745140304" lon="12.735726410233095"><ele>9.5</ele><time>2026-05-01T15:23:12Z</time></trkpt><trkpt lat="45.89091575552668" lon="12.736011996496059"><ele>10.0</ele><time>2026-05-01T15:23:13Z</time></trkpt><trkpt lat="45.890683599012924" lon="12.73628962737237"><ele>10.0</ele><time>2026-05-01T15:23:14Z</time></trkpt><trkpt lat="45.89044897584988" lon="12.736569589168385"><ele>10.0</ele><time>2026-05-01T15:23:15Z</time></trkpt><trkpt lat="45.89021517808307" lon="12.736854581604385"><ele>12.0</ele><time>2026-05-01T15:23:16Z</time></trkpt><trkpt lat="45.88998235878051" lon="12.737140048767023"><ele>14.0</ele><time>2026-05-01T15:23:17Z</time></trkpt><trkpt lat="45.889747342592855" lon="12.73743048770192"><ele>14.0</ele><time>2026-05-01T15:23:18Z</time></trkpt><trkpt lat="45.88951080956262" lon="12.7377216120182"><ele>14.0</ele><time>2026-05-01T15:23:19Z</time></trkpt><trkpt lat="45.88927101364399" lon="12.738008979029035"><ele>14.0</ele><time>2026-05-01T15:23:20Z</time></trkpt><trkpt lat="45.88902893736308" lon="12.738294632316846"><ele>14.0</ele><time>2026-05-01T15:23:21Z</time></trkpt><trkpt lat="45.888786047501895" lon="12.738580100147777"><ele>14.0</ele><time>2026-05-01T15:23:22Z</time></trkpt><trkpt lat="45.88853953131535" lon="12.73886683159959"><ele>14.0</ele><time>2026-05-01T15:23:23Z</time></trkpt><trkpt lat="45.88828863707737" lon="12.739152783515507"><ele>13.5</ele><time>2026-05-01T15:23:24Z</time></trkpt><trkpt lat="45.88803520630502" lon="12.739437615648978"><ele>13.0</ele><time>2026-05-01T15:23:25Z</time></trkpt><trkpt lat="45.88778139619423" lon="12.739722846364828"><ele>13.5</ele><time>2026-05-01T15:23:26Z</time></trkpt><trkpt lat="45.887529691649924" lon="12.740010454007654"><ele>14.0</ele><time>2026-05-01T15:23:27Z</time></trkpt><trkpt lat="45.887279904613" lon="12.740300061487712"><ele>14.0</ele><time>2026-05-01T15:23:28Z</time></trkpt><trkpt lat="45.8870316862033" lon="12.740594609767397"><ele>14.0</ele><time>2026-05-01T15:23:28.999Z</time></trkpt><trkpt lat="45.886783177311884" lon="12.740889007271198"><ele>14.5</ele><time>2026-05-01T15:23:29.999Z</time></trkpt><trkpt lat="45.88653508500061" lon="12.741179071093743"><ele>15.0</ele><time>2026-05-01T15:23:30.999Z</time></trkpt><trkpt lat="45.88628720646608" lon="12.741467410500167"><ele>15.0</ele><time>2026-05-01T15:23:31.999Z</time></trkpt><trkpt lat="45.886039243962635" lon="12.741753444377895"><ele>15.0</ele><time>2026-05-01T15:23:32.999Z</time></trkpt><trkpt lat="45.885792754994526" lon="12.74204199768633"><ele>16.0</ele><time>2026-05-01T15:23:33.999Z</time></trkpt><trkpt lat="45.885546402149785" lon="12.742330822895333"><ele>17.0</ele><time>2026-05-01T15:23:34.999Z</time></trkpt><trkpt lat="45.88529994767401" lon="12.742621596497747"><ele>17.5</ele><time>2026-05-01T15:23:35.999Z</time></trkpt><trkpt lat="45.88505342921525" lon="12.742911946060191"><ele>18.0</ele><time>2026-05-01T15:23:36.999Z</time></trkpt><trkpt lat="45.88480533260648" lon="12.743205197686612"><ele>18.0</ele><time>2026-05-01T15:23:37.999Z</time></trkpt><trkpt lat="45.88455900970441" lon="12.743498424671735"><ele>18.0</ele><time>2026-05-01T15:23:38.999Z</time></trkpt><trkpt lat="45.88431378234924" lon="12.743790003374361"><ele>16.5</ele><time>2026-05-01T15:23:39.999Z</time></trkpt><trkpt lat="45.884069892702655" lon="12.744081096342155"><ele>15.0</ele><time>2026-05-01T15:23:40.999Z</time></trkpt><trkpt lat="45.88382274859436" lon="12.744371578588995"><ele>14.5</ele><time>2026-05-01T15:23:41.999Z</time></trkpt><trkpt lat="45.88357539457509" lon="12.74466054666434"><ele>14.0</ele><time>2026-05-01T15:23:42.999Z</time></trkpt><trkpt lat="45.88332955569642" lon="12.744950902603346"><ele>14.0</ele><time>2026-05-01T15:23:43.999Z</time></trkpt><trkpt lat="45.88308508808922" lon="12.745244245963644"><ele>14.0</ele><time>2026-05-01T15:23:44.999Z</time></trkpt><trkpt lat="45.882842253421835" lon="12.745535784225998"><ele>14.0</ele><time>2026-05-01T15:23:45.999Z</time></trkpt><trkpt lat="45.88260015549776" lon="12.745829397833504"><ele>14.0</ele><time>2026-05-01T15:23:46.999Z</time></trkpt><trkpt lat="45.88235971987542" lon="12.746123526424249"><ele>14.5</ele><time>2026-05-01T15:23:47.999Z</time></trkpt><trkpt lat="45.88211927287166" lon="12.746416930063464"><ele>15.0</ele><time>2026-05-01T15:23:48.999Z</time></trkpt><trkpt lat="45.881878651496535" lon="12.746710126792262"><ele>14.5</ele><time>2026-05-01T15:23:49.999Z</time></trkpt><trkpt lat="45.881636049077656" lon="12.747006620709708"><ele>14.0</ele><time>2026-05-01T15:23:50.999Z</time></trkpt><trkpt lat="45.88139211639616" lon="12.747300076518286"><ele>14.0</ele><time>2026-05-01T15:23:51.999Z</time></trkpt><trkpt lat="45.88114853745754" lon="12.747591243232462"><ele>14.0</ele><time>2026-05-01T15:23:52.999Z</time></trkpt><trkpt lat="45.88090310973178" lon="12.747881385250551"><ele>14.5</ele><time>2026-05-01T15:23:53.999Z</time></trkpt><trkpt lat="45.88065777178755" lon="12.748170565379821"><ele>15.0</ele><time>2026-05-01T15:23:54.999Z</time></trkpt><trkpt lat="45.88041022547911" lon="12.748461317938556"><ele>14.5</ele><time>2026-05-01T15:23:55.999Z</time></trkpt><trkpt lat="45.880162372086765" lon="12.748752463995602"><ele>14.0</ele><time>2026-05-01T15:23:56.999Z</time></trkpt><trkpt lat="45.8799155117012" lon="12.749042390584753"><ele>14.0</ele><time>2026-05-01T15:23:57.999Z</time></trkpt><trkpt lat="45.87967028303001" lon="12.749331537531575"><ele>14.0</ele><time>2026-05-01T15:23:58.999Z</time></trkpt><trkpt lat="45.87942701804891" lon="12.749620423279605"><ele>13.5</ele><time>2026-05-01T15:23:59.999Z</time></trkpt><trkpt lat="45.8791826300082" lon="12.749910437753835"><ele>13.0</ele><time>2026-05-01T15:24:00.999Z</time></trkpt><trkpt lat="45.87893714937362" lon="12.750200200583555"><ele>13.0</ele><time>2026-05-01T15:24:01.999Z</time></trkpt><trkpt lat="45.878690350132224" lon="12.750488686403283"><ele>13.0</ele><time>2026-05-01T15:24:02.999Z</time></trkpt><trkpt lat="45.87844158225499" lon="12.750775392893754"><ele>13.0</ele><time>2026-05-01T15:24:03.999Z</time></trkpt><trkpt lat="45.878191498388915" lon="12.751061270634997"><ele>13.0</ele><time>2026-05-01T15:24:04.999Z</time></trkpt><trkpt lat="45.87793801470246" lon="12.751341366918547"><ele>13.0</ele><time>2026-05-01T15:24:05.999Z</time></trkpt><trkpt lat="45.877684557945265" lon="12.751622431961753"><ele>13.0</ele><time>2026-05-01T15:24:06.999Z</time></trkpt><trkpt lat="45.87743227637941" lon="12.751900720105848"><ele>12.5</ele><time>2026-05-01T15:24:07.999Z</time></trkpt><trkpt lat="45.87717977132969" lon="12.752181573378214"><ele>12.0</ele><time>2026-05-01T15:24:08.999Z</time></trkpt><trkpt lat="45.87692708599236" lon="12.752461732033462"><ele>12.0</ele><time>2026-05-01T15:24:09.999Z</time></trkpt><trkpt lat="45.876672955248964" lon="12.752742198790601"><ele>12.0</ele><time>2026-05-01T15:24:10.999Z</time></trkpt><trkpt lat="45.876417026205665" lon="12.753024210482955"><ele>12.0</ele><time>2026-05-01T15:24:11.999Z</time></trkpt><trkpt lat="45.87615939571368" lon="12.75330317714001"><ele>12.0</ele><time>2026-05-01T15:24:12.999Z</time></trkpt><trkpt lat="45.87590064948851" lon="12.75358104561323"><ele>11.5</ele><time>2026-05-01T15:24:13.999Z</time></trkpt><trkpt lat="45.875642337862914" lon="12.753860795787721"><ele>11.0</ele><time>2026-05-01T15:24:14.999Z</time></trkpt><trkpt lat="45.8753822712602" lon="12.754138227334579"><ele>11.0</ele><time>2026-05-01T15:24:15.999Z</time></trkpt><trkpt lat="45.875121729776296" lon="12.754410716917334"><ele>11.0</ele><time>2026-05-01T15:24:16.999Z</time></trkpt><trkpt lat="45.87485932476831" lon="12.75468385620322"><ele>11.0</ele><time>2026-05-01T15:24:17.999Z</time></trkpt><trkpt lat="45.874597929684164" lon="12.754959581844487"><ele>11.0</ele><time>2026-05-01T15:24:18.999Z</time></trkpt><trkpt lat="45.87433636865714" lon="12.755238885355991"><ele>11.0</ele><time>2026-05-01T15:24:19.999Z</time></trkpt><trkpt lat="45.874079083963515" lon="12.755516622972111"><ele>11.0</ele><time>2026-05-01T15:24:20.999Z</time></trkpt><trkpt lat="45.87382120889178" lon="12.755796719070913"><ele>10.5</ele><time>2026-05-01T15:24:21.999Z</time></trkpt><trkpt lat="45.873563150587714" lon="12.75607573204307"><ele>10.0</ele><time>2026-05-01T15:24:22.999Z</time></trkpt><trkpt lat="45.87330419336826" lon="12.756356685554392"><ele>11.0</ele><time>2026-05-01T15:24:23.999Z</time></trkpt><trkpt lat="45.87304382031542" lon="12.756637957227037"><ele>12.0</ele><time>2026-05-01T15:24:24.999Z</time></trkpt><trkpt lat="45.87278477714406" lon="12.756916005734123"><ele>13.0</ele><time>2026-05-01T15:24:25.999Z</time></trkpt><trkpt lat="45.87252630403418" lon="12.75719311527665"><ele>14.0</ele><time>2026-05-01T15:24:26.999Z</time></trkpt><trkpt lat="45.8722686244266" lon="12.757467830695452"><ele>14.0</ele><time>2026-05-01T15:24:27.999Z</time></trkpt><trkpt lat="45.87201414203455" lon="12.757742711255299"><ele>14.0</ele><time>2026-05-01T15:24:28.999Z</time></trkpt><trkpt lat="45.87175870692618" lon="12.758018721831625"><ele>14.0</ele><time>2026-05-01T15:24:29.999Z</time></trkpt><trkpt lat="45.871504460545" lon="12.75829564226177"><ele>14.0</ele><time>2026-05-01T15:24:30.999Z</time></trkpt><trkpt lat="45.871250002141" lon="12.758571230855692"><ele>13.5</ele><time>2026-05-01T15:24:31.999Z</time></trkpt><trkpt lat="45.8709964941815" lon="12.758845185821018"><ele>13.0</ele><time>2026-05-01T15:24:32.999Z</time></trkpt><trkpt lat="45.870742531104156" lon="12.759121334142204"><ele>12.5</ele><time>2026-05-01T15:24:33.999Z</time></trkpt><trkpt lat="45.870487589627636" lon="12.759398640690073"><ele>12.0</ele><time>2026-05-01T15:24:34.999Z</time></trkpt><trkpt lat="45.87023288764216" lon="12.759674222682442"><ele>12.0</ele><time>2026-05-01T15:24:35.999Z</time></trkpt><trkpt lat="45.86997881403002" lon="12.759950896436273"><ele>12.0</ele><time>2026-05-01T15:24:36.999Z</time></trkpt><trkpt lat="45.86972549276896" lon="12.760226845202466"><ele>12.0</ele><time>2026-05-01T15:24:37.999Z</time></trkpt><trkpt lat="45.86947325203964" lon="12.76050456489983"><ele>12.0</ele><time>2026-05-01T15:24:38.999Z</time></trkpt><trkpt lat="45.8692220058277" lon="12.760781112812792"><ele>14.0</ele><time>2026-05-01T15:24:39.999Z</time></trkpt><trkpt lat="45.86897022825481" lon="12.761055121487816"><ele>16.0</ele><time>2026-05-01T15:24:41Z</time></trkpt><trkpt lat="45.86871926255606" lon="12.76132622053049"><ele>16.0</ele><time>2026-05-01T15:24:42Z</time></trkpt><trkpt lat="45.86846953697533" lon="12.761596211977555"><ele>16.0</ele><time>2026-05-01T15:24:43Z</time></trkpt><trkpt lat="45.86822017898461" lon="12.761866637586435"><ele>14.5</ele><time>2026-05-01T15:24:44Z</time></trkpt><trkpt lat="45.86797193335219" lon="12.762136048427708"><ele>13.0</ele><time>2026-05-01T15:24:45Z</time></trkpt><trkpt lat="45.867722883081605" lon="12.762402899312745"><ele>13.5</ele><time>2026-05-01T15:24:46Z</time></trkpt><trkpt lat="45.867476267324456" lon="12.762670423791858"><ele>14.0</ele><time>2026-05-01T15:24:47Z</time></trkpt><trkpt lat="45.86723059985482" lon="12.762941012519182"><ele>14.0</ele><time>2026-05-01T15:24:48Z</time></trkpt><trkpt lat="45.86698780873759" lon="12.763215360954241"><ele>14.0</ele><time>2026-05-01T15:24:49Z</time></trkpt><trkpt lat="45.86674755913918" lon="12.763496567574398"><ele>13.0</ele><time>2026-05-01T15:24:50Z</time></trkpt><trkpt lat="45.86651084084875" lon="12.763780875317558"><ele>12.0</ele><time>2026-05-01T15:24:51Z</time></trkpt><trkpt lat="45.86627563616225" lon="12.764065506494138"><ele>12.0</ele><time>2026-05-01T15:24:52Z</time></trkpt><trkpt lat="45.866041185532474" lon="12.764351227508788"><ele>12.0</ele><time>2026-05-01T15:24:53Z</time></trkpt><trkpt lat="45.86580621794506" lon="12.764638699020468"><ele>13.0</ele><time>2026-05-01T15:24:54Z</time></trkpt><trkpt lat="45.865571681051996" lon="12.764925761537059"><ele>14.0</ele><time>2026-05-01T15:24:55Z</time></trkpt><trkpt lat="45.86533761131035" lon="12.76521310656513"><ele>14.0</ele><time>2026-05-01T15:24:56Z</time></trkpt><trkpt lat="45.86510420679491" lon="12.765504519512845"><ele>14.0</ele><time>2026-05-01T15:24:57Z</time></trkpt><trkpt lat="45.8648731176403" lon="12.765800563451391"><ele>13.0</ele><time>2026-05-01T15:24:58Z</time></trkpt><trkpt lat="45.86464394277718" lon="12.766098300524641"><ele>12.0</ele><time>2026-05-01T15:24:59Z</time></trkpt><trkpt lat="45.864416670827346" lon="12.766399125204998"><ele>12.0</ele><time>2026-05-01T15:25:00Z</time></trkpt><trkpt lat="45.864190531080595" lon="12.766702365233773"><ele>12.0</ele><time>2026-05-01T15:25:01Z</time></trkpt><trkpt lat="45.863966084750245" lon="12.76700601061782"><ele>12.5</ele><time>2026-05-01T15:25:02Z</time></trkpt><trkpt lat="45.86374246360407" lon="12.767311170007204"><ele>13.0</ele><time>2026-05-01T15:25:03Z</time></trkpt><trkpt lat="45.86352077340649" lon="12.767617806345914"><ele>13.5</ele><time>2026-05-01T15:25:04Z</time></trkpt><trkpt lat="45.86330159454901" lon="12.767925048221713"><ele>14.0</ele><time>2026-05-01T15:25:05Z</time></trkpt><trkpt lat="45.863081672931386" lon="12.768233173574746"><ele>14.0</ele><time>2026-05-01T15:25:06Z</time></trkpt><trkpt lat="45.862861418640634" lon="12.768536365554073"><ele>14.0</ele><time>2026-05-01T15:25:07Z</time></trkpt><trkpt lat="45.862641541724685" lon="12.768837817931086"><ele>14.0</ele><time>2026-05-01T15:25:08Z</time></trkpt><trkpt lat="45.862422320662006" lon="12.769141504775282"><ele>14.0</ele><time>2026-05-01T15:25:09Z</time></trkpt><trkpt lat="45.86220361278836" lon="12.76944231054426"><ele>13.5</ele><time>2026-05-01T15:25:10Z</time></trkpt><trkpt lat="45.86198554872124" lon="12.769743721115622"><ele>13.0</ele><time>2026-05-01T15:25:11Z</time></trkpt><trkpt lat="45.861766520514784" lon="12.7700474674714"><ele>12.5</ele><time>2026-05-01T15:25:12Z</time></trkpt><trkpt lat="45.861548005603524" lon="12.770349236904346"><ele>12.0</ele><time>2026-05-01T15:25:13Z</time></trkpt><trkpt lat="45.86132923187446" lon="12.770649815226962"><ele>12.0</ele><time>2026-05-01T15:25:14Z</time></trkpt><trkpt lat="45.861110834987095" lon="12.77095087212849"><ele>12.0</ele><time>2026-05-01T15:25:15Z</time></trkpt><trkpt lat="45.86089332030567" lon="12.771250057519186"><ele>13.5</ele><time>2026-05-01T15:25:16Z</time></trkpt><trkpt lat="45.86067477277179" lon="12.771547940073063"><ele>15.0</ele><time>2026-05-01T15:25:17Z</time></trkpt><trkpt lat="45.86045724851984" lon="12.77184550187857"><ele>15.0</ele><time>2026-05-01T15:25:18Z</time></trkpt><trkpt lat="45.86023951521482" lon="12.772145153539334"><ele>15.0</ele><time>2026-05-01T15:25:19Z</time></trkpt><trkpt lat="45.86002378371532" lon="12.772441491867918"><ele>15.5</ele><time>2026-05-01T15:25:20Z</time></trkpt><trkpt lat="45.85980764538044" lon="12.772739970763878"><ele>16.0</ele><time>2026-05-01T15:25:21Z</time></trkpt><trkpt lat="45.85959095620265" lon="12.773036865326102"><ele>16.0</ele><time>2026-05-01T15:25:22Z</time></trkpt><trkpt lat="45.859374533584266" lon="12.77333655725343"><ele>16.0</ele><time>2026-05-01T15:25:23Z</time></trkpt><trkpt lat="45.85916212799429" lon="12.773638654758741"><ele>15.0</ele><time>2026-05-01T15:25:24Z</time></trkpt><trkpt lat="45.8589488671902" lon="12.773939950465795"><ele>14.0</ele><time>2026-05-01T15:25:25Z</time></trkpt><trkpt lat="45.85873237105594" lon="12.774236970079354"><ele>13.5</ele><time>2026-05-01T15:25:26Z</time></trkpt><trkpt lat="45.85851393070999" lon="12.774531518120291"><ele>13.0</ele><time>2026-05-01T15:25:27Z</time></trkpt><trkpt lat="45.85829490016617" lon="12.774828244331793"><ele>12.5</ele><time>2026-05-01T15:25:28Z</time></trkpt><trkpt lat="45.85807648154168" lon="12.775126874372965"><ele>12.0</ele><time>2026-05-01T15:25:29Z</time></trkpt><trkpt lat="45.85785732856939" lon="12.775428201119645"><ele>12.0</ele><time>2026-05-01T15:25:29.999Z</time></trkpt><trkpt lat="45.85763659610859" lon="12.77573012372968"><ele>12.0</ele><time>2026-05-01T15:25:30.999Z</time></trkpt><trkpt lat="45.85741659134815" lon="12.776032555327115"><ele>11.5</ele><time>2026-05-01T15:25:31.999Z</time></trkpt><trkpt lat="45.857197802238716" lon="12.776334197904378"><ele>11.0</ele><time>2026-05-01T15:25:32.999Z</time></trkpt><trkpt lat="45.85698164727581" lon="12.776633418941787"><ele>11.0</ele><time>2026-05-01T15:25:33.999Z</time></trkpt><trkpt lat="45.856764147570466" lon="12.776929283347377"><ele>11.0</ele><time>2026-05-01T15:25:34.999Z</time></trkpt><trkpt lat="45.85654835132856" lon="12.777223651957963"><ele>11.0</ele><time>2026-05-01T15:25:35.999Z</time></trkpt><trkpt lat="45.85633389764038" lon="12.777516977131011"><ele>11.0</ele><time>2026-05-01T15:25:36.999Z</time></trkpt><trkpt lat="45.85611925401164" lon="12.777811975342733"><ele>12.0</ele><time>2026-05-01T15:25:37.999Z</time></trkpt><trkpt lat="45.8559061083628" lon="12.778104137498282"><ele>13.0</ele><time>2026-05-01T15:25:38.999Z</time></trkpt><trkpt lat="45.855695499355186" lon="12.778395109609013"><ele>12.0</ele><time>2026-05-01T15:25:39.999Z</time></trkpt><trkpt lat="45.8554841240858" lon="12.778684559353755"><ele>11.0</ele><time>2026-05-01T15:25:40.999Z</time></trkpt><trkpt lat="45.85527011448349" lon="12.7789712065368"><ele>11.0</ele><time>2026-05-01T15:25:41.999Z</time></trkpt><trkpt lat="45.85505506946996" lon="12.779258543012855"><ele>11.0</ele><time>2026-05-01T15:25:42.999Z</time></trkpt><trkpt lat="45.85483808869075" lon="12.779545442887379"><ele>11.0</ele><time>2026-05-01T15:25:43.999Z</time></trkpt><trkpt lat="45.854618937890116" lon="12.779830317508234"><ele>11.0</ele><time>2026-05-01T15:25:44.999Z</time></trkpt><trkpt lat="45.85439740095372" lon="12.780111930026658"><ele>12.0</ele><time>2026-05-01T15:25:45.999Z</time></trkpt><trkpt lat="45.85417492629153" lon="12.780392729796548"><ele>13.0</ele><time>2026-05-01T15:25:46.999Z</time></trkpt><trkpt lat="45.85395211308403" lon="12.780675602891389"><ele>13.0</ele><time>2026-05-01T15:25:47.999Z</time></trkpt><trkpt lat="45.85372842651429" lon="12.780960526479582"><ele>13.0</ele><time>2026-05-01T15:25:48.999Z</time></trkpt><trkpt lat="45.85350391067481" lon="12.781245355723378"><ele>11.5</ele><time>2026-05-01T15:25:49.999Z</time></trkpt><trkpt lat="45.85327760241022" lon="12.781525510830651"><ele>10.0</ele><time>2026-05-01T15:25:50.999Z</time></trkpt><trkpt lat="45.853048709525154" lon="12.78180400158742"><ele>10.5</ele><time>2026-05-01T15:25:51.999Z</time></trkpt><trkpt lat="45.85281736621663" lon="12.782077312977968"><ele>11.0</ele><time>2026-05-01T15:25:52.999Z</time></trkpt><trkpt lat="45.85258504591102" lon="12.782348186171568"><ele>11.0</ele><time>2026-05-01T15:25:53.999Z</time></trkpt><trkpt lat="45.85235496868666" lon="12.782620074629923"><ele>11.0</ele><time>2026-05-01T15:25:54.999Z</time></trkpt><trkpt lat="45.85212364089175" lon="12.78289324062084"><ele>11.0</ele><time>2026-05-01T15:25:55.999Z</time></trkpt><trkpt lat="45.851891832106624" lon="12.783169163747631"><ele>11.0</ele><time>2026-05-01T15:25:56.999Z</time></trkpt><trkpt lat="45.85165846864005" lon="12.783444487750529"><ele>10.5</ele><time>2026-05-01T15:25:57.999Z</time></trkpt><trkpt lat="45.851420776289146" lon="12.783714923807896"><ele>10.0</ele><time>2026-05-01T15:25:58.999Z</time></trkpt><trkpt lat="45.851181237980356" lon="12.783987504563909"><ele>10.0</ele><time>2026-05-01T15:25:59.999Z</time></trkpt><trkpt lat="45.85093704657161" lon="12.784258548790662"><ele>10.0</ele><time>2026-05-01T15:26:00.999Z</time></trkpt><trkpt lat="45.850691133226185" lon="12.78452921351317"><ele>10.5</ele><time>2026-05-01T15:26:01.999Z</time></trkpt><trkpt lat="45.85044447686493" lon="12.784799382608469"><ele>11.0</ele><time>2026-05-01T15:26:02.999Z</time></trkpt><trkpt lat="45.85019649929255" lon="12.785069209480458"><ele>11.5</ele><time>2026-05-01T15:26:03.999Z</time></trkpt><trkpt lat="45.84994684630311" lon="12.785339442309118"><ele>12.0</ele><time>2026-05-01T15:26:04.999Z</time></trkpt><trkpt lat="45.84969625382451" lon="12.785608256402718"><ele>12.0</ele><time>2026-05-01T15:26:05.999Z</time></trkpt><trkpt lat="45.849443028989995" lon="12.785875319204195"><ele>12.0</ele><time>2026-05-01T15:26:06.999Z</time></trkpt><trkpt lat="45.84918824375588" lon="12.786141009168624"><ele>12.5</ele><time>2026-05-01T15:26:07.999Z</time></trkpt><trkpt lat="45.84893257162992" lon="12.786402894234236"><ele>13.0</ele><time>2026-05-01T15:26:08.999Z</time></trkpt><trkpt lat="45.848673929730175" lon="12.786662564987834"><ele>12.0</ele><time>2026-05-01T15:26:09.999Z</time></trkpt><trkpt lat="45.84841354899653" lon="12.786922007097148"><ele>11.0</ele><time>2026-05-01T15:26:10.999Z</time></trkpt><trkpt lat="45.84815321701522" lon="12.787179499503713"><ele>11.0</ele><time>2026-05-01T15:26:11.999Z</time></trkpt><trkpt lat="45.84789067357231" lon="12.787436986051386"><ele>11.0</ele><time>2026-05-01T15:26:12.999Z</time></trkpt><trkpt lat="45.847626706953825" lon="12.787693102045997"><ele>11.0</ele><time>2026-05-01T15:26:13.999Z</time></trkpt><trkpt lat="45.84736410219328" lon="12.787944759306331"><ele>11.0</ele><time>2026-05-01T15:26:14.999Z</time></trkpt><trkpt lat="45.847101378704245" lon="12.788196283475754"><ele>11.0</ele><time>2026-05-01T15:26:15.999Z</time></trkpt><trkpt lat="45.84684005160998" lon="12.788449455103098"><ele>11.0</ele><time>2026-05-01T15:26:16.999Z</time></trkpt><trkpt lat="45.84657890946006" lon="12.788699425202232"><ele>11.5</ele><time>2026-05-01T15:26:17.999Z</time></trkpt><trkpt lat="45.84631780652143" lon="12.788945841757815"><ele>12.0</ele><time>2026-05-01T15:26:18.999Z</time></trkpt><trkpt lat="45.84605759014447" lon="12.789187373047906"><ele>12.0</ele><time>2026-05-01T15:26:19.999Z</time></trkpt><trkpt lat="45.84580075978722" lon="12.789421199257644"><ele>12.0</ele><time>2026-05-01T15:26:20.999Z</time></trkpt><trkpt lat="45.845549695745476" lon="12.78964676199674"><ele>12.0</ele><time>2026-05-01T15:26:21.999Z</time></trkpt><trkpt lat="45.845303086124474" lon="12.789862864226897"><ele>12.0</ele><time>2026-05-01T15:26:22.999Z</time></trkpt><trkpt lat="45.845058478148104" lon="12.790073341232585"><ele>11.0</ele><time>2026-05-01T15:26:23.999Z</time></trkpt><trkpt lat="45.84482092025056" lon="12.790279576769416"><ele>10.0</ele><time>2026-05-01T15:26:24.999Z</time></trkpt><trkpt lat="45.844588636458184" lon="12.79048283180983"><ele>10.0</ele><time>2026-05-01T15:26:25.999Z</time></trkpt><trkpt lat="45.84435327459545" lon="12.790688311674995"><ele>10.0</ele><time>2026-05-01T15:26:26.999Z</time></trkpt><trkpt lat="45.84411818249836" lon="12.790902970564886"><ele>9.5</ele><time>2026-05-01T15:26:27.999Z</time></trkpt><trkpt lat="45.84387902872039" lon="12.791128319572705"><ele>9.0</ele><time>2026-05-01T15:26:28.999Z</time></trkpt><trkpt lat="45.8436285797841" lon="12.791354158992387"><ele>9.0</ele><time>2026-05-01T15:26:29.999Z</time></trkpt><trkpt lat="45.843368287634064" lon="12.79157759121937"><ele>9.0</ele><time>2026-05-01T15:26:30.999Z</time></trkpt><trkpt lat="45.843096950180886" lon="12.791800969167042"><ele>9.0</ele><time>2026-05-01T15:26:31.999Z</time></trkpt><trkpt lat="45.84282008907639" lon="12.79202320389857"><ele>9.0</ele><time>2026-05-01T15:26:32.999Z</time></trkpt><trkpt lat="45.84254123284641" lon="12.792249620998904"><ele>8.5</ele><time>2026-05-01T15:26:33.999Z</time></trkpt><trkpt lat="45.84226149912172" lon="12.792484361123583"><ele>8.0</ele><time>2026-05-01T15:26:34.999Z</time></trkpt><trkpt lat="45.84198246882268" lon="12.792721003623752"><ele>7.0</ele><time>2026-05-01T15:26:35.999Z</time></trkpt><trkpt lat="45.84170218670766" lon="12.792958995720024"><ele>6.0</ele><time>2026-05-01T15:26:36.999Z</time></trkpt><trkpt lat="45.841423780824144" lon="12.793197921584582"><ele>6.0</ele><time>2026-05-01T15:26:37.999Z</time></trkpt><trkpt lat="45.84114605930149" lon="12.793440428446615"><ele>6.0</ele><time>2026-05-01T15:26:38.999Z</time></trkpt><trkpt lat="45.84086844324847" lon="12.793682368440045"><ele>6.5</ele><time>2026-05-01T15:26:39.999Z</time></trkpt><trkpt lat="45.840591169106176" lon="12.793921666018123"><ele>7.0</ele><time>2026-05-01T15:26:40.999Z</time></trkpt><trkpt lat="45.84031387723951" lon="12.794159663671474"><ele>8.0</ele><time>2026-05-01T15:26:41.999Z</time></trkpt><trkpt lat="45.84003754258259" lon="12.794395295110201"><ele>9.0</ele><time>2026-05-01T15:26:42.999Z</time></trkpt><trkpt lat="45.83976341913403" lon="12.794629751095291"><ele>9.0</ele><time>2026-05-01T15:26:43.999Z</time></trkpt><trkpt lat="45.83949124446917" lon="12.794863373348877"><ele>9.0</ele><time>2026-05-01T15:26:44.999Z</time></trkpt><trkpt lat="45.83921873375151" lon="12.795098788930241"><ele>8.5</ele><time>2026-05-01T15:26:45.999Z</time></trkpt><trkpt lat="45.838947093378145" lon="12.795334335970301"><ele>8.0</ele><time>2026-05-01T15:26:47Z</time></trkpt><trkpt lat="45.838675003032236" lon="12.795568171105565"><ele>8.0</ele><time>2026-05-01T15:26:48Z</time></trkpt><trkpt lat="45.83840394630276" lon="12.795801412577507"><ele>8.0</ele><time>2026-05-01T15:26:49Z</time></trkpt><trkpt lat="45.838131860253846" lon="12.796034608721143"><ele>8.0</ele><time>2026-05-01T15:26:50Z</time></trkpt><trkpt lat="45.83786323064121" lon="12.796268716220473"><ele>8.0</ele><time>2026-05-01T15:26:51Z</time></trkpt><trkpt lat="45.83759544387422" lon="12.796500683835685"><ele>7.5</ele><time>2026-05-01T15:26:52Z</time></trkpt><trkpt lat="45.83732825334499" lon="12.796728352636244"><ele>7.0</ele><time>2026-05-01T15:26:53Z</time></trkpt><trkpt lat="45.837062787571874" lon="12.796954273758192"><ele>7.5</ele><time>2026-05-01T15:26:54Z</time></trkpt><trkpt lat="45.836798027050435" lon="12.797181254765812"><ele>8.0</ele><time>2026-05-01T15:26:55Z</time></trkpt><trkpt lat="45.83653470762365" lon="12.797409097704485"><ele>8.0</ele><time>2026-05-01T15:26:56Z</time></trkpt><trkpt lat="45.83627099256725" lon="12.797636889032393"><ele>8.0</ele><time>2026-05-01T15:26:57Z</time></trkpt><trkpt lat="45.83600839466632" lon="12.797865486806952"><ele>7.5</ele><time>2026-05-01T15:26:58Z</time></trkpt><trkpt lat="45.83574785035885" lon="12.798093875199731"><ele>7.0</ele><time>2026-05-01T15:26:59Z</time></trkpt><trkpt lat="45.83548849455576" lon="12.798321170742721"><ele>8.0</ele><time>2026-05-01T15:27:00Z</time></trkpt><trkpt lat="45.83523166350181" lon="12.798546025898169"><ele>9.0</ele><time>2026-05-01T15:27:01Z</time></trkpt><trkpt lat="45.83497787616282" lon="12.79876819510838"><ele>9.0</ele><time>2026-05-01T15:27:02Z</time></trkpt><trkpt lat="45.83472449716307" lon="12.798989850164128"><ele>9.0</ele><time>2026-05-01T15:27:03Z</time></trkpt><trkpt lat="45.83446888390452" lon="12.799212416252226"><ele>8.0</ele><time>2026-05-01T15:27:04Z</time></trkpt><trkpt lat="45.83421308175988" lon="12.799434132516655"><ele>7.0</ele><time>2026-05-01T15:27:05Z</time></trkpt><trkpt lat="45.833957514949496" lon="12.799656280048637"><ele>7.0</ele><time>2026-05-01T15:27:06Z</time></trkpt><trkpt lat="45.83370364896937" lon="12.799883460398503"><ele>7.0</ele><time>2026-05-01T15:27:07Z</time></trkpt><trkpt lat="45.83345193277726" lon="12.800113522436853"><ele>7.0</ele><time>2026-05-01T15:27:08Z</time></trkpt><trkpt lat="45.83319975568613" lon="12.80034323080942"><ele>7.0</ele><time>2026-05-01T15:27:09Z</time></trkpt><trkpt lat="45.832946555831676" lon="12.800570987993298"><ele>7.0</ele><time>2026-05-01T15:27:10Z</time></trkpt><trkpt lat="45.83268976183818" lon="12.800793436175118"><ele>7.0</ele><time>2026-05-01T15:27:11Z</time></trkpt><trkpt lat="45.832430867947615" lon="12.801017140588804"><ele>6.5</ele><time>2026-05-01T15:27:12Z</time></trkpt><trkpt lat="45.832169498958734" lon="12.801240922084832"><ele>6.0</ele><time>2026-05-01T15:27:13Z</time></trkpt><trkpt lat="45.8319067446942" lon="12.801464456773688"><ele>6.5</ele><time>2026-05-01T15:27:14Z</time></trkpt><trkpt lat="45.831639824416115" lon="12.801679497035806"><ele>7.0</ele><time>2026-05-01T15:27:15Z</time></trkpt><trkpt lat="45.83137208745644" lon="12.80189294039361"><ele>7.0</ele><time>2026-05-01T15:27:16Z</time></trkpt><trkpt lat="45.831106322652715" lon="12.802111276753669"><ele>7.0</ele><time>2026-05-01T15:27:17Z</time></trkpt><trkpt lat="45.83084339398249" lon="12.8023350851849"><ele>7.0</ele><time>2026-05-01T15:27:18Z</time></trkpt><trkpt lat="45.83058200920349" lon="12.802564153489838"><ele>7.0</ele><time>2026-05-01T15:27:19Z</time></trkpt><trkpt lat="45.83032227930221" lon="12.802791263813589"><ele>6.5</ele><time>2026-05-01T15:27:20Z</time></trkpt><trkpt lat="45.83006347215587" lon="12.80301954787763"><ele>6.0</ele><time>2026-05-01T15:27:21Z</time></trkpt><trkpt lat="45.82980593279244" lon="12.803241346156344"><ele>6.0</ele><time>2026-05-01T15:27:22Z</time></trkpt><trkpt lat="45.82954929929995" lon="12.803461041289722"><ele>6.0</ele><time>2026-05-01T15:27:23Z</time></trkpt><trkpt lat="45.82929315569582" lon="12.803679049909578"><ele>6.0</ele><time>2026-05-01T15:27:24Z</time></trkpt><trkpt lat="45.82903615923183" lon="12.803895672864344"><ele>6.0</ele><time>2026-05-01T15:27:25Z</time></trkpt><trkpt lat="45.8287835673041" lon="12.804110552098974"><ele>6.0</ele><time>2026-05-01T15:27:26Z</time></trkpt><trkpt lat="45.828535700468976" lon="12.804318123734326"><ele>6.0</ele><time>2026-05-01T15:27:27Z</time></trkpt><trkpt lat="45.828293748546514" lon="12.804523160597299"><ele>6.0</ele><time>2026-05-01T15:27:28Z</time></trkpt><trkpt lat="45.828052615160345" lon="12.804729966555572"><ele>6.0</ele><time>2026-05-01T15:27:29Z</time></trkpt><trkpt lat="45.82781288568144" lon="12.80494374336374"><ele>5.5</ele><time>2026-05-01T15:27:30Z</time></trkpt><trkpt lat="45.82756426190544" lon="12.80517726759677"><ele>5.0</ele><time>2026-05-01T15:27:31Z</time></trkpt><trkpt lat="45.827298026130734" lon="12.805432796824046"><ele>5.0</ele><time>2026-05-01T15:27:32Z</time></trkpt><trkpt lat="45.82701473109257" lon="12.805691335236274"><ele>5.0</ele><time>2026-05-01T15:27:33Z</time></trkpt><trkpt lat="45.82671843631944" lon="12.8059457672083"><ele>4.5</ele><time>2026-05-01T15:27:34Z</time></trkpt><trkpt lat="45.82642638235849" lon="12.806189681218159"><ele>4.0</ele><time>2026-05-01T15:27:35Z</time></trkpt><trkpt lat="45.82613509139334" lon="12.806437184429322"><ele>4.0</ele><time>2026-05-01T15:27:35.999Z</time></trkpt><trkpt lat="45.82584122236646" lon="12.806684822471684"><ele>4.0</ele><time>2026-05-01T15:27:36.999Z</time></trkpt><trkpt lat="45.825543021633464" lon="12.806923393555728"><ele>5.0</ele><time>2026-05-01T15:27:37.999Z</time></trkpt><trkpt lat="45.82524083344809" lon="12.807157936268464"><ele>6.0</ele><time>2026-05-01T15:27:38.999Z</time></trkpt><trkpt lat="45.82493597814933" lon="12.807388897600525"><ele>6.0</ele><time>2026-05-01T15:27:39.999Z</time></trkpt><trkpt lat="45.824627825537924" lon="12.807617790746702"><ele>6.0</ele><time>2026-05-01T15:27:40.999Z</time></trkpt><trkpt lat="45.824315416655296" lon="12.807848363772097"><ele>5.5</ele><time>2026-05-01T15:27:41.999Z</time></trkpt><trkpt lat="45.82399453530677" lon="12.8080774694689"><ele>5.0</ele><time>2026-05-01T15:27:42.999Z</time></trkpt><trkpt lat="45.823667482675425" lon="12.80830073213583"><ele>5.0</ele><time>2026-05-01T15:27:43.999Z</time></trkpt><trkpt lat="45.82333445578595" lon="12.808521099011166"><ele>5.0</ele><time>2026-05-01T15:27:44.999Z</time></trkpt><trkpt lat="45.82299831330533" lon="12.808738712815774"><ele>5.0</ele><time>2026-05-01T15:27:45.999Z</time></trkpt><trkpt lat="45.822656413056976" lon="12.808949103376582"><ele>5.0</ele><time>2026-05-01T15:27:46.999Z</time></trkpt><trkpt lat="45.82231492279809" lon="12.809150472019535"><ele>5.0</ele><time>2026-05-01T15:27:47.999Z</time></trkpt><trkpt lat="45.82197514293838" lon="12.809342004903918"><ele>5.0</ele><time>2026-05-01T15:27:48.999Z</time></trkpt><trkpt lat="45.82163802259351" lon="12.809529524656828"><ele>5.0</ele><time>2026-05-01T15:27:49.999Z</time></trkpt><trkpt lat="45.82130567793017" lon="12.809714519155857"><ele>5.0</ele><time>2026-05-01T15:27:50.999Z</time></trkpt><trkpt lat="45.82097546014223" lon="12.809896254059266"><ele>5.0</ele><time>2026-05-01T15:27:51.999Z</time></trkpt><trkpt lat="45.82064708088991" lon="12.810072588248683"><ele>5.0</ele><time>2026-05-01T15:27:52.999Z</time></trkpt><trkpt lat="45.82032264004792" lon="12.81023857867631"><ele>5.5</ele><time>2026-05-01T15:27:53.999Z</time></trkpt><trkpt lat="45.81999733290447" lon="12.810398767639185"><ele>6.0</ele><time>2026-05-01T15:27:54.999Z</time></trkpt><trkpt lat="45.81967246049888" lon="12.810556597981627"><ele>6.0</ele><time>2026-05-01T15:27:55.999Z</time></trkpt><trkpt lat="45.81934576565527" lon="12.810711881475306"><ele>6.0</ele><time>2026-05-01T15:27:56.999Z</time></trkpt><trkpt lat="45.81902027374272" lon="12.810861001877372"><ele>6.5</ele><time>2026-05-01T15:27:57.999Z</time></trkpt><trkpt lat="45.81869390678898" lon="12.811003417914034"><ele>7.0</ele><time>2026-05-01T15:27:58.999Z</time></trkpt><trkpt lat="45.81836642329842" lon="12.811138689588539"><ele>7.0</ele><time>2026-05-01T15:27:59.999Z</time></trkpt><trkpt lat="45.81804003275251" lon="12.811269123737159"><ele>7.0</ele><time>2026-05-01T15:28:00.999Z</time></trkpt><trkpt lat="45.81771780563365" lon="12.811400219682232"><ele>5.5</ele><time>2026-05-01T15:28:01.999Z</time></trkpt><trkpt lat="45.81740291616713" lon="12.811526933107233"><ele>4.0</ele><time>2026-05-01T15:28:02.999Z</time></trkpt><trkpt lat="45.81709710013881" lon="12.811649649018023"><ele>3.5</ele><time>2026-05-01T15:28:03.999Z</time></trkpt><trkpt lat="45.81679544747678" lon="12.811767209410458"><ele>3.0</ele><time>2026-05-01T15:28:04.999Z</time></trkpt><trkpt lat="45.81649217872776" lon="12.811873436702443"><ele>3.0</ele><time>2026-05-01T15:28:05.999Z</time></trkpt><trkpt lat="45.816184091798085" lon="12.811972180207567"><ele>3.0</ele><time>2026-05-01T15:28:06.999Z</time></trkpt><trkpt lat="45.81586264111206" lon="12.812066219584489"><ele>3.0</ele><time>2026-05-01T15:28:07.999Z</time></trkpt><trkpt lat="45.81552341450891" lon="12.812159335872543"><ele>3.0</ele><time>2026-05-01T15:28:08.999Z</time></trkpt><trkpt lat="45.815169809115254" lon="12.81225590909437"><ele>2.0</ele><time>2026-05-01T15:28:09.999Z</time></trkpt><trkpt lat="45.81481781532189" lon="12.812362448022531"><ele>1.0</ele><time>2026-05-01T15:28:10.999Z</time></trkpt><trkpt lat="45.81447947561458" lon="12.812468878799512"><ele>1.0</ele><time>2026-05-01T15:28:11.999Z</time></trkpt><trkpt lat="45.8141405674605" lon="12.812581482914409"><ele>1.0</ele><time>2026-05-01T15:28:12.999Z</time></trkpt><trkpt lat="45.813808693851726" lon="12.812701892817422"><ele>2.0</ele><time>2026-05-01T15:28:13.999Z</time></trkpt><trkpt lat="45.813484070202584" lon="12.812828939721367"><ele>3.0</ele><time>2026-05-01T15:28:14.999Z</time></trkpt><trkpt lat="45.813161739284055" lon="12.81296533555246"><ele>3.0</ele><time>2026-05-01T15:28:15.999Z</time></trkpt><trkpt lat="45.81284045733601" lon="12.813097198764355"><ele>3.0</ele><time>2026-05-01T15:28:16.999Z</time></trkpt><trkpt lat="45.81251904342181" lon="12.813234879930969"><ele>2.5</ele><time>2026-05-01T15:28:17.999Z</time></trkpt><trkpt lat="45.81219475286283" lon="12.813375243717271"><ele>2.0</ele><time>2026-05-01T15:28:18.999Z</time></trkpt><trkpt lat="45.81186621682924" lon="12.81351978149843"><ele>2.5</ele><time>2026-05-01T15:28:19.999Z</time></trkpt><trkpt lat="45.81153245879663" lon="12.813672515839055"><ele>3.0</ele><time>2026-05-01T15:28:20.999Z</time></trkpt><trkpt lat="45.81120367656112" lon="12.813826832151978"><ele>2.0</ele><time>2026-05-01T15:28:21.999Z</time></trkpt><trkpt lat="45.81088772083772" lon="12.813982874295428"><ele>1.0</ele><time>2026-05-01T15:28:22.999Z</time></trkpt><trkpt lat="45.81059011795851" lon="12.814138252703364"><ele>1.0</ele><time>2026-05-01T15:28:23.999Z</time></trkpt><trkpt lat="45.81031328422764" lon="12.81428054341512"><ele>1.0</ele><time>2026-05-01T15:28:24.999Z</time></trkpt><trkpt lat="45.810043681464805" lon="12.814427042892254"><ele>1.5</ele><time>2026-05-01T15:28:25.999Z</time></trkpt><trkpt lat="45.80977937915752" lon="12.81457374016928"><ele>2.0</ele><time>2026-05-01T15:28:26.999Z</time></trkpt><trkpt lat="45.80951471814831" lon="12.81472366119658"><ele>3.0</ele><time>2026-05-01T15:28:27.999Z</time></trkpt><trkpt lat="45.80926131390163" lon="12.81486823462692"><ele>4.0</ele><time>2026-05-01T15:28:28.999Z</time></trkpt><trkpt lat="45.80902166678382" lon="12.815007169981229"><ele>4.0</ele><time>2026-05-01T15:28:29.999Z</time></trkpt><trkpt lat="45.80880093935378" lon="12.815139777761742"><ele>4.0</ele><time>2026-05-01T15:28:30.999Z</time></trkpt><trkpt lat="45.80860208495966" lon="12.81526076661529"><ele>5.333333333333333</ele><time>2026-05-01T15:28:31.999Z</time></trkpt><trkpt lat="45.80842227117293" lon="12.815372082663833"><ele>6.666666666666666</ele><time>2026-05-01T15:28:32.999Z</time></trkpt><trkpt lat="45.80825119096593" lon="12.81548238842552"><ele>8.0</ele><time>2026-05-01T15:28:33.999Z</time></trkpt><trkpt lat="45.808071564219304" lon="12.81559768053902"><ele>8.0</ele><time>2026-05-01T15:28:34.999Z</time></trkpt><trkpt lat="45.80788140944012" lon="12.815715059847617"><ele>8.0</ele><time>2026-05-01T15:28:35.999Z</time></trkpt><trkpt lat="45.807688149826944" lon="12.815833615388232"><ele>8.0</ele><time>2026-05-01T15:28:36.999Z</time></trkpt><trkpt lat="45.8074988608316" lon="12.81595528736146"><ele>7.666666666666666</ele><time>2026-05-01T15:28:37.999Z</time></trkpt><trkpt lat="45.80730989490843" lon="12.816083862894388"><ele>7.333333333333334</ele><time>2026-05-01T15:28:38.999Z</time></trkpt><trkpt lat="45.80711338612543" lon="12.816218551606593"><ele>7.0</ele><time>2026-05-01T15:28:39.999Z</time></trkpt><trkpt lat="45.806916803282135" lon="12.816352918379456"><ele>7.0</ele><time>2026-05-01T15:28:40.999Z</time></trkpt><trkpt lat="45.806720986620064" lon="12.816488374366672"><ele>7.0</ele><time>2026-05-01T15:28:41.999Z</time></trkpt><trkpt lat="45.80652607843306" lon="12.816624145126307"><ele>7.0</ele><time>2026-05-01T15:28:42.999Z</time></trkpt><trkpt lat="45.80633503505289" lon="12.816758647489062"><ele>6.666666666666667</ele><time>2026-05-01T15:28:43.999Z</time></trkpt><trkpt lat="45.80616041414123" lon="12.816884879875468"><ele>6.333333333333334</ele><time>2026-05-01T15:28:44.999Z</time></trkpt><trkpt lat="45.80599771860311" lon="12.817000000192678"><ele>6.0</ele><time>2026-05-01T15:28:45.999Z</time></trkpt><trkpt lat="45.80583665045009" lon="12.817096964642069"><ele>7.0</ele><time>2026-05-01T15:28:46.999Z</time></trkpt><trkpt lat="45.80566888417468" lon="12.817169985560595"><ele>8.0</ele><time>2026-05-01T15:28:47.999Z</time></trkpt><trkpt lat="45.80550166549377" lon="12.817213739408992"><ele>9.0</ele><time>2026-05-01T15:28:48.999Z</time></trkpt><trkpt lat="45.805350921864665" lon="12.817251472694416"><ele>9.0</ele><time>2026-05-01T15:28:49.999Z</time></trkpt><trkpt lat="45.80520185865046" lon="12.817313744331958"><ele>9.0</ele><time>2026-05-01T15:28:50.999Z</time></trkpt><trkpt lat="45.805056082069115" lon="12.817399628027497"><ele>9.0</ele><time>2026-05-01T15:28:51.999Z</time></trkpt><trkpt lat="45.804918272897105" lon="12.817502500899772"><ele>8.75</ele><time>2026-05-01T15:28:53Z</time></trkpt><trkpt lat="45.80479480347324" lon="12.817605327785325"><ele>8.5</ele><time>2026-05-01T15:28:54Z</time></trkpt><trkpt lat="45.80467749678012" lon="12.817706853716713"><ele>8.25</ele><time>2026-05-01T15:28:55Z</time></trkpt><trkpt lat="45.804556836299525" lon="12.817801360508275"><ele>8.0</ele><time>2026-05-01T15:28:56Z</time></trkpt><trkpt lat="45.80443652022918" lon="12.817877141508188"><ele>7.800000000000001</ele><time>2026-05-01T15:28:57Z</time></trkpt><trkpt lat="45.8043226454766" lon="12.817934342254972"><ele>7.6000000000000005</ele><time>2026-05-01T15:28:58Z</time></trkpt><trkpt lat="45.8042124244831" lon="12.817964205295091"><ele>7.3999999999999995</ele><time>2026-05-01T15:28:59Z</time></trkpt><trkpt lat="45.804118930444545" lon="12.817982364197213"><ele>7.199999999999999</ele><time>2026-05-01T15:29:00Z</time></trkpt><trkpt lat="45.80404139932406" lon="12.818023715788202"><ele>7.0</ele><time>2026-05-01T15:29:01Z</time></trkpt><trkpt lat="45.803977539300156" lon="12.818078886791787"><ele>7.0</ele><time>2026-05-01T15:29:02Z</time></trkpt><trkpt lat="45.80387816722103" lon="12.818155901854466"><ele>6.999999999999999</ele><time>2026-05-01T15:29:04Z</time></trkpt><trkpt lat="45.8038114886885" lon="12.818201543823031"><ele>6.999999999999999</ele><time>2026-05-01T15:29:07Z</time></trkpt><trkpt lat="45.80368282439481" lon="12.81833239036926"><ele>7.0</ele><time>2026-05-01T15:30:54.999Z</time></trkpt><trkpt lat="45.803619671765695" lon="12.818409904268073"><ele>7.0</ele><time>2026-05-01T15:30:55.999Z</time></trkpt><trkpt lat="45.80354195096557" lon="12.818500558195453"><ele>6.75</ele><time>2026-05-01T15:30:56.999Z</time></trkpt><trkpt lat="45.8034513343313" lon="12.818604382124773"><ele>6.5</ele><time>2026-05-01T15:30:57.999Z</time></trkpt><trkpt lat="45.80336280741537" lon="12.818742542856217"><ele>6.25</ele><time>2026-05-01T15:30:59Z</time></trkpt><trkpt lat="45.80325335591041" lon="12.81882459335487"><ele>6.0</ele><time>2026-05-01T15:31:00Z</time></trkpt><trkpt lat="45.803167437904996" lon="12.818948031939492"><ele>6.0</ele><time>2026-05-01T15:31:01Z</time></trkpt><trkpt lat="45.80308635124131" lon="12.819095233473341"><ele>6.0</ele><time>2026-05-01T15:31:02Z</time></trkpt><trkpt lat="45.8030088395228" lon="12.819259468398661"><ele>6.0</ele><time>2026-05-01T15:31:03Z</time></trkpt><trkpt lat="45.8029482835206" lon="12.819398842975563"><ele>6.0</ele><time>2026-05-01T15:31:04Z</time></trkpt><trkpt lat="45.80289863463706" lon="12.819495439698775"><ele>5.7142857142857135</ele><time>2026-05-01T15:31:05Z</time></trkpt><trkpt lat="45.802826157746836" lon="12.819590131285729"><ele>5.428571428571429</ele><time>2026-05-01T15:31:07Z</time></trkpt><trkpt lat="45.80278016426744" lon="12.81966634371178"><ele>5.142857142857142</ele><time>2026-05-01T15:31:09Z</time></trkpt><trkpt lat="45.802730807027274" lon="12.81973973783795"><ele>4.857142857142857</ele><time>2026-05-01T15:31:11Z</time></trkpt><trkpt lat="45.80267786859883" lon="12.819803578797258"><ele>4.571428571428571</ele><time>2026-05-01T15:31:13Z</time></trkpt><trkpt lat="45.80262780314983" lon="12.819864621337745"><ele>4.285714285714286</ele><time>2026-05-01T15:31:15Z</time></trkpt><trkpt lat="45.802592452000724" lon="12.819951928326338"><ele>4.0</ele><time>2026-05-01T15:31:17Z</time></trkpt><trkpt lat="45.802505609023996" lon="12.819992667306199"><ele>3.9999999999999996</ele><time>2026-05-01T15:31:19Z</time></trkpt><trkpt lat="45.80244543573143" lon="12.820055474482134"><ele>4.0</ele><time>2026-05-01T15:31:21Z</time></trkpt><trkpt lat="45.80238889361722" lon="12.820115862431926"><ele>4.0</ele><time>2026-05-01T15:31:23Z</time></trkpt><trkpt lat="45.8023358232072" lon="12.82017320225705"><ele>4.0</ele><time>2026-05-01T15:31:25Z</time></trkpt><trkpt lat="45.80225881988475" lon="12.820250274095317"><ele>3.9999999999999996</ele><time>2026-05-01T15:31:28Z</time></trkpt><trkpt lat="45.80220222857935" lon="12.820307954049138"><ele>4.0</ele><time>2026-05-01T15:31:30Z</time></trkpt><trkpt lat="45.80209625321579" lon="12.820429683528996"><ele>4.25</ele><time>2026-05-01T15:31:32Z</time></trkpt><trkpt lat="45.80201373045207" lon="12.82052562066519"><ele>4.5</ele><time>2026-05-01T15:31:33Z</time></trkpt><trkpt lat="45.801907470174456" lon="12.82065311690794"><ele>4.75</ele><time>2026-05-01T15:31:34Z</time></trkpt><trkpt lat="45.801765341199" lon="12.820808677927058"><ele>5.0</ele><time>2026-05-01T15:31:35Z</time></trkpt><trkpt lat="45.80160886639402" lon="12.820974192693306"><ele>6.0</ele><time>2026-05-01T15:31:36Z</time></trkpt><trkpt lat="45.8014473461099" lon="12.821141081806172"><ele>7.0</ele><time>2026-05-01T15:31:37Z</time></trkpt><trkpt lat="45.801296609495736" lon="12.82129815043192"><ele>8.0</ele><time>2026-05-01T15:31:38Z</time></trkpt><trkpt lat="45.801158926072425" lon="12.821437699511051"><ele>8.0</ele><time>2026-05-01T15:31:39Z</time></trkpt><trkpt lat="45.801046135411994" lon="12.821549251217471"><ele>8.0</ele><time>2026-05-01T15:31:40Z</time></trkpt><trkpt lat="45.800929757449325" lon="12.821653779649495"><ele>8.0</ele><time>2026-05-01T15:31:41Z</time></trkpt><trkpt lat="45.80082907322068" lon="12.821760660004697"><ele>8.0</ele><time>2026-05-01T15:31:42Z</time></trkpt><trkpt lat="45.80072017861952" lon="12.821865780321996"><ele>8.5</ele><time>2026-05-01T15:31:42.999Z</time></trkpt><trkpt lat="45.800602364421316" lon="12.821969771956605"><ele>9.0</ele><time>2026-05-01T15:31:43.999Z</time></trkpt><trkpt lat="45.800474571942466" lon="12.822069223886709"><ele>9.5</ele><time>2026-05-01T15:31:44.999Z</time></trkpt><trkpt lat="45.80034124679937" lon="12.822143142674792"><ele>10.0</ele><time>2026-05-01T15:31:45.999Z</time></trkpt><trkpt lat="45.800202942129246" lon="12.822185846677892"><ele>10.0</ele><time>2026-05-01T15:31:46.999Z</time></trkpt><trkpt lat="45.80006701907471" lon="12.822184444842248"><ele>10.0</ele><time>2026-05-01T15:31:47.999Z</time></trkpt><trkpt lat="45.7999382843781" lon="12.822139702121072"><ele>10.0</ele><time>2026-05-01T15:31:48.999Z</time></trkpt><trkpt lat="45.79981944762124" lon="12.822028379059443"><ele>10.0</ele><time>2026-05-01T15:31:49.999Z</time></trkpt><trkpt lat="45.79971986044582" lon="12.821859079848027"><ele>9.666666666666668</ele><time>2026-05-01T15:31:50.999Z</time></trkpt><trkpt lat="45.79964831686434" lon="12.821659195861924"><ele>9.333333333333334</ele><time>2026-05-01T15:31:51.999Z</time></trkpt><trkpt lat="45.79960401196955" lon="12.821454442648418"><ele>9.0</ele><time>2026-05-01T15:31:52.999Z</time></trkpt><trkpt lat="45.7995389977199" lon="12.821270270751132"><ele>9.0</ele><time>2026-05-01T15:31:53.999Z</time></trkpt><trkpt lat="45.79954036632106" lon="12.821056226741007"><ele>9.0</ele><time>2026-05-01T15:31:54.999Z</time></trkpt><trkpt lat="45.799515097120995" lon="12.8208805753947"><ele>9.0</ele><time>2026-05-01T15:31:55.999Z</time></trkpt><trkpt lat="45.79949313981447" lon="12.820723204894334"><ele>9.0</ele><time>2026-05-01T15:31:56.999Z</time></trkpt><trkpt lat="45.79947552017768" lon="12.820577556468212"><ele>9.2</ele><time>2026-05-01T15:31:57.999Z</time></trkpt><trkpt lat="45.79946093141386" lon="12.82044200735823"><ele>9.4</ele><time>2026-05-01T15:31:58.999Z</time></trkpt><trkpt lat="45.799444727924076" lon="12.82031067890015"><ele>9.6</ele><time>2026-05-01T15:31:59.999Z</time></trkpt><trkpt lat="45.799428129654075" lon="12.82016852708999"><ele>9.8</ele><time>2026-05-01T15:32:00.999Z</time></trkpt><trkpt lat="45.79941553470896" lon="12.820040005615569"><ele>10.0</ele><time>2026-05-01T15:32:01.999Z</time></trkpt><trkpt lat="45.79940324155387" lon="12.819923349298104"><ele>9.666666666666668</ele><time>2026-05-01T15:32:02.999Z</time></trkpt><trkpt lat="45.79939070672227" lon="12.819820074528021"><ele>9.333333333333334</ele><time>2026-05-01T15:32:03.999Z</time></trkpt><trkpt lat="45.79937379543923" lon="12.81963602725499"><ele>9.0</ele><time>2026-05-01T15:32:05.999Z</time></trkpt><trkpt lat="45.7993849572611" lon="12.819519848354759"><ele>8.666666666666666</ele><time>2026-05-01T15:32:06.999Z</time></trkpt><trkpt lat="45.79938176284276" lon="12.81940323871531"><ele>8.333333333333332</ele><time>2026-05-01T15:32:07.999Z</time></trkpt><trkpt lat="45.79937755404649" lon="12.819312772215264"><ele>8.0</ele><time>2026-05-01T15:32:08.999Z</time></trkpt><trkpt lat="45.799357610546686" lon="12.81920824462047"><ele>7.499999999999999</ele><time>2026-05-01T15:32:10.999Z</time></trkpt><trkpt lat="45.79935724780431" lon="12.819107789868895"><ele>7.0</ele><time>2026-05-01T15:32:12.999Z</time></trkpt><trkpt lat="45.799365983790246" lon="12.819016080940395"><ele>6.5</ele><time>2026-05-01T15:32:13.999Z</time></trkpt><trkpt lat="45.79934503092332" lon="12.818907566481355"><ele>6.0</ele><time>2026-05-01T15:32:14.999Z</time></trkpt><trkpt lat="45.79929498636426" lon="12.818785729094357"><ele>5.5</ele><time>2026-05-01T15:32:15.999Z</time></trkpt><trkpt lat="45.79925108752209" lon="12.818662367251589"><ele>5.0</ele><time>2026-05-01T15:32:16.999Z</time></trkpt><trkpt lat="45.79921904043086" lon="12.81854870230268"><ele>5.0</ele><time>2026-05-01T15:32:17.999Z</time></trkpt><trkpt lat="45.79918190449387" lon="12.818451888772103"><ele>5.0</ele><time>2026-05-01T15:32:18.999Z</time></trkpt><trkpt lat="45.79917018867014" lon="12.818353705057051"><ele>5.0</ele><time>2026-05-01T15:32:19.999Z</time></trkpt><trkpt lat="45.79918394944476" lon="12.818262315853307"><ele>5.0</ele><time>2026-05-01T15:32:20.999Z</time></trkpt><trkpt lat="45.79919406767378" lon="12.81808087512111"><ele>5.0</ele><time>2026-05-01T15:32:22.999Z</time></trkpt><trkpt lat="45.799217408220706" lon="12.817974693043082"><ele>5.0</ele><time>2026-05-01T15:32:23.999Z</time></trkpt><trkpt lat="45.79923403180578" lon="12.817844956639705"><ele>5.0</ele><time>2026-05-01T15:32:24.999Z</time></trkpt><trkpt lat="45.79927663255072" lon="12.817710542576314"><ele>5.0</ele><time>2026-05-01T15:32:25.999Z</time></trkpt><trkpt lat="45.79931990139826" lon="12.817568449390166"><ele>5.0</ele><time>2026-05-01T15:32:26.999Z</time></trkpt><trkpt lat="45.79935290602211" lon="12.817421851136075"><ele>5.0</ele><time>2026-05-01T15:32:27.999Z</time></trkpt><trkpt lat="45.79936806593862" lon="12.81726852740006"><ele>5.0</ele><time>2026-05-01T15:32:28.999Z</time></trkpt><trkpt lat="45.799356618596015" lon="12.817111569486954"><ele>5.0</ele><time>2026-05-01T15:32:29.999Z</time></trkpt><trkpt lat="45.79931595777438" lon="12.8169642482841"><ele>5.0</ele><time>2026-05-01T15:32:30.999Z</time></trkpt><trkpt lat="45.79925691572554" lon="12.816836245627213"><ele>5.0</ele><time>2026-05-01T15:32:31.999Z</time></trkpt><trkpt lat="45.79918591011959" lon="12.816729555352273"><ele>5.0</ele><time>2026-05-01T15:32:32.999Z</time></trkpt><trkpt lat="45.79910196044112" lon="12.81664698478985"><ele>5.0</ele><time>2026-05-01T15:32:33.999Z</time></trkpt><trkpt lat="45.79900987222237" lon="12.816578881417922"><ele>5.0</ele><time>2026-05-01T15:32:34.999Z</time></trkpt><trkpt lat="45.798898055236954" lon="12.816590399732986"><ele>5.0</ele><time>2026-05-01T15:32:35.999Z</time></trkpt><trkpt lat="45.79879527967562" lon="12.816605080044013"><ele>5.0</ele><time>2026-05-01T15:32:36.999Z</time></trkpt><trkpt lat="45.79870176841371" lon="12.816652689899103"><ele>5.0</ele><time>2026-05-01T15:32:37.999Z</time></trkpt><trkpt lat="45.79861603749506" lon="12.816716496270722"><ele>5.0</ele><time>2026-05-01T15:32:38.999Z</time></trkpt><trkpt lat="45.798532021551836" lon="12.816774697963142"><ele>5.0</ele><time>2026-05-01T15:32:39.999Z</time></trkpt><trkpt lat="45.79844587087195" lon="12.816824588144941"><ele>5.0</ele><time>2026-05-01T15:32:40.999Z</time></trkpt><trkpt lat="45.798356944786974" lon="12.81686590440161"><ele>5.0</ele><time>2026-05-01T15:32:41.999Z</time></trkpt><trkpt lat="45.798267696711164" lon="12.816904051824181"><ele>5.0</ele><time>2026-05-01T15:32:42.999Z</time></trkpt><trkpt lat="45.79818113213426" lon="12.816951783902207"><ele>5.0</ele><time>2026-05-01T15:32:43.999Z</time></trkpt><trkpt lat="45.79810299335227" lon="12.817024046299187"><ele>5.0</ele><time>2026-05-01T15:32:44.999Z</time></trkpt><trkpt lat="45.79803529057028" lon="12.817140934119596"><ele>5.0</ele><time>2026-05-01T15:32:45.999Z</time></trkpt><trkpt lat="45.797968943821765" lon="12.817305928844691"><ele>5.0</ele><time>2026-05-01T15:32:46.999Z</time></trkpt><trkpt lat="45.797875827419844" lon="12.817467725296707"><ele>5.0</ele><time>2026-05-01T15:32:47.999Z</time></trkpt><trkpt lat="45.79775586131198" lon="12.817611431448858"><ele>6.0</ele><time>2026-05-01T15:32:48.999Z</time></trkpt><trkpt lat="45.79763212309679" lon="12.817753504526385"><ele>7.0</ele><time>2026-05-01T15:32:49.999Z</time></trkpt><trkpt lat="45.79750107029597" lon="12.817873992571476"><ele>8.0</ele><time>2026-05-01T15:32:50.999Z</time></trkpt><trkpt lat="45.797393110277774" lon="12.818023037911473"><ele>8.0</ele><time>2026-05-01T15:32:51.999Z</time></trkpt><trkpt lat="45.79728173591536" lon="12.8181477348623"><ele>8.0</ele><time>2026-05-01T15:32:52.999Z</time></trkpt><trkpt lat="45.797174473002265" lon="12.818267444605702"><ele>8.0</ele><time>2026-05-01T15:32:53.999Z</time></trkpt><trkpt lat="45.79706873113968" lon="12.818379892544733"><ele>8.0</ele><time>2026-05-01T15:32:54.999Z</time></trkpt><trkpt lat="45.796965279620736" lon="12.818482848363185"><ele>8.0</ele><time>2026-05-01T15:32:55.999Z</time></trkpt><trkpt lat="45.79686540585163" lon="12.81856523901915"><ele>8.0</ele><time>2026-05-01T15:32:56.999Z</time></trkpt><trkpt lat="45.796778950347246" lon="12.818632478532983"><ele>8.0</ele><time>2026-05-01T15:32:57.999Z</time></trkpt><trkpt lat="45.79669876348347" lon="12.818691459738833"><ele>8.0</ele><time>2026-05-01T15:32:58.999Z</time></trkpt><trkpt lat="45.796628677554665" lon="12.818743741918812"><ele>8.0</ele><time>2026-05-01T15:32:59.999Z</time></trkpt><trkpt lat="45.79655694147744" lon="12.818812196969601"><ele>8.0</ele><time>2026-05-01T15:33:01.999Z</time></trkpt><trkpt lat="45.796596630896616" lon="12.818912320266437"><ele>8.0</ele><time>2026-05-01T15:33:22Z</time></trkpt><trkpt lat="45.7967467867133" lon="12.81894430168343"><ele>8.0</ele><time>2026-05-01T15:33:24Z</time></trkpt><trkpt lat="45.796810847564146" lon="12.818957634059599"><ele>8.0</ele><time>2026-05-01T15:33:25Z</time></trkpt><trkpt lat="45.79689668542227" lon="12.819000564543556"><ele>8.0</ele><time>2026-05-01T15:33:27Z</time></trkpt><trkpt lat="45.79696719628138" lon="12.8190295808264"><ele>8.25</ele><time>2026-05-01T15:33:29Z</time></trkpt><trkpt lat="45.79698075992253" lon="12.819248576254855"><ele>8.5</ele><time>2026-05-01T15:33:30Z</time></trkpt><trkpt lat="45.797003406927" lon="12.818996623965367"><ele>8.75</ele><time>2026-05-01T15:33:31Z</time></trkpt><trkpt lat="45.79694861119593" lon="12.818943131778958"><ele>9.0</ele><time>2026-05-01T15:36:19.999Z</time></trkpt><trkpt lat="45.796991444303146" lon="12.818871863542375"><ele>9.0</ele><time>2026-05-01T15:36:27.999Z</time></trkpt><trkpt lat="45.79699694568461" lon="12.81877727802062"><ele>9.0</ele><time>2026-05-01T15:38:39.999Z</time></trkpt><trkpt lat="45.797040212725825" lon="12.818686323487073"><ele>9.0</ele><time>2026-05-01T15:38:41.999Z</time></trkpt><trkpt lat="45.79703793555466" lon="12.818534657358638"><ele>9.0</ele><time>2026-05-01T15:38:43.999Z</time></trkpt><trkpt lat="45.79715057566347" lon="12.818298662929294"><ele>9.0</ele><time>2026-05-01T15:38:56.999Z</time></trkpt><trkpt lat="45.79725981090616" lon="12.818189357706302"><ele>8.666666666666666</ele><time>2026-05-01T15:38:57.999Z</time></trkpt><trkpt lat="45.79738757516166" lon="12.818055347221097"><ele>8.333333333333332</ele><time>2026-05-01T15:38:58.999Z</time></trkpt><trkpt lat="45.797514672078236" lon="12.817911348830137"><ele>8.0</ele><time>2026-05-01T15:38:59.999Z</time></trkpt><trkpt lat="45.797634659413305" lon="12.817776955760728"><ele>7.6000000000000005</ele><time>2026-05-01T15:39:00.999Z</time></trkpt><trkpt lat="45.797734677935075" lon="12.817668258584186"><ele>7.200000000000001</ele><time>2026-05-01T15:39:01.999Z</time></trkpt><trkpt lat="45.797819564304696" lon="12.817581249980293"><ele>6.8</ele><time>2026-05-01T15:39:02.999Z</time></trkpt><trkpt lat="45.797894011658116" lon="12.817503213979363"><ele>6.4</ele><time>2026-05-01T15:39:03.999Z</time></trkpt><trkpt lat="45.79797595672015" lon="12.817432578193376"><ele>6.0</ele><time>2026-05-01T15:39:04.999Z</time></trkpt><trkpt lat="45.79806284727648" lon="12.817392666100082"><ele>5.8</ele><time>2026-05-01T15:39:05.999Z</time></trkpt><trkpt lat="45.79815091935007" lon="12.817399008198516"><ele>5.6</ele><time>2026-05-01T15:39:06.999Z</time></trkpt><trkpt lat="45.798243557799815" lon="12.81741648898609"><ele>5.4</ele><time>2026-05-01T15:39:07.999Z</time></trkpt><trkpt lat="45.798337289308975" lon="12.817484128184022"><ele>5.2</ele><time>2026-05-01T15:39:08.999Z</time></trkpt><trkpt lat="45.79842609432348" lon="12.817595997904762"><ele>5.0</ele><time>2026-05-01T15:39:09.999Z</time></trkpt><trkpt lat="45.79852532796741" lon="12.817753964635873"><ele>5.0</ele><time>2026-05-01T15:39:10.999Z</time></trkpt><trkpt lat="45.79865050803535" lon="12.817922495890278"><ele>5.0</ele><time>2026-05-01T15:39:11.999Z</time></trkpt><trkpt lat="45.79875710677559" lon="12.818063172915444"><ele>5.0</ele><time>2026-05-01T15:39:12.999Z</time></trkpt><trkpt lat="45.798847405583196" lon="12.818218548382507"><ele>5.0</ele><time>2026-05-01T15:39:13.999Z</time></trkpt><trkpt lat="45.79892704115981" lon="12.818411981710163"><ele>5.0</ele><time>2026-05-01T15:39:14.999Z</time></trkpt><trkpt lat="45.79901376535483" lon="12.818644306324762"><ele>5.0</ele><time>2026-05-01T15:39:15.999Z</time></trkpt><trkpt lat="45.79911668077725" lon="12.818917283136418"><ele>5.0</ele><time>2026-05-01T15:39:16.999Z</time></trkpt><trkpt lat="45.79921350163826" lon="12.819222367817027"><ele>5.0</ele><time>2026-05-01T15:39:17.999Z</time></trkpt><trkpt lat="45.79929404722386" lon="12.81953880227569"><ele>6.5</ele><time>2026-05-01T15:39:18.999Z</time></trkpt><trkpt lat="45.79935387002646" lon="12.819875065798616"><ele>8.0</ele><time>2026-05-01T15:39:19.999Z</time></trkpt><trkpt lat="45.7994025616894" lon="12.820250788201093"><ele>9.0</ele><time>2026-05-01T15:39:20.999Z</time></trkpt><trkpt lat="45.79944886091239" lon="12.820618118087873"><ele>10.0</ele><time>2026-05-01T15:39:22Z</time></trkpt><trkpt lat="45.79949112608973" lon="12.82095381233126"><ele>10.0</ele><time>2026-05-01T15:39:23Z</time></trkpt><trkpt lat="45.79952749764882" lon="12.821265626199628"><ele>10.0</ele><time>2026-05-01T15:39:24Z</time></trkpt><trkpt lat="45.79956239114928" lon="12.82158288859878"><ele>10.0</ele><time>2026-05-01T15:39:25Z</time></trkpt><trkpt lat="45.79958658570903" lon="12.821891969949123"><ele>10.0</ele><time>2026-05-01T15:39:26Z</time></trkpt><trkpt lat="45.79959225353875" lon="12.822191016845958"><ele>10.0</ele><time>2026-05-01T15:39:27Z</time></trkpt><trkpt lat="45.79957372994829" lon="12.822476711669362"><ele>10.0</ele><time>2026-05-01T15:39:28Z</time></trkpt><trkpt lat="45.799532651906205" lon="12.822746830576156"><ele>9.666666666666668</ele><time>2026-05-01T15:39:29Z</time></trkpt><trkpt lat="45.799472741428964" lon="12.822997723120196"><ele>9.333333333333334</ele><time>2026-05-01T15:39:30Z</time></trkpt><trkpt lat="45.79939912249104" lon="12.82322362449088"><ele>9.0</ele><time>2026-05-01T15:39:31Z</time></trkpt><trkpt lat="45.79931249052382" lon="12.823421236676243"><ele>8.5</ele><time>2026-05-01T15:39:32Z</time></trkpt><trkpt lat="45.79921059453437" lon="12.82358619853075"><ele>8.0</ele><time>2026-05-01T15:39:33Z</time></trkpt><trkpt lat="45.79910576976313" lon="12.82372465552527"><ele>7.5</ele><time>2026-05-01T15:39:34Z</time></trkpt><trkpt lat="45.7990064949645" lon="12.823852201382996"><ele>7.0</ele><time>2026-05-01T15:39:35Z</time></trkpt><trkpt lat="45.79891504372092" lon="12.823963656637538"><ele>7.0</ele><time>2026-05-01T15:39:36Z</time></trkpt><trkpt lat="45.79882718329031" lon="12.824063847923089"><ele>6.999999999999999</ele><time>2026-05-01T15:39:37Z</time></trkpt><trkpt lat="45.798745574659165" lon="12.824151518931297"><ele>6.999999999999999</ele><time>2026-05-01T15:39:38Z</time></trkpt><trkpt lat="45.79867378485463" lon="12.824239628515118"><ele>7.0</ele><time>2026-05-01T15:39:39Z</time></trkpt><trkpt lat="45.79860719178454" lon="12.824325497461698"><ele>7.0</ele><time>2026-05-01T15:39:40Z</time></trkpt><trkpt lat="45.79854889365257" lon="12.824402057818878"><ele>7.142857142857142</ele><time>2026-05-01T15:39:41Z</time></trkpt><trkpt lat="45.79849688874046" lon="12.824473772485605"><ele>7.285714285714286</ele><time>2026-05-01T15:39:42Z</time></trkpt><trkpt lat="45.798450612963165" lon="12.824535113832441"><ele>7.428571428571429</ele><time>2026-05-01T15:39:43Z</time></trkpt><trkpt lat="45.79837472820945" lon="12.824632561885338"><ele>7.571428571428571</ele><time>2026-05-01T15:39:45Z</time></trkpt><trkpt lat="45.79832231048275" lon="12.824698307693758"><ele>7.7142857142857135</ele><time>2026-05-01T15:39:48Z</time></trkpt><trkpt lat="45.79827064805971" lon="12.824758614913927"><ele>7.857142857142857</ele><time>2026-05-01T15:39:54.999Z</time></trkpt><trkpt lat="45.798207008877256" lon="12.824797110444173"><ele>8.0</ele><time>2026-05-01T15:40:07.999Z</time></trkpt><trkpt lat="45.798119964631816" lon="12.824853947079676"><ele>8.0</ele><time>2026-05-01T15:40:09.999Z</time></trkpt><trkpt lat="45.79806620282617" lon="12.824903378410895"><ele>8.0</ele><time>2026-05-01T15:40:11.999Z</time></trkpt><trkpt lat="45.79800165310735" lon="12.825045000727998"><ele>8.0</ele><time>2026-05-01T15:40:51.999Z</time></trkpt><trkpt lat="45.797949228419" lon="12.82515765691478"><ele>8.0</ele><time>2026-05-01T15:40:52.999Z</time></trkpt><trkpt lat="45.79787102726519" lon="12.825317693810362"><ele>8.0</ele><time>2026-05-01T15:40:53.999Z</time></trkpt><trkpt lat="45.79777375641546" lon="12.825515669699671"><ele>8.0</ele><time>2026-05-01T15:40:54.999Z</time></trkpt><trkpt lat="45.79765463768451" lon="12.825720606847973"><ele>8.0</ele><time>2026-05-01T15:40:55.999Z</time></trkpt><trkpt lat="45.797514645872695" lon="12.825907995708587"><ele>8.0</ele><time>2026-05-01T15:40:56.999Z</time></trkpt><trkpt lat="45.79733320966886" lon="12.826094111429741"><ele>7.5</ele><time>2026-05-01T15:40:57.999Z</time></trkpt><trkpt lat="45.79711153832687" lon="12.826285423242185"><ele>7.0</ele><time>2026-05-01T15:40:58.999Z</time></trkpt><trkpt lat="45.79686688245417" lon="12.826463456488394"><ele>7.0</ele><time>2026-05-01T15:40:59.999Z</time></trkpt><trkpt lat="45.796623856746805" lon="12.82662839582605"><ele>7.0</ele><time>2026-05-01T15:41:00.999Z</time></trkpt><trkpt lat="45.79639419733564" lon="12.826746606260112"><ele>6.5</ele><time>2026-05-01T15:41:01.999Z</time></trkpt><trkpt lat="45.79616905862091" lon="12.82683189583672"><ele>6.0</ele><time>2026-05-01T15:41:02.999Z</time></trkpt><trkpt lat="45.79595422929167" lon="12.82691470324947"><ele>6.0</ele><time>2026-05-01T15:41:03.999Z</time></trkpt><trkpt lat="45.79574573918917" lon="12.826980701498599"><ele>6.0</ele><time>2026-05-01T15:41:04.999Z</time></trkpt><trkpt lat="45.79554857559006" lon="12.827063776862579"><ele>6.0</ele><time>2026-05-01T15:41:05.999Z</time></trkpt><trkpt lat="45.795353189297934" lon="12.827095594721248"><ele>6.0</ele><time>2026-05-01T15:41:06.999Z</time></trkpt><trkpt lat="45.79515940523625" lon="12.827118583679793"><ele>6.0</ele><time>2026-05-01T15:41:07.999Z</time></trkpt><trkpt lat="45.794962262333485" lon="12.827138874587755"><ele>6.0</ele><time>2026-05-01T15:41:08.999Z</time></trkpt><trkpt lat="45.79475730709027" lon="12.827164944235355"><ele>6.0</ele><time>2026-05-01T15:41:09.999Z</time></trkpt><trkpt lat="45.79456369058632" lon="12.827199657042476"><ele>6.0</ele><time>2026-05-01T15:41:10.999Z</time></trkpt><trkpt lat="45.79437431625967" lon="12.827242238546201"><ele>6.0</ele><time>2026-05-01T15:41:11.999Z</time></trkpt><trkpt lat="45.794186356483955" lon="12.827298262142367"><ele>6.0</ele><time>2026-05-01T15:41:12.999Z</time></trkpt><trkpt lat="45.793990463544425" lon="12.827379327617928"><ele>6.0</ele><time>2026-05-01T15:41:13.999Z</time></trkpt><trkpt lat="45.79379239027754" lon="12.827474588399914"><ele>6.0</ele><time>2026-05-01T15:41:14.999Z</time></trkpt><trkpt lat="45.793605084035775" lon="12.82758403658414"><ele>6.333333333333334</ele><time>2026-05-01T15:41:15.999Z</time></trkpt><trkpt lat="45.79342481770048" lon="12.827693636135018"><ele>6.666666666666667</ele><time>2026-05-01T15:41:16.999Z</time></trkpt><trkpt lat="45.79324857940443" lon="12.82780442568354"><ele>7.0</ele><time>2026-05-01T15:41:17.999Z</time></trkpt><trkpt lat="45.79307278506643" lon="12.827917806760071"><ele>7.0</ele><time>2026-05-01T15:41:18.999Z</time></trkpt><trkpt lat="45.79290156127018" lon="12.828033331788898"><ele>7.0</ele><time>2026-05-01T15:41:19.999Z</time></trkpt><trkpt lat="45.792731244588886" lon="12.828143382378922"><ele>7.0</ele><time>2026-05-01T15:41:20.999Z</time></trkpt><trkpt lat="45.79256072250011" lon="12.828252771145292"><ele>7.0</ele><time>2026-05-01T15:41:21.999Z</time></trkpt><trkpt lat="45.792396875151645" lon="12.828353552083442"><ele>7.0</ele><time>2026-05-01T15:41:22.999Z</time></trkpt><trkpt lat="45.792246632484115" lon="12.828465191627076"><ele>7.0</ele><time>2026-05-01T15:41:23.999Z</time></trkpt><trkpt lat="45.79212411580927" lon="12.828582500422822"><ele>6.5</ele><time>2026-05-01T15:41:24.999Z</time></trkpt><trkpt lat="45.79202129109763" lon="12.828719663011984"><ele>6.0</ele><time>2026-05-01T15:41:25.999Z</time></trkpt><trkpt lat="45.79193774989852" lon="12.828889862325813"><ele>5.5</ele><time>2026-05-01T15:41:26.999Z</time></trkpt><trkpt lat="45.791884168176985" lon="12.829080240240925"><ele>5.0</ele><time>2026-05-01T15:41:28Z</time></trkpt><trkpt lat="45.791856754497275" lon="12.829278505293074"><ele>4.5</ele><time>2026-05-01T15:41:29Z</time></trkpt><trkpt lat="45.791855014207556" lon="12.829475899364231"><ele>4.0</ele><time>2026-05-01T15:41:30Z</time></trkpt><trkpt lat="45.791880009645986" lon="12.82966911704743"><ele>3.5</ele><time>2026-05-01T15:41:31Z</time></trkpt><trkpt lat="45.79193128382504" lon="12.829850672719225"><ele>3.0</ele><time>2026-05-01T15:41:32Z</time></trkpt><trkpt lat="45.79200451381573" lon="12.830018891976058"><ele>2.75</ele><time>2026-05-01T15:41:33Z</time></trkpt><trkpt lat="45.79210033700207" lon="12.830164356431075"><ele>2.5</ele><time>2026-05-01T15:41:34Z</time></trkpt><trkpt lat="45.79221493350887" lon="12.830280847581163"><ele>2.25</ele><time>2026-05-01T15:41:35Z</time></trkpt><trkpt lat="45.79234622283176" lon="12.830368156763075"><ele>2.0</ele><time>2026-05-01T15:41:36Z</time></trkpt><trkpt lat="45.79249453254774" lon="12.83043514604083"><ele>2.0</ele><time>2026-05-01T15:41:37Z</time></trkpt><trkpt lat="45.79265795096341" lon="12.83047587286039"><ele>2.0</ele><time>2026-05-01T15:41:38Z</time></trkpt><trkpt lat="45.79282446436305" lon="12.830503155115473"><ele>2.0</ele><time>2026-05-01T15:41:39Z</time></trkpt><trkpt lat="45.79299075400009" lon="12.830537481276712"><ele>2.0</ele><time>2026-05-01T15:41:40Z</time></trkpt><trkpt lat="45.79315480827747" lon="12.830585881741234"><ele>2.0</ele><time>2026-05-01T15:41:41Z</time></trkpt><trkpt lat="45.79331003248628" lon="12.83065767439302"><ele>2.0</ele><time>2026-05-01T15:41:42Z</time></trkpt><trkpt lat="45.793454810763535" lon="12.830757547254212"><ele>2.6666666666666665</ele><time>2026-05-01T15:41:43Z</time></trkpt><trkpt lat="45.79358939917502" lon="12.830888969855613"><ele>3.333333333333333</ele><time>2026-05-01T15:41:44Z</time></trkpt><trkpt lat="45.793709346654126" lon="12.831042116207866"><ele>4.0</ele><time>2026-05-01T15:41:45Z</time></trkpt><trkpt lat="45.793821305227226" lon="12.83121116997253"><ele>4.0</ele><time>2026-05-01T15:41:46Z</time></trkpt><trkpt lat="45.79392214110758" lon="12.83139547302225"><ele>4.0</ele><time>2026-05-01T15:41:47Z</time></trkpt><trkpt lat="45.794013865684" lon="12.831603804955803"><ele>4.0</ele><time>2026-05-01T15:41:48Z</time></trkpt><trkpt lat="45.79409898938408" lon="12.831839184227212"><ele>4.0</ele><time>2026-05-01T15:41:49Z</time></trkpt><trkpt lat="45.79418052870477" lon="12.832095793831325"><ele>4.0</ele><time>2026-05-01T15:41:50Z</time></trkpt><trkpt lat="45.79426594563235" lon="12.832359093765184"><ele>4.0</ele><time>2026-05-01T15:41:51Z</time></trkpt><trkpt lat="45.79436770612906" lon="12.832637312421468"><ele>3.0</ele><time>2026-05-01T15:41:52Z</time></trkpt><trkpt lat="45.79449104588634" lon="12.832939260276785"><ele>2.0</ele><time>2026-05-01T15:41:53Z</time></trkpt><trkpt lat="45.79464148580714" lon="12.83330998053127"><ele>1.0</ele><time>2026-05-01T15:41:54Z</time></trkpt><trkpt lat="45.794799243408846" lon="12.833768194702937"><ele>0.0</ele><time>2026-05-01T15:41:55Z</time></trkpt><trkpt lat="45.79496534435355" lon="12.834316902807398"><ele>0.0</ele><time>2026-05-01T15:41:56Z</time></trkpt><trkpt lat="45.79514663675295" lon="12.834905634868575"><ele>0.0</ele><time>2026-05-01T15:41:57Z</time></trkpt><trkpt lat="45.795329565223234" lon="12.835516126067851"><ele>2.0</ele><time>2026-05-01T15:41:57.999Z</time></trkpt><trkpt lat="45.79550452565514" lon="12.836127108842073"><ele>2.0</ele><time>2026-05-01T15:41:58.999Z</time></trkpt><trkpt lat="45.79566443499863" lon="12.83670566539751"><ele>2.0</ele><time>2026-05-01T15:41:59.999Z</time></trkpt><trkpt lat="45.795815576521484" lon="12.837258525773146"><ele>2.0</ele><time>2026-05-01T15:42:00.999Z</time></trkpt><trkpt lat="45.79595929203565" lon="12.8377937468658"><ele>2.0</ele><time>2026-05-01T15:42:01.999Z</time></trkpt><trkpt lat="45.79609286903525" lon="12.838313227243736"><ele>2.5</ele><time>2026-05-01T15:42:02.999Z</time></trkpt><trkpt lat="45.79622173661095" lon="12.838823088966315"><ele>3.0</ele><time>2026-05-01T15:42:03.999Z</time></trkpt><trkpt lat="45.796349023490535" lon="12.839322746086301"><ele>3.5</ele><time>2026-05-01T15:42:04.999Z</time></trkpt><trkpt lat="45.796473611271665" lon="12.83982088325705"><ele>4.0</ele><time>2026-05-01T15:42:05.999Z</time></trkpt><trkpt lat="45.79659424720001" lon="12.840314454144135"><ele>4.0</ele><time>2026-05-01T15:42:06.999Z</time></trkpt><trkpt lat="45.79671081995632" lon="12.840819907681333"><ele>4.0</ele><time>2026-05-01T15:42:07.999Z</time></trkpt><trkpt lat="45.79682086372809" lon="12.841329065960245"><ele>3.0</ele><time>2026-05-01T15:42:08.999Z</time></trkpt><trkpt lat="45.79692861690414" lon="12.841839325914282"><ele>2.0</ele><time>2026-05-01T15:42:09.999Z</time></trkpt><trkpt lat="45.79703181397992" lon="12.842350410678307"><ele>3.0</ele><time>2026-05-01T15:42:10.999Z</time></trkpt><trkpt lat="45.79713507614003" lon="12.842862962853006"><ele>4.0</ele><time>2026-05-01T15:42:11.999Z</time></trkpt><trkpt lat="45.79723480680161" lon="12.84337358633038"><ele>4.0</ele><time>2026-05-01T15:42:12.999Z</time></trkpt><trkpt lat="45.79733028483587" lon="12.84387366856188"><ele>4.0</ele><time>2026-05-01T15:42:13.999Z</time></trkpt><trkpt lat="45.79742471202368" lon="12.844376027985717"><ele>3.5</ele><time>2026-05-01T15:42:14.999Z</time></trkpt><trkpt lat="45.797515401595085" lon="12.844873318241584"><ele>3.0</ele><time>2026-05-01T15:42:15.999Z</time></trkpt><trkpt lat="45.79760359260937" lon="12.845359108389568"><ele>2.5</ele><time>2026-05-01T15:42:16.999Z</time></trkpt><trkpt lat="45.797692378757155" lon="12.845839532206728"><ele>2.0</ele><time>2026-05-01T15:42:17.999Z</time></trkpt><trkpt lat="45.797779155027875" lon="12.846311013500085"><ele>3.0</ele><time>2026-05-01T15:42:18.999Z</time></trkpt><trkpt lat="45.79786381351802" lon="12.846778950223063"><ele>4.0</ele><time>2026-05-01T15:42:19.999Z</time></trkpt><trkpt lat="45.79794918210681" lon="12.847242373964345"><ele>5.0</ele><time>2026-05-01T15:42:20.999Z</time></trkpt><trkpt lat="45.798034025846846" lon="12.847703855784907"><ele>6.0</ele><time>2026-05-01T15:42:21.999Z</time></trkpt><trkpt lat="45.798118064990526" lon="12.848159226777897"><ele>6.0</ele><time>2026-05-01T15:42:22.999Z</time></trkpt><trkpt lat="45.79820253947972" lon="12.848614104486833"><ele>6.0</ele><time>2026-05-01T15:42:23.999Z</time></trkpt><trkpt lat="45.798291127979326" lon="12.849071985415511"><ele>6.5</ele><time>2026-05-01T15:42:24.999Z</time></trkpt><trkpt lat="45.798386630154745" lon="12.849545102096814"><ele>7.0</ele><time>2026-05-01T15:42:25.999Z</time></trkpt><trkpt lat="45.79848484400833" lon="12.850037457258981"><ele>6.5</ele><time>2026-05-01T15:42:26.999Z</time></trkpt><trkpt lat="45.79858211248571" lon="12.850547697501897"><ele>6.0</ele><time>2026-05-01T15:42:27.999Z</time></trkpt><trkpt lat="45.79867574724538" lon="12.851055375328919"><ele>6.0</ele><time>2026-05-01T15:42:28.999Z</time></trkpt><trkpt lat="45.79877050313842" lon="12.851566569151924"><ele>6.0</ele><time>2026-05-01T15:42:29.999Z</time></trkpt><trkpt lat="45.798866803224" lon="12.852082948582739"><ele>6.5</ele><time>2026-05-01T15:42:30.999Z</time></trkpt><trkpt lat="45.798963291357744" lon="12.852596969601626"><ele>7.0</ele><time>2026-05-01T15:42:31.999Z</time></trkpt><trkpt lat="45.799059363088105" lon="12.853113428370218"><ele>6.5</ele><time>2026-05-01T15:42:32.999Z</time></trkpt><trkpt lat="45.79915440547606" lon="12.853631240553906"><ele>6.0</ele><time>2026-05-01T15:42:33.999Z</time></trkpt><trkpt lat="45.79924793908074" lon="12.854141945640894"><ele>5.5</ele><time>2026-05-01T15:42:34.999Z</time></trkpt><trkpt lat="45.79934178518892" lon="12.854643689705634"><ele>5.0</ele><time>2026-05-01T15:42:35.999Z</time></trkpt><trkpt lat="45.799433995377996" lon="12.855152813350239"><ele>5.0</ele><time>2026-05-01T15:42:36.999Z</time></trkpt><trkpt lat="45.7995267614567" lon="12.855659266887619"><ele>5.0</ele><time>2026-05-01T15:42:37.999Z</time></trkpt><trkpt lat="45.79961992071469" lon="12.85616414117405"><ele>5.0</ele><time>2026-05-01T15:42:38.999Z</time></trkpt><trkpt lat="45.79971088921113" lon="12.856667229804948"><ele>5.0</ele><time>2026-05-01T15:42:39.999Z</time></trkpt><trkpt lat="45.79980177922852" lon="12.85717215749451"><ele>5.0</ele><time>2026-05-01T15:42:40.999Z</time></trkpt><trkpt lat="45.79988758794229" lon="12.857678545610016"><ele>5.0</ele><time>2026-05-01T15:42:41.999Z</time></trkpt><trkpt lat="45.79997346325741" lon="12.858186338328572"><ele>6.0</ele><time>2026-05-01T15:42:42.999Z</time></trkpt><trkpt lat="45.80005904571715" lon="12.858694317069638"><ele>7.0</ele><time>2026-05-01T15:42:43.999Z</time></trkpt><trkpt lat="45.80014699015183" lon="12.85919635186062"><ele>6.0</ele><time>2026-05-01T15:42:44.999Z</time></trkpt><trkpt lat="45.80023653705796" lon="12.859696037891608"><ele>5.0</ele><time>2026-05-01T15:42:45.999Z</time></trkpt><trkpt lat="45.80032912275855" lon="12.860191805194948"><ele>5.0</ele><time>2026-05-01T15:42:46.999Z</time></trkpt><trkpt lat="45.800422915824754" lon="12.860689640697585"><ele>5.0</ele><time>2026-05-01T15:42:47.999Z</time></trkpt><trkpt lat="45.800515012990644" lon="12.861187917660265"><ele>5.0</ele><time>2026-05-01T15:42:48.999Z</time></trkpt><trkpt lat="45.80060440817308" lon="12.861688278524325"><ele>5.0</ele><time>2026-05-01T15:42:49.999Z</time></trkpt><trkpt lat="45.80069495688721" lon="12.8621883056905"><ele>4.5</ele><time>2026-05-01T15:42:50.999Z</time></trkpt><trkpt lat="45.800786975151155" lon="12.862699846425516"><ele>4.0</ele><time>2026-05-01T15:42:51.999Z</time></trkpt><trkpt lat="45.80088168314665" lon="12.863214476580605"><ele>3.5</ele><time>2026-05-01T15:42:52.999Z</time></trkpt><trkpt lat="45.800975887838426" lon="12.863728552527244"><ele>3.0</ele><time>2026-05-01T15:42:53.999Z</time></trkpt><trkpt lat="45.801071820423445" lon="12.864242941604546"><ele>4.0</ele><time>2026-05-01T15:42:54.999Z</time></trkpt><trkpt lat="45.80116560563594" lon="12.864754409534926"><ele>5.0</ele><time>2026-05-01T15:42:55.999Z</time></trkpt><trkpt lat="45.80125824652863" lon="12.865270019796931"><ele>5.0</ele><time>2026-05-01T15:42:56.999Z</time></trkpt><trkpt lat="45.80135123258137" lon="12.8657855512137"><ele>5.0</ele><time>2026-05-01T15:42:57.999Z</time></trkpt><trkpt lat="45.80144582039852" lon="12.86630099406653"><ele>5.5</ele><time>2026-05-01T15:42:58.999Z</time></trkpt><trkpt lat="45.80154293965212" lon="12.866815186920494"><ele>6.0</ele><time>2026-05-01T15:42:59.999Z</time></trkpt><trkpt lat="45.80164026601228" lon="12.86732443710634"><ele>6.5</ele><time>2026-05-01T15:43:00.999Z</time></trkpt><trkpt lat="45.80173512295623" lon="12.86783810272555"><ele>7.0</ele><time>2026-05-01T15:43:01.999Z</time></trkpt><trkpt lat="45.80182336824947" lon="12.868347139721259"><ele>7.0</ele><time>2026-05-01T15:43:02.999Z</time></trkpt><trkpt lat="45.80191135126894" lon="12.86885716969389"><ele>7.0</ele><time>2026-05-01T15:43:03.999Z</time></trkpt><trkpt lat="45.80199959770595" lon="12.869365425108297"><ele>7.0</ele><time>2026-05-01T15:43:04.999Z</time></trkpt><trkpt lat="45.80208661592755" lon="12.869872509186056"><ele>7.0</ele><time>2026-05-01T15:43:05.999Z</time></trkpt><trkpt lat="45.80217284570502" lon="12.870379158334236"><ele>7.0</ele><time>2026-05-01T15:43:06.999Z</time></trkpt><trkpt lat="45.80226249781248" lon="12.870882053146854"><ele>7.0</ele><time>2026-05-01T15:43:07.999Z</time></trkpt><trkpt lat="45.8023553588296" lon="12.8713823286035"><ele>6.5</ele><time>2026-05-01T15:43:08.999Z</time></trkpt><trkpt lat="45.80244903903274" lon="12.871882487078967"><ele>6.0</ele><time>2026-05-01T15:43:09.999Z</time></trkpt><trkpt lat="45.802539361456944" lon="12.872385540414363"><ele>6.5</ele><time>2026-05-01T15:43:10.999Z</time></trkpt><trkpt lat="45.802627828362986" lon="12.872887675255095"><ele>7.0</ele><time>2026-05-01T15:43:11.999Z</time></trkpt><trkpt lat="45.80271587484842" lon="12.873390031804554"><ele>7.0</ele><time>2026-05-01T15:43:12.999Z</time></trkpt><trkpt lat="45.80280559971676" lon="12.873890739753888"><ele>7.0</ele><time>2026-05-01T15:43:13.999Z</time></trkpt><trkpt lat="45.80289495824943" lon="12.874383764319465"><ele>6.0</ele><time>2026-05-01T15:43:14.999Z</time></trkpt><trkpt lat="45.80298438746127" lon="12.874876063686369"><ele>5.0</ele><time>2026-05-01T15:43:15.999Z</time></trkpt><trkpt lat="45.803075647033076" lon="12.875365308516782"><ele>5.0</ele><time>2026-05-01T15:43:16.999Z</time></trkpt><trkpt lat="45.803167107780666" lon="12.875854347687376"><ele>5.0</ele><time>2026-05-01T15:43:17.999Z</time></trkpt><trkpt lat="45.803256482312335" lon="12.876343682285576"><ele>6.0</ele><time>2026-05-01T15:43:18.999Z</time></trkpt><trkpt lat="45.8033462316638" lon="12.87683038616365"><ele>7.0</ele><time>2026-05-01T15:43:19.999Z</time></trkpt><trkpt lat="45.803434683449765" lon="12.877317425897834"><ele>6.5</ele><time>2026-05-01T15:43:20.999Z</time></trkpt><trkpt lat="45.803523898624476" lon="12.87780389705578"><ele>6.0</ele><time>2026-05-01T15:43:21.999Z</time></trkpt><trkpt lat="45.80361305949276" lon="12.878290396995416"><ele>6.0</ele><time>2026-05-01T15:43:22.999Z</time></trkpt><trkpt lat="45.803705959904605" lon="12.878782799523583"><ele>6.0</ele><time>2026-05-01T15:43:23.999Z</time></trkpt><trkpt lat="45.803788087404186" lon="12.879268472800344"><ele>6.0</ele><time>2026-05-01T15:43:24.999Z</time></trkpt><trkpt lat="45.80386767340487" lon="12.879758445107703"><ele>6.0</ele><time>2026-05-01T15:43:25.999Z</time></trkpt><trkpt lat="45.803946676215" lon="12.880251096890387"><ele>6.0</ele><time>2026-05-01T15:43:26.999Z</time></trkpt><trkpt lat="45.80402081006346" lon="12.880742310149088"><ele>6.0</ele><time>2026-05-01T15:43:27.999Z</time></trkpt><trkpt lat="45.80409497460332" lon="12.881234912209093"><ele>6.5</ele><time>2026-05-01T15:43:28.999Z</time></trkpt><trkpt lat="45.80416633147816" lon="12.881728710323898"><ele>7.0</ele><time>2026-05-01T15:43:29.999Z</time></trkpt><trkpt lat="45.804234216108554" lon="12.882226146174899"><ele>7.0</ele><time>2026-05-01T15:43:30.999Z</time></trkpt><trkpt lat="45.80429979394756" lon="12.882726438117988"><ele>7.0</ele><time>2026-05-01T15:43:31.999Z</time></trkpt><trkpt lat="45.80436365123539" lon="12.883227019520408"><ele>8.0</ele><time>2026-05-01T15:43:32.999Z</time></trkpt><trkpt lat="45.80442450338591" lon="12.88373209640053"><ele>9.0</ele><time>2026-05-01T15:43:34Z</time></trkpt><trkpt lat="45.80448164724479" lon="12.884239277861353"><ele>7.5</ele><time>2026-05-01T15:43:35Z</time></trkpt><trkpt lat="45.80453530666793" lon="12.884747205518513"><ele>6.0</ele><time>2026-05-01T15:43:36Z</time></trkpt><trkpt lat="45.80458589697634" lon="12.88525896558135"><ele>6.0</ele><time>2026-05-01T15:43:37Z</time></trkpt><trkpt lat="45.804637176907974" lon="12.88577496964927"><ele>6.0</ele><time>2026-05-01T15:43:38Z</time></trkpt><trkpt lat="45.80468650340409" lon="12.886295862154217"><ele>6.5</ele><time>2026-05-01T15:43:39Z</time></trkpt><trkpt lat="45.804729661701515" lon="12.886820645569635"><ele>7.0</ele><time>2026-05-01T15:43:40Z</time></trkpt><trkpt lat="45.80476898551366" lon="12.887349964616284"><ele>6.5</ele><time>2026-05-01T15:43:41Z</time></trkpt><trkpt lat="45.80480484301411" lon="12.88788111374548"><ele>6.0</ele><time>2026-05-01T15:43:42Z</time></trkpt><trkpt lat="45.80484019431043" lon="12.888412619061953"><ele>6.5</ele><time>2026-05-01T15:43:43Z</time></trkpt><trkpt lat="45.80487452280264" lon="12.888945054533707"><ele>7.0</ele><time>2026-05-01T15:43:44Z</time></trkpt><trkpt lat="45.804907573150686" lon="12.889477934467731"><ele>6.5</ele><time>2026-05-01T15:43:45Z</time></trkpt><trkpt lat="45.80493734174947" lon="12.890011428655235"><ele>6.0</ele><time>2026-05-01T15:43:46Z</time></trkpt><trkpt lat="45.804966047279066" lon="12.890541858418551"><ele>7.0</ele><time>2026-05-01T15:43:47Z</time></trkpt><trkpt lat="45.80499106384584" lon="12.891070277128406"><ele>8.0</ele><time>2026-05-01T15:43:48Z</time></trkpt><trkpt lat="45.80501171259725" lon="12.891595713411041"><ele>8.0</ele><time>2026-05-01T15:43:49Z</time></trkpt><trkpt lat="45.805031718381194" lon="12.892119517232352"><ele>8.0</ele><time>2026-05-01T15:43:50Z</time></trkpt><trkpt lat="45.80504583542123" lon="12.892638691441247"><ele>6.5</ele><time>2026-05-01T15:43:51Z</time></trkpt><trkpt lat="45.80505516659564" lon="12.893162382258037"><ele>5.0</ele><time>2026-05-01T15:43:52Z</time></trkpt><trkpt lat="45.805059885197274" lon="12.893690214317601"><ele>5.0</ele><time>2026-05-01T15:43:53Z</time></trkpt><trkpt lat="45.80506104751469" lon="12.894222131762705"><ele>5.0</ele><time>2026-05-01T15:43:54Z</time></trkpt><trkpt lat="45.80505827725604" lon="12.89474898709407"><ele>5.5</ele><time>2026-05-01T15:43:55Z</time></trkpt><trkpt lat="45.80505502747972" lon="12.895274717706739"><ele>6.0</ele><time>2026-05-01T15:43:56Z</time></trkpt><trkpt lat="45.80504918621803" lon="12.895797366169308"><ele>6.0</ele><time>2026-05-01T15:43:57Z</time></trkpt><trkpt lat="45.805041440338044" lon="12.896319825019509"><ele>6.0</ele><time>2026-05-01T15:43:58Z</time></trkpt><trkpt lat="45.80503209302772" lon="12.896836107236865"><ele>5.5</ele><time>2026-05-01T15:43:59Z</time></trkpt><trkpt lat="45.80501935440053" lon="12.897353722360219"><ele>5.0</ele><time>2026-05-01T15:44:00Z</time></trkpt><trkpt lat="45.805003269707605" lon="12.897870398794195"><ele>5.0</ele><time>2026-05-01T15:44:00.999Z</time></trkpt><trkpt lat="45.80498770893829" lon="12.898385459533518"><ele>5.0</ele><time>2026-05-01T15:44:01.999Z</time></trkpt><trkpt lat="45.80497427071596" lon="12.898901068506555"><ele>5.5</ele><time>2026-05-01T15:44:02.999Z</time></trkpt><trkpt lat="45.80495732058795" lon="12.899416852669239"><ele>6.0</ele><time>2026-05-01T15:44:03.999Z</time></trkpt><trkpt lat="45.80493746340553" lon="12.899931285004334"><ele>5.5</ele><time>2026-05-01T15:44:04.999Z</time></trkpt><trkpt lat="45.80491870825998" lon="12.900442337720662"><ele>5.0</ele><time>2026-05-01T15:44:05.999Z</time></trkpt><trkpt lat="45.804902065132346" lon="12.90095488622699"><ele>5.0</ele><time>2026-05-01T15:44:06.999Z</time></trkpt><trkpt lat="45.80488776140106" lon="12.901469519794736"><ele>5.0</ele><time>2026-05-01T15:44:07.999Z</time></trkpt><trkpt lat="45.80487580288333" lon="12.901981178134102"><ele>4.5</ele><time>2026-05-01T15:44:08.999Z</time></trkpt><trkpt lat="45.80486594275396" lon="12.902493367024304"><ele>4.0</ele><time>2026-05-01T15:44:09.999Z</time></trkpt><trkpt lat="45.80485720575058" lon="12.903007448468532"><ele>4.5</ele><time>2026-05-01T15:44:10.999Z</time></trkpt><trkpt lat="45.80485070834165" lon="12.903523448268816"><ele>5.0</ele><time>2026-05-01T15:44:11.999Z</time></trkpt><trkpt lat="45.80484595439539" lon="12.90403984639414"><ele>5.0</ele><time>2026-05-01T15:44:12.999Z</time></trkpt><trkpt lat="45.804844338154886" lon="12.904557934085977"><ele>5.0</ele><time>2026-05-01T15:44:13.999Z</time></trkpt><trkpt lat="45.804845775752774" lon="12.905077495376519"><ele>4.5</ele><time>2026-05-01T15:44:14.999Z</time></trkpt><trkpt lat="45.8048501129739" lon="12.905599811053909"><ele>4.0</ele><time>2026-05-01T15:44:15.999Z</time></trkpt><trkpt lat="45.804855734504436" lon="12.906123416613802"><ele>4.0</ele><time>2026-05-01T15:44:16.999Z</time></trkpt><trkpt lat="45.80486344402194" lon="12.906646758113078"><ele>4.0</ele><time>2026-05-01T15:44:17.999Z</time></trkpt><trkpt lat="45.80487388032814" lon="12.907169019479243"><ele>4.5</ele><time>2026-05-01T15:44:18.999Z</time></trkpt><trkpt lat="45.80488472473481" lon="12.907691892467057"><ele>5.0</ele><time>2026-05-01T15:44:19.999Z</time></trkpt><trkpt lat="45.80489303638094" lon="12.90821402666132"><ele>5.0</ele><time>2026-05-01T15:44:20.999Z</time></trkpt><trkpt lat="45.80490256084591" lon="12.908737846171087"><ele>5.0</ele><time>2026-05-01T15:44:21.999Z</time></trkpt><trkpt lat="45.80491795472592" lon="12.909256003158507"><ele>5.0</ele><time>2026-05-01T15:44:22.999Z</time></trkpt><trkpt lat="45.80494002737707" lon="12.909770689567921"><ele>5.0</ele><time>2026-05-01T15:44:23.999Z</time></trkpt><trkpt lat="45.804964803054496" lon="12.910285906074144"><ele>5.0</ele><time>2026-05-01T15:44:24.999Z</time></trkpt><trkpt lat="45.8049915200667" lon="12.910799737992647"><ele>5.0</ele><time>2026-05-01T15:44:25.999Z</time></trkpt><trkpt lat="45.80502090734723" lon="12.911312966916855"><ele>4.5</ele><time>2026-05-01T15:44:26.999Z</time></trkpt><trkpt lat="45.80505511286874" lon="12.911824470944568"><ele>4.0</ele><time>2026-05-01T15:44:27.999Z</time></trkpt><trkpt lat="45.80509008657483" lon="12.912335381255454"><ele>4.5</ele><time>2026-05-01T15:44:28.999Z</time></trkpt><trkpt lat="45.805126391266135" lon="12.912845461755673"><ele>5.0</ele><time>2026-05-01T15:44:29.999Z</time></trkpt><trkpt lat="45.80516518622383" lon="12.913354946247733"><ele>5.0</ele><time>2026-05-01T15:44:30.999Z</time></trkpt><trkpt lat="45.80520815169051" lon="12.913864197812579"><ele>5.0</ele><time>2026-05-01T15:44:31.999Z</time></trkpt><trkpt lat="45.80525257486821" lon="12.91437483337802"><ele>5.5</ele><time>2026-05-01T15:44:32.999Z</time></trkpt><trkpt lat="45.80529992628761" lon="12.914887158737546"><ele>6.0</ele><time>2026-05-01T15:44:33.999Z</time></trkpt><trkpt lat="45.805349811401854" lon="12.915397155236297"><ele>6.0</ele><time>2026-05-01T15:44:34.999Z</time></trkpt><trkpt lat="45.805403616166785" lon="12.915908620999003"><ele>6.0</ele><time>2026-05-01T15:44:35.999Z</time></trkpt><trkpt lat="45.805460211572345" lon="12.916420399582906"><ele>5.5</ele><time>2026-05-01T15:44:36.999Z</time></trkpt><trkpt lat="45.80551831456664" lon="12.916932672636133"><ele>5.0</ele><time>2026-05-01T15:44:37.999Z</time></trkpt><trkpt lat="45.80557708444359" lon="12.91744647793735"><ele>5.0</ele><time>2026-05-01T15:44:38.999Z</time></trkpt><trkpt lat="45.80563155781714" lon="12.917961474071486"><ele>5.0</ele><time>2026-05-01T15:44:39.999Z</time></trkpt><trkpt lat="45.805679877747046" lon="12.91847651523804"><ele>5.5</ele><time>2026-05-01T15:44:40.999Z</time></trkpt><trkpt lat="45.805724908320656" lon="12.918993372234961"><ele>6.0</ele><time>2026-05-01T15:44:41.999Z</time></trkpt><trkpt lat="45.80576827196945" lon="12.919511228539466"><ele>6.0</ele><time>2026-05-01T15:44:42.999Z</time></trkpt><trkpt lat="45.805809819935845" lon="12.920023781249066"><ele>6.0</ele><time>2026-05-01T15:44:43.999Z</time></trkpt><trkpt lat="45.805851056445285" lon="12.92053625866249"><ele>7.0</ele><time>2026-05-01T15:44:44.999Z</time></trkpt><trkpt lat="45.805892777283766" lon="12.92104576164776"><ele>8.0</ele><time>2026-05-01T15:44:45.999Z</time></trkpt><trkpt lat="45.805934432435194" lon="12.921555331804413"><ele>8.0</ele><time>2026-05-01T15:44:46.999Z</time></trkpt><trkpt lat="45.805974350279094" lon="12.922063181047845"><ele>8.0</ele><time>2026-05-01T15:44:47.999Z</time></trkpt><trkpt lat="45.80601381391943" lon="12.922567002502964"><ele>6.0</ele><time>2026-05-01T15:44:48.999Z</time></trkpt><trkpt lat="45.80605235900768" lon="12.923068926783053"><ele>4.0</ele><time>2026-05-01T15:44:49.999Z</time></trkpt><trkpt lat="45.80608908001461" lon="12.923570330405383"><ele>4.0</ele><time>2026-05-01T15:44:50.999Z</time></trkpt><trkpt lat="45.80612442800045" lon="12.924073542182052"><ele>4.0</ele><time>2026-05-01T15:44:51.999Z</time></trkpt><trkpt lat="45.80616026241439" lon="12.924576970981143"><ele>3.5</ele><time>2026-05-01T15:44:52.999Z</time></trkpt><trkpt lat="45.80619739930543" lon="12.92508023273899"><ele>3.0</ele><time>2026-05-01T15:44:53.999Z</time></trkpt><trkpt lat="45.80623365886705" lon="12.92558531405691"><ele>3.0</ele><time>2026-05-01T15:44:54.999Z</time></trkpt><trkpt lat="45.80626827943045" lon="12.92609176892941"><ele>3.0</ele><time>2026-05-01T15:44:55.999Z</time></trkpt><trkpt lat="45.806301493876454" lon="12.926599790104389"><ele>3.5</ele><time>2026-05-01T15:44:56.999Z</time></trkpt><trkpt lat="45.80633602522687" lon="12.92710822918643"><ele>4.0</ele><time>2026-05-01T15:44:57.999Z</time></trkpt><trkpt lat="45.806368675198776" lon="12.927612155974348"><ele>4.0</ele><time>2026-05-01T15:44:58.999Z</time></trkpt><trkpt lat="45.80640213082214" lon="12.92811442681276"><ele>4.0</ele><time>2026-05-01T15:44:59.999Z</time></trkpt><trkpt lat="45.80643708995359" lon="12.928611153985235"><ele>4.0</ele><time>2026-05-01T15:45:00.999Z</time></trkpt><trkpt lat="45.80647117148493" lon="12.929100181541628"><ele>4.0</ele><time>2026-05-01T15:45:01.999Z</time></trkpt><trkpt lat="45.806504588277484" lon="12.929586185919856"><ele>4.0</ele><time>2026-05-01T15:45:02.999Z</time></trkpt><trkpt lat="45.80653931515425" lon="12.93006859270456"><ele>4.0</ele><time>2026-05-01T15:45:03.999Z</time></trkpt><trkpt lat="45.80657600123663" lon="12.930548891044701"><ele>4.0</ele><time>2026-05-01T15:45:04.999Z</time></trkpt><trkpt lat="45.80661321197284" lon="12.931027691885763"><ele>4.0</ele><time>2026-05-01T15:45:05.999Z</time></trkpt><trkpt lat="45.806651384185415" lon="12.931507584009433"><ele>3.5</ele><time>2026-05-01T15:45:06.999Z</time></trkpt><trkpt lat="45.80668723637784" lon="12.931985391804664"><ele>3.0</ele><time>2026-05-01T15:45:07.999Z</time></trkpt><trkpt lat="45.80672329054484" lon="12.93246486478865"><ele>2.5</ele><time>2026-05-01T15:45:08.999Z</time></trkpt><trkpt lat="45.806761171560176" lon="12.93294227366049"><ele>2.0</ele><time>2026-05-01T15:45:09.999Z</time></trkpt><trkpt lat="45.8068004159607" lon="12.933419587464924"><ele>3.0</ele><time>2026-05-01T15:45:10.999Z</time></trkpt><trkpt lat="45.806840619583944" lon="12.93389637415524"><ele>4.0</ele><time>2026-05-01T15:45:11.999Z</time></trkpt><trkpt lat="45.806878099487726" lon="12.934373046019356"><ele>4.0</ele><time>2026-05-01T15:45:12.999Z</time></trkpt><trkpt lat="45.80691467469062" lon="12.934847547296327"><ele>4.0</ele><time>2026-05-01T15:45:13.999Z</time></trkpt><trkpt lat="45.80694954506448" lon="12.935319640546012"><ele>3.5</ele><time>2026-05-01T15:45:14.999Z</time></trkpt><trkpt lat="45.80698670594567" lon="12.935789592156882"><ele>3.0</ele><time>2026-05-01T15:45:15.999Z</time></trkpt><trkpt lat="45.80702191180832" lon="12.93625569718895"><ele>3.0</ele><time>2026-05-01T15:45:16.999Z</time></trkpt><trkpt lat="45.80705779494125" lon="12.936721698107121"><ele>3.0</ele><time>2026-05-01T15:45:17.999Z</time></trkpt><trkpt lat="45.8070964980941" lon="12.937185372827324"><ele>3.5</ele><time>2026-05-01T15:45:18.999Z</time></trkpt><trkpt lat="45.80713423858527" lon="12.93764523264405"><ele>4.0</ele><time>2026-05-01T15:45:19.999Z</time></trkpt><trkpt lat="45.80717016994862" lon="12.938110060716365"><ele>4.5</ele><time>2026-05-01T15:45:20.999Z</time></trkpt><trkpt lat="45.807206496158656" lon="12.938577936481119"><ele>5.0</ele><time>2026-05-01T15:45:21.999Z</time></trkpt><trkpt lat="45.807244439014234" lon="12.939043796961247"><ele>3.5</ele><time>2026-05-01T15:45:22.999Z</time></trkpt><trkpt lat="45.80728305560515" lon="12.939511622664737"><ele>2.0</ele><time>2026-05-01T15:45:23.999Z</time></trkpt><trkpt lat="45.807321245778226" lon="12.939979340234297"><ele>2.0</ele><time>2026-05-01T15:45:24.999Z</time></trkpt><trkpt lat="45.80735905457269" lon="12.940449498265748"><ele>2.0</ele><time>2026-05-01T15:45:25.999Z</time></trkpt><trkpt lat="45.807396561873716" lon="12.940921297564332"><ele>2.5</ele><time>2026-05-01T15:45:26.999Z</time></trkpt><trkpt lat="45.80743369539301" lon="12.941391466239992"><ele>3.0</ele><time>2026-05-01T15:45:27.999Z</time></trkpt><trkpt lat="45.80747078569836" lon="12.941863359375278"><ele>3.0</ele><time>2026-05-01T15:45:28.999Z</time></trkpt><trkpt lat="45.80750688018084" lon="12.94233806773071"><ele>3.0</ele><time>2026-05-01T15:45:29.999Z</time></trkpt><trkpt lat="45.80754167698359" lon="12.942813817361605"><ele>3.5</ele><time>2026-05-01T15:45:30.999Z</time></trkpt><trkpt lat="45.80757676055619" lon="12.943290174611743"><ele>4.0</ele><time>2026-05-01T15:45:31.999Z</time></trkpt><trkpt lat="45.80761433045372" lon="12.943765442991719"><ele>3.5</ele><time>2026-05-01T15:45:32.999Z</time></trkpt><trkpt lat="45.80765312392633" lon="12.94424205654068"><ele>3.0</ele><time>2026-05-01T15:45:33.999Z</time></trkpt><trkpt lat="45.80769253167819" lon="12.944716694839327"><ele>3.5</ele><time>2026-05-01T15:45:34.999Z</time></trkpt><trkpt lat="45.80773103169834" lon="12.945193227853563"><ele>4.0</ele><time>2026-05-01T15:45:35.999Z</time></trkpt><trkpt lat="45.80776721228783" lon="12.945668008463864"><ele>4.0</ele><time>2026-05-01T15:45:36.999Z</time></trkpt><trkpt lat="45.80780388293944" lon="12.946142628404285"><ele>4.0</ele><time>2026-05-01T15:45:37.999Z</time></trkpt><trkpt lat="45.807840619275076" lon="12.946617871810647"><ele>4.0</ele><time>2026-05-01T15:45:38.999Z</time></trkpt><trkpt lat="45.807877735973015" lon="12.94709374871358"><ele>4.0</ele><time>2026-05-01T15:45:40Z</time></trkpt><trkpt lat="45.80791398075656" lon="12.94757320684857"><ele>4.0</ele><time>2026-05-01T15:45:41Z</time></trkpt><trkpt lat="45.807951987992176" lon="12.948053308771238"><ele>4.0</ele><time>2026-05-01T15:45:42Z</time></trkpt><trkpt lat="45.807991211767636" lon="12.948535412289502"><ele>4.0</ele><time>2026-05-01T15:45:43Z</time></trkpt><trkpt lat="45.80803101136161" lon="12.949016202493718"><ele>4.0</ele><time>2026-05-01T15:45:44Z</time></trkpt><trkpt lat="45.80807056358906" lon="12.949499409526853"><ele>4.0</ele><time>2026-05-01T15:45:45Z</time></trkpt><trkpt lat="45.808110003569354" lon="12.949982995646806"><ele>4.0</ele><time>2026-05-01T15:45:46Z</time></trkpt><trkpt lat="45.80814872982006" lon="12.950465701978645"><ele>4.0</ele><time>2026-05-01T15:45:47Z</time></trkpt><trkpt lat="45.80818630359834" lon="12.950951610812433"><ele>4.0</ele><time>2026-05-01T15:45:48Z</time></trkpt><trkpt lat="45.8082244946445" lon="12.95143572939961"><ele>4.0</ele><time>2026-05-01T15:45:49Z</time></trkpt><trkpt lat="45.808263713878375" lon="12.951920301341442"><ele>4.0</ele><time>2026-05-01T15:45:50Z</time></trkpt><trkpt lat="45.808301954876086" lon="12.952405853271697"><ele>4.5</ele><time>2026-05-01T15:45:51Z</time></trkpt><trkpt lat="45.80833882834346" lon="12.952892314973017"><ele>5.0</ele><time>2026-05-01T15:45:52Z</time></trkpt><trkpt lat="45.80837411659762" lon="12.953380533679907"><ele>5.0</ele><time>2026-05-01T15:45:53Z</time></trkpt><trkpt lat="45.80840573742221" lon="12.953870628081283"><ele>5.0</ele><time>2026-05-01T15:45:54Z</time></trkpt><trkpt lat="45.80843492241582" lon="12.954358640972085"><ele>5.0</ele><time>2026-05-01T15:45:55Z</time></trkpt><trkpt lat="45.80846570026941" lon="12.95484670266936"><ele>5.0</ele><time>2026-05-01T15:45:56Z</time></trkpt><trkpt lat="45.80849984789565" lon="12.955332797164042"><ele>5.0</ele><time>2026-05-01T15:45:57Z</time></trkpt><trkpt lat="45.80853694524706" lon="12.95581861162007"><ele>5.0</ele><time>2026-05-01T15:45:58Z</time></trkpt><trkpt lat="45.80857608476865" lon="12.95630389351258"><ele>5.0</ele><time>2026-05-01T15:45:59Z</time></trkpt><trkpt lat="45.808615264505455" lon="12.956790885055502"><ele>5.0</ele><time>2026-05-01T15:46:00Z</time></trkpt><trkpt lat="45.80865368193793" lon="12.957275947214283"><ele>4.5</ele><time>2026-05-01T15:46:01Z</time></trkpt><trkpt lat="45.80869095250432" lon="12.95776318054896"><ele>4.0</ele><time>2026-05-01T15:46:02Z</time></trkpt><trkpt lat="45.80872637425707" lon="12.958249359423268"><ele>4.0</ele><time>2026-05-01T15:46:03Z</time></trkpt><trkpt lat="45.8087613251348" lon="12.958736654569309"><ele>4.0</ele><time>2026-05-01T15:46:03.999Z</time></trkpt><trkpt lat="45.8087984050112" lon="12.959224642026797"><ele>4.5</ele><time>2026-05-01T15:46:04.999Z</time></trkpt><trkpt lat="45.808838400681466" lon="12.959710236432485"><ele>5.0</ele><time>2026-05-01T15:46:05.999Z</time></trkpt><trkpt lat="45.808878857316266" lon="12.960194952509744"><ele>5.5</ele><time>2026-05-01T15:46:06.999Z</time></trkpt><trkpt lat="45.8089167781607" lon="12.960677315033548"><ele>6.0</ele><time>2026-05-01T15:46:07.999Z</time></trkpt><trkpt lat="45.8089541938182" lon="12.961158655227655"><ele>6.0</ele><time>2026-05-01T15:46:08.999Z</time></trkpt><trkpt lat="45.80899227685" lon="12.961639621881014"><ele>6.0</ele><time>2026-05-01T15:46:09.999Z</time></trkpt><trkpt lat="45.80903260874727" lon="12.962122172541475"><ele>5.5</ele><time>2026-05-01T15:46:10.999Z</time></trkpt><trkpt lat="45.80907577391416" lon="12.962605029884056"><ele>5.0</ele><time>2026-05-01T15:46:11.999Z</time></trkpt><trkpt lat="45.809122247262415" lon="12.963087181296796"><ele>5.5</ele><time>2026-05-01T15:46:12.999Z</time></trkpt><trkpt lat="45.80917110557656" lon="12.963568927555125"><ele>6.0</ele><time>2026-05-01T15:46:13.999Z</time></trkpt><trkpt lat="45.80921917208798" lon="12.964050409064667"><ele>6.5</ele><time>2026-05-01T15:46:14.999Z</time></trkpt><trkpt lat="45.80926889597709" lon="12.964530860238797"><ele>7.0</ele><time>2026-05-01T15:46:15.999Z</time></trkpt><trkpt lat="45.80932499036249" lon="12.965008110182248"><ele>7.0</ele><time>2026-05-01T15:46:16.999Z</time></trkpt><trkpt lat="45.80938891471815" lon="12.965483817635185"><ele>7.0</ele><time>2026-05-01T15:46:17.999Z</time></trkpt><trkpt lat="45.80945644973013" lon="12.965957857642705"><ele>7.0</ele><time>2026-05-01T15:46:18.999Z</time></trkpt><trkpt lat="45.809528110788975" lon="12.966430111702545"><ele>7.0</ele><time>2026-05-01T15:46:19.999Z</time></trkpt><trkpt lat="45.80960169597819" lon="12.966901468981066"><ele>7.0</ele><time>2026-05-01T15:46:20.999Z</time></trkpt><trkpt lat="45.8096796988615" lon="12.967371002078337"><ele>7.0</ele><time>2026-05-01T15:46:21.999Z</time></trkpt><trkpt lat="45.809762555096825" lon="12.967838692850703"><ele>7.0</ele><time>2026-05-01T15:46:22.999Z</time></trkpt><trkpt lat="45.80984875107293" lon="12.968305787742333"><ele>7.0</ele><time>2026-05-01T15:46:23.999Z</time></trkpt><trkpt lat="45.80993586307382" lon="12.968770923207416"><ele>7.5</ele><time>2026-05-01T15:46:24.999Z</time></trkpt><trkpt lat="45.81002537457305" lon="12.96923610630008"><ele>8.0</ele><time>2026-05-01T15:46:25.999Z</time></trkpt><trkpt lat="45.810115613833155" lon="12.969698714613147"><ele>7.0</ele><time>2026-05-01T15:46:26.999Z</time></trkpt><trkpt lat="45.81020900981246" lon="12.970159776332805"><ele>6.0</ele><time>2026-05-01T15:46:27.999Z</time></trkpt><trkpt lat="45.81030493697586" lon="12.970618888554437"><ele>6.5</ele><time>2026-05-01T15:46:28.999Z</time></trkpt><trkpt lat="45.81040193560617" lon="12.971079026952866"><ele>7.0</ele><time>2026-05-01T15:46:29.999Z</time></trkpt><trkpt lat="45.810496297063274" lon="12.971539520237465"><ele>7.5</ele><time>2026-05-01T15:46:30.999Z</time></trkpt><trkpt lat="45.81058644136424" lon="12.972002580620343"><ele>8.0</ele><time>2026-05-01T15:46:31.999Z</time></trkpt><trkpt lat="45.81067507948556" lon="12.972466865095667"><ele>7.5</ele><time>2026-05-01T15:46:32.999Z</time></trkpt><trkpt lat="45.81076433851522" lon="12.972931045115548"><ele>7.0</ele><time>2026-05-01T15:46:33.999Z</time></trkpt><trkpt lat="45.810853360493226" lon="12.973394133669041"><ele>6.5</ele><time>2026-05-01T15:46:34.999Z</time></trkpt><trkpt lat="45.81094298343338" lon="12.973857490654003"><ele>6.0</ele><time>2026-05-01T15:46:35.999Z</time></trkpt><trkpt lat="45.81103195740772" lon="12.974317205474737"><ele>6.0</ele><time>2026-05-01T15:46:36.999Z</time></trkpt><trkpt lat="45.81111985989951" lon="12.974777756863194"><ele>6.0</ele><time>2026-05-01T15:46:37.999Z</time></trkpt><trkpt lat="45.81120571393671" lon="12.975237950251787"><ele>7.0</ele><time>2026-05-01T15:46:38.999Z</time></trkpt><trkpt lat="45.81129173582177" lon="12.97569933446426"><ele>8.0</ele><time>2026-05-01T15:46:39.999Z</time></trkpt><trkpt lat="45.81137435651927" lon="12.976160758459867"><ele>8.5</ele><time>2026-05-01T15:46:40.999Z</time></trkpt><trkpt lat="45.81145711245685" lon="12.976625212346777"><ele>9.0</ele><time>2026-05-01T15:46:41.999Z</time></trkpt><trkpt lat="45.811540877986104" lon="12.977093683757927"><ele>9.0</ele><time>2026-05-01T15:46:42.999Z</time></trkpt><trkpt lat="45.81162763428874" lon="12.97756549895403"><ele>9.0</ele><time>2026-05-01T15:46:43.999Z</time></trkpt><trkpt lat="45.81171508465582" lon="12.978041501663782"><ele>8.5</ele><time>2026-05-01T15:46:44.999Z</time></trkpt><trkpt lat="45.81180134355265" lon="12.978519849524801"><ele>8.0</ele><time>2026-05-01T15:46:45.999Z</time></trkpt><trkpt lat="45.811888062831706" lon="12.97900073076941"><ele>5.0</ele><time>2026-05-01T15:46:46.999Z</time></trkpt><trkpt lat="45.811978139816055" lon="12.97948383445391"><ele>2.0</ele><time>2026-05-01T15:46:47.999Z</time></trkpt><trkpt lat="45.81207012643323" lon="12.979969511878327"><ele>2.0</ele><time>2026-05-01T15:46:48.999Z</time></trkpt><trkpt lat="45.81216126362011" lon="12.980457110876122"><ele>2.0</ele><time>2026-05-01T15:46:49.999Z</time></trkpt><trkpt lat="45.8122531482429" lon="12.980942959775607"><ele>4.0</ele><time>2026-05-01T15:46:50.999Z</time></trkpt><trkpt lat="45.81234553167143" lon="12.981427841836878"><ele>6.0</ele><time>2026-05-01T15:46:51.999Z</time></trkpt><trkpt lat="45.812436545824646" lon="12.981909906263132"><ele>6.5</ele><time>2026-05-01T15:46:52.999Z</time></trkpt><trkpt lat="45.812528248524245" lon="12.982392216575786"><ele>7.0</ele><time>2026-05-01T15:46:53.999Z</time></trkpt><trkpt lat="45.81261734942131" lon="12.982872346080446"><ele>6.5</ele><time>2026-05-01T15:46:54.999Z</time></trkpt><trkpt lat="45.8127047131716" lon="12.98335543099524"><ele>6.0</ele><time>2026-05-01T15:46:55.999Z</time></trkpt><trkpt lat="45.81279237092701" lon="12.983839987258884"><ele>6.0</ele><time>2026-05-01T15:46:56.999Z</time></trkpt><trkpt lat="45.81288121296511" lon="12.984322554813247"><ele>6.0</ele><time>2026-05-01T15:46:57.999Z</time></trkpt><trkpt lat="45.812969934284915" lon="12.984806033549452"><ele>6.5</ele><time>2026-05-01T15:46:58.999Z</time></trkpt><trkpt lat="45.81305836772174" lon="12.98528910466017"><ele>7.0</ele><time>2026-05-01T15:46:59.999Z</time></trkpt><trkpt lat="45.8131465765151" lon="12.985772037968026"><ele>7.0</ele><time>2026-05-01T15:47:00.999Z</time></trkpt><trkpt lat="45.81323346238981" lon="12.986255917683453"><ele>7.0</ele><time>2026-05-01T15:47:01.999Z</time></trkpt><trkpt lat="45.81331977871907" lon="12.98673961179026"><ele>7.5</ele><time>2026-05-01T15:47:02.999Z</time></trkpt><trkpt lat="45.81340619554182" lon="12.987223580409001"><ele>8.0</ele><time>2026-05-01T15:47:03.999Z</time></trkpt><trkpt lat="45.813493427773764" lon="12.987708035020658"><ele>7.0</ele><time>2026-05-01T15:47:04.999Z</time></trkpt><trkpt lat="45.81358135375289" lon="12.988190310415137"><ele>6.0</ele><time>2026-05-01T15:47:05.999Z</time></trkpt><trkpt lat="45.81367032119099" lon="12.988673281075386"><ele>8.0</ele><time>2026-05-01T15:47:06.999Z</time></trkpt><trkpt lat="45.81375939056246" lon="12.989155725711939"><ele>10.0</ele><time>2026-05-01T15:47:07.999Z</time></trkpt><trkpt lat="45.81384732071342" lon="12.989638915584221"><ele>9.0</ele><time>2026-05-01T15:47:08.999Z</time></trkpt><trkpt lat="45.81393545528941" lon="12.990121481729684"><ele>8.0</ele><time>2026-05-01T15:47:09.999Z</time></trkpt><trkpt lat="45.8140231428264" lon="12.990605407688188"><ele>8.5</ele><time>2026-05-01T15:47:10.999Z</time></trkpt><trkpt lat="45.814111186435994" lon="12.991091968312617"><ele>9.0</ele><time>2026-05-01T15:47:11.999Z</time></trkpt><trkpt lat="45.81419930995163" lon="12.99157935431461"><ele>9.0</ele><time>2026-05-01T15:47:12.999Z</time></trkpt><trkpt lat="45.814288103800514" lon="12.992065774177329"><ele>9.0</ele><time>2026-05-01T15:47:13.999Z</time></trkpt><trkpt lat="45.8143760676484" lon="12.992548457067862"><ele>9.0</ele><time>2026-05-01T15:47:14.999Z</time></trkpt><trkpt lat="45.81446331442596" lon="12.99302968540481"><ele>9.0</ele><time>2026-05-01T15:47:15.999Z</time></trkpt><trkpt lat="45.81454980248026" lon="12.993510743209137"><ele>9.0</ele><time>2026-05-01T15:47:16.999Z</time></trkpt><trkpt lat="45.81463431059824" lon="12.993988905004624"><ele>9.0</ele><time>2026-05-01T15:47:17.999Z</time></trkpt><trkpt lat="45.814717993458004" lon="12.994465872207059"><ele>9.0</ele><time>2026-05-01T15:47:18.999Z</time></trkpt><trkpt lat="45.814801755969235" lon="12.994942894591881"><ele>9.0</ele><time>2026-05-01T15:47:19.999Z</time></trkpt><trkpt lat="45.814886281755236" lon="12.995418873289212"><ele>9.5</ele><time>2026-05-01T15:47:20.999Z</time></trkpt><trkpt lat="45.81496869979657" lon="12.995895305883984"><ele>10.0</ele><time>2026-05-01T15:47:21.999Z</time></trkpt><trkpt lat="45.81504778910155" lon="12.996372328983542"><ele>10.0</ele><time>2026-05-01T15:47:22.999Z</time></trkpt><trkpt lat="45.81512223551412" lon="12.996850076658351"><ele>10.0</ele><time>2026-05-01T15:47:23.999Z</time></trkpt><trkpt lat="45.81519485918809" lon="12.997327417018774"><ele>10.0</ele><time>2026-05-01T15:47:24.999Z</time></trkpt><trkpt lat="45.81526748683892" lon="12.997805692856483"><ele>10.0</ele><time>2026-05-01T15:47:25.999Z</time></trkpt><trkpt lat="45.815338342561446" lon="12.998283687581756"><ele>9.0</ele><time>2026-05-01T15:47:26.999Z</time></trkpt><trkpt lat="45.81540528422263" lon="12.998760763193784"><ele>8.0</ele><time>2026-05-01T15:47:27.999Z</time></trkpt><trkpt lat="45.81546991836545" lon="12.999236931639611"><ele>8.0</ele><time>2026-05-01T15:47:28.999Z</time></trkpt><trkpt lat="45.81553300574388" lon="12.999713388936954"><ele>8.0</ele><time>2026-05-01T15:47:29.999Z</time></trkpt><trkpt lat="45.81559515359195" lon="13.00019046145383"><ele>8.0</ele><time>2026-05-01T15:47:30.999Z</time></trkpt><trkpt lat="45.81565956257967" lon="13.000667769015285"><ele>8.0</ele><time>2026-05-01T15:47:31.999Z</time></trkpt><trkpt lat="45.81572669813439" lon="13.001143722176614"><ele>8.5</ele><time>2026-05-01T15:47:32.999Z</time></trkpt><trkpt lat="45.815798245932605" lon="13.001620640763944"><ele>9.0</ele><time>2026-05-01T15:47:33.999Z</time></trkpt><trkpt lat="45.81587431854903" lon="13.002098978795454"><ele>8.5</ele><time>2026-05-01T15:47:34.999Z</time></trkpt><trkpt lat="45.815953830502494" lon="13.002576209433537"><ele>8.0</ele><time>2026-05-01T15:47:35.999Z</time></trkpt><trkpt lat="45.81603672053422" lon="13.003053844295989"><ele>7.0</ele><time>2026-05-01T15:47:36.999Z</time></trkpt><trkpt lat="45.81611930500621" lon="13.003534574416385"><ele>6.0</ele><time>2026-05-01T15:47:37.999Z</time></trkpt><trkpt lat="45.8161991921311" lon="13.004016984630908"><ele>6.0</ele><time>2026-05-01T15:47:38.999Z</time></trkpt><trkpt lat="45.81627739562148" lon="13.004502302790987"><ele>6.0</ele><time>2026-05-01T15:47:39.999Z</time></trkpt><trkpt lat="45.81635386454778" lon="13.004989854804755"><ele>6.0</ele><time>2026-05-01T15:47:40.999Z</time></trkpt><trkpt lat="45.816427240011734" lon="13.005479234442907"><ele>6.0</ele><time>2026-05-01T15:47:41.999Z</time></trkpt><trkpt lat="45.81649731588754" lon="13.00597090999266"><ele>6.0</ele><time>2026-05-01T15:47:42.999Z</time></trkpt><trkpt lat="45.81656319024515" lon="13.0064655413629"><ele>6.0</ele><time>2026-05-01T15:47:43.999Z</time></trkpt><trkpt lat="45.81662418852785" lon="13.006960164668833"><ele>5.5</ele><time>2026-05-01T15:47:44.999Z</time></trkpt><trkpt lat="45.81667883817718" lon="13.00744013848225"><ele>5.0</ele><time>2026-05-01T15:47:46Z</time></trkpt><trkpt lat="45.81673031331452" lon="13.007906320878192"><ele>5.0</ele><time>2026-05-01T15:47:47Z</time></trkpt><trkpt lat="45.816777675250314" lon="13.008367932455181"><ele>5.0</ele><time>2026-05-01T15:47:48Z</time></trkpt><trkpt lat="45.81681874584894" lon="13.008820336257552"><ele>5.0</ele><time>2026-05-01T15:47:49Z</time></trkpt><trkpt lat="45.816857705884644" lon="13.009265455431624"><ele>5.0</ele><time>2026-05-01T15:47:50Z</time></trkpt><trkpt lat="45.81689027622118" lon="13.009702378700187"><ele>5.0</ele><time>2026-05-01T15:47:51Z</time></trkpt><trkpt lat="45.81692210877222" lon="13.010131885365832"><ele>5.0</ele><time>2026-05-01T15:47:52Z</time></trkpt><trkpt lat="45.816954504162226" lon="13.010553556487583"><ele>5.0</ele><time>2026-05-01T15:47:53Z</time></trkpt><trkpt lat="45.816991272949096" lon="13.010970858881254"><ele>5.0</ele><time>2026-05-01T15:47:54Z</time></trkpt><trkpt lat="45.81702903484531" lon="13.011391962650038"><ele>5.5</ele><time>2026-05-01T15:47:55Z</time></trkpt><trkpt lat="45.817069853144304" lon="13.011814892165853"><ele>6.0</ele><time>2026-05-01T15:47:56Z</time></trkpt><trkpt lat="45.81711369205231" lon="13.012239844489605"><ele>6.5</ele><time>2026-05-01T15:47:57Z</time></trkpt><trkpt lat="45.81715831913333" lon="13.012670923421135"><ele>7.0</ele><time>2026-05-01T15:47:58Z</time></trkpt><trkpt lat="45.81720186744677" lon="13.013109915270233"><ele>7.0</ele><time>2026-05-01T15:47:59Z</time></trkpt><trkpt lat="45.81724106063759" lon="13.013553368207447"><ele>7.0</ele><time>2026-05-01T15:48:00Z</time></trkpt><trkpt lat="45.81727750261498" lon="13.013998548028198"><ele>7.5</ele><time>2026-05-01T15:48:01Z</time></trkpt><trkpt lat="45.8173144300935" lon="13.014445380770814"><ele>8.0</ele><time>2026-05-01T15:48:02Z</time></trkpt><trkpt lat="45.8173507397271" lon="13.014895256565797"><ele>7.0</ele><time>2026-05-01T15:48:03Z</time></trkpt><trkpt lat="45.817387406454415" lon="13.015346526247006"><ele>6.0</ele><time>2026-05-01T15:48:04Z</time></trkpt><trkpt lat="45.81742438177914" lon="13.015799137836076"><ele>5.5</ele><time>2026-05-01T15:48:05Z</time></trkpt><trkpt lat="45.81745968232217" lon="13.016250184192222"><ele>5.0</ele><time>2026-05-01T15:48:06Z</time></trkpt><trkpt lat="45.81749267787444" lon="13.016699576930497"><ele>5.0</ele><time>2026-05-01T15:48:07Z</time></trkpt><trkpt lat="45.81752490443849" lon="13.01714926169499"><ele>5.0</ele><time>2026-05-01T15:48:08Z</time></trkpt><trkpt lat="45.817558969001865" lon="13.017592233565706"><ele>6.0</ele><time>2026-05-01T15:48:08.999Z</time></trkpt><trkpt lat="45.81759601763309" lon="13.018030134263961"><ele>7.0</ele><time>2026-05-01T15:48:09.999Z</time></trkpt><trkpt lat="45.81763317149754" lon="13.018459815479861"><ele>6.0</ele><time>2026-05-01T15:48:10.999Z</time></trkpt><trkpt lat="45.81766604120189" lon="13.018892645631714"><ele>5.0</ele><time>2026-05-01T15:48:11.999Z</time></trkpt><trkpt lat="45.81769776095965" lon="13.019324497563542"><ele>5.0</ele><time>2026-05-01T15:48:12.999Z</time></trkpt><trkpt lat="45.817731860979954" lon="13.01975858794911"><ele>5.0</ele><time>2026-05-01T15:48:13.999Z</time></trkpt><trkpt lat="45.81776896740158" lon="13.02019480484582"><ele>5.0</ele><time>2026-05-01T15:48:14.999Z</time></trkpt><trkpt lat="45.81780541050959" lon="13.020632752190812"><ele>5.0</ele><time>2026-05-01T15:48:15.999Z</time></trkpt><trkpt lat="45.81784251900598" lon="13.02107388350056"><ele>5.0</ele><time>2026-05-01T15:48:16.999Z</time></trkpt><trkpt lat="45.8178806512222" lon="13.021519266407191"><ele>5.0</ele><time>2026-05-01T15:48:17.999Z</time></trkpt><trkpt lat="45.81791773934194" lon="13.021968645919532"><ele>4.0</ele><time>2026-05-01T15:48:18.999Z</time></trkpt><trkpt lat="45.8179545682487" lon="13.022426079735855"><ele>3.0</ele><time>2026-05-01T15:48:19.999Z</time></trkpt><trkpt lat="45.81799039567126" lon="13.022890791513998"><ele>4.0</ele><time>2026-05-01T15:48:20.999Z</time></trkpt><trkpt lat="45.818024334544404" lon="13.0233584935011"><ele>5.0</ele><time>2026-05-01T15:48:21.999Z</time></trkpt><trkpt lat="45.81805515725283" lon="13.023830296113102"><ele>5.0</ele><time>2026-05-01T15:48:22.999Z</time></trkpt><trkpt lat="45.81808718743287" lon="13.024306294262544"><ele>5.0</ele><time>2026-05-01T15:48:23.999Z</time></trkpt><trkpt lat="45.81812259359609" lon="13.02478620688053"><ele>5.0</ele><time>2026-05-01T15:48:24.999Z</time></trkpt><trkpt lat="45.81816029513036" lon="13.025265617462956"><ele>5.0</ele><time>2026-05-01T15:48:25.999Z</time></trkpt><trkpt lat="45.818199726669654" lon="13.025746728451288"><ele>5.0</ele><time>2026-05-01T15:48:26.999Z</time></trkpt><trkpt lat="45.81823885903821" lon="13.02622895352657"><ele>5.0</ele><time>2026-05-01T15:48:27.999Z</time></trkpt><trkpt lat="45.81828028019985" lon="13.026709942199629"><ele>5.5</ele><time>2026-05-01T15:48:28.999Z</time></trkpt><trkpt lat="45.81832568357533" lon="13.027190247367898"><ele>6.0</ele><time>2026-05-01T15:48:29.999Z</time></trkpt><trkpt lat="45.8183737416832" lon="13.0276716009242"><ele>5.0</ele><time>2026-05-01T15:48:30.999Z</time></trkpt><trkpt lat="45.81842188319654" lon="13.02815168244719"><ele>4.0</ele><time>2026-05-01T15:48:31.999Z</time></trkpt><trkpt lat="45.81846815161294" lon="13.028627616292026"><ele>4.5</ele><time>2026-05-01T15:48:32.999Z</time></trkpt><trkpt lat="45.81851538928974" lon="13.029099592352573"><ele>5.0</ele><time>2026-05-01T15:48:33.999Z</time></trkpt><trkpt lat="45.81856441223369" lon="13.029566013581508"><ele>5.5</ele><time>2026-05-01T15:48:34.999Z</time></trkpt><trkpt lat="45.81861725156111" lon="13.030027917245276"><ele>6.0</ele><time>2026-05-01T15:48:35.999Z</time></trkpt><trkpt lat="45.81867497110842" lon="13.030486077186959"><ele>4.5</ele><time>2026-05-01T15:48:36.999Z</time></trkpt><trkpt lat="45.81873747638697" lon="13.030939292158592"><ele>3.0</ele><time>2026-05-01T15:48:37.999Z</time></trkpt><trkpt lat="45.81880576963832" lon="13.031390715230808"><ele>3.5</ele><time>2026-05-01T15:48:38.999Z</time></trkpt><trkpt lat="45.818879475321054" lon="13.031836988742718"><ele>4.0</ele><time>2026-05-01T15:48:39.999Z</time></trkpt><trkpt lat="45.8189559220983" lon="13.03227487752681"><ele>4.5</ele><time>2026-05-01T15:48:40.999Z</time></trkpt><trkpt lat="45.81903733559577" lon="13.032711187825223"><ele>5.0</ele><time>2026-05-01T15:48:41.999Z</time></trkpt><trkpt lat="45.819121002754656" lon="13.033145686920456"><ele>5.5</ele><time>2026-05-01T15:48:42.999Z</time></trkpt><trkpt lat="45.81920247273369" lon="13.033583090711664"><ele>6.0</ele><time>2026-05-01T15:48:43.999Z</time></trkpt><trkpt lat="45.81928832535887" lon="13.034019392035976"><ele>6.0</ele><time>2026-05-01T15:48:44.999Z</time></trkpt><trkpt lat="45.8193833636592" lon="13.034448103964115"><ele>6.0</ele><time>2026-05-01T15:48:45.999Z</time></trkpt><trkpt lat="45.81948743709691" lon="13.034873456002078"><ele>6.0</ele><time>2026-05-01T15:48:46.999Z</time></trkpt><trkpt lat="45.81959873922625" lon="13.035293768474729"><ele>6.0</ele><time>2026-05-01T15:48:47.999Z</time></trkpt><trkpt lat="45.81971411637161" lon="13.035710221886472"><ele>6.5</ele><time>2026-05-01T15:48:48.999Z</time></trkpt><trkpt lat="45.81983134326607" lon="13.036123076061521"><ele>7.0</ele><time>2026-05-01T15:48:49.999Z</time></trkpt><trkpt lat="45.81995091507489" lon="13.036533807248597"><ele>6.5</ele><time>2026-05-01T15:48:50.999Z</time></trkpt><trkpt lat="45.82007018477707" lon="13.036944878882618"><ele>6.0</ele><time>2026-05-01T15:48:51.999Z</time></trkpt><trkpt lat="45.82018598853725" lon="13.037354617958515"><ele>6.0</ele><time>2026-05-01T15:48:52.999Z</time></trkpt><trkpt lat="45.82030172965195" lon="13.037760650798022"><ele>6.0</ele><time>2026-05-01T15:48:53.999Z</time></trkpt><trkpt lat="45.82041786452086" lon="13.03816203347596"><ele>5.0</ele><time>2026-05-01T15:48:54.999Z</time></trkpt><trkpt lat="45.82053316151358" lon="13.038561774987091"><ele>4.0</ele><time>2026-05-01T15:48:55.999Z</time></trkpt><trkpt lat="45.82064715310459" lon="13.03895621938502"><ele>4.0</ele><time>2026-05-01T15:48:56.999Z</time></trkpt><trkpt lat="45.820758000111304" lon="13.03934666724273"><ele>4.0</ele><time>2026-05-01T15:48:57.999Z</time></trkpt><trkpt lat="45.82087009075125" lon="13.039738494924437"><ele>4.5</ele><time>2026-05-01T15:48:58.999Z</time></trkpt><trkpt lat="45.8209822217693" lon="13.04013147681561"><ele>5.0</ele><time>2026-05-01T15:48:59.999Z</time></trkpt><trkpt lat="45.82109715274226" lon="13.040525738426899"><ele>4.0</ele><time>2026-05-01T15:49:00.999Z</time></trkpt><trkpt lat="45.82121175112394" lon="13.040920716388966"><ele>3.0</ele><time>2026-05-01T15:49:01.999Z</time></trkpt><trkpt lat="45.821328706788144" lon="13.041317281761916"><ele>3.5</ele><time>2026-05-01T15:49:02.999Z</time></trkpt><trkpt lat="45.8214459115501" lon="13.041715979465895"><ele>4.0</ele><time>2026-05-01T15:49:03.999Z</time></trkpt><trkpt lat="45.821562621483466" lon="13.04211418569492"><ele>5.0</ele><time>2026-05-01T15:49:04.999Z</time></trkpt><trkpt lat="45.82167954082707" lon="13.042516066431189"><ele>6.0</ele><time>2026-05-01T15:49:05.999Z</time></trkpt><trkpt lat="45.821796325996345" lon="13.042918121723323"><ele>5.0</ele><time>2026-05-01T15:49:06.999Z</time></trkpt><trkpt lat="45.821912608987226" lon="13.043322965069628"><ele>4.0</ele><time>2026-05-01T15:49:07.999Z</time></trkpt><trkpt lat="45.82203067008822" lon="13.04373247364113"><ele>4.5</ele><time>2026-05-01T15:49:08.999Z</time></trkpt><trkpt lat="45.822150025643715" lon="13.044147266942131"><ele>5.0</ele><time>2026-05-01T15:49:09.999Z</time></trkpt><trkpt lat="45.822270810356514" lon="13.044566699262024"><ele>5.5</ele><time>2026-05-01T15:49:10.999Z</time></trkpt><trkpt lat="45.82239121528037" lon="13.044994524792646"><ele>6.0</ele><time>2026-05-01T15:49:11.999Z</time></trkpt><trkpt lat="45.822512233089256" lon="13.04543207337893"><ele>6.0</ele><time>2026-05-01T15:49:12.999Z</time></trkpt><trkpt lat="45.822637184034235" lon="13.04588203161104"><ele>6.0</ele><time>2026-05-01T15:49:13.999Z</time></trkpt><trkpt lat="45.82276578426921" lon="13.04634767056423"><ele>5.0</ele><time>2026-05-01T15:49:14.999Z</time></trkpt><trkpt lat="45.82289392637398" lon="13.046824988206053"><ele>4.0</ele><time>2026-05-01T15:49:15.999Z</time></trkpt><trkpt lat="45.8230202680431" lon="13.04730759555587"><ele>4.0</ele><time>2026-05-01T15:49:16.999Z</time></trkpt><trkpt lat="45.823143531552944" lon="13.047792103932839"><ele>4.0</ele><time>2026-05-01T15:49:17.999Z</time></trkpt><trkpt lat="45.823260052484486" lon="13.04827775037828"><ele>4.0</ele><time>2026-05-01T15:49:18.999Z</time></trkpt><trkpt lat="45.82337360822837" lon="13.048765844889433"><ele>4.0</ele><time>2026-05-01T15:49:19.999Z</time></trkpt><trkpt lat="45.82348514396871" lon="13.049258463608988"><ele>4.0</ele><time>2026-05-01T15:49:20.999Z</time></trkpt><trkpt lat="45.82359539998586" lon="13.04975699297227"><ele>4.0</ele><time>2026-05-01T15:49:21.999Z</time></trkpt><trkpt lat="45.82370401684384" lon="13.050262417197251"><ele>4.5</ele><time>2026-05-01T15:49:22.999Z</time></trkpt><trkpt lat="45.82380887874609" lon="13.050773464177782"><ele>5.0</ele><time>2026-05-01T15:49:23.999Z</time></trkpt><trkpt lat="45.82390983007797" lon="13.05128734799156"><ele>4.5</ele><time>2026-05-01T15:49:24.999Z</time></trkpt><trkpt lat="45.824006994007824" lon="13.051805433363027"><ele>4.0</ele><time>2026-05-01T15:49:25.999Z</time></trkpt><trkpt lat="45.82409994352142" lon="13.052324488316197"><ele>4.0</ele><time>2026-05-01T15:49:26.999Z</time></trkpt><trkpt lat="45.824189494962404" lon="13.052841530483894"><ele>4.0</ele><time>2026-05-01T15:49:27.999Z</time></trkpt><trkpt lat="45.82427814024174" lon="13.053359103084498"><ele>3.5</ele><time>2026-05-01T15:49:28.999Z</time></trkpt><trkpt lat="45.82436363736181" lon="13.053876668669956"><ele>3.0</ele><time>2026-05-01T15:49:29.999Z</time></trkpt><trkpt lat="45.82444714085758" lon="13.054394362647244"><ele>3.0</ele><time>2026-05-01T15:49:30.999Z</time></trkpt><trkpt lat="45.82452716706848" lon="13.054908604578886"><ele>3.0</ele><time>2026-05-01T15:49:31.999Z</time></trkpt><trkpt lat="45.824604757531056" lon="13.05541856827135"><ele>3.0</ele><time>2026-05-01T15:49:32.999Z</time></trkpt><trkpt lat="45.82467910515863" lon="13.055926839234921"><ele>3.0</ele><time>2026-05-01T15:49:33.999Z</time></trkpt><trkpt lat="45.82475040772173" lon="13.056427723548717"><ele>3.5</ele><time>2026-05-01T15:49:34.999Z</time></trkpt><trkpt lat="45.82482334744172" lon="13.056922097407963"><ele>4.0</ele><time>2026-05-01T15:49:35.999Z</time></trkpt><trkpt lat="45.824896066381896" lon="13.05740881360377"><ele>4.5</ele><time>2026-05-01T15:49:36.999Z</time></trkpt><trkpt lat="45.824965533026635" lon="13.057893179990737"><ele>5.0</ele><time>2026-05-01T15:49:37.999Z</time></trkpt><trkpt lat="45.82503365647381" lon="13.05837289703351"><ele>5.0</ele><time>2026-05-01T15:49:38.999Z</time></trkpt><trkpt lat="45.825105709492625" lon="13.058846748791222"><ele>5.0</ele><time>2026-05-01T15:49:39.999Z</time></trkpt><trkpt lat="45.82518021770663" lon="13.059317187235946"><ele>4.5</ele><time>2026-05-01T15:49:40.999Z</time></trkpt><trkpt lat="45.8252552930015" lon="13.059785989764505"><ele>4.0</ele><time>2026-05-01T15:49:41.999Z</time></trkpt><trkpt lat="45.825329582775076" lon="13.060256288629686"><ele>3.5</ele><time>2026-05-01T15:49:42.999Z</time></trkpt><trkpt lat="45.82540316902375" lon="13.060726156108066"><ele>3.0</ele><time>2026-05-01T15:49:43.999Z</time></trkpt><trkpt lat="45.82547400585493" lon="13.061199037238644"><ele>4.0</ele><time>2026-05-01T15:49:44.999Z</time></trkpt><trkpt lat="45.82554066866041" lon="13.061670248745882"><ele>5.0</ele><time>2026-05-01T15:49:45.999Z</time></trkpt><trkpt lat="45.825607421474395" lon="13.062142522670817"><ele>5.5</ele><time>2026-05-01T15:49:46.999Z</time></trkpt><trkpt lat="45.82567308274564" lon="13.062613446141533"><ele>6.0</ele><time>2026-05-01T15:49:47.999Z</time></trkpt><trkpt lat="45.82573601256852" lon="13.063084943602577"><ele>5.5</ele><time>2026-05-01T15:49:48.999Z</time></trkpt><trkpt lat="45.82579541659716" lon="13.063558338480059"><ele>5.0</ele><time>2026-05-01T15:49:49.999Z</time></trkpt><trkpt lat="45.82585575731069" lon="13.064033320011994"><ele>4.5</ele><time>2026-05-01T15:49:50.999Z</time></trkpt><trkpt lat="45.82591885712104" lon="13.064510485664808"><ele>4.0</ele><time>2026-05-01T15:49:52Z</time></trkpt><trkpt lat="45.825985785259086" lon="13.06498660300638"><ele>4.0</ele><time>2026-05-01T15:49:53Z</time></trkpt><trkpt lat="45.8260549046669" lon="13.065463008446303"><ele>4.0</ele><time>2026-05-01T15:49:54Z</time></trkpt><trkpt lat="45.82612660918466" lon="13.065943289148162"><ele>4.0</ele><time>2026-05-01T15:49:55Z</time></trkpt><trkpt lat="45.826198725854745" lon="13.06642360185876"><ele>4.0</ele><time>2026-05-01T15:49:56Z</time></trkpt><trkpt lat="45.82626763380068" lon="13.066907841298207"><ele>4.0</ele><time>2026-05-01T15:49:57Z</time></trkpt><trkpt lat="45.82633509180183" lon="13.067392866103479"><ele>4.0</ele><time>2026-05-01T15:49:58Z</time></trkpt><trkpt lat="45.82640347481411" lon="13.067880078265764"><ele>5.0</ele><time>2026-05-01T15:49:59Z</time></trkpt><trkpt lat="45.8264740736902" lon="13.06836880387885"><ele>6.0</ele><time>2026-05-01T15:50:00Z</time></trkpt><trkpt lat="45.82654597084388" lon="13.06885847452684"><ele>5.0</ele><time>2026-05-01T15:50:01Z</time></trkpt><trkpt lat="45.82661937727429" lon="13.069351087249343"><ele>4.0</ele><time>2026-05-01T15:50:02Z</time></trkpt><trkpt lat="45.826692639885444" lon="13.069841541466781"><ele>4.0</ele><time>2026-05-01T15:50:03Z</time></trkpt><trkpt lat="45.826764518499026" lon="13.070332826694015"><ele>4.0</ele><time>2026-05-01T15:50:04Z</time></trkpt><trkpt lat="45.826833564600946" lon="13.070822263876249"><ele>4.0</ele><time>2026-05-01T15:50:05Z</time></trkpt><trkpt lat="45.82690095713113" lon="13.071305742143503"><ele>4.0</ele><time>2026-05-01T15:50:06Z</time></trkpt><trkpt lat="45.826967057152395" lon="13.071779317249458"><ele>4.0</ele><time>2026-05-01T15:50:07Z</time></trkpt><trkpt lat="45.82703234671643" lon="13.072244829593544"><ele>4.0</ele><time>2026-05-01T15:50:08Z</time></trkpt><trkpt lat="45.82709860577381" lon="13.072708621175762"><ele>4.0</ele><time>2026-05-01T15:50:09Z</time></trkpt><trkpt lat="45.82716522222889" lon="13.073169128519458"><ele>4.0</ele><time>2026-05-01T15:50:10Z</time></trkpt><trkpt lat="45.82723442208869" lon="13.073628727037836"><ele>4.0</ele><time>2026-05-01T15:50:11Z</time></trkpt><trkpt lat="45.82730953872271" lon="13.0740961861115"><ele>4.0</ele><time>2026-05-01T15:50:11.999Z</time></trkpt><trkpt lat="45.827385777219845" lon="13.074567168417419"><ele>4.0</ele><time>2026-05-01T15:50:12.999Z</time></trkpt><trkpt lat="45.82746013199091" lon="13.075038398937622"><ele>4.0</ele><time>2026-05-01T15:50:13.999Z</time></trkpt><trkpt lat="45.827529977528414" lon="13.075510454749267"><ele>4.5</ele><time>2026-05-01T15:50:14.999Z</time></trkpt><trkpt lat="45.827596813707515" lon="13.07598346840079"><ele>5.0</ele><time>2026-05-01T15:50:15.999Z</time></trkpt><trkpt lat="45.82766332680464" lon="13.076459462353183"><ele>4.0</ele><time>2026-05-01T15:50:16.999Z</time></trkpt><trkpt lat="45.827733734116315" lon="13.076941902787445"><ele>3.0</ele><time>2026-05-01T15:50:17.999Z</time></trkpt><trkpt lat="45.827806246243185" lon="13.077427746405794"><ele>2.0</ele><time>2026-05-01T15:50:18.999Z</time></trkpt><trkpt lat="45.8278849967835" lon="13.077916920317735"><ele>1.0</ele><time>2026-05-01T15:50:19.999Z</time></trkpt><trkpt lat="45.8279687887256" lon="13.078416225082112"><ele>0.5</ele><time>2026-05-01T15:50:20.999Z</time></trkpt><trkpt lat="45.82805574610933" lon="13.078926948633919"><ele>0.0</ele><time>2026-05-01T15:50:21.999Z</time></trkpt><trkpt lat="45.82813946766693" lon="13.079448174472157"><ele>1.0</ele><time>2026-05-01T15:50:22.999Z</time></trkpt><trkpt lat="45.828218391219686" lon="13.079972238128471"><ele>2.0</ele><time>2026-05-01T15:50:23.999Z</time></trkpt><trkpt lat="45.82829648614744" lon="13.080500868252827"><ele>2.5</ele><time>2026-05-01T15:50:24.999Z</time></trkpt><trkpt lat="45.82837564292123" lon="13.081036637698242"><ele>3.0</ele><time>2026-05-01T15:50:25.999Z</time></trkpt><trkpt lat="45.82845254314091" lon="13.081575529707777"><ele>3.0</ele><time>2026-05-01T15:50:26.999Z</time></trkpt><trkpt lat="45.828531699529954" lon="13.082124362108821"><ele>3.0</ele><time>2026-05-01T15:50:27.999Z</time></trkpt><trkpt lat="45.82861320338932" lon="13.082704785809675"><ele>2.5</ele><time>2026-05-01T15:50:28.999Z</time></trkpt><trkpt lat="45.82869536471992" lon="13.08331280239238"><ele>2.0</ele><time>2026-05-01T15:50:29.999Z</time></trkpt><trkpt lat="45.82877982948629" lon="13.083943918740292"><ele>2.0</ele><time>2026-05-01T15:50:30.999Z</time></trkpt><trkpt lat="45.82886868955471" lon="13.084595775836656"><ele>2.0</ele><time>2026-05-01T15:50:31.999Z</time></trkpt><trkpt lat="45.828960565813674" lon="13.085264228278424"><ele>4.0</ele><time>2026-05-01T15:50:32.999Z</time></trkpt><trkpt lat="45.82904680955933" lon="13.085913161177425"><ele>4.0</ele><time>2026-05-01T15:50:33.999Z</time></trkpt><trkpt lat="45.82912965408539" lon="13.086533963828275"><ele>4.0</ele><time>2026-05-01T15:50:34.999Z</time></trkpt><trkpt lat="45.8292053936846" lon="13.087118985133133"><ele>2.0</ele><time>2026-05-01T15:50:35.999Z</time></trkpt><trkpt lat="45.82927914902766" lon="13.087685688366367"><ele>0.0</ele><time>2026-05-01T15:50:36.999Z</time></trkpt><trkpt lat="45.82935038101592" lon="13.088225531370142"><ele>1.0</ele><time>2026-05-01T15:50:37.999Z</time></trkpt><trkpt lat="45.829424066310914" lon="13.08874782372485"><ele>2.0</ele><time>2026-05-01T15:50:38.999Z</time></trkpt><trkpt lat="45.82949466998102" lon="13.089246657244166"><ele>2.0</ele><time>2026-05-01T15:50:39.999Z</time></trkpt><trkpt lat="45.82956482101342" lon="13.089728686074245"><ele>2.0</ele><time>2026-05-01T15:50:40.999Z</time></trkpt><trkpt lat="45.829632010624636" lon="13.090193574878944"><ele>2.0</ele><time>2026-05-01T15:50:41.999Z</time></trkpt><trkpt lat="45.82969648464435" lon="13.09065249942262"><ele>2.0</ele><time>2026-05-01T15:50:42.999Z</time></trkpt><trkpt lat="45.82975826255637" lon="13.091108843664031"><ele>2.0</ele><time>2026-05-01T15:50:43.999Z</time></trkpt><trkpt lat="45.82981955616054" lon="13.091564282133154"><ele>2.0</ele><time>2026-05-01T15:50:44.999Z</time></trkpt><trkpt lat="45.82988203729206" lon="13.09202082755073"><ele>2.0</ele><time>2026-05-01T15:50:45.999Z</time></trkpt><trkpt lat="45.829948167896056" lon="13.092479300607742"><ele>2.0</ele><time>2026-05-01T15:50:46.999Z</time></trkpt><trkpt lat="45.83001410367471" lon="13.092935154648258"><ele>2.0</ele><time>2026-05-01T15:50:47.999Z</time></trkpt><trkpt lat="45.83008119678318" lon="13.093388065454388"><ele>2.0</ele><time>2026-05-01T15:50:48.999Z</time></trkpt><trkpt lat="45.83014677649304" lon="13.093834501844604"><ele>2.5</ele><time>2026-05-01T15:50:49.999Z</time></trkpt><trkpt lat="45.83021202787619" lon="13.094278589630278"><ele>3.0</ele><time>2026-05-01T15:50:50.999Z</time></trkpt><trkpt lat="45.83027885776996" lon="13.09471889859765"><ele>2.5</ele><time>2026-05-01T15:50:51.999Z</time></trkpt><trkpt lat="45.83034545466748" lon="13.09515707762235"><ele>2.0</ele><time>2026-05-01T15:50:52.999Z</time></trkpt><trkpt lat="45.830411541501526" lon="13.095595754238055"><ele>2.5</ele><time>2026-05-01T15:50:53.999Z</time></trkpt><trkpt lat="45.83047417967312" lon="13.096037918465164"><ele>3.0</ele><time>2026-05-01T15:50:54.999Z</time></trkpt><trkpt lat="45.83053640256709" lon="13.09648585113899"><ele>3.0</ele><time>2026-05-01T15:50:55.999Z</time></trkpt><trkpt lat="45.83060280031143" lon="13.096943122281662"><ele>3.0</ele><time>2026-05-01T15:50:56.999Z</time></trkpt><trkpt lat="45.830669485943325" lon="13.097403582574472"><ele>4.0</ele><time>2026-05-01T15:50:57.999Z</time></trkpt><trkpt lat="45.83073751791725" lon="13.09786771765589"><ele>5.0</ele><time>2026-05-01T15:50:58.999Z</time></trkpt><trkpt lat="45.83080809204301" lon="13.098333387905368"><ele>5.5</ele><time>2026-05-01T15:50:59.999Z</time></trkpt><trkpt lat="45.83088151126044" lon="13.098803365619172"><ele>6.0</ele><time>2026-05-01T15:51:00.999Z</time></trkpt><trkpt lat="45.83096059796697" lon="13.099286484680919"><ele>6.0</ele><time>2026-05-01T15:51:01.999Z</time></trkpt><trkpt lat="45.831041711499225" lon="13.099781651408424"><ele>6.0</ele><time>2026-05-01T15:51:02.999Z</time></trkpt><trkpt lat="45.831120205008716" lon="13.100286021084441"><ele>6.0</ele><time>2026-05-01T15:51:03.999Z</time></trkpt><trkpt lat="45.83119730996383" lon="13.100795960027126"><ele>6.0</ele><time>2026-05-01T15:51:04.999Z</time></trkpt><trkpt lat="45.83127235396396" lon="13.101308164181665"><ele>6.0</ele><time>2026-05-01T15:51:05.999Z</time></trkpt><trkpt lat="45.83134806253352" lon="13.10182448003096"><ele>6.0</ele><time>2026-05-01T15:51:06.999Z</time></trkpt><trkpt lat="45.83142241908228" lon="13.10233837321991"><ele>6.0</ele><time>2026-05-01T15:51:07.999Z</time></trkpt><trkpt lat="45.831497427291424" lon="13.102851400414165"><ele>6.0</ele><time>2026-05-01T15:51:08.999Z</time></trkpt><trkpt lat="45.83157214935023" lon="13.103366818102435"><ele>6.0</ele><time>2026-05-01T15:51:09.999Z</time></trkpt><trkpt lat="45.8316499868299" lon="13.103887745058817"><ele>6.0</ele><time>2026-05-01T15:51:10.999Z</time></trkpt><trkpt lat="45.831731122428934" lon="13.104412621513305"><ele>5.0</ele><time>2026-05-01T15:51:11.999Z</time></trkpt><trkpt lat="45.83181606980771" lon="13.104930467035759"><ele>4.0</ele><time>2026-05-01T15:51:12.999Z</time></trkpt><trkpt lat="45.831902232114146" lon="13.105439095198328"><ele>5.0</ele><time>2026-05-01T15:51:13.999Z</time></trkpt><trkpt lat="45.831990353887306" lon="13.10593950801214"><ele>6.0</ele><time>2026-05-01T15:51:14.999Z</time></trkpt><trkpt lat="45.83207898971485" lon="13.106429131142427"><ele>6.5</ele><time>2026-05-01T15:51:15.999Z</time></trkpt><trkpt lat="45.83216795926916" lon="13.106910609875749"><ele>7.0</ele><time>2026-05-01T15:51:16.999Z</time></trkpt><trkpt lat="45.83225894550463" lon="13.107391244592424"><ele>6.0</ele><time>2026-05-01T15:51:17.999Z</time></trkpt><trkpt lat="45.83235371138008" lon="13.10786970127002"><ele>5.0</ele><time>2026-05-01T15:51:18.999Z</time></trkpt><trkpt lat="45.832450940198655" lon="13.108347747988827"><ele>5.0</ele><time>2026-05-01T15:51:19.999Z</time></trkpt><trkpt lat="45.83254991154075" lon="13.108829808722824"><ele>5.0</ele><time>2026-05-01T15:51:20.999Z</time></trkpt><trkpt lat="45.83265180569222" lon="13.109309623293717"><ele>5.0</ele><time>2026-05-01T15:51:21.999Z</time></trkpt><trkpt lat="45.83275922652035" lon="13.109788733037384"><ele>5.0</ele><time>2026-05-01T15:51:22.999Z</time></trkpt><trkpt lat="45.83286817695375" lon="13.110267930990721"><ele>5.0</ele><time>2026-05-01T15:51:23.999Z</time></trkpt><trkpt lat="45.83297947534206" lon="13.110745872968584"><ele>5.0</ele><time>2026-05-01T15:51:24.999Z</time></trkpt><trkpt lat="45.833093341932766" lon="13.111218510851545"><ele>5.5</ele><time>2026-05-01T15:51:25.999Z</time></trkpt><trkpt lat="45.83320911396474" lon="13.11169139978174"><ele>6.0</ele><time>2026-05-01T15:51:26.999Z</time></trkpt><trkpt lat="45.83332847670253" lon="13.112167438947115"><ele>6.5</ele><time>2026-05-01T15:51:27.999Z</time></trkpt><trkpt lat="45.8334528067622" lon="13.112646015952821"><ele>7.0</ele><time>2026-05-01T15:51:28.999Z</time></trkpt><trkpt lat="45.83358048992348" lon="13.1131265485727"><ele>7.0</ele><time>2026-05-01T15:51:29.999Z</time></trkpt><trkpt lat="45.83370860203248" lon="13.113605215028192"><ele>7.0</ele><time>2026-05-01T15:51:30.999Z</time></trkpt><trkpt lat="45.833838274144625" lon="13.114078563515761"><ele>7.0</ele><time>2026-05-01T15:51:31.999Z</time></trkpt><trkpt lat="45.833970080731305" lon="13.114548807558965"><ele>7.0</ele><time>2026-05-01T15:51:32.999Z</time></trkpt><trkpt lat="45.834104149089896" lon="13.115015275673008"><ele>7.0</ele><time>2026-05-01T15:51:33.999Z</time></trkpt><trkpt lat="45.83423873581969" lon="13.115472165270818"><ele>7.0</ele><time>2026-05-01T15:51:34.999Z</time></trkpt><trkpt lat="45.83437365390435" lon="13.115921444901812"><ele>6.5</ele><time>2026-05-01T15:51:35.999Z</time></trkpt><trkpt lat="45.834511411227425" lon="13.116364986482228"><ele>6.0</ele><time>2026-05-01T15:51:36.999Z</time></trkpt><trkpt lat="45.8346491922511" lon="13.116803462940975"><ele>7.0</ele><time>2026-05-01T15:51:37.999Z</time></trkpt><trkpt lat="45.83478855670306" lon="13.117237833250238"><ele>8.0</ele><time>2026-05-01T15:51:38.999Z</time></trkpt><trkpt lat="45.83493121387397" lon="13.117678704453779"><ele>8.0</ele><time>2026-05-01T15:51:39.999Z</time></trkpt><trkpt lat="45.83507322586527" lon="13.11813654458015"><ele>8.0</ele><time>2026-05-01T15:51:40.999Z</time></trkpt><trkpt lat="45.83521260675256" lon="13.118601574192288"><ele>7.0</ele><time>2026-05-01T15:51:41.999Z</time></trkpt><trkpt lat="45.835351267500904" lon="13.119064579254466"><ele>6.0</ele><time>2026-05-01T15:51:42.999Z</time></trkpt><trkpt lat="45.83549231926781" lon="13.119519141165625"><ele>6.0</ele><time>2026-05-01T15:51:43.999Z</time></trkpt><trkpt lat="45.83563442679358" lon="13.119962836742534"><ele>6.0</ele><time>2026-05-01T15:51:44.999Z</time></trkpt><trkpt lat="45.83577537322135" lon="13.120399058958618"><ele>6.0</ele><time>2026-05-01T15:51:45.999Z</time></trkpt><trkpt lat="45.835916747567786" lon="13.120829183570152"><ele>6.0</ele><time>2026-05-01T15:51:46.999Z</time></trkpt><trkpt lat="45.836056903809975" lon="13.121256734424266"><ele>6.5</ele><time>2026-05-01T15:51:47.999Z</time></trkpt><trkpt lat="45.83619821316655" lon="13.121687241035698"><ele>7.0</ele><time>2026-05-01T15:51:48.999Z</time></trkpt><trkpt lat="45.83634058415482" lon="13.122119623207933"><ele>7.0</ele><time>2026-05-01T15:51:49.999Z</time></trkpt><trkpt lat="45.83648115294425" lon="13.122551507330304"><ele>7.0</ele><time>2026-05-01T15:51:50.999Z</time></trkpt><trkpt lat="45.83662167208025" lon="13.122983587080565"><ele>7.0</ele><time>2026-05-01T15:51:51.999Z</time></trkpt><trkpt lat="45.83676024995094" lon="13.123414970442731"><ele>7.0</ele><time>2026-05-01T15:51:52.999Z</time></trkpt><trkpt lat="45.83689969345182" lon="13.123845730781111"><ele>7.5</ele><time>2026-05-01T15:51:53.999Z</time></trkpt><trkpt lat="45.837042611038015" lon="13.124278776786209"><ele>8.0</ele><time>2026-05-01T15:51:54.999Z</time></trkpt><trkpt lat="45.8371869355435" lon="13.124714869872456"><ele>7.5</ele><time>2026-05-01T15:51:55.999Z</time></trkpt><trkpt lat="45.83733062867414" lon="13.1251509927011"><ele>7.0</ele><time>2026-05-01T15:51:56.999Z</time></trkpt><trkpt lat="45.83747262352687" lon="13.125586223890227"><ele>7.0</ele><time>2026-05-01T15:51:58Z</time></trkpt><trkpt lat="45.83761413030706" lon="13.126018265339614"><ele>7.0</ele><time>2026-05-01T15:51:59Z</time></trkpt><trkpt lat="45.83775552137386" lon="13.12644959645829"><ele>8.0</ele><time>2026-05-01T15:52:00Z</time></trkpt><trkpt lat="45.83789757059746" lon="13.126880869460361"><ele>9.0</ele><time>2026-05-01T15:52:01Z</time></trkpt><trkpt lat="45.838040161366486" lon="13.127310604128528"><ele>8.0</ele><time>2026-05-01T15:52:02Z</time></trkpt><trkpt lat="45.838182272154775" lon="13.127740173480301"><ele>7.0</ele><time>2026-05-01T15:52:03Z</time></trkpt><trkpt lat="45.83832444999676" lon="13.128170760255674"><ele>7.0</ele><time>2026-05-01T15:52:04Z</time></trkpt><trkpt lat="45.838465924499495" lon="13.128603192575909"><ele>7.0</ele><time>2026-05-01T15:52:05Z</time></trkpt><trkpt lat="45.83860728404757" lon="13.129037577159563"><ele>7.0</ele><time>2026-05-01T15:52:06Z</time></trkpt><trkpt lat="45.838748789895746" lon="13.129472238079046"><ele>7.0</ele><time>2026-05-01T15:52:07Z</time></trkpt><trkpt lat="45.83888916207952" lon="13.129907359063662"><ele>7.0</ele><time>2026-05-01T15:52:08Z</time></trkpt><trkpt lat="45.83903075239252" lon="13.13034593043233"><ele>7.0</ele><time>2026-05-01T15:52:09Z</time></trkpt><trkpt lat="45.83917612230646" lon="13.13078387565105"><ele>7.5</ele><time>2026-05-01T15:52:10Z</time></trkpt><trkpt lat="45.839322799444005" lon="13.131222648032075"><ele>8.0</ele><time>2026-05-01T15:52:11Z</time></trkpt><trkpt lat="45.83946958239223" lon="13.131666078225246"><ele>8.0</ele><time>2026-05-01T15:52:12Z</time></trkpt><trkpt lat="45.83961499853209" lon="13.132114789036459"><ele>8.0</ele><time>2026-05-01T15:52:13Z</time></trkpt><trkpt lat="45.839762150500434" lon="13.132566211856119"><ele>8.0</ele><time>2026-05-01T15:52:14Z</time></trkpt><trkpt lat="45.8399112937185" lon="13.133020775435249"><ele>8.0</ele><time>2026-05-01T15:52:14.999Z</time></trkpt><trkpt lat="45.84006040939495" lon="13.133475916996684"><ele>9.0</ele><time>2026-05-01T15:52:15.999Z</time></trkpt><trkpt lat="45.84021040687299" lon="13.13393148466062"><ele>10.0</ele><time>2026-05-01T15:52:16.999Z</time></trkpt><trkpt lat="45.84035954815941" lon="13.134385853197962"><ele>10.0</ele><time>2026-05-01T15:52:17.999Z</time></trkpt><trkpt lat="45.84050956650521" lon="13.134838915488203"><ele>10.0</ele><time>2026-05-01T15:52:18.999Z</time></trkpt><trkpt lat="45.84065661673724" lon="13.13528655280753"><ele>9.0</ele><time>2026-05-01T15:52:19.999Z</time></trkpt><trkpt lat="45.8408039008504" lon="13.135731120109156"><ele>8.0</ele><time>2026-05-01T15:52:20.999Z</time></trkpt><trkpt lat="45.840950110019826" lon="13.136171933589956"><ele>7.5</ele><time>2026-05-01T15:52:21.999Z</time></trkpt><trkpt lat="45.84109385846087" lon="13.136609841388088"><ele>7.0</ele><time>2026-05-01T15:52:22.999Z</time></trkpt><trkpt lat="45.84123746262521" lon="13.137043037457694"><ele>7.5</ele><time>2026-05-01T15:52:23.999Z</time></trkpt><trkpt lat="45.84138331182551" lon="13.137471709307722"><ele>8.0</ele><time>2026-05-01T15:52:24.999Z</time></trkpt><trkpt lat="45.841521143660316" lon="13.137900620618757"><ele>8.0</ele><time>2026-05-01T15:52:25.999Z</time></trkpt><trkpt lat="45.84165573785688" lon="13.138320996989332"><ele>8.0</ele><time>2026-05-01T15:52:26.999Z</time></trkpt><trkpt lat="45.84178527347489" lon="13.138722851874993"><ele>8.0</ele><time>2026-05-01T15:52:27.999Z</time></trkpt><trkpt lat="45.84191407737772" lon="13.13911728953465"><ele>8.0</ele><time>2026-05-01T15:52:28.999Z</time></trkpt><trkpt lat="45.84204127131774" lon="13.139508045349842"><ele>7.0</ele><time>2026-05-01T15:52:29.999Z</time></trkpt><trkpt lat="45.84217091627267" lon="13.139901446724632"><ele>6.0</ele><time>2026-05-01T15:52:30.999Z</time></trkpt><trkpt lat="45.84230269142325" lon="13.14030035883568"><ele>6.0</ele><time>2026-05-01T15:52:31.999Z</time></trkpt><trkpt lat="45.84243778841181" lon="13.140702127359726"><ele>6.0</ele><time>2026-05-01T15:52:32.999Z</time></trkpt><trkpt lat="45.84257575184295" lon="13.141107404229775"><ele>6.5</ele><time>2026-05-01T15:52:33.999Z</time></trkpt><trkpt lat="45.842714786571065" lon="13.141514709907565"><ele>7.0</ele><time>2026-05-01T15:52:34.999Z</time></trkpt><trkpt lat="45.842852855272724" lon="13.141924660556286"><ele>7.0</ele><time>2026-05-01T15:52:35.999Z</time></trkpt><trkpt lat="45.84298919123433" lon="13.142335753728625"><ele>7.0</ele><time>2026-05-01T15:52:36.999Z</time></trkpt><trkpt lat="45.84312368855868" lon="13.142747819035163"><ele>7.0</ele><time>2026-05-01T15:52:37.999Z</time></trkpt><trkpt lat="45.843256534895296" lon="13.143160990225665"><ele>7.0</ele><time>2026-05-01T15:52:38.999Z</time></trkpt><trkpt lat="45.84339124908338" lon="13.143574343577608"><ele>7.0</ele><time>2026-05-01T15:52:39.999Z</time></trkpt><trkpt lat="45.84352923852297" lon="13.143990690080273"><ele>7.0</ele><time>2026-05-01T15:52:40.999Z</time></trkpt><trkpt lat="45.843669457916604" lon="13.144411984570812"><ele>7.0</ele><time>2026-05-01T15:52:41.999Z</time></trkpt><trkpt lat="45.84381041743627" lon="13.144837948190052"><ele>7.0</ele><time>2026-05-01T15:52:42.999Z</time></trkpt><trkpt lat="45.843952007257286" lon="13.14526612150866"><ele>7.0</ele><time>2026-05-01T15:52:43.999Z</time></trkpt><trkpt lat="45.84409159675777" lon="13.145688699935938"><ele>7.0</ele><time>2026-05-01T15:52:44.999Z</time></trkpt><trkpt lat="45.84422575628881" lon="13.146102794583067"><ele>7.5</ele><time>2026-05-01T15:52:45.999Z</time></trkpt><trkpt lat="45.84435567734376" lon="13.146512371382423"><ele>8.0</ele><time>2026-05-01T15:52:46.999Z</time></trkpt><trkpt lat="45.844487142899595" lon="13.146922833908146"><ele>8.0</ele><time>2026-05-01T15:52:47.999Z</time></trkpt><trkpt lat="45.844622909932546" lon="13.147335284041032"><ele>8.0</ele><time>2026-05-01T15:52:48.999Z</time></trkpt><trkpt lat="45.84476153702759" lon="13.147753721048497"><ele>7.5</ele><time>2026-05-01T15:52:49.999Z</time></trkpt><trkpt lat="45.844899945552335" lon="13.148173940087236"><ele>7.0</ele><time>2026-05-01T15:52:50.999Z</time></trkpt><trkpt lat="45.84503873443904" lon="13.148590060912397"><ele>7.0</ele><time>2026-05-01T15:52:51.999Z</time></trkpt><trkpt lat="45.84517311424155" lon="13.148996825021628"><ele>7.0</ele><time>2026-05-01T15:52:52.999Z</time></trkpt><trkpt lat="45.845304833655476" lon="13.149402548133269"><ele>7.0</ele><time>2026-05-01T15:52:53.999Z</time></trkpt><trkpt lat="45.845436106676445" lon="13.149805622984486"><ele>7.0</ele><time>2026-05-01T15:52:54.999Z</time></trkpt><trkpt lat="45.84556675402018" lon="13.150207061268455"><ele>7.0</ele><time>2026-05-01T15:52:55.999Z</time></trkpt><trkpt lat="45.84569823501661" lon="13.150609563777483"><ele>7.0</ele><time>2026-05-01T15:52:56.999Z</time></trkpt><trkpt lat="45.84582970406808" lon="13.151018283056057"><ele>7.0</ele><time>2026-05-01T15:52:57.999Z</time></trkpt><trkpt lat="45.84595939376232" lon="13.151430482815979"><ele>7.0</ele><time>2026-05-01T15:52:58.999Z</time></trkpt><trkpt lat="45.84608786694596" lon="13.15184849199218"><ele>7.0</ele><time>2026-05-01T15:52:59.999Z</time></trkpt><trkpt lat="45.84621434177631" lon="13.1522663146701"><ele>7.0</ele><time>2026-05-01T15:53:00.999Z</time></trkpt><trkpt lat="45.84634107261636" lon="13.152678664739426"><ele>6.5</ele><time>2026-05-01T15:53:01.999Z</time></trkpt><trkpt lat="45.84646739277658" lon="13.153077934094446"><ele>6.0</ele><time>2026-05-01T15:53:02.999Z</time></trkpt><trkpt lat="45.84659466207494" lon="13.153470947516123"><ele>6.0</ele><time>2026-05-01T15:53:03.999Z</time></trkpt><trkpt lat="45.84672444162608" lon="13.15386138860157"><ele>6.0</ele><time>2026-05-01T15:53:04.999Z</time></trkpt><trkpt lat="45.84685316365447" lon="13.154251243882685"><ele>6.5</ele><time>2026-05-01T15:53:05.999Z</time></trkpt><trkpt lat="45.84698263052254" lon="13.154639915506085"><ele>7.0</ele><time>2026-05-01T15:53:06.999Z</time></trkpt><trkpt lat="45.847112123275366" lon="13.155032800993725"><ele>7.0</ele><time>2026-05-01T15:53:07.999Z</time></trkpt><trkpt lat="45.84723784005709" lon="13.155426299272744"><ele>7.0</ele><time>2026-05-01T15:53:08.999Z</time></trkpt><trkpt lat="45.84736494281885" lon="13.155818682644849"><ele>7.0</ele><time>2026-05-01T15:53:09.999Z</time></trkpt><trkpt lat="45.847493656051405" lon="13.156210373139956"><ele>7.0</ele><time>2026-05-01T15:53:10.999Z</time></trkpt><trkpt lat="45.84762410505068" lon="13.156606569223324"><ele>6.5</ele><time>2026-05-01T15:53:11.999Z</time></trkpt><trkpt lat="45.84775504051093" lon="13.157004375599318"><ele>6.0</ele><time>2026-05-01T15:53:12.999Z</time></trkpt><trkpt lat="45.84788715538811" lon="13.157405119005155"><ele>6.0</ele><time>2026-05-01T15:53:13.999Z</time></trkpt><trkpt lat="45.84801933744861" lon="13.157808605066945"><ele>6.0</ele><time>2026-05-01T15:53:14.999Z</time></trkpt><trkpt lat="45.84815108214057" lon="13.158213800916007"><ele>6.0</ele><time>2026-05-01T15:53:15.999Z</time></trkpt><trkpt lat="45.84828409458685" lon="13.158619749747743"><ele>6.0</ele><time>2026-05-01T15:53:16.999Z</time></trkpt><trkpt lat="45.84841931019635" lon="13.159027997212961"><ele>6.0</ele><time>2026-05-01T15:53:17.999Z</time></trkpt><trkpt lat="45.848552912842166" lon="13.159437918717122"><ele>6.0</ele><time>2026-05-01T15:53:18.999Z</time></trkpt><trkpt lat="45.84868651436272" lon="13.159852111354812"><ele>7.0</ele><time>2026-05-01T15:53:19.999Z</time></trkpt><trkpt lat="45.848821251752106" lon="13.160267810554412"><ele>8.0</ele><time>2026-05-01T15:53:20.999Z</time></trkpt><trkpt lat="45.84895841567219" lon="13.160683477829103"><ele>8.5</ele><time>2026-05-01T15:53:21.999Z</time></trkpt><trkpt lat="45.84909612928289" lon="13.161103629101515"><ele>9.0</ele><time>2026-05-01T15:53:22.999Z</time></trkpt><trkpt lat="45.84923563311379" lon="13.161529494780781"><ele>9.0</ele><time>2026-05-01T15:53:23.999Z</time></trkpt><trkpt lat="45.84937779360253" lon="13.161964519062115"><ele>9.0</ele><time>2026-05-01T15:53:24.999Z</time></trkpt><trkpt lat="45.84952267891064" lon="13.162410322166902"><ele>9.0</ele><time>2026-05-01T15:53:25.999Z</time></trkpt><trkpt lat="45.849669520715125" lon="13.162866636769298"><ele>9.0</ele><time>2026-05-01T15:53:26.999Z</time></trkpt><trkpt lat="45.84981823301521" lon="13.163327228040584"><ele>9.0</ele><time>2026-05-01T15:53:27.999Z</time></trkpt><trkpt lat="45.84996835820392" lon="13.163788524582879"><ele>9.0</ele><time>2026-05-01T15:53:28.999Z</time></trkpt><trkpt lat="45.85012015139789" lon="13.16425085274281"><ele>9.0</ele><time>2026-05-01T15:53:29.999Z</time></trkpt><trkpt lat="45.850272419704744" lon="13.164714823145049"><ele>9.0</ele><time>2026-05-01T15:53:30.999Z</time></trkpt><trkpt lat="45.850424026176924" lon="13.165180975937938"><ele>9.5</ele><time>2026-05-01T15:53:31.999Z</time></trkpt><trkpt lat="45.8505773280736" lon="13.165646975948032"><ele>10.0</ele><time>2026-05-01T15:53:32.999Z</time></trkpt><trkpt lat="45.85073136427664" lon="13.166112437445456"><ele>11.0</ele><time>2026-05-01T15:53:33.999Z</time></trkpt><trkpt lat="45.85088223361871" lon="13.166575896946298"><ele>12.0</ele><time>2026-05-01T15:53:34.999Z</time></trkpt><trkpt lat="45.851034001131076" lon="13.167039289027397"><ele>9.5</ele><time>2026-05-01T15:53:35.999Z</time></trkpt><trkpt lat="45.85118613003195" lon="13.167501986524945"><ele>7.0</ele><time>2026-05-01T15:53:36.999Z</time></trkpt><trkpt lat="45.85133672074876" lon="13.167962153346433"><ele>8.0</ele><time>2026-05-01T15:53:37.999Z</time></trkpt><trkpt lat="45.85148767006303" lon="13.168420302382119"><ele>9.0</ele><time>2026-05-01T15:53:38.999Z</time></trkpt><trkpt lat="45.85163699206824" lon="13.168877546611974"><ele>8.5</ele><time>2026-05-01T15:53:39.999Z</time></trkpt><trkpt lat="45.85178886462836" lon="13.16933292500731"><ele>8.0</ele><time>2026-05-01T15:53:40.999Z</time></trkpt><trkpt lat="45.8519380357338" lon="13.169793049779638"><ele>7.5</ele><time>2026-05-01T15:53:41.999Z</time></trkpt><trkpt lat="45.852086893749586" lon="13.170248576239423"><ele>7.0</ele><time>2026-05-01T15:53:42.999Z</time></trkpt><trkpt lat="45.85223783646939" lon="13.170706278735274"><ele>7.0</ele><time>2026-05-01T15:53:43.999Z</time></trkpt><trkpt lat="45.85238774274019" lon="13.171165392708017"><ele>7.0</ele><time>2026-05-01T15:53:44.999Z</time></trkpt><trkpt lat="45.852536503554504" lon="13.171622913095101"><ele>8.0</ele><time>2026-05-01T15:53:45.999Z</time></trkpt><trkpt lat="45.85268550605003" lon="13.172083614053294"><ele>9.0</ele><time>2026-05-01T15:53:46.999Z</time></trkpt><trkpt lat="45.852833651144515" lon="13.17254624807288"><ele>9.0</ele><time>2026-05-01T15:53:47.999Z</time></trkpt><trkpt lat="45.85298208998173" lon="13.173009498241614"><ele>9.0</ele><time>2026-05-01T15:53:48.999Z</time></trkpt><trkpt lat="45.85313057916423" lon="13.173474908858276"><ele>8.5</ele><time>2026-05-01T15:53:49.999Z</time></trkpt><trkpt lat="45.85327896808548" lon="13.173940125684535"><ele>8.0</ele><time>2026-05-01T15:53:50.999Z</time></trkpt><trkpt lat="45.8534257339942" lon="13.17440737150758"><ele>7.0</ele><time>2026-05-01T15:53:51.999Z</time></trkpt><trkpt lat="45.85357112941829" lon="13.174876461829053"><ele>6.0</ele><time>2026-05-01T15:53:52.999Z</time></trkpt><trkpt lat="45.8537167076192" lon="13.175347999038163"><ele>6.5</ele><time>2026-05-01T15:53:53.999Z</time></trkpt><trkpt lat="45.85386206195334" lon="13.175818579751743"><ele>7.0</ele><time>2026-05-01T15:53:54.999Z</time></trkpt><trkpt lat="45.85400703562046" lon="13.176289224641849"><ele>7.5</ele><time>2026-05-01T15:53:55.999Z</time></trkpt><trkpt lat="45.854151270155725" lon="13.176759001402482"><ele>8.0</ele><time>2026-05-01T15:53:56.999Z</time></trkpt><trkpt lat="45.85429325818067" lon="13.177224422594147"><ele>9.0</ele><time>2026-05-01T15:53:57.999Z</time></trkpt><trkpt lat="45.854432392015106" lon="13.17768517595972"><ele>10.0</ele><time>2026-05-01T15:53:58.999Z</time></trkpt><trkpt lat="45.85456661796145" lon="13.178135464812202"><ele>9.5</ele><time>2026-05-01T15:53:59.999Z</time></trkpt><trkpt lat="45.85469898786313" lon="13.178580177194195"><ele>9.0</ele><time>2026-05-01T15:54:00.999Z</time></trkpt><trkpt lat="45.85483147258688" lon="13.17902075056048"><ele>8.5</ele><time>2026-05-01T15:54:01.999Z</time></trkpt><trkpt lat="45.854960913294406" lon="13.179455670289274"><ele>8.0</ele><time>2026-05-01T15:54:02.999Z</time></trkpt><trkpt lat="45.855089760851676" lon="13.17988597688869"><ele>7.0</ele><time>2026-05-01T15:54:04Z</time></trkpt><trkpt lat="45.8552178494405" lon="13.18031220246444"><ele>6.0</ele><time>2026-05-01T15:54:05Z</time></trkpt><trkpt lat="45.85534544976148" lon="13.18073577556047"><ele>6.0</ele><time>2026-05-01T15:54:06Z</time></trkpt><trkpt lat="45.855473584356226" lon="13.181157542674722"><ele>6.0</ele><time>2026-05-01T15:54:07Z</time></trkpt><trkpt lat="45.85560416959014" lon="13.181578507218214"><ele>6.5</ele><time>2026-05-01T15:54:08Z</time></trkpt><trkpt lat="45.85573626230448" lon="13.182000029559026"><ele>7.0</ele><time>2026-05-01T15:54:09Z</time></trkpt><trkpt lat="45.855867326411044" lon="13.182421922079238"><ele>8.0</ele><time>2026-05-01T15:54:10Z</time></trkpt><trkpt lat="45.8559995742073" lon="13.182846117021493"><ele>9.0</ele><time>2026-05-01T15:54:11Z</time></trkpt><trkpt lat="45.85613581176799" lon="13.183272648794732"><ele>9.0</ele><time>2026-05-01T15:54:12Z</time></trkpt><trkpt lat="45.856270775232126" lon="13.183696498228421"><ele>9.0</ele><time>2026-05-01T15:54:13Z</time></trkpt><trkpt lat="45.85639959559839" lon="13.184105601836405"><ele>8.5</ele><time>2026-05-01T15:54:14Z</time></trkpt><trkpt lat="45.85651862633112" lon="13.184493615842015"><ele>8.0</ele><time>2026-05-01T15:54:15Z</time></trkpt><trkpt lat="45.85663693865378" lon="13.18488002066657"><ele>8.0</ele><time>2026-05-01T15:54:16Z</time></trkpt><trkpt lat="45.856756449640585" lon="13.185268933759131"><ele>8.0</ele><time>2026-05-01T15:54:17Z</time></trkpt><trkpt lat="45.85687363937594" lon="13.185661039062769"><ele>8.0</ele><time>2026-05-01T15:54:18Z</time></trkpt><trkpt lat="45.85699153557584" lon="13.186057235363059"><ele>8.0</ele><time>2026-05-01T15:54:19Z</time></trkpt><trkpt lat="45.857108151204386" lon="13.186454124708533"><ele>7.5</ele><time>2026-05-01T15:54:20Z</time></trkpt><trkpt lat="45.85722640119448" lon="13.1868552377379"><ele>7.0</ele><time>2026-05-01T15:54:20.999Z</time></trkpt><trkpt lat="45.857348929806264" lon="13.187260721102035"><ele>7.5</ele><time>2026-05-01T15:54:21.999Z</time></trkpt><trkpt lat="45.85747374708537" lon="13.187675302088044"><ele>8.0</ele><time>2026-05-01T15:54:22.999Z</time></trkpt><trkpt lat="45.85760312130685" lon="13.18809827147896"><ele>8.5</ele><time>2026-05-01T15:54:23.999Z</time></trkpt><trkpt lat="45.85773343419495" lon="13.188528126264298"><ele>9.0</ele><time>2026-05-01T15:54:24.999Z</time></trkpt><trkpt lat="45.85786412034712" lon="13.188964818371243"><ele>9.5</ele><time>2026-05-01T15:54:25.999Z</time></trkpt><trkpt lat="45.85799643265492" lon="13.189403442715646"><ele>10.0</ele><time>2026-05-01T15:54:26.999Z</time></trkpt><trkpt lat="45.85812771692699" lon="13.189843194901998"><ele>9.0</ele><time>2026-05-01T15:54:27.999Z</time></trkpt><trkpt lat="45.85826126918202" lon="13.19028336188902"><ele>8.0</ele><time>2026-05-01T15:54:28.999Z</time></trkpt><trkpt lat="45.85839513287383" lon="13.190726540830301"><ele>8.0</ele><time>2026-05-01T15:54:29.999Z</time></trkpt><trkpt lat="45.85852939714663" lon="13.191172462024191"><ele>8.0</ele><time>2026-05-01T15:54:30.999Z</time></trkpt><trkpt lat="45.85866475467829" lon="13.191617488321722"><ele>8.0</ele><time>2026-05-01T15:54:31.999Z</time></trkpt><trkpt lat="45.85879801626851" lon="13.192064218255966"><ele>8.0</ele><time>2026-05-01T15:54:32.999Z</time></trkpt><trkpt lat="45.8589300818825" lon="13.192510172319809"><ele>8.0</ele><time>2026-05-01T15:54:33.999Z</time></trkpt><trkpt lat="45.85906110796447" lon="13.192949738499532"><ele>8.0</ele><time>2026-05-01T15:54:34.999Z</time></trkpt><trkpt lat="45.859191057221" lon="13.193386901133293"><ele>8.0</ele><time>2026-05-01T15:54:35.999Z</time></trkpt><trkpt lat="45.85931987826109" lon="13.193818142356777"><ele>8.0</ele><time>2026-05-01T15:54:36.999Z</time></trkpt><trkpt lat="45.85944897439173" lon="13.194247894689532"><ele>8.0</ele><time>2026-05-01T15:54:37.999Z</time></trkpt><trkpt lat="45.85957744707497" lon="13.194677000956982"><ele>8.0</ele><time>2026-05-01T15:54:38.999Z</time></trkpt><trkpt lat="45.85970659015283" lon="13.195107037341193"><ele>8.0</ele><time>2026-05-01T15:54:39.999Z</time></trkpt><trkpt lat="45.85983725187754" lon="13.19553680090862"><ele>8.0</ele><time>2026-05-01T15:54:40.999Z</time></trkpt><trkpt lat="45.8599689837722" lon="13.195970104778535"><ele>8.0</ele><time>2026-05-01T15:54:41.999Z</time></trkpt><trkpt lat="45.86010185362143" lon="13.19640702029815"><ele>8.0</ele><time>2026-05-01T15:54:42.999Z</time></trkpt><trkpt lat="45.86023394619871" lon="13.196844433039926"><ele>8.0</ele><time>2026-05-01T15:54:43.999Z</time></trkpt><trkpt lat="45.8603650154471" lon="13.197282450259014"><ele>8.0</ele><time>2026-05-01T15:54:44.999Z</time></trkpt><trkpt lat="45.860492591613784" lon="13.197719035051124"><ele>8.0</ele><time>2026-05-01T15:54:45.999Z</time></trkpt><trkpt lat="45.86061927683731" lon="13.198155402763643"><ele>8.0</ele><time>2026-05-01T15:54:46.999Z</time></trkpt><trkpt lat="45.86074478114096" lon="13.198588804823425"><ele>8.5</ele><time>2026-05-01T15:54:47.999Z</time></trkpt><trkpt lat="45.86086729816804" lon="13.199022583563464"><ele>9.0</ele><time>2026-05-01T15:54:48.999Z</time></trkpt><trkpt lat="45.86098974219545" lon="13.199462719316841"><ele>9.0</ele><time>2026-05-01T15:54:49.999Z</time></trkpt><trkpt lat="45.86111372910391" lon="13.199904326163692"><ele>9.0</ele><time>2026-05-01T15:54:50.999Z</time></trkpt><trkpt lat="45.86123816597461" lon="13.200345277490147"><ele>9.5</ele><time>2026-05-01T15:54:51.999Z</time></trkpt><trkpt lat="45.86136615967984" lon="13.200786563435917"><ele>10.0</ele><time>2026-05-01T15:54:52.999Z</time></trkpt><trkpt lat="45.86149496605701" lon="13.201226168523904"><ele>10.5</ele><time>2026-05-01T15:54:53.999Z</time></trkpt><trkpt lat="45.861626222705354" lon="13.20166370726672"><ele>11.0</ele><time>2026-05-01T15:54:54.999Z</time></trkpt><trkpt lat="45.86175848789207" lon="13.202098611613263"><ele>9.5</ele><time>2026-05-01T15:54:55.999Z</time></trkpt><trkpt lat="45.86189123261031" lon="13.202527522741079"><ele>8.0</ele><time>2026-05-01T15:54:56.999Z</time></trkpt><trkpt lat="45.86201744458631" lon="13.202944370227574"><ele>8.5</ele><time>2026-05-01T15:54:57.999Z</time></trkpt><trkpt lat="45.86214229701772" lon="13.203361328429354"><ele>9.0</ele><time>2026-05-01T15:54:58.999Z</time></trkpt><trkpt lat="45.862267920217064" lon="13.203776336930522"><ele>9.5</ele><time>2026-05-01T15:54:59.999Z</time></trkpt><trkpt lat="45.862392989077286" lon="13.204188092170547"><ele>10.0</ele><time>2026-05-01T15:55:00.999Z</time></trkpt><trkpt lat="45.86251751123112" lon="13.204603327146105"><ele>11.0</ele><time>2026-05-01T15:55:01.999Z</time></trkpt><trkpt lat="45.86264303995071" lon="13.205021069740761"><ele>12.0</ele><time>2026-05-01T15:55:02.999Z</time></trkpt><trkpt lat="45.86276813377906" lon="13.205440883495314"><ele>11.0</ele><time>2026-05-01T15:55:03.999Z</time></trkpt><trkpt lat="45.862893236657214" lon="13.205858314421747"><ele>10.0</ele><time>2026-05-01T15:55:04.999Z</time></trkpt><trkpt lat="45.86301652657719" lon="13.206274039259727"><ele>9.5</ele><time>2026-05-01T15:55:05.999Z</time></trkpt><trkpt lat="45.86313990476727" lon="13.206690626218444"><ele>9.0</ele><time>2026-05-01T15:55:06.999Z</time></trkpt><trkpt lat="45.86326418505978" lon="13.207108601471687"><ele>8.5</ele><time>2026-05-01T15:55:07.999Z</time></trkpt><trkpt lat="45.8633906934832" lon="13.207523785179072"><ele>8.0</ele><time>2026-05-01T15:55:08.999Z</time></trkpt><trkpt lat="45.863516949543694" lon="13.207937178445066"><ele>9.5</ele><time>2026-05-01T15:55:10Z</time></trkpt><trkpt lat="45.863642417145634" lon="13.20835003404274"><ele>11.0</ele><time>2026-05-01T15:55:11Z</time></trkpt><trkpt lat="45.863766645718506" lon="13.20876321667159"><ele>10.0</ele><time>2026-05-01T15:55:12Z</time></trkpt><trkpt lat="45.863890562080215" lon="13.209177610270546"><ele>9.0</ele><time>2026-05-01T15:55:13Z</time></trkpt><trkpt lat="45.864013858195776" lon="13.20959327361626"><ele>8.5</ele><time>2026-05-01T15:55:14Z</time></trkpt><trkpt lat="45.864136801067794" lon="13.210009504441874"><ele>8.0</ele><time>2026-05-01T15:55:15Z</time></trkpt><trkpt lat="45.864259277661716" lon="13.21042591819702"><ele>8.5</ele><time>2026-05-01T15:55:16Z</time></trkpt><trkpt lat="45.86438410525073" lon="13.210835349454747"><ele>9.0</ele><time>2026-05-01T15:55:17Z</time></trkpt><trkpt lat="45.86450912178871" lon="13.211248668543785"><ele>8.5</ele><time>2026-05-01T15:55:18Z</time></trkpt><trkpt lat="45.864633407892214" lon="13.211658938085643"><ele>8.0</ele><time>2026-05-01T15:55:19Z</time></trkpt><trkpt lat="45.86475864797914" lon="13.212071536957948"><ele>8.5</ele><time>2026-05-01T15:55:20Z</time></trkpt><trkpt lat="45.864883375814514" lon="13.212487353650356"><ele>9.0</ele><time>2026-05-01T15:55:21Z</time></trkpt><trkpt lat="45.86500790855246" lon="13.212905398695243"><ele>9.0</ele><time>2026-05-01T15:55:22Z</time></trkpt><trkpt lat="45.86513720211381" lon="13.213328308547121"><ele>9.0</ele><time>2026-05-01T15:55:23Z</time></trkpt><trkpt lat="45.86526778456911" lon="13.213747471622755"><ele>9.0</ele><time>2026-05-01T15:55:24Z</time></trkpt><trkpt lat="45.86540007380207" lon="13.214166736747034"><ele>9.0</ele><time>2026-05-01T15:55:25Z</time></trkpt><trkpt lat="45.86553506384604" lon="13.214585672018709"><ele>8.0</ele><time>2026-05-01T15:55:26Z</time></trkpt><trkpt lat="45.86567443514447" lon="13.215005455861165"><ele>7.0</ele><time>2026-05-01T15:55:27Z</time></trkpt><trkpt lat="45.865816582955624" lon="13.215424637998632"><ele>8.0</ele><time>2026-05-01T15:55:28Z</time></trkpt><trkpt lat="45.865962080609904" lon="13.215843337866897"><ele>9.0</ele><time>2026-05-01T15:55:29Z</time></trkpt><trkpt lat="45.86610859594283" lon="13.216263853516615"><ele>8.5</ele><time>2026-05-01T15:55:30Z</time></trkpt><trkpt lat="45.86625837419543" lon="13.216680670480912"><ele>8.0</ele><time>2026-05-01T15:55:31Z</time></trkpt><trkpt lat="45.86640787976255" lon="13.217095981807528"><ele>8.0</ele><time>2026-05-01T15:55:32Z</time></trkpt><trkpt lat="45.86655899679256" lon="13.217510033453408"><ele>8.0</ele><time>2026-05-01T15:55:33Z</time></trkpt><trkpt lat="45.866710953580444" lon="13.217925055755277"><ele>9.0</ele><time>2026-05-01T15:55:34Z</time></trkpt><trkpt lat="45.86686091786656" lon="13.218341080011113"><ele>10.0</ele><time>2026-05-01T15:55:35Z</time></trkpt><trkpt lat="45.86701304864751" lon="13.218761503150793"><ele>10.5</ele><time>2026-05-01T15:55:36Z</time></trkpt><trkpt lat="45.86716626782541" lon="13.21918218046793"><ele>11.0</ele><time>2026-05-01T15:55:37Z</time></trkpt><trkpt lat="45.86731995049226" lon="13.219604233964468"><ele>10.0</ele><time>2026-05-01T15:55:38Z</time></trkpt><trkpt lat="45.86747593371316" lon="13.220026019410062"><ele>9.0</ele><time>2026-05-01T15:55:39Z</time></trkpt><trkpt lat="45.867635691264994" lon="13.220454783312292"><ele>8.0</ele><time>2026-05-01T15:55:40Z</time></trkpt><trkpt lat="45.86779670847471" lon="13.220891328216739"><ele>7.0</ele><time>2026-05-01T15:55:41Z</time></trkpt><trkpt lat="45.867959242153994" lon="13.221330130055437"><ele>7.0</ele><time>2026-05-01T15:55:42Z</time></trkpt><trkpt lat="45.8681220120137" lon="13.221768594576906"><ele>7.0</ele><time>2026-05-01T15:55:43Z</time></trkpt><trkpt lat="45.86828189815821" lon="13.22220851030631"><ele>8.0</ele><time>2026-05-01T15:55:44Z</time></trkpt><trkpt lat="45.86844295449377" lon="13.222644456825513"><ele>9.0</ele><time>2026-05-01T15:55:45Z</time></trkpt><trkpt lat="45.868610020007736" lon="13.223089349347894"><ele>9.0</ele><time>2026-05-01T15:55:46Z</time></trkpt><trkpt lat="45.86878193628959" lon="13.223536243241472"><ele>9.0</ele><time>2026-05-01T15:55:47Z</time></trkpt><trkpt lat="45.86895654970122" lon="13.223994390023629"><ele>9.0</ele><time>2026-05-01T15:55:48Z</time></trkpt><trkpt lat="45.86913091871705" lon="13.224460142108933"><ele>9.0</ele><time>2026-05-01T15:55:49Z</time></trkpt><trkpt lat="45.869303012292654" lon="13.224927042265"><ele>9.5</ele><time>2026-05-01T15:55:50Z</time></trkpt><trkpt lat="45.869476085431245" lon="13.225401974706593"><ele>10.0</ele><time>2026-05-01T15:55:51Z</time></trkpt><trkpt lat="45.86965540461751" lon="13.22588346343504"><ele>10.0</ele><time>2026-05-01T15:55:52Z</time></trkpt><trkpt lat="45.86983493161488" lon="13.226370413615973"><ele>10.0</ele><time>2026-05-01T15:55:53Z</time></trkpt><trkpt lat="45.87001556917215" lon="13.226860451461928"><ele>10.0</ele><time>2026-05-01T15:55:54Z</time></trkpt><trkpt lat="45.87019341244655" lon="13.227348035758936"><ele>10.0</ele><time>2026-05-01T15:55:55Z</time></trkpt><trkpt lat="45.87036978472945" lon="13.227832264763338"><ele>9.5</ele><time>2026-05-01T15:55:56Z</time></trkpt><trkpt lat="45.87054887535362" lon="13.228321109139857"><ele>9.0</ele><time>2026-05-01T15:55:57Z</time></trkpt><trkpt lat="45.870729066741994" lon="13.228812546146308"><ele>9.5</ele><time>2026-05-01T15:55:58Z</time></trkpt><trkpt lat="45.87091102520107" lon="13.229304912955628"><ele>10.0</ele><time>2026-05-01T15:55:59Z</time></trkpt><trkpt lat="45.8710929486717" lon="13.22979953220507"><ele>10.0</ele><time>2026-05-01T15:56:00Z</time></trkpt><trkpt lat="45.871276308984804" lon="13.230296061555181"><ele>10.0</ele><time>2026-05-01T15:56:01Z</time></trkpt><trkpt lat="45.871460702499306" lon="13.230792799985808"><ele>10.0</ele><time>2026-05-01T15:56:02Z</time></trkpt><trkpt lat="45.87164348294509" lon="13.23128852799441"><ele>10.0</ele><time>2026-05-01T15:56:03Z</time></trkpt><trkpt lat="45.87182421957036" lon="13.231781091022253"><ele>10.5</ele><time>2026-05-01T15:56:04Z</time></trkpt><trkpt lat="45.87200375566434" lon="13.23226966299724"><ele>11.0</ele><time>2026-05-01T15:56:05Z</time></trkpt><trkpt lat="45.87218031412655" lon="13.232747060631631"><ele>11.0</ele><time>2026-05-01T15:56:06Z</time></trkpt><trkpt lat="45.872357532408024" lon="13.233217600688189"><ele>11.0</ele><time>2026-05-01T15:56:07Z</time></trkpt><trkpt lat="45.872533302631695" lon="13.233682754026805"><ele>11.5</ele><time>2026-05-01T15:56:08Z</time></trkpt><trkpt lat="45.8727033565594" lon="13.234148987814631"><ele>12.0</ele><time>2026-05-01T15:56:09Z</time></trkpt><trkpt lat="45.872873377325256" lon="13.234617238577256"><ele>12.0</ele><time>2026-05-01T15:56:10.001Z</time></trkpt><trkpt lat="45.87304073263006" lon="13.235083629683668"><ele>12.0</ele><time>2026-05-01T15:56:11.001Z</time></trkpt><trkpt lat="45.8732062790698" lon="13.235547775153908"><ele>12.0</ele><time>2026-05-01T15:56:12.001Z</time></trkpt><trkpt lat="45.87336918201423" lon="13.236012962659169"><ele>12.0</ele><time>2026-05-01T15:56:13.001Z</time></trkpt><trkpt lat="45.87352956611655" lon="13.236480709248651"><ele>12.0</ele><time>2026-05-01T15:56:14.001Z</time></trkpt><trkpt lat="45.873690486874615" lon="13.236948120392078"><ele>12.0</ele><time>2026-05-01T15:56:15.001Z</time></trkpt><trkpt lat="45.87385680595999" lon="13.237415018664564"><ele>11.0</ele><time>2026-05-01T15:56:16.001Z</time></trkpt><trkpt lat="45.8740299254246" lon="13.237882707466984"><ele>10.0</ele><time>2026-05-01T15:56:17.001Z</time></trkpt><trkpt lat="45.87420298906301" lon="13.23834734014195"><ele>10.5</ele><time>2026-05-01T15:56:18.001Z</time></trkpt><trkpt lat="45.87437074902474" lon="13.238799370601077"><ele>11.0</ele><time>2026-05-01T15:56:19.001Z</time></trkpt><trkpt lat="45.874530408027844" lon="13.239235226962293"><ele>11.0</ele><time>2026-05-01T15:56:20.001Z</time></trkpt><trkpt lat="45.874684787343625" lon="13.239657800009292"><ele>11.0</ele><time>2026-05-01T15:56:21.001Z</time></trkpt><trkpt lat="45.874836618840575" lon="13.240070124273156"><ele>11.0</ele><time>2026-05-01T15:56:22.001Z</time></trkpt><trkpt lat="45.874984243875346" lon="13.240474405786511"><ele>11.0</ele><time>2026-05-01T15:56:23.001Z</time></trkpt><trkpt lat="45.87512872839471" lon="13.24087150460989"><ele>12.0</ele><time>2026-05-01T15:56:24Z</time></trkpt><trkpt lat="45.87527227372215" lon="13.241265340235545"><ele>13.0</ele><time>2026-05-01T15:56:25Z</time></trkpt><trkpt lat="45.87541568843216" lon="13.24165477651942"><ele>14.5</ele><time>2026-05-01T15:56:26Z</time></trkpt><trkpt lat="45.87555981121504" lon="13.242040598078342"><ele>16.0</ele><time>2026-05-01T15:56:27Z</time></trkpt><trkpt lat="45.87570298915202" lon="13.242424089071802"><ele>16.0</ele><time>2026-05-01T15:56:28Z</time></trkpt><trkpt lat="45.87584636102642" lon="13.242805987734974"><ele>16.0</ele><time>2026-05-01T15:56:29Z</time></trkpt><trkpt lat="45.87598768874662" lon="13.24318781545053"><ele>15.0</ele><time>2026-05-01T15:56:30Z</time></trkpt><trkpt lat="45.87612699292448" lon="13.243571224695804"><ele>14.0</ele><time>2026-05-01T15:56:31Z</time></trkpt><trkpt lat="45.876266419303406" lon="13.243954539807495"><ele>14.0</ele><time>2026-05-01T15:56:32Z</time></trkpt><trkpt lat="45.876404980721574" lon="13.244337676698896"><ele>14.0</ele><time>2026-05-01T15:56:33Z</time></trkpt><trkpt lat="45.87654358678781" lon="13.244721033568089"><ele>14.0</ele><time>2026-05-01T15:56:34Z</time></trkpt><trkpt lat="45.87668146090393" lon="13.245104782959414"><ele>14.0</ele><time>2026-05-01T15:56:35Z</time></trkpt><trkpt lat="45.87682099481168" lon="13.245487853774112"><ele>13.5</ele><time>2026-05-01T15:56:36Z</time></trkpt><trkpt lat="45.87696192783218" lon="13.245870619899529"><ele>13.0</ele><time>2026-05-01T15:56:37Z</time></trkpt><trkpt lat="45.877104199309706" lon="13.246256180654905"><ele>13.0</ele><time>2026-05-01T15:56:38Z</time></trkpt><trkpt lat="45.87724666186393" lon="13.246643119354301"><ele>13.0</ele><time>2026-05-01T15:56:39Z</time></trkpt><trkpt lat="45.87738990252354" lon="13.247031673646466"><ele>12.5</ele><time>2026-05-01T15:56:40Z</time></trkpt><trkpt lat="45.87753310987981" lon="13.24742274567569"><ele>12.0</ele><time>2026-05-01T15:56:41Z</time></trkpt><trkpt lat="45.877677292891406" lon="13.247815457994973"><ele>11.5</ele><time>2026-05-01T15:56:42Z</time></trkpt><trkpt lat="45.877821691512004" lon="13.248211763654027"><ele>11.0</ele><time>2026-05-01T15:56:43Z</time></trkpt><trkpt lat="45.87796713369314" lon="13.2486112787862"><ele>11.5</ele><time>2026-05-01T15:56:44Z</time></trkpt><trkpt lat="45.878113465104974" lon="13.249010686505006"><ele>12.0</ele><time>2026-05-01T15:56:45Z</time></trkpt><trkpt lat="45.878260683028934" lon="13.24941236589593"><ele>12.5</ele><time>2026-05-01T15:56:46Z</time></trkpt><trkpt lat="45.87840868047253" lon="13.249817578896735"><ele>13.0</ele><time>2026-05-01T15:56:47Z</time></trkpt><trkpt lat="45.878555999830624" lon="13.250222389600845"><ele>13.0</ele><time>2026-05-01T15:56:48Z</time></trkpt><trkpt lat="45.87869527308111" lon="13.25060289215204"><ele>13.0</ele><time>2026-05-01T15:56:49Z</time></trkpt><trkpt lat="45.878833372275516" lon="13.250975056019946"><ele>13.5</ele><time>2026-05-01T15:56:50Z</time></trkpt><trkpt lat="45.8789716426659" lon="13.25134877457746"><ele>14.0</ele><time>2026-05-01T15:56:51Z</time></trkpt><trkpt lat="45.87911084294148" lon="13.251722897481805"><ele>15.0</ele><time>2026-05-01T15:56:52Z</time></trkpt><trkpt lat="45.8792489124992" lon="13.252099234139514"><ele>16.0</ele><time>2026-05-01T15:56:53Z</time></trkpt><trkpt lat="45.8793886888203" lon="13.252480044458126"><ele>15.0</ele><time>2026-05-01T15:56:54Z</time></trkpt><trkpt lat="45.879528152039846" lon="13.252862939352104"><ele>14.0</ele><time>2026-05-01T15:56:55Z</time></trkpt><trkpt lat="45.8796689438196" lon="13.25324911471852"><ele>14.0</ele><time>2026-05-01T15:56:56Z</time></trkpt><trkpt lat="45.87981187578669" lon="13.253637140041679"><ele>14.0</ele><time>2026-05-01T15:56:57Z</time></trkpt><trkpt lat="45.8799545441302" lon="13.254025516710936"><ele>13.5</ele><time>2026-05-01T15:56:58Z</time></trkpt><trkpt lat="45.88009603270628" lon="13.254412309650714"><ele>13.0</ele><time>2026-05-01T15:56:59Z</time></trkpt><trkpt lat="45.88023869378759" lon="13.254798725762708"><ele>13.0</ele><time>2026-05-01T15:57:00Z</time></trkpt><trkpt lat="45.880381018267926" lon="13.255183749104575"><ele>13.0</ele><time>2026-05-01T15:57:01Z</time></trkpt><trkpt lat="45.88052292672333" lon="13.255568028612224"><ele>12.5</ele><time>2026-05-01T15:57:02Z</time></trkpt><trkpt lat="45.88066538077345" lon="13.255950936474836"><ele>12.0</ele><time>2026-05-01T15:57:03Z</time></trkpt><trkpt lat="45.880808577638625" lon="13.256332154166603"><ele>13.0</ele><time>2026-05-01T15:57:04Z</time></trkpt><trkpt lat="45.880952987334574" lon="13.256710902789248"><ele>14.0</ele><time>2026-05-01T15:57:05Z</time></trkpt><trkpt lat="45.88109877257851" lon="13.257088759138359"><ele>14.5</ele><time>2026-05-01T15:57:06Z</time></trkpt><trkpt lat="45.88124732833353" lon="13.257466759315346"><ele>15.0</ele><time>2026-05-01T15:57:07Z</time></trkpt><trkpt lat="45.881397989645876" lon="13.25784331495734"><ele>14.5</ele><time>2026-05-01T15:57:08Z</time></trkpt><trkpt lat="45.88155097606417" lon="13.258218062597324"><ele>14.0</ele><time>2026-05-01T15:57:09Z</time></trkpt><trkpt lat="45.88170741055673" lon="13.258591991994614"><ele>14.5</ele><time>2026-05-01T15:57:10Z</time></trkpt><trkpt lat="45.8818657221126" lon="13.258964861139289"><ele>15.0</ele><time>2026-05-01T15:57:11Z</time></trkpt><trkpt lat="45.88202635014541" lon="13.259340223008182"><ele>15.0</ele><time>2026-05-01T15:57:12Z</time></trkpt><trkpt lat="45.882188126141145" lon="13.259715767888"><ele>15.0</ele><time>2026-05-01T15:57:13Z</time></trkpt><trkpt lat="45.88235421809437" lon="13.260088718033863"><ele>15.0</ele><time>2026-05-01T15:57:14Z</time></trkpt><trkpt lat="45.882525421770254" lon="13.26045817231713"><ele>15.0</ele><time>2026-05-01T15:57:15Z</time></trkpt><trkpt lat="45.882701278638535" lon="13.26082702643575"><ele>15.0</ele><time>2026-05-01T15:57:16Z</time></trkpt><trkpt lat="45.8828776817864" lon="13.261194276566329"><ele>15.0</ele><time>2026-05-01T15:57:17Z</time></trkpt><trkpt lat="45.883052358195556" lon="13.261561105606557"><ele>16.0</ele><time>2026-05-01T15:57:18Z</time></trkpt><trkpt lat="45.88322673407491" lon="13.261925339217315"><ele>17.0</ele><time>2026-05-01T15:57:19Z</time></trkpt><trkpt lat="45.88339970148026" lon="13.262283768068647"><ele>16.5</ele><time>2026-05-01T15:57:20Z</time></trkpt><trkpt lat="45.88357243993986" lon="13.26264241593481"><ele>16.0</ele><time>2026-05-01T15:57:21Z</time></trkpt><trkpt lat="45.88374752259504" lon="13.263004741449922"><ele>16.5</ele><time>2026-05-01T15:57:22Z</time></trkpt><trkpt lat="45.883922692482386" lon="13.26337135473424"><ele>17.0</ele><time>2026-05-01T15:57:23Z</time></trkpt><trkpt lat="45.88410000273333" lon="13.263738493378114"><ele>16.5</ele><time>2026-05-01T15:57:24Z</time></trkpt><trkpt lat="45.8842796584754" lon="13.264096471174307"><ele>16.0</ele><time>2026-05-01T15:57:25Z</time></trkpt><trkpt lat="45.884462726061216" lon="13.264448286337831"><ele>16.5</ele><time>2026-05-01T15:57:26Z</time></trkpt><trkpt lat="45.8846476527429" lon="13.264794071564253"><ele>17.0</ele><time>2026-05-01T15:57:27Z</time></trkpt><trkpt lat="45.8848330409745" lon="13.265135681114842"><ele>17.0</ele><time>2026-05-01T15:57:28Z</time></trkpt><trkpt lat="45.88501858733726" lon="13.265476725010034"><ele>17.0</ele><time>2026-05-01T15:57:29Z</time></trkpt><trkpt lat="45.885200552299075" lon="13.265817504825884"><ele>16.5</ele><time>2026-05-01T15:57:30Z</time></trkpt><trkpt lat="45.885377021414726" lon="13.266154343764496"><ele>16.0</ele><time>2026-05-01T15:57:31Z</time></trkpt><trkpt lat="45.885549798625924" lon="13.266485408566687"><ele>16.0</ele><time>2026-05-01T15:57:32Z</time></trkpt><trkpt lat="45.88572130561401" lon="13.266811226727176"><ele>16.0</ele><time>2026-05-01T15:57:33Z</time></trkpt><trkpt lat="45.885894212516476" lon="13.267135299297035"><ele>17.0</ele><time>2026-05-01T15:57:34Z</time></trkpt><trkpt lat="45.88606996411192" lon="13.267461374560066"><ele>18.0</ele><time>2026-05-01T15:57:35Z</time></trkpt><trkpt lat="45.886246957691235" lon="13.267789873534479"><ele>16.5</ele><time>2026-05-01T15:57:36Z</time></trkpt><trkpt lat="45.88642248183229" lon="13.268123325199038"><ele>15.0</ele><time>2026-05-01T15:57:37Z</time></trkpt><trkpt lat="45.886603804523986" lon="13.268457269456592"><ele>16.0</ele><time>2026-05-01T15:57:38Z</time></trkpt><trkpt lat="45.88678582427756" lon="13.268793609038891"><ele>17.0</ele><time>2026-05-01T15:57:39Z</time></trkpt><trkpt lat="45.88696869360652" lon="13.269133499604248"><ele>17.0</ele><time>2026-05-01T15:57:40Z</time></trkpt><trkpt lat="45.88715263819893" lon="13.26947428462273"><ele>17.0</ele><time>2026-05-01T15:57:41Z</time></trkpt><trkpt lat="45.887335873969526" lon="13.26981527409725"><ele>17.0</ele><time>2026-05-01T15:57:42Z</time></trkpt><trkpt lat="45.88751853913417" lon="13.270158275803794"><ele>17.0</ele><time>2026-05-01T15:57:43Z</time></trkpt><trkpt lat="45.8877016965361" lon="13.270500605531371"><ele>17.5</ele><time>2026-05-01T15:57:44Z</time></trkpt><trkpt lat="45.88788480795817" lon="13.270841912745592"><ele>18.0</ele><time>2026-05-01T15:57:45Z</time></trkpt><trkpt lat="45.88806926185043" lon="13.271183865919118"><ele>18.5</ele><time>2026-05-01T15:57:46Z</time></trkpt><trkpt lat="45.88825452328963" lon="13.271524739515096"><ele>19.0</ele><time>2026-05-01T15:57:47Z</time></trkpt><trkpt lat="45.888441594484995" lon="13.271865929522239"><ele>18.5</ele><time>2026-05-01T15:57:48Z</time></trkpt><trkpt lat="45.88862837389226" lon="13.27220940750181"><ele>18.0</ele><time>2026-05-01T15:57:49Z</time></trkpt><trkpt lat="45.88881548801529" lon="13.27255539967234"><ele>18.0</ele><time>2026-05-01T15:57:50Z</time></trkpt><trkpt lat="45.88900150543922" lon="13.272905624976314"><ele>18.0</ele><time>2026-05-01T15:57:51Z</time></trkpt><trkpt lat="45.88918819510553" lon="13.273258094431801"><ele>18.0</ele><time>2026-05-01T15:57:52Z</time></trkpt><trkpt lat="45.88937608380844" lon="13.273612143618427"><ele>18.0</ele><time>2026-05-01T15:57:53Z</time></trkpt><trkpt lat="45.889565416590486" lon="13.273967399777506"><ele>18.0</ele><time>2026-05-01T15:57:54Z</time></trkpt><trkpt lat="45.889754534288386" lon="13.27432361688299"><ele>18.0</ele><time>2026-05-01T15:57:55Z</time></trkpt><trkpt lat="45.88994019382098" lon="13.27467625952716"><ele>18.0</ele><time>2026-05-01T15:57:56Z</time></trkpt><trkpt lat="45.8901285097062" lon="13.275024154595947"><ele>18.0</ele><time>2026-05-01T15:57:57Z</time></trkpt><trkpt lat="45.89032134901299" lon="13.275367247834229"><ele>17.5</ele><time>2026-05-01T15:57:58Z</time></trkpt><trkpt lat="45.890514063263105" lon="13.275714583784566"><ele>17.0</ele><time>2026-05-01T15:57:59Z</time></trkpt><trkpt lat="45.890706750138925" lon="13.27606544577505"><ele>17.0</ele><time>2026-05-01T15:58:00Z</time></trkpt><trkpt lat="45.89089724081475" lon="13.276417063312572"><ele>17.0</ele><time>2026-05-01T15:58:01Z</time></trkpt><trkpt lat="45.89108673642748" lon="13.276769310462507"><ele>17.5</ele><time>2026-05-01T15:58:02Z</time></trkpt><trkpt lat="45.89127527420219" lon="13.277120630307072"><ele>18.0</ele><time>2026-05-01T15:58:03Z</time></trkpt><trkpt lat="45.891465330466005" lon="13.277472613861146"><ele>18.0</ele><time>2026-05-01T15:58:04Z</time></trkpt><trkpt lat="45.89165470287571" lon="13.277826861348041"><ele>18.0</ele><time>2026-05-01T15:58:05Z</time></trkpt><trkpt lat="45.89184534622287" lon="13.278182564119195"><ele>18.0</ele><time>2026-05-01T15:58:06Z</time></trkpt><trkpt lat="45.89203710891081" lon="13.278536864585623"><ele>18.0</ele><time>2026-05-01T15:58:07Z</time></trkpt><trkpt lat="45.89223004638579" lon="13.27889288497858"><ele>18.0</ele><time>2026-05-01T15:58:08Z</time></trkpt><trkpt lat="45.89242210294263" lon="13.279247764207382"><ele>18.0</ele><time>2026-05-01T15:58:09Z</time></trkpt><trkpt lat="45.89261653863547" lon="13.279600436025738"><ele>19.5</ele><time>2026-05-01T15:58:10Z</time></trkpt><trkpt lat="45.892813285375844" lon="13.279953787143366"><ele>21.0</ele><time>2026-05-01T15:58:11Z</time></trkpt><trkpt lat="45.89301196783177" lon="13.280305424042613"><ele>21.0</ele><time>2026-05-01T15:58:11.999Z</time></trkpt><trkpt lat="45.893210649914465" lon="13.280656992225047"><ele>21.0</ele><time>2026-05-01T15:58:12.999Z</time></trkpt><trkpt lat="45.893412419354306" lon="13.281008922761645"><ele>21.5</ele><time>2026-05-01T15:58:13.999Z</time></trkpt><trkpt lat="45.89361368548948" lon="13.281362131950058"><ele>22.0</ele><time>2026-05-01T15:58:15Z</time></trkpt><trkpt lat="45.89381462579355" lon="13.281717143416476"><ele>22.0</ele><time>2026-05-01T15:58:16Z</time></trkpt><trkpt lat="45.89401386635596" lon="13.282073247643643"><ele>22.0</ele><time>2026-05-01T15:58:17Z</time></trkpt><trkpt lat="45.89421393928322" lon="13.28243114752437"><ele>22.0</ele><time>2026-05-01T15:58:18Z</time></trkpt><trkpt lat="45.894414006859414" lon="13.282790127550028"><ele>22.0</ele><time>2026-05-01T15:58:19Z</time></trkpt><trkpt lat="45.89461168806296" lon="13.283148966976329"><ele>22.0</ele><time>2026-05-01T15:58:20Z</time></trkpt><trkpt lat="45.894804122555946" lon="13.283503679184383"><ele>22.0</ele><time>2026-05-01T15:58:21Z</time></trkpt><trkpt lat="45.894988445513675" lon="13.283852364338856"><ele>24.5</ele><time>2026-05-01T15:58:22Z</time></trkpt><trkpt lat="45.89516556880294" lon="13.284192438967299"><ele>27.0</ele><time>2026-05-01T15:58:23Z</time></trkpt><trkpt lat="45.895341285416755" lon="13.284544499946605"><ele>25.0</ele><time>2026-05-01T15:58:24Z</time></trkpt><trkpt lat="45.8955017661119" lon="13.284918838554884"><ele>23.0</ele><time>2026-05-01T15:58:25Z</time></trkpt><trkpt lat="45.89565672282176" lon="13.285322225860558"><ele>22.0</ele><time>2026-05-01T15:58:26Z</time></trkpt><trkpt lat="45.895794737114" lon="13.28575760558535"><ele>21.0</ele><time>2026-05-01T15:58:27Z</time></trkpt><trkpt lat="45.8959137024925" lon="13.286216533890423"><ele>22.5</ele><time>2026-05-01T15:58:28Z</time></trkpt><trkpt lat="45.89601287691247" lon="13.286679810222093"><ele>24.0</ele><time>2026-05-01T15:58:29Z</time></trkpt><trkpt lat="45.89609300324335" lon="13.28713949451448"><ele>23.5</ele><time>2026-05-01T15:58:30Z</time></trkpt><trkpt lat="45.89615170755733" lon="13.287593881166332"><ele>23.0</ele><time>2026-05-01T15:58:31Z</time></trkpt><trkpt lat="45.89619080981281" lon="13.288044256444563"><ele>23.0</ele><time>2026-05-01T15:58:32Z</time></trkpt><trkpt lat="45.89621380520471" lon="13.288492886454813"><ele>23.0</ele><time>2026-05-01T15:58:33Z</time></trkpt><trkpt lat="45.896223125248525" lon="13.288935579907566"><ele>22.5</ele><time>2026-05-01T15:58:34Z</time></trkpt><trkpt lat="45.896210877430384" lon="13.289374771777624"><ele>22.0</ele><time>2026-05-01T15:58:35Z</time></trkpt><trkpt lat="45.89618402314761" lon="13.289817517996475"><ele>23.0</ele><time>2026-05-01T15:58:36Z</time></trkpt><trkpt lat="45.896144877567615" lon="13.290267511938358"><ele>24.0</ele><time>2026-05-01T15:58:37Z</time></trkpt><trkpt lat="45.896094598310185" lon="13.29072465121829"><ele>24.0</ele><time>2026-05-01T15:58:38Z</time></trkpt><trkpt lat="45.89603880962017" lon="13.29119101161292"><ele>24.0</ele><time>2026-05-01T15:58:39Z</time></trkpt><trkpt lat="45.895981850116684" lon="13.291659475795422"><ele>23.0</ele><time>2026-05-01T15:58:40Z</time></trkpt><trkpt lat="45.89591451465334" lon="13.292123953075945"><ele>22.0</ele><time>2026-05-01T15:58:41Z</time></trkpt><trkpt lat="45.89583326581915" lon="13.292592573714789"><ele>22.0</ele><time>2026-05-01T15:58:42Z</time></trkpt><trkpt lat="45.89574376144841" lon="13.293063024940944"><ele>22.0</ele><time>2026-05-01T15:58:43Z</time></trkpt><trkpt lat="45.89564349441406" lon="13.293533286339867"><ele>22.0</ele><time>2026-05-01T15:58:44Z</time></trkpt><trkpt lat="45.89553727507847" lon="13.294003508604803"><ele>22.0</ele><time>2026-05-01T15:58:45Z</time></trkpt><trkpt lat="45.89542902293117" lon="13.294471504690692"><ele>22.5</ele><time>2026-05-01T15:58:46Z</time></trkpt><trkpt lat="45.89532361422564" lon="13.294939641908805"><ele>23.0</ele><time>2026-05-01T15:58:47Z</time></trkpt><trkpt lat="45.89522280312114" lon="13.29540822274087"><ele>22.0</ele><time>2026-05-01T15:58:48Z</time></trkpt><trkpt lat="45.89512248884539" lon="13.295879016701669"><ele>21.0</ele><time>2026-05-01T15:58:49Z</time></trkpt><trkpt lat="45.895022681205596" lon="13.296346386045144"><ele>21.0</ele><time>2026-05-01T15:58:50Z</time></trkpt><trkpt lat="45.894922393385485" lon="13.296811081014221"><ele>21.0</ele><time>2026-05-01T15:58:51Z</time></trkpt><trkpt lat="45.894822119616414" lon="13.297266835534433"><ele>21.0</ele><time>2026-05-01T15:58:52Z</time></trkpt><trkpt lat="45.89472229138726" lon="13.297716602304536"><ele>21.0</ele><time>2026-05-01T15:58:53Z</time></trkpt><trkpt lat="45.89462507527917" lon="13.298157473975797"><ele>21.0</ele><time>2026-05-01T15:58:54Z</time></trkpt><trkpt lat="45.89453025849345" lon="13.298594997497434"><ele>21.0</ele><time>2026-05-01T15:58:55Z</time></trkpt><trkpt lat="45.89443656651946" lon="13.2990273311115"><ele>21.0</ele><time>2026-05-01T15:58:56Z</time></trkpt><trkpt lat="45.894343254826126" lon="13.299456195213667"><ele>21.0</ele><time>2026-05-01T15:58:57Z</time></trkpt><trkpt lat="45.89425377130851" lon="13.299877131425067"><ele>21.5</ele><time>2026-05-01T15:58:58Z</time></trkpt><trkpt lat="45.89416715060035" lon="13.300279982260129"><ele>22.0</ele><time>2026-05-01T15:58:59Z</time></trkpt><trkpt lat="45.89408155817646" lon="13.300665422910935"><ele>22.0</ele><time>2026-05-01T15:59:00Z</time></trkpt><trkpt lat="45.89399856217831" lon="13.301038316064941"><ele>22.0</ele><time>2026-05-01T15:59:01Z</time></trkpt><trkpt lat="45.89391187181723" lon="13.301408086812026"><ele>22.5</ele><time>2026-05-01T15:59:02Z</time></trkpt><trkpt lat="45.89382054876629" lon="13.30179274616079"><ele>23.0</ele><time>2026-05-01T15:59:03Z</time></trkpt><trkpt lat="45.89372703235216" lon="13.302185803241604"><ele>22.0</ele><time>2026-05-01T15:59:04Z</time></trkpt><trkpt lat="45.89363541337492" lon="13.302565819663096"><ele>21.0</ele><time>2026-05-01T15:59:05Z</time></trkpt><trkpt lat="45.89354712732798" lon="13.302919058160803"><ele>21.0</ele><time>2026-05-01T15:59:06Z</time></trkpt><trkpt lat="45.893461158946465" lon="13.303250672153517"><ele>21.0</ele><time>2026-05-01T15:59:07Z</time></trkpt><trkpt lat="45.89337909617101" lon="13.303560521753589"><ele>21.0</ele><time>2026-05-01T15:59:08Z</time></trkpt><trkpt lat="45.89330230144278" lon="13.30384713535455"><ele>21.0</ele><time>2026-05-01T15:59:09Z</time></trkpt><trkpt lat="45.89322682074899" lon="13.304111715837333"><ele>21.0</ele><time>2026-05-01T15:59:10Z</time></trkpt><trkpt lat="45.89314558204612" lon="13.30434966807846"><ele>21.0</ele><time>2026-05-01T15:59:11Z</time></trkpt><trkpt lat="45.89304947682264" lon="13.3045676306211"><ele>21.0</ele><time>2026-05-01T15:59:12Z</time></trkpt><trkpt lat="45.89292174627407" lon="13.304768407298432"><ele>21.0</ele><time>2026-05-01T15:59:13Z</time></trkpt><trkpt lat="45.89276005014852" lon="13.304947006365184"><ele>20.666666666666668</ele><time>2026-05-01T15:59:14Z</time></trkpt><trkpt lat="45.892564353494855" lon="13.305082501060937"><ele>20.333333333333336</ele><time>2026-05-01T15:59:15Z</time></trkpt><trkpt lat="45.89234635988442" lon="13.305178875375105"><ele>20.0</ele><time>2026-05-01T15:59:16Z</time></trkpt><trkpt lat="45.8921175507829" lon="13.305235369358748"><ele>20.0</ele><time>2026-05-01T15:59:17Z</time></trkpt><trkpt lat="45.89191544893871" lon="13.305279002217945"><ele>20.0</ele><time>2026-05-01T15:59:18Z</time></trkpt><trkpt lat="45.89173193310053" lon="13.305333613392671"><ele>20.0</ele><time>2026-05-01T15:59:19Z</time></trkpt><trkpt lat="45.89157075248147" lon="13.305405159363909"><ele>20.0</ele><time>2026-05-01T15:59:20Z</time></trkpt><trkpt lat="45.89143669421117" lon="13.305511905366128"><ele>20.0</ele><time>2026-05-01T15:59:21Z</time></trkpt><trkpt lat="45.891329522137724" lon="13.305640818978677"><ele>20.0</ele><time>2026-05-01T15:59:22Z</time></trkpt><trkpt lat="45.89125319372721" lon="13.305779473076488"><ele>20.0</ele><time>2026-05-01T15:59:23Z</time></trkpt><trkpt lat="45.891194029737065" lon="13.305943876497016"><ele>20.0</ele><time>2026-05-01T15:59:24Z</time></trkpt><trkpt lat="45.89114380041714" lon="13.30613823441008"><ele>20.0</ele><time>2026-05-01T15:59:25Z</time></trkpt><trkpt lat="45.89107735032459" lon="13.306345953010238"><ele>20.0</ele><time>2026-05-01T15:59:26Z</time></trkpt><trkpt lat="45.8910339751194" lon="13.30657122018358"><ele>20.0</ele><time>2026-05-01T15:59:27Z</time></trkpt><trkpt lat="45.89098239714291" lon="13.306755222275248"><ele>20.0</ele><time>2026-05-01T15:59:28Z</time></trkpt><trkpt lat="45.890936599398955" lon="13.306921040514972"><ele>20.0</ele><time>2026-05-01T15:59:29Z</time></trkpt><trkpt lat="45.890898535120556" lon="13.307053624311239"><ele>20.0</ele><time>2026-05-01T15:59:30Z</time></trkpt><trkpt lat="45.890870463611535" lon="13.30715239724453"><ele>20.0</ele><time>2026-05-01T15:59:31Z</time></trkpt><trkpt lat="45.89083803738889" lon="13.307271614375065"><ele>20.0</ele><time>2026-05-01T15:59:33Z</time></trkpt><trkpt lat="45.89073302640461" lon="13.307569725686516"><ele>20.0</ele><time>2026-05-01T16:01:22Z</time></trkpt><trkpt lat="45.89066524632708" lon="13.307684605050984"><ele>20.0</ele><time>2026-05-01T16:01:23Z</time></trkpt><trkpt lat="45.89057122622534" lon="13.30778166010155"><ele>20.0</ele><time>2026-05-01T16:01:24Z</time></trkpt><trkpt lat="45.890513614915314" lon="13.30789181564584"><ele>20.0</ele><time>2026-05-01T16:01:25Z</time></trkpt><trkpt lat="45.890491213559876" lon="13.307990842854158"><ele>20.0</ele><time>2026-05-01T16:01:26Z</time></trkpt><trkpt lat="45.89058749531756" lon="13.308109281744999"><ele>20.0</ele><time>2026-05-01T16:01:27Z</time></trkpt><trkpt lat="45.89049222447942" lon="13.308097131062931"><ele>20.0</ele><time>2026-05-01T16:01:53Z</time></trkpt><trkpt lat="45.89047965269385" lon="13.308247189039099"><ele>20.166666666666668</ele><time>2026-05-01T16:02:30Z</time></trkpt><trkpt lat="45.8904699869191" lon="13.308361169039413"><ele>20.333333333333336</ele><time>2026-05-01T16:02:31Z</time></trkpt><trkpt lat="45.890458240202534" lon="13.308479841272739"><ele>20.5</ele><time>2026-05-01T16:02:32Z</time></trkpt><trkpt lat="45.89043668860852" lon="13.30859855900834"><ele>20.666666666666668</ele><time>2026-05-01T16:02:33Z</time></trkpt><trkpt lat="45.89039923549031" lon="13.308720095304453"><ele>20.833333333333332</ele><time>2026-05-01T16:02:34Z</time></trkpt><trkpt lat="45.890369302837065" lon="13.308800934821685"><ele>21.0</ele><time>2026-05-01T16:02:35Z</time></trkpt><trkpt lat="45.89032119613069" lon="13.308885669306045"><ele>20.833333333333332</ele><time>2026-05-01T16:02:38Z</time></trkpt><trkpt lat="45.8902332083421" lon="13.309013348378118"><ele>20.666666666666668</ele><time>2026-05-01T16:02:40Z</time></trkpt><trkpt lat="45.890200867720075" lon="13.30912581559008"><ele>20.5</ele><time>2026-05-01T16:02:41Z</time></trkpt><trkpt lat="45.89019963142164" lon="13.309254169641866"><ele>20.333333333333336</ele><time>2026-05-01T16:02:42Z</time></trkpt><trkpt lat="45.89021741262067" lon="13.309367142634276"><ele>20.166666666666668</ele><time>2026-05-01T16:02:43Z</time></trkpt><trkpt lat="45.89023587693678" lon="13.309463670274953"><ele>20.0</ele><time>2026-05-01T16:02:44Z</time></trkpt><trkpt lat="45.89023209305582" lon="13.309603422528271"><ele>20.0</ele><time>2026-05-01T16:02:46Z</time></trkpt><trkpt lat="45.89020735893781" lon="13.309721782989392"><ele>20.0</ele><time>2026-05-01T16:02:47Z</time></trkpt><trkpt lat="45.89016916706103" lon="13.30988554197491"><ele>20.0</ele><time>2026-05-01T16:02:48Z</time></trkpt><trkpt lat="45.890136054415876" lon="13.310030957029763"><ele>20.0</ele><time>2026-05-01T16:02:49Z</time></trkpt><trkpt lat="45.89010936870828" lon="13.310145405739565"><ele>20.0</ele><time>2026-05-01T16:02:50Z</time></trkpt><trkpt lat="45.89008272277232" lon="13.310264792464642"><ele>20.0</ele><time>2026-05-01T16:02:51Z</time></trkpt><trkpt lat="45.890056535119676" lon="13.310390309986243"><ele>20.0</ele><time>2026-05-01T16:02:52Z</time></trkpt><trkpt lat="45.89003450155752" lon="13.310513546636237"><ele>20.0</ele><time>2026-05-01T16:02:53Z</time></trkpt><trkpt lat="45.89000762195645" lon="13.310637236580472"><ele>20.0</ele><time>2026-05-01T16:02:54Z</time></trkpt><trkpt lat="45.889984891508" lon="13.31076592231043"><ele>20.0</ele><time>2026-05-01T16:02:55Z</time></trkpt><trkpt lat="45.8899604844495" lon="13.310893219182173"><ele>20.0</ele><time>2026-05-01T16:02:56Z</time></trkpt><trkpt lat="45.889941647985694" lon="13.311007582040926"><ele>20.0</ele><time>2026-05-01T16:02:57Z</time></trkpt><trkpt lat="45.88992516709732" lon="13.311113161352464"><ele>20.0</ele><time>2026-05-01T16:02:58Z</time></trkpt><trkpt lat="45.88990656233271" lon="13.311217484347996"><ele>20.0</ele><time>2026-05-01T16:02:59Z</time></trkpt><trkpt lat="45.889887754739085" lon="13.311314819406794"><ele>20.0</ele><time>2026-05-01T16:03:00Z</time></trkpt><trkpt lat="45.889846480486256" lon="13.311463748398017"><ele>20.0</ele><time>2026-05-01T16:03:02Z</time></trkpt><trkpt lat="45.889761893586034" lon="13.311603560860764"><ele>20.0</ele><time>2026-05-01T16:03:04Z</time></trkpt><trkpt lat="45.889707545864226" lon="13.31168299791726"><ele>20.0</ele><time>2026-05-01T16:03:05Z</time></trkpt><trkpt lat="45.889679182846194" lon="13.31178462264794"><ele>20.0</ele><time>2026-05-01T16:03:06Z</time></trkpt><trkpt lat="45.88966247046493" lon="13.311927532743974"><ele>20.0</ele><time>2026-05-01T16:03:07Z</time></trkpt><trkpt lat="45.88975368422062" lon="13.312079749659587"><ele>20.0</ele><time>2026-05-01T16:03:08Z</time></trkpt><trkpt lat="45.88983122565282" lon="13.312281356296792"><ele>19.5</ele><time>2026-05-01T16:03:09Z</time></trkpt><trkpt lat="45.88988854869606" lon="13.312560393072259"><ele>19.0</ele><time>2026-05-01T16:03:10Z</time></trkpt><trkpt lat="45.88994624165386" lon="13.312929528253026"><ele>19.0</ele><time>2026-05-01T16:03:11Z</time></trkpt><trkpt lat="45.890008312970245" lon="13.313305338179747"><ele>19.0</ele><time>2026-05-01T16:03:12Z</time></trkpt><trkpt lat="45.890097038205994" lon="13.313681131212254"><ele>19.0</ele><time>2026-05-01T16:03:13Z</time></trkpt><trkpt lat="45.89022731265099" lon="13.314048873316572"><ele>19.0</ele><time>2026-05-01T16:03:14Z</time></trkpt><trkpt lat="45.89038334275491" lon="13.31438111455646"><ele>19.0</ele><time>2026-05-01T16:03:15Z</time></trkpt><trkpt lat="45.890548842647895" lon="13.314691934289666"><ele>19.0</ele><time>2026-05-01T16:03:16Z</time></trkpt><trkpt lat="45.890731343986296" lon="13.31497980833302"><ele>19.5</ele><time>2026-05-01T16:03:17Z</time></trkpt><trkpt lat="45.8909185391054" lon="13.315254825174462"><ele>20.0</ele><time>2026-05-01T16:03:18Z</time></trkpt><trkpt lat="45.891082383758196" lon="13.315504762702664"><ele>20.333333333333336</ele><time>2026-05-01T16:03:19Z</time></trkpt><trkpt lat="45.89122614256759" lon="13.315740219089715"><ele>20.666666666666668</ele><time>2026-05-01T16:03:20Z</time></trkpt><trkpt lat="45.891346377813704" lon="13.315979242083472"><ele>21.0</ele><time>2026-05-01T16:03:21Z</time></trkpt><trkpt lat="45.89144929626819" lon="13.316244165378176"><ele>21.333333333333332</ele><time>2026-05-01T16:03:22Z</time></trkpt><trkpt lat="45.89152312314158" lon="13.316522070630585"><ele>21.666666666666664</ele><time>2026-05-01T16:03:23Z</time></trkpt><trkpt lat="45.89155617668659" lon="13.316807653071406"><ele>22.0</ele><time>2026-05-01T16:03:24Z</time></trkpt><trkpt lat="45.8915392450381" lon="13.317089801593774"><ele>21.333333333333332</ele><time>2026-05-01T16:03:25Z</time></trkpt><trkpt lat="45.891473578844575" lon="13.317367001946582"><ele>20.666666666666668</ele><time>2026-05-01T16:03:26Z</time></trkpt><trkpt lat="45.89136649969498" lon="13.317645935576733"><ele>20.0</ele><time>2026-05-01T16:03:27Z</time></trkpt><trkpt lat="45.89122284658004" lon="13.31793591077743"><ele>19.5</ele><time>2026-05-01T16:03:28Z</time></trkpt><trkpt lat="45.89103779333695" lon="13.318237041774863"><ele>19.0</ele><time>2026-05-01T16:03:29Z</time></trkpt><trkpt lat="45.89082335642906" lon="13.318567705589663"><ele>19.0</ele><time>2026-05-01T16:03:30Z</time></trkpt><trkpt lat="45.89061126520464" lon="13.31889817093255"><ele>19.0</ele><time>2026-05-01T16:03:31Z</time></trkpt><trkpt lat="45.89042465730985" lon="13.319210198795988"><ele>19.0</ele><time>2026-05-01T16:03:32Z</time></trkpt><trkpt lat="45.89025514884503" lon="13.319526434781872"><ele>19.0</ele><time>2026-05-01T16:03:33Z</time></trkpt><trkpt lat="45.89011244308999" lon="13.319874935420803"><ele>18.5</ele><time>2026-05-01T16:03:34Z</time></trkpt><trkpt lat="45.89000160848442" lon="13.320253374486578"><ele>18.0</ele><time>2026-05-01T16:03:35Z</time></trkpt><trkpt lat="45.88990377400921" lon="13.320663802331092"><ele>18.0</ele><time>2026-05-01T16:03:36Z</time></trkpt><trkpt lat="45.88980356688778" lon="13.321087122400225"><ele>18.0</ele><time>2026-05-01T16:03:37Z</time></trkpt><trkpt lat="45.88969988746223" lon="13.321504894800148"><ele>17.5</ele><time>2026-05-01T16:03:38Z</time></trkpt><trkpt lat="45.88959838531826" lon="13.321917363763944"><ele>17.0</ele><time>2026-05-01T16:03:39Z</time></trkpt><trkpt lat="45.8895017593188" lon="13.32231334779994"><ele>15.5</ele><time>2026-05-01T16:03:40Z</time></trkpt><trkpt lat="45.889392091083245" lon="13.322686786283775"><ele>14.0</ele><time>2026-05-01T16:03:41Z</time></trkpt><trkpt lat="45.889300033358516" lon="13.323058701450675"><ele>17.0</ele><time>2026-05-01T16:03:42Z</time></trkpt><trkpt lat="45.88920873488902" lon="13.323427548658639"><ele>20.0</ele><time>2026-05-01T16:03:43Z</time></trkpt><trkpt lat="45.88911295138511" lon="13.323815932792721"><ele>20.0</ele><time>2026-05-01T16:03:44Z</time></trkpt><trkpt lat="45.889007472782744" lon="13.324243343210346"><ele>20.0</ele><time>2026-05-01T16:03:45Z</time></trkpt><trkpt lat="45.88889210814197" lon="13.324710812841355"><ele>20.5</ele><time>2026-05-01T16:03:46Z</time></trkpt><trkpt lat="45.888770796620115" lon="13.325202379867651"><ele>21.0</ele><time>2026-05-01T16:03:47Z</time></trkpt><trkpt lat="45.888643991460874" lon="13.325711893872498"><ele>21.0</ele><time>2026-05-01T16:03:48Z</time></trkpt><trkpt lat="45.888526350903234" lon="13.326234313809739"><ele>21.0</ele><time>2026-05-01T16:03:49Z</time></trkpt><trkpt lat="45.888397898527" lon="13.326738102887976"><ele>20.0</ele><time>2026-05-01T16:03:50Z</time></trkpt><trkpt lat="45.8882694870398" lon="13.32723325203397"><ele>19.0</ele><time>2026-05-01T16:03:51Z</time></trkpt><trkpt lat="45.88814356937905" lon="13.327722597519953"><ele>17.5</ele><time>2026-05-01T16:03:52Z</time></trkpt><trkpt lat="45.888022069384114" lon="13.328205809698089"><ele>16.0</ele><time>2026-05-01T16:03:53Z</time></trkpt><trkpt lat="45.88790403882038" lon="13.328682766752625"><ele>15.0</ele><time>2026-05-01T16:03:54Z</time></trkpt><trkpt lat="45.88778815827431" lon="13.329153643649049"><ele>14.0</ele><time>2026-05-01T16:03:55Z</time></trkpt><trkpt lat="45.88767152237361" lon="13.329617357078126"><ele>14.0</ele><time>2026-05-01T16:03:56Z</time></trkpt><trkpt lat="45.88755748277129" lon="13.330075890827676"><ele>14.0</ele><time>2026-05-01T16:03:57Z</time></trkpt><trkpt lat="45.887444387731534" lon="13.33053024175724"><ele>15.0</ele><time>2026-05-01T16:03:58Z</time></trkpt><trkpt lat="45.88733263201617" lon="13.330984844072699"><ele>16.0</ele><time>2026-05-01T16:03:59Z</time></trkpt><trkpt lat="45.88722267477193" lon="13.331439604328146"><ele>16.5</ele><time>2026-05-01T16:04:00Z</time></trkpt><trkpt lat="45.88711288355445" lon="13.331892735629792"><ele>17.0</ele><time>2026-05-01T16:04:01Z</time></trkpt><trkpt lat="45.88700120973457" lon="13.332345750599668"><ele>17.0</ele><time>2026-05-01T16:04:02Z</time></trkpt><trkpt lat="45.8868930489712" lon="13.332790825592411"><ele>17.0</ele><time>2026-05-01T16:04:03Z</time></trkpt><trkpt lat="45.88678900930866" lon="13.333219771219438"><ele>17.5</ele><time>2026-05-01T16:04:04Z</time></trkpt><trkpt lat="45.88669159474674" lon="13.333625737461507"><ele>18.0</ele><time>2026-05-01T16:04:05Z</time></trkpt><trkpt lat="45.8865833158554" lon="13.333995187593686"><ele>18.0</ele><time>2026-05-01T16:04:06Z</time></trkpt><trkpt lat="45.88649548775321" lon="13.334352543362277"><ele>18.0</ele><time>2026-05-01T16:04:07Z</time></trkpt><trkpt lat="45.886427756142254" lon="13.334693872336711"><ele>17.666666666666668</ele><time>2026-05-01T16:04:08Z</time></trkpt><trkpt lat="45.88634914288711" lon="13.335004729515965"><ele>17.333333333333336</ele><time>2026-05-01T16:04:09Z</time></trkpt><trkpt lat="45.8862738531161" lon="13.335292918409342"><ele>17.0</ele><time>2026-05-01T16:04:10Z</time></trkpt><trkpt lat="45.88620550331506" lon="13.335555351859108"><ele>17.0</ele><time>2026-05-01T16:04:11Z</time></trkpt><trkpt lat="45.88614373940678" lon="13.335799745913352"><ele>17.0</ele><time>2026-05-01T16:04:12Z</time></trkpt><trkpt lat="45.886088259392" lon="13.336023569052086"><ele>17.0</ele><time>2026-05-01T16:04:13Z</time></trkpt><trkpt lat="45.88603500786193" lon="13.336237415768677"><ele>17.0</ele><time>2026-05-01T16:04:14Z</time></trkpt><trkpt lat="45.88597974244219" lon="13.336455724418608"><ele>17.0</ele><time>2026-05-01T16:04:15Z</time></trkpt><trkpt lat="45.88592834110975" lon="13.336658237172657"><ele>17.0</ele><time>2026-05-01T16:04:16Z</time></trkpt><trkpt lat="45.88588187183788" lon="13.336844017565477"><ele>17.0</ele><time>2026-05-01T16:04:17Z</time></trkpt><trkpt lat="45.885843141564656" lon="13.337013575330506"><ele>17.2</ele><time>2026-05-01T16:04:17.999Z</time></trkpt><trkpt lat="45.885814069351404" lon="13.337177066570156"><ele>17.4</ele><time>2026-05-01T16:04:18.999Z</time></trkpt><trkpt lat="45.88579773642285" lon="13.337333707042502"><ele>17.6</ele><time>2026-05-01T16:04:19.999Z</time></trkpt><trkpt lat="45.88579622528781" lon="13.337463040654114"><ele>17.8</ele><time>2026-05-01T16:04:20.999Z</time></trkpt><trkpt lat="45.88580449926868" lon="13.337561978051985"><ele>18.0</ele><time>2026-05-01T16:04:21.999Z</time></trkpt><trkpt lat="45.88581274856607" lon="13.33768545528975"><ele>18.0</ele><time>2026-05-01T16:04:23.999Z</time></trkpt><trkpt lat="45.88580667835289" lon="13.337805910798867"><ele>18.0</ele><time>2026-05-01T16:04:26.999Z</time></trkpt><trkpt lat="45.88574806399089" lon="13.3379550604027"><ele>18.0</ele><time>2026-05-01T16:04:28.999Z</time></trkpt><trkpt lat="45.88570126959287" lon="13.338041777875942"><ele>18.0</ele><time>2026-05-01T16:04:29.999Z</time></trkpt><trkpt lat="45.88566244543667" lon="13.338150491781237"><ele>18.0</ele><time>2026-05-01T16:04:30.999Z</time></trkpt><trkpt lat="45.88563912700455" lon="13.338266407334908"><ele>18.0</ele><time>2026-05-01T16:04:31.999Z</time></trkpt><trkpt lat="45.88563130357734" lon="13.338391476261915"><ele>17.5</ele><time>2026-05-01T16:04:33Z</time></trkpt><trkpt lat="45.885608531926415" lon="13.338528417203957"><ele>17.0</ele><time>2026-05-01T16:04:34Z</time></trkpt><trkpt lat="45.885551816667466" lon="13.338663452945031"><ele>16.5</ele><time>2026-05-01T16:04:35Z</time></trkpt><trkpt lat="45.88545629437646" lon="13.33878297574235"><ele>16.0</ele><time>2026-05-01T16:04:36Z</time></trkpt><trkpt lat="45.88536522962557" lon="13.338918156036902"><ele>16.0</ele><time>2026-05-01T16:04:37Z</time></trkpt><trkpt lat="45.885327973349895" lon="13.339125565849299"><ele>16.0</ele><time>2026-05-01T16:04:38Z</time></trkpt><trkpt lat="45.885255784658455" lon="13.339356692963921"><ele>16.0</ele><time>2026-05-01T16:04:39Z</time></trkpt><trkpt lat="45.88517459854274" lon="13.33967458913936"><ele>16.5</ele><time>2026-05-01T16:04:40Z</time></trkpt><trkpt lat="45.885074273596565" lon="13.340069166124804"><ele>17.0</ele><time>2026-05-01T16:04:41Z</time></trkpt><trkpt lat="45.88495737326319" lon="13.340539941549547"><ele>18.0</ele><time>2026-05-01T16:04:42Z</time></trkpt><trkpt lat="45.88482528307248" lon="13.341071024499366"><ele>19.0</ele><time>2026-05-01T16:04:43Z</time></trkpt><trkpt lat="45.884721065493224" lon="13.341659215103364"><ele>19.5</ele><time>2026-05-01T16:04:44Z</time></trkpt><trkpt lat="45.884563308736475" lon="13.342261533218391"><ele>20.0</ele><time>2026-05-01T16:04:45Z</time></trkpt><trkpt lat="45.884395891220656" lon="13.342886283981164"><ele>19.0</ele><time>2026-05-01T16:04:46Z</time></trkpt><trkpt lat="45.88423751623171" lon="13.343490498444334"><ele>18.0</ele><time>2026-05-01T16:04:47Z</time></trkpt><trkpt lat="45.88409367563502" lon="13.344063993399784"><ele>18.0</ele><time>2026-05-01T16:04:48Z</time></trkpt><trkpt lat="45.88395770874602" lon="13.344609574229736"><ele>18.0</ele><time>2026-05-01T16:04:49Z</time></trkpt><trkpt lat="45.88382847566904" lon="13.345135490780129"><ele>19.0</ele><time>2026-05-01T16:04:50Z</time></trkpt><trkpt lat="45.88370698632865" lon="13.345648762602456"><ele>20.0</ele><time>2026-05-01T16:04:51Z</time></trkpt><trkpt lat="45.883589697447185" lon="13.346139722220551"><ele>20.0</ele><time>2026-05-01T16:04:52Z</time></trkpt><trkpt lat="45.883475709107486" lon="13.346611094701641"><ele>20.0</ele><time>2026-05-01T16:04:53Z</time></trkpt><trkpt lat="45.88336582782163" lon="13.347052193247476"><ele>19.5</ele><time>2026-05-01T16:04:54Z</time></trkpt><trkpt lat="45.88326310100059" lon="13.347464038490584"><ele>19.0</ele><time>2026-05-01T16:04:55Z</time></trkpt><trkpt lat="45.88317191512836" lon="13.347846068323033"><ele>18.5</ele><time>2026-05-01T16:04:56Z</time></trkpt><trkpt lat="45.88309213418192" lon="13.348205104720256"><ele>18.0</ele><time>2026-05-01T16:04:57Z</time></trkpt><trkpt lat="45.88303344994347" lon="13.348539795025493"><ele>18.0</ele><time>2026-05-01T16:04:58Z</time></trkpt><trkpt lat="45.883002988420884" lon="13.348885035216837"><ele>18.0</ele><time>2026-05-01T16:04:59Z</time></trkpt><trkpt lat="45.88301369606781" lon="13.349242441015033"><ele>18.0</ele><time>2026-05-01T16:05:00Z</time></trkpt><trkpt lat="45.88306402940162" lon="13.349609276722562"><ele>18.0</ele><time>2026-05-01T16:05:01Z</time></trkpt><trkpt lat="45.88315565366204" lon="13.349958325116434"><ele>18.5</ele><time>2026-05-01T16:05:02Z</time></trkpt><trkpt lat="45.883288154360166" lon="13.350278194863396"><ele>19.0</ele><time>2026-05-01T16:05:03Z</time></trkpt><trkpt lat="45.883451040868536" lon="13.350562989767472"><ele>19.0</ele><time>2026-05-01T16:05:04Z</time></trkpt><trkpt lat="45.883636496050414" lon="13.350822726132096"><ele>19.0</ele><time>2026-05-01T16:05:05Z</time></trkpt><trkpt lat="45.883845436771274" lon="13.351055678818055"><ele>19.0</ele><time>2026-05-01T16:05:06Z</time></trkpt><trkpt lat="45.88404794518405" lon="13.351268805761357"><ele>19.0</ele><time>2026-05-01T16:05:07Z</time></trkpt><trkpt lat="45.88423032830783" lon="13.351472645567954"><ele>20.0</ele><time>2026-05-01T16:05:08Z</time></trkpt><trkpt lat="45.88440344306795" lon="13.35166383240656"><ele>21.0</ele><time>2026-05-01T16:05:09Z</time></trkpt><trkpt lat="45.88459823469187" lon="13.35186358746689"><ele>21.0</ele><time>2026-05-01T16:05:10Z</time></trkpt><trkpt lat="45.88481962070537" lon="13.352140928799665"><ele>21.0</ele><time>2026-05-01T16:05:11Z</time></trkpt><trkpt lat="45.885079851528985" lon="13.352428667922691"><ele>20.0</ele><time>2026-05-01T16:05:12Z</time></trkpt><trkpt lat="45.88533662082973" lon="13.35273278338509"><ele>19.0</ele><time>2026-05-01T16:05:13Z</time></trkpt><trkpt lat="45.885580228115046" lon="13.353011619338123"><ele>18.5</ele><time>2026-05-01T16:05:14Z</time></trkpt><trkpt lat="45.88580260862757" lon="13.353270257965837"><ele>18.0</ele><time>2026-05-01T16:05:15Z</time></trkpt><trkpt lat="45.886011514868486" lon="13.353499680934085"><ele>18.0</ele><time>2026-05-01T16:05:16Z</time></trkpt><trkpt lat="45.88622687482081" lon="13.35369774332557"><ele>18.0</ele><time>2026-05-01T16:05:17Z</time></trkpt><trkpt lat="45.88645805023253" lon="13.353857219975911"><ele>18.0</ele><time>2026-05-01T16:05:18Z</time></trkpt><trkpt lat="45.886710879480276" lon="13.353970916634738"><ele>18.0</ele><time>2026-05-01T16:05:19Z</time></trkpt><trkpt lat="45.886989464835125" lon="13.354045430911258"><ele>18.0</ele><time>2026-05-01T16:05:20Z</time></trkpt><trkpt lat="45.887287734844996" lon="13.354079460934038"><ele>18.0</ele><time>2026-05-01T16:05:21Z</time></trkpt><trkpt lat="45.88760108901532" lon="13.354100442033873"><ele>18.0</ele><time>2026-05-01T16:05:22Z</time></trkpt><trkpt lat="45.88790665761727" lon="13.354137506423882"><ele>18.0</ele><time>2026-05-01T16:05:23Z</time></trkpt><trkpt lat="45.888205192730325" lon="13.354193671188867"><ele>18.5</ele><time>2026-05-01T16:05:24Z</time></trkpt><trkpt lat="45.88849004221772" lon="13.354283684882843"><ele>19.0</ele><time>2026-05-01T16:05:25Z</time></trkpt><trkpt lat="45.88876477006655" lon="13.3544252749219"><ele>19.0</ele><time>2026-05-01T16:05:26Z</time></trkpt><trkpt lat="45.88902529398756" lon="13.354620287205316"><ele>19.0</ele><time>2026-05-01T16:05:27Z</time></trkpt><trkpt lat="45.88925203656034" lon="13.354839813697026"><ele>19.5</ele><time>2026-05-01T16:05:28Z</time></trkpt><trkpt lat="45.88945479712017" lon="13.355083890742206"><ele>20.0</ele><time>2026-05-01T16:05:29Z</time></trkpt><trkpt lat="45.889627438248574" lon="13.355339791972641"><ele>19.5</ele><time>2026-05-01T16:05:30Z</time></trkpt><trkpt lat="45.88977359927536" lon="13.355621435356966"><ele>19.0</ele><time>2026-05-01T16:05:31Z</time></trkpt><trkpt lat="45.889902126798894" lon="13.355909194426635"><ele>19.0</ele><time>2026-05-01T16:05:32Z</time></trkpt><trkpt lat="45.890006666311365" lon="13.35619222881632"><ele>19.0</ele><time>2026-05-01T16:05:33Z</time></trkpt><trkpt lat="45.89008609967962" lon="13.356467163115946"><ele>19.0</ele><time>2026-05-01T16:05:34Z</time></trkpt><trkpt lat="45.89014824758805" lon="13.356728396941005"><ele>20.0</ele><time>2026-05-01T16:05:35Z</time></trkpt><trkpt lat="45.89019943064307" lon="13.356966048327918"><ele>21.0</ele><time>2026-05-01T16:05:36Z</time></trkpt><trkpt lat="45.890247297155724" lon="13.357178984692643"><ele>22.0</ele><time>2026-05-01T16:05:37Z</time></trkpt><trkpt lat="45.89029027298592" lon="13.357371069759449"><ele>22.0</ele><time>2026-05-01T16:05:38Z</time></trkpt><trkpt lat="45.89033129868334" lon="13.357544537462482"><ele>22.0</ele><time>2026-05-01T16:05:39Z</time></trkpt><trkpt lat="45.89036594682592" lon="13.357695238156014"><ele>22.0</ele><time>2026-05-01T16:05:40Z</time></trkpt><trkpt lat="45.89039344167559" lon="13.3578229323457"><ele>22.0</ele><time>2026-05-01T16:05:41Z</time></trkpt><trkpt lat="45.89042339230454" lon="13.357960820870987"><ele>22.0</ele><time>2026-05-01T16:05:42Z</time></trkpt><trkpt lat="45.89046062797271" lon="13.35810202510644"><ele>21.75</ele><time>2026-05-01T16:05:43Z</time></trkpt><trkpt lat="45.890501151711305" lon="13.358254187480076"><ele>21.5</ele><time>2026-05-01T16:05:44Z</time></trkpt><trkpt lat="45.89053409914569" lon="13.358417697911868"><ele>21.25</ele><time>2026-05-01T16:05:45Z</time></trkpt><trkpt lat="45.89057773923394" lon="13.3586107789798"><ele>21.0</ele><time>2026-05-01T16:05:46Z</time></trkpt><trkpt lat="45.89063258545845" lon="13.358841580537263"><ele>21.0</ele><time>2026-05-01T16:05:47Z</time></trkpt><trkpt lat="45.89070009931986" lon="13.359118046837056"><ele>21.0</ele><time>2026-05-01T16:05:48Z</time></trkpt><trkpt lat="45.89076877961711" lon="13.35943368797368"><ele>21.0</ele><time>2026-05-01T16:05:49Z</time></trkpt><trkpt lat="45.890842617153396" lon="13.359777849109717"><ele>22.5</ele><time>2026-05-01T16:05:50Z</time></trkpt><trkpt lat="45.89092663783446" lon="13.360146858424034"><ele>24.0</ele><time>2026-05-01T16:05:51Z</time></trkpt><trkpt lat="45.89101259966614" lon="13.360529123944362"><ele>26.0</ele><time>2026-05-01T16:05:52Z</time></trkpt><trkpt lat="45.89109847225026" lon="13.360918923303247"><ele>28.0</ele><time>2026-05-01T16:05:53Z</time></trkpt><trkpt lat="45.891185428864" lon="13.361311884968908"><ele>27.0</ele><time>2026-05-01T16:05:54Z</time></trkpt><trkpt lat="45.89127411635056" lon="13.36170497515626"><ele>26.0</ele><time>2026-05-01T16:05:55Z</time></trkpt><trkpt lat="45.89136354781489" lon="13.362092013563778"><ele>25.0</ele><time>2026-05-01T16:05:56Z</time></trkpt><trkpt lat="45.891450133685986" lon="13.36246697758213"><ele>24.0</ele><time>2026-05-01T16:05:57Z</time></trkpt><trkpt lat="45.89153350940282" lon="13.362831797638005"><ele>23.5</ele><time>2026-05-01T16:05:58Z</time></trkpt><trkpt lat="45.891612532679545" lon="13.363177516796304"><ele>23.0</ele><time>2026-05-01T16:05:59Z</time></trkpt><trkpt lat="45.89168475255224" lon="13.363497489547427"><ele>23.0</ele><time>2026-05-01T16:06:00Z</time></trkpt><trkpt lat="45.89175110495203" lon="13.363795799496053"><ele>23.0</ele><time>2026-05-01T16:06:01Z</time></trkpt><trkpt lat="45.89181330218302" lon="13.364076884413283"><ele>23.0</ele><time>2026-05-01T16:06:02Z</time></trkpt><trkpt lat="45.891869499526784" lon="13.364336982369096"><ele>22.333333333333336</ele><time>2026-05-01T16:06:03Z</time></trkpt><trkpt lat="45.891917564841926" lon="13.364584220530062"><ele>21.666666666666668</ele><time>2026-05-01T16:06:04Z</time></trkpt><trkpt lat="45.891970875477256" lon="13.364822413569641"><ele>21.0</ele><time>2026-05-01T16:06:05Z</time></trkpt><trkpt lat="45.892028905347935" lon="13.365076242272854"><ele>21.0</ele><time>2026-05-01T16:06:06Z</time></trkpt><trkpt lat="45.89208097343102" lon="13.365319233838946"><ele>21.0</ele><time>2026-05-01T16:06:07Z</time></trkpt><trkpt lat="45.89212629861268" lon="13.365542447806513"><ele>21.0</ele><time>2026-05-01T16:06:08Z</time></trkpt><trkpt lat="45.89217042958482" lon="13.365759533056789"><ele>21.0</ele><time>2026-05-01T16:06:09Z</time></trkpt><trkpt lat="45.89221145872464" lon="13.365964817800126"><ele>21.0</ele><time>2026-05-01T16:06:10Z</time></trkpt><trkpt lat="45.89224735693483" lon="13.366157677412104"><ele>21.0</ele><time>2026-05-01T16:06:11Z</time></trkpt><trkpt lat="45.89227999258293" lon="13.366336085633375"><ele>21.0</ele><time>2026-05-01T16:06:12Z</time></trkpt><trkpt lat="45.89231011232686" lon="13.366505099502941"><ele>21.0</ele><time>2026-05-01T16:06:13Z</time></trkpt><trkpt lat="45.89233935586885" lon="13.366664407303348"><ele>21.0</ele><time>2026-05-01T16:06:14Z</time></trkpt><trkpt lat="45.89236699987973" lon="13.366816310880957"><ele>21.0</ele><time>2026-05-01T16:06:15Z</time></trkpt><trkpt lat="45.8923934373245" lon="13.366971912217977"><ele>21.0</ele><time>2026-05-01T16:06:16Z</time></trkpt><trkpt lat="45.89241894850442" lon="13.367127862468246"><ele>21.0</ele><time>2026-05-01T16:06:17Z</time></trkpt><trkpt lat="45.89244126351385" lon="13.367266474229453"><ele>21.333333333333332</ele><time>2026-05-01T16:06:18Z</time></trkpt><trkpt lat="45.892460684493585" lon="13.367396118231971"><ele>21.666666666666668</ele><time>2026-05-01T16:06:19Z</time></trkpt><trkpt lat="45.89247736342949" lon="13.367523353034946"><ele>22.0</ele><time>2026-05-01T16:06:20Z</time></trkpt><trkpt lat="45.89249498053298" lon="13.367646417470574"><ele>22.333333333333336</ele><time>2026-05-01T16:06:21Z</time></trkpt><trkpt lat="45.89250754677829" lon="13.367773584220068"><ele>22.666666666666668</ele><time>2026-05-01T16:06:22Z</time></trkpt><trkpt lat="45.89251666667857" lon="13.367900377050383"><ele>23.0</ele><time>2026-05-01T16:06:22.999Z</time></trkpt><trkpt lat="45.89252951334153" lon="13.368039540546281"><ele>23.0</ele><time>2026-05-01T16:06:23.999Z</time></trkpt><trkpt lat="45.89253672431929" lon="13.368177050571969"><ele>23.0</ele><time>2026-05-01T16:06:24.999Z</time></trkpt><trkpt lat="45.892542907891595" lon="13.368308322791776"><ele>23.0</ele><time>2026-05-01T16:06:25.999Z</time></trkpt><trkpt lat="45.89255229928455" lon="13.368440031491549"><ele>23.0</ele><time>2026-05-01T16:06:26.999Z</time></trkpt><trkpt lat="45.89255525200082" lon="13.368575457153746"><ele>23.0</ele><time>2026-05-01T16:06:27.999Z</time></trkpt><trkpt lat="45.89255729708911" lon="13.36871264194381"><ele>23.0</ele><time>2026-05-01T16:06:28.999Z</time></trkpt><trkpt lat="45.89255940903106" lon="13.368842252368447"><ele>23.0</ele><time>2026-05-01T16:06:29.999Z</time></trkpt><trkpt lat="45.89256051385257" lon="13.36895851464659"><ele>23.0</ele><time>2026-05-01T16:06:30.999Z</time></trkpt><trkpt lat="45.89254474981055" lon="13.369072028434147"><ele>23.0</ele><time>2026-05-01T16:06:31.999Z</time></trkpt><trkpt lat="45.892543825724566" lon="13.369214954053414"><ele>23.0</ele><time>2026-05-01T16:06:32.999Z</time></trkpt><trkpt lat="45.89254197257442" lon="13.369397993691408"><ele>23.0</ele><time>2026-05-01T16:06:33.999Z</time></trkpt><trkpt lat="45.89254922785114" lon="13.36961747110429"><ele>23.0</ele><time>2026-05-01T16:06:34.999Z</time></trkpt><trkpt lat="45.89254478593634" lon="13.369868519708394"><ele>23.0</ele><time>2026-05-01T16:06:35.999Z</time></trkpt><trkpt lat="45.892517904262576" lon="13.370132138093288"><ele>23.0</ele><time>2026-05-01T16:06:36.999Z</time></trkpt><trkpt lat="45.892508155931296" lon="13.370391535982769"><ele>23.0</ele><time>2026-05-01T16:06:37.999Z</time></trkpt><trkpt lat="45.89249916383373" lon="13.370643712950775"><ele>23.0</ele><time>2026-05-01T16:06:39Z</time></trkpt><trkpt lat="45.89249076204636" lon="13.37087933515529"><ele>22.666666666666668</ele><time>2026-05-01T16:06:40Z</time></trkpt><trkpt lat="45.89248280270057" lon="13.371102549389512"><ele>22.333333333333332</ele><time>2026-05-01T16:06:41Z</time></trkpt><trkpt lat="45.8924912466808" lon="13.371321431426551"><ele>22.0</ele><time>2026-05-01T16:06:42Z</time></trkpt><trkpt lat="45.89248217973145" lon="13.371533300395347"><ele>22.0</ele><time>2026-05-01T16:06:43Z</time></trkpt><trkpt lat="45.892474584768046" lon="13.371745202092594"><ele>22.0</ele><time>2026-05-01T16:06:44Z</time></trkpt><trkpt lat="45.89246509077187" lon="13.371961879713165"><ele>22.0</ele><time>2026-05-01T16:06:45Z</time></trkpt><trkpt lat="45.89245741751641" lon="13.372181773542202"><ele>22.0</ele><time>2026-05-01T16:06:46Z</time></trkpt><trkpt lat="45.89244924314314" lon="13.372404490459324"><ele>22.0</ele><time>2026-05-01T16:06:47Z</time></trkpt><trkpt lat="45.89242596760519" lon="13.372635584721484"><ele>22.0</ele><time>2026-05-01T16:06:48Z</time></trkpt><trkpt lat="45.8924178563469" lon="13.372850842523848"><ele>22.333333333333332</ele><time>2026-05-01T16:06:49Z</time></trkpt><trkpt lat="45.89242385907775" lon="13.373083883777765"><ele>22.666666666666668</ele><time>2026-05-01T16:06:50Z</time></trkpt><trkpt lat="45.89241499999552" lon="13.373327352393183"><ele>23.0</ele><time>2026-05-01T16:06:51Z</time></trkpt><trkpt lat="45.89239046998995" lon="13.373574345321794"><ele>23.0</ele><time>2026-05-01T16:06:52Z</time></trkpt><trkpt lat="45.89237980379572" lon="13.373828553164167"><ele>23.0</ele><time>2026-05-01T16:06:53Z</time></trkpt><trkpt lat="45.892368249935494" lon="13.374103916793084"><ele>23.0</ele><time>2026-05-01T16:06:54Z</time></trkpt><trkpt lat="45.892355696107344" lon="13.374403112668269"><ele>22.5</ele><time>2026-05-01T16:06:55Z</time></trkpt><trkpt lat="45.89234226248691" lon="13.374723276630482"><ele>22.0</ele><time>2026-05-01T16:06:56Z</time></trkpt><trkpt lat="45.89232677056518" lon="13.375094363731625"><ele>21.5</ele><time>2026-05-01T16:06:57Z</time></trkpt><trkpt lat="45.892343629891876" lon="13.375553447241787"><ele>21.0</ele><time>2026-05-01T16:06:58Z</time></trkpt><trkpt lat="45.89232322378991" lon="13.376052477852852"><ele>21.0</ele><time>2026-05-01T16:06:59Z</time></trkpt><trkpt lat="45.89230101309979" lon="13.376578377424872"><ele>21.0</ele><time>2026-05-01T16:07:00Z</time></trkpt><trkpt lat="45.89228040445291" lon="13.377098079226833"><ele>21.5</ele><time>2026-05-01T16:07:01Z</time></trkpt><trkpt lat="45.892222235205594" lon="13.37759276138562"><ele>22.0</ele><time>2026-05-01T16:07:02Z</time></trkpt><trkpt lat="45.89221159386258" lon="13.378087830041768"><ele>22.0</ele><time>2026-05-01T16:07:03Z</time></trkpt><trkpt lat="45.89215937671396" lon="13.378575747767835"><ele>22.0</ele><time>2026-05-01T16:07:04Z</time></trkpt><trkpt lat="45.892105629639694" lon="13.37904353121706"><ele>23.0</ele><time>2026-05-01T16:07:05Z</time></trkpt><trkpt lat="45.89205394924153" lon="13.37947673698206"><ele>24.0</ele><time>2026-05-01T16:07:06Z</time></trkpt><trkpt lat="45.892009404454235" lon="13.379876244920847"><ele>24.0</ele><time>2026-05-01T16:07:07Z</time></trkpt><trkpt lat="45.89196814468855" lon="13.380250981180154"><ele>24.0</ele><time>2026-05-01T16:07:08Z</time></trkpt><trkpt lat="45.8919276649003" lon="13.38061354174743"><ele>24.0</ele><time>2026-05-01T16:07:09Z</time></trkpt><trkpt lat="45.891896360921" lon="13.380954231778103"><ele>24.0</ele><time>2026-05-01T16:07:10Z</time></trkpt><trkpt lat="45.891879193337886" lon="13.381271432553813"><ele>24.0</ele><time>2026-05-01T16:07:11Z</time></trkpt><trkpt lat="45.89188165651024" lon="13.381566170383062"><ele>24.0</ele><time>2026-05-01T16:07:12Z</time></trkpt><trkpt lat="45.89189281060545" lon="13.381831730830703"><ele>24.0</ele><time>2026-05-01T16:07:13Z</time></trkpt><trkpt lat="45.89190198965841" lon="13.382074459618932"><ele>24.25</ele><time>2026-05-01T16:07:14Z</time></trkpt><trkpt lat="45.891908896956714" lon="13.382295746916427"><ele>24.5</ele><time>2026-05-01T16:07:15Z</time></trkpt><trkpt lat="45.891916054431306" lon="13.382503487977482"><ele>24.75</ele><time>2026-05-01T16:07:16Z</time></trkpt><trkpt lat="45.891923366147495" lon="13.382710696738737"><ele>25.0</ele><time>2026-05-01T16:07:17Z</time></trkpt><trkpt lat="45.89192876366119" lon="13.382920305097649"><ele>25.0</ele><time>2026-05-01T16:07:18Z</time></trkpt><trkpt lat="45.891935439864746" lon="13.383116438490383"><ele>25.0</ele><time>2026-05-01T16:07:19Z</time></trkpt><trkpt lat="45.891946579781454" lon="13.383287984338796"><ele>25.0</ele><time>2026-05-01T16:07:20Z</time></trkpt><trkpt lat="45.891939966187465" lon="13.383426715345474"><ele>25.0</ele><time>2026-05-01T16:07:21Z</time></trkpt><trkpt lat="45.89195008990587" lon="13.383541472489537"><ele>25.0</ele><time>2026-05-01T16:07:22Z</time></trkpt><trkpt lat="45.8921360533748" lon="13.383613325689765"><ele>25.0</ele><time>2026-05-01T16:07:24Z</time></trkpt><trkpt lat="45.89224776213678" lon="13.38357240856213"><ele>25.0</ele><time>2026-05-01T16:07:25Z</time></trkpt><trkpt lat="45.892393562953814" lon="13.383501200220012"><ele>25.0</ele><time>2026-05-01T16:07:26Z</time></trkpt><trkpt lat="45.89259791779306" lon="13.38340782471485"><ele>24.5</ele><time>2026-05-01T16:07:27Z</time></trkpt><trkpt lat="45.892842571168906" lon="13.383300300312763"><ele>24.0</ele><time>2026-05-01T16:07:28Z</time></trkpt><trkpt lat="45.893133731177066" lon="13.383181207722883"><ele>24.0</ele><time>2026-05-01T16:07:29Z</time></trkpt><trkpt lat="45.893414281892746" lon="13.383066529557574"><ele>24.0</ele><time>2026-05-01T16:07:30Z</time></trkpt><trkpt lat="45.89367101970055" lon="13.382967807991552"><ele>24.0</ele><time>2026-05-01T16:07:31Z</time></trkpt><trkpt lat="45.8939064157665" lon="13.38286913522601"><ele>24.0</ele><time>2026-05-01T16:07:32Z</time></trkpt><trkpt lat="45.89411978663806" lon="13.382780266980024"><ele>24.666666666666664</ele><time>2026-05-01T16:07:33Z</time></trkpt><trkpt lat="45.89431669743096" lon="13.38269409744642"><ele>25.333333333333332</ele><time>2026-05-01T16:07:34Z</time></trkpt><trkpt lat="45.89450088620131" lon="13.38261210161378"><ele>26.0</ele><time>2026-05-01T16:07:35Z</time></trkpt><trkpt lat="45.89467500998915" lon="13.382543292622396"><ele>26.0</ele><time>2026-05-01T16:07:36Z</time></trkpt><trkpt lat="45.89483825619817" lon="13.382475005418135"><ele>26.0</ele><time>2026-05-01T16:07:37Z</time></trkpt><trkpt lat="45.894985176771236" lon="13.382409253251916"><ele>26.0</ele><time>2026-05-01T16:07:38Z</time></trkpt><trkpt lat="45.89512527016315" lon="13.382350759329976"><ele>26.0</ele><time>2026-05-01T16:07:39Z</time></trkpt><trkpt lat="45.895253205268695" lon="13.382297598817004"><ele>26.0</ele><time>2026-05-01T16:07:40Z</time></trkpt><trkpt lat="45.8953714646413" lon="13.382251242059267"><ele>26.0</ele><time>2026-05-01T16:07:41Z</time></trkpt><trkpt lat="45.895472334951364" lon="13.382210283143666"><ele>26.0</ele><time>2026-05-01T16:07:42Z</time></trkpt><trkpt lat="45.89556012329802" lon="13.382172363453758"><ele>26.200000000000003</ele><time>2026-05-01T16:07:43Z</time></trkpt><trkpt lat="45.89563629681113" lon="13.382142754094115"><ele>26.400000000000002</ele><time>2026-05-01T16:07:44Z</time></trkpt><trkpt lat="45.89574030761251" lon="13.38210792656789"><ele>26.6</ele><time>2026-05-01T16:07:46Z</time></trkpt><trkpt lat="45.89577714411847" lon="13.381963309471613"><ele>26.8</ele><time>2026-05-01T16:07:48Z</time></trkpt><trkpt lat="45.8957947970256" lon="13.381848855640666"><ele>27.0</ele><time>2026-05-01T16:07:50Z</time></trkpt><trkpt lat="45.895820819908735" lon="13.381725917198153"><ele>27.0</ele><time>2026-05-01T16:07:52Z</time></trkpt><trkpt lat="45.89584851186784" lon="13.381594392330005"><ele>27.0</ele><time>2026-05-01T16:07:54Z</time></trkpt><trkpt lat="45.895858718525126" lon="13.381466985518633"><ele>27.0</ele><time>2026-05-01T16:07:56Z</time></trkpt><trkpt lat="45.89589184222988" lon="13.381360910847441"><ele>27.0</ele><time>2026-05-01T16:07:58Z</time></trkpt><trkpt lat="45.89592738236403" lon="13.381264642108814"><ele>27.0</ele><time>2026-05-01T16:08:01Z</time></trkpt><trkpt lat="45.89601621906259" lon="13.38128823450454"><ele>27.0</ele><time>2026-05-01T16:08:02Z</time></trkpt><trkpt lat="45.89609273871037" lon="13.381260280576434"><ele>26.0</ele><time>2026-05-01T16:08:04Z</time></trkpt><trkpt lat="45.89616518167875" lon="13.381249568184034"><ele>26.0</ele><time>2026-05-01T16:08:06Z</time></trkpt></trkseg></trk></gpx>